<?xml version="1.0" encoding="UTF-8"?>
<gpx version="1.1" creator="https://www.youtrack.es" xsi:schemaLocation="http://www.topografix.com/GPX/1/1 http://www.topografix.com/GPX/1/1/gpx.xsd http://www.garmin.com/xmlschemas/GpxExtensions/v3 http://www.garmin.com/xmlschemas/GpxExtensionsv3.xsd http://www.garmin.com/xmlschemas/TrackPointExtension/v1 http://www.garmin.com/xmlschemas/TrackPointExtensionv1.xsd" xmlns:gpxtpx="http://www.garmin.com/xmlschemas/TrackPointExtension/v1" xmlns:gpxx="http://www.garmin.com/xmlschemas/GpxExtensions/v3" xmlns:xsi="http://www.w3.org/2001/XMLSchema-instance">
  <metadata>
    <link href="https://www.youtrack.es">
      <text>YouTrack.es</text>
    </link>
    <time>2026-05-08T10:26:55Z</time>
  </metadata>
  <trk>
    <src>https://www.youtrack.es</src>
    <link href="https://www.youtrack.es/ruta/4772-ruta-per-bellus">
      <text>YouTrack.es</text>
    </link>
    <trkseg>
      <trkpt lat="39.20422" lon="-0.31941">
        <time>2019-03-23T07:58:01Z</time>
      </trkpt>
      <trkpt lat="39.20419" lon="-0.31942">
        <time>2019-03-23T07:58:02Z</time>
      </trkpt>
      <trkpt lat="39.20415" lon="-0.31941">
        <time>2019-03-23T07:58:03Z</time>
      </trkpt>
      <trkpt lat="39.20409" lon="-0.3194">
        <time>2019-03-23T07:58:04Z</time>
      </trkpt>
      <trkpt lat="39.20403" lon="-0.31939">
        <time>2019-03-23T07:58:05Z</time>
      </trkpt>
      <trkpt lat="39.20396" lon="-0.3194">
        <time>2019-03-23T07:58:06Z</time>
      </trkpt>
      <trkpt lat="39.20389" lon="-0.31945">
        <time>2019-03-23T07:58:07Z</time>
      </trkpt>
      <trkpt lat="39.20381" lon="-0.31954">
        <time>2019-03-23T07:58:08Z</time>
      </trkpt>
      <trkpt lat="39.20373" lon="-0.31964">
        <time>2019-03-23T07:58:09Z</time>
      </trkpt>
      <trkpt lat="39.20364" lon="-0.31973">
        <time>2019-03-23T07:58:10Z</time>
      </trkpt>
      <trkpt lat="39.20355" lon="-0.31985">
        <time>2019-03-23T07:58:11Z</time>
      </trkpt>
      <trkpt lat="39.2035" lon="-0.31998">
        <time>2019-03-23T07:58:12Z</time>
      </trkpt>
      <trkpt lat="39.20347" lon="-0.32011">
        <time>2019-03-23T07:58:13Z</time>
      </trkpt>
      <trkpt lat="39.20347" lon="-0.32024">
        <time>2019-03-23T07:58:14Z</time>
      </trkpt>
      <trkpt lat="39.20345" lon="-0.32035">
        <time>2019-03-23T07:58:15Z</time>
      </trkpt>
      <trkpt lat="39.2034" lon="-0.32045">
        <time>2019-03-23T07:58:16Z</time>
      </trkpt>
      <trkpt lat="39.20333" lon="-0.3205">
        <time>2019-03-23T07:58:17Z</time>
      </trkpt>
      <trkpt lat="39.20325" lon="-0.32051">
        <time>2019-03-23T07:58:18Z</time>
      </trkpt>
      <trkpt lat="39.20317" lon="-0.32047">
        <time>2019-03-23T07:58:19Z</time>
      </trkpt>
      <trkpt lat="39.20313" lon="-0.3204">
        <time>2019-03-23T07:58:20Z</time>
      </trkpt>
      <trkpt lat="39.20311" lon="-0.3203">
        <time>2019-03-23T07:58:21Z</time>
      </trkpt>
      <trkpt lat="39.20313" lon="-0.32019">
        <time>2019-03-23T07:58:22Z</time>
      </trkpt>
      <trkpt lat="39.20318" lon="-0.3201">
        <time>2019-03-23T07:58:23Z</time>
      </trkpt>
      <trkpt lat="39.20326" lon="-0.32002">
        <time>2019-03-23T07:58:24Z</time>
      </trkpt>
      <trkpt lat="39.20335" lon="-0.31993">
        <time>2019-03-23T07:58:25Z</time>
      </trkpt>
      <trkpt lat="39.20344" lon="-0.31981">
        <time>2019-03-23T07:58:26Z</time>
      </trkpt>
      <trkpt lat="39.20354" lon="-0.31967">
        <time>2019-03-23T07:58:27Z</time>
      </trkpt>
      <trkpt lat="39.20364" lon="-0.31952">
        <time>2019-03-23T07:58:28Z</time>
      </trkpt>
      <trkpt lat="39.20376" lon="-0.31938">
        <time>2019-03-23T07:58:29Z</time>
      </trkpt>
      <trkpt lat="39.20387" lon="-0.31924">
        <time>2019-03-23T07:58:30Z</time>
      </trkpt>
      <trkpt lat="39.20399" lon="-0.3191">
        <time>2019-03-23T07:58:31Z</time>
      </trkpt>
      <trkpt lat="39.20412" lon="-0.31896">
        <time>2019-03-23T07:58:32Z</time>
      </trkpt>
      <trkpt lat="39.20424" lon="-0.31882">
        <time>2019-03-23T07:58:33Z</time>
      </trkpt>
      <trkpt lat="39.20435" lon="-0.31868">
        <time>2019-03-23T07:58:34Z</time>
      </trkpt>
      <trkpt lat="39.20445" lon="-0.31855">
        <time>2019-03-23T07:58:35Z</time>
      </trkpt>
      <trkpt lat="39.20454" lon="-0.31843">
        <time>2019-03-23T07:58:36Z</time>
      </trkpt>
      <trkpt lat="39.20462" lon="-0.3183">
        <time>2019-03-23T07:58:37Z</time>
      </trkpt>
      <trkpt lat="39.20468" lon="-0.3182">
        <time>2019-03-23T07:58:38Z</time>
      </trkpt>
      <trkpt lat="39.20472" lon="-0.31811">
        <time>2019-03-23T07:58:39Z</time>
      </trkpt>
      <trkpt lat="39.20475" lon="-0.31803">
        <time>2019-03-23T07:58:40Z</time>
      </trkpt>
      <trkpt lat="39.20477" lon="-0.31795">
        <time>2019-03-23T07:58:41Z</time>
      </trkpt>
      <trkpt lat="39.20479" lon="-0.31788">
        <time>2019-03-23T07:58:42Z</time>
      </trkpt>
      <trkpt lat="39.20481" lon="-0.31777">
        <time>2019-03-23T07:58:43Z</time>
      </trkpt>
      <trkpt lat="39.20484" lon="-0.31767">
        <time>2019-03-23T07:58:44Z</time>
      </trkpt>
      <trkpt lat="39.20491" lon="-0.31758">
        <time>2019-03-23T07:58:45Z</time>
      </trkpt>
      <trkpt lat="39.20502" lon="-0.31751">
        <time>2019-03-23T07:58:46Z</time>
      </trkpt>
      <trkpt lat="39.20515" lon="-0.31748">
        <time>2019-03-23T07:58:47Z</time>
      </trkpt>
      <trkpt lat="39.20529" lon="-0.31742">
        <time>2019-03-23T07:58:48Z</time>
      </trkpt>
      <trkpt lat="39.20543" lon="-0.31734">
        <time>2019-03-23T07:58:49Z</time>
      </trkpt>
      <trkpt lat="39.20557" lon="-0.31721">
        <time>2019-03-23T07:58:50Z</time>
      </trkpt>
      <trkpt lat="39.20569" lon="-0.31708">
        <time>2019-03-23T07:58:51Z</time>
      </trkpt>
      <trkpt lat="39.20582" lon="-0.31694">
        <time>2019-03-23T07:58:52Z</time>
      </trkpt>
      <trkpt lat="39.20595" lon="-0.31681">
        <time>2019-03-23T07:58:53Z</time>
      </trkpt>
      <trkpt lat="39.20609" lon="-0.31667">
        <time>2019-03-23T07:58:54Z</time>
      </trkpt>
      <trkpt lat="39.20622" lon="-0.31654">
        <time>2019-03-23T07:58:55Z</time>
      </trkpt>
      <trkpt lat="39.20636" lon="-0.3164">
        <time>2019-03-23T07:58:56Z</time>
      </trkpt>
      <trkpt lat="39.2065" lon="-0.31625">
        <time>2019-03-23T07:58:57Z</time>
      </trkpt>
      <trkpt lat="39.20664" lon="-0.31611">
        <time>2019-03-23T07:58:58Z</time>
      </trkpt>
      <trkpt lat="39.20678" lon="-0.31598">
        <time>2019-03-23T07:58:59Z</time>
      </trkpt>
      <trkpt lat="39.2069" lon="-0.31586">
        <time>2019-03-23T07:59:00Z</time>
      </trkpt>
      <trkpt lat="39.20701" lon="-0.31575">
        <time>2019-03-23T07:59:01Z</time>
      </trkpt>
      <trkpt lat="39.20712" lon="-0.31563">
        <time>2019-03-23T07:59:02Z</time>
      </trkpt>
      <trkpt lat="39.20723" lon="-0.31553">
        <time>2019-03-23T07:59:03Z</time>
      </trkpt>
      <trkpt lat="39.20734" lon="-0.31543">
        <time>2019-03-23T07:59:04Z</time>
      </trkpt>
      <trkpt lat="39.20744" lon="-0.31532">
        <time>2019-03-23T07:59:05Z</time>
      </trkpt>
      <trkpt lat="39.20756" lon="-0.31521">
        <time>2019-03-23T07:59:06Z</time>
      </trkpt>
      <trkpt lat="39.20768" lon="-0.31509">
        <time>2019-03-23T07:59:07Z</time>
      </trkpt>
      <trkpt lat="39.20781" lon="-0.31495">
        <time>2019-03-23T07:59:08Z</time>
      </trkpt>
      <trkpt lat="39.20795" lon="-0.31481">
        <time>2019-03-23T07:59:09Z</time>
      </trkpt>
      <trkpt lat="39.2081" lon="-0.31467">
        <time>2019-03-23T07:59:10Z</time>
      </trkpt>
      <trkpt lat="39.20825" lon="-0.31452">
        <time>2019-03-23T07:59:11Z</time>
      </trkpt>
      <trkpt lat="39.20839" lon="-0.31438">
        <time>2019-03-23T07:59:12Z</time>
      </trkpt>
      <trkpt lat="39.20852" lon="-0.31426">
        <time>2019-03-23T07:59:13Z</time>
      </trkpt>
      <trkpt lat="39.20864" lon="-0.31415">
        <time>2019-03-23T07:59:14Z</time>
      </trkpt>
      <trkpt lat="39.20874" lon="-0.31406">
        <time>2019-03-23T07:59:15Z</time>
      </trkpt>
      <trkpt lat="39.20885" lon="-0.31396">
        <time>2019-03-23T07:59:16Z</time>
      </trkpt>
      <trkpt lat="39.20895" lon="-0.31388">
        <time>2019-03-23T07:59:17Z</time>
      </trkpt>
      <trkpt lat="39.20906" lon="-0.3138">
        <time>2019-03-23T07:59:18Z</time>
      </trkpt>
      <trkpt lat="39.20917" lon="-0.31371">
        <time>2019-03-23T07:59:19Z</time>
      </trkpt>
      <trkpt lat="39.20929" lon="-0.31362">
        <time>2019-03-23T07:59:20Z</time>
      </trkpt>
      <trkpt lat="39.2094" lon="-0.31353">
        <time>2019-03-23T07:59:21Z</time>
      </trkpt>
      <trkpt lat="39.2095" lon="-0.31345">
        <time>2019-03-23T07:59:22Z</time>
      </trkpt>
      <trkpt lat="39.20961" lon="-0.31338">
        <time>2019-03-23T07:59:23Z</time>
      </trkpt>
      <trkpt lat="39.20971" lon="-0.31331">
        <time>2019-03-23T07:59:24Z</time>
      </trkpt>
      <trkpt lat="39.20981" lon="-0.31325">
        <time>2019-03-23T07:59:25Z</time>
      </trkpt>
      <trkpt lat="39.20991" lon="-0.31318">
        <time>2019-03-23T07:59:26Z</time>
      </trkpt>
      <trkpt lat="39.21001" lon="-0.31312">
        <time>2019-03-23T07:59:27Z</time>
      </trkpt>
      <trkpt lat="39.2101" lon="-0.31306">
        <time>2019-03-23T07:59:28Z</time>
      </trkpt>
      <trkpt lat="39.21019" lon="-0.31301">
        <time>2019-03-23T07:59:29Z</time>
      </trkpt>
      <trkpt lat="39.21029" lon="-0.31296">
        <time>2019-03-23T07:59:30Z</time>
      </trkpt>
      <trkpt lat="39.21038" lon="-0.3129">
        <time>2019-03-23T07:59:31Z</time>
      </trkpt>
      <trkpt lat="39.21047" lon="-0.31285">
        <time>2019-03-23T07:59:32Z</time>
      </trkpt>
      <trkpt lat="39.21057" lon="-0.3128">
        <time>2019-03-23T07:59:33Z</time>
      </trkpt>
      <trkpt lat="39.21067" lon="-0.31275">
        <time>2019-03-23T07:59:34Z</time>
      </trkpt>
      <trkpt lat="39.21078" lon="-0.31269">
        <time>2019-03-23T07:59:35Z</time>
      </trkpt>
      <trkpt lat="39.21087" lon="-0.31264">
        <time>2019-03-23T07:59:36Z</time>
      </trkpt>
      <trkpt lat="39.21097" lon="-0.31259">
        <time>2019-03-23T07:59:37Z</time>
      </trkpt>
      <trkpt lat="39.21106" lon="-0.31254">
        <time>2019-03-23T07:59:38Z</time>
      </trkpt>
      <trkpt lat="39.21114" lon="-0.31248">
        <time>2019-03-23T07:59:39Z</time>
      </trkpt>
      <trkpt lat="39.21121" lon="-0.3124">
        <time>2019-03-23T07:59:40Z</time>
      </trkpt>
      <trkpt lat="39.21129" lon="-0.3123">
        <time>2019-03-23T07:59:41Z</time>
      </trkpt>
      <trkpt lat="39.21139" lon="-0.31225">
        <time>2019-03-23T07:59:42Z</time>
      </trkpt>
      <trkpt lat="39.21151" lon="-0.31224">
        <time>2019-03-23T07:59:43Z</time>
      </trkpt>
      <trkpt lat="39.21163" lon="-0.31224">
        <time>2019-03-23T07:59:44Z</time>
      </trkpt>
      <trkpt lat="39.21176" lon="-0.3122">
        <time>2019-03-23T07:59:45Z</time>
      </trkpt>
      <trkpt lat="39.21188" lon="-0.31213">
        <time>2019-03-23T07:59:46Z</time>
      </trkpt>
      <trkpt lat="39.212" lon="-0.31206">
        <time>2019-03-23T07:59:47Z</time>
      </trkpt>
      <trkpt lat="39.21212" lon="-0.312">
        <time>2019-03-23T07:59:48Z</time>
      </trkpt>
      <trkpt lat="39.21223" lon="-0.31195">
        <time>2019-03-23T07:59:49Z</time>
      </trkpt>
      <trkpt lat="39.21234" lon="-0.3119">
        <time>2019-03-23T07:59:50Z</time>
      </trkpt>
      <trkpt lat="39.21245" lon="-0.31184">
        <time>2019-03-23T07:59:51Z</time>
      </trkpt>
      <trkpt lat="39.21255" lon="-0.31179">
        <time>2019-03-23T07:59:52Z</time>
      </trkpt>
      <trkpt lat="39.21266" lon="-0.31173">
        <time>2019-03-23T07:59:53Z</time>
      </trkpt>
      <trkpt lat="39.21275" lon="-0.31167">
        <time>2019-03-23T07:59:54Z</time>
      </trkpt>
      <trkpt lat="39.21283" lon="-0.31163">
        <time>2019-03-23T07:59:55Z</time>
      </trkpt>
      <trkpt lat="39.21291" lon="-0.31157">
        <time>2019-03-23T07:59:56Z</time>
      </trkpt>
      <trkpt lat="39.21299" lon="-0.31151">
        <time>2019-03-23T07:59:57Z</time>
      </trkpt>
      <trkpt lat="39.21306" lon="-0.31143">
        <time>2019-03-23T07:59:58Z</time>
      </trkpt>
      <trkpt lat="39.21312" lon="-0.31134">
        <time>2019-03-23T07:59:59Z</time>
      </trkpt>
      <trkpt lat="39.21317" lon="-0.31123">
        <time>2019-03-23T08:00:00Z</time>
      </trkpt>
      <trkpt lat="39.2132" lon="-0.31113">
        <time>2019-03-23T08:00:01Z</time>
      </trkpt>
      <trkpt lat="39.21323" lon="-0.31102">
        <time>2019-03-23T08:00:02Z</time>
      </trkpt>
      <trkpt lat="39.21325" lon="-0.31091">
        <time>2019-03-23T08:00:03Z</time>
      </trkpt>
      <trkpt lat="39.21325" lon="-0.3108">
        <time>2019-03-23T08:00:04Z</time>
      </trkpt>
      <trkpt lat="39.21323" lon="-0.31069">
        <time>2019-03-23T08:00:05Z</time>
      </trkpt>
      <trkpt lat="39.21321" lon="-0.31059">
        <time>2019-03-23T08:00:06Z</time>
      </trkpt>
      <trkpt lat="39.21319" lon="-0.3105">
        <time>2019-03-23T08:00:07Z</time>
      </trkpt>
      <trkpt lat="39.21315" lon="-0.3104">
        <time>2019-03-23T08:00:08Z</time>
      </trkpt>
      <trkpt lat="39.21311" lon="-0.31031">
        <time>2019-03-23T08:00:09Z</time>
      </trkpt>
      <trkpt lat="39.21306" lon="-0.31021">
        <time>2019-03-23T08:00:10Z</time>
      </trkpt>
      <trkpt lat="39.21302" lon="-0.31012">
        <time>2019-03-23T08:00:11Z</time>
      </trkpt>
      <trkpt lat="39.21298" lon="-0.31004">
        <time>2019-03-23T08:00:12Z</time>
      </trkpt>
      <trkpt lat="39.21294" lon="-0.30995">
        <time>2019-03-23T08:00:13Z</time>
      </trkpt>
      <trkpt lat="39.2129" lon="-0.30986">
        <time>2019-03-23T08:00:14Z</time>
      </trkpt>
      <trkpt lat="39.21286" lon="-0.30977">
        <time>2019-03-23T08:00:15Z</time>
      </trkpt>
      <trkpt lat="39.21283" lon="-0.3097">
        <time>2019-03-23T08:00:16Z</time>
      </trkpt>
      <trkpt lat="39.2128" lon="-0.30963">
        <time>2019-03-23T08:00:17Z</time>
      </trkpt>
      <trkpt lat="39.21276" lon="-0.30955">
        <time>2019-03-23T08:00:18Z</time>
      </trkpt>
      <trkpt lat="39.21273" lon="-0.30947">
        <time>2019-03-23T08:00:19Z</time>
      </trkpt>
      <trkpt lat="39.21269" lon="-0.30939">
        <time>2019-03-23T08:00:20Z</time>
      </trkpt>
      <trkpt lat="39.21266" lon="-0.30931">
        <time>2019-03-23T08:00:21Z</time>
      </trkpt>
      <trkpt lat="39.21263" lon="-0.30923">
        <time>2019-03-23T08:00:22Z</time>
      </trkpt>
      <trkpt lat="39.21259" lon="-0.30915">
        <time>2019-03-23T08:00:23Z</time>
      </trkpt>
      <trkpt lat="39.21255" lon="-0.30906">
        <time>2019-03-23T08:00:24Z</time>
      </trkpt>
      <trkpt lat="39.21252" lon="-0.30897">
        <time>2019-03-23T08:00:25Z</time>
      </trkpt>
      <trkpt lat="39.21248" lon="-0.3089">
        <time>2019-03-23T08:00:26Z</time>
      </trkpt>
      <trkpt lat="39.21245" lon="-0.30883">
        <time>2019-03-23T08:00:27Z</time>
      </trkpt>
      <trkpt lat="39.21243" lon="-0.30876">
        <time>2019-03-23T08:00:28Z</time>
      </trkpt>
      <trkpt lat="39.2124" lon="-0.3087">
        <time>2019-03-23T08:00:29Z</time>
      </trkpt>
      <trkpt lat="39.21237" lon="-0.30863">
        <time>2019-03-23T08:00:30Z</time>
      </trkpt>
      <trkpt lat="39.21233" lon="-0.30857">
        <time>2019-03-23T08:00:31Z</time>
      </trkpt>
      <trkpt lat="39.2123" lon="-0.30851">
        <time>2019-03-23T08:00:32Z</time>
      </trkpt>
      <trkpt lat="39.21227" lon="-0.30845">
        <time>2019-03-23T08:00:33Z</time>
      </trkpt>
      <trkpt lat="39.21223" lon="-0.30839">
        <time>2019-03-23T08:00:34Z</time>
      </trkpt>
      <trkpt lat="39.21218" lon="-0.30834">
        <time>2019-03-23T08:00:35Z</time>
      </trkpt>
      <trkpt lat="39.21213" lon="-0.30829">
        <time>2019-03-23T08:00:36Z</time>
      </trkpt>
      <trkpt lat="39.21207" lon="-0.30822">
        <time>2019-03-23T08:00:37Z</time>
      </trkpt>
      <trkpt lat="39.21203" lon="-0.30813">
        <time>2019-03-23T08:00:38Z</time>
      </trkpt>
      <trkpt lat="39.21201" lon="-0.30802">
        <time>2019-03-23T08:00:39Z</time>
      </trkpt>
      <trkpt lat="39.21203" lon="-0.30794">
        <time>2019-03-23T08:00:40Z</time>
      </trkpt>
      <trkpt lat="39.21207" lon="-0.30786">
        <time>2019-03-23T08:00:41Z</time>
      </trkpt>
      <trkpt lat="39.21212" lon="-0.3078">
        <time>2019-03-23T08:00:42Z</time>
      </trkpt>
      <trkpt lat="39.21218" lon="-0.30776">
        <time>2019-03-23T08:00:43Z</time>
      </trkpt>
      <trkpt lat="39.21224" lon="-0.30775">
        <time>2019-03-23T08:00:44Z</time>
      </trkpt>
      <trkpt lat="39.21231" lon="-0.30773">
        <time>2019-03-23T08:00:45Z</time>
      </trkpt>
      <trkpt lat="39.21237" lon="-0.30771">
        <time>2019-03-23T08:00:46Z</time>
      </trkpt>
      <trkpt lat="39.21243" lon="-0.30767">
        <time>2019-03-23T08:00:47Z</time>
      </trkpt>
      <trkpt lat="39.21248" lon="-0.30761">
        <time>2019-03-23T08:00:48Z</time>
      </trkpt>
      <trkpt lat="39.21254" lon="-0.30756">
        <time>2019-03-23T08:00:49Z</time>
      </trkpt>
      <trkpt lat="39.21261" lon="-0.3075">
        <time>2019-03-23T08:00:50Z</time>
      </trkpt>
      <trkpt lat="39.21268" lon="-0.30745">
        <time>2019-03-23T08:00:51Z</time>
      </trkpt>
      <trkpt lat="39.21276" lon="-0.3074">
        <time>2019-03-23T08:00:52Z</time>
      </trkpt>
      <trkpt lat="39.21283" lon="-0.30735">
        <time>2019-03-23T08:00:53Z</time>
      </trkpt>
      <trkpt lat="39.21289" lon="-0.30731">
        <time>2019-03-23T08:00:54Z</time>
      </trkpt>
      <trkpt lat="39.21297" lon="-0.30728">
        <time>2019-03-23T08:00:55Z</time>
      </trkpt>
      <trkpt lat="39.21304" lon="-0.30724">
        <time>2019-03-23T08:00:56Z</time>
      </trkpt>
      <trkpt lat="39.21311" lon="-0.3072">
        <time>2019-03-23T08:00:57Z</time>
      </trkpt>
      <trkpt lat="39.21318" lon="-0.30716">
        <time>2019-03-23T08:00:58Z</time>
      </trkpt>
      <trkpt lat="39.21325" lon="-0.30711">
        <time>2019-03-23T08:00:59Z</time>
      </trkpt>
      <trkpt lat="39.21333" lon="-0.30707">
        <time>2019-03-23T08:01:00Z</time>
      </trkpt>
      <trkpt lat="39.21341" lon="-0.30703">
        <time>2019-03-23T08:01:01Z</time>
      </trkpt>
      <trkpt lat="39.21351" lon="-0.30699">
        <time>2019-03-23T08:01:02Z</time>
      </trkpt>
      <trkpt lat="39.2136" lon="-0.30694">
        <time>2019-03-23T08:01:03Z</time>
      </trkpt>
      <trkpt lat="39.2137" lon="-0.30689">
        <time>2019-03-23T08:01:04Z</time>
      </trkpt>
      <trkpt lat="39.2138" lon="-0.30684">
        <time>2019-03-23T08:01:05Z</time>
      </trkpt>
      <trkpt lat="39.21392" lon="-0.30678">
        <time>2019-03-23T08:01:06Z</time>
      </trkpt>
      <trkpt lat="39.21403" lon="-0.3067">
        <time>2019-03-23T08:01:07Z</time>
      </trkpt>
      <trkpt lat="39.21416" lon="-0.30664">
        <time>2019-03-23T08:01:08Z</time>
      </trkpt>
      <trkpt lat="39.21429" lon="-0.30656">
        <time>2019-03-23T08:01:09Z</time>
      </trkpt>
      <trkpt lat="39.21444" lon="-0.30648">
        <time>2019-03-23T08:01:10Z</time>
      </trkpt>
      <trkpt lat="39.21459" lon="-0.30642">
        <time>2019-03-23T08:01:11Z</time>
      </trkpt>
      <trkpt lat="39.21476" lon="-0.30636">
        <time>2019-03-23T08:01:12Z</time>
      </trkpt>
      <trkpt lat="39.21492" lon="-0.30631">
        <time>2019-03-23T08:01:13Z</time>
      </trkpt>
      <trkpt lat="39.21509" lon="-0.30626">
        <time>2019-03-23T08:01:14Z</time>
      </trkpt>
      <trkpt lat="39.21527" lon="-0.3062">
        <time>2019-03-23T08:01:15Z</time>
      </trkpt>
      <trkpt lat="39.21545" lon="-0.30614">
        <time>2019-03-23T08:01:16Z</time>
      </trkpt>
      <trkpt lat="39.21564" lon="-0.30608">
        <time>2019-03-23T08:01:17Z</time>
      </trkpt>
      <trkpt lat="39.21582" lon="-0.30601">
        <time>2019-03-23T08:01:18Z</time>
      </trkpt>
      <trkpt lat="39.21599" lon="-0.30594">
        <time>2019-03-23T08:01:19Z</time>
      </trkpt>
      <trkpt lat="39.21616" lon="-0.30586">
        <time>2019-03-23T08:01:20Z</time>
      </trkpt>
      <trkpt lat="39.21632" lon="-0.30577">
        <time>2019-03-23T08:01:21Z</time>
      </trkpt>
      <trkpt lat="39.21646" lon="-0.30568">
        <time>2019-03-23T08:01:22Z</time>
      </trkpt>
      <trkpt lat="39.2166" lon="-0.30559">
        <time>2019-03-23T08:01:23Z</time>
      </trkpt>
      <trkpt lat="39.21672" lon="-0.3055">
        <time>2019-03-23T08:01:24Z</time>
      </trkpt>
      <trkpt lat="39.21684" lon="-0.30542">
        <time>2019-03-23T08:01:25Z</time>
      </trkpt>
      <trkpt lat="39.21696" lon="-0.30534">
        <time>2019-03-23T08:01:26Z</time>
      </trkpt>
      <trkpt lat="39.21709" lon="-0.30525">
        <time>2019-03-23T08:01:27Z</time>
      </trkpt>
      <trkpt lat="39.21723" lon="-0.30516">
        <time>2019-03-23T08:01:28Z</time>
      </trkpt>
      <trkpt lat="39.21737" lon="-0.30506">
        <time>2019-03-23T08:01:29Z</time>
      </trkpt>
      <trkpt lat="39.21751" lon="-0.30495">
        <time>2019-03-23T08:01:30Z</time>
      </trkpt>
      <trkpt lat="39.21765" lon="-0.30484">
        <time>2019-03-23T08:01:31Z</time>
      </trkpt>
      <trkpt lat="39.21778" lon="-0.30471">
        <time>2019-03-23T08:01:32Z</time>
      </trkpt>
      <trkpt lat="39.21791" lon="-0.30457">
        <time>2019-03-23T08:01:33Z</time>
      </trkpt>
      <trkpt lat="39.21804" lon="-0.30443">
        <time>2019-03-23T08:01:34Z</time>
      </trkpt>
      <trkpt lat="39.21818" lon="-0.3043">
        <time>2019-03-23T08:01:35Z</time>
      </trkpt>
      <trkpt lat="39.21833" lon="-0.30416">
        <time>2019-03-23T08:01:36Z</time>
      </trkpt>
      <trkpt lat="39.21848" lon="-0.30403">
        <time>2019-03-23T08:01:37Z</time>
      </trkpt>
      <trkpt lat="39.21864" lon="-0.30393">
        <time>2019-03-23T08:01:38Z</time>
      </trkpt>
      <trkpt lat="39.21879" lon="-0.30385">
        <time>2019-03-23T08:01:39Z</time>
      </trkpt>
      <trkpt lat="39.21894" lon="-0.30376">
        <time>2019-03-23T08:01:40Z</time>
      </trkpt>
      <trkpt lat="39.21907" lon="-0.30365">
        <time>2019-03-23T08:01:41Z</time>
      </trkpt>
      <trkpt lat="39.21918" lon="-0.30353">
        <time>2019-03-23T08:01:42Z</time>
      </trkpt>
      <trkpt lat="39.21929" lon="-0.30342">
        <time>2019-03-23T08:01:43Z</time>
      </trkpt>
      <trkpt lat="39.21939" lon="-0.30335">
        <time>2019-03-23T08:01:44Z</time>
      </trkpt>
      <trkpt lat="39.21946" lon="-0.30328">
        <time>2019-03-23T08:01:45Z</time>
      </trkpt>
      <trkpt lat="39.21951" lon="-0.30319">
        <time>2019-03-23T08:01:46Z</time>
      </trkpt>
      <trkpt lat="39.21949" lon="-0.30305">
        <time>2019-03-23T08:01:47Z</time>
      </trkpt>
      <trkpt lat="39.21946" lon="-0.3029">
        <time>2019-03-23T08:01:48Z</time>
      </trkpt>
      <trkpt lat="39.21944" lon="-0.30271">
        <time>2019-03-23T08:01:49Z</time>
      </trkpt>
      <trkpt lat="39.21944" lon="-0.3025">
        <time>2019-03-23T08:01:50Z</time>
      </trkpt>
      <trkpt lat="39.21943" lon="-0.30226">
        <time>2019-03-23T08:01:51Z</time>
      </trkpt>
      <trkpt lat="39.21942" lon="-0.30202">
        <time>2019-03-23T08:01:52Z</time>
      </trkpt>
      <trkpt lat="39.2194" lon="-0.30176">
        <time>2019-03-23T08:01:53Z</time>
      </trkpt>
      <trkpt lat="39.2194" lon="-0.30148">
        <time>2019-03-23T08:01:54Z</time>
      </trkpt>
      <trkpt lat="39.2194" lon="-0.30119">
        <time>2019-03-23T08:01:55Z</time>
      </trkpt>
      <trkpt lat="39.21942" lon="-0.30088">
        <time>2019-03-23T08:01:56Z</time>
      </trkpt>
      <trkpt lat="39.21944" lon="-0.30057">
        <time>2019-03-23T08:01:57Z</time>
      </trkpt>
      <trkpt lat="39.21947" lon="-0.30026">
        <time>2019-03-23T08:01:58Z</time>
      </trkpt>
      <trkpt lat="39.21951" lon="-0.29995">
        <time>2019-03-23T08:01:59Z</time>
      </trkpt>
      <trkpt lat="39.21957" lon="-0.29964">
        <time>2019-03-23T08:02:00Z</time>
      </trkpt>
      <trkpt lat="39.21962" lon="-0.29933">
        <time>2019-03-23T08:02:01Z</time>
      </trkpt>
      <trkpt lat="39.21967" lon="-0.29903">
        <time>2019-03-23T08:02:02Z</time>
      </trkpt>
      <trkpt lat="39.21972" lon="-0.29872">
        <time>2019-03-23T08:02:03Z</time>
      </trkpt>
      <trkpt lat="39.21977" lon="-0.29841">
        <time>2019-03-23T08:02:04Z</time>
      </trkpt>
      <trkpt lat="39.21982" lon="-0.2981">
        <time>2019-03-23T08:02:05Z</time>
      </trkpt>
      <trkpt lat="39.21987" lon="-0.2978">
        <time>2019-03-23T08:02:06Z</time>
      </trkpt>
      <trkpt lat="39.21992" lon="-0.29749">
        <time>2019-03-23T08:02:07Z</time>
      </trkpt>
      <trkpt lat="39.21996" lon="-0.29718">
        <time>2019-03-23T08:02:08Z</time>
      </trkpt>
      <trkpt lat="39.22" lon="-0.29687">
        <time>2019-03-23T08:02:09Z</time>
      </trkpt>
      <trkpt lat="39.22004" lon="-0.29656">
        <time>2019-03-23T08:02:10Z</time>
      </trkpt>
      <trkpt lat="39.22008" lon="-0.29625">
        <time>2019-03-23T08:02:11Z</time>
      </trkpt>
      <trkpt lat="39.22012" lon="-0.29594">
        <time>2019-03-23T08:02:12Z</time>
      </trkpt>
      <trkpt lat="39.22014" lon="-0.29563">
        <time>2019-03-23T08:02:13Z</time>
      </trkpt>
      <trkpt lat="39.22017" lon="-0.29532">
        <time>2019-03-23T08:02:14Z</time>
      </trkpt>
      <trkpt lat="39.2202" lon="-0.29501">
        <time>2019-03-23T08:02:15Z</time>
      </trkpt>
      <trkpt lat="39.22024" lon="-0.29469">
        <time>2019-03-23T08:02:16Z</time>
      </trkpt>
      <trkpt lat="39.22027" lon="-0.29438">
        <time>2019-03-23T08:02:17Z</time>
      </trkpt>
      <trkpt lat="39.22031" lon="-0.29406">
        <time>2019-03-23T08:02:18Z</time>
      </trkpt>
      <trkpt lat="39.22035" lon="-0.29376">
        <time>2019-03-23T08:02:19Z</time>
      </trkpt>
      <trkpt lat="39.22038" lon="-0.29345">
        <time>2019-03-23T08:02:20Z</time>
      </trkpt>
      <trkpt lat="39.22042" lon="-0.29315">
        <time>2019-03-23T08:02:21Z</time>
      </trkpt>
      <trkpt lat="39.22047" lon="-0.29286">
        <time>2019-03-23T08:02:22Z</time>
      </trkpt>
      <trkpt lat="39.22051" lon="-0.29258">
        <time>2019-03-23T08:02:23Z</time>
      </trkpt>
      <trkpt lat="39.22056" lon="-0.29229">
        <time>2019-03-23T08:02:24Z</time>
      </trkpt>
      <trkpt lat="39.22059" lon="-0.29202">
        <time>2019-03-23T08:02:25Z</time>
      </trkpt>
      <trkpt lat="39.2206" lon="-0.29177">
        <time>2019-03-23T08:02:26Z</time>
      </trkpt>
      <trkpt lat="39.22059" lon="-0.29153">
        <time>2019-03-23T08:02:27Z</time>
      </trkpt>
      <trkpt lat="39.22054" lon="-0.29128">
        <time>2019-03-23T08:02:28Z</time>
      </trkpt>
      <trkpt lat="39.22046" lon="-0.29102">
        <time>2019-03-23T08:02:29Z</time>
      </trkpt>
      <trkpt lat="39.22039" lon="-0.29075">
        <time>2019-03-23T08:02:30Z</time>
      </trkpt>
      <trkpt lat="39.22032" lon="-0.29047">
        <time>2019-03-23T08:02:31Z</time>
      </trkpt>
      <trkpt lat="39.22025" lon="-0.29018">
        <time>2019-03-23T08:02:32Z</time>
      </trkpt>
      <trkpt lat="39.22017" lon="-0.28989">
        <time>2019-03-23T08:02:33Z</time>
      </trkpt>
      <trkpt lat="39.22009" lon="-0.28961">
        <time>2019-03-23T08:02:34Z</time>
      </trkpt>
      <trkpt lat="39.22001" lon="-0.28932">
        <time>2019-03-23T08:02:35Z</time>
      </trkpt>
      <trkpt lat="39.21994" lon="-0.28902">
        <time>2019-03-23T08:02:36Z</time>
      </trkpt>
      <trkpt lat="39.21987" lon="-0.28873">
        <time>2019-03-23T08:02:37Z</time>
      </trkpt>
      <trkpt lat="39.21979" lon="-0.28843">
        <time>2019-03-23T08:02:38Z</time>
      </trkpt>
      <trkpt lat="39.21971" lon="-0.28813">
        <time>2019-03-23T08:02:39Z</time>
      </trkpt>
      <trkpt lat="39.21962" lon="-0.28784">
        <time>2019-03-23T08:02:40Z</time>
      </trkpt>
      <trkpt lat="39.21954" lon="-0.28755">
        <time>2019-03-23T08:02:41Z</time>
      </trkpt>
      <trkpt lat="39.21945" lon="-0.28725">
        <time>2019-03-23T08:02:42Z</time>
      </trkpt>
      <trkpt lat="39.21937" lon="-0.28695">
        <time>2019-03-23T08:02:43Z</time>
      </trkpt>
      <trkpt lat="39.21929" lon="-0.28665">
        <time>2019-03-23T08:02:44Z</time>
      </trkpt>
      <trkpt lat="39.21922" lon="-0.28636">
        <time>2019-03-23T08:02:45Z</time>
      </trkpt>
      <trkpt lat="39.21914" lon="-0.28606">
        <time>2019-03-23T08:02:46Z</time>
      </trkpt>
      <trkpt lat="39.21906" lon="-0.28576">
        <time>2019-03-23T08:02:47Z</time>
      </trkpt>
      <trkpt lat="39.21898" lon="-0.28546">
        <time>2019-03-23T08:02:48Z</time>
      </trkpt>
      <trkpt lat="39.2189" lon="-0.28517">
        <time>2019-03-23T08:02:49Z</time>
      </trkpt>
      <trkpt lat="39.21883" lon="-0.28487">
        <time>2019-03-23T08:02:50Z</time>
      </trkpt>
      <trkpt lat="39.21875" lon="-0.28458">
        <time>2019-03-23T08:02:51Z</time>
      </trkpt>
      <trkpt lat="39.21867" lon="-0.28428">
        <time>2019-03-23T08:02:52Z</time>
      </trkpt>
      <trkpt lat="39.21859" lon="-0.28399">
        <time>2019-03-23T08:02:53Z</time>
      </trkpt>
      <trkpt lat="39.21851" lon="-0.2837">
        <time>2019-03-23T08:02:54Z</time>
      </trkpt>
      <trkpt lat="39.21843" lon="-0.28341">
        <time>2019-03-23T08:02:55Z</time>
      </trkpt>
      <trkpt lat="39.21836" lon="-0.28312">
        <time>2019-03-23T08:02:56Z</time>
      </trkpt>
      <trkpt lat="39.21828" lon="-0.28283">
        <time>2019-03-23T08:02:57Z</time>
      </trkpt>
      <trkpt lat="39.2182" lon="-0.28254">
        <time>2019-03-23T08:02:58Z</time>
      </trkpt>
      <trkpt lat="39.21813" lon="-0.28226">
        <time>2019-03-23T08:02:59Z</time>
      </trkpt>
      <trkpt lat="39.21806" lon="-0.28197">
        <time>2019-03-23T08:03:00Z</time>
      </trkpt>
      <trkpt lat="39.21798" lon="-0.28167">
        <time>2019-03-23T08:03:01Z</time>
      </trkpt>
      <trkpt lat="39.21791" lon="-0.28138">
        <time>2019-03-23T08:03:02Z</time>
      </trkpt>
      <trkpt lat="39.21784" lon="-0.28109">
        <time>2019-03-23T08:03:03Z</time>
      </trkpt>
      <trkpt lat="39.21776" lon="-0.28079">
        <time>2019-03-23T08:03:04Z</time>
      </trkpt>
      <trkpt lat="39.21769" lon="-0.28051">
        <time>2019-03-23T08:03:05Z</time>
      </trkpt>
      <trkpt lat="39.21763" lon="-0.28022">
        <time>2019-03-23T08:03:06Z</time>
      </trkpt>
      <trkpt lat="39.21756" lon="-0.27993">
        <time>2019-03-23T08:03:07Z</time>
      </trkpt>
      <trkpt lat="39.2175" lon="-0.27966">
        <time>2019-03-23T08:03:08Z</time>
      </trkpt>
      <trkpt lat="39.21745" lon="-0.2794">
        <time>2019-03-23T08:03:09Z</time>
      </trkpt>
      <trkpt lat="39.21739" lon="-0.27913">
        <time>2019-03-23T08:03:10Z</time>
      </trkpt>
      <trkpt lat="39.21734" lon="-0.2789">
        <time>2019-03-23T08:03:11Z</time>
      </trkpt>
      <trkpt lat="39.21729" lon="-0.27866">
        <time>2019-03-23T08:03:12Z</time>
      </trkpt>
      <trkpt lat="39.21725" lon="-0.27845">
        <time>2019-03-23T08:03:13Z</time>
      </trkpt>
      <trkpt lat="39.21721" lon="-0.27824">
        <time>2019-03-23T08:03:14Z</time>
      </trkpt>
      <trkpt lat="39.21715" lon="-0.27806">
        <time>2019-03-23T08:03:15Z</time>
      </trkpt>
      <trkpt lat="39.21708" lon="-0.27789">
        <time>2019-03-23T08:03:16Z</time>
      </trkpt>
      <trkpt lat="39.21701" lon="-0.27774">
        <time>2019-03-23T08:03:17Z</time>
      </trkpt>
      <trkpt lat="39.21695" lon="-0.2776">
        <time>2019-03-23T08:03:18Z</time>
      </trkpt>
      <trkpt lat="39.21692" lon="-0.27748">
        <time>2019-03-23T08:03:19Z</time>
      </trkpt>
      <trkpt lat="39.21692" lon="-0.27739">
        <time>2019-03-23T08:03:20Z</time>
      </trkpt>
      <trkpt lat="39.21696" lon="-0.27734">
        <time>2019-03-23T08:03:21Z</time>
      </trkpt>
      <trkpt lat="39.21703" lon="-0.27731">
        <time>2019-03-23T08:03:22Z</time>
      </trkpt>
      <trkpt lat="39.21713" lon="-0.27732">
        <time>2019-03-23T08:03:23Z</time>
      </trkpt>
      <trkpt lat="39.21725" lon="-0.27733">
        <time>2019-03-23T08:03:24Z</time>
      </trkpt>
      <trkpt lat="39.21739" lon="-0.27733">
        <time>2019-03-23T08:03:25Z</time>
      </trkpt>
      <trkpt lat="39.21754" lon="-0.27732">
        <time>2019-03-23T08:03:26Z</time>
      </trkpt>
      <trkpt lat="39.2177" lon="-0.27731">
        <time>2019-03-23T08:03:27Z</time>
      </trkpt>
      <trkpt lat="39.21788" lon="-0.27728">
        <time>2019-03-23T08:03:28Z</time>
      </trkpt>
      <trkpt lat="39.21807" lon="-0.27723">
        <time>2019-03-23T08:03:29Z</time>
      </trkpt>
      <trkpt lat="39.21826" lon="-0.2772">
        <time>2019-03-23T08:03:30Z</time>
      </trkpt>
      <trkpt lat="39.21848" lon="-0.27719">
        <time>2019-03-23T08:03:31Z</time>
      </trkpt>
      <trkpt lat="39.21868" lon="-0.27718">
        <time>2019-03-23T08:03:32Z</time>
      </trkpt>
      <trkpt lat="39.21889" lon="-0.27715">
        <time>2019-03-23T08:03:33Z</time>
      </trkpt>
      <trkpt lat="39.21908" lon="-0.27711">
        <time>2019-03-23T08:03:34Z</time>
      </trkpt>
      <trkpt lat="39.21926" lon="-0.27706">
        <time>2019-03-23T08:03:35Z</time>
      </trkpt>
      <trkpt lat="39.21943" lon="-0.27698">
        <time>2019-03-23T08:03:36Z</time>
      </trkpt>
      <trkpt lat="39.21959" lon="-0.27686">
        <time>2019-03-23T08:03:37Z</time>
      </trkpt>
      <trkpt lat="39.21975" lon="-0.27672">
        <time>2019-03-23T08:03:38Z</time>
      </trkpt>
      <trkpt lat="39.21993" lon="-0.27658">
        <time>2019-03-23T08:03:39Z</time>
      </trkpt>
      <trkpt lat="39.22011" lon="-0.27644">
        <time>2019-03-23T08:03:40Z</time>
      </trkpt>
      <trkpt lat="39.22031" lon="-0.2763">
        <time>2019-03-23T08:03:41Z</time>
      </trkpt>
      <trkpt lat="39.22053" lon="-0.27618">
        <time>2019-03-23T08:03:42Z</time>
      </trkpt>
      <trkpt lat="39.22074" lon="-0.27606">
        <time>2019-03-23T08:03:43Z</time>
      </trkpt>
      <trkpt lat="39.22096" lon="-0.27594">
        <time>2019-03-23T08:03:44Z</time>
      </trkpt>
      <trkpt lat="39.22117" lon="-0.27582">
        <time>2019-03-23T08:03:45Z</time>
      </trkpt>
      <trkpt lat="39.22139" lon="-0.27569">
        <time>2019-03-23T08:03:46Z</time>
      </trkpt>
      <trkpt lat="39.22161" lon="-0.27556">
        <time>2019-03-23T08:03:47Z</time>
      </trkpt>
      <trkpt lat="39.22183" lon="-0.27543">
        <time>2019-03-23T08:03:48Z</time>
      </trkpt>
      <trkpt lat="39.22205" lon="-0.2753">
        <time>2019-03-23T08:03:49Z</time>
      </trkpt>
      <trkpt lat="39.22227" lon="-0.27517">
        <time>2019-03-23T08:03:50Z</time>
      </trkpt>
      <trkpt lat="39.2225" lon="-0.27504">
        <time>2019-03-23T08:03:51Z</time>
      </trkpt>
      <trkpt lat="39.22272" lon="-0.27491">
        <time>2019-03-23T08:03:52Z</time>
      </trkpt>
      <trkpt lat="39.22295" lon="-0.27478">
        <time>2019-03-23T08:03:53Z</time>
      </trkpt>
      <trkpt lat="39.22317" lon="-0.27466">
        <time>2019-03-23T08:03:54Z</time>
      </trkpt>
      <trkpt lat="39.22339" lon="-0.27453">
        <time>2019-03-23T08:03:55Z</time>
      </trkpt>
      <trkpt lat="39.22361" lon="-0.2744">
        <time>2019-03-23T08:03:56Z</time>
      </trkpt>
      <trkpt lat="39.22383" lon="-0.27429">
        <time>2019-03-23T08:03:57Z</time>
      </trkpt>
      <trkpt lat="39.22403" lon="-0.27418">
        <time>2019-03-23T08:03:58Z</time>
      </trkpt>
      <trkpt lat="39.22421" lon="-0.27408">
        <time>2019-03-23T08:03:59Z</time>
      </trkpt>
      <trkpt lat="39.22437" lon="-0.27399">
        <time>2019-03-23T08:04:00Z</time>
      </trkpt>
      <trkpt lat="39.2245" lon="-0.27392">
        <time>2019-03-23T08:04:01Z</time>
      </trkpt>
      <trkpt lat="39.22461" lon="-0.27384">
        <time>2019-03-23T08:04:02Z</time>
      </trkpt>
      <trkpt lat="39.22468" lon="-0.27376">
        <time>2019-03-23T08:04:03Z</time>
      </trkpt>
      <trkpt lat="39.22472" lon="-0.27367">
        <time>2019-03-23T08:04:04Z</time>
      </trkpt>
      <trkpt lat="39.22474" lon="-0.27358">
        <time>2019-03-23T08:04:05Z</time>
      </trkpt>
      <trkpt lat="39.22479" lon="-0.27347">
        <time>2019-03-23T08:04:06Z</time>
      </trkpt>
      <trkpt lat="39.22488" lon="-0.27338">
        <time>2019-03-23T08:04:07Z</time>
      </trkpt>
      <trkpt lat="39.225" lon="-0.27329">
        <time>2019-03-23T08:04:08Z</time>
      </trkpt>
      <trkpt lat="39.22514" lon="-0.27319">
        <time>2019-03-23T08:04:09Z</time>
      </trkpt>
      <trkpt lat="39.22528" lon="-0.27307">
        <time>2019-03-23T08:04:10Z</time>
      </trkpt>
      <trkpt lat="39.22543" lon="-0.27296">
        <time>2019-03-23T08:04:11Z</time>
      </trkpt>
      <trkpt lat="39.22558" lon="-0.27283">
        <time>2019-03-23T08:04:12Z</time>
      </trkpt>
      <trkpt lat="39.22573" lon="-0.27268">
        <time>2019-03-23T08:04:13Z</time>
      </trkpt>
      <trkpt lat="39.22588" lon="-0.27254">
        <time>2019-03-23T08:04:14Z</time>
      </trkpt>
      <trkpt lat="39.22603" lon="-0.27242">
        <time>2019-03-23T08:04:15Z</time>
      </trkpt>
      <trkpt lat="39.22621" lon="-0.27232">
        <time>2019-03-23T08:04:16Z</time>
      </trkpt>
      <trkpt lat="39.2264" lon="-0.27224">
        <time>2019-03-23T08:04:17Z</time>
      </trkpt>
      <trkpt lat="39.2266" lon="-0.27216">
        <time>2019-03-23T08:04:18Z</time>
      </trkpt>
      <trkpt lat="39.2268" lon="-0.27208">
        <time>2019-03-23T08:04:19Z</time>
      </trkpt>
      <trkpt lat="39.227" lon="-0.27201">
        <time>2019-03-23T08:04:20Z</time>
      </trkpt>
      <trkpt lat="39.2272" lon="-0.27194">
        <time>2019-03-23T08:04:21Z</time>
      </trkpt>
      <trkpt lat="39.22741" lon="-0.27187">
        <time>2019-03-23T08:04:22Z</time>
      </trkpt>
      <trkpt lat="39.22762" lon="-0.27182">
        <time>2019-03-23T08:04:23Z</time>
      </trkpt>
      <trkpt lat="39.22784" lon="-0.27177">
        <time>2019-03-23T08:04:24Z</time>
      </trkpt>
      <trkpt lat="39.22806" lon="-0.27171">
        <time>2019-03-23T08:04:25Z</time>
      </trkpt>
      <trkpt lat="39.22828" lon="-0.27164">
        <time>2019-03-23T08:04:26Z</time>
      </trkpt>
      <trkpt lat="39.2285" lon="-0.27159">
        <time>2019-03-23T08:04:27Z</time>
      </trkpt>
      <trkpt lat="39.22873" lon="-0.27153">
        <time>2019-03-23T08:04:28Z</time>
      </trkpt>
      <trkpt lat="39.22895" lon="-0.27147">
        <time>2019-03-23T08:04:29Z</time>
      </trkpt>
      <trkpt lat="39.22918" lon="-0.27141">
        <time>2019-03-23T08:04:30Z</time>
      </trkpt>
      <trkpt lat="39.2294" lon="-0.27135">
        <time>2019-03-23T08:04:31Z</time>
      </trkpt>
      <trkpt lat="39.22962" lon="-0.27129">
        <time>2019-03-23T08:04:32Z</time>
      </trkpt>
      <trkpt lat="39.22985" lon="-0.27124">
        <time>2019-03-23T08:04:33Z</time>
      </trkpt>
      <trkpt lat="39.23006" lon="-0.27118">
        <time>2019-03-23T08:04:34Z</time>
      </trkpt>
      <trkpt lat="39.23028" lon="-0.27112">
        <time>2019-03-23T08:04:35Z</time>
      </trkpt>
      <trkpt lat="39.23049" lon="-0.27106">
        <time>2019-03-23T08:04:36Z</time>
      </trkpt>
      <trkpt lat="39.2307" lon="-0.271">
        <time>2019-03-23T08:04:37Z</time>
      </trkpt>
      <trkpt lat="39.23092" lon="-0.27095">
        <time>2019-03-23T08:04:38Z</time>
      </trkpt>
      <trkpt lat="39.23113" lon="-0.27091">
        <time>2019-03-23T08:04:39Z</time>
      </trkpt>
      <trkpt lat="39.23135" lon="-0.27086">
        <time>2019-03-23T08:04:40Z</time>
      </trkpt>
      <trkpt lat="39.23157" lon="-0.2708">
        <time>2019-03-23T08:04:41Z</time>
      </trkpt>
      <trkpt lat="39.2318" lon="-0.27073">
        <time>2019-03-23T08:04:42Z</time>
      </trkpt>
      <trkpt lat="39.23202" lon="-0.27065">
        <time>2019-03-23T08:04:43Z</time>
      </trkpt>
      <trkpt lat="39.23225" lon="-0.27058">
        <time>2019-03-23T08:04:44Z</time>
      </trkpt>
      <trkpt lat="39.23248" lon="-0.27052">
        <time>2019-03-23T08:04:45Z</time>
      </trkpt>
      <trkpt lat="39.23271" lon="-0.27046">
        <time>2019-03-23T08:04:46Z</time>
      </trkpt>
      <trkpt lat="39.23294" lon="-0.27041">
        <time>2019-03-23T08:04:47Z</time>
      </trkpt>
      <trkpt lat="39.23318" lon="-0.27035">
        <time>2019-03-23T08:04:48Z</time>
      </trkpt>
      <trkpt lat="39.2334" lon="-0.2703">
        <time>2019-03-23T08:04:49Z</time>
      </trkpt>
      <trkpt lat="39.23364" lon="-0.27024">
        <time>2019-03-23T08:04:50Z</time>
      </trkpt>
      <trkpt lat="39.23387" lon="-0.2702">
        <time>2019-03-23T08:04:51Z</time>
      </trkpt>
      <trkpt lat="39.23411" lon="-0.27016">
        <time>2019-03-23T08:04:52Z</time>
      </trkpt>
      <trkpt lat="39.23435" lon="-0.27014">
        <time>2019-03-23T08:04:53Z</time>
      </trkpt>
      <trkpt lat="39.23459" lon="-0.27011">
        <time>2019-03-23T08:04:54Z</time>
      </trkpt>
      <trkpt lat="39.23483" lon="-0.27008">
        <time>2019-03-23T08:04:55Z</time>
      </trkpt>
      <trkpt lat="39.23507" lon="-0.27006">
        <time>2019-03-23T08:04:56Z</time>
      </trkpt>
      <trkpt lat="39.23531" lon="-0.27005">
        <time>2019-03-23T08:04:57Z</time>
      </trkpt>
      <trkpt lat="39.23555" lon="-0.27003">
        <time>2019-03-23T08:04:58Z</time>
      </trkpt>
      <trkpt lat="39.23579" lon="-0.27001">
        <time>2019-03-23T08:04:59Z</time>
      </trkpt>
      <trkpt lat="39.23603" lon="-0.26997">
        <time>2019-03-23T08:05:00Z</time>
      </trkpt>
      <trkpt lat="39.23627" lon="-0.26992">
        <time>2019-03-23T08:05:01Z</time>
      </trkpt>
      <trkpt lat="39.2365" lon="-0.26984">
        <time>2019-03-23T08:05:02Z</time>
      </trkpt>
      <trkpt lat="39.23674" lon="-0.26976">
        <time>2019-03-23T08:05:03Z</time>
      </trkpt>
      <trkpt lat="39.23697" lon="-0.26967">
        <time>2019-03-23T08:05:04Z</time>
      </trkpt>
      <trkpt lat="39.23719" lon="-0.26958">
        <time>2019-03-23T08:05:05Z</time>
      </trkpt>
      <trkpt lat="39.23743" lon="-0.26948">
        <time>2019-03-23T08:05:06Z</time>
      </trkpt>
      <trkpt lat="39.23766" lon="-0.26937">
        <time>2019-03-23T08:05:07Z</time>
      </trkpt>
      <trkpt lat="39.23789" lon="-0.26926">
        <time>2019-03-23T08:05:08Z</time>
      </trkpt>
      <trkpt lat="39.23811" lon="-0.26914">
        <time>2019-03-23T08:05:09Z</time>
      </trkpt>
      <trkpt lat="39.23833" lon="-0.26902">
        <time>2019-03-23T08:05:10Z</time>
      </trkpt>
      <trkpt lat="39.23855" lon="-0.26889">
        <time>2019-03-23T08:05:11Z</time>
      </trkpt>
      <trkpt lat="39.23878" lon="-0.26878">
        <time>2019-03-23T08:05:12Z</time>
      </trkpt>
      <trkpt lat="39.23899" lon="-0.26867">
        <time>2019-03-23T08:05:13Z</time>
      </trkpt>
      <trkpt lat="39.2392" lon="-0.26858">
        <time>2019-03-23T08:05:14Z</time>
      </trkpt>
      <trkpt lat="39.23943" lon="-0.26851">
        <time>2019-03-23T08:05:15Z</time>
      </trkpt>
      <trkpt lat="39.23966" lon="-0.26848">
        <time>2019-03-23T08:05:16Z</time>
      </trkpt>
      <trkpt lat="39.23989" lon="-0.26846">
        <time>2019-03-23T08:05:17Z</time>
      </trkpt>
      <trkpt lat="39.24013" lon="-0.26843">
        <time>2019-03-23T08:05:18Z</time>
      </trkpt>
      <trkpt lat="39.24037" lon="-0.26839">
        <time>2019-03-23T08:05:19Z</time>
      </trkpt>
      <trkpt lat="39.24061" lon="-0.26836">
        <time>2019-03-23T08:05:20Z</time>
      </trkpt>
      <trkpt lat="39.24084" lon="-0.26832">
        <time>2019-03-23T08:05:21Z</time>
      </trkpt>
      <trkpt lat="39.24108" lon="-0.26829">
        <time>2019-03-23T08:05:22Z</time>
      </trkpt>
      <trkpt lat="39.24132" lon="-0.26825">
        <time>2019-03-23T08:05:23Z</time>
      </trkpt>
      <trkpt lat="39.24156" lon="-0.26822">
        <time>2019-03-23T08:05:24Z</time>
      </trkpt>
      <trkpt lat="39.2418" lon="-0.26818">
        <time>2019-03-23T08:05:25Z</time>
      </trkpt>
      <trkpt lat="39.24204" lon="-0.26815">
        <time>2019-03-23T08:05:26Z</time>
      </trkpt>
      <trkpt lat="39.24228" lon="-0.26812">
        <time>2019-03-23T08:05:27Z</time>
      </trkpt>
      <trkpt lat="39.24252" lon="-0.26808">
        <time>2019-03-23T08:05:28Z</time>
      </trkpt>
      <trkpt lat="39.24275" lon="-0.26805">
        <time>2019-03-23T08:05:29Z</time>
      </trkpt>
      <trkpt lat="39.24298" lon="-0.26803">
        <time>2019-03-23T08:05:30Z</time>
      </trkpt>
      <trkpt lat="39.24318" lon="-0.26801">
        <time>2019-03-23T08:05:31Z</time>
      </trkpt>
      <trkpt lat="39.24338" lon="-0.26798">
        <time>2019-03-23T08:05:32Z</time>
      </trkpt>
      <trkpt lat="39.24355" lon="-0.26795">
        <time>2019-03-23T08:05:33Z</time>
      </trkpt>
      <trkpt lat="39.2437" lon="-0.26792">
        <time>2019-03-23T08:05:34Z</time>
      </trkpt>
      <trkpt lat="39.24382" lon="-0.26789">
        <time>2019-03-23T08:05:35Z</time>
      </trkpt>
      <trkpt lat="39.24391" lon="-0.26785">
        <time>2019-03-23T08:05:36Z</time>
      </trkpt>
      <trkpt lat="39.24401" lon="-0.26779">
        <time>2019-03-23T08:05:37Z</time>
      </trkpt>
      <trkpt lat="39.2441" lon="-0.26771">
        <time>2019-03-23T08:05:38Z</time>
      </trkpt>
      <trkpt lat="39.24421" lon="-0.26763">
        <time>2019-03-23T08:05:39Z</time>
      </trkpt>
      <trkpt lat="39.24432" lon="-0.26754">
        <time>2019-03-23T08:05:40Z</time>
      </trkpt>
      <trkpt lat="39.24444" lon="-0.26744">
        <time>2019-03-23T08:05:41Z</time>
      </trkpt>
      <trkpt lat="39.24457" lon="-0.26734">
        <time>2019-03-23T08:05:42Z</time>
      </trkpt>
      <trkpt lat="39.24469" lon="-0.26724">
        <time>2019-03-23T08:05:43Z</time>
      </trkpt>
      <trkpt lat="39.24481" lon="-0.26714">
        <time>2019-03-23T08:05:44Z</time>
      </trkpt>
      <trkpt lat="39.24492" lon="-0.26705">
        <time>2019-03-23T08:05:45Z</time>
      </trkpt>
      <trkpt lat="39.24501" lon="-0.26698">
        <time>2019-03-23T08:05:46Z</time>
      </trkpt>
      <trkpt lat="39.2451" lon="-0.26691">
        <time>2019-03-23T08:05:47Z</time>
      </trkpt>
      <trkpt lat="39.24518" lon="-0.26684">
        <time>2019-03-23T08:05:48Z</time>
      </trkpt>
      <trkpt lat="39.24526" lon="-0.26676">
        <time>2019-03-23T08:05:49Z</time>
      </trkpt>
      <trkpt lat="39.24534" lon="-0.26668">
        <time>2019-03-23T08:05:50Z</time>
      </trkpt>
      <trkpt lat="39.24542" lon="-0.2666">
        <time>2019-03-23T08:05:51Z</time>
      </trkpt>
      <trkpt lat="39.2455" lon="-0.26653">
        <time>2019-03-23T08:05:52Z</time>
      </trkpt>
      <trkpt lat="39.24557" lon="-0.26646">
        <time>2019-03-23T08:05:53Z</time>
      </trkpt>
      <trkpt lat="39.24565" lon="-0.26639">
        <time>2019-03-23T08:05:54Z</time>
      </trkpt>
      <trkpt lat="39.24572" lon="-0.26632">
        <time>2019-03-23T08:05:55Z</time>
      </trkpt>
      <trkpt lat="39.2458" lon="-0.26624">
        <time>2019-03-23T08:05:56Z</time>
      </trkpt>
      <trkpt lat="39.24587" lon="-0.26617">
        <time>2019-03-23T08:05:57Z</time>
      </trkpt>
      <trkpt lat="39.24595" lon="-0.26612">
        <time>2019-03-23T08:05:58Z</time>
      </trkpt>
      <trkpt lat="39.24603" lon="-0.26611">
        <time>2019-03-23T08:05:59Z</time>
      </trkpt>
      <trkpt lat="39.24609" lon="-0.26613">
        <time>2019-03-23T08:06:00Z</time>
      </trkpt>
      <trkpt lat="39.24613" lon="-0.26614">
        <time>2019-03-23T08:06:01Z</time>
      </trkpt>
      <trkpt lat="39.24615" lon="-0.26614">
        <time>2019-03-23T08:06:02Z</time>
      </trkpt>
      <trkpt lat="39.24616" lon="-0.26613">
        <time>2019-03-23T08:06:03Z</time>
      </trkpt>
      <trkpt lat="39.24616" lon="-0.26612">
        <time>2019-03-23T08:06:05Z</time>
      </trkpt>
      <trkpt lat="39.24619" lon="-0.2661">
        <time>2019-03-23T08:06:06Z</time>
      </trkpt>
      <trkpt lat="39.24622" lon="-0.26604">
        <time>2019-03-23T08:06:07Z</time>
      </trkpt>
      <trkpt lat="39.24625" lon="-0.26597">
        <time>2019-03-23T08:06:08Z</time>
      </trkpt>
      <trkpt lat="39.24629" lon="-0.26591">
        <time>2019-03-23T08:06:09Z</time>
      </trkpt>
      <trkpt lat="39.24632" lon="-0.26585">
        <time>2019-03-23T08:06:10Z</time>
      </trkpt>
      <trkpt lat="39.24635" lon="-0.26579">
        <time>2019-03-23T08:06:11Z</time>
      </trkpt>
      <trkpt lat="39.24634" lon="-0.26573">
        <time>2019-03-23T08:06:12Z</time>
      </trkpt>
      <trkpt lat="39.24631" lon="-0.26568">
        <time>2019-03-23T08:06:13Z</time>
      </trkpt>
      <trkpt lat="39.24628" lon="-0.26563">
        <time>2019-03-23T08:06:14Z</time>
      </trkpt>
      <trkpt lat="39.24624" lon="-0.26558">
        <time>2019-03-23T08:06:15Z</time>
      </trkpt>
      <trkpt lat="39.24621" lon="-0.26553">
        <time>2019-03-23T08:06:16Z</time>
      </trkpt>
      <trkpt lat="39.24619" lon="-0.26549">
        <time>2019-03-23T08:06:17Z</time>
      </trkpt>
      <trkpt lat="39.24618" lon="-0.26545">
        <time>2019-03-23T08:06:18Z</time>
      </trkpt>
      <trkpt lat="39.24617" lon="-0.26542">
        <time>2019-03-23T08:06:19Z</time>
      </trkpt>
      <trkpt lat="39.24618" lon="-0.26539">
        <time>2019-03-23T08:06:20Z</time>
      </trkpt>
      <trkpt lat="39.24619" lon="-0.26536">
        <time>2019-03-23T08:06:21Z</time>
      </trkpt>
      <trkpt lat="39.24622" lon="-0.26533">
        <time>2019-03-23T08:06:22Z</time>
      </trkpt>
      <trkpt lat="39.24625" lon="-0.26526">
        <time>2019-03-23T08:06:23Z</time>
      </trkpt>
      <trkpt lat="39.24628" lon="-0.26521">
        <time>2019-03-23T08:06:24Z</time>
      </trkpt>
      <trkpt lat="39.24631" lon="-0.26516">
        <time>2019-03-23T08:06:25Z</time>
      </trkpt>
      <trkpt lat="39.24633" lon="-0.26512">
        <time>2019-03-23T08:06:26Z</time>
      </trkpt>
      <trkpt lat="39.24635" lon="-0.26507">
        <time>2019-03-23T08:06:27Z</time>
      </trkpt>
      <trkpt lat="39.24637" lon="-0.26504">
        <time>2019-03-23T08:06:28Z</time>
      </trkpt>
      <trkpt lat="39.24638" lon="-0.26502">
        <time>2019-03-23T08:06:29Z</time>
      </trkpt>
      <trkpt lat="39.24639" lon="-0.26501">
        <time>2019-03-23T08:06:30Z</time>
      </trkpt>
      <trkpt lat="39.2464" lon="-0.26499">
        <time>2019-03-23T08:06:32Z</time>
      </trkpt>
      <trkpt lat="39.24641" lon="-0.26495">
        <time>2019-03-23T08:06:33Z</time>
      </trkpt>
      <trkpt lat="39.2464" lon="-0.2649">
        <time>2019-03-23T08:06:34Z</time>
      </trkpt>
      <trkpt lat="39.24635" lon="-0.26485">
        <time>2019-03-23T08:06:35Z</time>
      </trkpt>
      <trkpt lat="39.2463" lon="-0.26483">
        <time>2019-03-23T08:06:36Z</time>
      </trkpt>
      <trkpt lat="39.24624" lon="-0.26481">
        <time>2019-03-23T08:06:37Z</time>
      </trkpt>
      <trkpt lat="39.24618" lon="-0.26478">
        <time>2019-03-23T08:06:38Z</time>
      </trkpt>
      <trkpt lat="39.24611" lon="-0.26476">
        <time>2019-03-23T08:06:39Z</time>
      </trkpt>
      <trkpt lat="39.24603" lon="-0.26474">
        <time>2019-03-23T08:06:40Z</time>
      </trkpt>
      <trkpt lat="39.24594" lon="-0.26475">
        <time>2019-03-23T08:06:41Z</time>
      </trkpt>
      <trkpt lat="39.24584" lon="-0.26475">
        <time>2019-03-23T08:06:42Z</time>
      </trkpt>
      <trkpt lat="39.24573" lon="-0.26476">
        <time>2019-03-23T08:06:43Z</time>
      </trkpt>
      <trkpt lat="39.2456" lon="-0.26477">
        <time>2019-03-23T08:06:44Z</time>
      </trkpt>
      <trkpt lat="39.24546" lon="-0.26479">
        <time>2019-03-23T08:06:45Z</time>
      </trkpt>
      <trkpt lat="39.24532" lon="-0.26479">
        <time>2019-03-23T08:06:46Z</time>
      </trkpt>
      <trkpt lat="39.24518" lon="-0.2648">
        <time>2019-03-23T08:06:47Z</time>
      </trkpt>
      <trkpt lat="39.24505" lon="-0.26482">
        <time>2019-03-23T08:06:48Z</time>
      </trkpt>
      <trkpt lat="39.24492" lon="-0.26483">
        <time>2019-03-23T08:06:49Z</time>
      </trkpt>
      <trkpt lat="39.2448" lon="-0.26484">
        <time>2019-03-23T08:06:50Z</time>
      </trkpt>
      <trkpt lat="39.2447" lon="-0.26483">
        <time>2019-03-23T08:06:51Z</time>
      </trkpt>
      <trkpt lat="39.2446" lon="-0.26484">
        <time>2019-03-23T08:06:52Z</time>
      </trkpt>
      <trkpt lat="39.24449" lon="-0.26483">
        <time>2019-03-23T08:06:53Z</time>
      </trkpt>
      <trkpt lat="39.24441" lon="-0.26482">
        <time>2019-03-23T08:06:54Z</time>
      </trkpt>
      <trkpt lat="39.24433" lon="-0.2648">
        <time>2019-03-23T08:06:55Z</time>
      </trkpt>
      <trkpt lat="39.24426" lon="-0.26479">
        <time>2019-03-23T08:06:56Z</time>
      </trkpt>
      <trkpt lat="39.2442" lon="-0.26476">
        <time>2019-03-23T08:06:57Z</time>
      </trkpt>
      <trkpt lat="39.24417" lon="-0.26469">
        <time>2019-03-23T08:06:58Z</time>
      </trkpt>
      <trkpt lat="39.24417" lon="-0.26462">
        <time>2019-03-23T08:06:59Z</time>
      </trkpt>
      <trkpt lat="39.24419" lon="-0.26455">
        <time>2019-03-23T08:07:00Z</time>
      </trkpt>
      <trkpt lat="39.2442" lon="-0.26447">
        <time>2019-03-23T08:07:01Z</time>
      </trkpt>
      <trkpt lat="39.24421" lon="-0.26437">
        <time>2019-03-23T08:07:02Z</time>
      </trkpt>
      <trkpt lat="39.24421" lon="-0.26429">
        <time>2019-03-23T08:07:03Z</time>
      </trkpt>
      <trkpt lat="39.24421" lon="-0.26421">
        <time>2019-03-23T08:07:04Z</time>
      </trkpt>
      <trkpt lat="39.24422" lon="-0.26413">
        <time>2019-03-23T08:07:05Z</time>
      </trkpt>
      <trkpt lat="39.24423" lon="-0.26405">
        <time>2019-03-23T08:07:06Z</time>
      </trkpt>
      <trkpt lat="39.24426" lon="-0.26397">
        <time>2019-03-23T08:07:07Z</time>
      </trkpt>
      <trkpt lat="39.24429" lon="-0.2639">
        <time>2019-03-23T08:07:08Z</time>
      </trkpt>
      <trkpt lat="39.24434" lon="-0.2638">
        <time>2019-03-23T08:07:09Z</time>
      </trkpt>
      <trkpt lat="39.24438" lon="-0.2637">
        <time>2019-03-23T08:07:10Z</time>
      </trkpt>
      <trkpt lat="39.24442" lon="-0.26361">
        <time>2019-03-23T08:07:11Z</time>
      </trkpt>
      <trkpt lat="39.24445" lon="-0.26353">
        <time>2019-03-23T08:07:12Z</time>
      </trkpt>
      <trkpt lat="39.24447" lon="-0.26348">
        <time>2019-03-23T08:07:13Z</time>
      </trkpt>
      <trkpt lat="39.24448" lon="-0.26346">
        <time>2019-03-23T08:07:14Z</time>
      </trkpt>
      <trkpt lat="39.2445" lon="-0.26343">
        <time>2019-03-23T08:07:15Z</time>
      </trkpt>
      <trkpt lat="39.24452" lon="-0.26337">
        <time>2019-03-23T08:07:16Z</time>
      </trkpt>
      <trkpt lat="39.24457" lon="-0.26328">
        <time>2019-03-23T08:07:17Z</time>
      </trkpt>
      <trkpt lat="39.24462" lon="-0.26316">
        <time>2019-03-23T08:07:18Z</time>
      </trkpt>
      <trkpt lat="39.24467" lon="-0.26302">
        <time>2019-03-23T08:07:19Z</time>
      </trkpt>
      <trkpt lat="39.24473" lon="-0.26286">
        <time>2019-03-23T08:07:20Z</time>
      </trkpt>
      <trkpt lat="39.2448" lon="-0.2627">
        <time>2019-03-23T08:07:21Z</time>
      </trkpt>
      <trkpt lat="39.24488" lon="-0.26253">
        <time>2019-03-23T08:07:22Z</time>
      </trkpt>
      <trkpt lat="39.24499" lon="-0.26239">
        <time>2019-03-23T08:07:23Z</time>
      </trkpt>
      <trkpt lat="39.24511" lon="-0.26229">
        <time>2019-03-23T08:07:24Z</time>
      </trkpt>
      <trkpt lat="39.24521" lon="-0.26219">
        <time>2019-03-23T08:07:25Z</time>
      </trkpt>
      <trkpt lat="39.24527" lon="-0.26209">
        <time>2019-03-23T08:07:26Z</time>
      </trkpt>
      <trkpt lat="39.2453" lon="-0.262">
        <time>2019-03-23T08:07:27Z</time>
      </trkpt>
      <trkpt lat="39.24531" lon="-0.26195">
        <time>2019-03-23T08:07:28Z</time>
      </trkpt>
      <trkpt lat="39.24531" lon="-0.2619">
        <time>2019-03-23T08:07:29Z</time>
      </trkpt>
      <trkpt lat="39.24531" lon="-0.26181">
        <time>2019-03-23T08:07:30Z</time>
      </trkpt>
      <trkpt lat="39.24531" lon="-0.26169">
        <time>2019-03-23T08:07:31Z</time>
      </trkpt>
      <trkpt lat="39.24533" lon="-0.26156">
        <time>2019-03-23T08:07:32Z</time>
      </trkpt>
      <trkpt lat="39.24533" lon="-0.26145">
        <time>2019-03-23T08:07:33Z</time>
      </trkpt>
      <trkpt lat="39.24531" lon="-0.26132">
        <time>2019-03-23T08:07:34Z</time>
      </trkpt>
      <trkpt lat="39.24529" lon="-0.26118">
        <time>2019-03-23T08:07:35Z</time>
      </trkpt>
      <trkpt lat="39.24528" lon="-0.26105">
        <time>2019-03-23T08:07:36Z</time>
      </trkpt>
      <trkpt lat="39.24527" lon="-0.26094">
        <time>2019-03-23T08:07:37Z</time>
      </trkpt>
      <trkpt lat="39.24527" lon="-0.26085">
        <time>2019-03-23T08:07:38Z</time>
      </trkpt>
      <trkpt lat="39.24527" lon="-0.26074">
        <time>2019-03-23T08:07:39Z</time>
      </trkpt>
      <trkpt lat="39.24528" lon="-0.2606">
        <time>2019-03-23T08:07:40Z</time>
      </trkpt>
      <trkpt lat="39.24529" lon="-0.26044">
        <time>2019-03-23T08:07:41Z</time>
      </trkpt>
      <trkpt lat="39.24529" lon="-0.26026">
        <time>2019-03-23T08:07:42Z</time>
      </trkpt>
      <trkpt lat="39.2453" lon="-0.26009">
        <time>2019-03-23T08:07:43Z</time>
      </trkpt>
      <trkpt lat="39.2453" lon="-0.25994">
        <time>2019-03-23T08:07:44Z</time>
      </trkpt>
      <trkpt lat="39.24528" lon="-0.25978">
        <time>2019-03-23T08:07:45Z</time>
      </trkpt>
      <trkpt lat="39.24522" lon="-0.25962">
        <time>2019-03-23T08:07:46Z</time>
      </trkpt>
      <trkpt lat="39.24515" lon="-0.25945">
        <time>2019-03-23T08:07:47Z</time>
      </trkpt>
      <trkpt lat="39.24509" lon="-0.25929">
        <time>2019-03-23T08:07:48Z</time>
      </trkpt>
      <trkpt lat="39.24503" lon="-0.25913">
        <time>2019-03-23T08:07:49Z</time>
      </trkpt>
      <trkpt lat="39.24498" lon="-0.25897">
        <time>2019-03-23T08:07:50Z</time>
      </trkpt>
      <trkpt lat="39.24496" lon="-0.2588">
        <time>2019-03-23T08:07:51Z</time>
      </trkpt>
      <trkpt lat="39.24495" lon="-0.2586">
        <time>2019-03-23T08:07:52Z</time>
      </trkpt>
      <trkpt lat="39.24496" lon="-0.25841">
        <time>2019-03-23T08:07:53Z</time>
      </trkpt>
      <trkpt lat="39.24496" lon="-0.25823">
        <time>2019-03-23T08:07:54Z</time>
      </trkpt>
      <trkpt lat="39.24497" lon="-0.25808">
        <time>2019-03-23T08:07:55Z</time>
      </trkpt>
      <trkpt lat="39.24498" lon="-0.25796">
        <time>2019-03-23T08:07:56Z</time>
      </trkpt>
      <trkpt lat="39.24499" lon="-0.25785">
        <time>2019-03-23T08:07:57Z</time>
      </trkpt>
      <trkpt lat="39.245" lon="-0.25773">
        <time>2019-03-23T08:07:58Z</time>
      </trkpt>
      <trkpt lat="39.24502" lon="-0.25761">
        <time>2019-03-23T08:07:59Z</time>
      </trkpt>
      <trkpt lat="39.24504" lon="-0.25751">
        <time>2019-03-23T08:08:00Z</time>
      </trkpt>
      <trkpt lat="39.24503" lon="-0.25742">
        <time>2019-03-23T08:08:01Z</time>
      </trkpt>
      <trkpt lat="39.24498" lon="-0.25736">
        <time>2019-03-23T08:08:02Z</time>
      </trkpt>
      <trkpt lat="39.24492" lon="-0.25731">
        <time>2019-03-23T08:08:03Z</time>
      </trkpt>
      <trkpt lat="39.24485" lon="-0.25727">
        <time>2019-03-23T08:08:04Z</time>
      </trkpt>
      <trkpt lat="39.24478" lon="-0.25723">
        <time>2019-03-23T08:08:05Z</time>
      </trkpt>
      <trkpt lat="39.24472" lon="-0.25718">
        <time>2019-03-23T08:08:06Z</time>
      </trkpt>
      <trkpt lat="39.24463" lon="-0.25714">
        <time>2019-03-23T08:08:07Z</time>
      </trkpt>
      <trkpt lat="39.24455" lon="-0.25709">
        <time>2019-03-23T08:08:08Z</time>
      </trkpt>
      <trkpt lat="39.24446" lon="-0.25705">
        <time>2019-03-23T08:08:09Z</time>
      </trkpt>
      <trkpt lat="39.24437" lon="-0.25701">
        <time>2019-03-23T08:08:10Z</time>
      </trkpt>
      <trkpt lat="39.24429" lon="-0.25697">
        <time>2019-03-23T08:08:11Z</time>
      </trkpt>
      <trkpt lat="39.2442" lon="-0.25693">
        <time>2019-03-23T08:08:12Z</time>
      </trkpt>
      <trkpt lat="39.24411" lon="-0.25689">
        <time>2019-03-23T08:08:13Z</time>
      </trkpt>
      <trkpt lat="39.24402" lon="-0.25685">
        <time>2019-03-23T08:08:14Z</time>
      </trkpt>
      <trkpt lat="39.24393" lon="-0.25681">
        <time>2019-03-23T08:08:15Z</time>
      </trkpt>
      <trkpt lat="39.24384" lon="-0.25676">
        <time>2019-03-23T08:08:16Z</time>
      </trkpt>
      <trkpt lat="39.24374" lon="-0.25671">
        <time>2019-03-23T08:08:17Z</time>
      </trkpt>
      <trkpt lat="39.24365" lon="-0.25666">
        <time>2019-03-23T08:08:18Z</time>
      </trkpt>
      <trkpt lat="39.24355" lon="-0.25661">
        <time>2019-03-23T08:08:19Z</time>
      </trkpt>
      <trkpt lat="39.24345" lon="-0.25657">
        <time>2019-03-23T08:08:20Z</time>
      </trkpt>
      <trkpt lat="39.24337" lon="-0.25653">
        <time>2019-03-23T08:08:21Z</time>
      </trkpt>
      <trkpt lat="39.24329" lon="-0.2565">
        <time>2019-03-23T08:08:22Z</time>
      </trkpt>
      <trkpt lat="39.24322" lon="-0.25646">
        <time>2019-03-23T08:08:23Z</time>
      </trkpt>
      <trkpt lat="39.24316" lon="-0.25642">
        <time>2019-03-23T08:08:24Z</time>
      </trkpt>
      <trkpt lat="39.2431" lon="-0.25639">
        <time>2019-03-23T08:08:25Z</time>
      </trkpt>
      <trkpt lat="39.24305" lon="-0.25637">
        <time>2019-03-23T08:08:26Z</time>
      </trkpt>
      <trkpt lat="39.24299" lon="-0.25634">
        <time>2019-03-23T08:08:27Z</time>
      </trkpt>
      <trkpt lat="39.24295" lon="-0.25632">
        <time>2019-03-23T08:08:28Z</time>
      </trkpt>
      <trkpt lat="39.24291" lon="-0.2563">
        <time>2019-03-23T08:08:29Z</time>
      </trkpt>
      <trkpt lat="39.24288" lon="-0.25628">
        <time>2019-03-23T08:08:30Z</time>
      </trkpt>
      <trkpt lat="39.24286" lon="-0.25626">
        <time>2019-03-23T08:08:31Z</time>
      </trkpt>
      <trkpt lat="39.24282" lon="-0.25624">
        <time>2019-03-23T08:08:32Z</time>
      </trkpt>
      <trkpt lat="39.24279" lon="-0.25622">
        <time>2019-03-23T08:08:33Z</time>
      </trkpt>
      <trkpt lat="39.24273" lon="-0.25619">
        <time>2019-03-23T08:08:34Z</time>
      </trkpt>
      <trkpt lat="39.24266" lon="-0.25616">
        <time>2019-03-23T08:08:35Z</time>
      </trkpt>
      <trkpt lat="39.24258" lon="-0.25613">
        <time>2019-03-23T08:08:36Z</time>
      </trkpt>
      <trkpt lat="39.2425" lon="-0.25609">
        <time>2019-03-23T08:08:37Z</time>
      </trkpt>
      <trkpt lat="39.24241" lon="-0.25604">
        <time>2019-03-23T08:08:38Z</time>
      </trkpt>
      <trkpt lat="39.24231" lon="-0.25598">
        <time>2019-03-23T08:08:39Z</time>
      </trkpt>
      <trkpt lat="39.24222" lon="-0.25592">
        <time>2019-03-23T08:08:40Z</time>
      </trkpt>
      <trkpt lat="39.24213" lon="-0.25587">
        <time>2019-03-23T08:08:41Z</time>
      </trkpt>
      <trkpt lat="39.24203" lon="-0.25583">
        <time>2019-03-23T08:08:42Z</time>
      </trkpt>
      <trkpt lat="39.24195" lon="-0.2558">
        <time>2019-03-23T08:08:43Z</time>
      </trkpt>
      <trkpt lat="39.24189" lon="-0.25576">
        <time>2019-03-23T08:08:44Z</time>
      </trkpt>
      <trkpt lat="39.24182" lon="-0.25576">
        <time>2019-03-23T08:08:45Z</time>
      </trkpt>
      <trkpt lat="39.24175" lon="-0.25577">
        <time>2019-03-23T08:08:46Z</time>
      </trkpt>
      <trkpt lat="39.24166" lon="-0.2558">
        <time>2019-03-23T08:08:47Z</time>
      </trkpt>
      <trkpt lat="39.24159" lon="-0.25581">
        <time>2019-03-23T08:08:48Z</time>
      </trkpt>
      <trkpt lat="39.24153" lon="-0.25581">
        <time>2019-03-23T08:08:49Z</time>
      </trkpt>
      <trkpt lat="39.24148" lon="-0.25579">
        <time>2019-03-23T08:08:50Z</time>
      </trkpt>
      <trkpt lat="39.24145" lon="-0.25578">
        <time>2019-03-23T08:08:51Z</time>
      </trkpt>
      <trkpt lat="39.24141" lon="-0.25579">
        <time>2019-03-23T08:08:52Z</time>
      </trkpt>
      <trkpt lat="39.24139" lon="-0.25582">
        <time>2019-03-23T08:08:53Z</time>
      </trkpt>
      <trkpt lat="39.24138" lon="-0.25587">
        <time>2019-03-23T08:08:54Z</time>
      </trkpt>
      <trkpt lat="39.24139" lon="-0.25592">
        <time>2019-03-23T08:08:55Z</time>
      </trkpt>
      <trkpt lat="39.24139" lon="-0.25598">
        <time>2019-03-23T08:08:56Z</time>
      </trkpt>
      <trkpt lat="39.24138" lon="-0.25605">
        <time>2019-03-23T08:08:57Z</time>
      </trkpt>
      <trkpt lat="39.24135" lon="-0.25614">
        <time>2019-03-23T08:08:58Z</time>
      </trkpt>
      <trkpt lat="39.24131" lon="-0.25626">
        <time>2019-03-23T08:08:59Z</time>
      </trkpt>
      <trkpt lat="39.24126" lon="-0.2564">
        <time>2019-03-23T08:09:00Z</time>
      </trkpt>
      <trkpt lat="39.24122" lon="-0.25653">
        <time>2019-03-23T08:09:01Z</time>
      </trkpt>
      <trkpt lat="39.24118" lon="-0.25666">
        <time>2019-03-23T08:09:02Z</time>
      </trkpt>
      <trkpt lat="39.24114" lon="-0.25678">
        <time>2019-03-23T08:09:03Z</time>
      </trkpt>
      <trkpt lat="39.24109" lon="-0.25692">
        <time>2019-03-23T08:09:04Z</time>
      </trkpt>
      <trkpt lat="39.24103" lon="-0.25706">
        <time>2019-03-23T08:09:05Z</time>
      </trkpt>
      <trkpt lat="39.24096" lon="-0.25721">
        <time>2019-03-23T08:09:06Z</time>
      </trkpt>
      <trkpt lat="39.24089" lon="-0.25738">
        <time>2019-03-23T08:09:07Z</time>
      </trkpt>
      <trkpt lat="39.24081" lon="-0.25756">
        <time>2019-03-23T08:09:08Z</time>
      </trkpt>
      <trkpt lat="39.24074" lon="-0.25771">
        <time>2019-03-23T08:09:09Z</time>
      </trkpt>
      <trkpt lat="39.24067" lon="-0.25785">
        <time>2019-03-23T08:09:10Z</time>
      </trkpt>
      <trkpt lat="39.24062" lon="-0.25797">
        <time>2019-03-23T08:09:11Z</time>
      </trkpt>
      <trkpt lat="39.24057" lon="-0.2581">
        <time>2019-03-23T08:09:12Z</time>
      </trkpt>
      <trkpt lat="39.24052" lon="-0.25824">
        <time>2019-03-23T08:09:13Z</time>
      </trkpt>
      <trkpt lat="39.24047" lon="-0.2584">
        <time>2019-03-23T08:09:14Z</time>
      </trkpt>
      <trkpt lat="39.24042" lon="-0.25858">
        <time>2019-03-23T08:09:15Z</time>
      </trkpt>
      <trkpt lat="39.24037" lon="-0.25874">
        <time>2019-03-23T08:09:16Z</time>
      </trkpt>
      <trkpt lat="39.24032" lon="-0.25889">
        <time>2019-03-23T08:09:17Z</time>
      </trkpt>
      <trkpt lat="39.24028" lon="-0.25903">
        <time>2019-03-23T08:09:18Z</time>
      </trkpt>
      <trkpt lat="39.24023" lon="-0.25916">
        <time>2019-03-23T08:09:19Z</time>
      </trkpt>
      <trkpt lat="39.24019" lon="-0.25929">
        <time>2019-03-23T08:09:20Z</time>
      </trkpt>
      <trkpt lat="39.24015" lon="-0.25942">
        <time>2019-03-23T08:09:21Z</time>
      </trkpt>
      <trkpt lat="39.24012" lon="-0.25951">
        <time>2019-03-23T08:09:22Z</time>
      </trkpt>
      <trkpt lat="39.24011" lon="-0.25963">
        <time>2019-03-23T08:09:23Z</time>
      </trkpt>
      <trkpt lat="39.24011" lon="-0.25979">
        <time>2019-03-23T08:09:24Z</time>
      </trkpt>
      <trkpt lat="39.24012" lon="-0.25995">
        <time>2019-03-23T08:09:25Z</time>
      </trkpt>
      <trkpt lat="39.24012" lon="-0.2601">
        <time>2019-03-23T08:09:26Z</time>
      </trkpt>
      <trkpt lat="39.24013" lon="-0.26022">
        <time>2019-03-23T08:09:27Z</time>
      </trkpt>
      <trkpt lat="39.24014" lon="-0.26033">
        <time>2019-03-23T08:09:28Z</time>
      </trkpt>
      <trkpt lat="39.24014" lon="-0.2604">
        <time>2019-03-23T08:09:29Z</time>
      </trkpt>
      <trkpt lat="39.24014" lon="-0.26045">
        <time>2019-03-23T08:09:30Z</time>
      </trkpt>
      <trkpt lat="39.24013" lon="-0.26047">
        <time>2019-03-23T08:09:31Z</time>
      </trkpt>
      <trkpt lat="39.24012" lon="-0.26049">
        <time>2019-03-23T08:09:32Z</time>
      </trkpt>
      <trkpt lat="39.2401" lon="-0.2605">
        <time>2019-03-23T08:09:35Z</time>
      </trkpt>
      <trkpt lat="39.24007" lon="-0.26051">
        <time>2019-03-23T08:09:36Z</time>
      </trkpt>
      <trkpt lat="39.24002" lon="-0.26048">
        <time>2019-03-23T08:09:37Z</time>
      </trkpt>
      <trkpt lat="39.23994" lon="-0.26043">
        <time>2019-03-23T08:09:38Z</time>
      </trkpt>
      <trkpt lat="39.23984" lon="-0.26038">
        <time>2019-03-23T08:09:39Z</time>
      </trkpt>
      <trkpt lat="39.23974" lon="-0.26033">
        <time>2019-03-23T08:09:40Z</time>
      </trkpt>
      <trkpt lat="39.23961" lon="-0.26029">
        <time>2019-03-23T08:09:41Z</time>
      </trkpt>
      <trkpt lat="39.23948" lon="-0.26026">
        <time>2019-03-23T08:09:42Z</time>
      </trkpt>
      <trkpt lat="39.23934" lon="-0.26021">
        <time>2019-03-23T08:09:43Z</time>
      </trkpt>
      <trkpt lat="39.23919" lon="-0.26016">
        <time>2019-03-23T08:09:44Z</time>
      </trkpt>
      <trkpt lat="39.23902" lon="-0.26011">
        <time>2019-03-23T08:09:45Z</time>
      </trkpt>
      <trkpt lat="39.23884" lon="-0.26006">
        <time>2019-03-23T08:09:46Z</time>
      </trkpt>
      <trkpt lat="39.23867" lon="-0.26001">
        <time>2019-03-23T08:09:47Z</time>
      </trkpt>
      <trkpt lat="39.23849" lon="-0.25994">
        <time>2019-03-23T08:09:48Z</time>
      </trkpt>
      <trkpt lat="39.23833" lon="-0.25986">
        <time>2019-03-23T08:09:49Z</time>
      </trkpt>
      <trkpt lat="39.23816" lon="-0.25977">
        <time>2019-03-23T08:09:50Z</time>
      </trkpt>
      <trkpt lat="39.23798" lon="-0.25971">
        <time>2019-03-23T08:09:51Z</time>
      </trkpt>
      <trkpt lat="39.23781" lon="-0.25966">
        <time>2019-03-23T08:09:52Z</time>
      </trkpt>
      <trkpt lat="39.23765" lon="-0.25962">
        <time>2019-03-23T08:09:53Z</time>
      </trkpt>
      <trkpt lat="39.2375" lon="-0.2596">
        <time>2019-03-23T08:09:54Z</time>
      </trkpt>
      <trkpt lat="39.23735" lon="-0.25959">
        <time>2019-03-23T08:09:55Z</time>
      </trkpt>
      <trkpt lat="39.23721" lon="-0.25958">
        <time>2019-03-23T08:09:56Z</time>
      </trkpt>
      <trkpt lat="39.23709" lon="-0.25955">
        <time>2019-03-23T08:09:57Z</time>
      </trkpt>
      <trkpt lat="39.23699" lon="-0.2595">
        <time>2019-03-23T08:09:58Z</time>
      </trkpt>
      <trkpt lat="39.23691" lon="-0.2594">
        <time>2019-03-23T08:09:59Z</time>
      </trkpt>
      <trkpt lat="39.23684" lon="-0.2593">
        <time>2019-03-23T08:10:00Z</time>
      </trkpt>
      <trkpt lat="39.23674" lon="-0.25922">
        <time>2019-03-23T08:10:01Z</time>
      </trkpt>
      <trkpt lat="39.2366" lon="-0.25916">
        <time>2019-03-23T08:10:02Z</time>
      </trkpt>
      <trkpt lat="39.23646" lon="-0.25909">
        <time>2019-03-23T08:10:03Z</time>
      </trkpt>
      <trkpt lat="39.23633" lon="-0.259">
        <time>2019-03-23T08:10:04Z</time>
      </trkpt>
      <trkpt lat="39.23622" lon="-0.25889">
        <time>2019-03-23T08:10:05Z</time>
      </trkpt>
      <trkpt lat="39.23613" lon="-0.25873">
        <time>2019-03-23T08:10:06Z</time>
      </trkpt>
      <trkpt lat="39.23605" lon="-0.25854">
        <time>2019-03-23T08:10:07Z</time>
      </trkpt>
      <trkpt lat="39.23594" lon="-0.25837">
        <time>2019-03-23T08:10:08Z</time>
      </trkpt>
      <trkpt lat="39.23584" lon="-0.25821">
        <time>2019-03-23T08:10:09Z</time>
      </trkpt>
      <trkpt lat="39.23575" lon="-0.25807">
        <time>2019-03-23T08:10:10Z</time>
      </trkpt>
      <trkpt lat="39.23567" lon="-0.25794">
        <time>2019-03-23T08:10:11Z</time>
      </trkpt>
      <trkpt lat="39.23563" lon="-0.25781">
        <time>2019-03-23T08:10:12Z</time>
      </trkpt>
      <trkpt lat="39.23566" lon="-0.25766">
        <time>2019-03-23T08:10:13Z</time>
      </trkpt>
      <trkpt lat="39.23569" lon="-0.25749">
        <time>2019-03-23T08:10:14Z</time>
      </trkpt>
      <trkpt lat="39.23571" lon="-0.2573">
        <time>2019-03-23T08:10:15Z</time>
      </trkpt>
      <trkpt lat="39.23573" lon="-0.25709">
        <time>2019-03-23T08:10:16Z</time>
      </trkpt>
      <trkpt lat="39.23575" lon="-0.25689">
        <time>2019-03-23T08:10:17Z</time>
      </trkpt>
      <trkpt lat="39.23576" lon="-0.25671">
        <time>2019-03-23T08:10:18Z</time>
      </trkpt>
      <trkpt lat="39.23578" lon="-0.25655">
        <time>2019-03-23T08:10:19Z</time>
      </trkpt>
      <trkpt lat="39.23579" lon="-0.25644">
        <time>2019-03-23T08:10:20Z</time>
      </trkpt>
      <trkpt lat="39.23578" lon="-0.25632">
        <time>2019-03-23T08:10:21Z</time>
      </trkpt>
      <trkpt lat="39.23573" lon="-0.25627">
        <time>2019-03-23T08:10:22Z</time>
      </trkpt>
      <trkpt lat="39.23566" lon="-0.25623">
        <time>2019-03-23T08:10:23Z</time>
      </trkpt>
      <trkpt lat="39.23557" lon="-0.25622">
        <time>2019-03-23T08:10:24Z</time>
      </trkpt>
      <trkpt lat="39.23546" lon="-0.25623">
        <time>2019-03-23T08:10:25Z</time>
      </trkpt>
      <trkpt lat="39.23534" lon="-0.25624">
        <time>2019-03-23T08:10:26Z</time>
      </trkpt>
      <trkpt lat="39.23521" lon="-0.25624">
        <time>2019-03-23T08:10:27Z</time>
      </trkpt>
      <trkpt lat="39.2351" lon="-0.25625">
        <time>2019-03-23T08:10:28Z</time>
      </trkpt>
      <trkpt lat="39.23501" lon="-0.25625">
        <time>2019-03-23T08:10:29Z</time>
      </trkpt>
      <trkpt lat="39.23495" lon="-0.2562">
        <time>2019-03-23T08:10:30Z</time>
      </trkpt>
      <trkpt lat="39.23489" lon="-0.25611">
        <time>2019-03-23T08:10:31Z</time>
      </trkpt>
      <trkpt lat="39.23485" lon="-0.25596">
        <time>2019-03-23T08:10:32Z</time>
      </trkpt>
      <trkpt lat="39.23478" lon="-0.25578">
        <time>2019-03-23T08:10:33Z</time>
      </trkpt>
      <trkpt lat="39.23471" lon="-0.2556">
        <time>2019-03-23T08:10:34Z</time>
      </trkpt>
      <trkpt lat="39.23463" lon="-0.25541">
        <time>2019-03-23T08:10:35Z</time>
      </trkpt>
      <trkpt lat="39.23456" lon="-0.25521">
        <time>2019-03-23T08:10:36Z</time>
      </trkpt>
      <trkpt lat="39.23449" lon="-0.25504">
        <time>2019-03-23T08:10:37Z</time>
      </trkpt>
      <trkpt lat="39.23443" lon="-0.2549">
        <time>2019-03-23T08:10:38Z</time>
      </trkpt>
      <trkpt lat="39.23439" lon="-0.25477">
        <time>2019-03-23T08:10:39Z</time>
      </trkpt>
      <trkpt lat="39.23438" lon="-0.25466">
        <time>2019-03-23T08:10:40Z</time>
      </trkpt>
      <trkpt lat="39.23441" lon="-0.25458">
        <time>2019-03-23T08:10:41Z</time>
      </trkpt>
      <trkpt lat="39.23448" lon="-0.25451">
        <time>2019-03-23T08:10:42Z</time>
      </trkpt>
      <trkpt lat="39.23457" lon="-0.25445">
        <time>2019-03-23T08:10:43Z</time>
      </trkpt>
      <trkpt lat="39.23465" lon="-0.25435">
        <time>2019-03-23T08:10:44Z</time>
      </trkpt>
      <trkpt lat="39.23471" lon="-0.25421">
        <time>2019-03-23T08:10:45Z</time>
      </trkpt>
      <trkpt lat="39.23476" lon="-0.25409">
        <time>2019-03-23T08:10:46Z</time>
      </trkpt>
      <trkpt lat="39.2348" lon="-0.254">
        <time>2019-03-23T08:10:47Z</time>
      </trkpt>
      <trkpt lat="39.23479" lon="-0.25395">
        <time>2019-03-23T08:10:48Z</time>
      </trkpt>
      <trkpt lat="39.23478" lon="-0.25392">
        <time>2019-03-23T08:10:49Z</time>
      </trkpt>
      <trkpt lat="39.23476" lon="-0.25389">
        <time>2019-03-23T08:10:50Z</time>
      </trkpt>
      <trkpt lat="39.23466" lon="-0.25384">
        <time>2019-03-23T08:10:51Z</time>
      </trkpt>
      <trkpt lat="39.23458" lon="-0.25377">
        <time>2019-03-23T08:10:52Z</time>
      </trkpt>
      <trkpt lat="39.23449" lon="-0.25369">
        <time>2019-03-23T08:10:53Z</time>
      </trkpt>
      <trkpt lat="39.23436" lon="-0.25361">
        <time>2019-03-23T08:10:54Z</time>
      </trkpt>
      <trkpt lat="39.23424" lon="-0.25354">
        <time>2019-03-23T08:10:55Z</time>
      </trkpt>
      <trkpt lat="39.23412" lon="-0.25347">
        <time>2019-03-23T08:10:56Z</time>
      </trkpt>
      <trkpt lat="39.23402" lon="-0.2534">
        <time>2019-03-23T08:10:57Z</time>
      </trkpt>
      <trkpt lat="39.23392" lon="-0.25334">
        <time>2019-03-23T08:10:58Z</time>
      </trkpt>
      <trkpt lat="39.23383" lon="-0.25327">
        <time>2019-03-23T08:10:59Z</time>
      </trkpt>
      <trkpt lat="39.23373" lon="-0.2532">
        <time>2019-03-23T08:11:00Z</time>
      </trkpt>
      <trkpt lat="39.23363" lon="-0.25314">
        <time>2019-03-23T08:11:01Z</time>
      </trkpt>
      <trkpt lat="39.23352" lon="-0.25306">
        <time>2019-03-23T08:11:02Z</time>
      </trkpt>
      <trkpt lat="39.2334" lon="-0.25299">
        <time>2019-03-23T08:11:03Z</time>
      </trkpt>
      <trkpt lat="39.2333" lon="-0.2529">
        <time>2019-03-23T08:11:04Z</time>
      </trkpt>
      <trkpt lat="39.23319" lon="-0.25283">
        <time>2019-03-23T08:11:05Z</time>
      </trkpt>
      <trkpt lat="39.23309" lon="-0.25278">
        <time>2019-03-23T08:11:06Z</time>
      </trkpt>
      <trkpt lat="39.233" lon="-0.25273">
        <time>2019-03-23T08:11:07Z</time>
      </trkpt>
      <trkpt lat="39.23294" lon="-0.25267">
        <time>2019-03-23T08:11:08Z</time>
      </trkpt>
      <trkpt lat="39.23291" lon="-0.25258">
        <time>2019-03-23T08:11:09Z</time>
      </trkpt>
      <trkpt lat="39.2329" lon="-0.25248">
        <time>2019-03-23T08:11:10Z</time>
      </trkpt>
      <trkpt lat="39.23293" lon="-0.25235">
        <time>2019-03-23T08:11:11Z</time>
      </trkpt>
      <trkpt lat="39.23296" lon="-0.25222">
        <time>2019-03-23T08:11:12Z</time>
      </trkpt>
      <trkpt lat="39.23299" lon="-0.25209">
        <time>2019-03-23T08:11:13Z</time>
      </trkpt>
      <trkpt lat="39.233" lon="-0.25198">
        <time>2019-03-23T08:11:14Z</time>
      </trkpt>
      <trkpt lat="39.23297" lon="-0.2519">
        <time>2019-03-23T08:11:15Z</time>
      </trkpt>
      <trkpt lat="39.23293" lon="-0.25184">
        <time>2019-03-23T08:11:16Z</time>
      </trkpt>
      <trkpt lat="39.23284" lon="-0.2518">
        <time>2019-03-23T08:11:17Z</time>
      </trkpt>
      <trkpt lat="39.23274" lon="-0.25176">
        <time>2019-03-23T08:11:18Z</time>
      </trkpt>
      <trkpt lat="39.23262" lon="-0.2517">
        <time>2019-03-23T08:11:19Z</time>
      </trkpt>
      <trkpt lat="39.2325" lon="-0.25165">
        <time>2019-03-23T08:11:20Z</time>
      </trkpt>
      <trkpt lat="39.23236" lon="-0.25159">
        <time>2019-03-23T08:11:21Z</time>
      </trkpt>
      <trkpt lat="39.23222" lon="-0.25153">
        <time>2019-03-23T08:11:22Z</time>
      </trkpt>
      <trkpt lat="39.23211" lon="-0.2515">
        <time>2019-03-23T08:11:23Z</time>
      </trkpt>
      <trkpt lat="39.23202" lon="-0.25148">
        <time>2019-03-23T08:11:24Z</time>
      </trkpt>
      <trkpt lat="39.23196" lon="-0.2515">
        <time>2019-03-23T08:11:25Z</time>
      </trkpt>
      <trkpt lat="39.23192" lon="-0.25156">
        <time>2019-03-23T08:11:26Z</time>
      </trkpt>
      <trkpt lat="39.23189" lon="-0.25166">
        <time>2019-03-23T08:11:27Z</time>
      </trkpt>
      <trkpt lat="39.23185" lon="-0.25179">
        <time>2019-03-23T08:11:28Z</time>
      </trkpt>
      <trkpt lat="39.23179" lon="-0.25195">
        <time>2019-03-23T08:11:29Z</time>
      </trkpt>
      <trkpt lat="39.23175" lon="-0.25212">
        <time>2019-03-23T08:11:30Z</time>
      </trkpt>
      <trkpt lat="39.2317" lon="-0.25227">
        <time>2019-03-23T08:11:31Z</time>
      </trkpt>
      <trkpt lat="39.23165" lon="-0.25237">
        <time>2019-03-23T08:11:32Z</time>
      </trkpt>
      <trkpt lat="39.2316" lon="-0.25243">
        <time>2019-03-23T08:11:33Z</time>
      </trkpt>
      <trkpt lat="39.23152" lon="-0.25247">
        <time>2019-03-23T08:11:34Z</time>
      </trkpt>
      <trkpt lat="39.23143" lon="-0.25247">
        <time>2019-03-23T08:11:35Z</time>
      </trkpt>
      <trkpt lat="39.23132" lon="-0.25247">
        <time>2019-03-23T08:11:36Z</time>
      </trkpt>
      <trkpt lat="39.2312" lon="-0.25247">
        <time>2019-03-23T08:11:37Z</time>
      </trkpt>
      <trkpt lat="39.23108" lon="-0.25247">
        <time>2019-03-23T08:11:38Z</time>
      </trkpt>
      <trkpt lat="39.23097" lon="-0.25248">
        <time>2019-03-23T08:11:39Z</time>
      </trkpt>
      <trkpt lat="39.23086" lon="-0.25248">
        <time>2019-03-23T08:11:40Z</time>
      </trkpt>
      <trkpt lat="39.23076" lon="-0.25248">
        <time>2019-03-23T08:11:41Z</time>
      </trkpt>
      <trkpt lat="39.23065" lon="-0.25247">
        <time>2019-03-23T08:11:42Z</time>
      </trkpt>
      <trkpt lat="39.23053" lon="-0.25246">
        <time>2019-03-23T08:11:43Z</time>
      </trkpt>
      <trkpt lat="39.23039" lon="-0.25241">
        <time>2019-03-23T08:11:44Z</time>
      </trkpt>
      <trkpt lat="39.23024" lon="-0.25234">
        <time>2019-03-23T08:11:45Z</time>
      </trkpt>
      <trkpt lat="39.2301" lon="-0.25228">
        <time>2019-03-23T08:11:46Z</time>
      </trkpt>
      <trkpt lat="39.22996" lon="-0.25223">
        <time>2019-03-23T08:11:47Z</time>
      </trkpt>
      <trkpt lat="39.22984" lon="-0.25218">
        <time>2019-03-23T08:11:48Z</time>
      </trkpt>
      <trkpt lat="39.22976" lon="-0.25215">
        <time>2019-03-23T08:11:49Z</time>
      </trkpt>
      <trkpt lat="39.22971" lon="-0.25212">
        <time>2019-03-23T08:11:50Z</time>
      </trkpt>
      <trkpt lat="39.22968" lon="-0.2521">
        <time>2019-03-23T08:11:51Z</time>
      </trkpt>
      <trkpt lat="39.22967" lon="-0.25207">
        <time>2019-03-23T08:11:52Z</time>
      </trkpt>
      <trkpt lat="39.22967" lon="-0.25203">
        <time>2019-03-23T08:11:53Z</time>
      </trkpt>
      <trkpt lat="39.22969" lon="-0.25198">
        <time>2019-03-23T08:11:54Z</time>
      </trkpt>
      <trkpt lat="39.22974" lon="-0.25191">
        <time>2019-03-23T08:11:55Z</time>
      </trkpt>
      <trkpt lat="39.22979" lon="-0.25184">
        <time>2019-03-23T08:11:56Z</time>
      </trkpt>
      <trkpt lat="39.22986" lon="-0.25174">
        <time>2019-03-23T08:11:57Z</time>
      </trkpt>
      <trkpt lat="39.22992" lon="-0.25165">
        <time>2019-03-23T08:11:58Z</time>
      </trkpt>
      <trkpt lat="39.23" lon="-0.25154">
        <time>2019-03-23T08:11:59Z</time>
      </trkpt>
      <trkpt lat="39.23007" lon="-0.25143">
        <time>2019-03-23T08:12:00Z</time>
      </trkpt>
      <trkpt lat="39.23015" lon="-0.25131">
        <time>2019-03-23T08:12:01Z</time>
      </trkpt>
      <trkpt lat="39.23024" lon="-0.25119">
        <time>2019-03-23T08:12:02Z</time>
      </trkpt>
      <trkpt lat="39.23032" lon="-0.25108">
        <time>2019-03-23T08:12:03Z</time>
      </trkpt>
      <trkpt lat="39.23039" lon="-0.25098">
        <time>2019-03-23T08:12:04Z</time>
      </trkpt>
      <trkpt lat="39.23046" lon="-0.25087">
        <time>2019-03-23T08:12:05Z</time>
      </trkpt>
      <trkpt lat="39.23053" lon="-0.25079">
        <time>2019-03-23T08:12:06Z</time>
      </trkpt>
      <trkpt lat="39.23061" lon="-0.25069">
        <time>2019-03-23T08:12:07Z</time>
      </trkpt>
      <trkpt lat="39.23068" lon="-0.25057">
        <time>2019-03-23T08:12:08Z</time>
      </trkpt>
      <trkpt lat="39.23078" lon="-0.25043">
        <time>2019-03-23T08:12:09Z</time>
      </trkpt>
      <trkpt lat="39.23086" lon="-0.2503">
        <time>2019-03-23T08:12:10Z</time>
      </trkpt>
      <trkpt lat="39.23095" lon="-0.25017">
        <time>2019-03-23T08:12:11Z</time>
      </trkpt>
      <trkpt lat="39.23104" lon="-0.25004">
        <time>2019-03-23T08:12:12Z</time>
      </trkpt>
      <trkpt lat="39.23111" lon="-0.24993">
        <time>2019-03-23T08:12:13Z</time>
      </trkpt>
      <trkpt lat="39.23118" lon="-0.24984">
        <time>2019-03-23T08:12:14Z</time>
      </trkpt>
      <trkpt lat="39.23124" lon="-0.24976">
        <time>2019-03-23T08:12:15Z</time>
      </trkpt>
      <trkpt lat="39.2313" lon="-0.24968">
        <time>2019-03-23T08:12:16Z</time>
      </trkpt>
      <trkpt lat="39.23132" lon="-0.24963">
        <time>2019-03-23T08:12:17Z</time>
      </trkpt>
      <trkpt lat="39.23133" lon="-0.24959">
        <time>2019-03-23T08:12:18Z</time>
      </trkpt>
      <trkpt lat="39.23132" lon="-0.24955">
        <time>2019-03-23T08:12:19Z</time>
      </trkpt>
      <trkpt lat="39.23129" lon="-0.24951">
        <time>2019-03-23T08:12:20Z</time>
      </trkpt>
      <trkpt lat="39.23123" lon="-0.24947">
        <time>2019-03-23T08:12:21Z</time>
      </trkpt>
      <trkpt lat="39.23116" lon="-0.24942">
        <time>2019-03-23T08:12:22Z</time>
      </trkpt>
      <trkpt lat="39.23108" lon="-0.24936">
        <time>2019-03-23T08:12:23Z</time>
      </trkpt>
      <trkpt lat="39.23098" lon="-0.24931">
        <time>2019-03-23T08:12:24Z</time>
      </trkpt>
      <trkpt lat="39.23088" lon="-0.24924">
        <time>2019-03-23T08:12:25Z</time>
      </trkpt>
      <trkpt lat="39.23078" lon="-0.24917">
        <time>2019-03-23T08:12:26Z</time>
      </trkpt>
      <trkpt lat="39.23067" lon="-0.2491">
        <time>2019-03-23T08:12:27Z</time>
      </trkpt>
      <trkpt lat="39.23058" lon="-0.24904">
        <time>2019-03-23T08:12:28Z</time>
      </trkpt>
      <trkpt lat="39.23051" lon="-0.24899">
        <time>2019-03-23T08:12:29Z</time>
      </trkpt>
      <trkpt lat="39.23044" lon="-0.24893">
        <time>2019-03-23T08:12:30Z</time>
      </trkpt>
      <trkpt lat="39.23036" lon="-0.24887">
        <time>2019-03-23T08:12:31Z</time>
      </trkpt>
      <trkpt lat="39.23027" lon="-0.2488">
        <time>2019-03-23T08:12:32Z</time>
      </trkpt>
      <trkpt lat="39.23016" lon="-0.24872">
        <time>2019-03-23T08:12:33Z</time>
      </trkpt>
      <trkpt lat="39.23003" lon="-0.24865">
        <time>2019-03-23T08:12:34Z</time>
      </trkpt>
      <trkpt lat="39.22991" lon="-0.24858">
        <time>2019-03-23T08:12:35Z</time>
      </trkpt>
      <trkpt lat="39.22981" lon="-0.24851">
        <time>2019-03-23T08:12:36Z</time>
      </trkpt>
      <trkpt lat="39.22972" lon="-0.24845">
        <time>2019-03-23T08:12:37Z</time>
      </trkpt>
      <trkpt lat="39.22966" lon="-0.24842">
        <time>2019-03-23T08:12:38Z</time>
      </trkpt>
      <trkpt lat="39.2296" lon="-0.24842">
        <time>2019-03-23T08:12:39Z</time>
      </trkpt>
      <trkpt lat="39.22955" lon="-0.24846">
        <time>2019-03-23T08:12:40Z</time>
      </trkpt>
      <trkpt lat="39.22951" lon="-0.24855">
        <time>2019-03-23T08:12:41Z</time>
      </trkpt>
      <trkpt lat="39.22949" lon="-0.24866">
        <time>2019-03-23T08:12:42Z</time>
      </trkpt>
      <trkpt lat="39.22943" lon="-0.24878">
        <time>2019-03-23T08:12:43Z</time>
      </trkpt>
      <trkpt lat="39.22936" lon="-0.24888">
        <time>2019-03-23T08:12:44Z</time>
      </trkpt>
      <trkpt lat="39.22927" lon="-0.24895">
        <time>2019-03-23T08:12:45Z</time>
      </trkpt>
      <trkpt lat="39.22917" lon="-0.24897">
        <time>2019-03-23T08:12:46Z</time>
      </trkpt>
      <trkpt lat="39.22906" lon="-0.24897">
        <time>2019-03-23T08:12:47Z</time>
      </trkpt>
      <trkpt lat="39.22895" lon="-0.24894">
        <time>2019-03-23T08:12:48Z</time>
      </trkpt>
      <trkpt lat="39.22884" lon="-0.24892">
        <time>2019-03-23T08:12:49Z</time>
      </trkpt>
      <trkpt lat="39.22872" lon="-0.24889">
        <time>2019-03-23T08:12:50Z</time>
      </trkpt>
      <trkpt lat="39.2286" lon="-0.24886">
        <time>2019-03-23T08:12:51Z</time>
      </trkpt>
      <trkpt lat="39.22848" lon="-0.24882">
        <time>2019-03-23T08:12:52Z</time>
      </trkpt>
      <trkpt lat="39.22835" lon="-0.24879">
        <time>2019-03-23T08:12:53Z</time>
      </trkpt>
      <trkpt lat="39.22822" lon="-0.24876">
        <time>2019-03-23T08:12:54Z</time>
      </trkpt>
      <trkpt lat="39.22809" lon="-0.24873">
        <time>2019-03-23T08:12:55Z</time>
      </trkpt>
      <trkpt lat="39.22797" lon="-0.24871">
        <time>2019-03-23T08:12:56Z</time>
      </trkpt>
      <trkpt lat="39.22786" lon="-0.24869">
        <time>2019-03-23T08:12:57Z</time>
      </trkpt>
      <trkpt lat="39.22776" lon="-0.24867">
        <time>2019-03-23T08:12:58Z</time>
      </trkpt>
      <trkpt lat="39.22767" lon="-0.24865">
        <time>2019-03-23T08:12:59Z</time>
      </trkpt>
      <trkpt lat="39.22758" lon="-0.24864">
        <time>2019-03-23T08:13:00Z</time>
      </trkpt>
      <trkpt lat="39.22747" lon="-0.24861">
        <time>2019-03-23T08:13:01Z</time>
      </trkpt>
      <trkpt lat="39.22736" lon="-0.24856">
        <time>2019-03-23T08:13:02Z</time>
      </trkpt>
      <trkpt lat="39.22726" lon="-0.24852">
        <time>2019-03-23T08:13:03Z</time>
      </trkpt>
      <trkpt lat="39.22717" lon="-0.24849">
        <time>2019-03-23T08:13:04Z</time>
      </trkpt>
      <trkpt lat="39.22709" lon="-0.24846">
        <time>2019-03-23T08:13:05Z</time>
      </trkpt>
      <trkpt lat="39.22701" lon="-0.24846">
        <time>2019-03-23T08:13:06Z</time>
      </trkpt>
      <trkpt lat="39.22696" lon="-0.24849">
        <time>2019-03-23T08:13:07Z</time>
      </trkpt>
      <trkpt lat="39.2269" lon="-0.24853">
        <time>2019-03-23T08:13:08Z</time>
      </trkpt>
      <trkpt lat="39.22685" lon="-0.24859">
        <time>2019-03-23T08:13:09Z</time>
      </trkpt>
      <trkpt lat="39.22681" lon="-0.24867">
        <time>2019-03-23T08:13:10Z</time>
      </trkpt>
      <trkpt lat="39.22677" lon="-0.24875">
        <time>2019-03-23T08:13:11Z</time>
      </trkpt>
      <trkpt lat="39.22672" lon="-0.24888">
        <time>2019-03-23T08:13:12Z</time>
      </trkpt>
      <trkpt lat="39.22668" lon="-0.24902">
        <time>2019-03-23T08:13:13Z</time>
      </trkpt>
      <trkpt lat="39.22662" lon="-0.24916">
        <time>2019-03-23T08:13:14Z</time>
      </trkpt>
      <trkpt lat="39.22656" lon="-0.24928">
        <time>2019-03-23T08:13:15Z</time>
      </trkpt>
      <trkpt lat="39.22648" lon="-0.24939">
        <time>2019-03-23T08:13:16Z</time>
      </trkpt>
      <trkpt lat="39.22638" lon="-0.24948">
        <time>2019-03-23T08:13:17Z</time>
      </trkpt>
      <trkpt lat="39.22626" lon="-0.24954">
        <time>2019-03-23T08:13:18Z</time>
      </trkpt>
      <trkpt lat="39.22611" lon="-0.2496">
        <time>2019-03-23T08:13:19Z</time>
      </trkpt>
      <trkpt lat="39.22597" lon="-0.24968">
        <time>2019-03-23T08:13:20Z</time>
      </trkpt>
      <trkpt lat="39.22585" lon="-0.24975">
        <time>2019-03-23T08:13:21Z</time>
      </trkpt>
      <trkpt lat="39.22573" lon="-0.24981">
        <time>2019-03-23T08:13:22Z</time>
      </trkpt>
      <trkpt lat="39.22565" lon="-0.24986">
        <time>2019-03-23T08:13:23Z</time>
      </trkpt>
      <trkpt lat="39.22556" lon="-0.24987">
        <time>2019-03-23T08:13:24Z</time>
      </trkpt>
      <trkpt lat="39.22545" lon="-0.24986">
        <time>2019-03-23T08:13:25Z</time>
      </trkpt>
      <trkpt lat="39.22532" lon="-0.2498">
        <time>2019-03-23T08:13:26Z</time>
      </trkpt>
      <trkpt lat="39.22519" lon="-0.24971">
        <time>2019-03-23T08:13:27Z</time>
      </trkpt>
      <trkpt lat="39.22505" lon="-0.24963">
        <time>2019-03-23T08:13:28Z</time>
      </trkpt>
      <trkpt lat="39.22493" lon="-0.24955">
        <time>2019-03-23T08:13:29Z</time>
      </trkpt>
      <trkpt lat="39.2248" lon="-0.24944">
        <time>2019-03-23T08:13:30Z</time>
      </trkpt>
      <trkpt lat="39.22469" lon="-0.24933">
        <time>2019-03-23T08:13:31Z</time>
      </trkpt>
      <trkpt lat="39.22459" lon="-0.24922">
        <time>2019-03-23T08:13:32Z</time>
      </trkpt>
      <trkpt lat="39.2245" lon="-0.24911">
        <time>2019-03-23T08:13:33Z</time>
      </trkpt>
      <trkpt lat="39.2244" lon="-0.24901">
        <time>2019-03-23T08:13:34Z</time>
      </trkpt>
      <trkpt lat="39.22428" lon="-0.24892">
        <time>2019-03-23T08:13:35Z</time>
      </trkpt>
      <trkpt lat="39.22416" lon="-0.24884">
        <time>2019-03-23T08:13:36Z</time>
      </trkpt>
      <trkpt lat="39.22403" lon="-0.24873">
        <time>2019-03-23T08:13:37Z</time>
      </trkpt>
      <trkpt lat="39.22389" lon="-0.24863">
        <time>2019-03-23T08:13:38Z</time>
      </trkpt>
      <trkpt lat="39.22376" lon="-0.24855">
        <time>2019-03-23T08:13:39Z</time>
      </trkpt>
      <trkpt lat="39.22365" lon="-0.24847">
        <time>2019-03-23T08:13:40Z</time>
      </trkpt>
      <trkpt lat="39.22356" lon="-0.24841">
        <time>2019-03-23T08:13:41Z</time>
      </trkpt>
      <trkpt lat="39.2235" lon="-0.24836">
        <time>2019-03-23T08:13:42Z</time>
      </trkpt>
      <trkpt lat="39.22347" lon="-0.24833">
        <time>2019-03-23T08:13:43Z</time>
      </trkpt>
      <trkpt lat="39.22345" lon="-0.24832">
        <time>2019-03-23T08:13:44Z</time>
      </trkpt>
      <trkpt lat="39.22343" lon="-0.24834">
        <time>2019-03-23T08:13:45Z</time>
      </trkpt>
      <trkpt lat="39.22338" lon="-0.24837">
        <time>2019-03-23T08:13:46Z</time>
      </trkpt>
      <trkpt lat="39.22333" lon="-0.24845">
        <time>2019-03-23T08:13:47Z</time>
      </trkpt>
      <trkpt lat="39.22327" lon="-0.24854">
        <time>2019-03-23T08:13:48Z</time>
      </trkpt>
      <trkpt lat="39.22319" lon="-0.24867">
        <time>2019-03-23T08:13:49Z</time>
      </trkpt>
      <trkpt lat="39.2231" lon="-0.24881">
        <time>2019-03-23T08:13:50Z</time>
      </trkpt>
      <trkpt lat="39.22301" lon="-0.24897">
        <time>2019-03-23T08:13:51Z</time>
      </trkpt>
      <trkpt lat="39.22292" lon="-0.24913">
        <time>2019-03-23T08:13:52Z</time>
      </trkpt>
      <trkpt lat="39.22282" lon="-0.24933">
        <time>2019-03-23T08:13:53Z</time>
      </trkpt>
      <trkpt lat="39.22273" lon="-0.24954">
        <time>2019-03-23T08:13:54Z</time>
      </trkpt>
      <trkpt lat="39.22264" lon="-0.24975">
        <time>2019-03-23T08:13:55Z</time>
      </trkpt>
      <trkpt lat="39.22255" lon="-0.24995">
        <time>2019-03-23T08:13:56Z</time>
      </trkpt>
      <trkpt lat="39.22247" lon="-0.25014">
        <time>2019-03-23T08:13:57Z</time>
      </trkpt>
      <trkpt lat="39.22239" lon="-0.25032">
        <time>2019-03-23T08:13:58Z</time>
      </trkpt>
      <trkpt lat="39.22232" lon="-0.25049">
        <time>2019-03-23T08:13:59Z</time>
      </trkpt>
      <trkpt lat="39.22225" lon="-0.25065">
        <time>2019-03-23T08:14:00Z</time>
      </trkpt>
      <trkpt lat="39.22218" lon="-0.2508">
        <time>2019-03-23T08:14:01Z</time>
      </trkpt>
      <trkpt lat="39.22211" lon="-0.25097">
        <time>2019-03-23T08:14:02Z</time>
      </trkpt>
      <trkpt lat="39.22203" lon="-0.25115">
        <time>2019-03-23T08:14:03Z</time>
      </trkpt>
      <trkpt lat="39.22194" lon="-0.25134">
        <time>2019-03-23T08:14:04Z</time>
      </trkpt>
      <trkpt lat="39.22185" lon="-0.25155">
        <time>2019-03-23T08:14:05Z</time>
      </trkpt>
      <trkpt lat="39.22176" lon="-0.25176">
        <time>2019-03-23T08:14:06Z</time>
      </trkpt>
      <trkpt lat="39.22167" lon="-0.25199">
        <time>2019-03-23T08:14:07Z</time>
      </trkpt>
      <trkpt lat="39.22156" lon="-0.25222">
        <time>2019-03-23T08:14:08Z</time>
      </trkpt>
      <trkpt lat="39.22147" lon="-0.25244">
        <time>2019-03-23T08:14:09Z</time>
      </trkpt>
      <trkpt lat="39.22139" lon="-0.25264">
        <time>2019-03-23T08:14:10Z</time>
      </trkpt>
      <trkpt lat="39.22131" lon="-0.25284">
        <time>2019-03-23T08:14:11Z</time>
      </trkpt>
      <trkpt lat="39.22124" lon="-0.25302">
        <time>2019-03-23T08:14:12Z</time>
      </trkpt>
      <trkpt lat="39.22117" lon="-0.25319">
        <time>2019-03-23T08:14:13Z</time>
      </trkpt>
      <trkpt lat="39.2211" lon="-0.25336">
        <time>2019-03-23T08:14:14Z</time>
      </trkpt>
      <trkpt lat="39.22102" lon="-0.25353">
        <time>2019-03-23T08:14:15Z</time>
      </trkpt>
      <trkpt lat="39.22095" lon="-0.25369">
        <time>2019-03-23T08:14:16Z</time>
      </trkpt>
      <trkpt lat="39.22089" lon="-0.25384">
        <time>2019-03-23T08:14:17Z</time>
      </trkpt>
      <trkpt lat="39.22083" lon="-0.25397">
        <time>2019-03-23T08:14:18Z</time>
      </trkpt>
      <trkpt lat="39.22078" lon="-0.25409">
        <time>2019-03-23T08:14:19Z</time>
      </trkpt>
      <trkpt lat="39.22073" lon="-0.25421">
        <time>2019-03-23T08:14:20Z</time>
      </trkpt>
      <trkpt lat="39.22067" lon="-0.25434">
        <time>2019-03-23T08:14:21Z</time>
      </trkpt>
      <trkpt lat="39.22062" lon="-0.25447">
        <time>2019-03-23T08:14:22Z</time>
      </trkpt>
      <trkpt lat="39.22055" lon="-0.25461">
        <time>2019-03-23T08:14:23Z</time>
      </trkpt>
      <trkpt lat="39.2205" lon="-0.25475">
        <time>2019-03-23T08:14:24Z</time>
      </trkpt>
      <trkpt lat="39.22044" lon="-0.25487">
        <time>2019-03-23T08:14:25Z</time>
      </trkpt>
      <trkpt lat="39.2204" lon="-0.25497">
        <time>2019-03-23T08:14:26Z</time>
      </trkpt>
      <trkpt lat="39.22036" lon="-0.25504">
        <time>2019-03-23T08:14:27Z</time>
      </trkpt>
      <trkpt lat="39.22034" lon="-0.25508">
        <time>2019-03-23T08:14:28Z</time>
      </trkpt>
      <trkpt lat="39.22034" lon="-0.2551">
        <time>2019-03-23T08:14:29Z</time>
      </trkpt>
      <trkpt lat="39.22033" lon="-0.25513">
        <time>2019-03-23T08:14:32Z</time>
      </trkpt>
      <trkpt lat="39.22029" lon="-0.25514">
        <time>2019-03-23T08:14:33Z</time>
      </trkpt>
      <trkpt lat="39.22024" lon="-0.25511">
        <time>2019-03-23T08:14:34Z</time>
      </trkpt>
      <trkpt lat="39.22019" lon="-0.25506">
        <time>2019-03-23T08:14:35Z</time>
      </trkpt>
      <trkpt lat="39.22013" lon="-0.25502">
        <time>2019-03-23T08:14:36Z</time>
      </trkpt>
      <trkpt lat="39.22008" lon="-0.255">
        <time>2019-03-23T08:14:37Z</time>
      </trkpt>
      <trkpt lat="39.22004" lon="-0.25503">
        <time>2019-03-23T08:14:38Z</time>
      </trkpt>
      <trkpt lat="39.22" lon="-0.2551">
        <time>2019-03-23T08:14:39Z</time>
      </trkpt>
      <trkpt lat="39.21998" lon="-0.25519">
        <time>2019-03-23T08:14:40Z</time>
      </trkpt>
      <trkpt lat="39.21993" lon="-0.25531">
        <time>2019-03-23T08:14:41Z</time>
      </trkpt>
      <trkpt lat="39.21986" lon="-0.25543">
        <time>2019-03-23T08:14:42Z</time>
      </trkpt>
      <trkpt lat="39.21979" lon="-0.25558">
        <time>2019-03-23T08:14:43Z</time>
      </trkpt>
      <trkpt lat="39.2197" lon="-0.25574">
        <time>2019-03-23T08:14:44Z</time>
      </trkpt>
      <trkpt lat="39.2196" lon="-0.2559">
        <time>2019-03-23T08:14:45Z</time>
      </trkpt>
      <trkpt lat="39.2195" lon="-0.25607">
        <time>2019-03-23T08:14:46Z</time>
      </trkpt>
      <trkpt lat="39.2194" lon="-0.25626">
        <time>2019-03-23T08:14:47Z</time>
      </trkpt>
      <trkpt lat="39.2193" lon="-0.25645">
        <time>2019-03-23T08:14:48Z</time>
      </trkpt>
      <trkpt lat="39.2192" lon="-0.25664">
        <time>2019-03-23T08:14:49Z</time>
      </trkpt>
      <trkpt lat="39.21911" lon="-0.25683">
        <time>2019-03-23T08:14:50Z</time>
      </trkpt>
      <trkpt lat="39.21901" lon="-0.25702">
        <time>2019-03-23T08:14:51Z</time>
      </trkpt>
      <trkpt lat="39.21892" lon="-0.2572">
        <time>2019-03-23T08:14:52Z</time>
      </trkpt>
      <trkpt lat="39.21883" lon="-0.25737">
        <time>2019-03-23T08:14:53Z</time>
      </trkpt>
      <trkpt lat="39.21875" lon="-0.25753">
        <time>2019-03-23T08:14:54Z</time>
      </trkpt>
      <trkpt lat="39.21867" lon="-0.25767">
        <time>2019-03-23T08:14:55Z</time>
      </trkpt>
      <trkpt lat="39.2186" lon="-0.25781">
        <time>2019-03-23T08:14:56Z</time>
      </trkpt>
      <trkpt lat="39.21854" lon="-0.25792">
        <time>2019-03-23T08:14:57Z</time>
      </trkpt>
      <trkpt lat="39.2185" lon="-0.25801">
        <time>2019-03-23T08:14:58Z</time>
      </trkpt>
      <trkpt lat="39.21845" lon="-0.25808">
        <time>2019-03-23T08:14:59Z</time>
      </trkpt>
      <trkpt lat="39.21841" lon="-0.25812">
        <time>2019-03-23T08:15:00Z</time>
      </trkpt>
      <trkpt lat="39.21836" lon="-0.25814">
        <time>2019-03-23T08:15:01Z</time>
      </trkpt>
      <trkpt lat="39.2183" lon="-0.25812">
        <time>2019-03-23T08:15:02Z</time>
      </trkpt>
      <trkpt lat="39.21824" lon="-0.25808">
        <time>2019-03-23T08:15:03Z</time>
      </trkpt>
      <trkpt lat="39.21815" lon="-0.25805">
        <time>2019-03-23T08:15:04Z</time>
      </trkpt>
      <trkpt lat="39.21803" lon="-0.25801">
        <time>2019-03-23T08:15:05Z</time>
      </trkpt>
      <trkpt lat="39.2179" lon="-0.25796">
        <time>2019-03-23T08:15:06Z</time>
      </trkpt>
      <trkpt lat="39.21775" lon="-0.25791">
        <time>2019-03-23T08:15:07Z</time>
      </trkpt>
      <trkpt lat="39.21758" lon="-0.25786">
        <time>2019-03-23T08:15:08Z</time>
      </trkpt>
      <trkpt lat="39.21739" lon="-0.2578">
        <time>2019-03-23T08:15:09Z</time>
      </trkpt>
      <trkpt lat="39.21719" lon="-0.25772">
        <time>2019-03-23T08:15:10Z</time>
      </trkpt>
      <trkpt lat="39.21697" lon="-0.25765">
        <time>2019-03-23T08:15:11Z</time>
      </trkpt>
      <trkpt lat="39.21675" lon="-0.25757">
        <time>2019-03-23T08:15:12Z</time>
      </trkpt>
      <trkpt lat="39.21652" lon="-0.25749">
        <time>2019-03-23T08:15:13Z</time>
      </trkpt>
      <trkpt lat="39.21628" lon="-0.25741">
        <time>2019-03-23T08:15:14Z</time>
      </trkpt>
      <trkpt lat="39.21605" lon="-0.25733">
        <time>2019-03-23T08:15:15Z</time>
      </trkpt>
      <trkpt lat="39.21582" lon="-0.25726">
        <time>2019-03-23T08:15:16Z</time>
      </trkpt>
      <trkpt lat="39.21559" lon="-0.25718">
        <time>2019-03-23T08:15:17Z</time>
      </trkpt>
      <trkpt lat="39.21536" lon="-0.2571">
        <time>2019-03-23T08:15:18Z</time>
      </trkpt>
      <trkpt lat="39.21514" lon="-0.25703">
        <time>2019-03-23T08:15:19Z</time>
      </trkpt>
      <trkpt lat="39.21493" lon="-0.25695">
        <time>2019-03-23T08:15:20Z</time>
      </trkpt>
      <trkpt lat="39.21472" lon="-0.25688">
        <time>2019-03-23T08:15:21Z</time>
      </trkpt>
      <trkpt lat="39.21448" lon="-0.2568">
        <time>2019-03-23T08:15:22Z</time>
      </trkpt>
      <trkpt lat="39.21425" lon="-0.25672">
        <time>2019-03-23T08:15:23Z</time>
      </trkpt>
      <trkpt lat="39.21403" lon="-0.25664">
        <time>2019-03-23T08:15:24Z</time>
      </trkpt>
      <trkpt lat="39.2138" lon="-0.25655">
        <time>2019-03-23T08:15:25Z</time>
      </trkpt>
      <trkpt lat="39.21356" lon="-0.25644">
        <time>2019-03-23T08:15:26Z</time>
      </trkpt>
      <trkpt lat="39.21331" lon="-0.25633">
        <time>2019-03-23T08:15:27Z</time>
      </trkpt>
      <trkpt lat="39.21308" lon="-0.25621">
        <time>2019-03-23T08:15:28Z</time>
      </trkpt>
      <trkpt lat="39.21286" lon="-0.25611">
        <time>2019-03-23T08:15:29Z</time>
      </trkpt>
      <trkpt lat="39.21266" lon="-0.25601">
        <time>2019-03-23T08:15:30Z</time>
      </trkpt>
      <trkpt lat="39.21249" lon="-0.25593">
        <time>2019-03-23T08:15:31Z</time>
      </trkpt>
      <trkpt lat="39.21234" lon="-0.25585">
        <time>2019-03-23T08:15:32Z</time>
      </trkpt>
      <trkpt lat="39.21222" lon="-0.25579">
        <time>2019-03-23T08:15:33Z</time>
      </trkpt>
      <trkpt lat="39.21211" lon="-0.25574">
        <time>2019-03-23T08:15:34Z</time>
      </trkpt>
      <trkpt lat="39.21201" lon="-0.25574">
        <time>2019-03-23T08:15:35Z</time>
      </trkpt>
      <trkpt lat="39.21192" lon="-0.25579">
        <time>2019-03-23T08:15:36Z</time>
      </trkpt>
      <trkpt lat="39.21184" lon="-0.25589">
        <time>2019-03-23T08:15:37Z</time>
      </trkpt>
      <trkpt lat="39.21176" lon="-0.25604">
        <time>2019-03-23T08:15:38Z</time>
      </trkpt>
      <trkpt lat="39.21167" lon="-0.2562">
        <time>2019-03-23T08:15:39Z</time>
      </trkpt>
      <trkpt lat="39.21156" lon="-0.25638">
        <time>2019-03-23T08:15:40Z</time>
      </trkpt>
      <trkpt lat="39.21143" lon="-0.25657">
        <time>2019-03-23T08:15:41Z</time>
      </trkpt>
      <trkpt lat="39.2113" lon="-0.25677">
        <time>2019-03-23T08:15:42Z</time>
      </trkpt>
      <trkpt lat="39.21116" lon="-0.25696">
        <time>2019-03-23T08:15:43Z</time>
      </trkpt>
      <trkpt lat="39.21103" lon="-0.25712">
        <time>2019-03-23T08:15:44Z</time>
      </trkpt>
      <trkpt lat="39.21089" lon="-0.25725">
        <time>2019-03-23T08:15:45Z</time>
      </trkpt>
      <trkpt lat="39.21072" lon="-0.25735">
        <time>2019-03-23T08:15:46Z</time>
      </trkpt>
      <trkpt lat="39.21052" lon="-0.25745">
        <time>2019-03-23T08:15:47Z</time>
      </trkpt>
      <trkpt lat="39.21033" lon="-0.25756">
        <time>2019-03-23T08:15:48Z</time>
      </trkpt>
      <trkpt lat="39.21013" lon="-0.2577">
        <time>2019-03-23T08:15:49Z</time>
      </trkpt>
      <trkpt lat="39.20994" lon="-0.25783">
        <time>2019-03-23T08:15:50Z</time>
      </trkpt>
      <trkpt lat="39.20977" lon="-0.25794">
        <time>2019-03-23T08:15:51Z</time>
      </trkpt>
      <trkpt lat="39.20962" lon="-0.25804">
        <time>2019-03-23T08:15:52Z</time>
      </trkpt>
      <trkpt lat="39.2095" lon="-0.25812">
        <time>2019-03-23T08:15:53Z</time>
      </trkpt>
      <trkpt lat="39.20941" lon="-0.25818">
        <time>2019-03-23T08:15:54Z</time>
      </trkpt>
      <trkpt lat="39.20934" lon="-0.2582">
        <time>2019-03-23T08:15:55Z</time>
      </trkpt>
      <trkpt lat="39.2093" lon="-0.25821">
        <time>2019-03-23T08:15:56Z</time>
      </trkpt>
      <trkpt lat="39.20927" lon="-0.25818">
        <time>2019-03-23T08:15:57Z</time>
      </trkpt>
      <trkpt lat="39.20924" lon="-0.25812">
        <time>2019-03-23T08:15:58Z</time>
      </trkpt>
      <trkpt lat="39.20922" lon="-0.25801">
        <time>2019-03-23T08:15:59Z</time>
      </trkpt>
      <trkpt lat="39.20919" lon="-0.25786">
        <time>2019-03-23T08:16:00Z</time>
      </trkpt>
      <trkpt lat="39.20914" lon="-0.25769">
        <time>2019-03-23T08:16:01Z</time>
      </trkpt>
      <trkpt lat="39.20909" lon="-0.25749">
        <time>2019-03-23T08:16:02Z</time>
      </trkpt>
      <trkpt lat="39.20905" lon="-0.25726">
        <time>2019-03-23T08:16:03Z</time>
      </trkpt>
      <trkpt lat="39.20899" lon="-0.25702">
        <time>2019-03-23T08:16:04Z</time>
      </trkpt>
      <trkpt lat="39.20894" lon="-0.25676">
        <time>2019-03-23T08:16:05Z</time>
      </trkpt>
      <trkpt lat="39.20888" lon="-0.25649">
        <time>2019-03-23T08:16:06Z</time>
      </trkpt>
      <trkpt lat="39.20881" lon="-0.25621">
        <time>2019-03-23T08:16:07Z</time>
      </trkpt>
      <trkpt lat="39.20875" lon="-0.25591">
        <time>2019-03-23T08:16:08Z</time>
      </trkpt>
      <trkpt lat="39.20869" lon="-0.25563">
        <time>2019-03-23T08:16:09Z</time>
      </trkpt>
      <trkpt lat="39.20863" lon="-0.25536">
        <time>2019-03-23T08:16:10Z</time>
      </trkpt>
      <trkpt lat="39.20859" lon="-0.2551">
        <time>2019-03-23T08:16:11Z</time>
      </trkpt>
      <trkpt lat="39.20854" lon="-0.25486">
        <time>2019-03-23T08:16:12Z</time>
      </trkpt>
      <trkpt lat="39.2085" lon="-0.25465">
        <time>2019-03-23T08:16:13Z</time>
      </trkpt>
      <trkpt lat="39.20846" lon="-0.25445">
        <time>2019-03-23T08:16:14Z</time>
      </trkpt>
      <trkpt lat="39.20842" lon="-0.25429">
        <time>2019-03-23T08:16:15Z</time>
      </trkpt>
      <trkpt lat="39.20839" lon="-0.25416">
        <time>2019-03-23T08:16:16Z</time>
      </trkpt>
      <trkpt lat="39.20836" lon="-0.25405">
        <time>2019-03-23T08:16:17Z</time>
      </trkpt>
      <trkpt lat="39.20834" lon="-0.25398">
        <time>2019-03-23T08:16:18Z</time>
      </trkpt>
      <trkpt lat="39.20833" lon="-0.25395">
        <time>2019-03-23T08:16:19Z</time>
      </trkpt>
      <trkpt lat="39.20832" lon="-0.25392">
        <time>2019-03-23T08:16:20Z</time>
      </trkpt>
      <trkpt lat="39.2083" lon="-0.25389">
        <time>2019-03-23T08:16:21Z</time>
      </trkpt>
      <trkpt lat="39.20827" lon="-0.25381">
        <time>2019-03-23T08:16:22Z</time>
      </trkpt>
      <trkpt lat="39.20822" lon="-0.2537">
        <time>2019-03-23T08:16:23Z</time>
      </trkpt>
      <trkpt lat="39.20817" lon="-0.25356">
        <time>2019-03-23T08:16:24Z</time>
      </trkpt>
      <trkpt lat="39.20812" lon="-0.2534">
        <time>2019-03-23T08:16:25Z</time>
      </trkpt>
      <trkpt lat="39.20805" lon="-0.25322">
        <time>2019-03-23T08:16:26Z</time>
      </trkpt>
      <trkpt lat="39.20797" lon="-0.25302">
        <time>2019-03-23T08:16:27Z</time>
      </trkpt>
      <trkpt lat="39.20789" lon="-0.25281">
        <time>2019-03-23T08:16:28Z</time>
      </trkpt>
      <trkpt lat="39.2078" lon="-0.25258">
        <time>2019-03-23T08:16:29Z</time>
      </trkpt>
      <trkpt lat="39.2077" lon="-0.25233">
        <time>2019-03-23T08:16:30Z</time>
      </trkpt>
      <trkpt lat="39.2076" lon="-0.25207">
        <time>2019-03-23T08:16:31Z</time>
      </trkpt>
      <trkpt lat="39.2075" lon="-0.2518">
        <time>2019-03-23T08:16:32Z</time>
      </trkpt>
      <trkpt lat="39.20739" lon="-0.25151">
        <time>2019-03-23T08:16:33Z</time>
      </trkpt>
      <trkpt lat="39.20727" lon="-0.25121">
        <time>2019-03-23T08:16:34Z</time>
      </trkpt>
      <trkpt lat="39.20716" lon="-0.25091">
        <time>2019-03-23T08:16:35Z</time>
      </trkpt>
      <trkpt lat="39.20704" lon="-0.2506">
        <time>2019-03-23T08:16:36Z</time>
      </trkpt>
      <trkpt lat="39.20692" lon="-0.25029">
        <time>2019-03-23T08:16:37Z</time>
      </trkpt>
      <trkpt lat="39.20679" lon="-0.24996">
        <time>2019-03-23T08:16:38Z</time>
      </trkpt>
      <trkpt lat="39.20666" lon="-0.24963">
        <time>2019-03-23T08:16:39Z</time>
      </trkpt>
      <trkpt lat="39.20654" lon="-0.24931">
        <time>2019-03-23T08:16:40Z</time>
      </trkpt>
      <trkpt lat="39.20641" lon="-0.249">
        <time>2019-03-23T08:16:41Z</time>
      </trkpt>
      <trkpt lat="39.20629" lon="-0.24868">
        <time>2019-03-23T08:16:42Z</time>
      </trkpt>
      <trkpt lat="39.20617" lon="-0.24837">
        <time>2019-03-23T08:16:43Z</time>
      </trkpt>
      <trkpt lat="39.20605" lon="-0.24806">
        <time>2019-03-23T08:16:44Z</time>
      </trkpt>
      <trkpt lat="39.20593" lon="-0.24776">
        <time>2019-03-23T08:16:45Z</time>
      </trkpt>
      <trkpt lat="39.20582" lon="-0.24747">
        <time>2019-03-23T08:16:46Z</time>
      </trkpt>
      <trkpt lat="39.20572" lon="-0.2472">
        <time>2019-03-23T08:16:47Z</time>
      </trkpt>
      <trkpt lat="39.20562" lon="-0.24695">
        <time>2019-03-23T08:16:48Z</time>
      </trkpt>
      <trkpt lat="39.20553" lon="-0.24671">
        <time>2019-03-23T08:16:49Z</time>
      </trkpt>
      <trkpt lat="39.20544" lon="-0.24649">
        <time>2019-03-23T08:16:50Z</time>
      </trkpt>
      <trkpt lat="39.20536" lon="-0.24627">
        <time>2019-03-23T08:16:51Z</time>
      </trkpt>
      <trkpt lat="39.20527" lon="-0.24604">
        <time>2019-03-23T08:16:52Z</time>
      </trkpt>
      <trkpt lat="39.20518" lon="-0.24581">
        <time>2019-03-23T08:16:53Z</time>
      </trkpt>
      <trkpt lat="39.2051" lon="-0.24558">
        <time>2019-03-23T08:16:54Z</time>
      </trkpt>
      <trkpt lat="39.20502" lon="-0.24539">
        <time>2019-03-23T08:16:55Z</time>
      </trkpt>
      <trkpt lat="39.20494" lon="-0.24522">
        <time>2019-03-23T08:16:56Z</time>
      </trkpt>
      <trkpt lat="39.20484" lon="-0.2451">
        <time>2019-03-23T08:16:57Z</time>
      </trkpt>
      <trkpt lat="39.20472" lon="-0.245">
        <time>2019-03-23T08:16:58Z</time>
      </trkpt>
      <trkpt lat="39.20458" lon="-0.24492">
        <time>2019-03-23T08:16:59Z</time>
      </trkpt>
      <trkpt lat="39.20444" lon="-0.24482">
        <time>2019-03-23T08:17:00Z</time>
      </trkpt>
      <trkpt lat="39.20427" lon="-0.24471">
        <time>2019-03-23T08:17:01Z</time>
      </trkpt>
      <trkpt lat="39.20409" lon="-0.2446">
        <time>2019-03-23T08:17:02Z</time>
      </trkpt>
      <trkpt lat="39.20391" lon="-0.24449">
        <time>2019-03-23T08:17:03Z</time>
      </trkpt>
      <trkpt lat="39.2037" lon="-0.24436">
        <time>2019-03-23T08:17:04Z</time>
      </trkpt>
      <trkpt lat="39.20349" lon="-0.24422">
        <time>2019-03-23T08:17:05Z</time>
      </trkpt>
      <trkpt lat="39.20326" lon="-0.24408">
        <time>2019-03-23T08:17:06Z</time>
      </trkpt>
      <trkpt lat="39.20303" lon="-0.24393">
        <time>2019-03-23T08:17:07Z</time>
      </trkpt>
      <trkpt lat="39.20279" lon="-0.24378">
        <time>2019-03-23T08:17:08Z</time>
      </trkpt>
      <trkpt lat="39.20255" lon="-0.24363">
        <time>2019-03-23T08:17:09Z</time>
      </trkpt>
      <trkpt lat="39.20231" lon="-0.24349">
        <time>2019-03-23T08:17:10Z</time>
      </trkpt>
      <trkpt lat="39.20208" lon="-0.24334">
        <time>2019-03-23T08:17:11Z</time>
      </trkpt>
      <trkpt lat="39.20185" lon="-0.24319">
        <time>2019-03-23T08:17:12Z</time>
      </trkpt>
      <trkpt lat="39.20162" lon="-0.24304">
        <time>2019-03-23T08:17:13Z</time>
      </trkpt>
      <trkpt lat="39.20139" lon="-0.24291">
        <time>2019-03-23T08:17:14Z</time>
      </trkpt>
      <trkpt lat="39.20118" lon="-0.24278">
        <time>2019-03-23T08:17:15Z</time>
      </trkpt>
      <trkpt lat="39.20098" lon="-0.24265">
        <time>2019-03-23T08:17:16Z</time>
      </trkpt>
      <trkpt lat="39.2008" lon="-0.24253">
        <time>2019-03-23T08:17:17Z</time>
      </trkpt>
      <trkpt lat="39.20063" lon="-0.24242">
        <time>2019-03-23T08:17:18Z</time>
      </trkpt>
      <trkpt lat="39.20047" lon="-0.24233">
        <time>2019-03-23T08:17:19Z</time>
      </trkpt>
      <trkpt lat="39.20034" lon="-0.24223">
        <time>2019-03-23T08:17:20Z</time>
      </trkpt>
      <trkpt lat="39.20023" lon="-0.24214">
        <time>2019-03-23T08:17:21Z</time>
      </trkpt>
      <trkpt lat="39.20014" lon="-0.24202">
        <time>2019-03-23T08:17:22Z</time>
      </trkpt>
      <trkpt lat="39.20006" lon="-0.2419">
        <time>2019-03-23T08:17:23Z</time>
      </trkpt>
      <trkpt lat="39.2" lon="-0.2417">
        <time>2019-03-23T08:17:24Z</time>
      </trkpt>
      <trkpt lat="39.19995" lon="-0.24149">
        <time>2019-03-23T08:17:25Z</time>
      </trkpt>
      <trkpt lat="39.1999" lon="-0.24128">
        <time>2019-03-23T08:17:26Z</time>
      </trkpt>
      <trkpt lat="39.19985" lon="-0.24107">
        <time>2019-03-23T08:17:27Z</time>
      </trkpt>
      <trkpt lat="39.19981" lon="-0.24089">
        <time>2019-03-23T08:17:28Z</time>
      </trkpt>
      <trkpt lat="39.19978" lon="-0.24073">
        <time>2019-03-23T08:17:29Z</time>
      </trkpt>
      <trkpt lat="39.19973" lon="-0.2406">
        <time>2019-03-23T08:17:30Z</time>
      </trkpt>
      <trkpt lat="39.19967" lon="-0.24052">
        <time>2019-03-23T08:17:31Z</time>
      </trkpt>
      <trkpt lat="39.19962" lon="-0.24046">
        <time>2019-03-23T08:17:32Z</time>
      </trkpt>
      <trkpt lat="39.19959" lon="-0.24042">
        <time>2019-03-23T08:17:33Z</time>
      </trkpt>
      <trkpt lat="39.19958" lon="-0.2404">
        <time>2019-03-23T08:17:34Z</time>
      </trkpt>
      <trkpt lat="39.19957" lon="-0.24039">
        <time>2019-03-23T08:17:35Z</time>
      </trkpt>
      <trkpt lat="39.19957" lon="-0.24038">
        <time>2019-03-23T08:17:38Z</time>
      </trkpt>
      <trkpt lat="39.19954" lon="-0.24035">
        <time>2019-03-23T08:17:39Z</time>
      </trkpt>
      <trkpt lat="39.19947" lon="-0.24037">
        <time>2019-03-23T08:17:40Z</time>
      </trkpt>
      <trkpt lat="39.19941" lon="-0.24039">
        <time>2019-03-23T08:17:41Z</time>
      </trkpt>
      <trkpt lat="39.19936" lon="-0.24038">
        <time>2019-03-23T08:17:42Z</time>
      </trkpt>
      <trkpt lat="39.19934" lon="-0.24034">
        <time>2019-03-23T08:17:43Z</time>
      </trkpt>
      <trkpt lat="39.19935" lon="-0.2403">
        <time>2019-03-23T08:17:44Z</time>
      </trkpt>
      <trkpt lat="39.19937" lon="-0.24028">
        <time>2019-03-23T08:17:45Z</time>
      </trkpt>
      <trkpt lat="39.19941" lon="-0.24028">
        <time>2019-03-23T08:17:46Z</time>
      </trkpt>
      <trkpt lat="39.19944" lon="-0.2403">
        <time>2019-03-23T08:17:47Z</time>
      </trkpt>
      <trkpt lat="39.19949" lon="-0.24032">
        <time>2019-03-23T08:17:48Z</time>
      </trkpt>
      <trkpt lat="39.19958" lon="-0.24031">
        <time>2019-03-23T08:17:49Z</time>
      </trkpt>
      <trkpt lat="39.19969" lon="-0.24028">
        <time>2019-03-23T08:17:50Z</time>
      </trkpt>
      <trkpt lat="39.19983" lon="-0.24025">
        <time>2019-03-23T08:17:51Z</time>
      </trkpt>
      <trkpt lat="39.19995" lon="-0.24023">
        <time>2019-03-23T08:17:52Z</time>
      </trkpt>
      <trkpt lat="39.20007" lon="-0.24022">
        <time>2019-03-23T08:17:53Z</time>
      </trkpt>
      <trkpt lat="39.20016" lon="-0.24021">
        <time>2019-03-23T08:17:54Z</time>
      </trkpt>
      <trkpt lat="39.20025" lon="-0.24016">
        <time>2019-03-23T08:17:55Z</time>
      </trkpt>
      <trkpt lat="39.20032" lon="-0.24007">
        <time>2019-03-23T08:17:56Z</time>
      </trkpt>
      <trkpt lat="39.20036" lon="-0.23993">
        <time>2019-03-23T08:17:57Z</time>
      </trkpt>
      <trkpt lat="39.20039" lon="-0.23975">
        <time>2019-03-23T08:17:58Z</time>
      </trkpt>
      <trkpt lat="39.20043" lon="-0.23954">
        <time>2019-03-23T08:17:59Z</time>
      </trkpt>
      <trkpt lat="39.20048" lon="-0.23933">
        <time>2019-03-23T08:18:00Z</time>
      </trkpt>
      <trkpt lat="39.20054" lon="-0.2391">
        <time>2019-03-23T08:18:01Z</time>
      </trkpt>
      <trkpt lat="39.20059" lon="-0.23884">
        <time>2019-03-23T08:18:02Z</time>
      </trkpt>
      <trkpt lat="39.20061" lon="-0.23856">
        <time>2019-03-23T08:18:03Z</time>
      </trkpt>
      <trkpt lat="39.20062" lon="-0.23827">
        <time>2019-03-23T08:18:04Z</time>
      </trkpt>
      <trkpt lat="39.20061" lon="-0.23796">
        <time>2019-03-23T08:18:05Z</time>
      </trkpt>
      <trkpt lat="39.2006" lon="-0.23765">
        <time>2019-03-23T08:18:06Z</time>
      </trkpt>
      <trkpt lat="39.20057" lon="-0.23733">
        <time>2019-03-23T08:18:07Z</time>
      </trkpt>
      <trkpt lat="39.2005" lon="-0.23702">
        <time>2019-03-23T08:18:08Z</time>
      </trkpt>
      <trkpt lat="39.20039" lon="-0.23673">
        <time>2019-03-23T08:18:09Z</time>
      </trkpt>
      <trkpt lat="39.20024" lon="-0.23647">
        <time>2019-03-23T08:18:10Z</time>
      </trkpt>
      <trkpt lat="39.20005" lon="-0.23625">
        <time>2019-03-23T08:18:11Z</time>
      </trkpt>
      <trkpt lat="39.19983" lon="-0.23606">
        <time>2019-03-23T08:18:12Z</time>
      </trkpt>
      <trkpt lat="39.19958" lon="-0.23589">
        <time>2019-03-23T08:18:13Z</time>
      </trkpt>
      <trkpt lat="39.19934" lon="-0.23572">
        <time>2019-03-23T08:18:14Z</time>
      </trkpt>
      <trkpt lat="39.1991" lon="-0.23554">
        <time>2019-03-23T08:18:15Z</time>
      </trkpt>
      <trkpt lat="39.19885" lon="-0.23535">
        <time>2019-03-23T08:18:16Z</time>
      </trkpt>
      <trkpt lat="39.1986" lon="-0.23516">
        <time>2019-03-23T08:18:17Z</time>
      </trkpt>
      <trkpt lat="39.19835" lon="-0.23498">
        <time>2019-03-23T08:18:18Z</time>
      </trkpt>
      <trkpt lat="39.1981" lon="-0.23479">
        <time>2019-03-23T08:18:19Z</time>
      </trkpt>
      <trkpt lat="39.19785" lon="-0.23461">
        <time>2019-03-23T08:18:20Z</time>
      </trkpt>
      <trkpt lat="39.1976" lon="-0.23442">
        <time>2019-03-23T08:18:21Z</time>
      </trkpt>
      <trkpt lat="39.19735" lon="-0.23423">
        <time>2019-03-23T08:18:22Z</time>
      </trkpt>
      <trkpt lat="39.19711" lon="-0.23406">
        <time>2019-03-23T08:18:23Z</time>
      </trkpt>
      <trkpt lat="39.19688" lon="-0.2339">
        <time>2019-03-23T08:18:24Z</time>
      </trkpt>
      <trkpt lat="39.19664" lon="-0.2338">
        <time>2019-03-23T08:18:25Z</time>
      </trkpt>
      <trkpt lat="39.1964" lon="-0.23376">
        <time>2019-03-23T08:18:26Z</time>
      </trkpt>
      <trkpt lat="39.19615" lon="-0.23378">
        <time>2019-03-23T08:18:27Z</time>
      </trkpt>
      <trkpt lat="39.19591" lon="-0.23386">
        <time>2019-03-23T08:18:28Z</time>
      </trkpt>
      <trkpt lat="39.19567" lon="-0.23396">
        <time>2019-03-23T08:18:29Z</time>
      </trkpt>
      <trkpt lat="39.19541" lon="-0.23406">
        <time>2019-03-23T08:18:30Z</time>
      </trkpt>
      <trkpt lat="39.19515" lon="-0.23414">
        <time>2019-03-23T08:18:31Z</time>
      </trkpt>
      <trkpt lat="39.19488" lon="-0.23423">
        <time>2019-03-23T08:18:32Z</time>
      </trkpt>
      <trkpt lat="39.19462" lon="-0.23433">
        <time>2019-03-23T08:18:33Z</time>
      </trkpt>
      <trkpt lat="39.19438" lon="-0.23444">
        <time>2019-03-23T08:18:34Z</time>
      </trkpt>
      <trkpt lat="39.19415" lon="-0.23454">
        <time>2019-03-23T08:18:35Z</time>
      </trkpt>
      <trkpt lat="39.19392" lon="-0.23461">
        <time>2019-03-23T08:18:36Z</time>
      </trkpt>
      <trkpt lat="39.19371" lon="-0.23466">
        <time>2019-03-23T08:18:37Z</time>
      </trkpt>
      <trkpt lat="39.19351" lon="-0.23468">
        <time>2019-03-23T08:18:38Z</time>
      </trkpt>
      <trkpt lat="39.19331" lon="-0.23465">
        <time>2019-03-23T08:18:39Z</time>
      </trkpt>
      <trkpt lat="39.19311" lon="-0.23459">
        <time>2019-03-23T08:18:40Z</time>
      </trkpt>
      <trkpt lat="39.19291" lon="-0.23451">
        <time>2019-03-23T08:18:41Z</time>
      </trkpt>
      <trkpt lat="39.1927" lon="-0.2344">
        <time>2019-03-23T08:18:42Z</time>
      </trkpt>
      <trkpt lat="39.19247" lon="-0.23428">
        <time>2019-03-23T08:18:43Z</time>
      </trkpt>
      <trkpt lat="39.19224" lon="-0.23415">
        <time>2019-03-23T08:18:44Z</time>
      </trkpt>
      <trkpt lat="39.192" lon="-0.23402">
        <time>2019-03-23T08:18:45Z</time>
      </trkpt>
      <trkpt lat="39.19177" lon="-0.23389">
        <time>2019-03-23T08:18:46Z</time>
      </trkpt>
      <trkpt lat="39.19154" lon="-0.23378">
        <time>2019-03-23T08:18:47Z</time>
      </trkpt>
      <trkpt lat="39.19133" lon="-0.23365">
        <time>2019-03-23T08:18:48Z</time>
      </trkpt>
      <trkpt lat="39.19116" lon="-0.23353">
        <time>2019-03-23T08:18:49Z</time>
      </trkpt>
      <trkpt lat="39.19101" lon="-0.2334">
        <time>2019-03-23T08:18:50Z</time>
      </trkpt>
      <trkpt lat="39.19086" lon="-0.23331">
        <time>2019-03-23T08:18:51Z</time>
      </trkpt>
      <trkpt lat="39.19074" lon="-0.23323">
        <time>2019-03-23T08:18:52Z</time>
      </trkpt>
      <trkpt lat="39.19065" lon="-0.23313">
        <time>2019-03-23T08:18:53Z</time>
      </trkpt>
      <trkpt lat="39.19061" lon="-0.233">
        <time>2019-03-23T08:18:54Z</time>
      </trkpt>
      <trkpt lat="39.19059" lon="-0.23284">
        <time>2019-03-23T08:18:55Z</time>
      </trkpt>
      <trkpt lat="39.19056" lon="-0.23265">
        <time>2019-03-23T08:18:56Z</time>
      </trkpt>
      <trkpt lat="39.19053" lon="-0.23243">
        <time>2019-03-23T08:18:57Z</time>
      </trkpt>
      <trkpt lat="39.1905" lon="-0.23217">
        <time>2019-03-23T08:18:58Z</time>
      </trkpt>
      <trkpt lat="39.19049" lon="-0.2319">
        <time>2019-03-23T08:18:59Z</time>
      </trkpt>
      <trkpt lat="39.19048" lon="-0.23161">
        <time>2019-03-23T08:19:00Z</time>
      </trkpt>
      <trkpt lat="39.19047" lon="-0.23129">
        <time>2019-03-23T08:19:01Z</time>
      </trkpt>
      <trkpt lat="39.19046" lon="-0.23096">
        <time>2019-03-23T08:19:02Z</time>
      </trkpt>
      <trkpt lat="39.19045" lon="-0.23063">
        <time>2019-03-23T08:19:03Z</time>
      </trkpt>
      <trkpt lat="39.19044" lon="-0.23031">
        <time>2019-03-23T08:19:04Z</time>
      </trkpt>
      <trkpt lat="39.19044" lon="-0.23">
        <time>2019-03-23T08:19:05Z</time>
      </trkpt>
      <trkpt lat="39.19045" lon="-0.22968">
        <time>2019-03-23T08:19:06Z</time>
      </trkpt>
      <trkpt lat="39.19045" lon="-0.22934">
        <time>2019-03-23T08:19:07Z</time>
      </trkpt>
      <trkpt lat="39.19044" lon="-0.22898">
        <time>2019-03-23T08:19:08Z</time>
      </trkpt>
      <trkpt lat="39.19042" lon="-0.22863">
        <time>2019-03-23T08:19:09Z</time>
      </trkpt>
      <trkpt lat="39.1904" lon="-0.22828">
        <time>2019-03-23T08:19:10Z</time>
      </trkpt>
      <trkpt lat="39.19038" lon="-0.22795">
        <time>2019-03-23T08:19:11Z</time>
      </trkpt>
      <trkpt lat="39.19035" lon="-0.22764">
        <time>2019-03-23T08:19:12Z</time>
      </trkpt>
      <trkpt lat="39.1903" lon="-0.22735">
        <time>2019-03-23T08:19:13Z</time>
      </trkpt>
      <trkpt lat="39.19025" lon="-0.22708">
        <time>2019-03-23T08:19:14Z</time>
      </trkpt>
      <trkpt lat="39.1902" lon="-0.22681">
        <time>2019-03-23T08:19:15Z</time>
      </trkpt>
      <trkpt lat="39.19014" lon="-0.22657">
        <time>2019-03-23T08:19:16Z</time>
      </trkpt>
      <trkpt lat="39.1901" lon="-0.22634">
        <time>2019-03-23T08:19:17Z</time>
      </trkpt>
      <trkpt lat="39.19006" lon="-0.22612">
        <time>2019-03-23T08:19:18Z</time>
      </trkpt>
      <trkpt lat="39.19002" lon="-0.22593">
        <time>2019-03-23T08:19:19Z</time>
      </trkpt>
      <trkpt lat="39.18998" lon="-0.22575">
        <time>2019-03-23T08:19:20Z</time>
      </trkpt>
      <trkpt lat="39.18992" lon="-0.2256">
        <time>2019-03-23T08:19:21Z</time>
      </trkpt>
      <trkpt lat="39.18983" lon="-0.22548">
        <time>2019-03-23T08:19:22Z</time>
      </trkpt>
      <trkpt lat="39.18975" lon="-0.22536">
        <time>2019-03-23T08:19:23Z</time>
      </trkpt>
      <trkpt lat="39.18968" lon="-0.22521">
        <time>2019-03-23T08:19:24Z</time>
      </trkpt>
      <trkpt lat="39.18963" lon="-0.22505">
        <time>2019-03-23T08:19:25Z</time>
      </trkpt>
      <trkpt lat="39.18955" lon="-0.22488">
        <time>2019-03-23T08:19:26Z</time>
      </trkpt>
      <trkpt lat="39.18947" lon="-0.22472">
        <time>2019-03-23T08:19:27Z</time>
      </trkpt>
      <trkpt lat="39.18939" lon="-0.22456">
        <time>2019-03-23T08:19:28Z</time>
      </trkpt>
      <trkpt lat="39.1893" lon="-0.22439">
        <time>2019-03-23T08:19:29Z</time>
      </trkpt>
      <trkpt lat="39.18922" lon="-0.22421">
        <time>2019-03-23T08:19:30Z</time>
      </trkpt>
      <trkpt lat="39.18914" lon="-0.22404">
        <time>2019-03-23T08:19:31Z</time>
      </trkpt>
      <trkpt lat="39.18905" lon="-0.22387">
        <time>2019-03-23T08:19:32Z</time>
      </trkpt>
      <trkpt lat="39.18896" lon="-0.22371">
        <time>2019-03-23T08:19:33Z</time>
      </trkpt>
      <trkpt lat="39.18888" lon="-0.22355">
        <time>2019-03-23T08:19:34Z</time>
      </trkpt>
      <trkpt lat="39.18878" lon="-0.22339">
        <time>2019-03-23T08:19:35Z</time>
      </trkpt>
      <trkpt lat="39.18868" lon="-0.22323">
        <time>2019-03-23T08:19:36Z</time>
      </trkpt>
      <trkpt lat="39.18858" lon="-0.22308">
        <time>2019-03-23T08:19:37Z</time>
      </trkpt>
      <trkpt lat="39.18849" lon="-0.22296">
        <time>2019-03-23T08:19:38Z</time>
      </trkpt>
      <trkpt lat="39.1884" lon="-0.22285">
        <time>2019-03-23T08:19:39Z</time>
      </trkpt>
      <trkpt lat="39.18831" lon="-0.22273">
        <time>2019-03-23T08:19:40Z</time>
      </trkpt>
      <trkpt lat="39.18823" lon="-0.22261">
        <time>2019-03-23T08:19:41Z</time>
      </trkpt>
      <trkpt lat="39.18816" lon="-0.22246">
        <time>2019-03-23T08:19:42Z</time>
      </trkpt>
      <trkpt lat="39.18809" lon="-0.22229">
        <time>2019-03-23T08:19:43Z</time>
      </trkpt>
      <trkpt lat="39.18801" lon="-0.22213">
        <time>2019-03-23T08:19:44Z</time>
      </trkpt>
      <trkpt lat="39.18789" lon="-0.22198">
        <time>2019-03-23T08:19:45Z</time>
      </trkpt>
      <trkpt lat="39.18773" lon="-0.22187">
        <time>2019-03-23T08:19:46Z</time>
      </trkpt>
      <trkpt lat="39.18757" lon="-0.22176">
        <time>2019-03-23T08:19:47Z</time>
      </trkpt>
      <trkpt lat="39.18742" lon="-0.22162">
        <time>2019-03-23T08:19:48Z</time>
      </trkpt>
      <trkpt lat="39.18728" lon="-0.22143">
        <time>2019-03-23T08:19:49Z</time>
      </trkpt>
      <trkpt lat="39.18716" lon="-0.22122">
        <time>2019-03-23T08:19:50Z</time>
      </trkpt>
      <trkpt lat="39.18704" lon="-0.221">
        <time>2019-03-23T08:19:51Z</time>
      </trkpt>
      <trkpt lat="39.18692" lon="-0.2208">
        <time>2019-03-23T08:19:52Z</time>
      </trkpt>
      <trkpt lat="39.18681" lon="-0.2206">
        <time>2019-03-23T08:19:53Z</time>
      </trkpt>
      <trkpt lat="39.18673" lon="-0.22038">
        <time>2019-03-23T08:19:54Z</time>
      </trkpt>
      <trkpt lat="39.18669" lon="-0.22014">
        <time>2019-03-23T08:19:55Z</time>
      </trkpt>
      <trkpt lat="39.18669" lon="-0.2199">
        <time>2019-03-23T08:19:56Z</time>
      </trkpt>
      <trkpt lat="39.18674" lon="-0.21966">
        <time>2019-03-23T08:19:57Z</time>
      </trkpt>
      <trkpt lat="39.1868" lon="-0.21943">
        <time>2019-03-23T08:19:58Z</time>
      </trkpt>
      <trkpt lat="39.18685" lon="-0.2192">
        <time>2019-03-23T08:19:59Z</time>
      </trkpt>
      <trkpt lat="39.18686" lon="-0.21896">
        <time>2019-03-23T08:20:00Z</time>
      </trkpt>
      <trkpt lat="39.18687" lon="-0.21872">
        <time>2019-03-23T08:20:01Z</time>
      </trkpt>
      <trkpt lat="39.18686" lon="-0.21851">
        <time>2019-03-23T08:20:02Z</time>
      </trkpt>
      <trkpt lat="39.18682" lon="-0.2183">
        <time>2019-03-23T08:20:03Z</time>
      </trkpt>
      <trkpt lat="39.18676" lon="-0.21811">
        <time>2019-03-23T08:20:04Z</time>
      </trkpt>
      <trkpt lat="39.18668" lon="-0.21792">
        <time>2019-03-23T08:20:05Z</time>
      </trkpt>
      <trkpt lat="39.1866" lon="-0.21774">
        <time>2019-03-23T08:20:06Z</time>
      </trkpt>
      <trkpt lat="39.18653" lon="-0.21757">
        <time>2019-03-23T08:20:07Z</time>
      </trkpt>
      <trkpt lat="39.18644" lon="-0.21745">
        <time>2019-03-23T08:20:08Z</time>
      </trkpt>
      <trkpt lat="39.18633" lon="-0.21736">
        <time>2019-03-23T08:20:09Z</time>
      </trkpt>
      <trkpt lat="39.18621" lon="-0.21732">
        <time>2019-03-23T08:20:10Z</time>
      </trkpt>
      <trkpt lat="39.18609" lon="-0.21731">
        <time>2019-03-23T08:20:11Z</time>
      </trkpt>
      <trkpt lat="39.18596" lon="-0.21735">
        <time>2019-03-23T08:20:12Z</time>
      </trkpt>
      <trkpt lat="39.18584" lon="-0.21742">
        <time>2019-03-23T08:20:13Z</time>
      </trkpt>
      <trkpt lat="39.18576" lon="-0.21752">
        <time>2019-03-23T08:20:14Z</time>
      </trkpt>
      <trkpt lat="39.18572" lon="-0.21765">
        <time>2019-03-23T08:20:15Z</time>
      </trkpt>
      <trkpt lat="39.18572" lon="-0.2178">
        <time>2019-03-23T08:20:16Z</time>
      </trkpt>
      <trkpt lat="39.18574" lon="-0.21796">
        <time>2019-03-23T08:20:17Z</time>
      </trkpt>
      <trkpt lat="39.18576" lon="-0.21814">
        <time>2019-03-23T08:20:18Z</time>
      </trkpt>
      <trkpt lat="39.18577" lon="-0.21832">
        <time>2019-03-23T08:20:19Z</time>
      </trkpt>
      <trkpt lat="39.18579" lon="-0.21849">
        <time>2019-03-23T08:20:20Z</time>
      </trkpt>
      <trkpt lat="39.1858" lon="-0.21865">
        <time>2019-03-23T08:20:21Z</time>
      </trkpt>
      <trkpt lat="39.18579" lon="-0.21879">
        <time>2019-03-23T08:20:22Z</time>
      </trkpt>
      <trkpt lat="39.18576" lon="-0.21892">
        <time>2019-03-23T08:20:23Z</time>
      </trkpt>
      <trkpt lat="39.18574" lon="-0.21903">
        <time>2019-03-23T08:20:24Z</time>
      </trkpt>
      <trkpt lat="39.18573" lon="-0.21913">
        <time>2019-03-23T08:20:25Z</time>
      </trkpt>
      <trkpt lat="39.18575" lon="-0.21919">
        <time>2019-03-23T08:20:26Z</time>
      </trkpt>
      <trkpt lat="39.1858" lon="-0.21925">
        <time>2019-03-23T08:20:27Z</time>
      </trkpt>
      <trkpt lat="39.18586" lon="-0.2193">
        <time>2019-03-23T08:20:28Z</time>
      </trkpt>
      <trkpt lat="39.18594" lon="-0.21935">
        <time>2019-03-23T08:20:29Z</time>
      </trkpt>
      <trkpt lat="39.18604" lon="-0.2194">
        <time>2019-03-23T08:20:30Z</time>
      </trkpt>
      <trkpt lat="39.18614" lon="-0.21944">
        <time>2019-03-23T08:20:31Z</time>
      </trkpt>
      <trkpt lat="39.18621" lon="-0.21948">
        <time>2019-03-23T08:20:32Z</time>
      </trkpt>
      <trkpt lat="39.18626" lon="-0.21954">
        <time>2019-03-23T08:20:33Z</time>
      </trkpt>
      <trkpt lat="39.18629" lon="-0.21963">
        <time>2019-03-23T08:20:34Z</time>
      </trkpt>
      <trkpt lat="39.18629" lon="-0.21973">
        <time>2019-03-23T08:20:35Z</time>
      </trkpt>
      <trkpt lat="39.1863" lon="-0.21984">
        <time>2019-03-23T08:20:36Z</time>
      </trkpt>
      <trkpt lat="39.18632" lon="-0.21996">
        <time>2019-03-23T08:20:37Z</time>
      </trkpt>
      <trkpt lat="39.18635" lon="-0.22008">
        <time>2019-03-23T08:20:38Z</time>
      </trkpt>
      <trkpt lat="39.18638" lon="-0.22021">
        <time>2019-03-23T08:20:39Z</time>
      </trkpt>
      <trkpt lat="39.18642" lon="-0.22035">
        <time>2019-03-23T08:20:40Z</time>
      </trkpt>
      <trkpt lat="39.18648" lon="-0.22048">
        <time>2019-03-23T08:20:41Z</time>
      </trkpt>
      <trkpt lat="39.18653" lon="-0.22061">
        <time>2019-03-23T08:20:42Z</time>
      </trkpt>
      <trkpt lat="39.18659" lon="-0.22075">
        <time>2019-03-23T08:20:43Z</time>
      </trkpt>
      <trkpt lat="39.18665" lon="-0.22089">
        <time>2019-03-23T08:20:44Z</time>
      </trkpt>
      <trkpt lat="39.1867" lon="-0.22103">
        <time>2019-03-23T08:20:45Z</time>
      </trkpt>
      <trkpt lat="39.18676" lon="-0.22117">
        <time>2019-03-23T08:20:46Z</time>
      </trkpt>
      <trkpt lat="39.18681" lon="-0.22132">
        <time>2019-03-23T08:20:47Z</time>
      </trkpt>
      <trkpt lat="39.18687" lon="-0.22147">
        <time>2019-03-23T08:20:48Z</time>
      </trkpt>
      <trkpt lat="39.18694" lon="-0.22164">
        <time>2019-03-23T08:20:49Z</time>
      </trkpt>
      <trkpt lat="39.187" lon="-0.22181">
        <time>2019-03-23T08:20:50Z</time>
      </trkpt>
      <trkpt lat="39.18707" lon="-0.22199">
        <time>2019-03-23T08:20:51Z</time>
      </trkpt>
      <trkpt lat="39.18713" lon="-0.22215">
        <time>2019-03-23T08:20:52Z</time>
      </trkpt>
      <trkpt lat="39.18719" lon="-0.22229">
        <time>2019-03-23T08:20:53Z</time>
      </trkpt>
      <trkpt lat="39.18726" lon="-0.22242">
        <time>2019-03-23T08:20:54Z</time>
      </trkpt>
      <trkpt lat="39.18733" lon="-0.2225">
        <time>2019-03-23T08:20:55Z</time>
      </trkpt>
      <trkpt lat="39.18742" lon="-0.22255">
        <time>2019-03-23T08:20:56Z</time>
      </trkpt>
      <trkpt lat="39.1875" lon="-0.2226">
        <time>2019-03-23T08:20:57Z</time>
      </trkpt>
      <trkpt lat="39.18754" lon="-0.22268">
        <time>2019-03-23T08:20:58Z</time>
      </trkpt>
      <trkpt lat="39.18755" lon="-0.22279">
        <time>2019-03-23T08:20:59Z</time>
      </trkpt>
      <trkpt lat="39.18754" lon="-0.22292">
        <time>2019-03-23T08:21:00Z</time>
      </trkpt>
      <trkpt lat="39.18753" lon="-0.22306">
        <time>2019-03-23T08:21:01Z</time>
      </trkpt>
      <trkpt lat="39.18754" lon="-0.2232">
        <time>2019-03-23T08:21:02Z</time>
      </trkpt>
      <trkpt lat="39.18757" lon="-0.22331">
        <time>2019-03-23T08:21:03Z</time>
      </trkpt>
      <trkpt lat="39.18763" lon="-0.22339">
        <time>2019-03-23T08:21:04Z</time>
      </trkpt>
      <trkpt lat="39.18769" lon="-0.22345">
        <time>2019-03-23T08:21:05Z</time>
      </trkpt>
      <trkpt lat="39.18778" lon="-0.22349">
        <time>2019-03-23T08:21:06Z</time>
      </trkpt>
      <trkpt lat="39.18786" lon="-0.22357">
        <time>2019-03-23T08:21:07Z</time>
      </trkpt>
      <trkpt lat="39.18792" lon="-0.22368">
        <time>2019-03-23T08:21:08Z</time>
      </trkpt>
      <trkpt lat="39.18798" lon="-0.22382">
        <time>2019-03-23T08:21:09Z</time>
      </trkpt>
      <trkpt lat="39.18805" lon="-0.22396">
        <time>2019-03-23T08:21:10Z</time>
      </trkpt>
      <trkpt lat="39.18811" lon="-0.22409">
        <time>2019-03-23T08:21:11Z</time>
      </trkpt>
      <trkpt lat="39.18818" lon="-0.22423">
        <time>2019-03-23T08:21:12Z</time>
      </trkpt>
      <trkpt lat="39.18827" lon="-0.22434">
        <time>2019-03-23T08:21:13Z</time>
      </trkpt>
      <trkpt lat="39.18837" lon="-0.22446">
        <time>2019-03-23T08:21:14Z</time>
      </trkpt>
      <trkpt lat="39.18846" lon="-0.22459">
        <time>2019-03-23T08:21:15Z</time>
      </trkpt>
      <trkpt lat="39.18853" lon="-0.22475">
        <time>2019-03-23T08:21:16Z</time>
      </trkpt>
      <trkpt lat="39.18859" lon="-0.22489">
        <time>2019-03-23T08:21:17Z</time>
      </trkpt>
      <trkpt lat="39.18864" lon="-0.22502">
        <time>2019-03-23T08:21:18Z</time>
      </trkpt>
      <trkpt lat="39.18866" lon="-0.22515">
        <time>2019-03-23T08:21:19Z</time>
      </trkpt>
      <trkpt lat="39.18867" lon="-0.22527">
        <time>2019-03-23T08:21:20Z</time>
      </trkpt>
      <trkpt lat="39.18866" lon="-0.22537">
        <time>2019-03-23T08:21:21Z</time>
      </trkpt>
      <trkpt lat="39.18863" lon="-0.22545">
        <time>2019-03-23T08:21:22Z</time>
      </trkpt>
      <trkpt lat="39.1886" lon="-0.22549">
        <time>2019-03-23T08:21:23Z</time>
      </trkpt>
      <trkpt lat="39.18855" lon="-0.22552">
        <time>2019-03-23T08:21:24Z</time>
      </trkpt>
      <trkpt lat="39.18848" lon="-0.22554">
        <time>2019-03-23T08:21:25Z</time>
      </trkpt>
      <trkpt lat="39.1884" lon="-0.22556">
        <time>2019-03-23T08:21:26Z</time>
      </trkpt>
      <trkpt lat="39.18832" lon="-0.2256">
        <time>2019-03-23T08:21:27Z</time>
      </trkpt>
      <trkpt lat="39.18822" lon="-0.22565">
        <time>2019-03-23T08:21:28Z</time>
      </trkpt>
      <trkpt lat="39.18812" lon="-0.22573">
        <time>2019-03-23T08:21:29Z</time>
      </trkpt>
      <trkpt lat="39.18802" lon="-0.22582">
        <time>2019-03-23T08:21:30Z</time>
      </trkpt>
      <trkpt lat="39.18794" lon="-0.22595">
        <time>2019-03-23T08:21:31Z</time>
      </trkpt>
      <trkpt lat="39.1879" lon="-0.2261">
        <time>2019-03-23T08:21:32Z</time>
      </trkpt>
      <trkpt lat="39.18786" lon="-0.22626">
        <time>2019-03-23T08:21:33Z</time>
      </trkpt>
      <trkpt lat="39.1878" lon="-0.22641">
        <time>2019-03-23T08:21:34Z</time>
      </trkpt>
      <trkpt lat="39.18769" lon="-0.22655">
        <time>2019-03-23T08:21:35Z</time>
      </trkpt>
      <trkpt lat="39.18758" lon="-0.22668">
        <time>2019-03-23T08:21:36Z</time>
      </trkpt>
      <trkpt lat="39.18748" lon="-0.2268">
        <time>2019-03-23T08:21:37Z</time>
      </trkpt>
      <trkpt lat="39.18743" lon="-0.22692">
        <time>2019-03-23T08:21:38Z</time>
      </trkpt>
      <trkpt lat="39.18743" lon="-0.22705">
        <time>2019-03-23T08:21:39Z</time>
      </trkpt>
      <trkpt lat="39.18748" lon="-0.2272">
        <time>2019-03-23T08:21:40Z</time>
      </trkpt>
      <trkpt lat="39.18757" lon="-0.22735">
        <time>2019-03-23T08:21:41Z</time>
      </trkpt>
      <trkpt lat="39.18768" lon="-0.2275">
        <time>2019-03-23T08:21:42Z</time>
      </trkpt>
      <trkpt lat="39.18781" lon="-0.22762">
        <time>2019-03-23T08:21:43Z</time>
      </trkpt>
      <trkpt lat="39.18794" lon="-0.22773">
        <time>2019-03-23T08:21:44Z</time>
      </trkpt>
      <trkpt lat="39.18805" lon="-0.22784">
        <time>2019-03-23T08:21:45Z</time>
      </trkpt>
      <trkpt lat="39.18816" lon="-0.22795">
        <time>2019-03-23T08:21:46Z</time>
      </trkpt>
      <trkpt lat="39.18828" lon="-0.22803">
        <time>2019-03-23T08:21:47Z</time>
      </trkpt>
      <trkpt lat="39.18838" lon="-0.22811">
        <time>2019-03-23T08:21:48Z</time>
      </trkpt>
      <trkpt lat="39.18844" lon="-0.22822">
        <time>2019-03-23T08:21:49Z</time>
      </trkpt>
      <trkpt lat="39.18848" lon="-0.22836">
        <time>2019-03-23T08:21:50Z</time>
      </trkpt>
      <trkpt lat="39.18848" lon="-0.22853">
        <time>2019-03-23T08:21:51Z</time>
      </trkpt>
      <trkpt lat="39.18847" lon="-0.22872">
        <time>2019-03-23T08:21:52Z</time>
      </trkpt>
      <trkpt lat="39.18845" lon="-0.22887">
        <time>2019-03-23T08:21:53Z</time>
      </trkpt>
      <trkpt lat="39.18843" lon="-0.229">
        <time>2019-03-23T08:21:54Z</time>
      </trkpt>
      <trkpt lat="39.18839" lon="-0.22909">
        <time>2019-03-23T08:21:55Z</time>
      </trkpt>
      <trkpt lat="39.18834" lon="-0.22913">
        <time>2019-03-23T08:21:56Z</time>
      </trkpt>
      <trkpt lat="39.18829" lon="-0.22914">
        <time>2019-03-23T08:21:57Z</time>
      </trkpt>
      <trkpt lat="39.18825" lon="-0.2291">
        <time>2019-03-23T08:21:58Z</time>
      </trkpt>
      <trkpt lat="39.18822" lon="-0.22903">
        <time>2019-03-23T08:21:59Z</time>
      </trkpt>
      <trkpt lat="39.18823" lon="-0.22893">
        <time>2019-03-23T08:22:00Z</time>
      </trkpt>
      <trkpt lat="39.18824" lon="-0.22881">
        <time>2019-03-23T08:22:01Z</time>
      </trkpt>
      <trkpt lat="39.18824" lon="-0.22868">
        <time>2019-03-23T08:22:02Z</time>
      </trkpt>
      <trkpt lat="39.18822" lon="-0.22854">
        <time>2019-03-23T08:22:03Z</time>
      </trkpt>
      <trkpt lat="39.18817" lon="-0.22843">
        <time>2019-03-23T08:22:04Z</time>
      </trkpt>
      <trkpt lat="39.18811" lon="-0.22833">
        <time>2019-03-23T08:22:05Z</time>
      </trkpt>
      <trkpt lat="39.18804" lon="-0.22824">
        <time>2019-03-23T08:22:06Z</time>
      </trkpt>
      <trkpt lat="39.18798" lon="-0.22818">
        <time>2019-03-23T08:22:07Z</time>
      </trkpt>
      <trkpt lat="39.18794" lon="-0.22816">
        <time>2019-03-23T08:22:08Z</time>
      </trkpt>
      <trkpt lat="39.1879" lon="-0.22819">
        <time>2019-03-23T08:22:09Z</time>
      </trkpt>
      <trkpt lat="39.18789" lon="-0.22825">
        <time>2019-03-23T08:22:10Z</time>
      </trkpt>
      <trkpt lat="39.18791" lon="-0.22832">
        <time>2019-03-23T08:22:11Z</time>
      </trkpt>
      <trkpt lat="39.18796" lon="-0.2284">
        <time>2019-03-23T08:22:12Z</time>
      </trkpt>
      <trkpt lat="39.18801" lon="-0.22851">
        <time>2019-03-23T08:22:13Z</time>
      </trkpt>
      <trkpt lat="39.18802" lon="-0.22863">
        <time>2019-03-23T08:22:14Z</time>
      </trkpt>
      <trkpt lat="39.188" lon="-0.22872">
        <time>2019-03-23T08:22:15Z</time>
      </trkpt>
      <trkpt lat="39.18796" lon="-0.22877">
        <time>2019-03-23T08:22:16Z</time>
      </trkpt>
      <trkpt lat="39.18791" lon="-0.22878">
        <time>2019-03-23T08:22:17Z</time>
      </trkpt>
      <trkpt lat="39.18784" lon="-0.22875">
        <time>2019-03-23T08:22:18Z</time>
      </trkpt>
      <trkpt lat="39.18779" lon="-0.22869">
        <time>2019-03-23T08:22:19Z</time>
      </trkpt>
      <trkpt lat="39.18776" lon="-0.22858">
        <time>2019-03-23T08:22:20Z</time>
      </trkpt>
      <trkpt lat="39.18773" lon="-0.22847">
        <time>2019-03-23T08:22:21Z</time>
      </trkpt>
      <trkpt lat="39.18767" lon="-0.2284">
        <time>2019-03-23T08:22:22Z</time>
      </trkpt>
      <trkpt lat="39.1876" lon="-0.22834">
        <time>2019-03-23T08:22:23Z</time>
      </trkpt>
      <trkpt lat="39.18751" lon="-0.22826">
        <time>2019-03-23T08:22:24Z</time>
      </trkpt>
      <trkpt lat="39.18741" lon="-0.22817">
        <time>2019-03-23T08:22:25Z</time>
      </trkpt>
      <trkpt lat="39.18732" lon="-0.22805">
        <time>2019-03-23T08:22:26Z</time>
      </trkpt>
      <trkpt lat="39.18723" lon="-0.2279">
        <time>2019-03-23T08:22:27Z</time>
      </trkpt>
      <trkpt lat="39.18715" lon="-0.22776">
        <time>2019-03-23T08:22:28Z</time>
      </trkpt>
      <trkpt lat="39.18707" lon="-0.22764">
        <time>2019-03-23T08:22:29Z</time>
      </trkpt>
      <trkpt lat="39.18697" lon="-0.22756">
        <time>2019-03-23T08:22:30Z</time>
      </trkpt>
      <trkpt lat="39.18686" lon="-0.22751">
        <time>2019-03-23T08:22:31Z</time>
      </trkpt>
      <trkpt lat="39.18677" lon="-0.22749">
        <time>2019-03-23T08:22:32Z</time>
      </trkpt>
      <trkpt lat="39.18669" lon="-0.22746">
        <time>2019-03-23T08:22:33Z</time>
      </trkpt>
      <trkpt lat="39.18663" lon="-0.22744">
        <time>2019-03-23T08:22:34Z</time>
      </trkpt>
      <trkpt lat="39.18657" lon="-0.22741">
        <time>2019-03-23T08:22:35Z</time>
      </trkpt>
      <trkpt lat="39.18654" lon="-0.22737">
        <time>2019-03-23T08:22:36Z</time>
      </trkpt>
      <trkpt lat="39.18651" lon="-0.22731">
        <time>2019-03-23T08:22:37Z</time>
      </trkpt>
      <trkpt lat="39.18649" lon="-0.22722">
        <time>2019-03-23T08:22:38Z</time>
      </trkpt>
      <trkpt lat="39.18649" lon="-0.22711">
        <time>2019-03-23T08:22:39Z</time>
      </trkpt>
      <trkpt lat="39.18651" lon="-0.22698">
        <time>2019-03-23T08:22:40Z</time>
      </trkpt>
      <trkpt lat="39.18651" lon="-0.22682">
        <time>2019-03-23T08:22:41Z</time>
      </trkpt>
      <trkpt lat="39.18652" lon="-0.22664">
        <time>2019-03-23T08:22:42Z</time>
      </trkpt>
      <trkpt lat="39.18654" lon="-0.22645">
        <time>2019-03-23T08:22:43Z</time>
      </trkpt>
      <trkpt lat="39.18659" lon="-0.2263">
        <time>2019-03-23T08:22:44Z</time>
      </trkpt>
      <trkpt lat="39.18662" lon="-0.22616">
        <time>2019-03-23T08:22:45Z</time>
      </trkpt>
      <trkpt lat="39.18662" lon="-0.22604">
        <time>2019-03-23T08:22:46Z</time>
      </trkpt>
      <trkpt lat="39.18659" lon="-0.22593">
        <time>2019-03-23T08:22:47Z</time>
      </trkpt>
      <trkpt lat="39.18653" lon="-0.22584">
        <time>2019-03-23T08:22:48Z</time>
      </trkpt>
      <trkpt lat="39.18646" lon="-0.22574">
        <time>2019-03-23T08:22:49Z</time>
      </trkpt>
      <trkpt lat="39.18639" lon="-0.22562">
        <time>2019-03-23T08:22:50Z</time>
      </trkpt>
      <trkpt lat="39.18633" lon="-0.22549">
        <time>2019-03-23T08:22:51Z</time>
      </trkpt>
      <trkpt lat="39.18626" lon="-0.22537">
        <time>2019-03-23T08:22:52Z</time>
      </trkpt>
      <trkpt lat="39.18618" lon="-0.22527">
        <time>2019-03-23T08:22:53Z</time>
      </trkpt>
      <trkpt lat="39.18612" lon="-0.22518">
        <time>2019-03-23T08:22:54Z</time>
      </trkpt>
      <trkpt lat="39.18609" lon="-0.22511">
        <time>2019-03-23T08:22:55Z</time>
      </trkpt>
      <trkpt lat="39.1861" lon="-0.22505">
        <time>2019-03-23T08:22:56Z</time>
      </trkpt>
      <trkpt lat="39.18611" lon="-0.22501">
        <time>2019-03-23T08:22:57Z</time>
      </trkpt>
      <trkpt lat="39.18614" lon="-0.22498">
        <time>2019-03-23T08:22:58Z</time>
      </trkpt>
      <trkpt lat="39.18618" lon="-0.22495">
        <time>2019-03-23T08:22:59Z</time>
      </trkpt>
      <trkpt lat="39.1862" lon="-0.22494">
        <time>2019-03-23T08:23:00Z</time>
      </trkpt>
      <trkpt lat="39.18624" lon="-0.22494">
        <time>2019-03-23T08:23:01Z</time>
      </trkpt>
      <trkpt lat="39.18628" lon="-0.22497">
        <time>2019-03-23T08:23:02Z</time>
      </trkpt>
      <trkpt lat="39.18631" lon="-0.22502">
        <time>2019-03-23T08:23:03Z</time>
      </trkpt>
      <trkpt lat="39.18635" lon="-0.22507">
        <time>2019-03-23T08:23:04Z</time>
      </trkpt>
      <trkpt lat="39.18638" lon="-0.22513">
        <time>2019-03-23T08:23:05Z</time>
      </trkpt>
      <trkpt lat="39.18641" lon="-0.22517">
        <time>2019-03-23T08:23:06Z</time>
      </trkpt>
      <trkpt lat="39.18644" lon="-0.22521">
        <time>2019-03-23T08:23:07Z</time>
      </trkpt>
      <trkpt lat="39.18648" lon="-0.22525">
        <time>2019-03-23T08:23:08Z</time>
      </trkpt>
      <trkpt lat="39.18651" lon="-0.22529">
        <time>2019-03-23T08:23:09Z</time>
      </trkpt>
      <trkpt lat="39.18655" lon="-0.22533">
        <time>2019-03-23T08:23:10Z</time>
      </trkpt>
      <trkpt lat="39.18659" lon="-0.22537">
        <time>2019-03-23T08:23:11Z</time>
      </trkpt>
      <trkpt lat="39.18663" lon="-0.22541">
        <time>2019-03-23T08:23:12Z</time>
      </trkpt>
      <trkpt lat="39.18666" lon="-0.22546">
        <time>2019-03-23T08:23:13Z</time>
      </trkpt>
      <trkpt lat="39.18668" lon="-0.22551">
        <time>2019-03-23T08:23:14Z</time>
      </trkpt>
      <trkpt lat="39.18669" lon="-0.22557">
        <time>2019-03-23T08:23:15Z</time>
      </trkpt>
      <trkpt lat="39.18669" lon="-0.22561">
        <time>2019-03-23T08:23:16Z</time>
      </trkpt>
      <trkpt lat="39.18669" lon="-0.22565">
        <time>2019-03-23T08:23:17Z</time>
      </trkpt>
      <trkpt lat="39.18669" lon="-0.22568">
        <time>2019-03-23T08:23:18Z</time>
      </trkpt>
      <trkpt lat="39.18671" lon="-0.2257">
        <time>2019-03-23T08:23:19Z</time>
      </trkpt>
      <trkpt lat="39.18672" lon="-0.22571">
        <time>2019-03-23T08:23:20Z</time>
      </trkpt>
      <trkpt lat="39.18674" lon="-0.22571">
        <time>2019-03-23T08:23:21Z</time>
      </trkpt>
      <trkpt lat="39.18675" lon="-0.22571">
        <time>2019-03-23T08:23:22Z</time>
      </trkpt>
      <trkpt lat="39.18672" lon="-0.22571">
        <time>2019-03-23T08:23:48Z</time>
      </trkpt>
      <trkpt lat="39.18675" lon="-0.2257">
        <time>2019-03-23T08:24:04Z</time>
      </trkpt>
      <trkpt lat="39.18675" lon="-0.22568">
        <time>2019-03-23T08:24:05Z</time>
      </trkpt>
      <trkpt lat="39.18675" lon="-0.22567">
        <time>2019-03-23T08:24:06Z</time>
      </trkpt>
      <trkpt lat="39.18675" lon="-0.22565">
        <time>2019-03-23T08:24:07Z</time>
      </trkpt>
      <trkpt lat="39.18677" lon="-0.2257">
        <time>2019-03-23T08:24:34Z</time>
      </trkpt>
      <trkpt lat="39.18679" lon="-0.22569">
        <time>2019-03-23T08:24:35Z</time>
      </trkpt>
      <trkpt lat="39.18677" lon="-0.22567">
        <time>2019-03-23T08:24:57Z</time>
      </trkpt>
      <trkpt lat="39.18677" lon="-0.22566">
        <time>2019-03-23T08:25:02Z</time>
      </trkpt>
      <trkpt lat="39.18677" lon="-0.22565">
        <time>2019-03-23T08:25:03Z</time>
      </trkpt>
      <trkpt lat="39.1868" lon="-0.22565">
        <time>2019-03-23T08:25:11Z</time>
      </trkpt>
      <trkpt lat="39.18681" lon="-0.22569">
        <time>2019-03-23T08:25:20Z</time>
      </trkpt>
      <trkpt lat="39.18681" lon="-0.22569">
        <time>2019-03-23T08:25:23Z</time>
      </trkpt>
      <trkpt lat="39.1868" lon="-0.2257">
        <time>2019-03-23T08:25:24Z</time>
      </trkpt>
      <trkpt lat="39.18679" lon="-0.22571">
        <time>2019-03-23T08:25:25Z</time>
      </trkpt>
      <trkpt lat="39.18675" lon="-0.22572">
        <time>2019-03-23T08:26:43Z</time>
      </trkpt>
      <trkpt lat="39.18675" lon="-0.22571">
        <time>2019-03-23T08:26:44Z</time>
      </trkpt>
      <trkpt lat="39.18674" lon="-0.22571">
        <time>2019-03-23T08:26:45Z</time>
      </trkpt>
      <trkpt lat="39.18674" lon="-0.2257">
        <time>2019-03-23T08:26:46Z</time>
      </trkpt>
      <trkpt lat="39.18672" lon="-0.22569">
        <time>2019-03-23T08:27:24Z</time>
      </trkpt>
      <trkpt lat="39.18673" lon="-0.2257">
        <time>2019-03-23T08:27:25Z</time>
      </trkpt>
      <trkpt lat="39.18674" lon="-0.22571">
        <time>2019-03-23T08:27:50Z</time>
      </trkpt>
      <trkpt lat="39.18672" lon="-0.22574">
        <time>2019-03-23T08:27:54Z</time>
      </trkpt>
      <trkpt lat="39.18672" lon="-0.22565">
        <time>2019-03-23T08:31:09Z</time>
      </trkpt>
      <trkpt lat="39.18671" lon="-0.22563">
        <time>2019-03-23T08:31:10Z</time>
      </trkpt>
      <trkpt lat="39.18669" lon="-0.2256">
        <time>2019-03-23T08:31:11Z</time>
      </trkpt>
      <trkpt lat="39.18668" lon="-0.22556">
        <time>2019-03-23T08:31:12Z</time>
      </trkpt>
      <trkpt lat="39.18667" lon="-0.22552">
        <time>2019-03-23T08:31:13Z</time>
      </trkpt>
      <trkpt lat="39.18666" lon="-0.22548">
        <time>2019-03-23T08:31:14Z</time>
      </trkpt>
      <trkpt lat="39.18666" lon="-0.22545">
        <time>2019-03-23T08:31:15Z</time>
      </trkpt>
      <trkpt lat="39.18665" lon="-0.22543">
        <time>2019-03-23T08:31:16Z</time>
      </trkpt>
      <trkpt lat="39.18664" lon="-0.22541">
        <time>2019-03-23T08:31:17Z</time>
      </trkpt>
      <trkpt lat="39.18661" lon="-0.2254">
        <time>2019-03-23T08:31:18Z</time>
      </trkpt>
      <trkpt lat="39.18658" lon="-0.22537">
        <time>2019-03-23T08:31:19Z</time>
      </trkpt>
      <trkpt lat="39.18655" lon="-0.22535">
        <time>2019-03-23T08:31:20Z</time>
      </trkpt>
      <trkpt lat="39.18652" lon="-0.22532">
        <time>2019-03-23T08:31:21Z</time>
      </trkpt>
      <trkpt lat="39.18649" lon="-0.22529">
        <time>2019-03-23T08:31:22Z</time>
      </trkpt>
      <trkpt lat="39.18647" lon="-0.22526">
        <time>2019-03-23T08:31:23Z</time>
      </trkpt>
      <trkpt lat="39.18645" lon="-0.22523">
        <time>2019-03-23T08:31:24Z</time>
      </trkpt>
      <trkpt lat="39.18642" lon="-0.22519">
        <time>2019-03-23T08:31:25Z</time>
      </trkpt>
      <trkpt lat="39.18639" lon="-0.22516">
        <time>2019-03-23T08:31:26Z</time>
      </trkpt>
      <trkpt lat="39.18636" lon="-0.22512">
        <time>2019-03-23T08:31:27Z</time>
      </trkpt>
      <trkpt lat="39.18634" lon="-0.22508">
        <time>2019-03-23T08:31:28Z</time>
      </trkpt>
      <trkpt lat="39.1863" lon="-0.22504">
        <time>2019-03-23T08:31:29Z</time>
      </trkpt>
      <trkpt lat="39.18627" lon="-0.22501">
        <time>2019-03-23T08:31:30Z</time>
      </trkpt>
      <trkpt lat="39.18624" lon="-0.22499">
        <time>2019-03-23T08:31:31Z</time>
      </trkpt>
      <trkpt lat="39.18621" lon="-0.22499">
        <time>2019-03-23T08:31:32Z</time>
      </trkpt>
      <trkpt lat="39.18618" lon="-0.22499">
        <time>2019-03-23T08:31:33Z</time>
      </trkpt>
      <trkpt lat="39.18614" lon="-0.225">
        <time>2019-03-23T08:31:34Z</time>
      </trkpt>
      <trkpt lat="39.18612" lon="-0.22502">
        <time>2019-03-23T08:31:35Z</time>
      </trkpt>
      <trkpt lat="39.18609" lon="-0.22504">
        <time>2019-03-23T08:31:36Z</time>
      </trkpt>
      <trkpt lat="39.18607" lon="-0.22505">
        <time>2019-03-23T08:31:37Z</time>
      </trkpt>
      <trkpt lat="39.18602" lon="-0.22503">
        <time>2019-03-23T08:31:38Z</time>
      </trkpt>
      <trkpt lat="39.18597" lon="-0.22499">
        <time>2019-03-23T08:31:39Z</time>
      </trkpt>
      <trkpt lat="39.18592" lon="-0.22493">
        <time>2019-03-23T08:31:40Z</time>
      </trkpt>
      <trkpt lat="39.18586" lon="-0.22487">
        <time>2019-03-23T08:31:41Z</time>
      </trkpt>
      <trkpt lat="39.18578" lon="-0.22481">
        <time>2019-03-23T08:31:42Z</time>
      </trkpt>
      <trkpt lat="39.18571" lon="-0.22474">
        <time>2019-03-23T08:31:43Z</time>
      </trkpt>
      <trkpt lat="39.18565" lon="-0.22465">
        <time>2019-03-23T08:31:44Z</time>
      </trkpt>
      <trkpt lat="39.18558" lon="-0.22457">
        <time>2019-03-23T08:31:45Z</time>
      </trkpt>
      <trkpt lat="39.18553" lon="-0.22447">
        <time>2019-03-23T08:31:46Z</time>
      </trkpt>
      <trkpt lat="39.18549" lon="-0.22437">
        <time>2019-03-23T08:31:47Z</time>
      </trkpt>
      <trkpt lat="39.18546" lon="-0.22424">
        <time>2019-03-23T08:31:48Z</time>
      </trkpt>
      <trkpt lat="39.18545" lon="-0.22412">
        <time>2019-03-23T08:31:49Z</time>
      </trkpt>
      <trkpt lat="39.18548" lon="-0.22403">
        <time>2019-03-23T08:31:50Z</time>
      </trkpt>
      <trkpt lat="39.18553" lon="-0.22394">
        <time>2019-03-23T08:31:51Z</time>
      </trkpt>
      <trkpt lat="39.18561" lon="-0.22389">
        <time>2019-03-23T08:31:52Z</time>
      </trkpt>
      <trkpt lat="39.1857" lon="-0.22387">
        <time>2019-03-23T08:31:53Z</time>
      </trkpt>
      <trkpt lat="39.1858" lon="-0.2239">
        <time>2019-03-23T08:31:54Z</time>
      </trkpt>
      <trkpt lat="39.18588" lon="-0.22397">
        <time>2019-03-23T08:31:55Z</time>
      </trkpt>
      <trkpt lat="39.18597" lon="-0.22404">
        <time>2019-03-23T08:31:56Z</time>
      </trkpt>
      <trkpt lat="39.18607" lon="-0.22412">
        <time>2019-03-23T08:31:57Z</time>
      </trkpt>
      <trkpt lat="39.18617" lon="-0.2242">
        <time>2019-03-23T08:31:58Z</time>
      </trkpt>
      <trkpt lat="39.18626" lon="-0.22425">
        <time>2019-03-23T08:31:59Z</time>
      </trkpt>
      <trkpt lat="39.18635" lon="-0.22426">
        <time>2019-03-23T08:32:00Z</time>
      </trkpt>
      <trkpt lat="39.18644" lon="-0.22424">
        <time>2019-03-23T08:32:01Z</time>
      </trkpt>
      <trkpt lat="39.18653" lon="-0.22419">
        <time>2019-03-23T08:32:02Z</time>
      </trkpt>
      <trkpt lat="39.18663" lon="-0.22414">
        <time>2019-03-23T08:32:03Z</time>
      </trkpt>
      <trkpt lat="39.18672" lon="-0.22411">
        <time>2019-03-23T08:32:04Z</time>
      </trkpt>
      <trkpt lat="39.18681" lon="-0.22407">
        <time>2019-03-23T08:32:05Z</time>
      </trkpt>
      <trkpt lat="39.18686" lon="-0.22401">
        <time>2019-03-23T08:32:06Z</time>
      </trkpt>
      <trkpt lat="39.18687" lon="-0.22395">
        <time>2019-03-23T08:32:07Z</time>
      </trkpt>
      <trkpt lat="39.18685" lon="-0.22389">
        <time>2019-03-23T08:32:08Z</time>
      </trkpt>
      <trkpt lat="39.18679" lon="-0.22385">
        <time>2019-03-23T08:32:09Z</time>
      </trkpt>
      <trkpt lat="39.1867" lon="-0.22384">
        <time>2019-03-23T08:32:10Z</time>
      </trkpt>
      <trkpt lat="39.18659" lon="-0.22386">
        <time>2019-03-23T08:32:11Z</time>
      </trkpt>
      <trkpt lat="39.18648" lon="-0.2239">
        <time>2019-03-23T08:32:12Z</time>
      </trkpt>
      <trkpt lat="39.18639" lon="-0.22392">
        <time>2019-03-23T08:32:13Z</time>
      </trkpt>
      <trkpt lat="39.18631" lon="-0.22388">
        <time>2019-03-23T08:32:14Z</time>
      </trkpt>
      <trkpt lat="39.18624" lon="-0.22379">
        <time>2019-03-23T08:32:15Z</time>
      </trkpt>
      <trkpt lat="39.18617" lon="-0.2237">
        <time>2019-03-23T08:32:16Z</time>
      </trkpt>
      <trkpt lat="39.1861" lon="-0.22362">
        <time>2019-03-23T08:32:17Z</time>
      </trkpt>
      <trkpt lat="39.18606" lon="-0.22353">
        <time>2019-03-23T08:32:18Z</time>
      </trkpt>
      <trkpt lat="39.18605" lon="-0.22344">
        <time>2019-03-23T08:32:19Z</time>
      </trkpt>
      <trkpt lat="39.18608" lon="-0.22336">
        <time>2019-03-23T08:32:20Z</time>
      </trkpt>
      <trkpt lat="39.18613" lon="-0.2233">
        <time>2019-03-23T08:32:21Z</time>
      </trkpt>
      <trkpt lat="39.18621" lon="-0.22328">
        <time>2019-03-23T08:32:22Z</time>
      </trkpt>
      <trkpt lat="39.18631" lon="-0.22328">
        <time>2019-03-23T08:32:23Z</time>
      </trkpt>
      <trkpt lat="39.1864" lon="-0.22325">
        <time>2019-03-23T08:32:24Z</time>
      </trkpt>
      <trkpt lat="39.18648" lon="-0.22318">
        <time>2019-03-23T08:32:25Z</time>
      </trkpt>
      <trkpt lat="39.18652" lon="-0.22308">
        <time>2019-03-23T08:32:26Z</time>
      </trkpt>
      <trkpt lat="39.18651" lon="-0.22297">
        <time>2019-03-23T08:32:27Z</time>
      </trkpt>
      <trkpt lat="39.18649" lon="-0.22285">
        <time>2019-03-23T08:32:28Z</time>
      </trkpt>
      <trkpt lat="39.18646" lon="-0.22275">
        <time>2019-03-23T08:32:29Z</time>
      </trkpt>
      <trkpt lat="39.18641" lon="-0.22265">
        <time>2019-03-23T08:32:30Z</time>
      </trkpt>
      <trkpt lat="39.18635" lon="-0.22256">
        <time>2019-03-23T08:32:31Z</time>
      </trkpt>
      <trkpt lat="39.18627" lon="-0.22246">
        <time>2019-03-23T08:32:32Z</time>
      </trkpt>
      <trkpt lat="39.1862" lon="-0.22234">
        <time>2019-03-23T08:32:33Z</time>
      </trkpt>
      <trkpt lat="39.18613" lon="-0.22221">
        <time>2019-03-23T08:32:34Z</time>
      </trkpt>
      <trkpt lat="39.18606" lon="-0.22209">
        <time>2019-03-23T08:32:35Z</time>
      </trkpt>
      <trkpt lat="39.18599" lon="-0.22198">
        <time>2019-03-23T08:32:36Z</time>
      </trkpt>
      <trkpt lat="39.18594" lon="-0.22188">
        <time>2019-03-23T08:32:37Z</time>
      </trkpt>
      <trkpt lat="39.18593" lon="-0.22177">
        <time>2019-03-23T08:32:38Z</time>
      </trkpt>
      <trkpt lat="39.18595" lon="-0.22167">
        <time>2019-03-23T08:32:39Z</time>
      </trkpt>
      <trkpt lat="39.18601" lon="-0.22158">
        <time>2019-03-23T08:32:40Z</time>
      </trkpt>
      <trkpt lat="39.18608" lon="-0.22147">
        <time>2019-03-23T08:32:41Z</time>
      </trkpt>
      <trkpt lat="39.18616" lon="-0.22137">
        <time>2019-03-23T08:32:42Z</time>
      </trkpt>
      <trkpt lat="39.18625" lon="-0.22131">
        <time>2019-03-23T08:32:43Z</time>
      </trkpt>
      <trkpt lat="39.18635" lon="-0.22128">
        <time>2019-03-23T08:32:44Z</time>
      </trkpt>
      <trkpt lat="39.18643" lon="-0.2213">
        <time>2019-03-23T08:32:45Z</time>
      </trkpt>
      <trkpt lat="39.18651" lon="-0.22135">
        <time>2019-03-23T08:32:46Z</time>
      </trkpt>
      <trkpt lat="39.18657" lon="-0.22144">
        <time>2019-03-23T08:32:47Z</time>
      </trkpt>
      <trkpt lat="39.18663" lon="-0.22157">
        <time>2019-03-23T08:32:48Z</time>
      </trkpt>
      <trkpt lat="39.18669" lon="-0.22171">
        <time>2019-03-23T08:32:49Z</time>
      </trkpt>
      <trkpt lat="39.18676" lon="-0.22185">
        <time>2019-03-23T08:32:50Z</time>
      </trkpt>
      <trkpt lat="39.18683" lon="-0.222">
        <time>2019-03-23T08:32:51Z</time>
      </trkpt>
      <trkpt lat="39.1869" lon="-0.22213">
        <time>2019-03-23T08:32:52Z</time>
      </trkpt>
      <trkpt lat="39.18696" lon="-0.22226">
        <time>2019-03-23T08:32:53Z</time>
      </trkpt>
      <trkpt lat="39.18703" lon="-0.22237">
        <time>2019-03-23T08:32:54Z</time>
      </trkpt>
      <trkpt lat="39.18711" lon="-0.22247">
        <time>2019-03-23T08:32:55Z</time>
      </trkpt>
      <trkpt lat="39.18718" lon="-0.22256">
        <time>2019-03-23T08:32:56Z</time>
      </trkpt>
      <trkpt lat="39.18726" lon="-0.22263">
        <time>2019-03-23T08:32:57Z</time>
      </trkpt>
      <trkpt lat="39.18733" lon="-0.2227">
        <time>2019-03-23T08:32:58Z</time>
      </trkpt>
      <trkpt lat="39.1874" lon="-0.22276">
        <time>2019-03-23T08:32:59Z</time>
      </trkpt>
      <trkpt lat="39.18745" lon="-0.22278">
        <time>2019-03-23T08:33:00Z</time>
      </trkpt>
      <trkpt lat="39.18749" lon="-0.22277">
        <time>2019-03-23T08:33:01Z</time>
      </trkpt>
      <trkpt lat="39.18752" lon="-0.22273">
        <time>2019-03-23T08:33:02Z</time>
      </trkpt>
      <trkpt lat="39.18752" lon="-0.22266">
        <time>2019-03-23T08:33:03Z</time>
      </trkpt>
      <trkpt lat="39.1875" lon="-0.2226">
        <time>2019-03-23T08:33:04Z</time>
      </trkpt>
      <trkpt lat="39.18743" lon="-0.22256">
        <time>2019-03-23T08:33:05Z</time>
      </trkpt>
      <trkpt lat="39.18735" lon="-0.22252">
        <time>2019-03-23T08:33:06Z</time>
      </trkpt>
      <trkpt lat="39.18727" lon="-0.22244">
        <time>2019-03-23T08:33:07Z</time>
      </trkpt>
      <trkpt lat="39.1872" lon="-0.22232">
        <time>2019-03-23T08:33:08Z</time>
      </trkpt>
      <trkpt lat="39.18715" lon="-0.22215">
        <time>2019-03-23T08:33:09Z</time>
      </trkpt>
      <trkpt lat="39.18709" lon="-0.22197">
        <time>2019-03-23T08:33:10Z</time>
      </trkpt>
      <trkpt lat="39.18701" lon="-0.2218">
        <time>2019-03-23T08:33:11Z</time>
      </trkpt>
      <trkpt lat="39.18694" lon="-0.22163">
        <time>2019-03-23T08:33:12Z</time>
      </trkpt>
      <trkpt lat="39.18688" lon="-0.22147">
        <time>2019-03-23T08:33:13Z</time>
      </trkpt>
      <trkpt lat="39.18682" lon="-0.22131">
        <time>2019-03-23T08:33:14Z</time>
      </trkpt>
      <trkpt lat="39.18675" lon="-0.22116">
        <time>2019-03-23T08:33:15Z</time>
      </trkpt>
      <trkpt lat="39.18669" lon="-0.22101">
        <time>2019-03-23T08:33:16Z</time>
      </trkpt>
      <trkpt lat="39.18664" lon="-0.22086">
        <time>2019-03-23T08:33:17Z</time>
      </trkpt>
      <trkpt lat="39.18659" lon="-0.22071">
        <time>2019-03-23T08:33:18Z</time>
      </trkpt>
      <trkpt lat="39.18653" lon="-0.22057">
        <time>2019-03-23T08:33:19Z</time>
      </trkpt>
      <trkpt lat="39.18646" lon="-0.22043">
        <time>2019-03-23T08:33:20Z</time>
      </trkpt>
      <trkpt lat="39.18641" lon="-0.22029">
        <time>2019-03-23T08:33:21Z</time>
      </trkpt>
      <trkpt lat="39.18636" lon="-0.22016">
        <time>2019-03-23T08:33:22Z</time>
      </trkpt>
      <trkpt lat="39.18633" lon="-0.22002">
        <time>2019-03-23T08:33:23Z</time>
      </trkpt>
      <trkpt lat="39.1863" lon="-0.21988">
        <time>2019-03-23T08:33:24Z</time>
      </trkpt>
      <trkpt lat="39.18629" lon="-0.21976">
        <time>2019-03-23T08:33:25Z</time>
      </trkpt>
      <trkpt lat="39.18629" lon="-0.21965">
        <time>2019-03-23T08:33:26Z</time>
      </trkpt>
      <trkpt lat="39.18626" lon="-0.21957">
        <time>2019-03-23T08:33:27Z</time>
      </trkpt>
      <trkpt lat="39.18622" lon="-0.21951">
        <time>2019-03-23T08:33:28Z</time>
      </trkpt>
      <trkpt lat="39.18616" lon="-0.21946">
        <time>2019-03-23T08:33:29Z</time>
      </trkpt>
      <trkpt lat="39.18608" lon="-0.21942">
        <time>2019-03-23T08:33:30Z</time>
      </trkpt>
      <trkpt lat="39.186" lon="-0.21937">
        <time>2019-03-23T08:33:31Z</time>
      </trkpt>
      <trkpt lat="39.18593" lon="-0.21932">
        <time>2019-03-23T08:33:32Z</time>
      </trkpt>
      <trkpt lat="39.18586" lon="-0.21928">
        <time>2019-03-23T08:33:33Z</time>
      </trkpt>
      <trkpt lat="39.1858" lon="-0.21925">
        <time>2019-03-23T08:33:34Z</time>
      </trkpt>
      <trkpt lat="39.18576" lon="-0.21923">
        <time>2019-03-23T08:33:35Z</time>
      </trkpt>
      <trkpt lat="39.18574" lon="-0.21923">
        <time>2019-03-23T08:33:36Z</time>
      </trkpt>
      <trkpt lat="39.18571" lon="-0.21924">
        <time>2019-03-23T08:33:39Z</time>
      </trkpt>
      <trkpt lat="39.18569" lon="-0.21929">
        <time>2019-03-23T08:33:40Z</time>
      </trkpt>
      <trkpt lat="39.18566" lon="-0.21936">
        <time>2019-03-23T08:33:41Z</time>
      </trkpt>
      <trkpt lat="39.18563" lon="-0.21943">
        <time>2019-03-23T08:33:42Z</time>
      </trkpt>
      <trkpt lat="39.18559" lon="-0.21951">
        <time>2019-03-23T08:33:43Z</time>
      </trkpt>
      <trkpt lat="39.18555" lon="-0.21958">
        <time>2019-03-23T08:33:44Z</time>
      </trkpt>
      <trkpt lat="39.18549" lon="-0.21964">
        <time>2019-03-23T08:33:45Z</time>
      </trkpt>
      <trkpt lat="39.18542" lon="-0.21965">
        <time>2019-03-23T08:33:46Z</time>
      </trkpt>
      <trkpt lat="39.18536" lon="-0.21962">
        <time>2019-03-23T08:33:47Z</time>
      </trkpt>
      <trkpt lat="39.18529" lon="-0.21956">
        <time>2019-03-23T08:33:48Z</time>
      </trkpt>
      <trkpt lat="39.18521" lon="-0.21949">
        <time>2019-03-23T08:33:49Z</time>
      </trkpt>
      <trkpt lat="39.18513" lon="-0.21943">
        <time>2019-03-23T08:33:50Z</time>
      </trkpt>
      <trkpt lat="39.18504" lon="-0.21939">
        <time>2019-03-23T08:33:51Z</time>
      </trkpt>
      <trkpt lat="39.18495" lon="-0.21939">
        <time>2019-03-23T08:33:52Z</time>
      </trkpt>
      <trkpt lat="39.18487" lon="-0.21942">
        <time>2019-03-23T08:33:53Z</time>
      </trkpt>
      <trkpt lat="39.1848" lon="-0.21948">
        <time>2019-03-23T08:33:54Z</time>
      </trkpt>
      <trkpt lat="39.18476" lon="-0.21957">
        <time>2019-03-23T08:33:55Z</time>
      </trkpt>
      <trkpt lat="39.18475" lon="-0.21967">
        <time>2019-03-23T08:33:56Z</time>
      </trkpt>
      <trkpt lat="39.18474" lon="-0.21976">
        <time>2019-03-23T08:33:57Z</time>
      </trkpt>
      <trkpt lat="39.18469" lon="-0.21984">
        <time>2019-03-23T08:33:58Z</time>
      </trkpt>
      <trkpt lat="39.18462" lon="-0.21991">
        <time>2019-03-23T08:33:59Z</time>
      </trkpt>
      <trkpt lat="39.18454" lon="-0.21996">
        <time>2019-03-23T08:34:00Z</time>
      </trkpt>
      <trkpt lat="39.18446" lon="-0.21998">
        <time>2019-03-23T08:34:01Z</time>
      </trkpt>
      <trkpt lat="39.18437" lon="-0.21997">
        <time>2019-03-23T08:34:02Z</time>
      </trkpt>
      <trkpt lat="39.18427" lon="-0.21995">
        <time>2019-03-23T08:34:03Z</time>
      </trkpt>
      <trkpt lat="39.18416" lon="-0.21991">
        <time>2019-03-23T08:34:04Z</time>
      </trkpt>
      <trkpt lat="39.18404" lon="-0.21988">
        <time>2019-03-23T08:34:05Z</time>
      </trkpt>
      <trkpt lat="39.18391" lon="-0.21988">
        <time>2019-03-23T08:34:06Z</time>
      </trkpt>
      <trkpt lat="39.18378" lon="-0.21988">
        <time>2019-03-23T08:34:07Z</time>
      </trkpt>
      <trkpt lat="39.18364" lon="-0.2199">
        <time>2019-03-23T08:34:08Z</time>
      </trkpt>
      <trkpt lat="39.18351" lon="-0.21994">
        <time>2019-03-23T08:34:09Z</time>
      </trkpt>
      <trkpt lat="39.18338" lon="-0.21997">
        <time>2019-03-23T08:34:10Z</time>
      </trkpt>
      <trkpt lat="39.18326" lon="-0.22">
        <time>2019-03-23T08:34:11Z</time>
      </trkpt>
      <trkpt lat="39.18314" lon="-0.22003">
        <time>2019-03-23T08:34:12Z</time>
      </trkpt>
      <trkpt lat="39.18304" lon="-0.22008">
        <time>2019-03-23T08:34:13Z</time>
      </trkpt>
      <trkpt lat="39.18295" lon="-0.22016">
        <time>2019-03-23T08:34:14Z</time>
      </trkpt>
      <trkpt lat="39.18288" lon="-0.22026">
        <time>2019-03-23T08:34:15Z</time>
      </trkpt>
      <trkpt lat="39.18282" lon="-0.22038">
        <time>2019-03-23T08:34:16Z</time>
      </trkpt>
      <trkpt lat="39.18278" lon="-0.22052">
        <time>2019-03-23T08:34:17Z</time>
      </trkpt>
      <trkpt lat="39.18275" lon="-0.22066">
        <time>2019-03-23T08:34:18Z</time>
      </trkpt>
      <trkpt lat="39.18272" lon="-0.22079">
        <time>2019-03-23T08:34:19Z</time>
      </trkpt>
      <trkpt lat="39.18269" lon="-0.22093">
        <time>2019-03-23T08:34:20Z</time>
      </trkpt>
      <trkpt lat="39.18266" lon="-0.22108">
        <time>2019-03-23T08:34:21Z</time>
      </trkpt>
      <trkpt lat="39.18262" lon="-0.22122">
        <time>2019-03-23T08:34:22Z</time>
      </trkpt>
      <trkpt lat="39.18259" lon="-0.22134">
        <time>2019-03-23T08:34:23Z</time>
      </trkpt>
      <trkpt lat="39.18256" lon="-0.22145">
        <time>2019-03-23T08:34:24Z</time>
      </trkpt>
      <trkpt lat="39.18253" lon="-0.22155">
        <time>2019-03-23T08:34:25Z</time>
      </trkpt>
      <trkpt lat="39.1825" lon="-0.22165">
        <time>2019-03-23T08:34:26Z</time>
      </trkpt>
      <trkpt lat="39.18249" lon="-0.22177">
        <time>2019-03-23T08:34:27Z</time>
      </trkpt>
      <trkpt lat="39.1825" lon="-0.22188">
        <time>2019-03-23T08:34:28Z</time>
      </trkpt>
      <trkpt lat="39.18254" lon="-0.22198">
        <time>2019-03-23T08:34:29Z</time>
      </trkpt>
      <trkpt lat="39.18259" lon="-0.22207">
        <time>2019-03-23T08:34:30Z</time>
      </trkpt>
      <trkpt lat="39.18264" lon="-0.22216">
        <time>2019-03-23T08:34:31Z</time>
      </trkpt>
      <trkpt lat="39.18268" lon="-0.22223">
        <time>2019-03-23T08:34:32Z</time>
      </trkpt>
      <trkpt lat="39.18271" lon="-0.22231">
        <time>2019-03-23T08:34:33Z</time>
      </trkpt>
      <trkpt lat="39.18275" lon="-0.22239">
        <time>2019-03-23T08:34:34Z</time>
      </trkpt>
      <trkpt lat="39.1828" lon="-0.22249">
        <time>2019-03-23T08:34:35Z</time>
      </trkpt>
      <trkpt lat="39.18284" lon="-0.2226">
        <time>2019-03-23T08:34:36Z</time>
      </trkpt>
      <trkpt lat="39.18286" lon="-0.22271">
        <time>2019-03-23T08:34:37Z</time>
      </trkpt>
      <trkpt lat="39.18286" lon="-0.22281">
        <time>2019-03-23T08:34:38Z</time>
      </trkpt>
      <trkpt lat="39.18283" lon="-0.22291">
        <time>2019-03-23T08:34:39Z</time>
      </trkpt>
      <trkpt lat="39.18278" lon="-0.22299">
        <time>2019-03-23T08:34:40Z</time>
      </trkpt>
      <trkpt lat="39.18272" lon="-0.22306">
        <time>2019-03-23T08:34:41Z</time>
      </trkpt>
      <trkpt lat="39.18264" lon="-0.22311">
        <time>2019-03-23T08:34:42Z</time>
      </trkpt>
      <trkpt lat="39.18255" lon="-0.22315">
        <time>2019-03-23T08:34:43Z</time>
      </trkpt>
      <trkpt lat="39.18246" lon="-0.22319">
        <time>2019-03-23T08:34:44Z</time>
      </trkpt>
      <trkpt lat="39.18237" lon="-0.22323">
        <time>2019-03-23T08:34:45Z</time>
      </trkpt>
      <trkpt lat="39.18228" lon="-0.22328">
        <time>2019-03-23T08:34:46Z</time>
      </trkpt>
      <trkpt lat="39.18218" lon="-0.22334">
        <time>2019-03-23T08:34:47Z</time>
      </trkpt>
      <trkpt lat="39.18209" lon="-0.2234">
        <time>2019-03-23T08:34:48Z</time>
      </trkpt>
      <trkpt lat="39.18202" lon="-0.22347">
        <time>2019-03-23T08:34:49Z</time>
      </trkpt>
      <trkpt lat="39.18196" lon="-0.22357">
        <time>2019-03-23T08:34:50Z</time>
      </trkpt>
      <trkpt lat="39.18192" lon="-0.22368">
        <time>2019-03-23T08:34:51Z</time>
      </trkpt>
      <trkpt lat="39.18189" lon="-0.2238">
        <time>2019-03-23T08:34:52Z</time>
      </trkpt>
      <trkpt lat="39.18185" lon="-0.2239">
        <time>2019-03-23T08:34:53Z</time>
      </trkpt>
      <trkpt lat="39.18181" lon="-0.22401">
        <time>2019-03-23T08:34:54Z</time>
      </trkpt>
      <trkpt lat="39.18178" lon="-0.22412">
        <time>2019-03-23T08:34:55Z</time>
      </trkpt>
      <trkpt lat="39.18174" lon="-0.22424">
        <time>2019-03-23T08:34:56Z</time>
      </trkpt>
      <trkpt lat="39.18169" lon="-0.22435">
        <time>2019-03-23T08:34:57Z</time>
      </trkpt>
      <trkpt lat="39.18163" lon="-0.22445">
        <time>2019-03-23T08:34:58Z</time>
      </trkpt>
      <trkpt lat="39.18158" lon="-0.22453">
        <time>2019-03-23T08:34:59Z</time>
      </trkpt>
      <trkpt lat="39.18152" lon="-0.22459">
        <time>2019-03-23T08:35:00Z</time>
      </trkpt>
      <trkpt lat="39.18147" lon="-0.22465">
        <time>2019-03-23T08:35:01Z</time>
      </trkpt>
      <trkpt lat="39.18141" lon="-0.2247">
        <time>2019-03-23T08:35:02Z</time>
      </trkpt>
      <trkpt lat="39.18136" lon="-0.22475">
        <time>2019-03-23T08:35:03Z</time>
      </trkpt>
      <trkpt lat="39.1813" lon="-0.2248">
        <time>2019-03-23T08:35:04Z</time>
      </trkpt>
      <trkpt lat="39.18125" lon="-0.22485">
        <time>2019-03-23T08:35:05Z</time>
      </trkpt>
      <trkpt lat="39.1812" lon="-0.2249">
        <time>2019-03-23T08:35:06Z</time>
      </trkpt>
      <trkpt lat="39.18115" lon="-0.22495">
        <time>2019-03-23T08:35:07Z</time>
      </trkpt>
      <trkpt lat="39.1811" lon="-0.22501">
        <time>2019-03-23T08:35:08Z</time>
      </trkpt>
      <trkpt lat="39.18107" lon="-0.22509">
        <time>2019-03-23T08:35:09Z</time>
      </trkpt>
      <trkpt lat="39.18104" lon="-0.22518">
        <time>2019-03-23T08:35:10Z</time>
      </trkpt>
      <trkpt lat="39.18104" lon="-0.22528">
        <time>2019-03-23T08:35:11Z</time>
      </trkpt>
      <trkpt lat="39.18106" lon="-0.22537">
        <time>2019-03-23T08:35:12Z</time>
      </trkpt>
      <trkpt lat="39.18111" lon="-0.22544">
        <time>2019-03-23T08:35:13Z</time>
      </trkpt>
      <trkpt lat="39.18117" lon="-0.22548">
        <time>2019-03-23T08:35:14Z</time>
      </trkpt>
      <trkpt lat="39.18124" lon="-0.22552">
        <time>2019-03-23T08:35:15Z</time>
      </trkpt>
      <trkpt lat="39.1813" lon="-0.22556">
        <time>2019-03-23T08:35:16Z</time>
      </trkpt>
      <trkpt lat="39.18135" lon="-0.22558">
        <time>2019-03-23T08:35:17Z</time>
      </trkpt>
      <trkpt lat="39.18141" lon="-0.22561">
        <time>2019-03-23T08:35:18Z</time>
      </trkpt>
      <trkpt lat="39.18146" lon="-0.22564">
        <time>2019-03-23T08:35:19Z</time>
      </trkpt>
      <trkpt lat="39.18152" lon="-0.22567">
        <time>2019-03-23T08:35:20Z</time>
      </trkpt>
      <trkpt lat="39.18158" lon="-0.22573">
        <time>2019-03-23T08:35:21Z</time>
      </trkpt>
      <trkpt lat="39.18164" lon="-0.22579">
        <time>2019-03-23T08:35:22Z</time>
      </trkpt>
      <trkpt lat="39.1817" lon="-0.22587">
        <time>2019-03-23T08:35:23Z</time>
      </trkpt>
      <trkpt lat="39.18173" lon="-0.22598">
        <time>2019-03-23T08:35:24Z</time>
      </trkpt>
      <trkpt lat="39.18176" lon="-0.2261">
        <time>2019-03-23T08:35:25Z</time>
      </trkpt>
      <trkpt lat="39.18178" lon="-0.22622">
        <time>2019-03-23T08:35:26Z</time>
      </trkpt>
      <trkpt lat="39.1818" lon="-0.22635">
        <time>2019-03-23T08:35:27Z</time>
      </trkpt>
      <trkpt lat="39.18183" lon="-0.2265">
        <time>2019-03-23T08:35:28Z</time>
      </trkpt>
      <trkpt lat="39.18186" lon="-0.22665">
        <time>2019-03-23T08:35:29Z</time>
      </trkpt>
      <trkpt lat="39.18188" lon="-0.22681">
        <time>2019-03-23T08:35:30Z</time>
      </trkpt>
      <trkpt lat="39.18191" lon="-0.22696">
        <time>2019-03-23T08:35:31Z</time>
      </trkpt>
      <trkpt lat="39.18194" lon="-0.22712">
        <time>2019-03-23T08:35:32Z</time>
      </trkpt>
      <trkpt lat="39.18196" lon="-0.22727">
        <time>2019-03-23T08:35:33Z</time>
      </trkpt>
      <trkpt lat="39.18198" lon="-0.22742">
        <time>2019-03-23T08:35:34Z</time>
      </trkpt>
      <trkpt lat="39.18199" lon="-0.22756">
        <time>2019-03-23T08:35:35Z</time>
      </trkpt>
      <trkpt lat="39.18199" lon="-0.2277">
        <time>2019-03-23T08:35:36Z</time>
      </trkpt>
      <trkpt lat="39.18195" lon="-0.22783">
        <time>2019-03-23T08:35:37Z</time>
      </trkpt>
      <trkpt lat="39.1819" lon="-0.22794">
        <time>2019-03-23T08:35:38Z</time>
      </trkpt>
      <trkpt lat="39.18182" lon="-0.22805">
        <time>2019-03-23T08:35:39Z</time>
      </trkpt>
      <trkpt lat="39.18171" lon="-0.22815">
        <time>2019-03-23T08:35:40Z</time>
      </trkpt>
      <trkpt lat="39.1816" lon="-0.22825">
        <time>2019-03-23T08:35:41Z</time>
      </trkpt>
      <trkpt lat="39.18149" lon="-0.22839">
        <time>2019-03-23T08:35:42Z</time>
      </trkpt>
      <trkpt lat="39.1814" lon="-0.22856">
        <time>2019-03-23T08:35:43Z</time>
      </trkpt>
      <trkpt lat="39.18133" lon="-0.22874">
        <time>2019-03-23T08:35:44Z</time>
      </trkpt>
      <trkpt lat="39.18125" lon="-0.22891">
        <time>2019-03-23T08:35:45Z</time>
      </trkpt>
      <trkpt lat="39.18117" lon="-0.22905">
        <time>2019-03-23T08:35:46Z</time>
      </trkpt>
      <trkpt lat="39.18109" lon="-0.22919">
        <time>2019-03-23T08:35:47Z</time>
      </trkpt>
      <trkpt lat="39.18103" lon="-0.22933">
        <time>2019-03-23T08:35:48Z</time>
      </trkpt>
      <trkpt lat="39.18098" lon="-0.22948">
        <time>2019-03-23T08:35:49Z</time>
      </trkpt>
      <trkpt lat="39.18095" lon="-0.22964">
        <time>2019-03-23T08:35:50Z</time>
      </trkpt>
      <trkpt lat="39.18094" lon="-0.22981">
        <time>2019-03-23T08:35:51Z</time>
      </trkpt>
      <trkpt lat="39.18095" lon="-0.22997">
        <time>2019-03-23T08:35:52Z</time>
      </trkpt>
      <trkpt lat="39.181" lon="-0.23012">
        <time>2019-03-23T08:35:53Z</time>
      </trkpt>
      <trkpt lat="39.18107" lon="-0.23027">
        <time>2019-03-23T08:35:54Z</time>
      </trkpt>
      <trkpt lat="39.18114" lon="-0.2304">
        <time>2019-03-23T08:35:55Z</time>
      </trkpt>
      <trkpt lat="39.18123" lon="-0.23052">
        <time>2019-03-23T08:35:56Z</time>
      </trkpt>
      <trkpt lat="39.18133" lon="-0.23062">
        <time>2019-03-23T08:35:57Z</time>
      </trkpt>
      <trkpt lat="39.18144" lon="-0.23069">
        <time>2019-03-23T08:35:58Z</time>
      </trkpt>
      <trkpt lat="39.18155" lon="-0.23076">
        <time>2019-03-23T08:35:59Z</time>
      </trkpt>
      <trkpt lat="39.18166" lon="-0.23083">
        <time>2019-03-23T08:36:00Z</time>
      </trkpt>
      <trkpt lat="39.18177" lon="-0.2309">
        <time>2019-03-23T08:36:01Z</time>
      </trkpt>
      <trkpt lat="39.18187" lon="-0.23099">
        <time>2019-03-23T08:36:02Z</time>
      </trkpt>
      <trkpt lat="39.18194" lon="-0.23109">
        <time>2019-03-23T08:36:03Z</time>
      </trkpt>
      <trkpt lat="39.182" lon="-0.23122">
        <time>2019-03-23T08:36:04Z</time>
      </trkpt>
      <trkpt lat="39.18204" lon="-0.23136">
        <time>2019-03-23T08:36:05Z</time>
      </trkpt>
      <trkpt lat="39.18209" lon="-0.23152">
        <time>2019-03-23T08:36:06Z</time>
      </trkpt>
      <trkpt lat="39.18214" lon="-0.23168">
        <time>2019-03-23T08:36:07Z</time>
      </trkpt>
      <trkpt lat="39.18218" lon="-0.23185">
        <time>2019-03-23T08:36:08Z</time>
      </trkpt>
      <trkpt lat="39.18222" lon="-0.23202">
        <time>2019-03-23T08:36:09Z</time>
      </trkpt>
      <trkpt lat="39.18227" lon="-0.2322">
        <time>2019-03-23T08:36:10Z</time>
      </trkpt>
      <trkpt lat="39.18232" lon="-0.23237">
        <time>2019-03-23T08:36:11Z</time>
      </trkpt>
      <trkpt lat="39.18236" lon="-0.23255">
        <time>2019-03-23T08:36:12Z</time>
      </trkpt>
      <trkpt lat="39.18238" lon="-0.23273">
        <time>2019-03-23T08:36:13Z</time>
      </trkpt>
      <trkpt lat="39.1824" lon="-0.2329">
        <time>2019-03-23T08:36:14Z</time>
      </trkpt>
      <trkpt lat="39.18242" lon="-0.23308">
        <time>2019-03-23T08:36:15Z</time>
      </trkpt>
      <trkpt lat="39.18243" lon="-0.23325">
        <time>2019-03-23T08:36:16Z</time>
      </trkpt>
      <trkpt lat="39.18244" lon="-0.23341">
        <time>2019-03-23T08:36:17Z</time>
      </trkpt>
      <trkpt lat="39.18246" lon="-0.23356">
        <time>2019-03-23T08:36:18Z</time>
      </trkpt>
      <trkpt lat="39.18247" lon="-0.23371">
        <time>2019-03-23T08:36:19Z</time>
      </trkpt>
      <trkpt lat="39.18248" lon="-0.23383">
        <time>2019-03-23T08:36:20Z</time>
      </trkpt>
      <trkpt lat="39.1825" lon="-0.23392">
        <time>2019-03-23T08:36:21Z</time>
      </trkpt>
      <trkpt lat="39.18254" lon="-0.234">
        <time>2019-03-23T08:36:22Z</time>
      </trkpt>
      <trkpt lat="39.18259" lon="-0.23406">
        <time>2019-03-23T08:36:23Z</time>
      </trkpt>
      <trkpt lat="39.18263" lon="-0.23412">
        <time>2019-03-23T08:36:24Z</time>
      </trkpt>
      <trkpt lat="39.18266" lon="-0.2342">
        <time>2019-03-23T08:36:25Z</time>
      </trkpt>
      <trkpt lat="39.18267" lon="-0.23429">
        <time>2019-03-23T08:36:26Z</time>
      </trkpt>
      <trkpt lat="39.18265" lon="-0.23438">
        <time>2019-03-23T08:36:27Z</time>
      </trkpt>
      <trkpt lat="39.18261" lon="-0.23448">
        <time>2019-03-23T08:36:28Z</time>
      </trkpt>
      <trkpt lat="39.18257" lon="-0.2346">
        <time>2019-03-23T08:36:29Z</time>
      </trkpt>
      <trkpt lat="39.18256" lon="-0.23474">
        <time>2019-03-23T08:36:30Z</time>
      </trkpt>
      <trkpt lat="39.18257" lon="-0.23489">
        <time>2019-03-23T08:36:31Z</time>
      </trkpt>
      <trkpt lat="39.18259" lon="-0.23505">
        <time>2019-03-23T08:36:32Z</time>
      </trkpt>
      <trkpt lat="39.1826" lon="-0.23521">
        <time>2019-03-23T08:36:33Z</time>
      </trkpt>
      <trkpt lat="39.1826" lon="-0.23536">
        <time>2019-03-23T08:36:34Z</time>
      </trkpt>
      <trkpt lat="39.18256" lon="-0.23551">
        <time>2019-03-23T08:36:35Z</time>
      </trkpt>
      <trkpt lat="39.18248" lon="-0.23565">
        <time>2019-03-23T08:36:36Z</time>
      </trkpt>
      <trkpt lat="39.18238" lon="-0.23576">
        <time>2019-03-23T08:36:37Z</time>
      </trkpt>
      <trkpt lat="39.18228" lon="-0.23587">
        <time>2019-03-23T08:36:38Z</time>
      </trkpt>
      <trkpt lat="39.18219" lon="-0.23597">
        <time>2019-03-23T08:36:39Z</time>
      </trkpt>
      <trkpt lat="39.18209" lon="-0.23606">
        <time>2019-03-23T08:36:40Z</time>
      </trkpt>
      <trkpt lat="39.182" lon="-0.23615">
        <time>2019-03-23T08:36:41Z</time>
      </trkpt>
      <trkpt lat="39.1819" lon="-0.23625">
        <time>2019-03-23T08:36:42Z</time>
      </trkpt>
      <trkpt lat="39.18182" lon="-0.23636">
        <time>2019-03-23T08:36:43Z</time>
      </trkpt>
      <trkpt lat="39.18174" lon="-0.2365">
        <time>2019-03-23T08:36:44Z</time>
      </trkpt>
      <trkpt lat="39.18166" lon="-0.23666">
        <time>2019-03-23T08:36:45Z</time>
      </trkpt>
      <trkpt lat="39.18159" lon="-0.23682">
        <time>2019-03-23T08:36:46Z</time>
      </trkpt>
      <trkpt lat="39.18151" lon="-0.23698">
        <time>2019-03-23T08:36:47Z</time>
      </trkpt>
      <trkpt lat="39.18143" lon="-0.23714">
        <time>2019-03-23T08:36:48Z</time>
      </trkpt>
      <trkpt lat="39.18136" lon="-0.2373">
        <time>2019-03-23T08:36:49Z</time>
      </trkpt>
      <trkpt lat="39.18128" lon="-0.23746">
        <time>2019-03-23T08:36:50Z</time>
      </trkpt>
      <trkpt lat="39.18119" lon="-0.23761">
        <time>2019-03-23T08:36:51Z</time>
      </trkpt>
      <trkpt lat="39.18108" lon="-0.23775">
        <time>2019-03-23T08:36:52Z</time>
      </trkpt>
      <trkpt lat="39.18095" lon="-0.23787">
        <time>2019-03-23T08:36:53Z</time>
      </trkpt>
      <trkpt lat="39.18081" lon="-0.23797">
        <time>2019-03-23T08:36:54Z</time>
      </trkpt>
      <trkpt lat="39.18068" lon="-0.23808">
        <time>2019-03-23T08:36:55Z</time>
      </trkpt>
      <trkpt lat="39.18055" lon="-0.23817">
        <time>2019-03-23T08:36:56Z</time>
      </trkpt>
      <trkpt lat="39.18042" lon="-0.23828">
        <time>2019-03-23T08:36:57Z</time>
      </trkpt>
      <trkpt lat="39.1803" lon="-0.23838">
        <time>2019-03-23T08:36:58Z</time>
      </trkpt>
      <trkpt lat="39.18017" lon="-0.23848">
        <time>2019-03-23T08:36:59Z</time>
      </trkpt>
      <trkpt lat="39.18004" lon="-0.23858">
        <time>2019-03-23T08:37:00Z</time>
      </trkpt>
      <trkpt lat="39.1799" lon="-0.23867">
        <time>2019-03-23T08:37:01Z</time>
      </trkpt>
      <trkpt lat="39.17976" lon="-0.23873">
        <time>2019-03-23T08:37:02Z</time>
      </trkpt>
      <trkpt lat="39.17961" lon="-0.23876">
        <time>2019-03-23T08:37:03Z</time>
      </trkpt>
      <trkpt lat="39.17947" lon="-0.23878">
        <time>2019-03-23T08:37:04Z</time>
      </trkpt>
      <trkpt lat="39.17934" lon="-0.23881">
        <time>2019-03-23T08:37:05Z</time>
      </trkpt>
      <trkpt lat="39.17922" lon="-0.23884">
        <time>2019-03-23T08:37:06Z</time>
      </trkpt>
      <trkpt lat="39.1791" lon="-0.23887">
        <time>2019-03-23T08:37:07Z</time>
      </trkpt>
      <trkpt lat="39.17899" lon="-0.23891">
        <time>2019-03-23T08:37:08Z</time>
      </trkpt>
      <trkpt lat="39.1789" lon="-0.23898">
        <time>2019-03-23T08:37:09Z</time>
      </trkpt>
      <trkpt lat="39.17883" lon="-0.23906">
        <time>2019-03-23T08:37:10Z</time>
      </trkpt>
      <trkpt lat="39.17878" lon="-0.23917">
        <time>2019-03-23T08:37:11Z</time>
      </trkpt>
      <trkpt lat="39.17872" lon="-0.23931">
        <time>2019-03-23T08:37:12Z</time>
      </trkpt>
      <trkpt lat="39.17865" lon="-0.23946">
        <time>2019-03-23T08:37:13Z</time>
      </trkpt>
      <trkpt lat="39.17858" lon="-0.23963">
        <time>2019-03-23T08:37:14Z</time>
      </trkpt>
      <trkpt lat="39.17848" lon="-0.23981">
        <time>2019-03-23T08:37:15Z</time>
      </trkpt>
      <trkpt lat="39.17835" lon="-0.23999">
        <time>2019-03-23T08:37:16Z</time>
      </trkpt>
      <trkpt lat="39.17821" lon="-0.24016">
        <time>2019-03-23T08:37:17Z</time>
      </trkpt>
      <trkpt lat="39.17807" lon="-0.24032">
        <time>2019-03-23T08:37:18Z</time>
      </trkpt>
      <trkpt lat="39.17792" lon="-0.24046">
        <time>2019-03-23T08:37:19Z</time>
      </trkpt>
      <trkpt lat="39.17778" lon="-0.24059">
        <time>2019-03-23T08:37:20Z</time>
      </trkpt>
      <trkpt lat="39.17763" lon="-0.24072">
        <time>2019-03-23T08:37:21Z</time>
      </trkpt>
      <trkpt lat="39.17751" lon="-0.24083">
        <time>2019-03-23T08:37:22Z</time>
      </trkpt>
      <trkpt lat="39.1774" lon="-0.24093">
        <time>2019-03-23T08:37:23Z</time>
      </trkpt>
      <trkpt lat="39.1773" lon="-0.24105">
        <time>2019-03-23T08:37:24Z</time>
      </trkpt>
      <trkpt lat="39.17723" lon="-0.24117">
        <time>2019-03-23T08:37:25Z</time>
      </trkpt>
      <trkpt lat="39.17717" lon="-0.2413">
        <time>2019-03-23T08:37:26Z</time>
      </trkpt>
      <trkpt lat="39.17713" lon="-0.24141">
        <time>2019-03-23T08:37:27Z</time>
      </trkpt>
      <trkpt lat="39.17707" lon="-0.24147">
        <time>2019-03-23T08:37:28Z</time>
      </trkpt>
      <trkpt lat="39.177" lon="-0.24151">
        <time>2019-03-23T08:37:29Z</time>
      </trkpt>
      <trkpt lat="39.17689" lon="-0.24151">
        <time>2019-03-23T08:37:30Z</time>
      </trkpt>
      <trkpt lat="39.17678" lon="-0.24152">
        <time>2019-03-23T08:37:31Z</time>
      </trkpt>
      <trkpt lat="39.17665" lon="-0.24156">
        <time>2019-03-23T08:37:32Z</time>
      </trkpt>
      <trkpt lat="39.17651" lon="-0.24159">
        <time>2019-03-23T08:37:33Z</time>
      </trkpt>
      <trkpt lat="39.17638" lon="-0.24159">
        <time>2019-03-23T08:37:34Z</time>
      </trkpt>
      <trkpt lat="39.17625" lon="-0.24156">
        <time>2019-03-23T08:37:35Z</time>
      </trkpt>
      <trkpt lat="39.17613" lon="-0.24152">
        <time>2019-03-23T08:37:36Z</time>
      </trkpt>
      <trkpt lat="39.17601" lon="-0.24147">
        <time>2019-03-23T08:37:37Z</time>
      </trkpt>
      <trkpt lat="39.1759" lon="-0.24141">
        <time>2019-03-23T08:37:38Z</time>
      </trkpt>
      <trkpt lat="39.17578" lon="-0.24137">
        <time>2019-03-23T08:37:39Z</time>
      </trkpt>
      <trkpt lat="39.17566" lon="-0.24136">
        <time>2019-03-23T08:37:40Z</time>
      </trkpt>
      <trkpt lat="39.17554" lon="-0.24138">
        <time>2019-03-23T08:37:41Z</time>
      </trkpt>
      <trkpt lat="39.17542" lon="-0.24141">
        <time>2019-03-23T08:37:42Z</time>
      </trkpt>
      <trkpt lat="39.17531" lon="-0.24145">
        <time>2019-03-23T08:37:43Z</time>
      </trkpt>
      <trkpt lat="39.17517" lon="-0.24151">
        <time>2019-03-23T08:37:44Z</time>
      </trkpt>
      <trkpt lat="39.17501" lon="-0.24158">
        <time>2019-03-23T08:37:45Z</time>
      </trkpt>
      <trkpt lat="39.17483" lon="-0.24167">
        <time>2019-03-23T08:37:46Z</time>
      </trkpt>
      <trkpt lat="39.17465" lon="-0.24178">
        <time>2019-03-23T08:37:47Z</time>
      </trkpt>
      <trkpt lat="39.17446" lon="-0.2419">
        <time>2019-03-23T08:37:48Z</time>
      </trkpt>
      <trkpt lat="39.17426" lon="-0.242">
        <time>2019-03-23T08:37:49Z</time>
      </trkpt>
      <trkpt lat="39.17406" lon="-0.24211">
        <time>2019-03-23T08:37:50Z</time>
      </trkpt>
      <trkpt lat="39.17385" lon="-0.24221">
        <time>2019-03-23T08:37:51Z</time>
      </trkpt>
      <trkpt lat="39.17366" lon="-0.24229">
        <time>2019-03-23T08:37:52Z</time>
      </trkpt>
      <trkpt lat="39.17348" lon="-0.24238">
        <time>2019-03-23T08:37:53Z</time>
      </trkpt>
      <trkpt lat="39.17333" lon="-0.24245">
        <time>2019-03-23T08:37:54Z</time>
      </trkpt>
      <trkpt lat="39.17321" lon="-0.2425">
        <time>2019-03-23T08:37:55Z</time>
      </trkpt>
      <trkpt lat="39.17311" lon="-0.24255">
        <time>2019-03-23T08:37:56Z</time>
      </trkpt>
      <trkpt lat="39.17302" lon="-0.24259">
        <time>2019-03-23T08:37:57Z</time>
      </trkpt>
      <trkpt lat="39.17295" lon="-0.24262">
        <time>2019-03-23T08:37:58Z</time>
      </trkpt>
      <trkpt lat="39.17288" lon="-0.24265">
        <time>2019-03-23T08:37:59Z</time>
      </trkpt>
      <trkpt lat="39.17281" lon="-0.24268">
        <time>2019-03-23T08:38:00Z</time>
      </trkpt>
      <trkpt lat="39.17272" lon="-0.24271">
        <time>2019-03-23T08:38:01Z</time>
      </trkpt>
      <trkpt lat="39.17263" lon="-0.24275">
        <time>2019-03-23T08:38:02Z</time>
      </trkpt>
      <trkpt lat="39.17253" lon="-0.2428">
        <time>2019-03-23T08:38:03Z</time>
      </trkpt>
      <trkpt lat="39.17243" lon="-0.24285">
        <time>2019-03-23T08:38:04Z</time>
      </trkpt>
      <trkpt lat="39.17233" lon="-0.24289">
        <time>2019-03-23T08:38:05Z</time>
      </trkpt>
      <trkpt lat="39.1722" lon="-0.24295">
        <time>2019-03-23T08:38:06Z</time>
      </trkpt>
      <trkpt lat="39.17207" lon="-0.24301">
        <time>2019-03-23T08:38:07Z</time>
      </trkpt>
      <trkpt lat="39.17194" lon="-0.24307">
        <time>2019-03-23T08:38:08Z</time>
      </trkpt>
      <trkpt lat="39.17181" lon="-0.24312">
        <time>2019-03-23T08:38:09Z</time>
      </trkpt>
      <trkpt lat="39.17169" lon="-0.24317">
        <time>2019-03-23T08:38:10Z</time>
      </trkpt>
      <trkpt lat="39.17157" lon="-0.24322">
        <time>2019-03-23T08:38:11Z</time>
      </trkpt>
      <trkpt lat="39.17145" lon="-0.24328">
        <time>2019-03-23T08:38:12Z</time>
      </trkpt>
      <trkpt lat="39.17133" lon="-0.24333">
        <time>2019-03-23T08:38:13Z</time>
      </trkpt>
      <trkpt lat="39.17122" lon="-0.24338">
        <time>2019-03-23T08:38:14Z</time>
      </trkpt>
      <trkpt lat="39.17111" lon="-0.2434">
        <time>2019-03-23T08:38:15Z</time>
      </trkpt>
      <trkpt lat="39.171" lon="-0.2434">
        <time>2019-03-23T08:38:16Z</time>
      </trkpt>
      <trkpt lat="39.17089" lon="-0.24337">
        <time>2019-03-23T08:38:17Z</time>
      </trkpt>
      <trkpt lat="39.17078" lon="-0.24334">
        <time>2019-03-23T08:38:18Z</time>
      </trkpt>
      <trkpt lat="39.17066" lon="-0.24329">
        <time>2019-03-23T08:38:19Z</time>
      </trkpt>
      <trkpt lat="39.17056" lon="-0.24324">
        <time>2019-03-23T08:38:20Z</time>
      </trkpt>
      <trkpt lat="39.17045" lon="-0.2432">
        <time>2019-03-23T08:38:21Z</time>
      </trkpt>
      <trkpt lat="39.17034" lon="-0.24316">
        <time>2019-03-23T08:38:22Z</time>
      </trkpt>
      <trkpt lat="39.17024" lon="-0.24313">
        <time>2019-03-23T08:38:23Z</time>
      </trkpt>
      <trkpt lat="39.17014" lon="-0.24309">
        <time>2019-03-23T08:38:24Z</time>
      </trkpt>
      <trkpt lat="39.17004" lon="-0.24307">
        <time>2019-03-23T08:38:25Z</time>
      </trkpt>
      <trkpt lat="39.16992" lon="-0.24307">
        <time>2019-03-23T08:38:26Z</time>
      </trkpt>
      <trkpt lat="39.16981" lon="-0.24307">
        <time>2019-03-23T08:38:27Z</time>
      </trkpt>
      <trkpt lat="39.16971" lon="-0.24309">
        <time>2019-03-23T08:38:28Z</time>
      </trkpt>
      <trkpt lat="39.16961" lon="-0.24312">
        <time>2019-03-23T08:38:29Z</time>
      </trkpt>
      <trkpt lat="39.16952" lon="-0.24315">
        <time>2019-03-23T08:38:30Z</time>
      </trkpt>
      <trkpt lat="39.16944" lon="-0.24318">
        <time>2019-03-23T08:38:31Z</time>
      </trkpt>
      <trkpt lat="39.16936" lon="-0.2432">
        <time>2019-03-23T08:38:32Z</time>
      </trkpt>
      <trkpt lat="39.1693" lon="-0.24321">
        <time>2019-03-23T08:38:33Z</time>
      </trkpt>
      <trkpt lat="39.16925" lon="-0.24323">
        <time>2019-03-23T08:38:34Z</time>
      </trkpt>
      <trkpt lat="39.1692" lon="-0.24324">
        <time>2019-03-23T08:38:35Z</time>
      </trkpt>
      <trkpt lat="39.16915" lon="-0.24326">
        <time>2019-03-23T08:38:36Z</time>
      </trkpt>
      <trkpt lat="39.16908" lon="-0.24327">
        <time>2019-03-23T08:38:37Z</time>
      </trkpt>
      <trkpt lat="39.16901" lon="-0.24329">
        <time>2019-03-23T08:38:38Z</time>
      </trkpt>
      <trkpt lat="39.16894" lon="-0.24332">
        <time>2019-03-23T08:38:39Z</time>
      </trkpt>
      <trkpt lat="39.16886" lon="-0.24334">
        <time>2019-03-23T08:38:40Z</time>
      </trkpt>
      <trkpt lat="39.16877" lon="-0.24338">
        <time>2019-03-23T08:38:41Z</time>
      </trkpt>
      <trkpt lat="39.16869" lon="-0.24341">
        <time>2019-03-23T08:38:42Z</time>
      </trkpt>
      <trkpt lat="39.16859" lon="-0.24344">
        <time>2019-03-23T08:38:43Z</time>
      </trkpt>
      <trkpt lat="39.1685" lon="-0.24347">
        <time>2019-03-23T08:38:44Z</time>
      </trkpt>
      <trkpt lat="39.1684" lon="-0.2435">
        <time>2019-03-23T08:38:45Z</time>
      </trkpt>
      <trkpt lat="39.1683" lon="-0.24354">
        <time>2019-03-23T08:38:46Z</time>
      </trkpt>
      <trkpt lat="39.16821" lon="-0.24358">
        <time>2019-03-23T08:38:47Z</time>
      </trkpt>
      <trkpt lat="39.16813" lon="-0.24362">
        <time>2019-03-23T08:38:48Z</time>
      </trkpt>
      <trkpt lat="39.16806" lon="-0.24367">
        <time>2019-03-23T08:38:49Z</time>
      </trkpt>
      <trkpt lat="39.16799" lon="-0.24371">
        <time>2019-03-23T08:38:50Z</time>
      </trkpt>
      <trkpt lat="39.16792" lon="-0.24376">
        <time>2019-03-23T08:38:51Z</time>
      </trkpt>
      <trkpt lat="39.16783" lon="-0.24381">
        <time>2019-03-23T08:38:52Z</time>
      </trkpt>
      <trkpt lat="39.16773" lon="-0.24386">
        <time>2019-03-23T08:38:53Z</time>
      </trkpt>
      <trkpt lat="39.16763" lon="-0.24391">
        <time>2019-03-23T08:38:54Z</time>
      </trkpt>
      <trkpt lat="39.16752" lon="-0.24395">
        <time>2019-03-23T08:38:55Z</time>
      </trkpt>
      <trkpt lat="39.16742" lon="-0.244">
        <time>2019-03-23T08:38:56Z</time>
      </trkpt>
      <trkpt lat="39.16733" lon="-0.24403">
        <time>2019-03-23T08:38:57Z</time>
      </trkpt>
      <trkpt lat="39.16724" lon="-0.24407">
        <time>2019-03-23T08:38:58Z</time>
      </trkpt>
      <trkpt lat="39.16715" lon="-0.2441">
        <time>2019-03-23T08:38:59Z</time>
      </trkpt>
      <trkpt lat="39.16706" lon="-0.24414">
        <time>2019-03-23T08:39:00Z</time>
      </trkpt>
      <trkpt lat="39.16696" lon="-0.24418">
        <time>2019-03-23T08:39:01Z</time>
      </trkpt>
      <trkpt lat="39.16687" lon="-0.24421">
        <time>2019-03-23T08:39:02Z</time>
      </trkpt>
      <trkpt lat="39.16678" lon="-0.24425">
        <time>2019-03-23T08:39:03Z</time>
      </trkpt>
      <trkpt lat="39.1667" lon="-0.24428">
        <time>2019-03-23T08:39:04Z</time>
      </trkpt>
      <trkpt lat="39.16661" lon="-0.24431">
        <time>2019-03-23T08:39:05Z</time>
      </trkpt>
      <trkpt lat="39.16651" lon="-0.24434">
        <time>2019-03-23T08:39:06Z</time>
      </trkpt>
      <trkpt lat="39.16641" lon="-0.2444">
        <time>2019-03-23T08:39:07Z</time>
      </trkpt>
      <trkpt lat="39.1663" lon="-0.24446">
        <time>2019-03-23T08:39:08Z</time>
      </trkpt>
      <trkpt lat="39.16619" lon="-0.24454">
        <time>2019-03-23T08:39:09Z</time>
      </trkpt>
      <trkpt lat="39.16609" lon="-0.24462">
        <time>2019-03-23T08:39:10Z</time>
      </trkpt>
      <trkpt lat="39.16599" lon="-0.24469">
        <time>2019-03-23T08:39:11Z</time>
      </trkpt>
      <trkpt lat="39.16589" lon="-0.24476">
        <time>2019-03-23T08:39:12Z</time>
      </trkpt>
      <trkpt lat="39.1658" lon="-0.24482">
        <time>2019-03-23T08:39:13Z</time>
      </trkpt>
      <trkpt lat="39.16572" lon="-0.24488">
        <time>2019-03-23T08:39:14Z</time>
      </trkpt>
      <trkpt lat="39.16567" lon="-0.24493">
        <time>2019-03-23T08:39:15Z</time>
      </trkpt>
      <trkpt lat="39.16563" lon="-0.24497">
        <time>2019-03-23T08:39:16Z</time>
      </trkpt>
      <trkpt lat="39.16564" lon="-0.24502">
        <time>2019-03-23T08:39:17Z</time>
      </trkpt>
      <trkpt lat="39.16566" lon="-0.24507">
        <time>2019-03-23T08:39:18Z</time>
      </trkpt>
      <trkpt lat="39.1657" lon="-0.24512">
        <time>2019-03-23T08:39:19Z</time>
      </trkpt>
      <trkpt lat="39.16574" lon="-0.24517">
        <time>2019-03-23T08:39:20Z</time>
      </trkpt>
      <trkpt lat="39.16586" lon="-0.24524">
        <time>2019-03-23T08:39:21Z</time>
      </trkpt>
      <trkpt lat="39.16594" lon="-0.2453">
        <time>2019-03-23T08:39:22Z</time>
      </trkpt>
      <trkpt lat="39.1661" lon="-0.24536">
        <time>2019-03-23T08:39:23Z</time>
      </trkpt>
      <trkpt lat="39.16624" lon="-0.24543">
        <time>2019-03-23T08:39:24Z</time>
      </trkpt>
      <trkpt lat="39.1664" lon="-0.2455">
        <time>2019-03-23T08:39:25Z</time>
      </trkpt>
      <trkpt lat="39.16657" lon="-0.24561">
        <time>2019-03-23T08:39:26Z</time>
      </trkpt>
      <trkpt lat="39.16674" lon="-0.2457">
        <time>2019-03-23T08:39:27Z</time>
      </trkpt>
      <trkpt lat="39.16688" lon="-0.24579">
        <time>2019-03-23T08:39:28Z</time>
      </trkpt>
      <trkpt lat="39.16702" lon="-0.24587">
        <time>2019-03-23T08:39:29Z</time>
      </trkpt>
      <trkpt lat="39.16713" lon="-0.24595">
        <time>2019-03-23T08:39:30Z</time>
      </trkpt>
      <trkpt lat="39.16725" lon="-0.24602">
        <time>2019-03-23T08:39:31Z</time>
      </trkpt>
      <trkpt lat="39.16733" lon="-0.24607">
        <time>2019-03-23T08:39:32Z</time>
      </trkpt>
      <trkpt lat="39.16739" lon="-0.2461">
        <time>2019-03-23T08:39:33Z</time>
      </trkpt>
      <trkpt lat="39.16746" lon="-0.24607">
        <time>2019-03-23T08:39:34Z</time>
      </trkpt>
      <trkpt lat="39.16752" lon="-0.24602">
        <time>2019-03-23T08:39:35Z</time>
      </trkpt>
      <trkpt lat="39.16757" lon="-0.24596">
        <time>2019-03-23T08:39:36Z</time>
      </trkpt>
      <trkpt lat="39.1676" lon="-0.24584">
        <time>2019-03-23T08:39:37Z</time>
      </trkpt>
      <trkpt lat="39.16762" lon="-0.2457">
        <time>2019-03-23T08:39:38Z</time>
      </trkpt>
      <trkpt lat="39.16763" lon="-0.24553">
        <time>2019-03-23T08:39:39Z</time>
      </trkpt>
      <trkpt lat="39.16763" lon="-0.24536">
        <time>2019-03-23T08:39:40Z</time>
      </trkpt>
      <trkpt lat="39.16764" lon="-0.24522">
        <time>2019-03-23T08:39:41Z</time>
      </trkpt>
      <trkpt lat="39.16769" lon="-0.24512">
        <time>2019-03-23T08:39:42Z</time>
      </trkpt>
      <trkpt lat="39.16775" lon="-0.24506">
        <time>2019-03-23T08:39:43Z</time>
      </trkpt>
      <trkpt lat="39.16783" lon="-0.24505">
        <time>2019-03-23T08:39:44Z</time>
      </trkpt>
      <trkpt lat="39.16793" lon="-0.24506">
        <time>2019-03-23T08:39:45Z</time>
      </trkpt>
      <trkpt lat="39.16805" lon="-0.24508">
        <time>2019-03-23T08:39:46Z</time>
      </trkpt>
      <trkpt lat="39.16817" lon="-0.24508">
        <time>2019-03-23T08:39:47Z</time>
      </trkpt>
      <trkpt lat="39.16828" lon="-0.24507">
        <time>2019-03-23T08:39:48Z</time>
      </trkpt>
      <trkpt lat="39.1684" lon="-0.24504">
        <time>2019-03-23T08:39:49Z</time>
      </trkpt>
      <trkpt lat="39.16851" lon="-0.245">
        <time>2019-03-23T08:39:50Z</time>
      </trkpt>
      <trkpt lat="39.16861" lon="-0.24499">
        <time>2019-03-23T08:39:51Z</time>
      </trkpt>
      <trkpt lat="39.1687" lon="-0.24502">
        <time>2019-03-23T08:39:52Z</time>
      </trkpt>
      <trkpt lat="39.16879" lon="-0.24509">
        <time>2019-03-23T08:39:53Z</time>
      </trkpt>
      <trkpt lat="39.16886" lon="-0.24521">
        <time>2019-03-23T08:39:54Z</time>
      </trkpt>
      <trkpt lat="39.16895" lon="-0.24531">
        <time>2019-03-23T08:39:55Z</time>
      </trkpt>
      <trkpt lat="39.16905" lon="-0.24538">
        <time>2019-03-23T08:39:56Z</time>
      </trkpt>
      <trkpt lat="39.16917" lon="-0.24542">
        <time>2019-03-23T08:39:57Z</time>
      </trkpt>
      <trkpt lat="39.16929" lon="-0.24542">
        <time>2019-03-23T08:39:58Z</time>
      </trkpt>
      <trkpt lat="39.16942" lon="-0.24537">
        <time>2019-03-23T08:39:59Z</time>
      </trkpt>
      <trkpt lat="39.16953" lon="-0.24528">
        <time>2019-03-23T08:40:00Z</time>
      </trkpt>
      <trkpt lat="39.16964" lon="-0.2452">
        <time>2019-03-23T08:40:01Z</time>
      </trkpt>
      <trkpt lat="39.16973" lon="-0.24514">
        <time>2019-03-23T08:40:02Z</time>
      </trkpt>
      <trkpt lat="39.1698" lon="-0.24513">
        <time>2019-03-23T08:40:03Z</time>
      </trkpt>
      <trkpt lat="39.16987" lon="-0.24516">
        <time>2019-03-23T08:40:04Z</time>
      </trkpt>
      <trkpt lat="39.1699" lon="-0.24524">
        <time>2019-03-23T08:40:05Z</time>
      </trkpt>
      <trkpt lat="39.1699" lon="-0.24532">
        <time>2019-03-23T08:40:06Z</time>
      </trkpt>
      <trkpt lat="39.16985" lon="-0.2454">
        <time>2019-03-23T08:40:07Z</time>
      </trkpt>
      <trkpt lat="39.16978" lon="-0.24547">
        <time>2019-03-23T08:40:08Z</time>
      </trkpt>
      <trkpt lat="39.16969" lon="-0.24555">
        <time>2019-03-23T08:40:09Z</time>
      </trkpt>
      <trkpt lat="39.16958" lon="-0.24564">
        <time>2019-03-23T08:40:10Z</time>
      </trkpt>
      <trkpt lat="39.16948" lon="-0.24574">
        <time>2019-03-23T08:40:11Z</time>
      </trkpt>
      <trkpt lat="39.16938" lon="-0.24584">
        <time>2019-03-23T08:40:12Z</time>
      </trkpt>
      <trkpt lat="39.16927" lon="-0.24593">
        <time>2019-03-23T08:40:13Z</time>
      </trkpt>
      <trkpt lat="39.16915" lon="-0.24598">
        <time>2019-03-23T08:40:14Z</time>
      </trkpt>
      <trkpt lat="39.16903" lon="-0.246">
        <time>2019-03-23T08:40:15Z</time>
      </trkpt>
      <trkpt lat="39.16894" lon="-0.24602">
        <time>2019-03-23T08:40:16Z</time>
      </trkpt>
      <trkpt lat="39.16888" lon="-0.24607">
        <time>2019-03-23T08:40:17Z</time>
      </trkpt>
      <trkpt lat="39.16887" lon="-0.24614">
        <time>2019-03-23T08:40:18Z</time>
      </trkpt>
      <trkpt lat="39.1689" lon="-0.2462">
        <time>2019-03-23T08:40:19Z</time>
      </trkpt>
      <trkpt lat="39.16896" lon="-0.24625">
        <time>2019-03-23T08:40:20Z</time>
      </trkpt>
      <trkpt lat="39.16905" lon="-0.24626">
        <time>2019-03-23T08:40:21Z</time>
      </trkpt>
      <trkpt lat="39.16915" lon="-0.24628">
        <time>2019-03-23T08:40:22Z</time>
      </trkpt>
      <trkpt lat="39.16925" lon="-0.24634">
        <time>2019-03-23T08:40:23Z</time>
      </trkpt>
      <trkpt lat="39.16935" lon="-0.2464">
        <time>2019-03-23T08:40:24Z</time>
      </trkpt>
      <trkpt lat="39.16944" lon="-0.24644">
        <time>2019-03-23T08:40:25Z</time>
      </trkpt>
      <trkpt lat="39.16952" lon="-0.24644">
        <time>2019-03-23T08:40:26Z</time>
      </trkpt>
      <trkpt lat="39.16959" lon="-0.24641">
        <time>2019-03-23T08:40:27Z</time>
      </trkpt>
      <trkpt lat="39.16967" lon="-0.24633">
        <time>2019-03-23T08:40:28Z</time>
      </trkpt>
      <trkpt lat="39.16974" lon="-0.24625">
        <time>2019-03-23T08:40:29Z</time>
      </trkpt>
      <trkpt lat="39.16982" lon="-0.24621">
        <time>2019-03-23T08:40:30Z</time>
      </trkpt>
      <trkpt lat="39.16988" lon="-0.24623">
        <time>2019-03-23T08:40:31Z</time>
      </trkpt>
      <trkpt lat="39.16992" lon="-0.24628">
        <time>2019-03-23T08:40:32Z</time>
      </trkpt>
      <trkpt lat="39.16994" lon="-0.24636">
        <time>2019-03-23T08:40:33Z</time>
      </trkpt>
      <trkpt lat="39.16993" lon="-0.24646">
        <time>2019-03-23T08:40:34Z</time>
      </trkpt>
      <trkpt lat="39.16993" lon="-0.24659">
        <time>2019-03-23T08:40:35Z</time>
      </trkpt>
      <trkpt lat="39.16996" lon="-0.24674">
        <time>2019-03-23T08:40:36Z</time>
      </trkpt>
      <trkpt lat="39.17001" lon="-0.2469">
        <time>2019-03-23T08:40:37Z</time>
      </trkpt>
      <trkpt lat="39.17007" lon="-0.24706">
        <time>2019-03-23T08:40:38Z</time>
      </trkpt>
      <trkpt lat="39.17014" lon="-0.24721">
        <time>2019-03-23T08:40:39Z</time>
      </trkpt>
      <trkpt lat="39.17024" lon="-0.24736">
        <time>2019-03-23T08:40:40Z</time>
      </trkpt>
      <trkpt lat="39.17036" lon="-0.24749">
        <time>2019-03-23T08:40:41Z</time>
      </trkpt>
      <trkpt lat="39.17048" lon="-0.24758">
        <time>2019-03-23T08:40:42Z</time>
      </trkpt>
      <trkpt lat="39.17058" lon="-0.24767">
        <time>2019-03-23T08:40:43Z</time>
      </trkpt>
      <trkpt lat="39.17065" lon="-0.24774">
        <time>2019-03-23T08:40:44Z</time>
      </trkpt>
      <trkpt lat="39.17072" lon="-0.24777">
        <time>2019-03-23T08:40:45Z</time>
      </trkpt>
      <trkpt lat="39.17078" lon="-0.24775">
        <time>2019-03-23T08:40:46Z</time>
      </trkpt>
      <trkpt lat="39.17082" lon="-0.24768">
        <time>2019-03-23T08:40:47Z</time>
      </trkpt>
      <trkpt lat="39.17082" lon="-0.24759">
        <time>2019-03-23T08:40:48Z</time>
      </trkpt>
      <trkpt lat="39.17082" lon="-0.24748">
        <time>2019-03-23T08:40:49Z</time>
      </trkpt>
      <trkpt lat="39.17083" lon="-0.24736">
        <time>2019-03-23T08:40:50Z</time>
      </trkpt>
      <trkpt lat="39.17084" lon="-0.24724">
        <time>2019-03-23T08:40:51Z</time>
      </trkpt>
      <trkpt lat="39.17087" lon="-0.24713">
        <time>2019-03-23T08:40:52Z</time>
      </trkpt>
      <trkpt lat="39.17093" lon="-0.24703">
        <time>2019-03-23T08:40:53Z</time>
      </trkpt>
      <trkpt lat="39.17099" lon="-0.24693">
        <time>2019-03-23T08:40:54Z</time>
      </trkpt>
      <trkpt lat="39.17106" lon="-0.24681">
        <time>2019-03-23T08:40:55Z</time>
      </trkpt>
      <trkpt lat="39.17113" lon="-0.24669">
        <time>2019-03-23T08:40:56Z</time>
      </trkpt>
      <trkpt lat="39.17121" lon="-0.24657">
        <time>2019-03-23T08:40:57Z</time>
      </trkpt>
      <trkpt lat="39.17127" lon="-0.24647">
        <time>2019-03-23T08:40:58Z</time>
      </trkpt>
      <trkpt lat="39.17134" lon="-0.24642">
        <time>2019-03-23T08:40:59Z</time>
      </trkpt>
      <trkpt lat="39.17141" lon="-0.24641">
        <time>2019-03-23T08:41:00Z</time>
      </trkpt>
      <trkpt lat="39.17145" lon="-0.24645">
        <time>2019-03-23T08:41:01Z</time>
      </trkpt>
      <trkpt lat="39.17147" lon="-0.24652">
        <time>2019-03-23T08:41:02Z</time>
      </trkpt>
      <trkpt lat="39.17145" lon="-0.24658">
        <time>2019-03-23T08:41:03Z</time>
      </trkpt>
      <trkpt lat="39.17139" lon="-0.24662">
        <time>2019-03-23T08:41:04Z</time>
      </trkpt>
      <trkpt lat="39.17131" lon="-0.24668">
        <time>2019-03-23T08:41:05Z</time>
      </trkpt>
      <trkpt lat="39.17125" lon="-0.24676">
        <time>2019-03-23T08:41:06Z</time>
      </trkpt>
      <trkpt lat="39.1712" lon="-0.2469">
        <time>2019-03-23T08:41:07Z</time>
      </trkpt>
      <trkpt lat="39.17114" lon="-0.24704">
        <time>2019-03-23T08:41:08Z</time>
      </trkpt>
      <trkpt lat="39.17109" lon="-0.24717">
        <time>2019-03-23T08:41:09Z</time>
      </trkpt>
      <trkpt lat="39.17108" lon="-0.24729">
        <time>2019-03-23T08:41:10Z</time>
      </trkpt>
      <trkpt lat="39.1711" lon="-0.24742">
        <time>2019-03-23T08:41:11Z</time>
      </trkpt>
      <trkpt lat="39.17116" lon="-0.24754">
        <time>2019-03-23T08:41:12Z</time>
      </trkpt>
      <trkpt lat="39.17124" lon="-0.24767">
        <time>2019-03-23T08:41:13Z</time>
      </trkpt>
      <trkpt lat="39.17132" lon="-0.24782">
        <time>2019-03-23T08:41:14Z</time>
      </trkpt>
      <trkpt lat="39.17139" lon="-0.24795">
        <time>2019-03-23T08:41:15Z</time>
      </trkpt>
      <trkpt lat="39.17142" lon="-0.2481">
        <time>2019-03-23T08:41:16Z</time>
      </trkpt>
      <trkpt lat="39.17141" lon="-0.24826">
        <time>2019-03-23T08:41:17Z</time>
      </trkpt>
      <trkpt lat="39.17139" lon="-0.2484">
        <time>2019-03-23T08:41:18Z</time>
      </trkpt>
      <trkpt lat="39.17136" lon="-0.24852">
        <time>2019-03-23T08:41:19Z</time>
      </trkpt>
      <trkpt lat="39.17131" lon="-0.24861">
        <time>2019-03-23T08:41:20Z</time>
      </trkpt>
      <trkpt lat="39.17125" lon="-0.24866">
        <time>2019-03-23T08:41:21Z</time>
      </trkpt>
      <trkpt lat="39.17118" lon="-0.24871">
        <time>2019-03-23T08:41:22Z</time>
      </trkpt>
      <trkpt lat="39.17107" lon="-0.24865">
        <time>2019-03-23T08:41:23Z</time>
      </trkpt>
      <trkpt lat="39.17097" lon="-0.24863">
        <time>2019-03-23T08:41:24Z</time>
      </trkpt>
      <trkpt lat="39.17085" lon="-0.24863">
        <time>2019-03-23T08:41:25Z</time>
      </trkpt>
      <trkpt lat="39.17073" lon="-0.24864">
        <time>2019-03-23T08:41:26Z</time>
      </trkpt>
      <trkpt lat="39.17064" lon="-0.24866">
        <time>2019-03-23T08:41:27Z</time>
      </trkpt>
      <trkpt lat="39.17058" lon="-0.24871">
        <time>2019-03-23T08:41:28Z</time>
      </trkpt>
      <trkpt lat="39.17055" lon="-0.24879">
        <time>2019-03-23T08:41:29Z</time>
      </trkpt>
      <trkpt lat="39.17054" lon="-0.24892">
        <time>2019-03-23T08:41:30Z</time>
      </trkpt>
      <trkpt lat="39.17052" lon="-0.24908">
        <time>2019-03-23T08:41:31Z</time>
      </trkpt>
      <trkpt lat="39.17051" lon="-0.24926">
        <time>2019-03-23T08:41:32Z</time>
      </trkpt>
      <trkpt lat="39.17053" lon="-0.24945">
        <time>2019-03-23T08:41:33Z</time>
      </trkpt>
      <trkpt lat="39.17055" lon="-0.24965">
        <time>2019-03-23T08:41:34Z</time>
      </trkpt>
      <trkpt lat="39.17058" lon="-0.24986">
        <time>2019-03-23T08:41:35Z</time>
      </trkpt>
      <trkpt lat="39.17058" lon="-0.25007">
        <time>2019-03-23T08:41:36Z</time>
      </trkpt>
      <trkpt lat="39.17055" lon="-0.25027">
        <time>2019-03-23T08:41:37Z</time>
      </trkpt>
      <trkpt lat="39.17051" lon="-0.25044">
        <time>2019-03-23T08:41:38Z</time>
      </trkpt>
      <trkpt lat="39.17044" lon="-0.25057">
        <time>2019-03-23T08:41:39Z</time>
      </trkpt>
      <trkpt lat="39.17035" lon="-0.25066">
        <time>2019-03-23T08:41:40Z</time>
      </trkpt>
      <trkpt lat="39.17023" lon="-0.25075">
        <time>2019-03-23T08:41:41Z</time>
      </trkpt>
      <trkpt lat="39.17014" lon="-0.25088">
        <time>2019-03-23T08:41:42Z</time>
      </trkpt>
      <trkpt lat="39.17004" lon="-0.25103">
        <time>2019-03-23T08:41:43Z</time>
      </trkpt>
      <trkpt lat="39.16991" lon="-0.25118">
        <time>2019-03-23T08:41:44Z</time>
      </trkpt>
      <trkpt lat="39.16976" lon="-0.25131">
        <time>2019-03-23T08:41:45Z</time>
      </trkpt>
      <trkpt lat="39.16961" lon="-0.25142">
        <time>2019-03-23T08:41:46Z</time>
      </trkpt>
      <trkpt lat="39.16949" lon="-0.25152">
        <time>2019-03-23T08:41:47Z</time>
      </trkpt>
      <trkpt lat="39.16938" lon="-0.25161">
        <time>2019-03-23T08:41:48Z</time>
      </trkpt>
      <trkpt lat="39.16928" lon="-0.25167">
        <time>2019-03-23T08:41:49Z</time>
      </trkpt>
      <trkpt lat="39.16922" lon="-0.25172">
        <time>2019-03-23T08:41:50Z</time>
      </trkpt>
      <trkpt lat="39.16918" lon="-0.25179">
        <time>2019-03-23T08:41:51Z</time>
      </trkpt>
      <trkpt lat="39.16919" lon="-0.25185">
        <time>2019-03-23T08:41:52Z</time>
      </trkpt>
      <trkpt lat="39.16924" lon="-0.25189">
        <time>2019-03-23T08:41:53Z</time>
      </trkpt>
      <trkpt lat="39.1693" lon="-0.25188">
        <time>2019-03-23T08:41:54Z</time>
      </trkpt>
      <trkpt lat="39.16937" lon="-0.25182">
        <time>2019-03-23T08:41:55Z</time>
      </trkpt>
      <trkpt lat="39.16946" lon="-0.25172">
        <time>2019-03-23T08:41:56Z</time>
      </trkpt>
      <trkpt lat="39.16957" lon="-0.25164">
        <time>2019-03-23T08:41:57Z</time>
      </trkpt>
      <trkpt lat="39.16971" lon="-0.25158">
        <time>2019-03-23T08:41:58Z</time>
      </trkpt>
      <trkpt lat="39.16986" lon="-0.25153">
        <time>2019-03-23T08:41:59Z</time>
      </trkpt>
      <trkpt lat="39.17001" lon="-0.25148">
        <time>2019-03-23T08:42:00Z</time>
      </trkpt>
      <trkpt lat="39.17015" lon="-0.25143">
        <time>2019-03-23T08:42:01Z</time>
      </trkpt>
      <trkpt lat="39.17027" lon="-0.25139">
        <time>2019-03-23T08:42:02Z</time>
      </trkpt>
      <trkpt lat="39.17036" lon="-0.25137">
        <time>2019-03-23T08:42:03Z</time>
      </trkpt>
      <trkpt lat="39.17044" lon="-0.25139">
        <time>2019-03-23T08:42:04Z</time>
      </trkpt>
      <trkpt lat="39.17051" lon="-0.25144">
        <time>2019-03-23T08:42:05Z</time>
      </trkpt>
      <trkpt lat="39.17056" lon="-0.25151">
        <time>2019-03-23T08:42:06Z</time>
      </trkpt>
      <trkpt lat="39.17057" lon="-0.25158">
        <time>2019-03-23T08:42:07Z</time>
      </trkpt>
      <trkpt lat="39.17056" lon="-0.25166">
        <time>2019-03-23T08:42:08Z</time>
      </trkpt>
      <trkpt lat="39.17052" lon="-0.25175">
        <time>2019-03-23T08:42:09Z</time>
      </trkpt>
      <trkpt lat="39.17046" lon="-0.25182">
        <time>2019-03-23T08:42:10Z</time>
      </trkpt>
      <trkpt lat="39.17038" lon="-0.25192">
        <time>2019-03-23T08:42:11Z</time>
      </trkpt>
      <trkpt lat="39.17032" lon="-0.25205">
        <time>2019-03-23T08:42:12Z</time>
      </trkpt>
      <trkpt lat="39.17025" lon="-0.25221">
        <time>2019-03-23T08:42:13Z</time>
      </trkpt>
      <trkpt lat="39.17017" lon="-0.25237">
        <time>2019-03-23T08:42:14Z</time>
      </trkpt>
      <trkpt lat="39.1701" lon="-0.25253">
        <time>2019-03-23T08:42:15Z</time>
      </trkpt>
      <trkpt lat="39.17004" lon="-0.25268">
        <time>2019-03-23T08:42:16Z</time>
      </trkpt>
      <trkpt lat="39.17" lon="-0.25285">
        <time>2019-03-23T08:42:17Z</time>
      </trkpt>
      <trkpt lat="39.16998" lon="-0.25301">
        <time>2019-03-23T08:42:18Z</time>
      </trkpt>
      <trkpt lat="39.16999" lon="-0.25316">
        <time>2019-03-23T08:42:19Z</time>
      </trkpt>
      <trkpt lat="39.17003" lon="-0.25331">
        <time>2019-03-23T08:42:20Z</time>
      </trkpt>
      <trkpt lat="39.1701" lon="-0.25347">
        <time>2019-03-23T08:42:21Z</time>
      </trkpt>
      <trkpt lat="39.17017" lon="-0.25363">
        <time>2019-03-23T08:42:22Z</time>
      </trkpt>
      <trkpt lat="39.17025" lon="-0.2538">
        <time>2019-03-23T08:42:23Z</time>
      </trkpt>
      <trkpt lat="39.17032" lon="-0.25395">
        <time>2019-03-23T08:42:24Z</time>
      </trkpt>
      <trkpt lat="39.17038" lon="-0.25409">
        <time>2019-03-23T08:42:25Z</time>
      </trkpt>
      <trkpt lat="39.17044" lon="-0.25422">
        <time>2019-03-23T08:42:26Z</time>
      </trkpt>
      <trkpt lat="39.1705" lon="-0.25433">
        <time>2019-03-23T08:42:27Z</time>
      </trkpt>
      <trkpt lat="39.17058" lon="-0.25443">
        <time>2019-03-23T08:42:28Z</time>
      </trkpt>
      <trkpt lat="39.17069" lon="-0.25447">
        <time>2019-03-23T08:42:29Z</time>
      </trkpt>
      <trkpt lat="39.1708" lon="-0.25448">
        <time>2019-03-23T08:42:30Z</time>
      </trkpt>
      <trkpt lat="39.17094" lon="-0.25446">
        <time>2019-03-23T08:42:31Z</time>
      </trkpt>
      <trkpt lat="39.17107" lon="-0.25444">
        <time>2019-03-23T08:42:32Z</time>
      </trkpt>
      <trkpt lat="39.17121" lon="-0.25446">
        <time>2019-03-23T08:42:33Z</time>
      </trkpt>
      <trkpt lat="39.17134" lon="-0.25448">
        <time>2019-03-23T08:42:34Z</time>
      </trkpt>
      <trkpt lat="39.17145" lon="-0.25449">
        <time>2019-03-23T08:42:35Z</time>
      </trkpt>
      <trkpt lat="39.17156" lon="-0.25446">
        <time>2019-03-23T08:42:36Z</time>
      </trkpt>
      <trkpt lat="39.17167" lon="-0.2544">
        <time>2019-03-23T08:42:37Z</time>
      </trkpt>
      <trkpt lat="39.17181" lon="-0.25433">
        <time>2019-03-23T08:42:38Z</time>
      </trkpt>
      <trkpt lat="39.17196" lon="-0.25425">
        <time>2019-03-23T08:42:39Z</time>
      </trkpt>
      <trkpt lat="39.17212" lon="-0.25417">
        <time>2019-03-23T08:42:40Z</time>
      </trkpt>
      <trkpt lat="39.17229" lon="-0.25408">
        <time>2019-03-23T08:42:41Z</time>
      </trkpt>
      <trkpt lat="39.17246" lon="-0.254">
        <time>2019-03-23T08:42:42Z</time>
      </trkpt>
      <trkpt lat="39.17263" lon="-0.25391">
        <time>2019-03-23T08:42:43Z</time>
      </trkpt>
      <trkpt lat="39.17278" lon="-0.25383">
        <time>2019-03-23T08:42:44Z</time>
      </trkpt>
      <trkpt lat="39.17289" lon="-0.25376">
        <time>2019-03-23T08:42:45Z</time>
      </trkpt>
      <trkpt lat="39.17295" lon="-0.25369">
        <time>2019-03-23T08:42:46Z</time>
      </trkpt>
      <trkpt lat="39.17298" lon="-0.25361">
        <time>2019-03-23T08:42:47Z</time>
      </trkpt>
      <trkpt lat="39.17299" lon="-0.25351">
        <time>2019-03-23T08:42:48Z</time>
      </trkpt>
      <trkpt lat="39.17298" lon="-0.25339">
        <time>2019-03-23T08:42:49Z</time>
      </trkpt>
      <trkpt lat="39.17296" lon="-0.25327">
        <time>2019-03-23T08:42:50Z</time>
      </trkpt>
      <trkpt lat="39.17294" lon="-0.25313">
        <time>2019-03-23T08:42:51Z</time>
      </trkpt>
      <trkpt lat="39.17291" lon="-0.253">
        <time>2019-03-23T08:42:52Z</time>
      </trkpt>
      <trkpt lat="39.17289" lon="-0.25288">
        <time>2019-03-23T08:42:53Z</time>
      </trkpt>
      <trkpt lat="39.17288" lon="-0.25275">
        <time>2019-03-23T08:42:54Z</time>
      </trkpt>
      <trkpt lat="39.17288" lon="-0.25263">
        <time>2019-03-23T08:42:55Z</time>
      </trkpt>
      <trkpt lat="39.17291" lon="-0.25251">
        <time>2019-03-23T08:42:56Z</time>
      </trkpt>
      <trkpt lat="39.17297" lon="-0.2524">
        <time>2019-03-23T08:42:57Z</time>
      </trkpt>
      <trkpt lat="39.17305" lon="-0.25229">
        <time>2019-03-23T08:42:58Z</time>
      </trkpt>
      <trkpt lat="39.17314" lon="-0.25218">
        <time>2019-03-23T08:42:59Z</time>
      </trkpt>
      <trkpt lat="39.17322" lon="-0.2521">
        <time>2019-03-23T08:43:00Z</time>
      </trkpt>
      <trkpt lat="39.17332" lon="-0.25204">
        <time>2019-03-23T08:43:01Z</time>
      </trkpt>
      <trkpt lat="39.17343" lon="-0.25198">
        <time>2019-03-23T08:43:02Z</time>
      </trkpt>
      <trkpt lat="39.17353" lon="-0.25192">
        <time>2019-03-23T08:43:03Z</time>
      </trkpt>
      <trkpt lat="39.17363" lon="-0.25187">
        <time>2019-03-23T08:43:04Z</time>
      </trkpt>
      <trkpt lat="39.17373" lon="-0.25184">
        <time>2019-03-23T08:43:05Z</time>
      </trkpt>
      <trkpt lat="39.17383" lon="-0.2518">
        <time>2019-03-23T08:43:06Z</time>
      </trkpt>
      <trkpt lat="39.17394" lon="-0.25176">
        <time>2019-03-23T08:43:07Z</time>
      </trkpt>
      <trkpt lat="39.17406" lon="-0.25173">
        <time>2019-03-23T08:43:08Z</time>
      </trkpt>
      <trkpt lat="39.17419" lon="-0.25169">
        <time>2019-03-23T08:43:09Z</time>
      </trkpt>
      <trkpt lat="39.17432" lon="-0.25165">
        <time>2019-03-23T08:43:10Z</time>
      </trkpt>
      <trkpt lat="39.17445" lon="-0.2516">
        <time>2019-03-23T08:43:11Z</time>
      </trkpt>
      <trkpt lat="39.17458" lon="-0.25154">
        <time>2019-03-23T08:43:12Z</time>
      </trkpt>
      <trkpt lat="39.17471" lon="-0.25148">
        <time>2019-03-23T08:43:13Z</time>
      </trkpt>
      <trkpt lat="39.17481" lon="-0.25142">
        <time>2019-03-23T08:43:14Z</time>
      </trkpt>
      <trkpt lat="39.1749" lon="-0.25138">
        <time>2019-03-23T08:43:15Z</time>
      </trkpt>
      <trkpt lat="39.17498" lon="-0.25135">
        <time>2019-03-23T08:43:16Z</time>
      </trkpt>
      <trkpt lat="39.17505" lon="-0.25133">
        <time>2019-03-23T08:43:17Z</time>
      </trkpt>
      <trkpt lat="39.17513" lon="-0.25132">
        <time>2019-03-23T08:43:18Z</time>
      </trkpt>
      <trkpt lat="39.17522" lon="-0.25131">
        <time>2019-03-23T08:43:19Z</time>
      </trkpt>
      <trkpt lat="39.17531" lon="-0.25131">
        <time>2019-03-23T08:43:20Z</time>
      </trkpt>
      <trkpt lat="39.1754" lon="-0.2513">
        <time>2019-03-23T08:43:21Z</time>
      </trkpt>
      <trkpt lat="39.1755" lon="-0.25128">
        <time>2019-03-23T08:43:22Z</time>
      </trkpt>
      <trkpt lat="39.1756" lon="-0.25125">
        <time>2019-03-23T08:43:23Z</time>
      </trkpt>
      <trkpt lat="39.17568" lon="-0.25121">
        <time>2019-03-23T08:43:24Z</time>
      </trkpt>
      <trkpt lat="39.17575" lon="-0.25115">
        <time>2019-03-23T08:43:25Z</time>
      </trkpt>
      <trkpt lat="39.17579" lon="-0.25108">
        <time>2019-03-23T08:43:26Z</time>
      </trkpt>
      <trkpt lat="39.17583" lon="-0.25098">
        <time>2019-03-23T08:43:27Z</time>
      </trkpt>
      <trkpt lat="39.17586" lon="-0.2509">
        <time>2019-03-23T08:43:28Z</time>
      </trkpt>
      <trkpt lat="39.1759" lon="-0.25085">
        <time>2019-03-23T08:43:29Z</time>
      </trkpt>
      <trkpt lat="39.17594" lon="-0.25083">
        <time>2019-03-23T08:43:30Z</time>
      </trkpt>
      <trkpt lat="39.17597" lon="-0.25083">
        <time>2019-03-23T08:43:31Z</time>
      </trkpt>
      <trkpt lat="39.17599" lon="-0.25084">
        <time>2019-03-23T08:43:32Z</time>
      </trkpt>
      <trkpt lat="39.17601" lon="-0.25086">
        <time>2019-03-23T08:43:33Z</time>
      </trkpt>
      <trkpt lat="39.17603" lon="-0.25089">
        <time>2019-03-23T08:43:34Z</time>
      </trkpt>
      <trkpt lat="39.17606" lon="-0.2509">
        <time>2019-03-23T08:43:35Z</time>
      </trkpt>
      <trkpt lat="39.17608" lon="-0.25091">
        <time>2019-03-23T08:43:36Z</time>
      </trkpt>
      <trkpt lat="39.1761" lon="-0.2509">
        <time>2019-03-23T08:43:37Z</time>
      </trkpt>
      <trkpt lat="39.17611" lon="-0.25089">
        <time>2019-03-23T08:43:38Z</time>
      </trkpt>
      <trkpt lat="39.17611" lon="-0.25089">
        <time>2019-03-23T08:44:30Z</time>
      </trkpt>
      <trkpt lat="39.17611" lon="-0.25089">
        <time>2019-03-23T08:44:31Z</time>
      </trkpt>
      <trkpt lat="39.17611" lon="-0.25088">
        <time>2019-03-23T08:44:34Z</time>
      </trkpt>
      <trkpt lat="39.17611" lon="-0.25085">
        <time>2019-03-23T08:44:36Z</time>
      </trkpt>
      <trkpt lat="39.1761" lon="-0.25082">
        <time>2019-03-23T08:44:39Z</time>
      </trkpt>
      <trkpt lat="39.17608" lon="-0.25081">
        <time>2019-03-23T08:44:40Z</time>
      </trkpt>
      <trkpt lat="39.17607" lon="-0.25081">
        <time>2019-03-23T08:44:41Z</time>
      </trkpt>
      <trkpt lat="39.17606" lon="-0.2508">
        <time>2019-03-23T08:44:42Z</time>
      </trkpt>
      <trkpt lat="39.17605" lon="-0.25079">
        <time>2019-03-23T08:44:44Z</time>
      </trkpt>
      <trkpt lat="39.17605" lon="-0.25078">
        <time>2019-03-23T08:44:52Z</time>
      </trkpt>
      <trkpt lat="39.17607" lon="-0.25081">
        <time>2019-03-23T08:44:59Z</time>
      </trkpt>
      <trkpt lat="39.17609" lon="-0.25085">
        <time>2019-03-23T08:45:48Z</time>
      </trkpt>
      <trkpt lat="39.17609" lon="-0.25086">
        <time>2019-03-23T08:45:49Z</time>
      </trkpt>
      <trkpt lat="39.17609" lon="-0.25088">
        <time>2019-03-23T08:45:50Z</time>
      </trkpt>
      <trkpt lat="39.1761" lon="-0.25089">
        <time>2019-03-23T08:45:51Z</time>
      </trkpt>
      <trkpt lat="39.17609" lon="-0.25091">
        <time>2019-03-23T08:45:59Z</time>
      </trkpt>
      <trkpt lat="39.1761" lon="-0.25091">
        <time>2019-03-23T08:46:01Z</time>
      </trkpt>
      <trkpt lat="39.17612" lon="-0.25091">
        <time>2019-03-23T08:46:03Z</time>
      </trkpt>
      <trkpt lat="39.17613" lon="-0.25091">
        <time>2019-03-23T08:46:04Z</time>
      </trkpt>
      <trkpt lat="39.17615" lon="-0.25091">
        <time>2019-03-23T08:46:07Z</time>
      </trkpt>
      <trkpt lat="39.17613" lon="-0.25087">
        <time>2019-03-23T08:46:29Z</time>
      </trkpt>
      <trkpt lat="39.1761" lon="-0.25086">
        <time>2019-03-23T08:48:21Z</time>
      </trkpt>
      <trkpt lat="39.17609" lon="-0.25083">
        <time>2019-03-23T08:48:22Z</time>
      </trkpt>
      <trkpt lat="39.17607" lon="-0.25082">
        <time>2019-03-23T08:48:23Z</time>
      </trkpt>
      <trkpt lat="39.17603" lon="-0.25083">
        <time>2019-03-23T08:48:24Z</time>
      </trkpt>
      <trkpt lat="39.176" lon="-0.25084">
        <time>2019-03-23T08:48:25Z</time>
      </trkpt>
      <trkpt lat="39.17597" lon="-0.25084">
        <time>2019-03-23T08:48:26Z</time>
      </trkpt>
      <trkpt lat="39.17592" lon="-0.25085">
        <time>2019-03-23T08:48:27Z</time>
      </trkpt>
      <trkpt lat="39.17588" lon="-0.25088">
        <time>2019-03-23T08:48:28Z</time>
      </trkpt>
      <trkpt lat="39.17586" lon="-0.25092">
        <time>2019-03-23T08:48:29Z</time>
      </trkpt>
      <trkpt lat="39.17584" lon="-0.25097">
        <time>2019-03-23T08:48:30Z</time>
      </trkpt>
      <trkpt lat="39.17582" lon="-0.25102">
        <time>2019-03-23T08:48:31Z</time>
      </trkpt>
      <trkpt lat="39.1758" lon="-0.25108">
        <time>2019-03-23T08:48:32Z</time>
      </trkpt>
      <trkpt lat="39.17578" lon="-0.25113">
        <time>2019-03-23T08:48:33Z</time>
      </trkpt>
      <trkpt lat="39.17573" lon="-0.25118">
        <time>2019-03-23T08:48:34Z</time>
      </trkpt>
      <trkpt lat="39.17568" lon="-0.25121">
        <time>2019-03-23T08:48:35Z</time>
      </trkpt>
      <trkpt lat="39.17561" lon="-0.25123">
        <time>2019-03-23T08:48:36Z</time>
      </trkpt>
      <trkpt lat="39.17554" lon="-0.25125">
        <time>2019-03-23T08:48:37Z</time>
      </trkpt>
      <trkpt lat="39.17547" lon="-0.25128">
        <time>2019-03-23T08:48:38Z</time>
      </trkpt>
      <trkpt lat="39.17539" lon="-0.25129">
        <time>2019-03-23T08:48:39Z</time>
      </trkpt>
      <trkpt lat="39.17531" lon="-0.2513">
        <time>2019-03-23T08:48:40Z</time>
      </trkpt>
      <trkpt lat="39.17523" lon="-0.2513">
        <time>2019-03-23T08:48:41Z</time>
      </trkpt>
      <trkpt lat="39.17514" lon="-0.25129">
        <time>2019-03-23T08:48:42Z</time>
      </trkpt>
      <trkpt lat="39.17504" lon="-0.2513">
        <time>2019-03-23T08:48:43Z</time>
      </trkpt>
      <trkpt lat="39.17495" lon="-0.25134">
        <time>2019-03-23T08:48:44Z</time>
      </trkpt>
      <trkpt lat="39.17486" lon="-0.25138">
        <time>2019-03-23T08:48:45Z</time>
      </trkpt>
      <trkpt lat="39.17478" lon="-0.25143">
        <time>2019-03-23T08:48:46Z</time>
      </trkpt>
      <trkpt lat="39.17468" lon="-0.25148">
        <time>2019-03-23T08:48:47Z</time>
      </trkpt>
      <trkpt lat="39.1746" lon="-0.25153">
        <time>2019-03-23T08:48:48Z</time>
      </trkpt>
      <trkpt lat="39.1745" lon="-0.25157">
        <time>2019-03-23T08:48:49Z</time>
      </trkpt>
      <trkpt lat="39.1744" lon="-0.25161">
        <time>2019-03-23T08:48:50Z</time>
      </trkpt>
      <trkpt lat="39.17428" lon="-0.25164">
        <time>2019-03-23T08:48:51Z</time>
      </trkpt>
      <trkpt lat="39.17415" lon="-0.25167">
        <time>2019-03-23T08:48:52Z</time>
      </trkpt>
      <trkpt lat="39.17402" lon="-0.2517">
        <time>2019-03-23T08:48:53Z</time>
      </trkpt>
      <trkpt lat="39.17389" lon="-0.25172">
        <time>2019-03-23T08:48:54Z</time>
      </trkpt>
      <trkpt lat="39.17375" lon="-0.25174">
        <time>2019-03-23T08:48:55Z</time>
      </trkpt>
      <trkpt lat="39.17376" lon="-0.25183">
        <time>2019-03-23T08:48:56Z</time>
      </trkpt>
      <trkpt lat="39.17365" lon="-0.25187">
        <time>2019-03-23T08:48:57Z</time>
      </trkpt>
      <trkpt lat="39.17355" lon="-0.25193">
        <time>2019-03-23T08:48:58Z</time>
      </trkpt>
      <trkpt lat="39.17344" lon="-0.25197">
        <time>2019-03-23T08:48:59Z</time>
      </trkpt>
      <trkpt lat="39.17335" lon="-0.25203">
        <time>2019-03-23T08:49:00Z</time>
      </trkpt>
      <trkpt lat="39.17327" lon="-0.25209">
        <time>2019-03-23T08:49:01Z</time>
      </trkpt>
      <trkpt lat="39.17319" lon="-0.25217">
        <time>2019-03-23T08:49:02Z</time>
      </trkpt>
      <trkpt lat="39.17312" lon="-0.25225">
        <time>2019-03-23T08:49:03Z</time>
      </trkpt>
      <trkpt lat="39.17307" lon="-0.25231">
        <time>2019-03-23T08:49:04Z</time>
      </trkpt>
      <trkpt lat="39.17302" lon="-0.25238">
        <time>2019-03-23T08:49:05Z</time>
      </trkpt>
      <trkpt lat="39.17295" lon="-0.25251">
        <time>2019-03-23T08:49:06Z</time>
      </trkpt>
      <trkpt lat="39.17289" lon="-0.25266">
        <time>2019-03-23T08:49:07Z</time>
      </trkpt>
      <trkpt lat="39.17284" lon="-0.25283">
        <time>2019-03-23T08:49:08Z</time>
      </trkpt>
      <trkpt lat="39.17283" lon="-0.25295">
        <time>2019-03-23T08:49:09Z</time>
      </trkpt>
      <trkpt lat="39.17289" lon="-0.25297">
        <time>2019-03-23T08:49:10Z</time>
      </trkpt>
      <trkpt lat="39.17291" lon="-0.25306">
        <time>2019-03-23T08:49:11Z</time>
      </trkpt>
      <trkpt lat="39.17293" lon="-0.25317">
        <time>2019-03-23T08:49:12Z</time>
      </trkpt>
      <trkpt lat="39.17295" lon="-0.25329">
        <time>2019-03-23T08:49:13Z</time>
      </trkpt>
      <trkpt lat="39.17297" lon="-0.2534">
        <time>2019-03-23T08:49:14Z</time>
      </trkpt>
      <trkpt lat="39.17298" lon="-0.25352">
        <time>2019-03-23T08:49:15Z</time>
      </trkpt>
      <trkpt lat="39.17297" lon="-0.25362">
        <time>2019-03-23T08:49:16Z</time>
      </trkpt>
      <trkpt lat="39.17293" lon="-0.25371">
        <time>2019-03-23T08:49:17Z</time>
      </trkpt>
      <trkpt lat="39.17287" lon="-0.25378">
        <time>2019-03-23T08:49:18Z</time>
      </trkpt>
      <trkpt lat="39.17279" lon="-0.25383">
        <time>2019-03-23T08:49:19Z</time>
      </trkpt>
      <trkpt lat="39.17269" lon="-0.25387">
        <time>2019-03-23T08:49:20Z</time>
      </trkpt>
      <trkpt lat="39.17258" lon="-0.25393">
        <time>2019-03-23T08:49:21Z</time>
      </trkpt>
      <trkpt lat="39.17246" lon="-0.25399">
        <time>2019-03-23T08:49:22Z</time>
      </trkpt>
      <trkpt lat="39.17234" lon="-0.25405">
        <time>2019-03-23T08:49:23Z</time>
      </trkpt>
      <trkpt lat="39.17221" lon="-0.25412">
        <time>2019-03-23T08:49:24Z</time>
      </trkpt>
      <trkpt lat="39.17207" lon="-0.25418">
        <time>2019-03-23T08:49:25Z</time>
      </trkpt>
      <trkpt lat="39.17194" lon="-0.25425">
        <time>2019-03-23T08:49:26Z</time>
      </trkpt>
      <trkpt lat="39.1718" lon="-0.25433">
        <time>2019-03-23T08:49:27Z</time>
      </trkpt>
      <trkpt lat="39.17167" lon="-0.25441">
        <time>2019-03-23T08:49:28Z</time>
      </trkpt>
      <trkpt lat="39.17155" lon="-0.25446">
        <time>2019-03-23T08:49:29Z</time>
      </trkpt>
      <trkpt lat="39.17144" lon="-0.25449">
        <time>2019-03-23T08:49:30Z</time>
      </trkpt>
      <trkpt lat="39.17134" lon="-0.25448">
        <time>2019-03-23T08:49:31Z</time>
      </trkpt>
      <trkpt lat="39.17122" lon="-0.25446">
        <time>2019-03-23T08:49:32Z</time>
      </trkpt>
      <trkpt lat="39.17109" lon="-0.25444">
        <time>2019-03-23T08:49:33Z</time>
      </trkpt>
      <trkpt lat="39.17097" lon="-0.25445">
        <time>2019-03-23T08:49:34Z</time>
      </trkpt>
      <trkpt lat="39.17085" lon="-0.25448">
        <time>2019-03-23T08:49:35Z</time>
      </trkpt>
      <trkpt lat="39.17074" lon="-0.25449">
        <time>2019-03-23T08:49:36Z</time>
      </trkpt>
      <trkpt lat="39.17064" lon="-0.25447">
        <time>2019-03-23T08:49:37Z</time>
      </trkpt>
      <trkpt lat="39.17056" lon="-0.25441">
        <time>2019-03-23T08:49:38Z</time>
      </trkpt>
      <trkpt lat="39.17049" lon="-0.25431">
        <time>2019-03-23T08:49:39Z</time>
      </trkpt>
      <trkpt lat="39.17042" lon="-0.25418">
        <time>2019-03-23T08:49:40Z</time>
      </trkpt>
      <trkpt lat="39.17036" lon="-0.25404">
        <time>2019-03-23T08:49:41Z</time>
      </trkpt>
      <trkpt lat="39.17029" lon="-0.2539">
        <time>2019-03-23T08:49:42Z</time>
      </trkpt>
      <trkpt lat="39.17023" lon="-0.25378">
        <time>2019-03-23T08:49:43Z</time>
      </trkpt>
      <trkpt lat="39.17017" lon="-0.25367">
        <time>2019-03-23T08:49:44Z</time>
      </trkpt>
      <trkpt lat="39.17011" lon="-0.25354">
        <time>2019-03-23T08:49:45Z</time>
      </trkpt>
      <trkpt lat="39.17006" lon="-0.25342">
        <time>2019-03-23T08:49:46Z</time>
      </trkpt>
      <trkpt lat="39.17001" lon="-0.25331">
        <time>2019-03-23T08:49:47Z</time>
      </trkpt>
      <trkpt lat="39.16998" lon="-0.25319">
        <time>2019-03-23T08:49:48Z</time>
      </trkpt>
      <trkpt lat="39.16997" lon="-0.25306">
        <time>2019-03-23T08:49:49Z</time>
      </trkpt>
      <trkpt lat="39.16997" lon="-0.25293">
        <time>2019-03-23T08:49:50Z</time>
      </trkpt>
      <trkpt lat="39.17" lon="-0.25279">
        <time>2019-03-23T08:49:51Z</time>
      </trkpt>
      <trkpt lat="39.17004" lon="-0.25264">
        <time>2019-03-23T08:49:52Z</time>
      </trkpt>
      <trkpt lat="39.1701" lon="-0.25249">
        <time>2019-03-23T08:49:53Z</time>
      </trkpt>
      <trkpt lat="39.17017" lon="-0.25233">
        <time>2019-03-23T08:49:54Z</time>
      </trkpt>
      <trkpt lat="39.17024" lon="-0.25216">
        <time>2019-03-23T08:49:55Z</time>
      </trkpt>
      <trkpt lat="39.17032" lon="-0.252">
        <time>2019-03-23T08:49:56Z</time>
      </trkpt>
      <trkpt lat="39.1704" lon="-0.25187">
        <time>2019-03-23T08:49:57Z</time>
      </trkpt>
      <trkpt lat="39.17047" lon="-0.25176">
        <time>2019-03-23T08:49:58Z</time>
      </trkpt>
      <trkpt lat="39.17052" lon="-0.25167">
        <time>2019-03-23T08:49:59Z</time>
      </trkpt>
      <trkpt lat="39.17054" lon="-0.25159">
        <time>2019-03-23T08:50:00Z</time>
      </trkpt>
      <trkpt lat="39.17053" lon="-0.25152">
        <time>2019-03-23T08:50:01Z</time>
      </trkpt>
      <trkpt lat="39.1705" lon="-0.25146">
        <time>2019-03-23T08:50:02Z</time>
      </trkpt>
      <trkpt lat="39.17043" lon="-0.25143">
        <time>2019-03-23T08:50:03Z</time>
      </trkpt>
      <trkpt lat="39.17035" lon="-0.25141">
        <time>2019-03-23T08:50:04Z</time>
      </trkpt>
      <trkpt lat="39.17024" lon="-0.25143">
        <time>2019-03-23T08:50:05Z</time>
      </trkpt>
      <trkpt lat="39.17012" lon="-0.25147">
        <time>2019-03-23T08:50:06Z</time>
      </trkpt>
      <trkpt lat="39.16999" lon="-0.25151">
        <time>2019-03-23T08:50:07Z</time>
      </trkpt>
      <trkpt lat="39.16984" lon="-0.25156">
        <time>2019-03-23T08:50:08Z</time>
      </trkpt>
      <trkpt lat="39.16969" lon="-0.25162">
        <time>2019-03-23T08:50:09Z</time>
      </trkpt>
      <trkpt lat="39.16955" lon="-0.2517">
        <time>2019-03-23T08:50:10Z</time>
      </trkpt>
      <trkpt lat="39.16944" lon="-0.25178">
        <time>2019-03-23T08:50:11Z</time>
      </trkpt>
      <trkpt lat="39.16934" lon="-0.25186">
        <time>2019-03-23T08:50:12Z</time>
      </trkpt>
      <trkpt lat="39.16926" lon="-0.2519">
        <time>2019-03-23T08:50:13Z</time>
      </trkpt>
      <trkpt lat="39.16919" lon="-0.25191">
        <time>2019-03-23T08:50:14Z</time>
      </trkpt>
      <trkpt lat="39.16915" lon="-0.25186">
        <time>2019-03-23T08:50:15Z</time>
      </trkpt>
      <trkpt lat="39.16914" lon="-0.2518">
        <time>2019-03-23T08:50:16Z</time>
      </trkpt>
      <trkpt lat="39.16917" lon="-0.25173">
        <time>2019-03-23T08:50:17Z</time>
      </trkpt>
      <trkpt lat="39.16924" lon="-0.25167">
        <time>2019-03-23T08:50:18Z</time>
      </trkpt>
      <trkpt lat="39.16933" lon="-0.25161">
        <time>2019-03-23T08:50:19Z</time>
      </trkpt>
      <trkpt lat="39.16945" lon="-0.25152">
        <time>2019-03-23T08:50:20Z</time>
      </trkpt>
      <trkpt lat="39.16958" lon="-0.25142">
        <time>2019-03-23T08:50:21Z</time>
      </trkpt>
      <trkpt lat="39.16973" lon="-0.25132">
        <time>2019-03-23T08:50:22Z</time>
      </trkpt>
      <trkpt lat="39.16987" lon="-0.25118">
        <time>2019-03-23T08:50:23Z</time>
      </trkpt>
      <trkpt lat="39.17" lon="-0.25101">
        <time>2019-03-23T08:50:24Z</time>
      </trkpt>
      <trkpt lat="39.17011" lon="-0.25084">
        <time>2019-03-23T08:50:25Z</time>
      </trkpt>
      <trkpt lat="39.17024" lon="-0.2507">
        <time>2019-03-23T08:50:26Z</time>
      </trkpt>
      <trkpt lat="39.17036" lon="-0.2506">
        <time>2019-03-23T08:50:27Z</time>
      </trkpt>
      <trkpt lat="39.17045" lon="-0.25051">
        <time>2019-03-23T08:50:28Z</time>
      </trkpt>
      <trkpt lat="39.17051" lon="-0.2504">
        <time>2019-03-23T08:50:29Z</time>
      </trkpt>
      <trkpt lat="39.17054" lon="-0.25026">
        <time>2019-03-23T08:50:30Z</time>
      </trkpt>
      <trkpt lat="39.17056" lon="-0.25007">
        <time>2019-03-23T08:50:31Z</time>
      </trkpt>
      <trkpt lat="39.17056" lon="-0.24988">
        <time>2019-03-23T08:50:32Z</time>
      </trkpt>
      <trkpt lat="39.17053" lon="-0.24968">
        <time>2019-03-23T08:50:33Z</time>
      </trkpt>
      <trkpt lat="39.1705" lon="-0.2495">
        <time>2019-03-23T08:50:34Z</time>
      </trkpt>
      <trkpt lat="39.17049" lon="-0.24932">
        <time>2019-03-23T08:50:35Z</time>
      </trkpt>
      <trkpt lat="39.17047" lon="-0.24914">
        <time>2019-03-23T08:50:36Z</time>
      </trkpt>
      <trkpt lat="39.17048" lon="-0.24897">
        <time>2019-03-23T08:50:37Z</time>
      </trkpt>
      <trkpt lat="39.1705" lon="-0.24882">
        <time>2019-03-23T08:50:38Z</time>
      </trkpt>
      <trkpt lat="39.17054" lon="-0.2487">
        <time>2019-03-23T08:50:39Z</time>
      </trkpt>
      <trkpt lat="39.17058" lon="-0.2486">
        <time>2019-03-23T08:50:40Z</time>
      </trkpt>
      <trkpt lat="39.17067" lon="-0.2486">
        <time>2019-03-23T08:50:41Z</time>
      </trkpt>
      <trkpt lat="39.17077" lon="-0.24858">
        <time>2019-03-23T08:50:42Z</time>
      </trkpt>
      <trkpt lat="39.17088" lon="-0.24857">
        <time>2019-03-23T08:50:43Z</time>
      </trkpt>
      <trkpt lat="39.17099" lon="-0.24858">
        <time>2019-03-23T08:50:44Z</time>
      </trkpt>
      <trkpt lat="39.1711" lon="-0.24862">
        <time>2019-03-23T08:50:45Z</time>
      </trkpt>
      <trkpt lat="39.17118" lon="-0.24866">
        <time>2019-03-23T08:50:46Z</time>
      </trkpt>
      <trkpt lat="39.17126" lon="-0.24865">
        <time>2019-03-23T08:50:47Z</time>
      </trkpt>
      <trkpt lat="39.17131" lon="-0.2486">
        <time>2019-03-23T08:50:48Z</time>
      </trkpt>
      <trkpt lat="39.17135" lon="-0.2485">
        <time>2019-03-23T08:50:49Z</time>
      </trkpt>
      <trkpt lat="39.17138" lon="-0.24837">
        <time>2019-03-23T08:50:50Z</time>
      </trkpt>
      <trkpt lat="39.1714" lon="-0.24822">
        <time>2019-03-23T08:50:51Z</time>
      </trkpt>
      <trkpt lat="39.17141" lon="-0.24808">
        <time>2019-03-23T08:50:52Z</time>
      </trkpt>
      <trkpt lat="39.17138" lon="-0.24794">
        <time>2019-03-23T08:50:53Z</time>
      </trkpt>
      <trkpt lat="39.17132" lon="-0.24782">
        <time>2019-03-23T08:50:54Z</time>
      </trkpt>
      <trkpt lat="39.17123" lon="-0.24769">
        <time>2019-03-23T08:50:55Z</time>
      </trkpt>
      <trkpt lat="39.17114" lon="-0.24757">
        <time>2019-03-23T08:50:56Z</time>
      </trkpt>
      <trkpt lat="39.17109" lon="-0.24745">
        <time>2019-03-23T08:50:57Z</time>
      </trkpt>
      <trkpt lat="39.17107" lon="-0.24732">
        <time>2019-03-23T08:50:58Z</time>
      </trkpt>
      <trkpt lat="39.17109" lon="-0.24718">
        <time>2019-03-23T08:50:59Z</time>
      </trkpt>
      <trkpt lat="39.17113" lon="-0.24703">
        <time>2019-03-23T08:51:00Z</time>
      </trkpt>
      <trkpt lat="39.17118" lon="-0.24688">
        <time>2019-03-23T08:51:01Z</time>
      </trkpt>
      <trkpt lat="39.17124" lon="-0.24675">
        <time>2019-03-23T08:51:02Z</time>
      </trkpt>
      <trkpt lat="39.17132" lon="-0.24665">
        <time>2019-03-23T08:51:03Z</time>
      </trkpt>
      <trkpt lat="39.17139" lon="-0.24659">
        <time>2019-03-23T08:51:04Z</time>
      </trkpt>
      <trkpt lat="39.17143" lon="-0.24654">
        <time>2019-03-23T08:51:05Z</time>
      </trkpt>
      <trkpt lat="39.17142" lon="-0.24648">
        <time>2019-03-23T08:51:06Z</time>
      </trkpt>
      <trkpt lat="39.17138" lon="-0.24645">
        <time>2019-03-23T08:51:07Z</time>
      </trkpt>
      <trkpt lat="39.17132" lon="-0.24645">
        <time>2019-03-23T08:51:08Z</time>
      </trkpt>
      <trkpt lat="39.17126" lon="-0.2465">
        <time>2019-03-23T08:51:09Z</time>
      </trkpt>
      <trkpt lat="39.1712" lon="-0.2466">
        <time>2019-03-23T08:51:10Z</time>
      </trkpt>
      <trkpt lat="39.17113" lon="-0.24673">
        <time>2019-03-23T08:51:11Z</time>
      </trkpt>
      <trkpt lat="39.17104" lon="-0.24686">
        <time>2019-03-23T08:51:12Z</time>
      </trkpt>
      <trkpt lat="39.17096" lon="-0.247">
        <time>2019-03-23T08:51:13Z</time>
      </trkpt>
      <trkpt lat="39.17089" lon="-0.24713">
        <time>2019-03-23T08:51:14Z</time>
      </trkpt>
      <trkpt lat="39.17085" lon="-0.24728">
        <time>2019-03-23T08:51:15Z</time>
      </trkpt>
      <trkpt lat="39.17084" lon="-0.24745">
        <time>2019-03-23T08:51:16Z</time>
      </trkpt>
      <trkpt lat="39.17083" lon="-0.24759">
        <time>2019-03-23T08:51:17Z</time>
      </trkpt>
      <trkpt lat="39.17082" lon="-0.2477">
        <time>2019-03-23T08:51:18Z</time>
      </trkpt>
      <trkpt lat="39.17078" lon="-0.24778">
        <time>2019-03-23T08:51:19Z</time>
      </trkpt>
      <trkpt lat="39.17073" lon="-0.24781">
        <time>2019-03-23T08:51:20Z</time>
      </trkpt>
      <trkpt lat="39.17066" lon="-0.24778">
        <time>2019-03-23T08:51:21Z</time>
      </trkpt>
      <trkpt lat="39.17058" lon="-0.24772">
        <time>2019-03-23T08:51:22Z</time>
      </trkpt>
      <trkpt lat="39.17049" lon="-0.24764">
        <time>2019-03-23T08:51:23Z</time>
      </trkpt>
      <trkpt lat="39.17038" lon="-0.24754">
        <time>2019-03-23T08:51:24Z</time>
      </trkpt>
      <trkpt lat="39.17027" lon="-0.24743">
        <time>2019-03-23T08:51:25Z</time>
      </trkpt>
      <trkpt lat="39.17016" lon="-0.24729">
        <time>2019-03-23T08:51:26Z</time>
      </trkpt>
      <trkpt lat="39.17008" lon="-0.24714">
        <time>2019-03-23T08:51:27Z</time>
      </trkpt>
      <trkpt lat="39.17002" lon="-0.24697">
        <time>2019-03-23T08:51:28Z</time>
      </trkpt>
      <trkpt lat="39.16996" lon="-0.2468">
        <time>2019-03-23T08:51:29Z</time>
      </trkpt>
      <trkpt lat="39.16993" lon="-0.24663">
        <time>2019-03-23T08:51:30Z</time>
      </trkpt>
      <trkpt lat="39.16992" lon="-0.24648">
        <time>2019-03-23T08:51:31Z</time>
      </trkpt>
      <trkpt lat="39.16991" lon="-0.24636">
        <time>2019-03-23T08:51:32Z</time>
      </trkpt>
      <trkpt lat="39.16988" lon="-0.24628">
        <time>2019-03-23T08:51:33Z</time>
      </trkpt>
      <trkpt lat="39.16983" lon="-0.24626">
        <time>2019-03-23T08:51:34Z</time>
      </trkpt>
      <trkpt lat="39.16976" lon="-0.24628">
        <time>2019-03-23T08:51:35Z</time>
      </trkpt>
      <trkpt lat="39.16969" lon="-0.24633">
        <time>2019-03-23T08:51:36Z</time>
      </trkpt>
      <trkpt lat="39.16963" lon="-0.2464">
        <time>2019-03-23T08:51:37Z</time>
      </trkpt>
      <trkpt lat="39.16958" lon="-0.24646">
        <time>2019-03-23T08:51:38Z</time>
      </trkpt>
      <trkpt lat="39.16956" lon="-0.24649">
        <time>2019-03-23T08:51:39Z</time>
      </trkpt>
      <trkpt lat="39.16954" lon="-0.24651">
        <time>2019-03-23T08:51:40Z</time>
      </trkpt>
      <trkpt lat="39.1695" lon="-0.24652">
        <time>2019-03-23T08:51:41Z</time>
      </trkpt>
      <trkpt lat="39.16943" lon="-0.2465">
        <time>2019-03-23T08:51:42Z</time>
      </trkpt>
      <trkpt lat="39.16936" lon="-0.24645">
        <time>2019-03-23T08:51:43Z</time>
      </trkpt>
      <trkpt lat="39.16926" lon="-0.24639">
        <time>2019-03-23T08:51:44Z</time>
      </trkpt>
      <trkpt lat="39.16914" lon="-0.24634">
        <time>2019-03-23T08:51:45Z</time>
      </trkpt>
      <trkpt lat="39.16903" lon="-0.24631">
        <time>2019-03-23T08:51:46Z</time>
      </trkpt>
      <trkpt lat="39.16893" lon="-0.24629">
        <time>2019-03-23T08:51:47Z</time>
      </trkpt>
      <trkpt lat="39.16886" lon="-0.24624">
        <time>2019-03-23T08:51:48Z</time>
      </trkpt>
      <trkpt lat="39.16883" lon="-0.24615">
        <time>2019-03-23T08:51:49Z</time>
      </trkpt>
      <trkpt lat="39.16884" lon="-0.24606">
        <time>2019-03-23T08:51:50Z</time>
      </trkpt>
      <trkpt lat="39.16889" lon="-0.246">
        <time>2019-03-23T08:51:51Z</time>
      </trkpt>
      <trkpt lat="39.16897" lon="-0.24597">
        <time>2019-03-23T08:51:52Z</time>
      </trkpt>
      <trkpt lat="39.16908" lon="-0.24596">
        <time>2019-03-23T08:51:53Z</time>
      </trkpt>
      <trkpt lat="39.1692" lon="-0.24593">
        <time>2019-03-23T08:51:54Z</time>
      </trkpt>
      <trkpt lat="39.16931" lon="-0.24587">
        <time>2019-03-23T08:51:55Z</time>
      </trkpt>
      <trkpt lat="39.16942" lon="-0.24576">
        <time>2019-03-23T08:51:56Z</time>
      </trkpt>
      <trkpt lat="39.16953" lon="-0.24565">
        <time>2019-03-23T08:51:57Z</time>
      </trkpt>
      <trkpt lat="39.16965" lon="-0.24556">
        <time>2019-03-23T08:51:58Z</time>
      </trkpt>
      <trkpt lat="39.16974" lon="-0.24548">
        <time>2019-03-23T08:51:59Z</time>
      </trkpt>
      <trkpt lat="39.16982" lon="-0.24539">
        <time>2019-03-23T08:52:00Z</time>
      </trkpt>
      <trkpt lat="39.16986" lon="-0.24531">
        <time>2019-03-23T08:52:01Z</time>
      </trkpt>
      <trkpt lat="39.16986" lon="-0.24523">
        <time>2019-03-23T08:52:02Z</time>
      </trkpt>
      <trkpt lat="39.16982" lon="-0.24517">
        <time>2019-03-23T08:52:03Z</time>
      </trkpt>
      <trkpt lat="39.16976" lon="-0.24516">
        <time>2019-03-23T08:52:04Z</time>
      </trkpt>
      <trkpt lat="39.16968" lon="-0.24521">
        <time>2019-03-23T08:52:05Z</time>
      </trkpt>
      <trkpt lat="39.16959" lon="-0.24529">
        <time>2019-03-23T08:52:06Z</time>
      </trkpt>
      <trkpt lat="39.16948" lon="-0.24536">
        <time>2019-03-23T08:52:07Z</time>
      </trkpt>
      <trkpt lat="39.16936" lon="-0.24543">
        <time>2019-03-23T08:52:08Z</time>
      </trkpt>
      <trkpt lat="39.16923" lon="-0.24546">
        <time>2019-03-23T08:52:09Z</time>
      </trkpt>
      <trkpt lat="39.1691" lon="-0.24545">
        <time>2019-03-23T08:52:10Z</time>
      </trkpt>
      <trkpt lat="39.16898" lon="-0.2454">
        <time>2019-03-23T08:52:11Z</time>
      </trkpt>
      <trkpt lat="39.16887" lon="-0.24527">
        <time>2019-03-23T08:52:12Z</time>
      </trkpt>
      <trkpt lat="39.16881" lon="-0.24515">
        <time>2019-03-23T08:52:13Z</time>
      </trkpt>
      <trkpt lat="39.16871" lon="-0.24509">
        <time>2019-03-23T08:52:14Z</time>
      </trkpt>
      <trkpt lat="39.16862" lon="-0.24505">
        <time>2019-03-23T08:52:15Z</time>
      </trkpt>
      <trkpt lat="39.16852" lon="-0.24504">
        <time>2019-03-23T08:52:16Z</time>
      </trkpt>
      <trkpt lat="39.1684" lon="-0.24507">
        <time>2019-03-23T08:52:17Z</time>
      </trkpt>
      <trkpt lat="39.16828" lon="-0.2451">
        <time>2019-03-23T08:52:18Z</time>
      </trkpt>
      <trkpt lat="39.16815" lon="-0.24511">
        <time>2019-03-23T08:52:19Z</time>
      </trkpt>
      <trkpt lat="39.16803" lon="-0.24509">
        <time>2019-03-23T08:52:20Z</time>
      </trkpt>
      <trkpt lat="39.16791" lon="-0.24509">
        <time>2019-03-23T08:52:21Z</time>
      </trkpt>
      <trkpt lat="39.16781" lon="-0.24509">
        <time>2019-03-23T08:52:22Z</time>
      </trkpt>
      <trkpt lat="39.16774" lon="-0.24511">
        <time>2019-03-23T08:52:23Z</time>
      </trkpt>
      <trkpt lat="39.16769" lon="-0.24517">
        <time>2019-03-23T08:52:24Z</time>
      </trkpt>
      <trkpt lat="39.16766" lon="-0.24527">
        <time>2019-03-23T08:52:25Z</time>
      </trkpt>
      <trkpt lat="39.16765" lon="-0.2454">
        <time>2019-03-23T08:52:26Z</time>
      </trkpt>
      <trkpt lat="39.16765" lon="-0.24555">
        <time>2019-03-23T08:52:27Z</time>
      </trkpt>
      <trkpt lat="39.16764" lon="-0.24569">
        <time>2019-03-23T08:52:28Z</time>
      </trkpt>
      <trkpt lat="39.16761" lon="-0.24583">
        <time>2019-03-23T08:52:29Z</time>
      </trkpt>
      <trkpt lat="39.16759" lon="-0.24596">
        <time>2019-03-23T08:52:30Z</time>
      </trkpt>
      <trkpt lat="39.16757" lon="-0.24606">
        <time>2019-03-23T08:52:31Z</time>
      </trkpt>
      <trkpt lat="39.16755" lon="-0.24611">
        <time>2019-03-23T08:52:32Z</time>
      </trkpt>
      <trkpt lat="39.16753" lon="-0.24614">
        <time>2019-03-23T08:52:33Z</time>
      </trkpt>
      <trkpt lat="39.16752" lon="-0.24616">
        <time>2019-03-23T08:52:34Z</time>
      </trkpt>
      <trkpt lat="39.16748" lon="-0.24617">
        <time>2019-03-23T08:52:35Z</time>
      </trkpt>
      <trkpt lat="39.16744" lon="-0.24616">
        <time>2019-03-23T08:52:36Z</time>
      </trkpt>
      <trkpt lat="39.16736" lon="-0.24611">
        <time>2019-03-23T08:52:37Z</time>
      </trkpt>
      <trkpt lat="39.16729" lon="-0.24604">
        <time>2019-03-23T08:52:38Z</time>
      </trkpt>
      <trkpt lat="39.1672" lon="-0.24598">
        <time>2019-03-23T08:52:39Z</time>
      </trkpt>
      <trkpt lat="39.16708" lon="-0.24593">
        <time>2019-03-23T08:52:40Z</time>
      </trkpt>
      <trkpt lat="39.16696" lon="-0.24589">
        <time>2019-03-23T08:52:41Z</time>
      </trkpt>
      <trkpt lat="39.16684" lon="-0.24583">
        <time>2019-03-23T08:52:42Z</time>
      </trkpt>
      <trkpt lat="39.16673" lon="-0.24576">
        <time>2019-03-23T08:52:43Z</time>
      </trkpt>
      <trkpt lat="39.16661" lon="-0.2457">
        <time>2019-03-23T08:52:44Z</time>
      </trkpt>
      <trkpt lat="39.16651" lon="-0.24563">
        <time>2019-03-23T08:52:45Z</time>
      </trkpt>
      <trkpt lat="39.16641" lon="-0.24557">
        <time>2019-03-23T08:52:46Z</time>
      </trkpt>
      <trkpt lat="39.16631" lon="-0.2455">
        <time>2019-03-23T08:52:47Z</time>
      </trkpt>
      <trkpt lat="39.16621" lon="-0.24545">
        <time>2019-03-23T08:52:48Z</time>
      </trkpt>
      <trkpt lat="39.16611" lon="-0.24538">
        <time>2019-03-23T08:52:49Z</time>
      </trkpt>
      <trkpt lat="39.16602" lon="-0.24533">
        <time>2019-03-23T08:52:50Z</time>
      </trkpt>
      <trkpt lat="39.16592" lon="-0.24528">
        <time>2019-03-23T08:52:51Z</time>
      </trkpt>
      <trkpt lat="39.16583" lon="-0.24523">
        <time>2019-03-23T08:52:52Z</time>
      </trkpt>
      <trkpt lat="39.16575" lon="-0.24518">
        <time>2019-03-23T08:52:53Z</time>
      </trkpt>
      <trkpt lat="39.16569" lon="-0.24515">
        <time>2019-03-23T08:52:54Z</time>
      </trkpt>
      <trkpt lat="39.16564" lon="-0.24512">
        <time>2019-03-23T08:52:55Z</time>
      </trkpt>
      <trkpt lat="39.16562" lon="-0.24511">
        <time>2019-03-23T08:52:56Z</time>
      </trkpt>
      <trkpt lat="39.16559" lon="-0.24511">
        <time>2019-03-23T08:53:02Z</time>
      </trkpt>
      <trkpt lat="39.16557" lon="-0.2451">
        <time>2019-03-23T08:53:03Z</time>
      </trkpt>
      <trkpt lat="39.16554" lon="-0.2451">
        <time>2019-03-23T08:53:04Z</time>
      </trkpt>
      <trkpt lat="39.1655" lon="-0.24514">
        <time>2019-03-23T08:53:05Z</time>
      </trkpt>
      <trkpt lat="39.16546" lon="-0.24517">
        <time>2019-03-23T08:53:06Z</time>
      </trkpt>
      <trkpt lat="39.16541" lon="-0.24525">
        <time>2019-03-23T08:53:07Z</time>
      </trkpt>
      <trkpt lat="39.16538" lon="-0.24533">
        <time>2019-03-23T08:53:08Z</time>
      </trkpt>
      <trkpt lat="39.16535" lon="-0.24541">
        <time>2019-03-23T08:53:09Z</time>
      </trkpt>
      <trkpt lat="39.16532" lon="-0.24551">
        <time>2019-03-23T08:53:10Z</time>
      </trkpt>
      <trkpt lat="39.16529" lon="-0.24558">
        <time>2019-03-23T08:53:11Z</time>
      </trkpt>
      <trkpt lat="39.16526" lon="-0.24566">
        <time>2019-03-23T08:53:12Z</time>
      </trkpt>
      <trkpt lat="39.16524" lon="-0.24573">
        <time>2019-03-23T08:53:13Z</time>
      </trkpt>
      <trkpt lat="39.16521" lon="-0.24582">
        <time>2019-03-23T08:53:14Z</time>
      </trkpt>
      <trkpt lat="39.16517" lon="-0.24591">
        <time>2019-03-23T08:53:15Z</time>
      </trkpt>
      <trkpt lat="39.16513" lon="-0.24602">
        <time>2019-03-23T08:53:16Z</time>
      </trkpt>
      <trkpt lat="39.16508" lon="-0.24614">
        <time>2019-03-23T08:53:17Z</time>
      </trkpt>
      <trkpt lat="39.16503" lon="-0.24624">
        <time>2019-03-23T08:53:18Z</time>
      </trkpt>
      <trkpt lat="39.16496" lon="-0.24631">
        <time>2019-03-23T08:53:19Z</time>
      </trkpt>
      <trkpt lat="39.16491" lon="-0.24634">
        <time>2019-03-23T08:53:20Z</time>
      </trkpt>
      <trkpt lat="39.16486" lon="-0.24637">
        <time>2019-03-23T08:53:21Z</time>
      </trkpt>
      <trkpt lat="39.16482" lon="-0.2464">
        <time>2019-03-23T08:53:22Z</time>
      </trkpt>
      <trkpt lat="39.16477" lon="-0.24643">
        <time>2019-03-23T08:53:23Z</time>
      </trkpt>
      <trkpt lat="39.16473" lon="-0.24646">
        <time>2019-03-23T08:53:24Z</time>
      </trkpt>
      <trkpt lat="39.16469" lon="-0.24648">
        <time>2019-03-23T08:53:25Z</time>
      </trkpt>
      <trkpt lat="39.16465" lon="-0.24651">
        <time>2019-03-23T08:53:26Z</time>
      </trkpt>
      <trkpt lat="39.16461" lon="-0.24653">
        <time>2019-03-23T08:53:27Z</time>
      </trkpt>
      <trkpt lat="39.16457" lon="-0.24655">
        <time>2019-03-23T08:53:28Z</time>
      </trkpt>
      <trkpt lat="39.16453" lon="-0.24657">
        <time>2019-03-23T08:53:29Z</time>
      </trkpt>
      <trkpt lat="39.16449" lon="-0.24659">
        <time>2019-03-23T08:53:30Z</time>
      </trkpt>
      <trkpt lat="39.16446" lon="-0.2466">
        <time>2019-03-23T08:53:31Z</time>
      </trkpt>
      <trkpt lat="39.16443" lon="-0.24662">
        <time>2019-03-23T08:53:32Z</time>
      </trkpt>
      <trkpt lat="39.16439" lon="-0.24664">
        <time>2019-03-23T08:53:33Z</time>
      </trkpt>
      <trkpt lat="39.16436" lon="-0.24665">
        <time>2019-03-23T08:53:34Z</time>
      </trkpt>
      <trkpt lat="39.16434" lon="-0.24667">
        <time>2019-03-23T08:53:35Z</time>
      </trkpt>
      <trkpt lat="39.16432" lon="-0.24668">
        <time>2019-03-23T08:53:36Z</time>
      </trkpt>
      <trkpt lat="39.1643" lon="-0.2467">
        <time>2019-03-23T08:53:37Z</time>
      </trkpt>
      <trkpt lat="39.16427" lon="-0.24671">
        <time>2019-03-23T08:53:38Z</time>
      </trkpt>
      <trkpt lat="39.16424" lon="-0.24673">
        <time>2019-03-23T08:53:39Z</time>
      </trkpt>
      <trkpt lat="39.1642" lon="-0.24676">
        <time>2019-03-23T08:53:40Z</time>
      </trkpt>
      <trkpt lat="39.16415" lon="-0.2468">
        <time>2019-03-23T08:53:41Z</time>
      </trkpt>
      <trkpt lat="39.16409" lon="-0.24684">
        <time>2019-03-23T08:53:42Z</time>
      </trkpt>
      <trkpt lat="39.16405" lon="-0.24687">
        <time>2019-03-23T08:53:43Z</time>
      </trkpt>
      <trkpt lat="39.16401" lon="-0.2469">
        <time>2019-03-23T08:53:44Z</time>
      </trkpt>
      <trkpt lat="39.16396" lon="-0.24694">
        <time>2019-03-23T08:53:45Z</time>
      </trkpt>
      <trkpt lat="39.16392" lon="-0.24698">
        <time>2019-03-23T08:53:46Z</time>
      </trkpt>
      <trkpt lat="39.16387" lon="-0.24702">
        <time>2019-03-23T08:53:47Z</time>
      </trkpt>
      <trkpt lat="39.16381" lon="-0.24705">
        <time>2019-03-23T08:53:48Z</time>
      </trkpt>
      <trkpt lat="39.16375" lon="-0.24705">
        <time>2019-03-23T08:53:49Z</time>
      </trkpt>
      <trkpt lat="39.1637" lon="-0.24704">
        <time>2019-03-23T08:53:50Z</time>
      </trkpt>
      <trkpt lat="39.16365" lon="-0.24703">
        <time>2019-03-23T08:53:51Z</time>
      </trkpt>
      <trkpt lat="39.16359" lon="-0.24702">
        <time>2019-03-23T08:53:52Z</time>
      </trkpt>
      <trkpt lat="39.16352" lon="-0.24704">
        <time>2019-03-23T08:53:53Z</time>
      </trkpt>
      <trkpt lat="39.16344" lon="-0.24709">
        <time>2019-03-23T08:53:54Z</time>
      </trkpt>
      <trkpt lat="39.16333" lon="-0.24713">
        <time>2019-03-23T08:53:55Z</time>
      </trkpt>
      <trkpt lat="39.16321" lon="-0.24719">
        <time>2019-03-23T08:53:56Z</time>
      </trkpt>
      <trkpt lat="39.16308" lon="-0.24725">
        <time>2019-03-23T08:53:57Z</time>
      </trkpt>
      <trkpt lat="39.16295" lon="-0.24732">
        <time>2019-03-23T08:53:58Z</time>
      </trkpt>
      <trkpt lat="39.16283" lon="-0.2474">
        <time>2019-03-23T08:53:59Z</time>
      </trkpt>
      <trkpt lat="39.16272" lon="-0.24747">
        <time>2019-03-23T08:54:00Z</time>
      </trkpt>
      <trkpt lat="39.16262" lon="-0.24755">
        <time>2019-03-23T08:54:01Z</time>
      </trkpt>
      <trkpt lat="39.16253" lon="-0.24762">
        <time>2019-03-23T08:54:02Z</time>
      </trkpt>
      <trkpt lat="39.16245" lon="-0.24768">
        <time>2019-03-23T08:54:03Z</time>
      </trkpt>
      <trkpt lat="39.16238" lon="-0.24774">
        <time>2019-03-23T08:54:04Z</time>
      </trkpt>
      <trkpt lat="39.16234" lon="-0.24779">
        <time>2019-03-23T08:54:05Z</time>
      </trkpt>
      <trkpt lat="39.16232" lon="-0.2478">
        <time>2019-03-23T08:54:06Z</time>
      </trkpt>
      <trkpt lat="39.16231" lon="-0.24782">
        <time>2019-03-23T08:54:14Z</time>
      </trkpt>
      <trkpt lat="39.16228" lon="-0.24784">
        <time>2019-03-23T08:54:15Z</time>
      </trkpt>
      <trkpt lat="39.16222" lon="-0.2479">
        <time>2019-03-23T08:54:16Z</time>
      </trkpt>
      <trkpt lat="39.16214" lon="-0.24796">
        <time>2019-03-23T08:54:17Z</time>
      </trkpt>
      <trkpt lat="39.16207" lon="-0.24802">
        <time>2019-03-23T08:54:18Z</time>
      </trkpt>
      <trkpt lat="39.16201" lon="-0.2481">
        <time>2019-03-23T08:54:19Z</time>
      </trkpt>
      <trkpt lat="39.162" lon="-0.2482">
        <time>2019-03-23T08:54:20Z</time>
      </trkpt>
      <trkpt lat="39.16201" lon="-0.24832">
        <time>2019-03-23T08:54:21Z</time>
      </trkpt>
      <trkpt lat="39.16204" lon="-0.24844">
        <time>2019-03-23T08:54:22Z</time>
      </trkpt>
      <trkpt lat="39.16203" lon="-0.24857">
        <time>2019-03-23T08:54:23Z</time>
      </trkpt>
      <trkpt lat="39.162" lon="-0.2487">
        <time>2019-03-23T08:54:24Z</time>
      </trkpt>
      <trkpt lat="39.16193" lon="-0.24881">
        <time>2019-03-23T08:54:25Z</time>
      </trkpt>
      <trkpt lat="39.16185" lon="-0.24889">
        <time>2019-03-23T08:54:26Z</time>
      </trkpt>
      <trkpt lat="39.16174" lon="-0.24893">
        <time>2019-03-23T08:54:27Z</time>
      </trkpt>
      <trkpt lat="39.16162" lon="-0.24894">
        <time>2019-03-23T08:54:28Z</time>
      </trkpt>
      <trkpt lat="39.16151" lon="-0.24892">
        <time>2019-03-23T08:54:29Z</time>
      </trkpt>
      <trkpt lat="39.16141" lon="-0.24891">
        <time>2019-03-23T08:54:30Z</time>
      </trkpt>
      <trkpt lat="39.16131" lon="-0.24893">
        <time>2019-03-23T08:54:31Z</time>
      </trkpt>
      <trkpt lat="39.16122" lon="-0.24899">
        <time>2019-03-23T08:54:32Z</time>
      </trkpt>
      <trkpt lat="39.16113" lon="-0.24908">
        <time>2019-03-23T08:54:33Z</time>
      </trkpt>
      <trkpt lat="39.16103" lon="-0.24918">
        <time>2019-03-23T08:54:34Z</time>
      </trkpt>
      <trkpt lat="39.16092" lon="-0.24928">
        <time>2019-03-23T08:54:35Z</time>
      </trkpt>
      <trkpt lat="39.16078" lon="-0.2494">
        <time>2019-03-23T08:54:36Z</time>
      </trkpt>
      <trkpt lat="39.16064" lon="-0.24953">
        <time>2019-03-23T08:54:37Z</time>
      </trkpt>
      <trkpt lat="39.1605" lon="-0.24967">
        <time>2019-03-23T08:54:38Z</time>
      </trkpt>
      <trkpt lat="39.16037" lon="-0.24979">
        <time>2019-03-23T08:54:39Z</time>
      </trkpt>
      <trkpt lat="39.16025" lon="-0.2499">
        <time>2019-03-23T08:54:40Z</time>
      </trkpt>
      <trkpt lat="39.16014" lon="-0.25001">
        <time>2019-03-23T08:54:41Z</time>
      </trkpt>
      <trkpt lat="39.16005" lon="-0.25012">
        <time>2019-03-23T08:54:42Z</time>
      </trkpt>
      <trkpt lat="39.16" lon="-0.25023">
        <time>2019-03-23T08:54:43Z</time>
      </trkpt>
      <trkpt lat="39.15996" lon="-0.25036">
        <time>2019-03-23T08:54:44Z</time>
      </trkpt>
      <trkpt lat="39.15991" lon="-0.25047">
        <time>2019-03-23T08:54:45Z</time>
      </trkpt>
      <trkpt lat="39.15982" lon="-0.25056">
        <time>2019-03-23T08:54:46Z</time>
      </trkpt>
      <trkpt lat="39.15971" lon="-0.25062">
        <time>2019-03-23T08:54:47Z</time>
      </trkpt>
      <trkpt lat="39.15958" lon="-0.25066">
        <time>2019-03-23T08:54:48Z</time>
      </trkpt>
      <trkpt lat="39.15944" lon="-0.2507">
        <time>2019-03-23T08:54:49Z</time>
      </trkpt>
      <trkpt lat="39.1593" lon="-0.25076">
        <time>2019-03-23T08:54:50Z</time>
      </trkpt>
      <trkpt lat="39.15917" lon="-0.25087">
        <time>2019-03-23T08:54:51Z</time>
      </trkpt>
      <trkpt lat="39.15903" lon="-0.251">
        <time>2019-03-23T08:54:52Z</time>
      </trkpt>
      <trkpt lat="39.15888" lon="-0.25114">
        <time>2019-03-23T08:54:53Z</time>
      </trkpt>
      <trkpt lat="39.15872" lon="-0.25127">
        <time>2019-03-23T08:54:54Z</time>
      </trkpt>
      <trkpt lat="39.15856" lon="-0.25142">
        <time>2019-03-23T08:54:55Z</time>
      </trkpt>
      <trkpt lat="39.15839" lon="-0.25158">
        <time>2019-03-23T08:54:56Z</time>
      </trkpt>
      <trkpt lat="39.15822" lon="-0.25174">
        <time>2019-03-23T08:54:57Z</time>
      </trkpt>
      <trkpt lat="39.15803" lon="-0.2519">
        <time>2019-03-23T08:54:58Z</time>
      </trkpt>
      <trkpt lat="39.15783" lon="-0.25207">
        <time>2019-03-23T08:54:59Z</time>
      </trkpt>
      <trkpt lat="39.15763" lon="-0.25226">
        <time>2019-03-23T08:55:00Z</time>
      </trkpt>
      <trkpt lat="39.15743" lon="-0.25243">
        <time>2019-03-23T08:55:01Z</time>
      </trkpt>
      <trkpt lat="39.15725" lon="-0.2526">
        <time>2019-03-23T08:55:02Z</time>
      </trkpt>
      <trkpt lat="39.15707" lon="-0.25276">
        <time>2019-03-23T08:55:03Z</time>
      </trkpt>
      <trkpt lat="39.15689" lon="-0.2529">
        <time>2019-03-23T08:55:04Z</time>
      </trkpt>
      <trkpt lat="39.15673" lon="-0.25304">
        <time>2019-03-23T08:55:05Z</time>
      </trkpt>
      <trkpt lat="39.15658" lon="-0.25318">
        <time>2019-03-23T08:55:06Z</time>
      </trkpt>
      <trkpt lat="39.15643" lon="-0.25331">
        <time>2019-03-23T08:55:07Z</time>
      </trkpt>
      <trkpt lat="39.15629" lon="-0.25344">
        <time>2019-03-23T08:55:08Z</time>
      </trkpt>
      <trkpt lat="39.15617" lon="-0.25356">
        <time>2019-03-23T08:55:09Z</time>
      </trkpt>
      <trkpt lat="39.15606" lon="-0.25368">
        <time>2019-03-23T08:55:10Z</time>
      </trkpt>
      <trkpt lat="39.15597" lon="-0.25378">
        <time>2019-03-23T08:55:11Z</time>
      </trkpt>
      <trkpt lat="39.15589" lon="-0.25389">
        <time>2019-03-23T08:55:12Z</time>
      </trkpt>
      <trkpt lat="39.15583" lon="-0.254">
        <time>2019-03-23T08:55:13Z</time>
      </trkpt>
      <trkpt lat="39.15578" lon="-0.2541">
        <time>2019-03-23T08:55:14Z</time>
      </trkpt>
      <trkpt lat="39.15572" lon="-0.25417">
        <time>2019-03-23T08:55:15Z</time>
      </trkpt>
      <trkpt lat="39.15565" lon="-0.2542">
        <time>2019-03-23T08:55:16Z</time>
      </trkpt>
      <trkpt lat="39.15557" lon="-0.25419">
        <time>2019-03-23T08:55:17Z</time>
      </trkpt>
      <trkpt lat="39.1555" lon="-0.25414">
        <time>2019-03-23T08:55:18Z</time>
      </trkpt>
      <trkpt lat="39.15546" lon="-0.25406">
        <time>2019-03-23T08:55:19Z</time>
      </trkpt>
      <trkpt lat="39.15546" lon="-0.25397">
        <time>2019-03-23T08:55:20Z</time>
      </trkpt>
      <trkpt lat="39.15548" lon="-0.25388">
        <time>2019-03-23T08:55:21Z</time>
      </trkpt>
      <trkpt lat="39.15553" lon="-0.25379">
        <time>2019-03-23T08:55:22Z</time>
      </trkpt>
      <trkpt lat="39.15562" lon="-0.25371">
        <time>2019-03-23T08:55:23Z</time>
      </trkpt>
      <trkpt lat="39.15573" lon="-0.25362">
        <time>2019-03-23T08:55:24Z</time>
      </trkpt>
      <trkpt lat="39.15585" lon="-0.25352">
        <time>2019-03-23T08:55:25Z</time>
      </trkpt>
      <trkpt lat="39.15599" lon="-0.25339">
        <time>2019-03-23T08:55:26Z</time>
      </trkpt>
      <trkpt lat="39.15613" lon="-0.25326">
        <time>2019-03-23T08:55:27Z</time>
      </trkpt>
      <trkpt lat="39.15627" lon="-0.25315">
        <time>2019-03-23T08:55:28Z</time>
      </trkpt>
      <trkpt lat="39.15638" lon="-0.25305">
        <time>2019-03-23T08:55:29Z</time>
      </trkpt>
      <trkpt lat="39.15648" lon="-0.25296">
        <time>2019-03-23T08:55:30Z</time>
      </trkpt>
      <trkpt lat="39.15656" lon="-0.25288">
        <time>2019-03-23T08:55:31Z</time>
      </trkpt>
      <trkpt lat="39.15661" lon="-0.25279">
        <time>2019-03-23T08:55:32Z</time>
      </trkpt>
      <trkpt lat="39.15662" lon="-0.25272">
        <time>2019-03-23T08:55:33Z</time>
      </trkpt>
      <trkpt lat="39.15661" lon="-0.25267">
        <time>2019-03-23T08:55:34Z</time>
      </trkpt>
      <trkpt lat="39.15656" lon="-0.25264">
        <time>2019-03-23T08:55:35Z</time>
      </trkpt>
      <trkpt lat="39.15648" lon="-0.25262">
        <time>2019-03-23T08:55:36Z</time>
      </trkpt>
      <trkpt lat="39.15638" lon="-0.25261">
        <time>2019-03-23T08:55:37Z</time>
      </trkpt>
      <trkpt lat="39.15626" lon="-0.2526">
        <time>2019-03-23T08:55:38Z</time>
      </trkpt>
      <trkpt lat="39.15614" lon="-0.25261">
        <time>2019-03-23T08:55:39Z</time>
      </trkpt>
      <trkpt lat="39.15603" lon="-0.25264">
        <time>2019-03-23T08:55:40Z</time>
      </trkpt>
      <trkpt lat="39.15593" lon="-0.25265">
        <time>2019-03-23T08:55:41Z</time>
      </trkpt>
      <trkpt lat="39.15584" lon="-0.25267">
        <time>2019-03-23T08:55:42Z</time>
      </trkpt>
      <trkpt lat="39.15574" lon="-0.25269">
        <time>2019-03-23T08:55:43Z</time>
      </trkpt>
      <trkpt lat="39.15565" lon="-0.25271">
        <time>2019-03-23T08:55:44Z</time>
      </trkpt>
      <trkpt lat="39.15553" lon="-0.25272">
        <time>2019-03-23T08:55:45Z</time>
      </trkpt>
      <trkpt lat="39.15542" lon="-0.25272">
        <time>2019-03-23T08:55:46Z</time>
      </trkpt>
      <trkpt lat="39.15531" lon="-0.25271">
        <time>2019-03-23T08:55:47Z</time>
      </trkpt>
      <trkpt lat="39.1552" lon="-0.25269">
        <time>2019-03-23T08:55:48Z</time>
      </trkpt>
      <trkpt lat="39.15508" lon="-0.25268">
        <time>2019-03-23T08:55:49Z</time>
      </trkpt>
      <trkpt lat="39.15495" lon="-0.25266">
        <time>2019-03-23T08:55:50Z</time>
      </trkpt>
      <trkpt lat="39.15482" lon="-0.25264">
        <time>2019-03-23T08:55:51Z</time>
      </trkpt>
      <trkpt lat="39.1547" lon="-0.25262">
        <time>2019-03-23T08:55:52Z</time>
      </trkpt>
      <trkpt lat="39.15457" lon="-0.2526">
        <time>2019-03-23T08:55:53Z</time>
      </trkpt>
      <trkpt lat="39.15444" lon="-0.25258">
        <time>2019-03-23T08:55:54Z</time>
      </trkpt>
      <trkpt lat="39.15432" lon="-0.25255">
        <time>2019-03-23T08:55:55Z</time>
      </trkpt>
      <trkpt lat="39.15419" lon="-0.25253">
        <time>2019-03-23T08:55:56Z</time>
      </trkpt>
      <trkpt lat="39.15405" lon="-0.25251">
        <time>2019-03-23T08:55:57Z</time>
      </trkpt>
      <trkpt lat="39.15392" lon="-0.25249">
        <time>2019-03-23T08:55:58Z</time>
      </trkpt>
      <trkpt lat="39.1538" lon="-0.25249">
        <time>2019-03-23T08:55:59Z</time>
      </trkpt>
      <trkpt lat="39.15367" lon="-0.25249">
        <time>2019-03-23T08:56:00Z</time>
      </trkpt>
      <trkpt lat="39.15354" lon="-0.2525">
        <time>2019-03-23T08:56:01Z</time>
      </trkpt>
      <trkpt lat="39.15339" lon="-0.25252">
        <time>2019-03-23T08:56:02Z</time>
      </trkpt>
      <trkpt lat="39.15323" lon="-0.25253">
        <time>2019-03-23T08:56:03Z</time>
      </trkpt>
      <trkpt lat="39.15307" lon="-0.25255">
        <time>2019-03-23T08:56:04Z</time>
      </trkpt>
      <trkpt lat="39.15292" lon="-0.25257">
        <time>2019-03-23T08:56:05Z</time>
      </trkpt>
      <trkpt lat="39.15277" lon="-0.25258">
        <time>2019-03-23T08:56:06Z</time>
      </trkpt>
      <trkpt lat="39.15262" lon="-0.2526">
        <time>2019-03-23T08:56:07Z</time>
      </trkpt>
      <trkpt lat="39.15247" lon="-0.25262">
        <time>2019-03-23T08:56:08Z</time>
      </trkpt>
      <trkpt lat="39.15232" lon="-0.25264">
        <time>2019-03-23T08:56:09Z</time>
      </trkpt>
      <trkpt lat="39.15217" lon="-0.25265">
        <time>2019-03-23T08:56:10Z</time>
      </trkpt>
      <trkpt lat="39.15202" lon="-0.25267">
        <time>2019-03-23T08:56:11Z</time>
      </trkpt>
      <trkpt lat="39.15186" lon="-0.25269">
        <time>2019-03-23T08:56:12Z</time>
      </trkpt>
      <trkpt lat="39.1517" lon="-0.2527">
        <time>2019-03-23T08:56:13Z</time>
      </trkpt>
      <trkpt lat="39.15154" lon="-0.25271">
        <time>2019-03-23T08:56:14Z</time>
      </trkpt>
      <trkpt lat="39.15139" lon="-0.25272">
        <time>2019-03-23T08:56:15Z</time>
      </trkpt>
      <trkpt lat="39.15124" lon="-0.25272">
        <time>2019-03-23T08:56:16Z</time>
      </trkpt>
      <trkpt lat="39.15108" lon="-0.25273">
        <time>2019-03-23T08:56:17Z</time>
      </trkpt>
      <trkpt lat="39.15093" lon="-0.25273">
        <time>2019-03-23T08:56:18Z</time>
      </trkpt>
      <trkpt lat="39.15077" lon="-0.25274">
        <time>2019-03-23T08:56:19Z</time>
      </trkpt>
      <trkpt lat="39.15061" lon="-0.25274">
        <time>2019-03-23T08:56:20Z</time>
      </trkpt>
      <trkpt lat="39.15045" lon="-0.25275">
        <time>2019-03-23T08:56:21Z</time>
      </trkpt>
      <trkpt lat="39.15028" lon="-0.25275">
        <time>2019-03-23T08:56:22Z</time>
      </trkpt>
      <trkpt lat="39.15009" lon="-0.2527">
        <time>2019-03-23T08:56:23Z</time>
      </trkpt>
      <trkpt lat="39.14988" lon="-0.25266">
        <time>2019-03-23T08:56:24Z</time>
      </trkpt>
      <trkpt lat="39.14965" lon="-0.25262">
        <time>2019-03-23T08:56:25Z</time>
      </trkpt>
      <trkpt lat="39.14941" lon="-0.25259">
        <time>2019-03-23T08:56:26Z</time>
      </trkpt>
      <trkpt lat="39.14916" lon="-0.25254">
        <time>2019-03-23T08:56:27Z</time>
      </trkpt>
      <trkpt lat="39.1489" lon="-0.25248">
        <time>2019-03-23T08:56:28Z</time>
      </trkpt>
      <trkpt lat="39.14864" lon="-0.25242">
        <time>2019-03-23T08:56:29Z</time>
      </trkpt>
      <trkpt lat="39.14839" lon="-0.25237">
        <time>2019-03-23T08:56:30Z</time>
      </trkpt>
      <trkpt lat="39.14813" lon="-0.2523">
        <time>2019-03-23T08:56:31Z</time>
      </trkpt>
      <trkpt lat="39.14788" lon="-0.25223">
        <time>2019-03-23T08:56:32Z</time>
      </trkpt>
      <trkpt lat="39.14763" lon="-0.25216">
        <time>2019-03-23T08:56:33Z</time>
      </trkpt>
      <trkpt lat="39.14737" lon="-0.25208">
        <time>2019-03-23T08:56:34Z</time>
      </trkpt>
      <trkpt lat="39.14712" lon="-0.25201">
        <time>2019-03-23T08:56:35Z</time>
      </trkpt>
      <trkpt lat="39.14687" lon="-0.25193">
        <time>2019-03-23T08:56:36Z</time>
      </trkpt>
      <trkpt lat="39.14662" lon="-0.25185">
        <time>2019-03-23T08:56:37Z</time>
      </trkpt>
      <trkpt lat="39.14637" lon="-0.25177">
        <time>2019-03-23T08:56:38Z</time>
      </trkpt>
      <trkpt lat="39.14612" lon="-0.25168">
        <time>2019-03-23T08:56:39Z</time>
      </trkpt>
      <trkpt lat="39.14587" lon="-0.2516">
        <time>2019-03-23T08:56:40Z</time>
      </trkpt>
      <trkpt lat="39.14562" lon="-0.25152">
        <time>2019-03-23T08:56:41Z</time>
      </trkpt>
      <trkpt lat="39.14537" lon="-0.25144">
        <time>2019-03-23T08:56:42Z</time>
      </trkpt>
      <trkpt lat="39.14513" lon="-0.25137">
        <time>2019-03-23T08:56:43Z</time>
      </trkpt>
      <trkpt lat="39.14488" lon="-0.25131">
        <time>2019-03-23T08:56:44Z</time>
      </trkpt>
      <trkpt lat="39.14463" lon="-0.25125">
        <time>2019-03-23T08:56:45Z</time>
      </trkpt>
      <trkpt lat="39.14438" lon="-0.2512">
        <time>2019-03-23T08:56:46Z</time>
      </trkpt>
      <trkpt lat="39.14413" lon="-0.25116">
        <time>2019-03-23T08:56:47Z</time>
      </trkpt>
      <trkpt lat="39.14389" lon="-0.2511">
        <time>2019-03-23T08:56:48Z</time>
      </trkpt>
      <trkpt lat="39.14364" lon="-0.25105">
        <time>2019-03-23T08:56:49Z</time>
      </trkpt>
      <trkpt lat="39.14339" lon="-0.251">
        <time>2019-03-23T08:56:50Z</time>
      </trkpt>
      <trkpt lat="39.14314" lon="-0.25095">
        <time>2019-03-23T08:56:51Z</time>
      </trkpt>
      <trkpt lat="39.14289" lon="-0.2509">
        <time>2019-03-23T08:56:52Z</time>
      </trkpt>
      <trkpt lat="39.14265" lon="-0.25085">
        <time>2019-03-23T08:56:53Z</time>
      </trkpt>
      <trkpt lat="39.14241" lon="-0.2508">
        <time>2019-03-23T08:56:54Z</time>
      </trkpt>
      <trkpt lat="39.14217" lon="-0.25075">
        <time>2019-03-23T08:56:55Z</time>
      </trkpt>
      <trkpt lat="39.14196" lon="-0.2507">
        <time>2019-03-23T08:56:56Z</time>
      </trkpt>
      <trkpt lat="39.14177" lon="-0.25066">
        <time>2019-03-23T08:56:57Z</time>
      </trkpt>
      <trkpt lat="39.14161" lon="-0.25062">
        <time>2019-03-23T08:56:58Z</time>
      </trkpt>
      <trkpt lat="39.14147" lon="-0.25059">
        <time>2019-03-23T08:56:59Z</time>
      </trkpt>
      <trkpt lat="39.14134" lon="-0.25057">
        <time>2019-03-23T08:57:00Z</time>
      </trkpt>
      <trkpt lat="39.14123" lon="-0.25054">
        <time>2019-03-23T08:57:01Z</time>
      </trkpt>
      <trkpt lat="39.14112" lon="-0.25052">
        <time>2019-03-23T08:57:02Z</time>
      </trkpt>
      <trkpt lat="39.14102" lon="-0.2505">
        <time>2019-03-23T08:57:03Z</time>
      </trkpt>
      <trkpt lat="39.14091" lon="-0.25047">
        <time>2019-03-23T08:57:04Z</time>
      </trkpt>
      <trkpt lat="39.1408" lon="-0.25043">
        <time>2019-03-23T08:57:05Z</time>
      </trkpt>
      <trkpt lat="39.14069" lon="-0.2504">
        <time>2019-03-23T08:57:06Z</time>
      </trkpt>
      <trkpt lat="39.14059" lon="-0.25037">
        <time>2019-03-23T08:57:07Z</time>
      </trkpt>
      <trkpt lat="39.14049" lon="-0.25034">
        <time>2019-03-23T08:57:08Z</time>
      </trkpt>
      <trkpt lat="39.14038" lon="-0.2503">
        <time>2019-03-23T08:57:09Z</time>
      </trkpt>
      <trkpt lat="39.14027" lon="-0.25026">
        <time>2019-03-23T08:57:10Z</time>
      </trkpt>
      <trkpt lat="39.14016" lon="-0.25022">
        <time>2019-03-23T08:57:11Z</time>
      </trkpt>
      <trkpt lat="39.14004" lon="-0.25018">
        <time>2019-03-23T08:57:12Z</time>
      </trkpt>
      <trkpt lat="39.13994" lon="-0.25014">
        <time>2019-03-23T08:57:13Z</time>
      </trkpt>
      <trkpt lat="39.13984" lon="-0.25011">
        <time>2019-03-23T08:57:14Z</time>
      </trkpt>
      <trkpt lat="39.13974" lon="-0.25007">
        <time>2019-03-23T08:57:15Z</time>
      </trkpt>
      <trkpt lat="39.13963" lon="-0.25004">
        <time>2019-03-23T08:57:16Z</time>
      </trkpt>
      <trkpt lat="39.13952" lon="-0.25001">
        <time>2019-03-23T08:57:17Z</time>
      </trkpt>
      <trkpt lat="39.13941" lon="-0.24999">
        <time>2019-03-23T08:57:18Z</time>
      </trkpt>
      <trkpt lat="39.13931" lon="-0.24997">
        <time>2019-03-23T08:57:19Z</time>
      </trkpt>
      <trkpt lat="39.13922" lon="-0.24995">
        <time>2019-03-23T08:57:20Z</time>
      </trkpt>
      <trkpt lat="39.13912" lon="-0.24993">
        <time>2019-03-23T08:57:21Z</time>
      </trkpt>
      <trkpt lat="39.13901" lon="-0.24991">
        <time>2019-03-23T08:57:22Z</time>
      </trkpt>
      <trkpt lat="39.1389" lon="-0.24989">
        <time>2019-03-23T08:57:23Z</time>
      </trkpt>
      <trkpt lat="39.1388" lon="-0.24987">
        <time>2019-03-23T08:57:24Z</time>
      </trkpt>
      <trkpt lat="39.13869" lon="-0.24986">
        <time>2019-03-23T08:57:25Z</time>
      </trkpt>
      <trkpt lat="39.1386" lon="-0.24984">
        <time>2019-03-23T08:57:26Z</time>
      </trkpt>
      <trkpt lat="39.13851" lon="-0.24984">
        <time>2019-03-23T08:57:27Z</time>
      </trkpt>
      <trkpt lat="39.1384" lon="-0.24985">
        <time>2019-03-23T08:57:28Z</time>
      </trkpt>
      <trkpt lat="39.13826" lon="-0.24987">
        <time>2019-03-23T08:57:29Z</time>
      </trkpt>
      <trkpt lat="39.13812" lon="-0.24992">
        <time>2019-03-23T08:57:30Z</time>
      </trkpt>
      <trkpt lat="39.13796" lon="-0.25">
        <time>2019-03-23T08:57:31Z</time>
      </trkpt>
      <trkpt lat="39.13779" lon="-0.25009">
        <time>2019-03-23T08:57:32Z</time>
      </trkpt>
      <trkpt lat="39.13759" lon="-0.25017">
        <time>2019-03-23T08:57:33Z</time>
      </trkpt>
      <trkpt lat="39.13739" lon="-0.25025">
        <time>2019-03-23T08:57:34Z</time>
      </trkpt>
      <trkpt lat="39.13718" lon="-0.25034">
        <time>2019-03-23T08:57:35Z</time>
      </trkpt>
      <trkpt lat="39.13695" lon="-0.25042">
        <time>2019-03-23T08:57:36Z</time>
      </trkpt>
      <trkpt lat="39.13671" lon="-0.2505">
        <time>2019-03-23T08:57:37Z</time>
      </trkpt>
      <trkpt lat="39.13646" lon="-0.25059">
        <time>2019-03-23T08:57:38Z</time>
      </trkpt>
      <trkpt lat="39.13622" lon="-0.25067">
        <time>2019-03-23T08:57:39Z</time>
      </trkpt>
      <trkpt lat="39.13597" lon="-0.25076">
        <time>2019-03-23T08:57:40Z</time>
      </trkpt>
      <trkpt lat="39.13573" lon="-0.25084">
        <time>2019-03-23T08:57:41Z</time>
      </trkpt>
      <trkpt lat="39.13549" lon="-0.25092">
        <time>2019-03-23T08:57:42Z</time>
      </trkpt>
      <trkpt lat="39.13524" lon="-0.25102">
        <time>2019-03-23T08:57:43Z</time>
      </trkpt>
      <trkpt lat="39.13501" lon="-0.25117">
        <time>2019-03-23T08:57:44Z</time>
      </trkpt>
      <trkpt lat="39.13478" lon="-0.25134">
        <time>2019-03-23T08:57:45Z</time>
      </trkpt>
      <trkpt lat="39.13454" lon="-0.2515">
        <time>2019-03-23T08:57:46Z</time>
      </trkpt>
      <trkpt lat="39.1343" lon="-0.25165">
        <time>2019-03-23T08:57:47Z</time>
      </trkpt>
      <trkpt lat="39.13406" lon="-0.25182">
        <time>2019-03-23T08:57:48Z</time>
      </trkpt>
      <trkpt lat="39.13383" lon="-0.25199">
        <time>2019-03-23T08:57:49Z</time>
      </trkpt>
      <trkpt lat="39.1336" lon="-0.25215">
        <time>2019-03-23T08:57:50Z</time>
      </trkpt>
      <trkpt lat="39.13336" lon="-0.25232">
        <time>2019-03-23T08:57:51Z</time>
      </trkpt>
      <trkpt lat="39.13313" lon="-0.25248">
        <time>2019-03-23T08:57:52Z</time>
      </trkpt>
      <trkpt lat="39.13291" lon="-0.25261">
        <time>2019-03-23T08:57:53Z</time>
      </trkpt>
      <trkpt lat="39.13268" lon="-0.25272">
        <time>2019-03-23T08:57:54Z</time>
      </trkpt>
      <trkpt lat="39.13244" lon="-0.25278">
        <time>2019-03-23T08:57:55Z</time>
      </trkpt>
      <trkpt lat="39.1322" lon="-0.25283">
        <time>2019-03-23T08:57:56Z</time>
      </trkpt>
      <trkpt lat="39.13194" lon="-0.25289">
        <time>2019-03-23T08:57:57Z</time>
      </trkpt>
      <trkpt lat="39.13168" lon="-0.25294">
        <time>2019-03-23T08:57:58Z</time>
      </trkpt>
      <trkpt lat="39.13143" lon="-0.25299">
        <time>2019-03-23T08:57:59Z</time>
      </trkpt>
      <trkpt lat="39.13119" lon="-0.25304">
        <time>2019-03-23T08:58:00Z</time>
      </trkpt>
      <trkpt lat="39.13096" lon="-0.25307">
        <time>2019-03-23T08:58:01Z</time>
      </trkpt>
      <trkpt lat="39.13074" lon="-0.25305">
        <time>2019-03-23T08:58:02Z</time>
      </trkpt>
      <trkpt lat="39.13052" lon="-0.25298">
        <time>2019-03-23T08:58:03Z</time>
      </trkpt>
      <trkpt lat="39.13029" lon="-0.25288">
        <time>2019-03-23T08:58:04Z</time>
      </trkpt>
      <trkpt lat="39.13006" lon="-0.25277">
        <time>2019-03-23T08:58:05Z</time>
      </trkpt>
      <trkpt lat="39.12981" lon="-0.25264">
        <time>2019-03-23T08:58:06Z</time>
      </trkpt>
      <trkpt lat="39.12957" lon="-0.2525">
        <time>2019-03-23T08:58:07Z</time>
      </trkpt>
      <trkpt lat="39.12933" lon="-0.25236">
        <time>2019-03-23T08:58:08Z</time>
      </trkpt>
      <trkpt lat="39.12907" lon="-0.25223">
        <time>2019-03-23T08:58:09Z</time>
      </trkpt>
      <trkpt lat="39.12881" lon="-0.2521">
        <time>2019-03-23T08:58:10Z</time>
      </trkpt>
      <trkpt lat="39.12856" lon="-0.25197">
        <time>2019-03-23T08:58:11Z</time>
      </trkpt>
      <trkpt lat="39.12832" lon="-0.25186">
        <time>2019-03-23T08:58:12Z</time>
      </trkpt>
      <trkpt lat="39.1281" lon="-0.25173">
        <time>2019-03-23T08:58:13Z</time>
      </trkpt>
      <trkpt lat="39.12791" lon="-0.25157">
        <time>2019-03-23T08:58:14Z</time>
      </trkpt>
      <trkpt lat="39.12772" lon="-0.25137">
        <time>2019-03-23T08:58:15Z</time>
      </trkpt>
      <trkpt lat="39.12754" lon="-0.25114">
        <time>2019-03-23T08:58:16Z</time>
      </trkpt>
      <trkpt lat="39.12735" lon="-0.2509">
        <time>2019-03-23T08:58:17Z</time>
      </trkpt>
      <trkpt lat="39.12715" lon="-0.25066">
        <time>2019-03-23T08:58:18Z</time>
      </trkpt>
      <trkpt lat="39.12696" lon="-0.25043">
        <time>2019-03-23T08:58:19Z</time>
      </trkpt>
      <trkpt lat="39.12676" lon="-0.25019">
        <time>2019-03-23T08:58:20Z</time>
      </trkpt>
      <trkpt lat="39.12656" lon="-0.24994">
        <time>2019-03-23T08:58:21Z</time>
      </trkpt>
      <trkpt lat="39.12637" lon="-0.24971">
        <time>2019-03-23T08:58:22Z</time>
      </trkpt>
      <trkpt lat="39.12617" lon="-0.24948">
        <time>2019-03-23T08:58:23Z</time>
      </trkpt>
      <trkpt lat="39.12597" lon="-0.24927">
        <time>2019-03-23T08:58:24Z</time>
      </trkpt>
      <trkpt lat="39.12574" lon="-0.24909">
        <time>2019-03-23T08:58:25Z</time>
      </trkpt>
      <trkpt lat="39.12551" lon="-0.24894">
        <time>2019-03-23T08:58:26Z</time>
      </trkpt>
      <trkpt lat="39.12526" lon="-0.24881">
        <time>2019-03-23T08:58:27Z</time>
      </trkpt>
      <trkpt lat="39.125" lon="-0.24866">
        <time>2019-03-23T08:58:28Z</time>
      </trkpt>
      <trkpt lat="39.12474" lon="-0.2485">
        <time>2019-03-23T08:58:29Z</time>
      </trkpt>
      <trkpt lat="39.12447" lon="-0.24835">
        <time>2019-03-23T08:58:30Z</time>
      </trkpt>
      <trkpt lat="39.12421" lon="-0.2482">
        <time>2019-03-23T08:58:31Z</time>
      </trkpt>
      <trkpt lat="39.12394" lon="-0.24805">
        <time>2019-03-23T08:58:32Z</time>
      </trkpt>
      <trkpt lat="39.12368" lon="-0.2479">
        <time>2019-03-23T08:58:33Z</time>
      </trkpt>
      <trkpt lat="39.12342" lon="-0.24776">
        <time>2019-03-23T08:58:34Z</time>
      </trkpt>
      <trkpt lat="39.12317" lon="-0.24761">
        <time>2019-03-23T08:58:35Z</time>
      </trkpt>
      <trkpt lat="39.12291" lon="-0.24746">
        <time>2019-03-23T08:58:36Z</time>
      </trkpt>
      <trkpt lat="39.12267" lon="-0.24732">
        <time>2019-03-23T08:58:37Z</time>
      </trkpt>
      <trkpt lat="39.12244" lon="-0.24719">
        <time>2019-03-23T08:58:38Z</time>
      </trkpt>
      <trkpt lat="39.12222" lon="-0.24705">
        <time>2019-03-23T08:58:39Z</time>
      </trkpt>
      <trkpt lat="39.12202" lon="-0.24692">
        <time>2019-03-23T08:58:40Z</time>
      </trkpt>
      <trkpt lat="39.12182" lon="-0.24681">
        <time>2019-03-23T08:58:41Z</time>
      </trkpt>
      <trkpt lat="39.12163" lon="-0.2467">
        <time>2019-03-23T08:58:42Z</time>
      </trkpt>
      <trkpt lat="39.12146" lon="-0.24659">
        <time>2019-03-23T08:58:43Z</time>
      </trkpt>
      <trkpt lat="39.12128" lon="-0.24648">
        <time>2019-03-23T08:58:44Z</time>
      </trkpt>
      <trkpt lat="39.12112" lon="-0.24638">
        <time>2019-03-23T08:58:45Z</time>
      </trkpt>
      <trkpt lat="39.12096" lon="-0.24629">
        <time>2019-03-23T08:58:46Z</time>
      </trkpt>
      <trkpt lat="39.1208" lon="-0.24621">
        <time>2019-03-23T08:58:47Z</time>
      </trkpt>
      <trkpt lat="39.12067" lon="-0.24613">
        <time>2019-03-23T08:58:48Z</time>
      </trkpt>
      <trkpt lat="39.12053" lon="-0.24606">
        <time>2019-03-23T08:58:49Z</time>
      </trkpt>
      <trkpt lat="39.12044" lon="-0.246">
        <time>2019-03-23T08:58:50Z</time>
      </trkpt>
      <trkpt lat="39.12035" lon="-0.24595">
        <time>2019-03-23T08:58:51Z</time>
      </trkpt>
      <trkpt lat="39.12024" lon="-0.24588">
        <time>2019-03-23T08:58:52Z</time>
      </trkpt>
      <trkpt lat="39.12011" lon="-0.2458">
        <time>2019-03-23T08:58:53Z</time>
      </trkpt>
      <trkpt lat="39.11997" lon="-0.24571">
        <time>2019-03-23T08:58:54Z</time>
      </trkpt>
      <trkpt lat="39.11979" lon="-0.24561">
        <time>2019-03-23T08:58:55Z</time>
      </trkpt>
      <trkpt lat="39.11959" lon="-0.2455">
        <time>2019-03-23T08:58:56Z</time>
      </trkpt>
      <trkpt lat="39.11937" lon="-0.24538">
        <time>2019-03-23T08:58:57Z</time>
      </trkpt>
      <trkpt lat="39.11913" lon="-0.24525">
        <time>2019-03-23T08:58:58Z</time>
      </trkpt>
      <trkpt lat="39.11887" lon="-0.24511">
        <time>2019-03-23T08:58:59Z</time>
      </trkpt>
      <trkpt lat="39.1186" lon="-0.24496">
        <time>2019-03-23T08:59:00Z</time>
      </trkpt>
      <trkpt lat="39.11834" lon="-0.24481">
        <time>2019-03-23T08:59:01Z</time>
      </trkpt>
      <trkpt lat="39.11807" lon="-0.24465">
        <time>2019-03-23T08:59:02Z</time>
      </trkpt>
      <trkpt lat="39.11781" lon="-0.2445">
        <time>2019-03-23T08:59:03Z</time>
      </trkpt>
      <trkpt lat="39.11754" lon="-0.24435">
        <time>2019-03-23T08:59:04Z</time>
      </trkpt>
      <trkpt lat="39.11728" lon="-0.2442">
        <time>2019-03-23T08:59:05Z</time>
      </trkpt>
      <trkpt lat="39.11702" lon="-0.24406">
        <time>2019-03-23T08:59:06Z</time>
      </trkpt>
      <trkpt lat="39.11675" lon="-0.2439">
        <time>2019-03-23T08:59:07Z</time>
      </trkpt>
      <trkpt lat="39.11649" lon="-0.24376">
        <time>2019-03-23T08:59:08Z</time>
      </trkpt>
      <trkpt lat="39.11624" lon="-0.24361">
        <time>2019-03-23T08:59:09Z</time>
      </trkpt>
      <trkpt lat="39.11599" lon="-0.24344">
        <time>2019-03-23T08:59:10Z</time>
      </trkpt>
      <trkpt lat="39.11575" lon="-0.24325">
        <time>2019-03-23T08:59:11Z</time>
      </trkpt>
      <trkpt lat="39.11551" lon="-0.24304">
        <time>2019-03-23T08:59:12Z</time>
      </trkpt>
      <trkpt lat="39.11527" lon="-0.24282">
        <time>2019-03-23T08:59:13Z</time>
      </trkpt>
      <trkpt lat="39.11504" lon="-0.2426">
        <time>2019-03-23T08:59:14Z</time>
      </trkpt>
      <trkpt lat="39.11482" lon="-0.24239">
        <time>2019-03-23T08:59:15Z</time>
      </trkpt>
      <trkpt lat="39.1146" lon="-0.24218">
        <time>2019-03-23T08:59:16Z</time>
      </trkpt>
      <trkpt lat="39.11439" lon="-0.24196">
        <time>2019-03-23T08:59:17Z</time>
      </trkpt>
      <trkpt lat="39.11416" lon="-0.24176">
        <time>2019-03-23T08:59:18Z</time>
      </trkpt>
      <trkpt lat="39.11391" lon="-0.24159">
        <time>2019-03-23T08:59:19Z</time>
      </trkpt>
      <trkpt lat="39.11365" lon="-0.24143">
        <time>2019-03-23T08:59:20Z</time>
      </trkpt>
      <trkpt lat="39.11338" lon="-0.24128">
        <time>2019-03-23T08:59:21Z</time>
      </trkpt>
      <trkpt lat="39.11312" lon="-0.24112">
        <time>2019-03-23T08:59:22Z</time>
      </trkpt>
      <trkpt lat="39.11286" lon="-0.24097">
        <time>2019-03-23T08:59:23Z</time>
      </trkpt>
      <trkpt lat="39.11259" lon="-0.24081">
        <time>2019-03-23T08:59:24Z</time>
      </trkpt>
      <trkpt lat="39.11233" lon="-0.24065">
        <time>2019-03-23T08:59:25Z</time>
      </trkpt>
      <trkpt lat="39.11207" lon="-0.2405">
        <time>2019-03-23T08:59:26Z</time>
      </trkpt>
      <trkpt lat="39.11181" lon="-0.24034">
        <time>2019-03-23T08:59:27Z</time>
      </trkpt>
      <trkpt lat="39.11156" lon="-0.24017">
        <time>2019-03-23T08:59:28Z</time>
      </trkpt>
      <trkpt lat="39.11131" lon="-0.24">
        <time>2019-03-23T08:59:29Z</time>
      </trkpt>
      <trkpt lat="39.11106" lon="-0.23983">
        <time>2019-03-23T08:59:30Z</time>
      </trkpt>
      <trkpt lat="39.11081" lon="-0.23967">
        <time>2019-03-23T08:59:31Z</time>
      </trkpt>
      <trkpt lat="39.11057" lon="-0.23951">
        <time>2019-03-23T08:59:32Z</time>
      </trkpt>
      <trkpt lat="39.11032" lon="-0.23939">
        <time>2019-03-23T08:59:33Z</time>
      </trkpt>
      <trkpt lat="39.11006" lon="-0.23928">
        <time>2019-03-23T08:59:34Z</time>
      </trkpt>
      <trkpt lat="39.10979" lon="-0.23918">
        <time>2019-03-23T08:59:35Z</time>
      </trkpt>
      <trkpt lat="39.10952" lon="-0.23907">
        <time>2019-03-23T08:59:36Z</time>
      </trkpt>
      <trkpt lat="39.10924" lon="-0.23896">
        <time>2019-03-23T08:59:37Z</time>
      </trkpt>
      <trkpt lat="39.10895" lon="-0.23885">
        <time>2019-03-23T08:59:38Z</time>
      </trkpt>
      <trkpt lat="39.10867" lon="-0.23877">
        <time>2019-03-23T08:59:39Z</time>
      </trkpt>
      <trkpt lat="39.10837" lon="-0.23868">
        <time>2019-03-23T08:59:40Z</time>
      </trkpt>
      <trkpt lat="39.10808" lon="-0.23862">
        <time>2019-03-23T08:59:41Z</time>
      </trkpt>
      <trkpt lat="39.10779" lon="-0.23856">
        <time>2019-03-23T08:59:42Z</time>
      </trkpt>
      <trkpt lat="39.10749" lon="-0.2385">
        <time>2019-03-23T08:59:43Z</time>
      </trkpt>
      <trkpt lat="39.10721" lon="-0.23844">
        <time>2019-03-23T08:59:44Z</time>
      </trkpt>
      <trkpt lat="39.10693" lon="-0.23838">
        <time>2019-03-23T08:59:45Z</time>
      </trkpt>
      <trkpt lat="39.10665" lon="-0.23831">
        <time>2019-03-23T08:59:46Z</time>
      </trkpt>
      <trkpt lat="39.10637" lon="-0.23822">
        <time>2019-03-23T08:59:47Z</time>
      </trkpt>
      <trkpt lat="39.1061" lon="-0.23812">
        <time>2019-03-23T08:59:48Z</time>
      </trkpt>
      <trkpt lat="39.10583" lon="-0.23802">
        <time>2019-03-23T08:59:49Z</time>
      </trkpt>
      <trkpt lat="39.10557" lon="-0.23792">
        <time>2019-03-23T08:59:50Z</time>
      </trkpt>
      <trkpt lat="39.10533" lon="-0.23783">
        <time>2019-03-23T08:59:51Z</time>
      </trkpt>
      <trkpt lat="39.1051" lon="-0.23773">
        <time>2019-03-23T08:59:52Z</time>
      </trkpt>
      <trkpt lat="39.10486" lon="-0.23763">
        <time>2019-03-23T08:59:53Z</time>
      </trkpt>
      <trkpt lat="39.10461" lon="-0.23753">
        <time>2019-03-23T08:59:54Z</time>
      </trkpt>
      <trkpt lat="39.10437" lon="-0.23744">
        <time>2019-03-23T08:59:55Z</time>
      </trkpt>
      <trkpt lat="39.10412" lon="-0.23735">
        <time>2019-03-23T08:59:56Z</time>
      </trkpt>
      <trkpt lat="39.10387" lon="-0.23728">
        <time>2019-03-23T08:59:57Z</time>
      </trkpt>
      <trkpt lat="39.10362" lon="-0.23719">
        <time>2019-03-23T08:59:58Z</time>
      </trkpt>
      <trkpt lat="39.10337" lon="-0.23708">
        <time>2019-03-23T08:59:59Z</time>
      </trkpt>
      <trkpt lat="39.10312" lon="-0.23697">
        <time>2019-03-23T09:00:00Z</time>
      </trkpt>
      <trkpt lat="39.10285" lon="-0.23688">
        <time>2019-03-23T09:00:01Z</time>
      </trkpt>
      <trkpt lat="39.10259" lon="-0.23678">
        <time>2019-03-23T09:00:02Z</time>
      </trkpt>
      <trkpt lat="39.10232" lon="-0.23667">
        <time>2019-03-23T09:00:03Z</time>
      </trkpt>
      <trkpt lat="39.10205" lon="-0.23658">
        <time>2019-03-23T09:00:04Z</time>
      </trkpt>
      <trkpt lat="39.10178" lon="-0.23649">
        <time>2019-03-23T09:00:05Z</time>
      </trkpt>
      <trkpt lat="39.10152" lon="-0.2364">
        <time>2019-03-23T09:00:06Z</time>
      </trkpt>
      <trkpt lat="39.10126" lon="-0.23627">
        <time>2019-03-23T09:00:07Z</time>
      </trkpt>
      <trkpt lat="39.10101" lon="-0.23612">
        <time>2019-03-23T09:00:08Z</time>
      </trkpt>
      <trkpt lat="39.10075" lon="-0.23597">
        <time>2019-03-23T09:00:09Z</time>
      </trkpt>
      <trkpt lat="39.1005" lon="-0.23581">
        <time>2019-03-23T09:00:10Z</time>
      </trkpt>
      <trkpt lat="39.10024" lon="-0.23564">
        <time>2019-03-23T09:00:11Z</time>
      </trkpt>
      <trkpt lat="39.09998" lon="-0.23549">
        <time>2019-03-23T09:00:12Z</time>
      </trkpt>
      <trkpt lat="39.09971" lon="-0.23535">
        <time>2019-03-23T09:00:13Z</time>
      </trkpt>
      <trkpt lat="39.09944" lon="-0.23522">
        <time>2019-03-23T09:00:14Z</time>
      </trkpt>
      <trkpt lat="39.09917" lon="-0.23509">
        <time>2019-03-23T09:00:15Z</time>
      </trkpt>
      <trkpt lat="39.09891" lon="-0.23497">
        <time>2019-03-23T09:00:16Z</time>
      </trkpt>
      <trkpt lat="39.09865" lon="-0.23483">
        <time>2019-03-23T09:00:17Z</time>
      </trkpt>
      <trkpt lat="39.0984" lon="-0.23467">
        <time>2019-03-23T09:00:18Z</time>
      </trkpt>
      <trkpt lat="39.09815" lon="-0.2345">
        <time>2019-03-23T09:00:19Z</time>
      </trkpt>
      <trkpt lat="39.09789" lon="-0.23434">
        <time>2019-03-23T09:00:20Z</time>
      </trkpt>
      <trkpt lat="39.09764" lon="-0.23419">
        <time>2019-03-23T09:00:21Z</time>
      </trkpt>
      <trkpt lat="39.09739" lon="-0.23404">
        <time>2019-03-23T09:00:22Z</time>
      </trkpt>
      <trkpt lat="39.09716" lon="-0.2339">
        <time>2019-03-23T09:00:23Z</time>
      </trkpt>
      <trkpt lat="39.09692" lon="-0.23377">
        <time>2019-03-23T09:00:24Z</time>
      </trkpt>
      <trkpt lat="39.09667" lon="-0.23365">
        <time>2019-03-23T09:00:25Z</time>
      </trkpt>
      <trkpt lat="39.0964" lon="-0.23354">
        <time>2019-03-23T09:00:26Z</time>
      </trkpt>
      <trkpt lat="39.09613" lon="-0.23345">
        <time>2019-03-23T09:00:27Z</time>
      </trkpt>
      <trkpt lat="39.09586" lon="-0.23336">
        <time>2019-03-23T09:00:28Z</time>
      </trkpt>
      <trkpt lat="39.09559" lon="-0.23327">
        <time>2019-03-23T09:00:29Z</time>
      </trkpt>
      <trkpt lat="39.09532" lon="-0.23316">
        <time>2019-03-23T09:00:30Z</time>
      </trkpt>
      <trkpt lat="39.09506" lon="-0.23304">
        <time>2019-03-23T09:00:31Z</time>
      </trkpt>
      <trkpt lat="39.0948" lon="-0.23291">
        <time>2019-03-23T09:00:32Z</time>
      </trkpt>
      <trkpt lat="39.09454" lon="-0.23277">
        <time>2019-03-23T09:00:33Z</time>
      </trkpt>
      <trkpt lat="39.09428" lon="-0.23262">
        <time>2019-03-23T09:00:34Z</time>
      </trkpt>
      <trkpt lat="39.09402" lon="-0.23247">
        <time>2019-03-23T09:00:35Z</time>
      </trkpt>
      <trkpt lat="39.09376" lon="-0.23233">
        <time>2019-03-23T09:00:36Z</time>
      </trkpt>
      <trkpt lat="39.0935" lon="-0.23218">
        <time>2019-03-23T09:00:37Z</time>
      </trkpt>
      <trkpt lat="39.09323" lon="-0.23204">
        <time>2019-03-23T09:00:38Z</time>
      </trkpt>
      <trkpt lat="39.09297" lon="-0.2319">
        <time>2019-03-23T09:00:39Z</time>
      </trkpt>
      <trkpt lat="39.0927" lon="-0.23175">
        <time>2019-03-23T09:00:40Z</time>
      </trkpt>
      <trkpt lat="39.09244" lon="-0.2316">
        <time>2019-03-23T09:00:41Z</time>
      </trkpt>
      <trkpt lat="39.09218" lon="-0.23145">
        <time>2019-03-23T09:00:42Z</time>
      </trkpt>
      <trkpt lat="39.09192" lon="-0.2313">
        <time>2019-03-23T09:00:43Z</time>
      </trkpt>
      <trkpt lat="39.09166" lon="-0.23115">
        <time>2019-03-23T09:00:44Z</time>
      </trkpt>
      <trkpt lat="39.0914" lon="-0.231">
        <time>2019-03-23T09:00:45Z</time>
      </trkpt>
      <trkpt lat="39.09113" lon="-0.23085">
        <time>2019-03-23T09:00:46Z</time>
      </trkpt>
      <trkpt lat="39.09087" lon="-0.23069">
        <time>2019-03-23T09:00:47Z</time>
      </trkpt>
      <trkpt lat="39.09061" lon="-0.23054">
        <time>2019-03-23T09:00:48Z</time>
      </trkpt>
      <trkpt lat="39.09035" lon="-0.23039">
        <time>2019-03-23T09:00:49Z</time>
      </trkpt>
      <trkpt lat="39.09009" lon="-0.23024">
        <time>2019-03-23T09:00:50Z</time>
      </trkpt>
      <trkpt lat="39.08983" lon="-0.23008">
        <time>2019-03-23T09:00:51Z</time>
      </trkpt>
      <trkpt lat="39.08958" lon="-0.22992">
        <time>2019-03-23T09:00:52Z</time>
      </trkpt>
      <trkpt lat="39.08933" lon="-0.22975">
        <time>2019-03-23T09:00:53Z</time>
      </trkpt>
      <trkpt lat="39.08908" lon="-0.22957">
        <time>2019-03-23T09:00:54Z</time>
      </trkpt>
      <trkpt lat="39.08884" lon="-0.22939">
        <time>2019-03-23T09:00:55Z</time>
      </trkpt>
      <trkpt lat="39.08859" lon="-0.22921">
        <time>2019-03-23T09:00:56Z</time>
      </trkpt>
      <trkpt lat="39.08835" lon="-0.22904">
        <time>2019-03-23T09:00:57Z</time>
      </trkpt>
      <trkpt lat="39.0881" lon="-0.22887">
        <time>2019-03-23T09:00:58Z</time>
      </trkpt>
      <trkpt lat="39.08784" lon="-0.22872">
        <time>2019-03-23T09:00:59Z</time>
      </trkpt>
      <trkpt lat="39.08759" lon="-0.22859">
        <time>2019-03-23T09:01:00Z</time>
      </trkpt>
      <trkpt lat="39.08734" lon="-0.22846">
        <time>2019-03-23T09:01:01Z</time>
      </trkpt>
      <trkpt lat="39.08711" lon="-0.22834">
        <time>2019-03-23T09:01:02Z</time>
      </trkpt>
      <trkpt lat="39.08687" lon="-0.22821">
        <time>2019-03-23T09:01:03Z</time>
      </trkpt>
      <trkpt lat="39.08665" lon="-0.22808">
        <time>2019-03-23T09:01:04Z</time>
      </trkpt>
      <trkpt lat="39.08643" lon="-0.22795">
        <time>2019-03-23T09:01:05Z</time>
      </trkpt>
      <trkpt lat="39.08622" lon="-0.22783">
        <time>2019-03-23T09:01:06Z</time>
      </trkpt>
      <trkpt lat="39.08602" lon="-0.22771">
        <time>2019-03-23T09:01:07Z</time>
      </trkpt>
      <trkpt lat="39.08583" lon="-0.22761">
        <time>2019-03-23T09:01:08Z</time>
      </trkpt>
      <trkpt lat="39.08565" lon="-0.22751">
        <time>2019-03-23T09:01:09Z</time>
      </trkpt>
      <trkpt lat="39.08549" lon="-0.22742">
        <time>2019-03-23T09:01:10Z</time>
      </trkpt>
      <trkpt lat="39.08535" lon="-0.22732">
        <time>2019-03-23T09:01:11Z</time>
      </trkpt>
      <trkpt lat="39.08521" lon="-0.22723">
        <time>2019-03-23T09:01:12Z</time>
      </trkpt>
      <trkpt lat="39.0851" lon="-0.22715">
        <time>2019-03-23T09:01:13Z</time>
      </trkpt>
      <trkpt lat="39.08498" lon="-0.22708">
        <time>2019-03-23T09:01:14Z</time>
      </trkpt>
      <trkpt lat="39.08487" lon="-0.22701">
        <time>2019-03-23T09:01:15Z</time>
      </trkpt>
      <trkpt lat="39.08476" lon="-0.22695">
        <time>2019-03-23T09:01:16Z</time>
      </trkpt>
      <trkpt lat="39.08466" lon="-0.2269">
        <time>2019-03-23T09:01:17Z</time>
      </trkpt>
      <trkpt lat="39.08456" lon="-0.22686">
        <time>2019-03-23T09:01:18Z</time>
      </trkpt>
      <trkpt lat="39.08446" lon="-0.22684">
        <time>2019-03-23T09:01:19Z</time>
      </trkpt>
      <trkpt lat="39.08436" lon="-0.22689">
        <time>2019-03-23T09:01:20Z</time>
      </trkpt>
      <trkpt lat="39.08426" lon="-0.22699">
        <time>2019-03-23T09:01:21Z</time>
      </trkpt>
      <trkpt lat="39.08418" lon="-0.22714">
        <time>2019-03-23T09:01:22Z</time>
      </trkpt>
      <trkpt lat="39.0841" lon="-0.22733">
        <time>2019-03-23T09:01:23Z</time>
      </trkpt>
      <trkpt lat="39.08401" lon="-0.22753">
        <time>2019-03-23T09:01:24Z</time>
      </trkpt>
      <trkpt lat="39.08392" lon="-0.22775">
        <time>2019-03-23T09:01:25Z</time>
      </trkpt>
      <trkpt lat="39.08384" lon="-0.22798">
        <time>2019-03-23T09:01:26Z</time>
      </trkpt>
      <trkpt lat="39.08376" lon="-0.22822">
        <time>2019-03-23T09:01:27Z</time>
      </trkpt>
      <trkpt lat="39.08368" lon="-0.22846">
        <time>2019-03-23T09:01:28Z</time>
      </trkpt>
      <trkpt lat="39.0836" lon="-0.22869">
        <time>2019-03-23T09:01:29Z</time>
      </trkpt>
      <trkpt lat="39.08352" lon="-0.22891">
        <time>2019-03-23T09:01:30Z</time>
      </trkpt>
      <trkpt lat="39.08345" lon="-0.22912">
        <time>2019-03-23T09:01:31Z</time>
      </trkpt>
      <trkpt lat="39.08338" lon="-0.22932">
        <time>2019-03-23T09:01:32Z</time>
      </trkpt>
      <trkpt lat="39.08332" lon="-0.2295">
        <time>2019-03-23T09:01:33Z</time>
      </trkpt>
      <trkpt lat="39.08327" lon="-0.22968">
        <time>2019-03-23T09:01:34Z</time>
      </trkpt>
      <trkpt lat="39.08322" lon="-0.22985">
        <time>2019-03-23T09:01:35Z</time>
      </trkpt>
      <trkpt lat="39.08318" lon="-0.23">
        <time>2019-03-23T09:01:36Z</time>
      </trkpt>
      <trkpt lat="39.08315" lon="-0.23013">
        <time>2019-03-23T09:01:37Z</time>
      </trkpt>
      <trkpt lat="39.08313" lon="-0.23024">
        <time>2019-03-23T09:01:38Z</time>
      </trkpt>
      <trkpt lat="39.08313" lon="-0.23034">
        <time>2019-03-23T09:01:39Z</time>
      </trkpt>
      <trkpt lat="39.08313" lon="-0.23045">
        <time>2019-03-23T09:01:40Z</time>
      </trkpt>
      <trkpt lat="39.08315" lon="-0.23055">
        <time>2019-03-23T09:01:41Z</time>
      </trkpt>
      <trkpt lat="39.08314" lon="-0.23067">
        <time>2019-03-23T09:01:42Z</time>
      </trkpt>
      <trkpt lat="39.08311" lon="-0.23079">
        <time>2019-03-23T09:01:43Z</time>
      </trkpt>
      <trkpt lat="39.08305" lon="-0.23091">
        <time>2019-03-23T09:01:44Z</time>
      </trkpt>
      <trkpt lat="39.083" lon="-0.23105">
        <time>2019-03-23T09:01:45Z</time>
      </trkpt>
      <trkpt lat="39.08296" lon="-0.23121">
        <time>2019-03-23T09:01:46Z</time>
      </trkpt>
      <trkpt lat="39.08295" lon="-0.23138">
        <time>2019-03-23T09:01:47Z</time>
      </trkpt>
      <trkpt lat="39.08293" lon="-0.23156">
        <time>2019-03-23T09:01:48Z</time>
      </trkpt>
      <trkpt lat="39.08292" lon="-0.23175">
        <time>2019-03-23T09:01:49Z</time>
      </trkpt>
      <trkpt lat="39.08291" lon="-0.23193">
        <time>2019-03-23T09:01:50Z</time>
      </trkpt>
      <trkpt lat="39.0829" lon="-0.23212">
        <time>2019-03-23T09:01:51Z</time>
      </trkpt>
      <trkpt lat="39.08288" lon="-0.23232">
        <time>2019-03-23T09:01:52Z</time>
      </trkpt>
      <trkpt lat="39.08287" lon="-0.23252">
        <time>2019-03-23T09:01:53Z</time>
      </trkpt>
      <trkpt lat="39.08286" lon="-0.23273">
        <time>2019-03-23T09:01:54Z</time>
      </trkpt>
      <trkpt lat="39.08285" lon="-0.23295">
        <time>2019-03-23T09:01:55Z</time>
      </trkpt>
      <trkpt lat="39.08284" lon="-0.23317">
        <time>2019-03-23T09:01:56Z</time>
      </trkpt>
      <trkpt lat="39.08282" lon="-0.2334">
        <time>2019-03-23T09:01:57Z</time>
      </trkpt>
      <trkpt lat="39.0828" lon="-0.23363">
        <time>2019-03-23T09:01:58Z</time>
      </trkpt>
      <trkpt lat="39.08279" lon="-0.23386">
        <time>2019-03-23T09:01:59Z</time>
      </trkpt>
      <trkpt lat="39.08278" lon="-0.23409">
        <time>2019-03-23T09:02:00Z</time>
      </trkpt>
      <trkpt lat="39.08277" lon="-0.23434">
        <time>2019-03-23T09:02:01Z</time>
      </trkpt>
      <trkpt lat="39.08275" lon="-0.23459">
        <time>2019-03-23T09:02:02Z</time>
      </trkpt>
      <trkpt lat="39.08273" lon="-0.23485">
        <time>2019-03-23T09:02:03Z</time>
      </trkpt>
      <trkpt lat="39.08271" lon="-0.23511">
        <time>2019-03-23T09:02:04Z</time>
      </trkpt>
      <trkpt lat="39.0827" lon="-0.23539">
        <time>2019-03-23T09:02:05Z</time>
      </trkpt>
      <trkpt lat="39.08268" lon="-0.23567">
        <time>2019-03-23T09:02:06Z</time>
      </trkpt>
      <trkpt lat="39.08266" lon="-0.23595">
        <time>2019-03-23T09:02:07Z</time>
      </trkpt>
      <trkpt lat="39.08265" lon="-0.23622">
        <time>2019-03-23T09:02:08Z</time>
      </trkpt>
      <trkpt lat="39.08263" lon="-0.23648">
        <time>2019-03-23T09:02:09Z</time>
      </trkpt>
      <trkpt lat="39.08261" lon="-0.23674">
        <time>2019-03-23T09:02:10Z</time>
      </trkpt>
      <trkpt lat="39.08259" lon="-0.23701">
        <time>2019-03-23T09:02:11Z</time>
      </trkpt>
      <trkpt lat="39.08257" lon="-0.23728">
        <time>2019-03-23T09:02:12Z</time>
      </trkpt>
      <trkpt lat="39.08255" lon="-0.23755">
        <time>2019-03-23T09:02:13Z</time>
      </trkpt>
      <trkpt lat="39.08253" lon="-0.23782">
        <time>2019-03-23T09:02:14Z</time>
      </trkpt>
      <trkpt lat="39.08252" lon="-0.23809">
        <time>2019-03-23T09:02:15Z</time>
      </trkpt>
      <trkpt lat="39.0825" lon="-0.23835">
        <time>2019-03-23T09:02:16Z</time>
      </trkpt>
      <trkpt lat="39.08249" lon="-0.23859">
        <time>2019-03-23T09:02:17Z</time>
      </trkpt>
      <trkpt lat="39.08247" lon="-0.23884">
        <time>2019-03-23T09:02:18Z</time>
      </trkpt>
      <trkpt lat="39.08245" lon="-0.23909">
        <time>2019-03-23T09:02:19Z</time>
      </trkpt>
      <trkpt lat="39.08243" lon="-0.23935">
        <time>2019-03-23T09:02:20Z</time>
      </trkpt>
      <trkpt lat="39.08241" lon="-0.23961">
        <time>2019-03-23T09:02:21Z</time>
      </trkpt>
      <trkpt lat="39.08238" lon="-0.23986">
        <time>2019-03-23T09:02:22Z</time>
      </trkpt>
      <trkpt lat="39.08236" lon="-0.24009">
        <time>2019-03-23T09:02:23Z</time>
      </trkpt>
      <trkpt lat="39.08235" lon="-0.2403">
        <time>2019-03-23T09:02:24Z</time>
      </trkpt>
      <trkpt lat="39.08233" lon="-0.24051">
        <time>2019-03-23T09:02:25Z</time>
      </trkpt>
      <trkpt lat="39.08231" lon="-0.2407">
        <time>2019-03-23T09:02:26Z</time>
      </trkpt>
      <trkpt lat="39.08229" lon="-0.24088">
        <time>2019-03-23T09:02:27Z</time>
      </trkpt>
      <trkpt lat="39.08228" lon="-0.24107">
        <time>2019-03-23T09:02:28Z</time>
      </trkpt>
      <trkpt lat="39.08226" lon="-0.24125">
        <time>2019-03-23T09:02:29Z</time>
      </trkpt>
      <trkpt lat="39.08224" lon="-0.24141">
        <time>2019-03-23T09:02:30Z</time>
      </trkpt>
      <trkpt lat="39.08223" lon="-0.24158">
        <time>2019-03-23T09:02:31Z</time>
      </trkpt>
      <trkpt lat="39.08223" lon="-0.24174">
        <time>2019-03-23T09:02:32Z</time>
      </trkpt>
      <trkpt lat="39.08224" lon="-0.24189">
        <time>2019-03-23T09:02:33Z</time>
      </trkpt>
      <trkpt lat="39.08229" lon="-0.24201">
        <time>2019-03-23T09:02:34Z</time>
      </trkpt>
      <trkpt lat="39.08234" lon="-0.24214">
        <time>2019-03-23T09:02:35Z</time>
      </trkpt>
      <trkpt lat="39.08238" lon="-0.24226">
        <time>2019-03-23T09:02:36Z</time>
      </trkpt>
      <trkpt lat="39.08237" lon="-0.24239">
        <time>2019-03-23T09:02:37Z</time>
      </trkpt>
      <trkpt lat="39.08232" lon="-0.24251">
        <time>2019-03-23T09:02:38Z</time>
      </trkpt>
      <trkpt lat="39.08224" lon="-0.24258">
        <time>2019-03-23T09:02:39Z</time>
      </trkpt>
      <trkpt lat="39.08215" lon="-0.24261">
        <time>2019-03-23T09:02:40Z</time>
      </trkpt>
      <trkpt lat="39.08205" lon="-0.24258">
        <time>2019-03-23T09:02:41Z</time>
      </trkpt>
      <trkpt lat="39.08195" lon="-0.24252">
        <time>2019-03-23T09:02:42Z</time>
      </trkpt>
      <trkpt lat="39.08184" lon="-0.24245">
        <time>2019-03-23T09:02:43Z</time>
      </trkpt>
      <trkpt lat="39.08171" lon="-0.24242">
        <time>2019-03-23T09:02:44Z</time>
      </trkpt>
      <trkpt lat="39.08159" lon="-0.2424">
        <time>2019-03-23T09:02:45Z</time>
      </trkpt>
      <trkpt lat="39.08146" lon="-0.2424">
        <time>2019-03-23T09:02:46Z</time>
      </trkpt>
      <trkpt lat="39.08134" lon="-0.24241">
        <time>2019-03-23T09:02:47Z</time>
      </trkpt>
      <trkpt lat="39.08121" lon="-0.2424">
        <time>2019-03-23T09:02:48Z</time>
      </trkpt>
      <trkpt lat="39.08107" lon="-0.2424">
        <time>2019-03-23T09:02:49Z</time>
      </trkpt>
      <trkpt lat="39.08092" lon="-0.2424">
        <time>2019-03-23T09:02:50Z</time>
      </trkpt>
      <trkpt lat="39.08077" lon="-0.2424">
        <time>2019-03-23T09:02:51Z</time>
      </trkpt>
      <trkpt lat="39.08063" lon="-0.24241">
        <time>2019-03-23T09:02:52Z</time>
      </trkpt>
      <trkpt lat="39.08048" lon="-0.24242">
        <time>2019-03-23T09:02:53Z</time>
      </trkpt>
      <trkpt lat="39.08034" lon="-0.24244">
        <time>2019-03-23T09:02:54Z</time>
      </trkpt>
      <trkpt lat="39.0802" lon="-0.24249">
        <time>2019-03-23T09:02:55Z</time>
      </trkpt>
      <trkpt lat="39.08007" lon="-0.24258">
        <time>2019-03-23T09:02:56Z</time>
      </trkpt>
      <trkpt lat="39.07995" lon="-0.24268">
        <time>2019-03-23T09:02:57Z</time>
      </trkpt>
      <trkpt lat="39.07982" lon="-0.24279">
        <time>2019-03-23T09:02:58Z</time>
      </trkpt>
      <trkpt lat="39.0797" lon="-0.24288">
        <time>2019-03-23T09:02:59Z</time>
      </trkpt>
      <trkpt lat="39.07956" lon="-0.24296">
        <time>2019-03-23T09:03:00Z</time>
      </trkpt>
      <trkpt lat="39.07943" lon="-0.24302">
        <time>2019-03-23T09:03:01Z</time>
      </trkpt>
      <trkpt lat="39.07929" lon="-0.24307">
        <time>2019-03-23T09:03:02Z</time>
      </trkpt>
      <trkpt lat="39.07915" lon="-0.2431">
        <time>2019-03-23T09:03:03Z</time>
      </trkpt>
      <trkpt lat="39.07902" lon="-0.24313">
        <time>2019-03-23T09:03:04Z</time>
      </trkpt>
      <trkpt lat="39.07889" lon="-0.24317">
        <time>2019-03-23T09:03:05Z</time>
      </trkpt>
      <trkpt lat="39.07879" lon="-0.24323">
        <time>2019-03-23T09:03:06Z</time>
      </trkpt>
      <trkpt lat="39.07869" lon="-0.24329">
        <time>2019-03-23T09:03:07Z</time>
      </trkpt>
      <trkpt lat="39.0786" lon="-0.24336">
        <time>2019-03-23T09:03:08Z</time>
      </trkpt>
      <trkpt lat="39.07852" lon="-0.24344">
        <time>2019-03-23T09:03:09Z</time>
      </trkpt>
      <trkpt lat="39.07845" lon="-0.24355">
        <time>2019-03-23T09:03:10Z</time>
      </trkpt>
      <trkpt lat="39.07838" lon="-0.24367">
        <time>2019-03-23T09:03:11Z</time>
      </trkpt>
      <trkpt lat="39.07831" lon="-0.24381">
        <time>2019-03-23T09:03:12Z</time>
      </trkpt>
      <trkpt lat="39.07827" lon="-0.24396">
        <time>2019-03-23T09:03:13Z</time>
      </trkpt>
      <trkpt lat="39.07825" lon="-0.24409">
        <time>2019-03-23T09:03:14Z</time>
      </trkpt>
      <trkpt lat="39.07822" lon="-0.24421">
        <time>2019-03-23T09:03:15Z</time>
      </trkpt>
      <trkpt lat="39.0782" lon="-0.24431">
        <time>2019-03-23T09:03:16Z</time>
      </trkpt>
      <trkpt lat="39.07821" lon="-0.24444">
        <time>2019-03-23T09:03:17Z</time>
      </trkpt>
      <trkpt lat="39.07823" lon="-0.24457">
        <time>2019-03-23T09:03:18Z</time>
      </trkpt>
      <trkpt lat="39.07823" lon="-0.2447">
        <time>2019-03-23T09:03:19Z</time>
      </trkpt>
      <trkpt lat="39.07821" lon="-0.24483">
        <time>2019-03-23T09:03:20Z</time>
      </trkpt>
      <trkpt lat="39.07815" lon="-0.24493">
        <time>2019-03-23T09:03:21Z</time>
      </trkpt>
      <trkpt lat="39.0781" lon="-0.24503">
        <time>2019-03-23T09:03:22Z</time>
      </trkpt>
      <trkpt lat="39.07808" lon="-0.24514">
        <time>2019-03-23T09:03:23Z</time>
      </trkpt>
      <trkpt lat="39.07806" lon="-0.24526">
        <time>2019-03-23T09:03:24Z</time>
      </trkpt>
      <trkpt lat="39.07804" lon="-0.24539">
        <time>2019-03-23T09:03:25Z</time>
      </trkpt>
      <trkpt lat="39.07802" lon="-0.24552">
        <time>2019-03-23T09:03:26Z</time>
      </trkpt>
      <trkpt lat="39.078" lon="-0.24567">
        <time>2019-03-23T09:03:27Z</time>
      </trkpt>
      <trkpt lat="39.07797" lon="-0.24582">
        <time>2019-03-23T09:03:28Z</time>
      </trkpt>
      <trkpt lat="39.07795" lon="-0.24597">
        <time>2019-03-23T09:03:29Z</time>
      </trkpt>
      <trkpt lat="39.07792" lon="-0.24613">
        <time>2019-03-23T09:03:30Z</time>
      </trkpt>
      <trkpt lat="39.07789" lon="-0.2463">
        <time>2019-03-23T09:03:31Z</time>
      </trkpt>
      <trkpt lat="39.07787" lon="-0.24648">
        <time>2019-03-23T09:03:32Z</time>
      </trkpt>
      <trkpt lat="39.07784" lon="-0.24667">
        <time>2019-03-23T09:03:33Z</time>
      </trkpt>
      <trkpt lat="39.0778" lon="-0.24686">
        <time>2019-03-23T09:03:34Z</time>
      </trkpt>
      <trkpt lat="39.07777" lon="-0.24707">
        <time>2019-03-23T09:03:35Z</time>
      </trkpt>
      <trkpt lat="39.07774" lon="-0.24728">
        <time>2019-03-23T09:03:36Z</time>
      </trkpt>
      <trkpt lat="39.07771" lon="-0.24751">
        <time>2019-03-23T09:03:37Z</time>
      </trkpt>
      <trkpt lat="39.07767" lon="-0.24775">
        <time>2019-03-23T09:03:38Z</time>
      </trkpt>
      <trkpt lat="39.07763" lon="-0.24799">
        <time>2019-03-23T09:03:39Z</time>
      </trkpt>
      <trkpt lat="39.07759" lon="-0.24824">
        <time>2019-03-23T09:03:40Z</time>
      </trkpt>
      <trkpt lat="39.07754" lon="-0.24849">
        <time>2019-03-23T09:03:41Z</time>
      </trkpt>
      <trkpt lat="39.0775" lon="-0.24875">
        <time>2019-03-23T09:03:42Z</time>
      </trkpt>
      <trkpt lat="39.07746" lon="-0.24899">
        <time>2019-03-23T09:03:43Z</time>
      </trkpt>
      <trkpt lat="39.07742" lon="-0.24923">
        <time>2019-03-23T09:03:44Z</time>
      </trkpt>
      <trkpt lat="39.07738" lon="-0.24947">
        <time>2019-03-23T09:03:45Z</time>
      </trkpt>
      <trkpt lat="39.07734" lon="-0.2497">
        <time>2019-03-23T09:03:46Z</time>
      </trkpt>
      <trkpt lat="39.0773" lon="-0.24992">
        <time>2019-03-23T09:03:47Z</time>
      </trkpt>
      <trkpt lat="39.07727" lon="-0.25013">
        <time>2019-03-23T09:03:48Z</time>
      </trkpt>
      <trkpt lat="39.07724" lon="-0.25035">
        <time>2019-03-23T09:03:49Z</time>
      </trkpt>
      <trkpt lat="39.07721" lon="-0.25056">
        <time>2019-03-23T09:03:50Z</time>
      </trkpt>
      <trkpt lat="39.07717" lon="-0.25076">
        <time>2019-03-23T09:03:51Z</time>
      </trkpt>
      <trkpt lat="39.07715" lon="-0.25094">
        <time>2019-03-23T09:03:52Z</time>
      </trkpt>
      <trkpt lat="39.07712" lon="-0.25112">
        <time>2019-03-23T09:03:53Z</time>
      </trkpt>
      <trkpt lat="39.07709" lon="-0.25129">
        <time>2019-03-23T09:03:54Z</time>
      </trkpt>
      <trkpt lat="39.07708" lon="-0.25142">
        <time>2019-03-23T09:03:55Z</time>
      </trkpt>
      <trkpt lat="39.07707" lon="-0.25154">
        <time>2019-03-23T09:03:56Z</time>
      </trkpt>
      <trkpt lat="39.07708" lon="-0.25167">
        <time>2019-03-23T09:03:57Z</time>
      </trkpt>
      <trkpt lat="39.07712" lon="-0.25179">
        <time>2019-03-23T09:03:58Z</time>
      </trkpt>
      <trkpt lat="39.07716" lon="-0.25191">
        <time>2019-03-23T09:03:59Z</time>
      </trkpt>
      <trkpt lat="39.07717" lon="-0.25203">
        <time>2019-03-23T09:04:00Z</time>
      </trkpt>
      <trkpt lat="39.07713" lon="-0.25213">
        <time>2019-03-23T09:04:01Z</time>
      </trkpt>
      <trkpt lat="39.07707" lon="-0.25221">
        <time>2019-03-23T09:04:02Z</time>
      </trkpt>
      <trkpt lat="39.077" lon="-0.25228">
        <time>2019-03-23T09:04:03Z</time>
      </trkpt>
      <trkpt lat="39.07693" lon="-0.25238">
        <time>2019-03-23T09:04:04Z</time>
      </trkpt>
      <trkpt lat="39.07689" lon="-0.25251">
        <time>2019-03-23T09:04:05Z</time>
      </trkpt>
      <trkpt lat="39.07686" lon="-0.25265">
        <time>2019-03-23T09:04:06Z</time>
      </trkpt>
      <trkpt lat="39.07684" lon="-0.2528">
        <time>2019-03-23T09:04:07Z</time>
      </trkpt>
      <trkpt lat="39.07682" lon="-0.25295">
        <time>2019-03-23T09:04:08Z</time>
      </trkpt>
      <trkpt lat="39.07679" lon="-0.25311">
        <time>2019-03-23T09:04:09Z</time>
      </trkpt>
      <trkpt lat="39.07676" lon="-0.25328">
        <time>2019-03-23T09:04:10Z</time>
      </trkpt>
      <trkpt lat="39.07673" lon="-0.25347">
        <time>2019-03-23T09:04:11Z</time>
      </trkpt>
      <trkpt lat="39.0767" lon="-0.25367">
        <time>2019-03-23T09:04:12Z</time>
      </trkpt>
      <trkpt lat="39.07666" lon="-0.25387">
        <time>2019-03-23T09:04:13Z</time>
      </trkpt>
      <trkpt lat="39.07663" lon="-0.25407">
        <time>2019-03-23T09:04:14Z</time>
      </trkpt>
      <trkpt lat="39.0766" lon="-0.25427">
        <time>2019-03-23T09:04:15Z</time>
      </trkpt>
      <trkpt lat="39.07656" lon="-0.25448">
        <time>2019-03-23T09:04:16Z</time>
      </trkpt>
      <trkpt lat="39.07653" lon="-0.25469">
        <time>2019-03-23T09:04:17Z</time>
      </trkpt>
      <trkpt lat="39.0765" lon="-0.25489">
        <time>2019-03-23T09:04:18Z</time>
      </trkpt>
      <trkpt lat="39.07647" lon="-0.25508">
        <time>2019-03-23T09:04:19Z</time>
      </trkpt>
      <trkpt lat="39.07644" lon="-0.25528">
        <time>2019-03-23T09:04:20Z</time>
      </trkpt>
      <trkpt lat="39.0764" lon="-0.25547">
        <time>2019-03-23T09:04:21Z</time>
      </trkpt>
      <trkpt lat="39.07636" lon="-0.25567">
        <time>2019-03-23T09:04:22Z</time>
      </trkpt>
      <trkpt lat="39.0763" lon="-0.25588">
        <time>2019-03-23T09:04:23Z</time>
      </trkpt>
      <trkpt lat="39.07622" lon="-0.2561">
        <time>2019-03-23T09:04:24Z</time>
      </trkpt>
      <trkpt lat="39.07615" lon="-0.25632">
        <time>2019-03-23T09:04:25Z</time>
      </trkpt>
      <trkpt lat="39.07606" lon="-0.25654">
        <time>2019-03-23T09:04:26Z</time>
      </trkpt>
      <trkpt lat="39.07598" lon="-0.25677">
        <time>2019-03-23T09:04:27Z</time>
      </trkpt>
      <trkpt lat="39.0759" lon="-0.257">
        <time>2019-03-23T09:04:28Z</time>
      </trkpt>
      <trkpt lat="39.07581" lon="-0.25723">
        <time>2019-03-23T09:04:29Z</time>
      </trkpt>
      <trkpt lat="39.07572" lon="-0.25747">
        <time>2019-03-23T09:04:30Z</time>
      </trkpt>
      <trkpt lat="39.07564" lon="-0.2577">
        <time>2019-03-23T09:04:31Z</time>
      </trkpt>
      <trkpt lat="39.07556" lon="-0.25794">
        <time>2019-03-23T09:04:32Z</time>
      </trkpt>
      <trkpt lat="39.07548" lon="-0.25816">
        <time>2019-03-23T09:04:33Z</time>
      </trkpt>
      <trkpt lat="39.0754" lon="-0.25838">
        <time>2019-03-23T09:04:34Z</time>
      </trkpt>
      <trkpt lat="39.07532" lon="-0.2586">
        <time>2019-03-23T09:04:35Z</time>
      </trkpt>
      <trkpt lat="39.07524" lon="-0.2588">
        <time>2019-03-23T09:04:36Z</time>
      </trkpt>
      <trkpt lat="39.07517" lon="-0.25899">
        <time>2019-03-23T09:04:37Z</time>
      </trkpt>
      <trkpt lat="39.0751" lon="-0.25917">
        <time>2019-03-23T09:04:38Z</time>
      </trkpt>
      <trkpt lat="39.07504" lon="-0.25934">
        <time>2019-03-23T09:04:39Z</time>
      </trkpt>
      <trkpt lat="39.075" lon="-0.25948">
        <time>2019-03-23T09:04:40Z</time>
      </trkpt>
      <trkpt lat="39.07495" lon="-0.2596">
        <time>2019-03-23T09:04:41Z</time>
      </trkpt>
      <trkpt lat="39.07492" lon="-0.2597">
        <time>2019-03-23T09:04:42Z</time>
      </trkpt>
      <trkpt lat="39.0749" lon="-0.25978">
        <time>2019-03-23T09:04:43Z</time>
      </trkpt>
      <trkpt lat="39.07489" lon="-0.25987">
        <time>2019-03-23T09:04:44Z</time>
      </trkpt>
      <trkpt lat="39.07489" lon="-0.25997">
        <time>2019-03-23T09:04:45Z</time>
      </trkpt>
      <trkpt lat="39.0749" lon="-0.26006">
        <time>2019-03-23T09:04:46Z</time>
      </trkpt>
      <trkpt lat="39.07489" lon="-0.26014">
        <time>2019-03-23T09:04:47Z</time>
      </trkpt>
      <trkpt lat="39.07485" lon="-0.26021">
        <time>2019-03-23T09:04:48Z</time>
      </trkpt>
      <trkpt lat="39.07481" lon="-0.2603">
        <time>2019-03-23T09:04:49Z</time>
      </trkpt>
      <trkpt lat="39.07477" lon="-0.26039">
        <time>2019-03-23T09:04:50Z</time>
      </trkpt>
      <trkpt lat="39.07473" lon="-0.26052">
        <time>2019-03-23T09:04:51Z</time>
      </trkpt>
      <trkpt lat="39.07469" lon="-0.26064">
        <time>2019-03-23T09:04:52Z</time>
      </trkpt>
      <trkpt lat="39.07466" lon="-0.26076">
        <time>2019-03-23T09:04:53Z</time>
      </trkpt>
      <trkpt lat="39.07463" lon="-0.26089">
        <time>2019-03-23T09:04:54Z</time>
      </trkpt>
      <trkpt lat="39.0746" lon="-0.26101">
        <time>2019-03-23T09:04:55Z</time>
      </trkpt>
      <trkpt lat="39.07457" lon="-0.26113">
        <time>2019-03-23T09:04:56Z</time>
      </trkpt>
      <trkpt lat="39.07452" lon="-0.26125">
        <time>2019-03-23T09:04:57Z</time>
      </trkpt>
      <trkpt lat="39.07447" lon="-0.26137">
        <time>2019-03-23T09:04:58Z</time>
      </trkpt>
      <trkpt lat="39.07439" lon="-0.26147">
        <time>2019-03-23T09:04:59Z</time>
      </trkpt>
      <trkpt lat="39.07429" lon="-0.26158">
        <time>2019-03-23T09:05:00Z</time>
      </trkpt>
      <trkpt lat="39.07418" lon="-0.26171">
        <time>2019-03-23T09:05:01Z</time>
      </trkpt>
      <trkpt lat="39.07406" lon="-0.26185">
        <time>2019-03-23T09:05:02Z</time>
      </trkpt>
      <trkpt lat="39.07396" lon="-0.26197">
        <time>2019-03-23T09:05:03Z</time>
      </trkpt>
      <trkpt lat="39.07386" lon="-0.26208">
        <time>2019-03-23T09:05:04Z</time>
      </trkpt>
      <trkpt lat="39.07378" lon="-0.26217">
        <time>2019-03-23T09:05:05Z</time>
      </trkpt>
      <trkpt lat="39.07371" lon="-0.26226">
        <time>2019-03-23T09:05:06Z</time>
      </trkpt>
      <trkpt lat="39.07364" lon="-0.26234">
        <time>2019-03-23T09:05:07Z</time>
      </trkpt>
      <trkpt lat="39.07358" lon="-0.26242">
        <time>2019-03-23T09:05:08Z</time>
      </trkpt>
      <trkpt lat="39.07353" lon="-0.26249">
        <time>2019-03-23T09:05:09Z</time>
      </trkpt>
      <trkpt lat="39.07348" lon="-0.26256">
        <time>2019-03-23T09:05:10Z</time>
      </trkpt>
      <trkpt lat="39.07344" lon="-0.26262">
        <time>2019-03-23T09:05:11Z</time>
      </trkpt>
      <trkpt lat="39.0734" lon="-0.26267">
        <time>2019-03-23T09:05:12Z</time>
      </trkpt>
      <trkpt lat="39.07337" lon="-0.26271">
        <time>2019-03-23T09:05:13Z</time>
      </trkpt>
      <trkpt lat="39.07335" lon="-0.26273">
        <time>2019-03-23T09:05:14Z</time>
      </trkpt>
      <trkpt lat="39.07335" lon="-0.26274">
        <time>2019-03-23T09:05:15Z</time>
      </trkpt>
      <trkpt lat="39.07331" lon="-0.26274">
        <time>2019-03-23T09:05:40Z</time>
      </trkpt>
      <trkpt lat="39.07328" lon="-0.26278">
        <time>2019-03-23T09:05:41Z</time>
      </trkpt>
      <trkpt lat="39.07325" lon="-0.26282">
        <time>2019-03-23T09:05:42Z</time>
      </trkpt>
      <trkpt lat="39.07323" lon="-0.26286">
        <time>2019-03-23T09:05:43Z</time>
      </trkpt>
      <trkpt lat="39.0732" lon="-0.26289">
        <time>2019-03-23T09:05:44Z</time>
      </trkpt>
      <trkpt lat="39.07318" lon="-0.26292">
        <time>2019-03-23T09:05:45Z</time>
      </trkpt>
      <trkpt lat="39.07316" lon="-0.26296">
        <time>2019-03-23T09:05:46Z</time>
      </trkpt>
      <trkpt lat="39.07314" lon="-0.263">
        <time>2019-03-23T09:05:47Z</time>
      </trkpt>
      <trkpt lat="39.07311" lon="-0.26304">
        <time>2019-03-23T09:05:48Z</time>
      </trkpt>
      <trkpt lat="39.07309" lon="-0.26308">
        <time>2019-03-23T09:05:49Z</time>
      </trkpt>
      <trkpt lat="39.07306" lon="-0.26312">
        <time>2019-03-23T09:05:50Z</time>
      </trkpt>
      <trkpt lat="39.07303" lon="-0.26318">
        <time>2019-03-23T09:05:51Z</time>
      </trkpt>
      <trkpt lat="39.07298" lon="-0.26323">
        <time>2019-03-23T09:05:52Z</time>
      </trkpt>
      <trkpt lat="39.07294" lon="-0.26329">
        <time>2019-03-23T09:05:53Z</time>
      </trkpt>
      <trkpt lat="39.0729" lon="-0.26334">
        <time>2019-03-23T09:05:54Z</time>
      </trkpt>
      <trkpt lat="39.07286" lon="-0.26339">
        <time>2019-03-23T09:05:55Z</time>
      </trkpt>
      <trkpt lat="39.07282" lon="-0.26344">
        <time>2019-03-23T09:05:56Z</time>
      </trkpt>
      <trkpt lat="39.07279" lon="-0.26349">
        <time>2019-03-23T09:05:57Z</time>
      </trkpt>
      <trkpt lat="39.07275" lon="-0.26354">
        <time>2019-03-23T09:05:58Z</time>
      </trkpt>
      <trkpt lat="39.07272" lon="-0.26358">
        <time>2019-03-23T09:05:59Z</time>
      </trkpt>
      <trkpt lat="39.07269" lon="-0.26363">
        <time>2019-03-23T09:06:00Z</time>
      </trkpt>
      <trkpt lat="39.07266" lon="-0.26367">
        <time>2019-03-23T09:06:01Z</time>
      </trkpt>
      <trkpt lat="39.07263" lon="-0.26371">
        <time>2019-03-23T09:06:02Z</time>
      </trkpt>
      <trkpt lat="39.0726" lon="-0.26375">
        <time>2019-03-23T09:06:03Z</time>
      </trkpt>
      <trkpt lat="39.07258" lon="-0.26378">
        <time>2019-03-23T09:06:04Z</time>
      </trkpt>
      <trkpt lat="39.07256" lon="-0.26382">
        <time>2019-03-23T09:06:05Z</time>
      </trkpt>
      <trkpt lat="39.07253" lon="-0.26385">
        <time>2019-03-23T09:06:06Z</time>
      </trkpt>
      <trkpt lat="39.07251" lon="-0.26388">
        <time>2019-03-23T09:06:07Z</time>
      </trkpt>
      <trkpt lat="39.07248" lon="-0.26392">
        <time>2019-03-23T09:06:08Z</time>
      </trkpt>
      <trkpt lat="39.07244" lon="-0.26397">
        <time>2019-03-23T09:06:09Z</time>
      </trkpt>
      <trkpt lat="39.07241" lon="-0.26401">
        <time>2019-03-23T09:06:10Z</time>
      </trkpt>
      <trkpt lat="39.07237" lon="-0.26405">
        <time>2019-03-23T09:06:11Z</time>
      </trkpt>
      <trkpt lat="39.07234" lon="-0.2641">
        <time>2019-03-23T09:06:12Z</time>
      </trkpt>
      <trkpt lat="39.07231" lon="-0.26413">
        <time>2019-03-23T09:06:13Z</time>
      </trkpt>
      <trkpt lat="39.07229" lon="-0.26417">
        <time>2019-03-23T09:06:14Z</time>
      </trkpt>
      <trkpt lat="39.07227" lon="-0.26421">
        <time>2019-03-23T09:06:15Z</time>
      </trkpt>
      <trkpt lat="39.07224" lon="-0.26426">
        <time>2019-03-23T09:06:16Z</time>
      </trkpt>
      <trkpt lat="39.0722" lon="-0.26431">
        <time>2019-03-23T09:06:17Z</time>
      </trkpt>
      <trkpt lat="39.07217" lon="-0.26436">
        <time>2019-03-23T09:06:18Z</time>
      </trkpt>
      <trkpt lat="39.07213" lon="-0.2644">
        <time>2019-03-23T09:06:19Z</time>
      </trkpt>
      <trkpt lat="39.07209" lon="-0.26444">
        <time>2019-03-23T09:06:20Z</time>
      </trkpt>
      <trkpt lat="39.07206" lon="-0.26449">
        <time>2019-03-23T09:06:21Z</time>
      </trkpt>
      <trkpt lat="39.07201" lon="-0.26455">
        <time>2019-03-23T09:06:22Z</time>
      </trkpt>
      <trkpt lat="39.07196" lon="-0.26461">
        <time>2019-03-23T09:06:23Z</time>
      </trkpt>
      <trkpt lat="39.07192" lon="-0.26467">
        <time>2019-03-23T09:06:24Z</time>
      </trkpt>
      <trkpt lat="39.07188" lon="-0.26472">
        <time>2019-03-23T09:06:25Z</time>
      </trkpt>
      <trkpt lat="39.07185" lon="-0.26476">
        <time>2019-03-23T09:06:26Z</time>
      </trkpt>
      <trkpt lat="39.07181" lon="-0.26482">
        <time>2019-03-23T09:06:27Z</time>
      </trkpt>
      <trkpt lat="39.07177" lon="-0.26486">
        <time>2019-03-23T09:06:28Z</time>
      </trkpt>
      <trkpt lat="39.07172" lon="-0.26492">
        <time>2019-03-23T09:06:29Z</time>
      </trkpt>
      <trkpt lat="39.07168" lon="-0.26498">
        <time>2019-03-23T09:06:30Z</time>
      </trkpt>
      <trkpt lat="39.07165" lon="-0.26502">
        <time>2019-03-23T09:06:31Z</time>
      </trkpt>
      <trkpt lat="39.07162" lon="-0.26507">
        <time>2019-03-23T09:06:32Z</time>
      </trkpt>
      <trkpt lat="39.07158" lon="-0.26513">
        <time>2019-03-23T09:06:33Z</time>
      </trkpt>
      <trkpt lat="39.07152" lon="-0.2652">
        <time>2019-03-23T09:06:34Z</time>
      </trkpt>
      <trkpt lat="39.07146" lon="-0.26529">
        <time>2019-03-23T09:06:35Z</time>
      </trkpt>
      <trkpt lat="39.07138" lon="-0.2654">
        <time>2019-03-23T09:06:36Z</time>
      </trkpt>
      <trkpt lat="39.07131" lon="-0.26551">
        <time>2019-03-23T09:06:37Z</time>
      </trkpt>
      <trkpt lat="39.07122" lon="-0.26563">
        <time>2019-03-23T09:06:38Z</time>
      </trkpt>
      <trkpt lat="39.07113" lon="-0.26574">
        <time>2019-03-23T09:06:39Z</time>
      </trkpt>
      <trkpt lat="39.07105" lon="-0.26586">
        <time>2019-03-23T09:06:40Z</time>
      </trkpt>
      <trkpt lat="39.07098" lon="-0.26596">
        <time>2019-03-23T09:06:41Z</time>
      </trkpt>
      <trkpt lat="39.0709" lon="-0.26606">
        <time>2019-03-23T09:06:42Z</time>
      </trkpt>
      <trkpt lat="39.07083" lon="-0.26615">
        <time>2019-03-23T09:06:43Z</time>
      </trkpt>
      <trkpt lat="39.07077" lon="-0.26622">
        <time>2019-03-23T09:06:44Z</time>
      </trkpt>
      <trkpt lat="39.07072" lon="-0.26628">
        <time>2019-03-23T09:06:45Z</time>
      </trkpt>
      <trkpt lat="39.07069" lon="-0.26633">
        <time>2019-03-23T09:06:46Z</time>
      </trkpt>
      <trkpt lat="39.07067" lon="-0.26636">
        <time>2019-03-23T09:06:47Z</time>
      </trkpt>
      <trkpt lat="39.07066" lon="-0.26637">
        <time>2019-03-23T09:06:48Z</time>
      </trkpt>
      <trkpt lat="39.07068" lon="-0.26635">
        <time>2019-03-23T09:06:54Z</time>
      </trkpt>
      <trkpt lat="39.07068" lon="-0.2664">
        <time>2019-03-23T09:07:55Z</time>
      </trkpt>
      <trkpt lat="39.07065" lon="-0.26644">
        <time>2019-03-23T09:07:56Z</time>
      </trkpt>
      <trkpt lat="39.07062" lon="-0.26649">
        <time>2019-03-23T09:07:57Z</time>
      </trkpt>
      <trkpt lat="39.07058" lon="-0.26654">
        <time>2019-03-23T09:07:58Z</time>
      </trkpt>
      <trkpt lat="39.07053" lon="-0.26662">
        <time>2019-03-23T09:07:59Z</time>
      </trkpt>
      <trkpt lat="39.07046" lon="-0.2667">
        <time>2019-03-23T09:08:00Z</time>
      </trkpt>
      <trkpt lat="39.07039" lon="-0.26678">
        <time>2019-03-23T09:08:01Z</time>
      </trkpt>
      <trkpt lat="39.07032" lon="-0.26688">
        <time>2019-03-23T09:08:02Z</time>
      </trkpt>
      <trkpt lat="39.07025" lon="-0.26699">
        <time>2019-03-23T09:08:03Z</time>
      </trkpt>
      <trkpt lat="39.07017" lon="-0.26709">
        <time>2019-03-23T09:08:04Z</time>
      </trkpt>
      <trkpt lat="39.07009" lon="-0.2672">
        <time>2019-03-23T09:08:05Z</time>
      </trkpt>
      <trkpt lat="39.07001" lon="-0.26733">
        <time>2019-03-23T09:08:06Z</time>
      </trkpt>
      <trkpt lat="39.06992" lon="-0.26744">
        <time>2019-03-23T09:08:07Z</time>
      </trkpt>
      <trkpt lat="39.06984" lon="-0.26756">
        <time>2019-03-23T09:08:08Z</time>
      </trkpt>
      <trkpt lat="39.06976" lon="-0.2677">
        <time>2019-03-23T09:08:09Z</time>
      </trkpt>
      <trkpt lat="39.06967" lon="-0.26788">
        <time>2019-03-23T09:08:10Z</time>
      </trkpt>
      <trkpt lat="39.06961" lon="-0.26803">
        <time>2019-03-23T09:08:11Z</time>
      </trkpt>
      <trkpt lat="39.06953" lon="-0.26811">
        <time>2019-03-23T09:08:12Z</time>
      </trkpt>
      <trkpt lat="39.06947" lon="-0.26826">
        <time>2019-03-23T09:08:13Z</time>
      </trkpt>
      <trkpt lat="39.06942" lon="-0.26842">
        <time>2019-03-23T09:08:14Z</time>
      </trkpt>
      <trkpt lat="39.0694" lon="-0.26858">
        <time>2019-03-23T09:08:15Z</time>
      </trkpt>
      <trkpt lat="39.0694" lon="-0.26875">
        <time>2019-03-23T09:08:16Z</time>
      </trkpt>
      <trkpt lat="39.0694" lon="-0.26892">
        <time>2019-03-23T09:08:17Z</time>
      </trkpt>
      <trkpt lat="39.0694" lon="-0.26909">
        <time>2019-03-23T09:08:18Z</time>
      </trkpt>
      <trkpt lat="39.0694" lon="-0.26923">
        <time>2019-03-23T09:08:19Z</time>
      </trkpt>
      <trkpt lat="39.06939" lon="-0.26937">
        <time>2019-03-23T09:08:20Z</time>
      </trkpt>
      <trkpt lat="39.0694" lon="-0.26951">
        <time>2019-03-23T09:08:21Z</time>
      </trkpt>
      <trkpt lat="39.0694" lon="-0.26962">
        <time>2019-03-23T09:08:22Z</time>
      </trkpt>
      <trkpt lat="39.06941" lon="-0.26974">
        <time>2019-03-23T09:08:23Z</time>
      </trkpt>
      <trkpt lat="39.06941" lon="-0.26986">
        <time>2019-03-23T09:08:24Z</time>
      </trkpt>
      <trkpt lat="39.06941" lon="-0.26998">
        <time>2019-03-23T09:08:25Z</time>
      </trkpt>
      <trkpt lat="39.0694" lon="-0.27009">
        <time>2019-03-23T09:08:26Z</time>
      </trkpt>
      <trkpt lat="39.06941" lon="-0.27019">
        <time>2019-03-23T09:08:27Z</time>
      </trkpt>
      <trkpt lat="39.06941" lon="-0.27031">
        <time>2019-03-23T09:08:28Z</time>
      </trkpt>
      <trkpt lat="39.0694" lon="-0.27043">
        <time>2019-03-23T09:08:29Z</time>
      </trkpt>
      <trkpt lat="39.0694" lon="-0.27054">
        <time>2019-03-23T09:08:30Z</time>
      </trkpt>
      <trkpt lat="39.0694" lon="-0.27066">
        <time>2019-03-23T09:08:31Z</time>
      </trkpt>
      <trkpt lat="39.0694" lon="-0.27079">
        <time>2019-03-23T09:08:32Z</time>
      </trkpt>
      <trkpt lat="39.0694" lon="-0.27091">
        <time>2019-03-23T09:08:33Z</time>
      </trkpt>
      <trkpt lat="39.0694" lon="-0.27102">
        <time>2019-03-23T09:08:34Z</time>
      </trkpt>
      <trkpt lat="39.0694" lon="-0.27114">
        <time>2019-03-23T09:08:35Z</time>
      </trkpt>
      <trkpt lat="39.0694" lon="-0.27126">
        <time>2019-03-23T09:08:36Z</time>
      </trkpt>
      <trkpt lat="39.0694" lon="-0.27138">
        <time>2019-03-23T09:08:37Z</time>
      </trkpt>
      <trkpt lat="39.0694" lon="-0.27149">
        <time>2019-03-23T09:08:38Z</time>
      </trkpt>
      <trkpt lat="39.06941" lon="-0.2716">
        <time>2019-03-23T09:08:39Z</time>
      </trkpt>
      <trkpt lat="39.0694" lon="-0.2717">
        <time>2019-03-23T09:08:40Z</time>
      </trkpt>
      <trkpt lat="39.06939" lon="-0.27179">
        <time>2019-03-23T09:08:41Z</time>
      </trkpt>
      <trkpt lat="39.06938" lon="-0.27189">
        <time>2019-03-23T09:08:42Z</time>
      </trkpt>
      <trkpt lat="39.06937" lon="-0.27198">
        <time>2019-03-23T09:08:43Z</time>
      </trkpt>
      <trkpt lat="39.06937" lon="-0.27207">
        <time>2019-03-23T09:08:44Z</time>
      </trkpt>
      <trkpt lat="39.06937" lon="-0.27214">
        <time>2019-03-23T09:08:45Z</time>
      </trkpt>
      <trkpt lat="39.06934" lon="-0.27219">
        <time>2019-03-23T09:08:46Z</time>
      </trkpt>
      <trkpt lat="39.06931" lon="-0.2722">
        <time>2019-03-23T09:08:47Z</time>
      </trkpt>
      <trkpt lat="39.06927" lon="-0.2722">
        <time>2019-03-23T09:08:48Z</time>
      </trkpt>
      <trkpt lat="39.06923" lon="-0.27216">
        <time>2019-03-23T09:08:49Z</time>
      </trkpt>
      <trkpt lat="39.06918" lon="-0.27211">
        <time>2019-03-23T09:08:50Z</time>
      </trkpt>
      <trkpt lat="39.06911" lon="-0.27208">
        <time>2019-03-23T09:08:51Z</time>
      </trkpt>
      <trkpt lat="39.06905" lon="-0.27205">
        <time>2019-03-23T09:08:52Z</time>
      </trkpt>
      <trkpt lat="39.06898" lon="-0.27202">
        <time>2019-03-23T09:08:53Z</time>
      </trkpt>
      <trkpt lat="39.06889" lon="-0.27198">
        <time>2019-03-23T09:08:54Z</time>
      </trkpt>
      <trkpt lat="39.06881" lon="-0.27194">
        <time>2019-03-23T09:08:55Z</time>
      </trkpt>
      <trkpt lat="39.06873" lon="-0.2719">
        <time>2019-03-23T09:08:56Z</time>
      </trkpt>
      <trkpt lat="39.06865" lon="-0.27187">
        <time>2019-03-23T09:08:57Z</time>
      </trkpt>
      <trkpt lat="39.06859" lon="-0.27184">
        <time>2019-03-23T09:08:58Z</time>
      </trkpt>
      <trkpt lat="39.06859" lon="-0.27185">
        <time>2019-03-23T09:08:59Z</time>
      </trkpt>
      <trkpt lat="39.06853" lon="-0.27183">
        <time>2019-03-23T09:09:00Z</time>
      </trkpt>
      <trkpt lat="39.06849" lon="-0.27182">
        <time>2019-03-23T09:09:01Z</time>
      </trkpt>
      <trkpt lat="39.06844" lon="-0.2718">
        <time>2019-03-23T09:09:02Z</time>
      </trkpt>
      <trkpt lat="39.0684" lon="-0.27177">
        <time>2019-03-23T09:09:03Z</time>
      </trkpt>
      <trkpt lat="39.06835" lon="-0.27174">
        <time>2019-03-23T09:09:04Z</time>
      </trkpt>
      <trkpt lat="39.06828" lon="-0.27171">
        <time>2019-03-23T09:09:05Z</time>
      </trkpt>
      <trkpt lat="39.06821" lon="-0.27167">
        <time>2019-03-23T09:09:06Z</time>
      </trkpt>
      <trkpt lat="39.06813" lon="-0.27163">
        <time>2019-03-23T09:09:07Z</time>
      </trkpt>
      <trkpt lat="39.06806" lon="-0.2716">
        <time>2019-03-23T09:09:08Z</time>
      </trkpt>
      <trkpt lat="39.06801" lon="-0.27158">
        <time>2019-03-23T09:09:09Z</time>
      </trkpt>
      <trkpt lat="39.06797" lon="-0.27156">
        <time>2019-03-23T09:09:10Z</time>
      </trkpt>
      <trkpt lat="39.06795" lon="-0.27155">
        <time>2019-03-23T09:09:11Z</time>
      </trkpt>
      <trkpt lat="39.06794" lon="-0.27154">
        <time>2019-03-23T09:09:12Z</time>
      </trkpt>
      <trkpt lat="39.06793" lon="-0.27152">
        <time>2019-03-23T09:09:13Z</time>
      </trkpt>
      <trkpt lat="39.06791" lon="-0.27149">
        <time>2019-03-23T09:09:14Z</time>
      </trkpt>
      <trkpt lat="39.0679" lon="-0.27144">
        <time>2019-03-23T09:09:15Z</time>
      </trkpt>
      <trkpt lat="39.06789" lon="-0.27137">
        <time>2019-03-23T09:09:16Z</time>
      </trkpt>
      <trkpt lat="39.06788" lon="-0.27131">
        <time>2019-03-23T09:09:17Z</time>
      </trkpt>
      <trkpt lat="39.06787" lon="-0.27124">
        <time>2019-03-23T09:09:18Z</time>
      </trkpt>
      <trkpt lat="39.06782" lon="-0.27118">
        <time>2019-03-23T09:09:19Z</time>
      </trkpt>
      <trkpt lat="39.06776" lon="-0.27114">
        <time>2019-03-23T09:09:20Z</time>
      </trkpt>
      <trkpt lat="39.06768" lon="-0.27108">
        <time>2019-03-23T09:09:21Z</time>
      </trkpt>
      <trkpt lat="39.06759" lon="-0.27105">
        <time>2019-03-23T09:09:22Z</time>
      </trkpt>
      <trkpt lat="39.06749" lon="-0.27101">
        <time>2019-03-23T09:09:23Z</time>
      </trkpt>
      <trkpt lat="39.06738" lon="-0.27097">
        <time>2019-03-23T09:09:24Z</time>
      </trkpt>
      <trkpt lat="39.06729" lon="-0.27093">
        <time>2019-03-23T09:09:25Z</time>
      </trkpt>
      <trkpt lat="39.06721" lon="-0.27087">
        <time>2019-03-23T09:09:26Z</time>
      </trkpt>
      <trkpt lat="39.06713" lon="-0.2708">
        <time>2019-03-23T09:09:27Z</time>
      </trkpt>
      <trkpt lat="39.06706" lon="-0.27074">
        <time>2019-03-23T09:09:28Z</time>
      </trkpt>
      <trkpt lat="39.06698" lon="-0.2707">
        <time>2019-03-23T09:09:29Z</time>
      </trkpt>
      <trkpt lat="39.0669" lon="-0.27069">
        <time>2019-03-23T09:09:30Z</time>
      </trkpt>
      <trkpt lat="39.06683" lon="-0.27068">
        <time>2019-03-23T09:09:31Z</time>
      </trkpt>
      <trkpt lat="39.06676" lon="-0.27069">
        <time>2019-03-23T09:09:32Z</time>
      </trkpt>
      <trkpt lat="39.06672" lon="-0.2707">
        <time>2019-03-23T09:09:33Z</time>
      </trkpt>
      <trkpt lat="39.06668" lon="-0.27073">
        <time>2019-03-23T09:09:34Z</time>
      </trkpt>
      <trkpt lat="39.06663" lon="-0.27078">
        <time>2019-03-23T09:09:35Z</time>
      </trkpt>
      <trkpt lat="39.06658" lon="-0.27084">
        <time>2019-03-23T09:09:36Z</time>
      </trkpt>
      <trkpt lat="39.06652" lon="-0.27092">
        <time>2019-03-23T09:09:37Z</time>
      </trkpt>
      <trkpt lat="39.06646" lon="-0.271">
        <time>2019-03-23T09:09:38Z</time>
      </trkpt>
      <trkpt lat="39.06639" lon="-0.27108">
        <time>2019-03-23T09:09:39Z</time>
      </trkpt>
      <trkpt lat="39.06635" lon="-0.27114">
        <time>2019-03-23T09:09:40Z</time>
      </trkpt>
      <trkpt lat="39.06631" lon="-0.27117">
        <time>2019-03-23T09:09:41Z</time>
      </trkpt>
      <trkpt lat="39.06629" lon="-0.27119">
        <time>2019-03-23T09:09:42Z</time>
      </trkpt>
      <trkpt lat="39.06628" lon="-0.2712">
        <time>2019-03-23T09:09:43Z</time>
      </trkpt>
      <trkpt lat="39.06626" lon="-0.27122">
        <time>2019-03-23T09:09:44Z</time>
      </trkpt>
      <trkpt lat="39.06625" lon="-0.27127">
        <time>2019-03-23T09:09:45Z</time>
      </trkpt>
      <trkpt lat="39.06621" lon="-0.27134">
        <time>2019-03-23T09:09:46Z</time>
      </trkpt>
      <trkpt lat="39.06616" lon="-0.27144">
        <time>2019-03-23T09:09:47Z</time>
      </trkpt>
      <trkpt lat="39.0661" lon="-0.27155">
        <time>2019-03-23T09:09:48Z</time>
      </trkpt>
      <trkpt lat="39.06604" lon="-0.27167">
        <time>2019-03-23T09:09:49Z</time>
      </trkpt>
      <trkpt lat="39.06597" lon="-0.27181">
        <time>2019-03-23T09:09:50Z</time>
      </trkpt>
      <trkpt lat="39.06593" lon="-0.27202">
        <time>2019-03-23T09:09:51Z</time>
      </trkpt>
      <trkpt lat="39.06586" lon="-0.27218">
        <time>2019-03-23T09:09:52Z</time>
      </trkpt>
      <trkpt lat="39.06579" lon="-0.27236">
        <time>2019-03-23T09:09:53Z</time>
      </trkpt>
      <trkpt lat="39.06572" lon="-0.27253">
        <time>2019-03-23T09:09:54Z</time>
      </trkpt>
      <trkpt lat="39.06564" lon="-0.2727">
        <time>2019-03-23T09:09:55Z</time>
      </trkpt>
      <trkpt lat="39.06553" lon="-0.27285">
        <time>2019-03-23T09:09:56Z</time>
      </trkpt>
      <trkpt lat="39.06542" lon="-0.273">
        <time>2019-03-23T09:09:57Z</time>
      </trkpt>
      <trkpt lat="39.06529" lon="-0.27316">
        <time>2019-03-23T09:09:58Z</time>
      </trkpt>
      <trkpt lat="39.06517" lon="-0.2733">
        <time>2019-03-23T09:09:59Z</time>
      </trkpt>
      <trkpt lat="39.06505" lon="-0.27342">
        <time>2019-03-23T09:10:00Z</time>
      </trkpt>
      <trkpt lat="39.06492" lon="-0.27356">
        <time>2019-03-23T09:10:01Z</time>
      </trkpt>
      <trkpt lat="39.06481" lon="-0.27369">
        <time>2019-03-23T09:10:02Z</time>
      </trkpt>
      <trkpt lat="39.06469" lon="-0.27384">
        <time>2019-03-23T09:10:03Z</time>
      </trkpt>
      <trkpt lat="39.06458" lon="-0.274">
        <time>2019-03-23T09:10:04Z</time>
      </trkpt>
      <trkpt lat="39.06447" lon="-0.27413">
        <time>2019-03-23T09:10:05Z</time>
      </trkpt>
      <trkpt lat="39.06433" lon="-0.27425">
        <time>2019-03-23T09:10:06Z</time>
      </trkpt>
      <trkpt lat="39.06419" lon="-0.27436">
        <time>2019-03-23T09:10:07Z</time>
      </trkpt>
      <trkpt lat="39.06406" lon="-0.27445">
        <time>2019-03-23T09:10:08Z</time>
      </trkpt>
      <trkpt lat="39.06391" lon="-0.27457">
        <time>2019-03-23T09:10:09Z</time>
      </trkpt>
      <trkpt lat="39.06379" lon="-0.27469">
        <time>2019-03-23T09:10:10Z</time>
      </trkpt>
      <trkpt lat="39.06366" lon="-0.27483">
        <time>2019-03-23T09:10:11Z</time>
      </trkpt>
      <trkpt lat="39.06354" lon="-0.27497">
        <time>2019-03-23T09:10:12Z</time>
      </trkpt>
      <trkpt lat="39.06343" lon="-0.27511">
        <time>2019-03-23T09:10:13Z</time>
      </trkpt>
      <trkpt lat="39.06332" lon="-0.27526">
        <time>2019-03-23T09:10:14Z</time>
      </trkpt>
      <trkpt lat="39.06322" lon="-0.27539">
        <time>2019-03-23T09:10:15Z</time>
      </trkpt>
      <trkpt lat="39.06311" lon="-0.27553">
        <time>2019-03-23T09:10:16Z</time>
      </trkpt>
      <trkpt lat="39.06299" lon="-0.27569">
        <time>2019-03-23T09:10:17Z</time>
      </trkpt>
      <trkpt lat="39.06287" lon="-0.27584">
        <time>2019-03-23T09:10:18Z</time>
      </trkpt>
      <trkpt lat="39.06274" lon="-0.276">
        <time>2019-03-23T09:10:19Z</time>
      </trkpt>
      <trkpt lat="39.06261" lon="-0.27619">
        <time>2019-03-23T09:10:20Z</time>
      </trkpt>
      <trkpt lat="39.06249" lon="-0.27637">
        <time>2019-03-23T09:10:21Z</time>
      </trkpt>
      <trkpt lat="39.06235" lon="-0.27656">
        <time>2019-03-23T09:10:22Z</time>
      </trkpt>
      <trkpt lat="39.06222" lon="-0.27674">
        <time>2019-03-23T09:10:23Z</time>
      </trkpt>
      <trkpt lat="39.06209" lon="-0.27688">
        <time>2019-03-23T09:10:24Z</time>
      </trkpt>
      <trkpt lat="39.06196" lon="-0.27704">
        <time>2019-03-23T09:10:25Z</time>
      </trkpt>
      <trkpt lat="39.06183" lon="-0.27718">
        <time>2019-03-23T09:10:26Z</time>
      </trkpt>
      <trkpt lat="39.06164" lon="-0.27734">
        <time>2019-03-23T09:10:27Z</time>
      </trkpt>
      <trkpt lat="39.06149" lon="-0.27751">
        <time>2019-03-23T09:10:28Z</time>
      </trkpt>
      <trkpt lat="39.06136" lon="-0.27767">
        <time>2019-03-23T09:10:29Z</time>
      </trkpt>
      <trkpt lat="39.0612" lon="-0.27785">
        <time>2019-03-23T09:10:30Z</time>
      </trkpt>
      <trkpt lat="39.06106" lon="-0.278">
        <time>2019-03-23T09:10:31Z</time>
      </trkpt>
      <trkpt lat="39.06095" lon="-0.27822">
        <time>2019-03-23T09:10:32Z</time>
      </trkpt>
      <trkpt lat="39.06081" lon="-0.2784">
        <time>2019-03-23T09:10:33Z</time>
      </trkpt>
      <trkpt lat="39.06066" lon="-0.27859">
        <time>2019-03-23T09:10:34Z</time>
      </trkpt>
      <trkpt lat="39.06052" lon="-0.27878">
        <time>2019-03-23T09:10:35Z</time>
      </trkpt>
      <trkpt lat="39.06039" lon="-0.27897">
        <time>2019-03-23T09:10:36Z</time>
      </trkpt>
      <trkpt lat="39.06026" lon="-0.27914">
        <time>2019-03-23T09:10:37Z</time>
      </trkpt>
      <trkpt lat="39.06012" lon="-0.27934">
        <time>2019-03-23T09:10:38Z</time>
      </trkpt>
      <trkpt lat="39.06" lon="-0.27953">
        <time>2019-03-23T09:10:39Z</time>
      </trkpt>
      <trkpt lat="39.05988" lon="-0.27971">
        <time>2019-03-23T09:10:40Z</time>
      </trkpt>
      <trkpt lat="39.05976" lon="-0.27989">
        <time>2019-03-23T09:10:41Z</time>
      </trkpt>
      <trkpt lat="39.05965" lon="-0.28004">
        <time>2019-03-23T09:10:42Z</time>
      </trkpt>
      <trkpt lat="39.05954" lon="-0.28021">
        <time>2019-03-23T09:10:43Z</time>
      </trkpt>
      <trkpt lat="39.05944" lon="-0.28035">
        <time>2019-03-23T09:10:44Z</time>
      </trkpt>
      <trkpt lat="39.05936" lon="-0.28047">
        <time>2019-03-23T09:10:45Z</time>
      </trkpt>
      <trkpt lat="39.05927" lon="-0.28061">
        <time>2019-03-23T09:10:46Z</time>
      </trkpt>
      <trkpt lat="39.05918" lon="-0.28073">
        <time>2019-03-23T09:10:47Z</time>
      </trkpt>
      <trkpt lat="39.0591" lon="-0.28084">
        <time>2019-03-23T09:10:48Z</time>
      </trkpt>
      <trkpt lat="39.059" lon="-0.28096">
        <time>2019-03-23T09:10:49Z</time>
      </trkpt>
      <trkpt lat="39.0589" lon="-0.28108">
        <time>2019-03-23T09:10:50Z</time>
      </trkpt>
      <trkpt lat="39.05879" lon="-0.2812">
        <time>2019-03-23T09:10:51Z</time>
      </trkpt>
      <trkpt lat="39.05868" lon="-0.28132">
        <time>2019-03-23T09:10:52Z</time>
      </trkpt>
      <trkpt lat="39.05859" lon="-0.28146">
        <time>2019-03-23T09:10:53Z</time>
      </trkpt>
      <trkpt lat="39.05847" lon="-0.28162">
        <time>2019-03-23T09:10:54Z</time>
      </trkpt>
      <trkpt lat="39.05837" lon="-0.28175">
        <time>2019-03-23T09:10:55Z</time>
      </trkpt>
      <trkpt lat="39.05828" lon="-0.28188">
        <time>2019-03-23T09:10:56Z</time>
      </trkpt>
      <trkpt lat="39.05816" lon="-0.28205">
        <time>2019-03-23T09:10:57Z</time>
      </trkpt>
      <trkpt lat="39.05808" lon="-0.28221">
        <time>2019-03-23T09:10:58Z</time>
      </trkpt>
      <trkpt lat="39.05796" lon="-0.28233">
        <time>2019-03-23T09:10:59Z</time>
      </trkpt>
      <trkpt lat="39.05788" lon="-0.28249">
        <time>2019-03-23T09:11:00Z</time>
      </trkpt>
      <trkpt lat="39.05781" lon="-0.28263">
        <time>2019-03-23T09:11:01Z</time>
      </trkpt>
      <trkpt lat="39.05774" lon="-0.28278">
        <time>2019-03-23T09:11:02Z</time>
      </trkpt>
      <trkpt lat="39.05768" lon="-0.28293">
        <time>2019-03-23T09:11:03Z</time>
      </trkpt>
      <trkpt lat="39.05764" lon="-0.28306">
        <time>2019-03-23T09:11:04Z</time>
      </trkpt>
      <trkpt lat="39.05758" lon="-0.28321">
        <time>2019-03-23T09:11:05Z</time>
      </trkpt>
      <trkpt lat="39.05752" lon="-0.28336">
        <time>2019-03-23T09:11:06Z</time>
      </trkpt>
      <trkpt lat="39.05745" lon="-0.28354">
        <time>2019-03-23T09:11:07Z</time>
      </trkpt>
      <trkpt lat="39.05737" lon="-0.28372">
        <time>2019-03-23T09:11:08Z</time>
      </trkpt>
      <trkpt lat="39.05729" lon="-0.2839">
        <time>2019-03-23T09:11:09Z</time>
      </trkpt>
      <trkpt lat="39.05721" lon="-0.2841">
        <time>2019-03-23T09:11:10Z</time>
      </trkpt>
      <trkpt lat="39.05712" lon="-0.28428">
        <time>2019-03-23T09:11:11Z</time>
      </trkpt>
      <trkpt lat="39.05703" lon="-0.28438">
        <time>2019-03-23T09:11:12Z</time>
      </trkpt>
      <trkpt lat="39.05693" lon="-0.28454">
        <time>2019-03-23T09:11:13Z</time>
      </trkpt>
      <trkpt lat="39.05683" lon="-0.28474">
        <time>2019-03-23T09:11:14Z</time>
      </trkpt>
      <trkpt lat="39.05672" lon="-0.28495">
        <time>2019-03-23T09:11:15Z</time>
      </trkpt>
      <trkpt lat="39.05663" lon="-0.28515">
        <time>2019-03-23T09:11:16Z</time>
      </trkpt>
      <trkpt lat="39.05655" lon="-0.28528">
        <time>2019-03-23T09:11:17Z</time>
      </trkpt>
      <trkpt lat="39.05647" lon="-0.28544">
        <time>2019-03-23T09:11:18Z</time>
      </trkpt>
      <trkpt lat="39.05639" lon="-0.28555">
        <time>2019-03-23T09:11:19Z</time>
      </trkpt>
      <trkpt lat="39.05633" lon="-0.28563">
        <time>2019-03-23T09:11:20Z</time>
      </trkpt>
      <trkpt lat="39.05626" lon="-0.28571">
        <time>2019-03-23T09:11:21Z</time>
      </trkpt>
      <trkpt lat="39.05619" lon="-0.28579">
        <time>2019-03-23T09:11:22Z</time>
      </trkpt>
      <trkpt lat="39.05614" lon="-0.2859">
        <time>2019-03-23T09:11:23Z</time>
      </trkpt>
      <trkpt lat="39.05609" lon="-0.286">
        <time>2019-03-23T09:11:24Z</time>
      </trkpt>
      <trkpt lat="39.05603" lon="-0.2861">
        <time>2019-03-23T09:11:25Z</time>
      </trkpt>
      <trkpt lat="39.05596" lon="-0.28621">
        <time>2019-03-23T09:11:26Z</time>
      </trkpt>
      <trkpt lat="39.05588" lon="-0.28633">
        <time>2019-03-23T09:11:27Z</time>
      </trkpt>
      <trkpt lat="39.05581" lon="-0.28648">
        <time>2019-03-23T09:11:28Z</time>
      </trkpt>
      <trkpt lat="39.05572" lon="-0.28665">
        <time>2019-03-23T09:11:29Z</time>
      </trkpt>
      <trkpt lat="39.05564" lon="-0.2868">
        <time>2019-03-23T09:11:30Z</time>
      </trkpt>
      <trkpt lat="39.05552" lon="-0.28697">
        <time>2019-03-23T09:11:31Z</time>
      </trkpt>
      <trkpt lat="39.0554" lon="-0.28714">
        <time>2019-03-23T09:11:32Z</time>
      </trkpt>
      <trkpt lat="39.05529" lon="-0.28728">
        <time>2019-03-23T09:11:33Z</time>
      </trkpt>
      <trkpt lat="39.05517" lon="-0.28743">
        <time>2019-03-23T09:11:34Z</time>
      </trkpt>
      <trkpt lat="39.05504" lon="-0.28757">
        <time>2019-03-23T09:11:35Z</time>
      </trkpt>
      <trkpt lat="39.05492" lon="-0.2877">
        <time>2019-03-23T09:11:36Z</time>
      </trkpt>
      <trkpt lat="39.05478" lon="-0.28785">
        <time>2019-03-23T09:11:37Z</time>
      </trkpt>
      <trkpt lat="39.0546" lon="-0.28808">
        <time>2019-03-23T09:11:38Z</time>
      </trkpt>
      <trkpt lat="39.05445" lon="-0.2882">
        <time>2019-03-23T09:11:39Z</time>
      </trkpt>
      <trkpt lat="39.05431" lon="-0.28832">
        <time>2019-03-23T09:11:40Z</time>
      </trkpt>
      <trkpt lat="39.05416" lon="-0.28845">
        <time>2019-03-23T09:11:41Z</time>
      </trkpt>
      <trkpt lat="39.05401" lon="-0.28856">
        <time>2019-03-23T09:11:42Z</time>
      </trkpt>
      <trkpt lat="39.05387" lon="-0.28867">
        <time>2019-03-23T09:11:43Z</time>
      </trkpt>
      <trkpt lat="39.05375" lon="-0.28877">
        <time>2019-03-23T09:11:44Z</time>
      </trkpt>
      <trkpt lat="39.05363" lon="-0.28885">
        <time>2019-03-23T09:11:45Z</time>
      </trkpt>
      <trkpt lat="39.05354" lon="-0.28894">
        <time>2019-03-23T09:11:46Z</time>
      </trkpt>
      <trkpt lat="39.05347" lon="-0.28901">
        <time>2019-03-23T09:11:47Z</time>
      </trkpt>
      <trkpt lat="39.05341" lon="-0.28905">
        <time>2019-03-23T09:11:48Z</time>
      </trkpt>
      <trkpt lat="39.05335" lon="-0.28905">
        <time>2019-03-23T09:11:49Z</time>
      </trkpt>
      <trkpt lat="39.05329" lon="-0.28901">
        <time>2019-03-23T09:11:50Z</time>
      </trkpt>
      <trkpt lat="39.05323" lon="-0.28894">
        <time>2019-03-23T09:11:51Z</time>
      </trkpt>
      <trkpt lat="39.05317" lon="-0.28887">
        <time>2019-03-23T09:11:52Z</time>
      </trkpt>
      <trkpt lat="39.05313" lon="-0.28878">
        <time>2019-03-23T09:11:53Z</time>
      </trkpt>
      <trkpt lat="39.05308" lon="-0.28868">
        <time>2019-03-23T09:11:54Z</time>
      </trkpt>
      <trkpt lat="39.05305" lon="-0.28857">
        <time>2019-03-23T09:11:55Z</time>
      </trkpt>
      <trkpt lat="39.05301" lon="-0.28847">
        <time>2019-03-23T09:11:56Z</time>
      </trkpt>
      <trkpt lat="39.05298" lon="-0.28837">
        <time>2019-03-23T09:11:57Z</time>
      </trkpt>
      <trkpt lat="39.05295" lon="-0.2883">
        <time>2019-03-23T09:11:58Z</time>
      </trkpt>
      <trkpt lat="39.05291" lon="-0.28826">
        <time>2019-03-23T09:11:59Z</time>
      </trkpt>
      <trkpt lat="39.05285" lon="-0.28823">
        <time>2019-03-23T09:12:00Z</time>
      </trkpt>
      <trkpt lat="39.05278" lon="-0.28823">
        <time>2019-03-23T09:12:01Z</time>
      </trkpt>
      <trkpt lat="39.0527" lon="-0.28822">
        <time>2019-03-23T09:12:02Z</time>
      </trkpt>
      <trkpt lat="39.0526" lon="-0.28822">
        <time>2019-03-23T09:12:03Z</time>
      </trkpt>
      <trkpt lat="39.0525" lon="-0.28823">
        <time>2019-03-23T09:12:04Z</time>
      </trkpt>
      <trkpt lat="39.05238" lon="-0.28827">
        <time>2019-03-23T09:12:05Z</time>
      </trkpt>
      <trkpt lat="39.05226" lon="-0.28831">
        <time>2019-03-23T09:12:06Z</time>
      </trkpt>
      <trkpt lat="39.05212" lon="-0.28836">
        <time>2019-03-23T09:12:07Z</time>
      </trkpt>
      <trkpt lat="39.05199" lon="-0.2884">
        <time>2019-03-23T09:12:08Z</time>
      </trkpt>
      <trkpt lat="39.05189" lon="-0.28843">
        <time>2019-03-23T09:12:09Z</time>
      </trkpt>
      <trkpt lat="39.05179" lon="-0.28845">
        <time>2019-03-23T09:12:10Z</time>
      </trkpt>
      <trkpt lat="39.0517" lon="-0.28844">
        <time>2019-03-23T09:12:11Z</time>
      </trkpt>
      <trkpt lat="39.05161" lon="-0.2884">
        <time>2019-03-23T09:12:12Z</time>
      </trkpt>
      <trkpt lat="39.05153" lon="-0.28834">
        <time>2019-03-23T09:12:13Z</time>
      </trkpt>
      <trkpt lat="39.05143" lon="-0.2883">
        <time>2019-03-23T09:12:14Z</time>
      </trkpt>
      <trkpt lat="39.05132" lon="-0.28827">
        <time>2019-03-23T09:12:15Z</time>
      </trkpt>
      <trkpt lat="39.0512" lon="-0.28825">
        <time>2019-03-23T09:12:16Z</time>
      </trkpt>
      <trkpt lat="39.05108" lon="-0.28822">
        <time>2019-03-23T09:12:17Z</time>
      </trkpt>
      <trkpt lat="39.05097" lon="-0.2882">
        <time>2019-03-23T09:12:18Z</time>
      </trkpt>
      <trkpt lat="39.05086" lon="-0.28818">
        <time>2019-03-23T09:12:19Z</time>
      </trkpt>
      <trkpt lat="39.05075" lon="-0.28815">
        <time>2019-03-23T09:12:20Z</time>
      </trkpt>
      <trkpt lat="39.05064" lon="-0.28814">
        <time>2019-03-23T09:12:21Z</time>
      </trkpt>
      <trkpt lat="39.05054" lon="-0.28815">
        <time>2019-03-23T09:12:22Z</time>
      </trkpt>
      <trkpt lat="39.05046" lon="-0.28817">
        <time>2019-03-23T09:12:23Z</time>
      </trkpt>
      <trkpt lat="39.05041" lon="-0.28818">
        <time>2019-03-23T09:12:24Z</time>
      </trkpt>
      <trkpt lat="39.05038" lon="-0.28819">
        <time>2019-03-23T09:12:25Z</time>
      </trkpt>
      <trkpt lat="39.05033" lon="-0.2882">
        <time>2019-03-23T09:12:26Z</time>
      </trkpt>
      <trkpt lat="39.05026" lon="-0.28822">
        <time>2019-03-23T09:12:27Z</time>
      </trkpt>
      <trkpt lat="39.05019" lon="-0.28827">
        <time>2019-03-23T09:12:28Z</time>
      </trkpt>
      <trkpt lat="39.05009" lon="-0.28833">
        <time>2019-03-23T09:12:29Z</time>
      </trkpt>
      <trkpt lat="39.04997" lon="-0.28841">
        <time>2019-03-23T09:12:30Z</time>
      </trkpt>
      <trkpt lat="39.04986" lon="-0.28849">
        <time>2019-03-23T09:12:31Z</time>
      </trkpt>
      <trkpt lat="39.04974" lon="-0.28857">
        <time>2019-03-23T09:12:32Z</time>
      </trkpt>
      <trkpt lat="39.04964" lon="-0.28865">
        <time>2019-03-23T09:12:33Z</time>
      </trkpt>
      <trkpt lat="39.04953" lon="-0.28872">
        <time>2019-03-23T09:12:34Z</time>
      </trkpt>
      <trkpt lat="39.04941" lon="-0.2888">
        <time>2019-03-23T09:12:35Z</time>
      </trkpt>
      <trkpt lat="39.0493" lon="-0.28888">
        <time>2019-03-23T09:12:36Z</time>
      </trkpt>
      <trkpt lat="39.04918" lon="-0.28896">
        <time>2019-03-23T09:12:37Z</time>
      </trkpt>
      <trkpt lat="39.04907" lon="-0.28904">
        <time>2019-03-23T09:12:38Z</time>
      </trkpt>
      <trkpt lat="39.04896" lon="-0.28911">
        <time>2019-03-23T09:12:39Z</time>
      </trkpt>
      <trkpt lat="39.04885" lon="-0.28918">
        <time>2019-03-23T09:12:40Z</time>
      </trkpt>
      <trkpt lat="39.04874" lon="-0.28924">
        <time>2019-03-23T09:12:41Z</time>
      </trkpt>
      <trkpt lat="39.04863" lon="-0.28931">
        <time>2019-03-23T09:12:42Z</time>
      </trkpt>
      <trkpt lat="39.04852" lon="-0.28937">
        <time>2019-03-23T09:12:43Z</time>
      </trkpt>
      <trkpt lat="39.04842" lon="-0.28944">
        <time>2019-03-23T09:12:44Z</time>
      </trkpt>
      <trkpt lat="39.04832" lon="-0.28954">
        <time>2019-03-23T09:12:45Z</time>
      </trkpt>
      <trkpt lat="39.0482" lon="-0.28962">
        <time>2019-03-23T09:12:46Z</time>
      </trkpt>
      <trkpt lat="39.04807" lon="-0.2897">
        <time>2019-03-23T09:12:47Z</time>
      </trkpt>
      <trkpt lat="39.048" lon="-0.28977">
        <time>2019-03-23T09:12:48Z</time>
      </trkpt>
      <trkpt lat="39.04787" lon="-0.28982">
        <time>2019-03-23T09:12:49Z</time>
      </trkpt>
      <trkpt lat="39.04775" lon="-0.28993">
        <time>2019-03-23T09:12:50Z</time>
      </trkpt>
      <trkpt lat="39.04761" lon="-0.29002">
        <time>2019-03-23T09:12:51Z</time>
      </trkpt>
      <trkpt lat="39.04747" lon="-0.29014">
        <time>2019-03-23T09:12:52Z</time>
      </trkpt>
      <trkpt lat="39.04734" lon="-0.29025">
        <time>2019-03-23T09:12:53Z</time>
      </trkpt>
      <trkpt lat="39.04718" lon="-0.29039">
        <time>2019-03-23T09:12:54Z</time>
      </trkpt>
      <trkpt lat="39.04706" lon="-0.29047">
        <time>2019-03-23T09:12:55Z</time>
      </trkpt>
      <trkpt lat="39.04693" lon="-0.29058">
        <time>2019-03-23T09:12:56Z</time>
      </trkpt>
      <trkpt lat="39.04681" lon="-0.29069">
        <time>2019-03-23T09:12:57Z</time>
      </trkpt>
      <trkpt lat="39.0467" lon="-0.29078">
        <time>2019-03-23T09:12:58Z</time>
      </trkpt>
      <trkpt lat="39.04658" lon="-0.29085">
        <time>2019-03-23T09:12:59Z</time>
      </trkpt>
      <trkpt lat="39.04647" lon="-0.29093">
        <time>2019-03-23T09:13:00Z</time>
      </trkpt>
      <trkpt lat="39.04636" lon="-0.29099">
        <time>2019-03-23T09:13:01Z</time>
      </trkpt>
      <trkpt lat="39.04626" lon="-0.29108">
        <time>2019-03-23T09:13:02Z</time>
      </trkpt>
      <trkpt lat="39.04618" lon="-0.29119">
        <time>2019-03-23T09:13:03Z</time>
      </trkpt>
      <trkpt lat="39.04611" lon="-0.29132">
        <time>2019-03-23T09:13:04Z</time>
      </trkpt>
      <trkpt lat="39.04603" lon="-0.29149">
        <time>2019-03-23T09:13:05Z</time>
      </trkpt>
      <trkpt lat="39.04595" lon="-0.29166">
        <time>2019-03-23T09:13:06Z</time>
      </trkpt>
      <trkpt lat="39.04585" lon="-0.29186">
        <time>2019-03-23T09:13:07Z</time>
      </trkpt>
      <trkpt lat="39.04576" lon="-0.29204">
        <time>2019-03-23T09:13:08Z</time>
      </trkpt>
      <trkpt lat="39.04568" lon="-0.2922">
        <time>2019-03-23T09:13:09Z</time>
      </trkpt>
      <trkpt lat="39.04559" lon="-0.29237">
        <time>2019-03-23T09:13:10Z</time>
      </trkpt>
      <trkpt lat="39.04551" lon="-0.29252">
        <time>2019-03-23T09:13:11Z</time>
      </trkpt>
      <trkpt lat="39.04543" lon="-0.29267">
        <time>2019-03-23T09:13:12Z</time>
      </trkpt>
      <trkpt lat="39.04534" lon="-0.29278">
        <time>2019-03-23T09:13:13Z</time>
      </trkpt>
      <trkpt lat="39.04524" lon="-0.29287">
        <time>2019-03-23T09:13:14Z</time>
      </trkpt>
      <trkpt lat="39.04514" lon="-0.29296">
        <time>2019-03-23T09:13:15Z</time>
      </trkpt>
      <trkpt lat="39.04505" lon="-0.29303">
        <time>2019-03-23T09:13:16Z</time>
      </trkpt>
      <trkpt lat="39.04499" lon="-0.29307">
        <time>2019-03-23T09:13:17Z</time>
      </trkpt>
      <trkpt lat="39.04493" lon="-0.2931">
        <time>2019-03-23T09:13:18Z</time>
      </trkpt>
      <trkpt lat="39.04487" lon="-0.29309">
        <time>2019-03-23T09:13:19Z</time>
      </trkpt>
      <trkpt lat="39.0448" lon="-0.29305">
        <time>2019-03-23T09:13:20Z</time>
      </trkpt>
      <trkpt lat="39.04475" lon="-0.29296">
        <time>2019-03-23T09:13:21Z</time>
      </trkpt>
      <trkpt lat="39.04467" lon="-0.2929">
        <time>2019-03-23T09:13:22Z</time>
      </trkpt>
      <trkpt lat="39.04457" lon="-0.29283">
        <time>2019-03-23T09:13:23Z</time>
      </trkpt>
      <trkpt lat="39.04446" lon="-0.29276">
        <time>2019-03-23T09:13:24Z</time>
      </trkpt>
      <trkpt lat="39.04436" lon="-0.29271">
        <time>2019-03-23T09:13:25Z</time>
      </trkpt>
      <trkpt lat="39.04425" lon="-0.29266">
        <time>2019-03-23T09:13:26Z</time>
      </trkpt>
      <trkpt lat="39.04414" lon="-0.29263">
        <time>2019-03-23T09:13:27Z</time>
      </trkpt>
      <trkpt lat="39.04401" lon="-0.2926">
        <time>2019-03-23T09:13:28Z</time>
      </trkpt>
      <trkpt lat="39.04389" lon="-0.29258">
        <time>2019-03-23T09:13:29Z</time>
      </trkpt>
      <trkpt lat="39.04379" lon="-0.29257">
        <time>2019-03-23T09:13:30Z</time>
      </trkpt>
      <trkpt lat="39.04371" lon="-0.29258">
        <time>2019-03-23T09:13:31Z</time>
      </trkpt>
      <trkpt lat="39.04363" lon="-0.29256">
        <time>2019-03-23T09:13:32Z</time>
      </trkpt>
      <trkpt lat="39.04357" lon="-0.29253">
        <time>2019-03-23T09:13:33Z</time>
      </trkpt>
      <trkpt lat="39.04351" lon="-0.29248">
        <time>2019-03-23T09:13:34Z</time>
      </trkpt>
      <trkpt lat="39.04347" lon="-0.29244">
        <time>2019-03-23T09:13:35Z</time>
      </trkpt>
      <trkpt lat="39.04345" lon="-0.29241">
        <time>2019-03-23T09:13:36Z</time>
      </trkpt>
      <trkpt lat="39.04342" lon="-0.29239">
        <time>2019-03-23T09:13:37Z</time>
      </trkpt>
      <trkpt lat="39.0434" lon="-0.29239">
        <time>2019-03-23T09:13:38Z</time>
      </trkpt>
      <trkpt lat="39.04338" lon="-0.29238">
        <time>2019-03-23T09:13:39Z</time>
      </trkpt>
      <trkpt lat="39.04336" lon="-0.29238">
        <time>2019-03-23T09:13:49Z</time>
      </trkpt>
      <trkpt lat="39.04334" lon="-0.29239">
        <time>2019-03-23T09:13:50Z</time>
      </trkpt>
      <trkpt lat="39.04332" lon="-0.29241">
        <time>2019-03-23T09:13:51Z</time>
      </trkpt>
      <trkpt lat="39.04329" lon="-0.29242">
        <time>2019-03-23T09:13:52Z</time>
      </trkpt>
      <trkpt lat="39.04325" lon="-0.29244">
        <time>2019-03-23T09:13:53Z</time>
      </trkpt>
      <trkpt lat="39.04321" lon="-0.29246">
        <time>2019-03-23T09:13:54Z</time>
      </trkpt>
      <trkpt lat="39.04318" lon="-0.29249">
        <time>2019-03-23T09:13:55Z</time>
      </trkpt>
      <trkpt lat="39.04316" lon="-0.29251">
        <time>2019-03-23T09:13:56Z</time>
      </trkpt>
      <trkpt lat="39.04315" lon="-0.29254">
        <time>2019-03-23T09:13:57Z</time>
      </trkpt>
      <trkpt lat="39.04314" lon="-0.29257">
        <time>2019-03-23T09:13:58Z</time>
      </trkpt>
      <trkpt lat="39.04313" lon="-0.29259">
        <time>2019-03-23T09:13:59Z</time>
      </trkpt>
      <trkpt lat="39.04312" lon="-0.29262">
        <time>2019-03-23T09:14:00Z</time>
      </trkpt>
      <trkpt lat="39.04312" lon="-0.29266">
        <time>2019-03-23T09:14:01Z</time>
      </trkpt>
      <trkpt lat="39.04312" lon="-0.29268">
        <time>2019-03-23T09:14:02Z</time>
      </trkpt>
      <trkpt lat="39.04313" lon="-0.2927">
        <time>2019-03-23T09:14:03Z</time>
      </trkpt>
      <trkpt lat="39.04312" lon="-0.29272">
        <time>2019-03-23T09:14:14Z</time>
      </trkpt>
      <trkpt lat="39.04312" lon="-0.29275">
        <time>2019-03-23T09:14:15Z</time>
      </trkpt>
      <trkpt lat="39.04312" lon="-0.2928">
        <time>2019-03-23T09:14:16Z</time>
      </trkpt>
      <trkpt lat="39.04313" lon="-0.29287">
        <time>2019-03-23T09:14:17Z</time>
      </trkpt>
      <trkpt lat="39.04313" lon="-0.29294">
        <time>2019-03-23T09:14:18Z</time>
      </trkpt>
      <trkpt lat="39.04315" lon="-0.29302">
        <time>2019-03-23T09:14:19Z</time>
      </trkpt>
      <trkpt lat="39.04314" lon="-0.29311">
        <time>2019-03-23T09:14:20Z</time>
      </trkpt>
      <trkpt lat="39.04311" lon="-0.2932">
        <time>2019-03-23T09:14:21Z</time>
      </trkpt>
      <trkpt lat="39.0431" lon="-0.29332">
        <time>2019-03-23T09:14:22Z</time>
      </trkpt>
      <trkpt lat="39.0431" lon="-0.29343">
        <time>2019-03-23T09:14:23Z</time>
      </trkpt>
      <trkpt lat="39.0431" lon="-0.29354">
        <time>2019-03-23T09:14:24Z</time>
      </trkpt>
      <trkpt lat="39.04308" lon="-0.29365">
        <time>2019-03-23T09:14:25Z</time>
      </trkpt>
      <trkpt lat="39.04304" lon="-0.29376">
        <time>2019-03-23T09:14:26Z</time>
      </trkpt>
      <trkpt lat="39.043" lon="-0.2939">
        <time>2019-03-23T09:14:27Z</time>
      </trkpt>
      <trkpt lat="39.04295" lon="-0.29407">
        <time>2019-03-23T09:14:28Z</time>
      </trkpt>
      <trkpt lat="39.04289" lon="-0.29419">
        <time>2019-03-23T09:14:29Z</time>
      </trkpt>
      <trkpt lat="39.04282" lon="-0.29433">
        <time>2019-03-23T09:14:30Z</time>
      </trkpt>
      <trkpt lat="39.04274" lon="-0.29447">
        <time>2019-03-23T09:14:31Z</time>
      </trkpt>
      <trkpt lat="39.04267" lon="-0.2946">
        <time>2019-03-23T09:14:32Z</time>
      </trkpt>
      <trkpt lat="39.04259" lon="-0.29477">
        <time>2019-03-23T09:14:33Z</time>
      </trkpt>
      <trkpt lat="39.04252" lon="-0.29492">
        <time>2019-03-23T09:14:34Z</time>
      </trkpt>
      <trkpt lat="39.04245" lon="-0.29507">
        <time>2019-03-23T09:14:35Z</time>
      </trkpt>
      <trkpt lat="39.04239" lon="-0.29523">
        <time>2019-03-23T09:14:36Z</time>
      </trkpt>
      <trkpt lat="39.04232" lon="-0.29537">
        <time>2019-03-23T09:14:37Z</time>
      </trkpt>
      <trkpt lat="39.04224" lon="-0.29554">
        <time>2019-03-23T09:14:38Z</time>
      </trkpt>
      <trkpt lat="39.04217" lon="-0.29572">
        <time>2019-03-23T09:14:39Z</time>
      </trkpt>
      <trkpt lat="39.04211" lon="-0.29589">
        <time>2019-03-23T09:14:40Z</time>
      </trkpt>
      <trkpt lat="39.04205" lon="-0.29609">
        <time>2019-03-23T09:14:41Z</time>
      </trkpt>
      <trkpt lat="39.04198" lon="-0.29627">
        <time>2019-03-23T09:14:42Z</time>
      </trkpt>
      <trkpt lat="39.0419" lon="-0.29647">
        <time>2019-03-23T09:14:43Z</time>
      </trkpt>
      <trkpt lat="39.04183" lon="-0.29666">
        <time>2019-03-23T09:14:44Z</time>
      </trkpt>
      <trkpt lat="39.04177" lon="-0.29683">
        <time>2019-03-23T09:14:45Z</time>
      </trkpt>
      <trkpt lat="39.04171" lon="-0.29701">
        <time>2019-03-23T09:14:46Z</time>
      </trkpt>
      <trkpt lat="39.04162" lon="-0.29722">
        <time>2019-03-23T09:14:47Z</time>
      </trkpt>
      <trkpt lat="39.04156" lon="-0.29738">
        <time>2019-03-23T09:14:48Z</time>
      </trkpt>
      <trkpt lat="39.04151" lon="-0.29753">
        <time>2019-03-23T09:14:49Z</time>
      </trkpt>
      <trkpt lat="39.04145" lon="-0.29765">
        <time>2019-03-23T09:14:50Z</time>
      </trkpt>
      <trkpt lat="39.04137" lon="-0.29775">
        <time>2019-03-23T09:14:51Z</time>
      </trkpt>
      <trkpt lat="39.04126" lon="-0.29786">
        <time>2019-03-23T09:14:52Z</time>
      </trkpt>
      <trkpt lat="39.04116" lon="-0.29797">
        <time>2019-03-23T09:14:53Z</time>
      </trkpt>
      <trkpt lat="39.04104" lon="-0.29808">
        <time>2019-03-23T09:14:54Z</time>
      </trkpt>
      <trkpt lat="39.04095" lon="-0.29817">
        <time>2019-03-23T09:14:55Z</time>
      </trkpt>
      <trkpt lat="39.04088" lon="-0.29825">
        <time>2019-03-23T09:14:56Z</time>
      </trkpt>
      <trkpt lat="39.0408" lon="-0.29837">
        <time>2019-03-23T09:14:57Z</time>
      </trkpt>
      <trkpt lat="39.04074" lon="-0.29855">
        <time>2019-03-23T09:14:58Z</time>
      </trkpt>
      <trkpt lat="39.04065" lon="-0.29871">
        <time>2019-03-23T09:14:59Z</time>
      </trkpt>
      <trkpt lat="39.04058" lon="-0.29887">
        <time>2019-03-23T09:15:00Z</time>
      </trkpt>
      <trkpt lat="39.0405" lon="-0.29901">
        <time>2019-03-23T09:15:01Z</time>
      </trkpt>
      <trkpt lat="39.04042" lon="-0.29915">
        <time>2019-03-23T09:15:02Z</time>
      </trkpt>
      <trkpt lat="39.04035" lon="-0.29926">
        <time>2019-03-23T09:15:03Z</time>
      </trkpt>
      <trkpt lat="39.04028" lon="-0.29936">
        <time>2019-03-23T09:15:04Z</time>
      </trkpt>
      <trkpt lat="39.04022" lon="-0.29945">
        <time>2019-03-23T09:15:05Z</time>
      </trkpt>
      <trkpt lat="39.04015" lon="-0.29953">
        <time>2019-03-23T09:15:06Z</time>
      </trkpt>
      <trkpt lat="39.04009" lon="-0.29959">
        <time>2019-03-23T09:15:07Z</time>
      </trkpt>
      <trkpt lat="39.04003" lon="-0.29965">
        <time>2019-03-23T09:15:08Z</time>
      </trkpt>
      <trkpt lat="39.03998" lon="-0.2997">
        <time>2019-03-23T09:15:09Z</time>
      </trkpt>
      <trkpt lat="39.03991" lon="-0.29977">
        <time>2019-03-23T09:15:10Z</time>
      </trkpt>
      <trkpt lat="39.03984" lon="-0.29983">
        <time>2019-03-23T09:15:11Z</time>
      </trkpt>
      <trkpt lat="39.03976" lon="-0.2999">
        <time>2019-03-23T09:15:12Z</time>
      </trkpt>
      <trkpt lat="39.03969" lon="-0.29997">
        <time>2019-03-23T09:15:13Z</time>
      </trkpt>
      <trkpt lat="39.03962" lon="-0.30003">
        <time>2019-03-23T09:15:14Z</time>
      </trkpt>
      <trkpt lat="39.03955" lon="-0.30008">
        <time>2019-03-23T09:15:15Z</time>
      </trkpt>
      <trkpt lat="39.03946" lon="-0.30011">
        <time>2019-03-23T09:15:16Z</time>
      </trkpt>
      <trkpt lat="39.03938" lon="-0.30013">
        <time>2019-03-23T09:15:17Z</time>
      </trkpt>
      <trkpt lat="39.03927" lon="-0.30017">
        <time>2019-03-23T09:15:18Z</time>
      </trkpt>
      <trkpt lat="39.03916" lon="-0.30023">
        <time>2019-03-23T09:15:19Z</time>
      </trkpt>
      <trkpt lat="39.03907" lon="-0.30029">
        <time>2019-03-23T09:15:20Z</time>
      </trkpt>
      <trkpt lat="39.03898" lon="-0.30036">
        <time>2019-03-23T09:15:21Z</time>
      </trkpt>
      <trkpt lat="39.0389" lon="-0.3004">
        <time>2019-03-23T09:15:22Z</time>
      </trkpt>
      <trkpt lat="39.03881" lon="-0.3004">
        <time>2019-03-23T09:15:23Z</time>
      </trkpt>
      <trkpt lat="39.03874" lon="-0.30036">
        <time>2019-03-23T09:15:24Z</time>
      </trkpt>
      <trkpt lat="39.03867" lon="-0.3003">
        <time>2019-03-23T09:15:25Z</time>
      </trkpt>
      <trkpt lat="39.03859" lon="-0.30022">
        <time>2019-03-23T09:15:26Z</time>
      </trkpt>
      <trkpt lat="39.03853" lon="-0.30017">
        <time>2019-03-23T09:15:27Z</time>
      </trkpt>
      <trkpt lat="39.03847" lon="-0.30016">
        <time>2019-03-23T09:15:28Z</time>
      </trkpt>
      <trkpt lat="39.0384" lon="-0.30019">
        <time>2019-03-23T09:15:29Z</time>
      </trkpt>
      <trkpt lat="39.03834" lon="-0.30025">
        <time>2019-03-23T09:15:30Z</time>
      </trkpt>
      <trkpt lat="39.03827" lon="-0.30035">
        <time>2019-03-23T09:15:31Z</time>
      </trkpt>
      <trkpt lat="39.03819" lon="-0.30045">
        <time>2019-03-23T09:15:32Z</time>
      </trkpt>
      <trkpt lat="39.03812" lon="-0.30054">
        <time>2019-03-23T09:15:33Z</time>
      </trkpt>
      <trkpt lat="39.03804" lon="-0.30065">
        <time>2019-03-23T09:15:34Z</time>
      </trkpt>
      <trkpt lat="39.03796" lon="-0.30076">
        <time>2019-03-23T09:15:35Z</time>
      </trkpt>
      <trkpt lat="39.03787" lon="-0.30086">
        <time>2019-03-23T09:15:36Z</time>
      </trkpt>
      <trkpt lat="39.03778" lon="-0.30098">
        <time>2019-03-23T09:15:37Z</time>
      </trkpt>
      <trkpt lat="39.0377" lon="-0.30108">
        <time>2019-03-23T09:15:38Z</time>
      </trkpt>
      <trkpt lat="39.03763" lon="-0.30118">
        <time>2019-03-23T09:15:39Z</time>
      </trkpt>
      <trkpt lat="39.03757" lon="-0.30127">
        <time>2019-03-23T09:15:40Z</time>
      </trkpt>
      <trkpt lat="39.03753" lon="-0.30133">
        <time>2019-03-23T09:15:41Z</time>
      </trkpt>
      <trkpt lat="39.03751" lon="-0.3014">
        <time>2019-03-23T09:15:42Z</time>
      </trkpt>
      <trkpt lat="39.03751" lon="-0.30146">
        <time>2019-03-23T09:15:43Z</time>
      </trkpt>
      <trkpt lat="39.03755" lon="-0.30152">
        <time>2019-03-23T09:15:44Z</time>
      </trkpt>
      <trkpt lat="39.0376" lon="-0.30157">
        <time>2019-03-23T09:15:45Z</time>
      </trkpt>
      <trkpt lat="39.03766" lon="-0.30162">
        <time>2019-03-23T09:15:46Z</time>
      </trkpt>
      <trkpt lat="39.03772" lon="-0.30168">
        <time>2019-03-23T09:15:47Z</time>
      </trkpt>
      <trkpt lat="39.03777" lon="-0.30173">
        <time>2019-03-23T09:15:48Z</time>
      </trkpt>
      <trkpt lat="39.03782" lon="-0.30177">
        <time>2019-03-23T09:15:49Z</time>
      </trkpt>
      <trkpt lat="39.03787" lon="-0.30183">
        <time>2019-03-23T09:15:50Z</time>
      </trkpt>
      <trkpt lat="39.03792" lon="-0.30186">
        <time>2019-03-23T09:15:51Z</time>
      </trkpt>
      <trkpt lat="39.03795" lon="-0.30189">
        <time>2019-03-23T09:15:52Z</time>
      </trkpt>
      <trkpt lat="39.03796" lon="-0.30191">
        <time>2019-03-23T09:15:53Z</time>
      </trkpt>
      <trkpt lat="39.03797" lon="-0.30193">
        <time>2019-03-23T09:15:54Z</time>
      </trkpt>
      <trkpt lat="39.03796" lon="-0.30194">
        <time>2019-03-23T09:15:55Z</time>
      </trkpt>
      <trkpt lat="39.03795" lon="-0.30193">
        <time>2019-03-23T09:16:01Z</time>
      </trkpt>
      <trkpt lat="39.03793" lon="-0.30191">
        <time>2019-03-23T09:16:02Z</time>
      </trkpt>
      <trkpt lat="39.03789" lon="-0.30186">
        <time>2019-03-23T09:16:03Z</time>
      </trkpt>
      <trkpt lat="39.03784" lon="-0.3018">
        <time>2019-03-23T09:16:04Z</time>
      </trkpt>
      <trkpt lat="39.0378" lon="-0.30175">
        <time>2019-03-23T09:16:05Z</time>
      </trkpt>
      <trkpt lat="39.03776" lon="-0.30172">
        <time>2019-03-23T09:16:06Z</time>
      </trkpt>
      <trkpt lat="39.03773" lon="-0.3017">
        <time>2019-03-23T09:16:07Z</time>
      </trkpt>
      <trkpt lat="39.03771" lon="-0.30167">
        <time>2019-03-23T09:16:08Z</time>
      </trkpt>
      <trkpt lat="39.03767" lon="-0.30164">
        <time>2019-03-23T09:16:09Z</time>
      </trkpt>
      <trkpt lat="39.03763" lon="-0.3016">
        <time>2019-03-23T09:16:10Z</time>
      </trkpt>
      <trkpt lat="39.03759" lon="-0.30156">
        <time>2019-03-23T09:16:11Z</time>
      </trkpt>
      <trkpt lat="39.03755" lon="-0.30153">
        <time>2019-03-23T09:16:12Z</time>
      </trkpt>
      <trkpt lat="39.03753" lon="-0.3015">
        <time>2019-03-23T09:16:13Z</time>
      </trkpt>
      <trkpt lat="39.03751" lon="-0.30149">
        <time>2019-03-23T09:16:14Z</time>
      </trkpt>
      <trkpt lat="39.0375" lon="-0.30148">
        <time>2019-03-23T09:16:15Z</time>
      </trkpt>
      <trkpt lat="39.03749" lon="-0.30148">
        <time>2019-03-23T09:16:24Z</time>
      </trkpt>
      <trkpt lat="39.03746" lon="-0.30148">
        <time>2019-03-23T09:16:25Z</time>
      </trkpt>
      <trkpt lat="39.03744" lon="-0.3015">
        <time>2019-03-23T09:16:26Z</time>
      </trkpt>
      <trkpt lat="39.03742" lon="-0.30153">
        <time>2019-03-23T09:16:27Z</time>
      </trkpt>
      <trkpt lat="39.03741" lon="-0.30158">
        <time>2019-03-23T09:16:28Z</time>
      </trkpt>
      <trkpt lat="39.03739" lon="-0.30165">
        <time>2019-03-23T09:16:29Z</time>
      </trkpt>
      <trkpt lat="39.03737" lon="-0.30171">
        <time>2019-03-23T09:16:30Z</time>
      </trkpt>
      <trkpt lat="39.03734" lon="-0.30179">
        <time>2019-03-23T09:16:31Z</time>
      </trkpt>
      <trkpt lat="39.03731" lon="-0.30186">
        <time>2019-03-23T09:16:32Z</time>
      </trkpt>
      <trkpt lat="39.03728" lon="-0.30194">
        <time>2019-03-23T09:16:33Z</time>
      </trkpt>
      <trkpt lat="39.03725" lon="-0.30202">
        <time>2019-03-23T09:16:34Z</time>
      </trkpt>
      <trkpt lat="39.0372" lon="-0.3021">
        <time>2019-03-23T09:16:35Z</time>
      </trkpt>
      <trkpt lat="39.03715" lon="-0.30218">
        <time>2019-03-23T09:16:36Z</time>
      </trkpt>
      <trkpt lat="39.0371" lon="-0.30226">
        <time>2019-03-23T09:16:37Z</time>
      </trkpt>
      <trkpt lat="39.03705" lon="-0.30235">
        <time>2019-03-23T09:16:38Z</time>
      </trkpt>
      <trkpt lat="39.03701" lon="-0.30243">
        <time>2019-03-23T09:16:39Z</time>
      </trkpt>
      <trkpt lat="39.03697" lon="-0.3025">
        <time>2019-03-23T09:16:40Z</time>
      </trkpt>
      <trkpt lat="39.03693" lon="-0.30259">
        <time>2019-03-23T09:16:41Z</time>
      </trkpt>
      <trkpt lat="39.03689" lon="-0.30266">
        <time>2019-03-23T09:16:42Z</time>
      </trkpt>
      <trkpt lat="39.03685" lon="-0.30273">
        <time>2019-03-23T09:16:43Z</time>
      </trkpt>
      <trkpt lat="39.03682" lon="-0.30278">
        <time>2019-03-23T09:16:44Z</time>
      </trkpt>
      <trkpt lat="39.03679" lon="-0.30283">
        <time>2019-03-23T09:16:45Z</time>
      </trkpt>
      <trkpt lat="39.03674" lon="-0.30289">
        <time>2019-03-23T09:16:46Z</time>
      </trkpt>
      <trkpt lat="39.03668" lon="-0.30294">
        <time>2019-03-23T09:16:47Z</time>
      </trkpt>
      <trkpt lat="39.0366" lon="-0.30307">
        <time>2019-03-23T09:16:48Z</time>
      </trkpt>
      <trkpt lat="39.03654" lon="-0.30314">
        <time>2019-03-23T09:16:49Z</time>
      </trkpt>
      <trkpt lat="39.03648" lon="-0.3032">
        <time>2019-03-23T09:16:50Z</time>
      </trkpt>
      <trkpt lat="39.03641" lon="-0.30327">
        <time>2019-03-23T09:16:51Z</time>
      </trkpt>
      <trkpt lat="39.03634" lon="-0.30334">
        <time>2019-03-23T09:16:52Z</time>
      </trkpt>
      <trkpt lat="39.03627" lon="-0.30339">
        <time>2019-03-23T09:16:53Z</time>
      </trkpt>
      <trkpt lat="39.03621" lon="-0.30344">
        <time>2019-03-23T09:16:54Z</time>
      </trkpt>
      <trkpt lat="39.03616" lon="-0.30348">
        <time>2019-03-23T09:16:55Z</time>
      </trkpt>
      <trkpt lat="39.03611" lon="-0.3035">
        <time>2019-03-23T09:16:56Z</time>
      </trkpt>
      <trkpt lat="39.03607" lon="-0.30351">
        <time>2019-03-23T09:16:57Z</time>
      </trkpt>
      <trkpt lat="39.03602" lon="-0.30348">
        <time>2019-03-23T09:16:58Z</time>
      </trkpt>
      <trkpt lat="39.03598" lon="-0.30344">
        <time>2019-03-23T09:16:59Z</time>
      </trkpt>
      <trkpt lat="39.03593" lon="-0.30338">
        <time>2019-03-23T09:17:00Z</time>
      </trkpt>
      <trkpt lat="39.03589" lon="-0.30334">
        <time>2019-03-23T09:17:01Z</time>
      </trkpt>
      <trkpt lat="39.03584" lon="-0.30329">
        <time>2019-03-23T09:17:02Z</time>
      </trkpt>
      <trkpt lat="39.0358" lon="-0.30324">
        <time>2019-03-23T09:17:03Z</time>
      </trkpt>
      <trkpt lat="39.03576" lon="-0.30319">
        <time>2019-03-23T09:17:04Z</time>
      </trkpt>
      <trkpt lat="39.03571" lon="-0.30314">
        <time>2019-03-23T09:17:05Z</time>
      </trkpt>
      <trkpt lat="39.03567" lon="-0.3031">
        <time>2019-03-23T09:17:06Z</time>
      </trkpt>
      <trkpt lat="39.03562" lon="-0.30305">
        <time>2019-03-23T09:17:07Z</time>
      </trkpt>
      <trkpt lat="39.03557" lon="-0.303">
        <time>2019-03-23T09:17:08Z</time>
      </trkpt>
      <trkpt lat="39.03553" lon="-0.30296">
        <time>2019-03-23T09:17:09Z</time>
      </trkpt>
      <trkpt lat="39.03548" lon="-0.30293">
        <time>2019-03-23T09:17:10Z</time>
      </trkpt>
      <trkpt lat="39.03544" lon="-0.30294">
        <time>2019-03-23T09:17:11Z</time>
      </trkpt>
      <trkpt lat="39.0354" lon="-0.30297">
        <time>2019-03-23T09:17:12Z</time>
      </trkpt>
      <trkpt lat="39.03537" lon="-0.30303">
        <time>2019-03-23T09:17:13Z</time>
      </trkpt>
      <trkpt lat="39.03533" lon="-0.3031">
        <time>2019-03-23T09:17:14Z</time>
      </trkpt>
      <trkpt lat="39.03529" lon="-0.30316">
        <time>2019-03-23T09:17:15Z</time>
      </trkpt>
      <trkpt lat="39.03525" lon="-0.30323">
        <time>2019-03-23T09:17:16Z</time>
      </trkpt>
      <trkpt lat="39.03521" lon="-0.30329">
        <time>2019-03-23T09:17:17Z</time>
      </trkpt>
      <trkpt lat="39.03517" lon="-0.30336">
        <time>2019-03-23T09:17:18Z</time>
      </trkpt>
      <trkpt lat="39.03513" lon="-0.30343">
        <time>2019-03-23T09:17:19Z</time>
      </trkpt>
      <trkpt lat="39.03508" lon="-0.30351">
        <time>2019-03-23T09:17:20Z</time>
      </trkpt>
      <trkpt lat="39.03503" lon="-0.3036">
        <time>2019-03-23T09:17:21Z</time>
      </trkpt>
      <trkpt lat="39.03498" lon="-0.30367">
        <time>2019-03-23T09:17:22Z</time>
      </trkpt>
      <trkpt lat="39.03492" lon="-0.30375">
        <time>2019-03-23T09:17:23Z</time>
      </trkpt>
      <trkpt lat="39.03488" lon="-0.30383">
        <time>2019-03-23T09:17:24Z</time>
      </trkpt>
      <trkpt lat="39.03484" lon="-0.30389">
        <time>2019-03-23T09:17:25Z</time>
      </trkpt>
      <trkpt lat="39.03481" lon="-0.30395">
        <time>2019-03-23T09:17:26Z</time>
      </trkpt>
      <trkpt lat="39.03479" lon="-0.30399">
        <time>2019-03-23T09:17:27Z</time>
      </trkpt>
      <trkpt lat="39.03478" lon="-0.30401">
        <time>2019-03-23T09:17:28Z</time>
      </trkpt>
      <trkpt lat="39.03477" lon="-0.30404">
        <time>2019-03-23T09:17:31Z</time>
      </trkpt>
      <trkpt lat="39.03475" lon="-0.30404">
        <time>2019-03-23T09:17:32Z</time>
      </trkpt>
      <trkpt lat="39.03471" lon="-0.30403">
        <time>2019-03-23T09:17:33Z</time>
      </trkpt>
      <trkpt lat="39.03464" lon="-0.30401">
        <time>2019-03-23T09:17:34Z</time>
      </trkpt>
      <trkpt lat="39.03456" lon="-0.30397">
        <time>2019-03-23T09:17:35Z</time>
      </trkpt>
      <trkpt lat="39.03447" lon="-0.30392">
        <time>2019-03-23T09:17:36Z</time>
      </trkpt>
      <trkpt lat="39.03435" lon="-0.30386">
        <time>2019-03-23T09:17:37Z</time>
      </trkpt>
      <trkpt lat="39.03424" lon="-0.3038">
        <time>2019-03-23T09:17:38Z</time>
      </trkpt>
      <trkpt lat="39.03411" lon="-0.30373">
        <time>2019-03-23T09:17:39Z</time>
      </trkpt>
      <trkpt lat="39.03395" lon="-0.30366">
        <time>2019-03-23T09:17:40Z</time>
      </trkpt>
      <trkpt lat="39.03381" lon="-0.30359">
        <time>2019-03-23T09:17:41Z</time>
      </trkpt>
      <trkpt lat="39.03365" lon="-0.3035">
        <time>2019-03-23T09:17:42Z</time>
      </trkpt>
      <trkpt lat="39.03351" lon="-0.30337">
        <time>2019-03-23T09:17:43Z</time>
      </trkpt>
      <trkpt lat="39.03341" lon="-0.30326">
        <time>2019-03-23T09:17:44Z</time>
      </trkpt>
      <trkpt lat="39.03326" lon="-0.30315">
        <time>2019-03-23T09:17:45Z</time>
      </trkpt>
      <trkpt lat="39.03312" lon="-0.3031">
        <time>2019-03-23T09:17:46Z</time>
      </trkpt>
      <trkpt lat="39.03299" lon="-0.30309">
        <time>2019-03-23T09:17:47Z</time>
      </trkpt>
      <trkpt lat="39.03283" lon="-0.30308">
        <time>2019-03-23T09:17:48Z</time>
      </trkpt>
      <trkpt lat="39.03268" lon="-0.30308">
        <time>2019-03-23T09:17:49Z</time>
      </trkpt>
      <trkpt lat="39.0325" lon="-0.3031">
        <time>2019-03-23T09:17:50Z</time>
      </trkpt>
      <trkpt lat="39.03234" lon="-0.3031">
        <time>2019-03-23T09:17:51Z</time>
      </trkpt>
      <trkpt lat="39.03219" lon="-0.30311">
        <time>2019-03-23T09:17:52Z</time>
      </trkpt>
      <trkpt lat="39.03206" lon="-0.30311">
        <time>2019-03-23T09:17:53Z</time>
      </trkpt>
      <trkpt lat="39.03196" lon="-0.30314">
        <time>2019-03-23T09:17:54Z</time>
      </trkpt>
      <trkpt lat="39.03187" lon="-0.3032">
        <time>2019-03-23T09:17:55Z</time>
      </trkpt>
      <trkpt lat="39.0318" lon="-0.30331">
        <time>2019-03-23T09:17:56Z</time>
      </trkpt>
      <trkpt lat="39.03177" lon="-0.30343">
        <time>2019-03-23T09:17:57Z</time>
      </trkpt>
      <trkpt lat="39.03175" lon="-0.3036">
        <time>2019-03-23T09:17:58Z</time>
      </trkpt>
      <trkpt lat="39.03172" lon="-0.30378">
        <time>2019-03-23T09:17:59Z</time>
      </trkpt>
      <trkpt lat="39.0317" lon="-0.30393">
        <time>2019-03-23T09:18:00Z</time>
      </trkpt>
      <trkpt lat="39.03169" lon="-0.30409">
        <time>2019-03-23T09:18:01Z</time>
      </trkpt>
      <trkpt lat="39.03172" lon="-0.30422">
        <time>2019-03-23T09:18:02Z</time>
      </trkpt>
      <trkpt lat="39.03174" lon="-0.30433">
        <time>2019-03-23T09:18:03Z</time>
      </trkpt>
      <trkpt lat="39.03174" lon="-0.30443">
        <time>2019-03-23T09:18:04Z</time>
      </trkpt>
      <trkpt lat="39.03171" lon="-0.30448">
        <time>2019-03-23T09:18:05Z</time>
      </trkpt>
      <trkpt lat="39.03164" lon="-0.30451">
        <time>2019-03-23T09:18:06Z</time>
      </trkpt>
      <trkpt lat="39.03157" lon="-0.30447">
        <time>2019-03-23T09:18:07Z</time>
      </trkpt>
      <trkpt lat="39.03151" lon="-0.30444">
        <time>2019-03-23T09:18:08Z</time>
      </trkpt>
      <trkpt lat="39.03144" lon="-0.30433">
        <time>2019-03-23T09:18:09Z</time>
      </trkpt>
      <trkpt lat="39.03139" lon="-0.30423">
        <time>2019-03-23T09:18:10Z</time>
      </trkpt>
      <trkpt lat="39.03134" lon="-0.30408">
        <time>2019-03-23T09:18:11Z</time>
      </trkpt>
      <trkpt lat="39.0313" lon="-0.30391">
        <time>2019-03-23T09:18:12Z</time>
      </trkpt>
      <trkpt lat="39.03131" lon="-0.30372">
        <time>2019-03-23T09:18:13Z</time>
      </trkpt>
      <trkpt lat="39.03135" lon="-0.30351">
        <time>2019-03-23T09:18:14Z</time>
      </trkpt>
      <trkpt lat="39.03141" lon="-0.3033">
        <time>2019-03-23T09:18:15Z</time>
      </trkpt>
      <trkpt lat="39.03146" lon="-0.30307">
        <time>2019-03-23T09:18:16Z</time>
      </trkpt>
      <trkpt lat="39.0315" lon="-0.30284">
        <time>2019-03-23T09:18:17Z</time>
      </trkpt>
      <trkpt lat="39.03155" lon="-0.30262">
        <time>2019-03-23T09:18:18Z</time>
      </trkpt>
      <trkpt lat="39.0316" lon="-0.3024">
        <time>2019-03-23T09:18:19Z</time>
      </trkpt>
      <trkpt lat="39.03159" lon="-0.30217">
        <time>2019-03-23T09:18:20Z</time>
      </trkpt>
      <trkpt lat="39.03163" lon="-0.30202">
        <time>2019-03-23T09:18:21Z</time>
      </trkpt>
      <trkpt lat="39.03167" lon="-0.30188">
        <time>2019-03-23T09:18:22Z</time>
      </trkpt>
      <trkpt lat="39.03167" lon="-0.30176">
        <time>2019-03-23T09:18:23Z</time>
      </trkpt>
      <trkpt lat="39.03165" lon="-0.30165">
        <time>2019-03-23T09:18:24Z</time>
      </trkpt>
      <trkpt lat="39.03158" lon="-0.30154">
        <time>2019-03-23T09:18:25Z</time>
      </trkpt>
      <trkpt lat="39.03151" lon="-0.30144">
        <time>2019-03-23T09:18:26Z</time>
      </trkpt>
      <trkpt lat="39.03142" lon="-0.30135">
        <time>2019-03-23T09:18:27Z</time>
      </trkpt>
      <trkpt lat="39.03131" lon="-0.30126">
        <time>2019-03-23T09:18:28Z</time>
      </trkpt>
      <trkpt lat="39.03121" lon="-0.30119">
        <time>2019-03-23T09:18:29Z</time>
      </trkpt>
      <trkpt lat="39.03111" lon="-0.30112">
        <time>2019-03-23T09:18:30Z</time>
      </trkpt>
      <trkpt lat="39.03101" lon="-0.30105">
        <time>2019-03-23T09:18:31Z</time>
      </trkpt>
      <trkpt lat="39.03092" lon="-0.30098">
        <time>2019-03-23T09:18:32Z</time>
      </trkpt>
      <trkpt lat="39.03081" lon="-0.30091">
        <time>2019-03-23T09:18:33Z</time>
      </trkpt>
      <trkpt lat="39.03071" lon="-0.30084">
        <time>2019-03-23T09:18:34Z</time>
      </trkpt>
      <trkpt lat="39.03062" lon="-0.3008">
        <time>2019-03-23T09:18:35Z</time>
      </trkpt>
      <trkpt lat="39.03055" lon="-0.30079">
        <time>2019-03-23T09:18:36Z</time>
      </trkpt>
      <trkpt lat="39.0305" lon="-0.30081">
        <time>2019-03-23T09:18:37Z</time>
      </trkpt>
      <trkpt lat="39.03046" lon="-0.30086">
        <time>2019-03-23T09:18:38Z</time>
      </trkpt>
      <trkpt lat="39.03046" lon="-0.30093">
        <time>2019-03-23T09:18:39Z</time>
      </trkpt>
      <trkpt lat="39.03049" lon="-0.301">
        <time>2019-03-23T09:18:40Z</time>
      </trkpt>
      <trkpt lat="39.03055" lon="-0.30105">
        <time>2019-03-23T09:18:41Z</time>
      </trkpt>
      <trkpt lat="39.03062" lon="-0.30108">
        <time>2019-03-23T09:18:42Z</time>
      </trkpt>
      <trkpt lat="39.0307" lon="-0.30112">
        <time>2019-03-23T09:18:43Z</time>
      </trkpt>
      <trkpt lat="39.03078" lon="-0.30117">
        <time>2019-03-23T09:18:44Z</time>
      </trkpt>
      <trkpt lat="39.03086" lon="-0.30123">
        <time>2019-03-23T09:18:45Z</time>
      </trkpt>
      <trkpt lat="39.03095" lon="-0.30131">
        <time>2019-03-23T09:18:46Z</time>
      </trkpt>
      <trkpt lat="39.03103" lon="-0.3014">
        <time>2019-03-23T09:18:47Z</time>
      </trkpt>
      <trkpt lat="39.03109" lon="-0.30149">
        <time>2019-03-23T09:18:48Z</time>
      </trkpt>
      <trkpt lat="39.03116" lon="-0.30159">
        <time>2019-03-23T09:18:49Z</time>
      </trkpt>
      <trkpt lat="39.0312" lon="-0.3017">
        <time>2019-03-23T09:18:50Z</time>
      </trkpt>
      <trkpt lat="39.03122" lon="-0.30184">
        <time>2019-03-23T09:18:51Z</time>
      </trkpt>
      <trkpt lat="39.03121" lon="-0.30199">
        <time>2019-03-23T09:18:52Z</time>
      </trkpt>
      <trkpt lat="39.0312" lon="-0.30212">
        <time>2019-03-23T09:18:53Z</time>
      </trkpt>
      <trkpt lat="39.03117" lon="-0.30228">
        <time>2019-03-23T09:18:54Z</time>
      </trkpt>
      <trkpt lat="39.03113" lon="-0.30241">
        <time>2019-03-23T09:18:55Z</time>
      </trkpt>
      <trkpt lat="39.0311" lon="-0.30254">
        <time>2019-03-23T09:18:56Z</time>
      </trkpt>
      <trkpt lat="39.03106" lon="-0.30267">
        <time>2019-03-23T09:18:57Z</time>
      </trkpt>
      <trkpt lat="39.03102" lon="-0.30281">
        <time>2019-03-23T09:18:58Z</time>
      </trkpt>
      <trkpt lat="39.03095" lon="-0.30297">
        <time>2019-03-23T09:18:59Z</time>
      </trkpt>
      <trkpt lat="39.03088" lon="-0.30316">
        <time>2019-03-23T09:19:00Z</time>
      </trkpt>
      <trkpt lat="39.0308" lon="-0.30331">
        <time>2019-03-23T09:19:01Z</time>
      </trkpt>
      <trkpt lat="39.03071" lon="-0.30343">
        <time>2019-03-23T09:19:02Z</time>
      </trkpt>
      <trkpt lat="39.03064" lon="-0.30354">
        <time>2019-03-23T09:19:03Z</time>
      </trkpt>
      <trkpt lat="39.03057" lon="-0.30365">
        <time>2019-03-23T09:19:04Z</time>
      </trkpt>
      <trkpt lat="39.0305" lon="-0.30377">
        <time>2019-03-23T09:19:05Z</time>
      </trkpt>
      <trkpt lat="39.03044" lon="-0.30389">
        <time>2019-03-23T09:19:06Z</time>
      </trkpt>
      <trkpt lat="39.03042" lon="-0.304">
        <time>2019-03-23T09:19:07Z</time>
      </trkpt>
      <trkpt lat="39.03041" lon="-0.30412">
        <time>2019-03-23T09:19:08Z</time>
      </trkpt>
      <trkpt lat="39.03045" lon="-0.30422">
        <time>2019-03-23T09:19:09Z</time>
      </trkpt>
      <trkpt lat="39.03051" lon="-0.30431">
        <time>2019-03-23T09:19:10Z</time>
      </trkpt>
      <trkpt lat="39.03059" lon="-0.30439">
        <time>2019-03-23T09:19:11Z</time>
      </trkpt>
      <trkpt lat="39.03066" lon="-0.30447">
        <time>2019-03-23T09:19:12Z</time>
      </trkpt>
      <trkpt lat="39.03073" lon="-0.30459">
        <time>2019-03-23T09:19:13Z</time>
      </trkpt>
      <trkpt lat="39.03079" lon="-0.3047">
        <time>2019-03-23T09:19:14Z</time>
      </trkpt>
      <trkpt lat="39.03086" lon="-0.30481">
        <time>2019-03-23T09:19:15Z</time>
      </trkpt>
      <trkpt lat="39.03093" lon="-0.30493">
        <time>2019-03-23T09:19:16Z</time>
      </trkpt>
      <trkpt lat="39.03097" lon="-0.30503">
        <time>2019-03-23T09:19:17Z</time>
      </trkpt>
      <trkpt lat="39.03099" lon="-0.30515">
        <time>2019-03-23T09:19:18Z</time>
      </trkpt>
      <trkpt lat="39.03097" lon="-0.30525">
        <time>2019-03-23T09:19:19Z</time>
      </trkpt>
      <trkpt lat="39.03092" lon="-0.30533">
        <time>2019-03-23T09:19:20Z</time>
      </trkpt>
      <trkpt lat="39.03086" lon="-0.3054">
        <time>2019-03-23T09:19:21Z</time>
      </trkpt>
      <trkpt lat="39.03079" lon="-0.30546">
        <time>2019-03-23T09:19:22Z</time>
      </trkpt>
      <trkpt lat="39.03072" lon="-0.3055">
        <time>2019-03-23T09:19:23Z</time>
      </trkpt>
      <trkpt lat="39.03064" lon="-0.30555">
        <time>2019-03-23T09:19:24Z</time>
      </trkpt>
      <trkpt lat="39.03055" lon="-0.30559">
        <time>2019-03-23T09:19:25Z</time>
      </trkpt>
      <trkpt lat="39.03045" lon="-0.30566">
        <time>2019-03-23T09:19:26Z</time>
      </trkpt>
      <trkpt lat="39.03037" lon="-0.30572">
        <time>2019-03-23T09:19:27Z</time>
      </trkpt>
      <trkpt lat="39.03029" lon="-0.30578">
        <time>2019-03-23T09:19:28Z</time>
      </trkpt>
      <trkpt lat="39.03021" lon="-0.30583">
        <time>2019-03-23T09:19:29Z</time>
      </trkpt>
      <trkpt lat="39.03013" lon="-0.30587">
        <time>2019-03-23T09:19:30Z</time>
      </trkpt>
      <trkpt lat="39.03005" lon="-0.30588">
        <time>2019-03-23T09:19:31Z</time>
      </trkpt>
      <trkpt lat="39.02996" lon="-0.30588">
        <time>2019-03-23T09:19:32Z</time>
      </trkpt>
      <trkpt lat="39.02989" lon="-0.3059">
        <time>2019-03-23T09:19:33Z</time>
      </trkpt>
      <trkpt lat="39.02981" lon="-0.30595">
        <time>2019-03-23T09:19:34Z</time>
      </trkpt>
      <trkpt lat="39.02971" lon="-0.30602">
        <time>2019-03-23T09:19:35Z</time>
      </trkpt>
      <trkpt lat="39.02959" lon="-0.3061">
        <time>2019-03-23T09:19:36Z</time>
      </trkpt>
      <trkpt lat="39.02945" lon="-0.30621">
        <time>2019-03-23T09:19:37Z</time>
      </trkpt>
      <trkpt lat="39.02932" lon="-0.3063">
        <time>2019-03-23T09:19:38Z</time>
      </trkpt>
      <trkpt lat="39.02917" lon="-0.30639">
        <time>2019-03-23T09:19:39Z</time>
      </trkpt>
      <trkpt lat="39.029" lon="-0.3065">
        <time>2019-03-23T09:19:40Z</time>
      </trkpt>
      <trkpt lat="39.02878" lon="-0.30659">
        <time>2019-03-23T09:19:41Z</time>
      </trkpt>
      <trkpt lat="39.02862" lon="-0.30674">
        <time>2019-03-23T09:19:42Z</time>
      </trkpt>
      <trkpt lat="39.02848" lon="-0.30686">
        <time>2019-03-23T09:19:43Z</time>
      </trkpt>
      <trkpt lat="39.02836" lon="-0.30697">
        <time>2019-03-23T09:19:44Z</time>
      </trkpt>
      <trkpt lat="39.02824" lon="-0.30709">
        <time>2019-03-23T09:19:45Z</time>
      </trkpt>
      <trkpt lat="39.02816" lon="-0.30722">
        <time>2019-03-23T09:19:46Z</time>
      </trkpt>
      <trkpt lat="39.0281" lon="-0.30737">
        <time>2019-03-23T09:19:47Z</time>
      </trkpt>
      <trkpt lat="39.02805" lon="-0.30753">
        <time>2019-03-23T09:19:48Z</time>
      </trkpt>
      <trkpt lat="39.02806" lon="-0.30758">
        <time>2019-03-23T09:19:49Z</time>
      </trkpt>
      <trkpt lat="39.028" lon="-0.30763">
        <time>2019-03-23T09:19:50Z</time>
      </trkpt>
      <trkpt lat="39.02795" lon="-0.30762">
        <time>2019-03-23T09:19:51Z</time>
      </trkpt>
      <trkpt lat="39.02791" lon="-0.30757">
        <time>2019-03-23T09:19:52Z</time>
      </trkpt>
      <trkpt lat="39.02789" lon="-0.30747">
        <time>2019-03-23T09:19:53Z</time>
      </trkpt>
      <trkpt lat="39.02791" lon="-0.30736">
        <time>2019-03-23T09:19:54Z</time>
      </trkpt>
      <trkpt lat="39.02795" lon="-0.30723">
        <time>2019-03-23T09:19:55Z</time>
      </trkpt>
      <trkpt lat="39.02801" lon="-0.30711">
        <time>2019-03-23T09:19:56Z</time>
      </trkpt>
      <trkpt lat="39.02806" lon="-0.307">
        <time>2019-03-23T09:19:57Z</time>
      </trkpt>
      <trkpt lat="39.02814" lon="-0.30689">
        <time>2019-03-23T09:19:58Z</time>
      </trkpt>
      <trkpt lat="39.02823" lon="-0.30678">
        <time>2019-03-23T09:19:59Z</time>
      </trkpt>
      <trkpt lat="39.02832" lon="-0.30669">
        <time>2019-03-23T09:20:00Z</time>
      </trkpt>
      <trkpt lat="39.02843" lon="-0.30654">
        <time>2019-03-23T09:20:01Z</time>
      </trkpt>
      <trkpt lat="39.02855" lon="-0.30639">
        <time>2019-03-23T09:20:02Z</time>
      </trkpt>
      <trkpt lat="39.02869" lon="-0.30625">
        <time>2019-03-23T09:20:03Z</time>
      </trkpt>
      <trkpt lat="39.02885" lon="-0.30608">
        <time>2019-03-23T09:20:04Z</time>
      </trkpt>
      <trkpt lat="39.02898" lon="-0.30594">
        <time>2019-03-23T09:20:05Z</time>
      </trkpt>
      <trkpt lat="39.02913" lon="-0.3058">
        <time>2019-03-23T09:20:06Z</time>
      </trkpt>
      <trkpt lat="39.02924" lon="-0.30567">
        <time>2019-03-23T09:20:07Z</time>
      </trkpt>
      <trkpt lat="39.02934" lon="-0.30556">
        <time>2019-03-23T09:20:08Z</time>
      </trkpt>
      <trkpt lat="39.02942" lon="-0.3054">
        <time>2019-03-23T09:20:09Z</time>
      </trkpt>
      <trkpt lat="39.02949" lon="-0.30521">
        <time>2019-03-23T09:20:10Z</time>
      </trkpt>
      <trkpt lat="39.02956" lon="-0.30506">
        <time>2019-03-23T09:20:11Z</time>
      </trkpt>
      <trkpt lat="39.02962" lon="-0.30491">
        <time>2019-03-23T09:20:12Z</time>
      </trkpt>
      <trkpt lat="39.02965" lon="-0.30479">
        <time>2019-03-23T09:20:13Z</time>
      </trkpt>
      <trkpt lat="39.02964" lon="-0.30466">
        <time>2019-03-23T09:20:14Z</time>
      </trkpt>
      <trkpt lat="39.02959" lon="-0.30457">
        <time>2019-03-23T09:20:15Z</time>
      </trkpt>
      <trkpt lat="39.02952" lon="-0.30452">
        <time>2019-03-23T09:20:16Z</time>
      </trkpt>
      <trkpt lat="39.02946" lon="-0.30442">
        <time>2019-03-23T09:20:17Z</time>
      </trkpt>
      <trkpt lat="39.02942" lon="-0.30422">
        <time>2019-03-23T09:20:18Z</time>
      </trkpt>
      <trkpt lat="39.02944" lon="-0.30407">
        <time>2019-03-23T09:20:19Z</time>
      </trkpt>
      <trkpt lat="39.02951" lon="-0.30391">
        <time>2019-03-23T09:20:20Z</time>
      </trkpt>
      <trkpt lat="39.02958" lon="-0.30376">
        <time>2019-03-23T09:20:21Z</time>
      </trkpt>
      <trkpt lat="39.02966" lon="-0.3036">
        <time>2019-03-23T09:20:22Z</time>
      </trkpt>
      <trkpt lat="39.0297" lon="-0.30346">
        <time>2019-03-23T09:20:23Z</time>
      </trkpt>
      <trkpt lat="39.02971" lon="-0.30332">
        <time>2019-03-23T09:20:24Z</time>
      </trkpt>
      <trkpt lat="39.0297" lon="-0.30315">
        <time>2019-03-23T09:20:25Z</time>
      </trkpt>
      <trkpt lat="39.02965" lon="-0.30294">
        <time>2019-03-23T09:20:26Z</time>
      </trkpt>
      <trkpt lat="39.0296" lon="-0.30278">
        <time>2019-03-23T09:20:27Z</time>
      </trkpt>
      <trkpt lat="39.02953" lon="-0.30263">
        <time>2019-03-23T09:20:28Z</time>
      </trkpt>
      <trkpt lat="39.02947" lon="-0.30251">
        <time>2019-03-23T09:20:29Z</time>
      </trkpt>
      <trkpt lat="39.02941" lon="-0.30241">
        <time>2019-03-23T09:20:30Z</time>
      </trkpt>
      <trkpt lat="39.02935" lon="-0.30236">
        <time>2019-03-23T09:20:31Z</time>
      </trkpt>
      <trkpt lat="39.02929" lon="-0.30237">
        <time>2019-03-23T09:20:32Z</time>
      </trkpt>
      <trkpt lat="39.02925" lon="-0.30242">
        <time>2019-03-23T09:20:33Z</time>
      </trkpt>
      <trkpt lat="39.02929" lon="-0.3025">
        <time>2019-03-23T09:20:34Z</time>
      </trkpt>
      <trkpt lat="39.02933" lon="-0.30258">
        <time>2019-03-23T09:20:35Z</time>
      </trkpt>
      <trkpt lat="39.02937" lon="-0.30269">
        <time>2019-03-23T09:20:36Z</time>
      </trkpt>
      <trkpt lat="39.0294" lon="-0.30281">
        <time>2019-03-23T09:20:37Z</time>
      </trkpt>
      <trkpt lat="39.02942" lon="-0.30296">
        <time>2019-03-23T09:20:38Z</time>
      </trkpt>
      <trkpt lat="39.02942" lon="-0.30311">
        <time>2019-03-23T09:20:39Z</time>
      </trkpt>
      <trkpt lat="39.02938" lon="-0.30326">
        <time>2019-03-23T09:20:40Z</time>
      </trkpt>
      <trkpt lat="39.02931" lon="-0.30344">
        <time>2019-03-23T09:20:41Z</time>
      </trkpt>
      <trkpt lat="39.02922" lon="-0.30365">
        <time>2019-03-23T09:20:42Z</time>
      </trkpt>
      <trkpt lat="39.02913" lon="-0.30382">
        <time>2019-03-23T09:20:43Z</time>
      </trkpt>
      <trkpt lat="39.02909" lon="-0.30399">
        <time>2019-03-23T09:20:44Z</time>
      </trkpt>
      <trkpt lat="39.02901" lon="-0.30412">
        <time>2019-03-23T09:20:45Z</time>
      </trkpt>
      <trkpt lat="39.02896" lon="-0.30427">
        <time>2019-03-23T09:20:46Z</time>
      </trkpt>
      <trkpt lat="39.02896" lon="-0.30443">
        <time>2019-03-23T09:20:47Z</time>
      </trkpt>
      <trkpt lat="39.02897" lon="-0.30457">
        <time>2019-03-23T09:20:48Z</time>
      </trkpt>
      <trkpt lat="39.02898" lon="-0.30473">
        <time>2019-03-23T09:20:49Z</time>
      </trkpt>
      <trkpt lat="39.02897" lon="-0.30482">
        <time>2019-03-23T09:20:50Z</time>
      </trkpt>
      <trkpt lat="39.02895" lon="-0.30491">
        <time>2019-03-23T09:20:51Z</time>
      </trkpt>
      <trkpt lat="39.0289" lon="-0.30496">
        <time>2019-03-23T09:20:52Z</time>
      </trkpt>
      <trkpt lat="39.02886" lon="-0.30496">
        <time>2019-03-23T09:20:53Z</time>
      </trkpt>
      <trkpt lat="39.02881" lon="-0.30491">
        <time>2019-03-23T09:20:54Z</time>
      </trkpt>
      <trkpt lat="39.02879" lon="-0.30483">
        <time>2019-03-23T09:20:55Z</time>
      </trkpt>
      <trkpt lat="39.02877" lon="-0.30474">
        <time>2019-03-23T09:20:56Z</time>
      </trkpt>
      <trkpt lat="39.02876" lon="-0.30462">
        <time>2019-03-23T09:20:57Z</time>
      </trkpt>
      <trkpt lat="39.02873" lon="-0.30448">
        <time>2019-03-23T09:20:58Z</time>
      </trkpt>
      <trkpt lat="39.02871" lon="-0.30435">
        <time>2019-03-23T09:20:59Z</time>
      </trkpt>
      <trkpt lat="39.0287" lon="-0.30422">
        <time>2019-03-23T09:21:00Z</time>
      </trkpt>
      <trkpt lat="39.02871" lon="-0.3041">
        <time>2019-03-23T09:21:01Z</time>
      </trkpt>
      <trkpt lat="39.02875" lon="-0.30397">
        <time>2019-03-23T09:21:02Z</time>
      </trkpt>
      <trkpt lat="39.02881" lon="-0.30384">
        <time>2019-03-23T09:21:03Z</time>
      </trkpt>
      <trkpt lat="39.02885" lon="-0.30373">
        <time>2019-03-23T09:21:04Z</time>
      </trkpt>
      <trkpt lat="39.02886" lon="-0.30359">
        <time>2019-03-23T09:21:05Z</time>
      </trkpt>
      <trkpt lat="39.02887" lon="-0.30346">
        <time>2019-03-23T09:21:06Z</time>
      </trkpt>
      <trkpt lat="39.02884" lon="-0.30331">
        <time>2019-03-23T09:21:07Z</time>
      </trkpt>
      <trkpt lat="39.02881" lon="-0.30317">
        <time>2019-03-23T09:21:08Z</time>
      </trkpt>
      <trkpt lat="39.0288" lon="-0.30304">
        <time>2019-03-23T09:21:09Z</time>
      </trkpt>
      <trkpt lat="39.02881" lon="-0.30293">
        <time>2019-03-23T09:21:10Z</time>
      </trkpt>
      <trkpt lat="39.02882" lon="-0.30285">
        <time>2019-03-23T09:21:11Z</time>
      </trkpt>
      <trkpt lat="39.02883" lon="-0.30278">
        <time>2019-03-23T09:21:12Z</time>
      </trkpt>
      <trkpt lat="39.02882" lon="-0.30271">
        <time>2019-03-23T09:21:13Z</time>
      </trkpt>
      <trkpt lat="39.02872" lon="-0.3026">
        <time>2019-03-23T09:21:14Z</time>
      </trkpt>
      <trkpt lat="39.02867" lon="-0.30258">
        <time>2019-03-23T09:21:15Z</time>
      </trkpt>
      <trkpt lat="39.02862" lon="-0.30259">
        <time>2019-03-23T09:21:16Z</time>
      </trkpt>
      <trkpt lat="39.02859" lon="-0.30264">
        <time>2019-03-23T09:21:17Z</time>
      </trkpt>
      <trkpt lat="39.02858" lon="-0.30272">
        <time>2019-03-23T09:21:18Z</time>
      </trkpt>
      <trkpt lat="39.02859" lon="-0.30281">
        <time>2019-03-23T09:21:19Z</time>
      </trkpt>
      <trkpt lat="39.0286" lon="-0.30292">
        <time>2019-03-23T09:21:20Z</time>
      </trkpt>
      <trkpt lat="39.0286" lon="-0.30303">
        <time>2019-03-23T09:21:21Z</time>
      </trkpt>
      <trkpt lat="39.02859" lon="-0.30314">
        <time>2019-03-23T09:21:22Z</time>
      </trkpt>
      <trkpt lat="39.02858" lon="-0.30326">
        <time>2019-03-23T09:21:23Z</time>
      </trkpt>
      <trkpt lat="39.02857" lon="-0.3034">
        <time>2019-03-23T09:21:24Z</time>
      </trkpt>
      <trkpt lat="39.02855" lon="-0.30352">
        <time>2019-03-23T09:21:25Z</time>
      </trkpt>
      <trkpt lat="39.02852" lon="-0.30367">
        <time>2019-03-23T09:21:26Z</time>
      </trkpt>
      <trkpt lat="39.02847" lon="-0.30381">
        <time>2019-03-23T09:21:27Z</time>
      </trkpt>
      <trkpt lat="39.02844" lon="-0.30395">
        <time>2019-03-23T09:21:28Z</time>
      </trkpt>
      <trkpt lat="39.0284" lon="-0.30412">
        <time>2019-03-23T09:21:29Z</time>
      </trkpt>
      <trkpt lat="39.02837" lon="-0.30427">
        <time>2019-03-23T09:21:30Z</time>
      </trkpt>
      <trkpt lat="39.02834" lon="-0.30442">
        <time>2019-03-23T09:21:31Z</time>
      </trkpt>
      <trkpt lat="39.02833" lon="-0.3046">
        <time>2019-03-23T09:21:32Z</time>
      </trkpt>
      <trkpt lat="39.02833" lon="-0.30475">
        <time>2019-03-23T09:21:33Z</time>
      </trkpt>
      <trkpt lat="39.02833" lon="-0.3049">
        <time>2019-03-23T09:21:34Z</time>
      </trkpt>
      <trkpt lat="39.02833" lon="-0.30505">
        <time>2019-03-23T09:21:35Z</time>
      </trkpt>
      <trkpt lat="39.02831" lon="-0.30511">
        <time>2019-03-23T09:21:36Z</time>
      </trkpt>
      <trkpt lat="39.02827" lon="-0.30519">
        <time>2019-03-23T09:21:37Z</time>
      </trkpt>
      <trkpt lat="39.02821" lon="-0.30522">
        <time>2019-03-23T09:21:38Z</time>
      </trkpt>
      <trkpt lat="39.02816" lon="-0.30521">
        <time>2019-03-23T09:21:39Z</time>
      </trkpt>
      <trkpt lat="39.02811" lon="-0.30516">
        <time>2019-03-23T09:21:40Z</time>
      </trkpt>
      <trkpt lat="39.02808" lon="-0.30508">
        <time>2019-03-23T09:21:41Z</time>
      </trkpt>
      <trkpt lat="39.02808" lon="-0.30497">
        <time>2019-03-23T09:21:42Z</time>
      </trkpt>
      <trkpt lat="39.02808" lon="-0.30485">
        <time>2019-03-23T09:21:43Z</time>
      </trkpt>
      <trkpt lat="39.02808" lon="-0.30473">
        <time>2019-03-23T09:21:44Z</time>
      </trkpt>
      <trkpt lat="39.02808" lon="-0.3046">
        <time>2019-03-23T09:21:45Z</time>
      </trkpt>
      <trkpt lat="39.02808" lon="-0.30447">
        <time>2019-03-23T09:21:46Z</time>
      </trkpt>
      <trkpt lat="39.02807" lon="-0.30433">
        <time>2019-03-23T09:21:47Z</time>
      </trkpt>
      <trkpt lat="39.02808" lon="-0.30417">
        <time>2019-03-23T09:21:48Z</time>
      </trkpt>
      <trkpt lat="39.0281" lon="-0.30399">
        <time>2019-03-23T09:21:49Z</time>
      </trkpt>
      <trkpt lat="39.02812" lon="-0.30378">
        <time>2019-03-23T09:21:50Z</time>
      </trkpt>
      <trkpt lat="39.02813" lon="-0.30362">
        <time>2019-03-23T09:21:51Z</time>
      </trkpt>
      <trkpt lat="39.02814" lon="-0.30347">
        <time>2019-03-23T09:21:52Z</time>
      </trkpt>
      <trkpt lat="39.02814" lon="-0.3033">
        <time>2019-03-23T09:21:53Z</time>
      </trkpt>
      <trkpt lat="39.02811" lon="-0.30316">
        <time>2019-03-23T09:21:54Z</time>
      </trkpt>
      <trkpt lat="39.02807" lon="-0.30302">
        <time>2019-03-23T09:21:55Z</time>
      </trkpt>
      <trkpt lat="39.02803" lon="-0.30288">
        <time>2019-03-23T09:21:56Z</time>
      </trkpt>
      <trkpt lat="39.02799" lon="-0.30278">
        <time>2019-03-23T09:21:57Z</time>
      </trkpt>
      <trkpt lat="39.02795" lon="-0.30269">
        <time>2019-03-23T09:21:58Z</time>
      </trkpt>
      <trkpt lat="39.0279" lon="-0.30263">
        <time>2019-03-23T09:21:59Z</time>
      </trkpt>
      <trkpt lat="39.02785" lon="-0.3026">
        <time>2019-03-23T09:22:00Z</time>
      </trkpt>
      <trkpt lat="39.0278" lon="-0.3026">
        <time>2019-03-23T09:22:01Z</time>
      </trkpt>
      <trkpt lat="39.02777" lon="-0.30264">
        <time>2019-03-23T09:22:02Z</time>
      </trkpt>
      <trkpt lat="39.02776" lon="-0.3027">
        <time>2019-03-23T09:22:03Z</time>
      </trkpt>
      <trkpt lat="39.02778" lon="-0.30278">
        <time>2019-03-23T09:22:04Z</time>
      </trkpt>
      <trkpt lat="39.02783" lon="-0.30284">
        <time>2019-03-23T09:22:05Z</time>
      </trkpt>
      <trkpt lat="39.02787" lon="-0.30293">
        <time>2019-03-23T09:22:06Z</time>
      </trkpt>
      <trkpt lat="39.02791" lon="-0.30304">
        <time>2019-03-23T09:22:07Z</time>
      </trkpt>
      <trkpt lat="39.02794" lon="-0.30315">
        <time>2019-03-23T09:22:08Z</time>
      </trkpt>
      <trkpt lat="39.02794" lon="-0.30328">
        <time>2019-03-23T09:22:09Z</time>
      </trkpt>
      <trkpt lat="39.02792" lon="-0.30338">
        <time>2019-03-23T09:22:10Z</time>
      </trkpt>
      <trkpt lat="39.02788" lon="-0.30351">
        <time>2019-03-23T09:22:11Z</time>
      </trkpt>
      <trkpt lat="39.02784" lon="-0.30364">
        <time>2019-03-23T09:22:12Z</time>
      </trkpt>
      <trkpt lat="39.02779" lon="-0.30378">
        <time>2019-03-23T09:22:13Z</time>
      </trkpt>
      <trkpt lat="39.02773" lon="-0.30394">
        <time>2019-03-23T09:22:14Z</time>
      </trkpt>
      <trkpt lat="39.0277" lon="-0.30412">
        <time>2019-03-23T09:22:15Z</time>
      </trkpt>
      <trkpt lat="39.02768" lon="-0.30429">
        <time>2019-03-23T09:22:16Z</time>
      </trkpt>
      <trkpt lat="39.02763" lon="-0.30446">
        <time>2019-03-23T09:22:17Z</time>
      </trkpt>
      <trkpt lat="39.0276" lon="-0.30463">
        <time>2019-03-23T09:22:18Z</time>
      </trkpt>
      <trkpt lat="39.02757" lon="-0.30479">
        <time>2019-03-23T09:22:19Z</time>
      </trkpt>
      <trkpt lat="39.02754" lon="-0.30497">
        <time>2019-03-23T09:22:20Z</time>
      </trkpt>
      <trkpt lat="39.02751" lon="-0.30512">
        <time>2019-03-23T09:22:21Z</time>
      </trkpt>
      <trkpt lat="39.02747" lon="-0.30526">
        <time>2019-03-23T09:22:22Z</time>
      </trkpt>
      <trkpt lat="39.0274" lon="-0.30538">
        <time>2019-03-23T09:22:23Z</time>
      </trkpt>
      <trkpt lat="39.02732" lon="-0.30548">
        <time>2019-03-23T09:22:24Z</time>
      </trkpt>
      <trkpt lat="39.02721" lon="-0.30558">
        <time>2019-03-23T09:22:25Z</time>
      </trkpt>
      <trkpt lat="39.02712" lon="-0.30566">
        <time>2019-03-23T09:22:26Z</time>
      </trkpt>
      <trkpt lat="39.02703" lon="-0.30574">
        <time>2019-03-23T09:22:27Z</time>
      </trkpt>
      <trkpt lat="39.02693" lon="-0.30582">
        <time>2019-03-23T09:22:28Z</time>
      </trkpt>
      <trkpt lat="39.02685" lon="-0.30592">
        <time>2019-03-23T09:22:29Z</time>
      </trkpt>
      <trkpt lat="39.02679" lon="-0.30605">
        <time>2019-03-23T09:22:30Z</time>
      </trkpt>
      <trkpt lat="39.02673" lon="-0.30619">
        <time>2019-03-23T09:22:31Z</time>
      </trkpt>
      <trkpt lat="39.02669" lon="-0.30632">
        <time>2019-03-23T09:22:32Z</time>
      </trkpt>
      <trkpt lat="39.02664" lon="-0.30646">
        <time>2019-03-23T09:22:33Z</time>
      </trkpt>
      <trkpt lat="39.02657" lon="-0.30657">
        <time>2019-03-23T09:22:34Z</time>
      </trkpt>
      <trkpt lat="39.02649" lon="-0.30667">
        <time>2019-03-23T09:22:35Z</time>
      </trkpt>
      <trkpt lat="39.0264" lon="-0.30675">
        <time>2019-03-23T09:22:36Z</time>
      </trkpt>
      <trkpt lat="39.0263" lon="-0.30681">
        <time>2019-03-23T09:22:37Z</time>
      </trkpt>
      <trkpt lat="39.02618" lon="-0.30688">
        <time>2019-03-23T09:22:38Z</time>
      </trkpt>
      <trkpt lat="39.02606" lon="-0.30694">
        <time>2019-03-23T09:22:39Z</time>
      </trkpt>
      <trkpt lat="39.02595" lon="-0.30699">
        <time>2019-03-23T09:22:40Z</time>
      </trkpt>
      <trkpt lat="39.02584" lon="-0.30705">
        <time>2019-03-23T09:22:41Z</time>
      </trkpt>
      <trkpt lat="39.02575" lon="-0.30712">
        <time>2019-03-23T09:22:42Z</time>
      </trkpt>
      <trkpt lat="39.02566" lon="-0.30722">
        <time>2019-03-23T09:22:43Z</time>
      </trkpt>
      <trkpt lat="39.02558" lon="-0.30733">
        <time>2019-03-23T09:22:44Z</time>
      </trkpt>
      <trkpt lat="39.02553" lon="-0.30744">
        <time>2019-03-23T09:22:45Z</time>
      </trkpt>
      <trkpt lat="39.02551" lon="-0.30759">
        <time>2019-03-23T09:22:46Z</time>
      </trkpt>
      <trkpt lat="39.02551" lon="-0.30773">
        <time>2019-03-23T09:22:47Z</time>
      </trkpt>
      <trkpt lat="39.02553" lon="-0.30786">
        <time>2019-03-23T09:22:48Z</time>
      </trkpt>
      <trkpt lat="39.02553" lon="-0.30801">
        <time>2019-03-23T09:22:49Z</time>
      </trkpt>
      <trkpt lat="39.02552" lon="-0.30815">
        <time>2019-03-23T09:22:50Z</time>
      </trkpt>
      <trkpt lat="39.02548" lon="-0.30826">
        <time>2019-03-23T09:22:51Z</time>
      </trkpt>
      <trkpt lat="39.02542" lon="-0.30839">
        <time>2019-03-23T09:22:52Z</time>
      </trkpt>
      <trkpt lat="39.02537" lon="-0.30848">
        <time>2019-03-23T09:22:53Z</time>
      </trkpt>
      <trkpt lat="39.02531" lon="-0.30859">
        <time>2019-03-23T09:22:54Z</time>
      </trkpt>
      <trkpt lat="39.02527" lon="-0.3087">
        <time>2019-03-23T09:22:55Z</time>
      </trkpt>
      <trkpt lat="39.02526" lon="-0.3088">
        <time>2019-03-23T09:22:56Z</time>
      </trkpt>
      <trkpt lat="39.02529" lon="-0.30891">
        <time>2019-03-23T09:22:57Z</time>
      </trkpt>
      <trkpt lat="39.02532" lon="-0.30899">
        <time>2019-03-23T09:22:58Z</time>
      </trkpt>
      <trkpt lat="39.02537" lon="-0.30908">
        <time>2019-03-23T09:22:59Z</time>
      </trkpt>
      <trkpt lat="39.02544" lon="-0.30917">
        <time>2019-03-23T09:23:00Z</time>
      </trkpt>
      <trkpt lat="39.02549" lon="-0.30925">
        <time>2019-03-23T09:23:01Z</time>
      </trkpt>
      <trkpt lat="39.02556" lon="-0.30935">
        <time>2019-03-23T09:23:02Z</time>
      </trkpt>
      <trkpt lat="39.02558" lon="-0.30946">
        <time>2019-03-23T09:23:03Z</time>
      </trkpt>
      <trkpt lat="39.02558" lon="-0.30954">
        <time>2019-03-23T09:23:04Z</time>
      </trkpt>
      <trkpt lat="39.02554" lon="-0.30963">
        <time>2019-03-23T09:23:05Z</time>
      </trkpt>
      <trkpt lat="39.02548" lon="-0.30969">
        <time>2019-03-23T09:23:06Z</time>
      </trkpt>
      <trkpt lat="39.0254" lon="-0.30972">
        <time>2019-03-23T09:23:07Z</time>
      </trkpt>
      <trkpt lat="39.0253" lon="-0.30975">
        <time>2019-03-23T09:23:08Z</time>
      </trkpt>
      <trkpt lat="39.02521" lon="-0.30977">
        <time>2019-03-23T09:23:09Z</time>
      </trkpt>
      <trkpt lat="39.02511" lon="-0.30976">
        <time>2019-03-23T09:23:10Z</time>
      </trkpt>
      <trkpt lat="39.02501" lon="-0.30975">
        <time>2019-03-23T09:23:11Z</time>
      </trkpt>
      <trkpt lat="39.02492" lon="-0.30973">
        <time>2019-03-23T09:23:12Z</time>
      </trkpt>
      <trkpt lat="39.02483" lon="-0.3097">
        <time>2019-03-23T09:23:13Z</time>
      </trkpt>
      <trkpt lat="39.02475" lon="-0.30966">
        <time>2019-03-23T09:23:14Z</time>
      </trkpt>
      <trkpt lat="39.02467" lon="-0.30962">
        <time>2019-03-23T09:23:15Z</time>
      </trkpt>
      <trkpt lat="39.0246" lon="-0.30958">
        <time>2019-03-23T09:23:16Z</time>
      </trkpt>
      <trkpt lat="39.02453" lon="-0.30954">
        <time>2019-03-23T09:23:17Z</time>
      </trkpt>
      <trkpt lat="39.02445" lon="-0.3095">
        <time>2019-03-23T09:23:18Z</time>
      </trkpt>
      <trkpt lat="39.02436" lon="-0.30944">
        <time>2019-03-23T09:23:19Z</time>
      </trkpt>
      <trkpt lat="39.02427" lon="-0.30939">
        <time>2019-03-23T09:23:20Z</time>
      </trkpt>
      <trkpt lat="39.02416" lon="-0.30931">
        <time>2019-03-23T09:23:21Z</time>
      </trkpt>
      <trkpt lat="39.02404" lon="-0.30921">
        <time>2019-03-23T09:23:22Z</time>
      </trkpt>
      <trkpt lat="39.02391" lon="-0.30909">
        <time>2019-03-23T09:23:23Z</time>
      </trkpt>
      <trkpt lat="39.02381" lon="-0.30898">
        <time>2019-03-23T09:23:24Z</time>
      </trkpt>
      <trkpt lat="39.02372" lon="-0.30886">
        <time>2019-03-23T09:23:25Z</time>
      </trkpt>
      <trkpt lat="39.02365" lon="-0.30871">
        <time>2019-03-23T09:23:26Z</time>
      </trkpt>
      <trkpt lat="39.02365" lon="-0.30853">
        <time>2019-03-23T09:23:27Z</time>
      </trkpt>
      <trkpt lat="39.02368" lon="-0.30836">
        <time>2019-03-23T09:23:28Z</time>
      </trkpt>
      <trkpt lat="39.02369" lon="-0.30818">
        <time>2019-03-23T09:23:29Z</time>
      </trkpt>
      <trkpt lat="39.02366" lon="-0.30802">
        <time>2019-03-23T09:23:30Z</time>
      </trkpt>
      <trkpt lat="39.0236" lon="-0.30787">
        <time>2019-03-23T09:23:31Z</time>
      </trkpt>
      <trkpt lat="39.02352" lon="-0.30774">
        <time>2019-03-23T09:23:32Z</time>
      </trkpt>
      <trkpt lat="39.02344" lon="-0.30763">
        <time>2019-03-23T09:23:33Z</time>
      </trkpt>
      <trkpt lat="39.02333" lon="-0.30752">
        <time>2019-03-23T09:23:34Z</time>
      </trkpt>
      <trkpt lat="39.02322" lon="-0.30743">
        <time>2019-03-23T09:23:35Z</time>
      </trkpt>
      <trkpt lat="39.0231" lon="-0.30734">
        <time>2019-03-23T09:23:36Z</time>
      </trkpt>
      <trkpt lat="39.02296" lon="-0.30716">
        <time>2019-03-23T09:23:37Z</time>
      </trkpt>
      <trkpt lat="39.02282" lon="-0.30703">
        <time>2019-03-23T09:23:38Z</time>
      </trkpt>
      <trkpt lat="39.02269" lon="-0.3069">
        <time>2019-03-23T09:23:39Z</time>
      </trkpt>
      <trkpt lat="39.02252" lon="-0.30675">
        <time>2019-03-23T09:23:40Z</time>
      </trkpt>
      <trkpt lat="39.02237" lon="-0.30662">
        <time>2019-03-23T09:23:41Z</time>
      </trkpt>
      <trkpt lat="39.02219" lon="-0.30647">
        <time>2019-03-23T09:23:42Z</time>
      </trkpt>
      <trkpt lat="39.022" lon="-0.30635">
        <time>2019-03-23T09:23:43Z</time>
      </trkpt>
      <trkpt lat="39.02183" lon="-0.30624">
        <time>2019-03-23T09:23:44Z</time>
      </trkpt>
      <trkpt lat="39.02162" lon="-0.30612">
        <time>2019-03-23T09:23:45Z</time>
      </trkpt>
      <trkpt lat="39.02144" lon="-0.30602">
        <time>2019-03-23T09:23:46Z</time>
      </trkpt>
      <trkpt lat="39.02125" lon="-0.30598">
        <time>2019-03-23T09:23:47Z</time>
      </trkpt>
      <trkpt lat="39.02104" lon="-0.30587">
        <time>2019-03-23T09:23:48Z</time>
      </trkpt>
      <trkpt lat="39.02085" lon="-0.30577">
        <time>2019-03-23T09:23:49Z</time>
      </trkpt>
      <trkpt lat="39.02064" lon="-0.30567">
        <time>2019-03-23T09:23:50Z</time>
      </trkpt>
      <trkpt lat="39.02045" lon="-0.30557">
        <time>2019-03-23T09:23:51Z</time>
      </trkpt>
      <trkpt lat="39.02028" lon="-0.30549">
        <time>2019-03-23T09:23:52Z</time>
      </trkpt>
      <trkpt lat="39.0201" lon="-0.30539">
        <time>2019-03-23T09:23:53Z</time>
      </trkpt>
      <trkpt lat="39.01994" lon="-0.30529">
        <time>2019-03-23T09:23:54Z</time>
      </trkpt>
      <trkpt lat="39.0198" lon="-0.30516">
        <time>2019-03-23T09:23:55Z</time>
      </trkpt>
      <trkpt lat="39.01964" lon="-0.30499">
        <time>2019-03-23T09:23:56Z</time>
      </trkpt>
      <trkpt lat="39.01952" lon="-0.30483">
        <time>2019-03-23T09:23:57Z</time>
      </trkpt>
      <trkpt lat="39.01938" lon="-0.30464">
        <time>2019-03-23T09:23:58Z</time>
      </trkpt>
      <trkpt lat="39.01926" lon="-0.30449">
        <time>2019-03-23T09:23:59Z</time>
      </trkpt>
      <trkpt lat="39.01915" lon="-0.30439">
        <time>2019-03-23T09:24:00Z</time>
      </trkpt>
      <trkpt lat="39.01901" lon="-0.30431">
        <time>2019-03-23T09:24:01Z</time>
      </trkpt>
      <trkpt lat="39.01887" lon="-0.30428">
        <time>2019-03-23T09:24:02Z</time>
      </trkpt>
      <trkpt lat="39.01873" lon="-0.30426">
        <time>2019-03-23T09:24:03Z</time>
      </trkpt>
      <trkpt lat="39.01857" lon="-0.30422">
        <time>2019-03-23T09:24:04Z</time>
      </trkpt>
      <trkpt lat="39.01842" lon="-0.30415">
        <time>2019-03-23T09:24:05Z</time>
      </trkpt>
      <trkpt lat="39.01825" lon="-0.30406">
        <time>2019-03-23T09:24:06Z</time>
      </trkpt>
      <trkpt lat="39.01809" lon="-0.30396">
        <time>2019-03-23T09:24:07Z</time>
      </trkpt>
      <trkpt lat="39.01794" lon="-0.30388">
        <time>2019-03-23T09:24:08Z</time>
      </trkpt>
      <trkpt lat="39.01778" lon="-0.30378">
        <time>2019-03-23T09:24:09Z</time>
      </trkpt>
      <trkpt lat="39.01764" lon="-0.3037">
        <time>2019-03-23T09:24:10Z</time>
      </trkpt>
      <trkpt lat="39.01752" lon="-0.30359">
        <time>2019-03-23T09:24:11Z</time>
      </trkpt>
      <trkpt lat="39.0174" lon="-0.30344">
        <time>2019-03-23T09:24:12Z</time>
      </trkpt>
      <trkpt lat="39.01726" lon="-0.30332">
        <time>2019-03-23T09:24:13Z</time>
      </trkpt>
      <trkpt lat="39.01716" lon="-0.30318">
        <time>2019-03-23T09:24:14Z</time>
      </trkpt>
      <trkpt lat="39.01705" lon="-0.30304">
        <time>2019-03-23T09:24:15Z</time>
      </trkpt>
      <trkpt lat="39.01695" lon="-0.3029">
        <time>2019-03-23T09:24:16Z</time>
      </trkpt>
      <trkpt lat="39.01688" lon="-0.30276">
        <time>2019-03-23T09:24:17Z</time>
      </trkpt>
      <trkpt lat="39.01682" lon="-0.30262">
        <time>2019-03-23T09:24:18Z</time>
      </trkpt>
      <trkpt lat="39.01676" lon="-0.30248">
        <time>2019-03-23T09:24:19Z</time>
      </trkpt>
      <trkpt lat="39.0167" lon="-0.30236">
        <time>2019-03-23T09:24:20Z</time>
      </trkpt>
      <trkpt lat="39.01663" lon="-0.30225">
        <time>2019-03-23T09:24:21Z</time>
      </trkpt>
      <trkpt lat="39.01655" lon="-0.30216">
        <time>2019-03-23T09:24:22Z</time>
      </trkpt>
      <trkpt lat="39.01648" lon="-0.30208">
        <time>2019-03-23T09:24:23Z</time>
      </trkpt>
      <trkpt lat="39.0164" lon="-0.302">
        <time>2019-03-23T09:24:24Z</time>
      </trkpt>
      <trkpt lat="39.01632" lon="-0.30192">
        <time>2019-03-23T09:24:25Z</time>
      </trkpt>
      <trkpt lat="39.01624" lon="-0.30186">
        <time>2019-03-23T09:24:26Z</time>
      </trkpt>
      <trkpt lat="39.01615" lon="-0.30181">
        <time>2019-03-23T09:24:27Z</time>
      </trkpt>
      <trkpt lat="39.01605" lon="-0.30177">
        <time>2019-03-23T09:24:28Z</time>
      </trkpt>
      <trkpt lat="39.01593" lon="-0.30175">
        <time>2019-03-23T09:24:29Z</time>
      </trkpt>
      <trkpt lat="39.01583" lon="-0.30176">
        <time>2019-03-23T09:24:30Z</time>
      </trkpt>
      <trkpt lat="39.01572" lon="-0.30178">
        <time>2019-03-23T09:24:31Z</time>
      </trkpt>
      <trkpt lat="39.01563" lon="-0.30182">
        <time>2019-03-23T09:24:32Z</time>
      </trkpt>
      <trkpt lat="39.01555" lon="-0.30188">
        <time>2019-03-23T09:24:33Z</time>
      </trkpt>
      <trkpt lat="39.0155" lon="-0.30194">
        <time>2019-03-23T09:24:34Z</time>
      </trkpt>
      <trkpt lat="39.01545" lon="-0.30198">
        <time>2019-03-23T09:24:35Z</time>
      </trkpt>
      <trkpt lat="39.01542" lon="-0.30202">
        <time>2019-03-23T09:24:36Z</time>
      </trkpt>
      <trkpt lat="39.01539" lon="-0.30203">
        <time>2019-03-23T09:24:37Z</time>
      </trkpt>
      <trkpt lat="39.01538" lon="-0.30205">
        <time>2019-03-23T09:24:38Z</time>
      </trkpt>
      <trkpt lat="39.01537" lon="-0.30206">
        <time>2019-03-23T09:24:39Z</time>
      </trkpt>
      <trkpt lat="39.01544" lon="-0.30203">
        <time>2019-03-23T09:24:40Z</time>
      </trkpt>
      <trkpt lat="39.01536" lon="-0.30205">
        <time>2019-03-23T09:24:55Z</time>
      </trkpt>
      <trkpt lat="39.01534" lon="-0.30207">
        <time>2019-03-23T09:24:56Z</time>
      </trkpt>
      <trkpt lat="39.01531" lon="-0.3021">
        <time>2019-03-23T09:24:57Z</time>
      </trkpt>
      <trkpt lat="39.01528" lon="-0.30213">
        <time>2019-03-23T09:24:58Z</time>
      </trkpt>
      <trkpt lat="39.01525" lon="-0.30216">
        <time>2019-03-23T09:24:59Z</time>
      </trkpt>
      <trkpt lat="39.01522" lon="-0.30219">
        <time>2019-03-23T09:25:00Z</time>
      </trkpt>
      <trkpt lat="39.0152" lon="-0.30222">
        <time>2019-03-23T09:25:01Z</time>
      </trkpt>
      <trkpt lat="39.01517" lon="-0.30225">
        <time>2019-03-23T09:25:02Z</time>
      </trkpt>
      <trkpt lat="39.01514" lon="-0.30228">
        <time>2019-03-23T09:25:03Z</time>
      </trkpt>
      <trkpt lat="39.01511" lon="-0.30231">
        <time>2019-03-23T09:25:04Z</time>
      </trkpt>
      <trkpt lat="39.01508" lon="-0.30234">
        <time>2019-03-23T09:25:05Z</time>
      </trkpt>
      <trkpt lat="39.01505" lon="-0.30236">
        <time>2019-03-23T09:25:06Z</time>
      </trkpt>
      <trkpt lat="39.01503" lon="-0.30239">
        <time>2019-03-23T09:25:07Z</time>
      </trkpt>
      <trkpt lat="39.015" lon="-0.30243">
        <time>2019-03-23T09:25:08Z</time>
      </trkpt>
      <trkpt lat="39.01499" lon="-0.30246">
        <time>2019-03-23T09:25:09Z</time>
      </trkpt>
      <trkpt lat="39.015" lon="-0.3025">
        <time>2019-03-23T09:25:10Z</time>
      </trkpt>
      <trkpt lat="39.01502" lon="-0.30254">
        <time>2019-03-23T09:25:11Z</time>
      </trkpt>
      <trkpt lat="39.01505" lon="-0.30257">
        <time>2019-03-23T09:25:12Z</time>
      </trkpt>
      <trkpt lat="39.01509" lon="-0.30262">
        <time>2019-03-23T09:25:13Z</time>
      </trkpt>
      <trkpt lat="39.01513" lon="-0.30268">
        <time>2019-03-23T09:25:14Z</time>
      </trkpt>
      <trkpt lat="39.01515" lon="-0.30274">
        <time>2019-03-23T09:25:15Z</time>
      </trkpt>
      <trkpt lat="39.01518" lon="-0.30283">
        <time>2019-03-23T09:25:16Z</time>
      </trkpt>
      <trkpt lat="39.01521" lon="-0.30292">
        <time>2019-03-23T09:25:17Z</time>
      </trkpt>
      <trkpt lat="39.01524" lon="-0.30301">
        <time>2019-03-23T09:25:18Z</time>
      </trkpt>
      <trkpt lat="39.01526" lon="-0.3031">
        <time>2019-03-23T09:25:19Z</time>
      </trkpt>
      <trkpt lat="39.01528" lon="-0.30318">
        <time>2019-03-23T09:25:20Z</time>
      </trkpt>
      <trkpt lat="39.01531" lon="-0.30328">
        <time>2019-03-23T09:25:21Z</time>
      </trkpt>
      <trkpt lat="39.01533" lon="-0.30338">
        <time>2019-03-23T09:25:22Z</time>
      </trkpt>
      <trkpt lat="39.01536" lon="-0.30349">
        <time>2019-03-23T09:25:23Z</time>
      </trkpt>
      <trkpt lat="39.01538" lon="-0.30359">
        <time>2019-03-23T09:25:24Z</time>
      </trkpt>
      <trkpt lat="39.01541" lon="-0.30369">
        <time>2019-03-23T09:25:25Z</time>
      </trkpt>
      <trkpt lat="39.01544" lon="-0.30378">
        <time>2019-03-23T09:25:26Z</time>
      </trkpt>
      <trkpt lat="39.01545" lon="-0.30384">
        <time>2019-03-23T09:25:27Z</time>
      </trkpt>
      <trkpt lat="39.01546" lon="-0.30388">
        <time>2019-03-23T09:25:28Z</time>
      </trkpt>
      <trkpt lat="39.01546" lon="-0.30391">
        <time>2019-03-23T09:25:29Z</time>
      </trkpt>
      <trkpt lat="39.01547" lon="-0.30396">
        <time>2019-03-23T09:25:30Z</time>
      </trkpt>
      <trkpt lat="39.01547" lon="-0.30403">
        <time>2019-03-23T09:25:31Z</time>
      </trkpt>
      <trkpt lat="39.01546" lon="-0.30409">
        <time>2019-03-23T09:25:32Z</time>
      </trkpt>
      <trkpt lat="39.01543" lon="-0.30413">
        <time>2019-03-23T09:25:33Z</time>
      </trkpt>
      <trkpt lat="39.01538" lon="-0.30415">
        <time>2019-03-23T09:25:34Z</time>
      </trkpt>
      <trkpt lat="39.01533" lon="-0.30413">
        <time>2019-03-23T09:25:35Z</time>
      </trkpt>
      <trkpt lat="39.01527" lon="-0.3041">
        <time>2019-03-23T09:25:36Z</time>
      </trkpt>
      <trkpt lat="39.01518" lon="-0.30406">
        <time>2019-03-23T09:25:37Z</time>
      </trkpt>
      <trkpt lat="39.01509" lon="-0.30402">
        <time>2019-03-23T09:25:38Z</time>
      </trkpt>
      <trkpt lat="39.015" lon="-0.30398">
        <time>2019-03-23T09:25:39Z</time>
      </trkpt>
      <trkpt lat="39.01488" lon="-0.30394">
        <time>2019-03-23T09:25:40Z</time>
      </trkpt>
      <trkpt lat="39.01482" lon="-0.30386">
        <time>2019-03-23T09:25:41Z</time>
      </trkpt>
      <trkpt lat="39.01473" lon="-0.30376">
        <time>2019-03-23T09:25:42Z</time>
      </trkpt>
      <trkpt lat="39.01467" lon="-0.30367">
        <time>2019-03-23T09:25:43Z</time>
      </trkpt>
      <trkpt lat="39.01462" lon="-0.30359">
        <time>2019-03-23T09:25:44Z</time>
      </trkpt>
      <trkpt lat="39.01457" lon="-0.30349">
        <time>2019-03-23T09:25:45Z</time>
      </trkpt>
      <trkpt lat="39.01452" lon="-0.3034">
        <time>2019-03-23T09:25:46Z</time>
      </trkpt>
      <trkpt lat="39.0144" lon="-0.30335">
        <time>2019-03-23T09:25:47Z</time>
      </trkpt>
      <trkpt lat="39.01431" lon="-0.30326">
        <time>2019-03-23T09:25:48Z</time>
      </trkpt>
      <trkpt lat="39.01422" lon="-0.30318">
        <time>2019-03-23T09:25:49Z</time>
      </trkpt>
      <trkpt lat="39.01413" lon="-0.30311">
        <time>2019-03-23T09:25:50Z</time>
      </trkpt>
      <trkpt lat="39.01409" lon="-0.30304">
        <time>2019-03-23T09:25:51Z</time>
      </trkpt>
      <trkpt lat="39.01405" lon="-0.30299">
        <time>2019-03-23T09:25:52Z</time>
      </trkpt>
      <trkpt lat="39.014" lon="-0.30295">
        <time>2019-03-23T09:25:53Z</time>
      </trkpt>
      <trkpt lat="39.01397" lon="-0.30295">
        <time>2019-03-23T09:25:54Z</time>
      </trkpt>
      <trkpt lat="39.01394" lon="-0.30297">
        <time>2019-03-23T09:25:55Z</time>
      </trkpt>
      <trkpt lat="39.01393" lon="-0.30302">
        <time>2019-03-23T09:25:56Z</time>
      </trkpt>
      <trkpt lat="39.01392" lon="-0.30308">
        <time>2019-03-23T09:25:57Z</time>
      </trkpt>
      <trkpt lat="39.01389" lon="-0.30315">
        <time>2019-03-23T09:25:58Z</time>
      </trkpt>
      <trkpt lat="39.01386" lon="-0.30321">
        <time>2019-03-23T09:25:59Z</time>
      </trkpt>
      <trkpt lat="39.01381" lon="-0.30327">
        <time>2019-03-23T09:26:00Z</time>
      </trkpt>
      <trkpt lat="39.01375" lon="-0.30335">
        <time>2019-03-23T09:26:01Z</time>
      </trkpt>
      <trkpt lat="39.01368" lon="-0.30344">
        <time>2019-03-23T09:26:02Z</time>
      </trkpt>
      <trkpt lat="39.01361" lon="-0.30354">
        <time>2019-03-23T09:26:03Z</time>
      </trkpt>
      <trkpt lat="39.01353" lon="-0.30366">
        <time>2019-03-23T09:26:04Z</time>
      </trkpt>
      <trkpt lat="39.01345" lon="-0.30378">
        <time>2019-03-23T09:26:05Z</time>
      </trkpt>
      <trkpt lat="39.01335" lon="-0.30394">
        <time>2019-03-23T09:26:06Z</time>
      </trkpt>
      <trkpt lat="39.01327" lon="-0.30406">
        <time>2019-03-23T09:26:07Z</time>
      </trkpt>
      <trkpt lat="39.01319" lon="-0.3042">
        <time>2019-03-23T09:26:08Z</time>
      </trkpt>
      <trkpt lat="39.01311" lon="-0.30434">
        <time>2019-03-23T09:26:09Z</time>
      </trkpt>
      <trkpt lat="39.01302" lon="-0.30449">
        <time>2019-03-23T09:26:10Z</time>
      </trkpt>
      <trkpt lat="39.01294" lon="-0.30463">
        <time>2019-03-23T09:26:11Z</time>
      </trkpt>
      <trkpt lat="39.01286" lon="-0.30478">
        <time>2019-03-23T09:26:12Z</time>
      </trkpt>
      <trkpt lat="39.01274" lon="-0.30499">
        <time>2019-03-23T09:26:13Z</time>
      </trkpt>
      <trkpt lat="39.01267" lon="-0.30512">
        <time>2019-03-23T09:26:14Z</time>
      </trkpt>
      <trkpt lat="39.01262" lon="-0.30526">
        <time>2019-03-23T09:26:15Z</time>
      </trkpt>
      <trkpt lat="39.01258" lon="-0.30538">
        <time>2019-03-23T09:26:16Z</time>
      </trkpt>
      <trkpt lat="39.01252" lon="-0.3055">
        <time>2019-03-23T09:26:17Z</time>
      </trkpt>
      <trkpt lat="39.01246" lon="-0.30559">
        <time>2019-03-23T09:26:18Z</time>
      </trkpt>
      <trkpt lat="39.01239" lon="-0.30568">
        <time>2019-03-23T09:26:19Z</time>
      </trkpt>
      <trkpt lat="39.01229" lon="-0.30576">
        <time>2019-03-23T09:26:20Z</time>
      </trkpt>
      <trkpt lat="39.0122" lon="-0.30585">
        <time>2019-03-23T09:26:21Z</time>
      </trkpt>
      <trkpt lat="39.0121" lon="-0.30593">
        <time>2019-03-23T09:26:22Z</time>
      </trkpt>
      <trkpt lat="39.01201" lon="-0.30604">
        <time>2019-03-23T09:26:23Z</time>
      </trkpt>
      <trkpt lat="39.01192" lon="-0.30613">
        <time>2019-03-23T09:26:24Z</time>
      </trkpt>
      <trkpt lat="39.01183" lon="-0.30626">
        <time>2019-03-23T09:26:25Z</time>
      </trkpt>
      <trkpt lat="39.01176" lon="-0.30638">
        <time>2019-03-23T09:26:26Z</time>
      </trkpt>
      <trkpt lat="39.01169" lon="-0.3065">
        <time>2019-03-23T09:26:27Z</time>
      </trkpt>
      <trkpt lat="39.01163" lon="-0.3066">
        <time>2019-03-23T09:26:28Z</time>
      </trkpt>
      <trkpt lat="39.01158" lon="-0.30668">
        <time>2019-03-23T09:26:29Z</time>
      </trkpt>
      <trkpt lat="39.01152" lon="-0.30675">
        <time>2019-03-23T09:26:30Z</time>
      </trkpt>
      <trkpt lat="39.01146" lon="-0.30683">
        <time>2019-03-23T09:26:31Z</time>
      </trkpt>
      <trkpt lat="39.01143" lon="-0.30691">
        <time>2019-03-23T09:26:32Z</time>
      </trkpt>
      <trkpt lat="39.01141" lon="-0.30701">
        <time>2019-03-23T09:26:33Z</time>
      </trkpt>
      <trkpt lat="39.01139" lon="-0.3071">
        <time>2019-03-23T09:26:34Z</time>
      </trkpt>
      <trkpt lat="39.01135" lon="-0.30717">
        <time>2019-03-23T09:26:35Z</time>
      </trkpt>
      <trkpt lat="39.0113" lon="-0.30724">
        <time>2019-03-23T09:26:36Z</time>
      </trkpt>
      <trkpt lat="39.01123" lon="-0.30726">
        <time>2019-03-23T09:26:37Z</time>
      </trkpt>
      <trkpt lat="39.01115" lon="-0.30725">
        <time>2019-03-23T09:26:38Z</time>
      </trkpt>
      <trkpt lat="39.01107" lon="-0.30722">
        <time>2019-03-23T09:26:39Z</time>
      </trkpt>
      <trkpt lat="39.01103" lon="-0.30719">
        <time>2019-03-23T09:26:40Z</time>
      </trkpt>
      <trkpt lat="39.01099" lon="-0.30715">
        <time>2019-03-23T09:26:41Z</time>
      </trkpt>
      <trkpt lat="39.01095" lon="-0.30713">
        <time>2019-03-23T09:26:42Z</time>
      </trkpt>
      <trkpt lat="39.01092" lon="-0.30713">
        <time>2019-03-23T09:26:43Z</time>
      </trkpt>
      <trkpt lat="39.01089" lon="-0.30714">
        <time>2019-03-23T09:26:44Z</time>
      </trkpt>
      <trkpt lat="39.01086" lon="-0.30718">
        <time>2019-03-23T09:26:45Z</time>
      </trkpt>
      <trkpt lat="39.01084" lon="-0.30723">
        <time>2019-03-23T09:26:46Z</time>
      </trkpt>
      <trkpt lat="39.01082" lon="-0.3073">
        <time>2019-03-23T09:26:47Z</time>
      </trkpt>
      <trkpt lat="39.01082" lon="-0.30737">
        <time>2019-03-23T09:26:48Z</time>
      </trkpt>
      <trkpt lat="39.01083" lon="-0.30747">
        <time>2019-03-23T09:26:49Z</time>
      </trkpt>
      <trkpt lat="39.01086" lon="-0.30754">
        <time>2019-03-23T09:26:50Z</time>
      </trkpt>
      <trkpt lat="39.0109" lon="-0.30761">
        <time>2019-03-23T09:26:51Z</time>
      </trkpt>
      <trkpt lat="39.01094" lon="-0.30767">
        <time>2019-03-23T09:26:52Z</time>
      </trkpt>
      <trkpt lat="39.01098" lon="-0.30773">
        <time>2019-03-23T09:26:53Z</time>
      </trkpt>
      <trkpt lat="39.011" lon="-0.3078">
        <time>2019-03-23T09:26:54Z</time>
      </trkpt>
      <trkpt lat="39.01101" lon="-0.30789">
        <time>2019-03-23T09:26:55Z</time>
      </trkpt>
      <trkpt lat="39.01102" lon="-0.30799">
        <time>2019-03-23T09:26:56Z</time>
      </trkpt>
      <trkpt lat="39.01103" lon="-0.30809">
        <time>2019-03-23T09:26:57Z</time>
      </trkpt>
      <trkpt lat="39.01101" lon="-0.30816">
        <time>2019-03-23T09:26:58Z</time>
      </trkpt>
      <trkpt lat="39.01097" lon="-0.30819">
        <time>2019-03-23T09:26:59Z</time>
      </trkpt>
      <trkpt lat="39.01092" lon="-0.30819">
        <time>2019-03-23T09:27:00Z</time>
      </trkpt>
      <trkpt lat="39.01087" lon="-0.30815">
        <time>2019-03-23T09:27:01Z</time>
      </trkpt>
      <trkpt lat="39.01083" lon="-0.30808">
        <time>2019-03-23T09:27:02Z</time>
      </trkpt>
      <trkpt lat="39.0108" lon="-0.308">
        <time>2019-03-23T09:27:03Z</time>
      </trkpt>
      <trkpt lat="39.01076" lon="-0.30793">
        <time>2019-03-23T09:27:04Z</time>
      </trkpt>
      <trkpt lat="39.01071" lon="-0.30787">
        <time>2019-03-23T09:27:05Z</time>
      </trkpt>
      <trkpt lat="39.01065" lon="-0.30784">
        <time>2019-03-23T09:27:06Z</time>
      </trkpt>
      <trkpt lat="39.01061" lon="-0.30784">
        <time>2019-03-23T09:27:07Z</time>
      </trkpt>
      <trkpt lat="39.01059" lon="-0.30789">
        <time>2019-03-23T09:27:08Z</time>
      </trkpt>
      <trkpt lat="39.01059" lon="-0.30796">
        <time>2019-03-23T09:27:09Z</time>
      </trkpt>
      <trkpt lat="39.01061" lon="-0.30806">
        <time>2019-03-23T09:27:10Z</time>
      </trkpt>
      <trkpt lat="39.01062" lon="-0.30819">
        <time>2019-03-23T09:27:11Z</time>
      </trkpt>
      <trkpt lat="39.01063" lon="-0.3083">
        <time>2019-03-23T09:27:12Z</time>
      </trkpt>
      <trkpt lat="39.01065" lon="-0.30845">
        <time>2019-03-23T09:27:13Z</time>
      </trkpt>
      <trkpt lat="39.01067" lon="-0.30857">
        <time>2019-03-23T09:27:14Z</time>
      </trkpt>
      <trkpt lat="39.01071" lon="-0.3087">
        <time>2019-03-23T09:27:15Z</time>
      </trkpt>
      <trkpt lat="39.01074" lon="-0.3089">
        <time>2019-03-23T09:27:16Z</time>
      </trkpt>
      <trkpt lat="39.01078" lon="-0.30905">
        <time>2019-03-23T09:27:17Z</time>
      </trkpt>
      <trkpt lat="39.01081" lon="-0.30919">
        <time>2019-03-23T09:27:18Z</time>
      </trkpt>
      <trkpt lat="39.01084" lon="-0.30932">
        <time>2019-03-23T09:27:19Z</time>
      </trkpt>
      <trkpt lat="39.01087" lon="-0.30944">
        <time>2019-03-23T09:27:20Z</time>
      </trkpt>
      <trkpt lat="39.01088" lon="-0.30958">
        <time>2019-03-23T09:27:21Z</time>
      </trkpt>
      <trkpt lat="39.01089" lon="-0.30968">
        <time>2019-03-23T09:27:22Z</time>
      </trkpt>
      <trkpt lat="39.0109" lon="-0.30977">
        <time>2019-03-23T09:27:23Z</time>
      </trkpt>
      <trkpt lat="39.0109" lon="-0.30988">
        <time>2019-03-23T09:27:24Z</time>
      </trkpt>
      <trkpt lat="39.01093" lon="-0.30991">
        <time>2019-03-23T09:27:25Z</time>
      </trkpt>
      <trkpt lat="39.01093" lon="-0.31003">
        <time>2019-03-23T09:27:26Z</time>
      </trkpt>
      <trkpt lat="39.01092" lon="-0.31016">
        <time>2019-03-23T09:27:27Z</time>
      </trkpt>
      <trkpt lat="39.01091" lon="-0.31029">
        <time>2019-03-23T09:27:28Z</time>
      </trkpt>
      <trkpt lat="39.01089" lon="-0.31043">
        <time>2019-03-23T09:27:29Z</time>
      </trkpt>
      <trkpt lat="39.01088" lon="-0.31056">
        <time>2019-03-23T09:27:30Z</time>
      </trkpt>
      <trkpt lat="39.01085" lon="-0.31068">
        <time>2019-03-23T09:27:31Z</time>
      </trkpt>
      <trkpt lat="39.01082" lon="-0.31081">
        <time>2019-03-23T09:27:32Z</time>
      </trkpt>
      <trkpt lat="39.01078" lon="-0.3109">
        <time>2019-03-23T09:27:33Z</time>
      </trkpt>
      <trkpt lat="39.01072" lon="-0.31101">
        <time>2019-03-23T09:27:34Z</time>
      </trkpt>
      <trkpt lat="39.01065" lon="-0.31112">
        <time>2019-03-23T09:27:35Z</time>
      </trkpt>
      <trkpt lat="39.01059" lon="-0.3112">
        <time>2019-03-23T09:27:36Z</time>
      </trkpt>
      <trkpt lat="39.01051" lon="-0.31127">
        <time>2019-03-23T09:27:37Z</time>
      </trkpt>
      <trkpt lat="39.01044" lon="-0.31134">
        <time>2019-03-23T09:27:38Z</time>
      </trkpt>
      <trkpt lat="39.0104" lon="-0.31141">
        <time>2019-03-23T09:27:39Z</time>
      </trkpt>
      <trkpt lat="39.01039" lon="-0.31148">
        <time>2019-03-23T09:27:40Z</time>
      </trkpt>
      <trkpt lat="39.01041" lon="-0.31154">
        <time>2019-03-23T09:27:41Z</time>
      </trkpt>
      <trkpt lat="39.01046" lon="-0.31159">
        <time>2019-03-23T09:27:42Z</time>
      </trkpt>
      <trkpt lat="39.01053" lon="-0.31164">
        <time>2019-03-23T09:27:43Z</time>
      </trkpt>
      <trkpt lat="39.0106" lon="-0.31169">
        <time>2019-03-23T09:27:44Z</time>
      </trkpt>
      <trkpt lat="39.01067" lon="-0.31178">
        <time>2019-03-23T09:27:45Z</time>
      </trkpt>
      <trkpt lat="39.01071" lon="-0.31187">
        <time>2019-03-23T09:27:46Z</time>
      </trkpt>
      <trkpt lat="39.01074" lon="-0.31197">
        <time>2019-03-23T09:27:47Z</time>
      </trkpt>
      <trkpt lat="39.01076" lon="-0.31208">
        <time>2019-03-23T09:27:48Z</time>
      </trkpt>
      <trkpt lat="39.01077" lon="-0.3122">
        <time>2019-03-23T09:27:49Z</time>
      </trkpt>
      <trkpt lat="39.01077" lon="-0.31233">
        <time>2019-03-23T09:27:50Z</time>
      </trkpt>
      <trkpt lat="39.01078" lon="-0.31247">
        <time>2019-03-23T09:27:51Z</time>
      </trkpt>
      <trkpt lat="39.01078" lon="-0.3126">
        <time>2019-03-23T09:27:52Z</time>
      </trkpt>
      <trkpt lat="39.0108" lon="-0.31276">
        <time>2019-03-23T09:27:53Z</time>
      </trkpt>
      <trkpt lat="39.01082" lon="-0.3129">
        <time>2019-03-23T09:27:54Z</time>
      </trkpt>
      <trkpt lat="39.01086" lon="-0.31305">
        <time>2019-03-23T09:27:55Z</time>
      </trkpt>
      <trkpt lat="39.0109" lon="-0.31322">
        <time>2019-03-23T09:27:56Z</time>
      </trkpt>
      <trkpt lat="39.01093" lon="-0.31336">
        <time>2019-03-23T09:27:57Z</time>
      </trkpt>
      <trkpt lat="39.01096" lon="-0.3135">
        <time>2019-03-23T09:27:58Z</time>
      </trkpt>
      <trkpt lat="39.01098" lon="-0.31357">
        <time>2019-03-23T09:27:59Z</time>
      </trkpt>
      <trkpt lat="39.01098" lon="-0.31366">
        <time>2019-03-23T09:28:00Z</time>
      </trkpt>
      <trkpt lat="39.01096" lon="-0.31372">
        <time>2019-03-23T09:28:01Z</time>
      </trkpt>
      <trkpt lat="39.01092" lon="-0.31375">
        <time>2019-03-23T09:28:02Z</time>
      </trkpt>
      <trkpt lat="39.01088" lon="-0.31374">
        <time>2019-03-23T09:28:03Z</time>
      </trkpt>
      <trkpt lat="39.01084" lon="-0.31369">
        <time>2019-03-23T09:28:04Z</time>
      </trkpt>
      <trkpt lat="39.01081" lon="-0.31363">
        <time>2019-03-23T09:28:05Z</time>
      </trkpt>
      <trkpt lat="39.01077" lon="-0.31356">
        <time>2019-03-23T09:28:06Z</time>
      </trkpt>
      <trkpt lat="39.01072" lon="-0.31347">
        <time>2019-03-23T09:28:07Z</time>
      </trkpt>
      <trkpt lat="39.01068" lon="-0.31338">
        <time>2019-03-23T09:28:08Z</time>
      </trkpt>
      <trkpt lat="39.01063" lon="-0.31329">
        <time>2019-03-23T09:28:09Z</time>
      </trkpt>
      <trkpt lat="39.01057" lon="-0.3132">
        <time>2019-03-23T09:28:10Z</time>
      </trkpt>
      <trkpt lat="39.01052" lon="-0.31312">
        <time>2019-03-23T09:28:11Z</time>
      </trkpt>
      <trkpt lat="39.01045" lon="-0.31304">
        <time>2019-03-23T09:28:12Z</time>
      </trkpt>
      <trkpt lat="39.0104" lon="-0.31296">
        <time>2019-03-23T09:28:13Z</time>
      </trkpt>
      <trkpt lat="39.01036" lon="-0.31287">
        <time>2019-03-23T09:28:14Z</time>
      </trkpt>
      <trkpt lat="39.01031" lon="-0.31277">
        <time>2019-03-23T09:28:15Z</time>
      </trkpt>
      <trkpt lat="39.01026" lon="-0.31268">
        <time>2019-03-23T09:28:16Z</time>
      </trkpt>
      <trkpt lat="39.0102" lon="-0.31257">
        <time>2019-03-23T09:28:17Z</time>
      </trkpt>
      <trkpt lat="39.01015" lon="-0.31248">
        <time>2019-03-23T09:28:18Z</time>
      </trkpt>
      <trkpt lat="39.01009" lon="-0.31241">
        <time>2019-03-23T09:28:19Z</time>
      </trkpt>
      <trkpt lat="39.01002" lon="-0.31234">
        <time>2019-03-23T09:28:20Z</time>
      </trkpt>
      <trkpt lat="39.00995" lon="-0.31231">
        <time>2019-03-23T09:28:21Z</time>
      </trkpt>
      <trkpt lat="39.00988" lon="-0.31226">
        <time>2019-03-23T09:28:22Z</time>
      </trkpt>
      <trkpt lat="39.00983" lon="-0.3122">
        <time>2019-03-23T09:28:23Z</time>
      </trkpt>
      <trkpt lat="39.00978" lon="-0.31213">
        <time>2019-03-23T09:28:24Z</time>
      </trkpt>
      <trkpt lat="39.00973" lon="-0.31202">
        <time>2019-03-23T09:28:25Z</time>
      </trkpt>
      <trkpt lat="39.00968" lon="-0.31192">
        <time>2019-03-23T09:28:26Z</time>
      </trkpt>
      <trkpt lat="39.00964" lon="-0.31182">
        <time>2019-03-23T09:28:27Z</time>
      </trkpt>
      <trkpt lat="39.00957" lon="-0.31171">
        <time>2019-03-23T09:28:28Z</time>
      </trkpt>
      <trkpt lat="39.00952" lon="-0.31161">
        <time>2019-03-23T09:28:29Z</time>
      </trkpt>
      <trkpt lat="39.00947" lon="-0.31151">
        <time>2019-03-23T09:28:30Z</time>
      </trkpt>
      <trkpt lat="39.00944" lon="-0.3114">
        <time>2019-03-23T09:28:31Z</time>
      </trkpt>
      <trkpt lat="39.00943" lon="-0.3113">
        <time>2019-03-23T09:28:32Z</time>
      </trkpt>
      <trkpt lat="39.00943" lon="-0.31117">
        <time>2019-03-23T09:28:33Z</time>
      </trkpt>
      <trkpt lat="39.00943" lon="-0.31105">
        <time>2019-03-23T09:28:34Z</time>
      </trkpt>
      <trkpt lat="39.00942" lon="-0.31092">
        <time>2019-03-23T09:28:35Z</time>
      </trkpt>
      <trkpt lat="39.0094" lon="-0.31078">
        <time>2019-03-23T09:28:36Z</time>
      </trkpt>
      <trkpt lat="39.0094" lon="-0.31068">
        <time>2019-03-23T09:28:37Z</time>
      </trkpt>
      <trkpt lat="39.00937" lon="-0.31057">
        <time>2019-03-23T09:28:38Z</time>
      </trkpt>
      <trkpt lat="39.00932" lon="-0.31046">
        <time>2019-03-23T09:28:39Z</time>
      </trkpt>
      <trkpt lat="39.00928" lon="-0.31037">
        <time>2019-03-23T09:28:40Z</time>
      </trkpt>
      <trkpt lat="39.00923" lon="-0.31027">
        <time>2019-03-23T09:28:41Z</time>
      </trkpt>
      <trkpt lat="39.00916" lon="-0.31016">
        <time>2019-03-23T09:28:42Z</time>
      </trkpt>
      <trkpt lat="39.00907" lon="-0.31004">
        <time>2019-03-23T09:28:43Z</time>
      </trkpt>
      <trkpt lat="39.00898" lon="-0.30991">
        <time>2019-03-23T09:28:44Z</time>
      </trkpt>
      <trkpt lat="39.00892" lon="-0.30982">
        <time>2019-03-23T09:28:45Z</time>
      </trkpt>
      <trkpt lat="39.00883" lon="-0.30968">
        <time>2019-03-23T09:28:46Z</time>
      </trkpt>
      <trkpt lat="39.00877" lon="-0.30961">
        <time>2019-03-23T09:28:47Z</time>
      </trkpt>
      <trkpt lat="39.0087" lon="-0.30954">
        <time>2019-03-23T09:28:48Z</time>
      </trkpt>
      <trkpt lat="39.00863" lon="-0.30948">
        <time>2019-03-23T09:28:49Z</time>
      </trkpt>
      <trkpt lat="39.00856" lon="-0.30945">
        <time>2019-03-23T09:28:50Z</time>
      </trkpt>
      <trkpt lat="39.00851" lon="-0.30941">
        <time>2019-03-23T09:28:51Z</time>
      </trkpt>
      <trkpt lat="39.00846" lon="-0.30936">
        <time>2019-03-23T09:28:52Z</time>
      </trkpt>
      <trkpt lat="39.00842" lon="-0.3093">
        <time>2019-03-23T09:28:53Z</time>
      </trkpt>
      <trkpt lat="39.00838" lon="-0.30922">
        <time>2019-03-23T09:28:54Z</time>
      </trkpt>
      <trkpt lat="39.00834" lon="-0.30912">
        <time>2019-03-23T09:28:55Z</time>
      </trkpt>
      <trkpt lat="39.00832" lon="-0.30901">
        <time>2019-03-23T09:28:56Z</time>
      </trkpt>
      <trkpt lat="39.00829" lon="-0.30893">
        <time>2019-03-23T09:28:57Z</time>
      </trkpt>
      <trkpt lat="39.00826" lon="-0.30888">
        <time>2019-03-23T09:28:58Z</time>
      </trkpt>
      <trkpt lat="39.00822" lon="-0.30888">
        <time>2019-03-23T09:28:59Z</time>
      </trkpt>
      <trkpt lat="39.00819" lon="-0.30891">
        <time>2019-03-23T09:29:00Z</time>
      </trkpt>
      <trkpt lat="39.00823" lon="-0.309">
        <time>2019-03-23T09:29:01Z</time>
      </trkpt>
      <trkpt lat="39.00821" lon="-0.30905">
        <time>2019-03-23T09:29:02Z</time>
      </trkpt>
      <trkpt lat="39.00822" lon="-0.30913">
        <time>2019-03-23T09:29:03Z</time>
      </trkpt>
      <trkpt lat="39.00823" lon="-0.30921">
        <time>2019-03-23T09:29:04Z</time>
      </trkpt>
      <trkpt lat="39.00824" lon="-0.30931">
        <time>2019-03-23T09:29:05Z</time>
      </trkpt>
      <trkpt lat="39.00826" lon="-0.30941">
        <time>2019-03-23T09:29:06Z</time>
      </trkpt>
      <trkpt lat="39.00829" lon="-0.30951">
        <time>2019-03-23T09:29:07Z</time>
      </trkpt>
      <trkpt lat="39.00832" lon="-0.30962">
        <time>2019-03-23T09:29:08Z</time>
      </trkpt>
      <trkpt lat="39.00836" lon="-0.30974">
        <time>2019-03-23T09:29:09Z</time>
      </trkpt>
      <trkpt lat="39.00841" lon="-0.30988">
        <time>2019-03-23T09:29:10Z</time>
      </trkpt>
      <trkpt lat="39.00848" lon="-0.31011">
        <time>2019-03-23T09:29:11Z</time>
      </trkpt>
      <trkpt lat="39.00851" lon="-0.31026">
        <time>2019-03-23T09:29:12Z</time>
      </trkpt>
      <trkpt lat="39.00853" lon="-0.31039">
        <time>2019-03-23T09:29:13Z</time>
      </trkpt>
      <trkpt lat="39.00854" lon="-0.31052">
        <time>2019-03-23T09:29:14Z</time>
      </trkpt>
      <trkpt lat="39.00853" lon="-0.31066">
        <time>2019-03-23T09:29:15Z</time>
      </trkpt>
      <trkpt lat="39.00852" lon="-0.31081">
        <time>2019-03-23T09:29:16Z</time>
      </trkpt>
      <trkpt lat="39.00854" lon="-0.31097">
        <time>2019-03-23T09:29:17Z</time>
      </trkpt>
      <trkpt lat="39.00851" lon="-0.31112">
        <time>2019-03-23T09:29:18Z</time>
      </trkpt>
      <trkpt lat="39.00847" lon="-0.31128">
        <time>2019-03-23T09:29:19Z</time>
      </trkpt>
      <trkpt lat="39.00844" lon="-0.31141">
        <time>2019-03-23T09:29:20Z</time>
      </trkpt>
      <trkpt lat="39.00838" lon="-0.31156">
        <time>2019-03-23T09:29:21Z</time>
      </trkpt>
      <trkpt lat="39.00832" lon="-0.3117">
        <time>2019-03-23T09:29:22Z</time>
      </trkpt>
      <trkpt lat="39.00825" lon="-0.31185">
        <time>2019-03-23T09:29:23Z</time>
      </trkpt>
      <trkpt lat="39.00809" lon="-0.3119">
        <time>2019-03-23T09:29:24Z</time>
      </trkpt>
      <trkpt lat="39.00802" lon="-0.312">
        <time>2019-03-23T09:29:25Z</time>
      </trkpt>
      <trkpt lat="39.00796" lon="-0.31208">
        <time>2019-03-23T09:29:26Z</time>
      </trkpt>
      <trkpt lat="39.00788" lon="-0.31216">
        <time>2019-03-23T09:29:27Z</time>
      </trkpt>
      <trkpt lat="39.00781" lon="-0.31223">
        <time>2019-03-23T09:29:28Z</time>
      </trkpt>
      <trkpt lat="39.00774" lon="-0.31231">
        <time>2019-03-23T09:29:29Z</time>
      </trkpt>
      <trkpt lat="39.00766" lon="-0.3124">
        <time>2019-03-23T09:29:30Z</time>
      </trkpt>
      <trkpt lat="39.0076" lon="-0.31256">
        <time>2019-03-23T09:29:31Z</time>
      </trkpt>
      <trkpt lat="39.00751" lon="-0.31263">
        <time>2019-03-23T09:29:32Z</time>
      </trkpt>
      <trkpt lat="39.00743" lon="-0.31272">
        <time>2019-03-23T09:29:33Z</time>
      </trkpt>
      <trkpt lat="39.00735" lon="-0.31281">
        <time>2019-03-23T09:29:34Z</time>
      </trkpt>
      <trkpt lat="39.00727" lon="-0.31294">
        <time>2019-03-23T09:29:35Z</time>
      </trkpt>
      <trkpt lat="39.00722" lon="-0.31307">
        <time>2019-03-23T09:29:36Z</time>
      </trkpt>
      <trkpt lat="39.00716" lon="-0.31324">
        <time>2019-03-23T09:29:37Z</time>
      </trkpt>
      <trkpt lat="39.00711" lon="-0.3134">
        <time>2019-03-23T09:29:38Z</time>
      </trkpt>
      <trkpt lat="39.00705" lon="-0.31357">
        <time>2019-03-23T09:29:39Z</time>
      </trkpt>
      <trkpt lat="39.007" lon="-0.31376">
        <time>2019-03-23T09:29:40Z</time>
      </trkpt>
      <trkpt lat="39.00697" lon="-0.3139">
        <time>2019-03-23T09:29:41Z</time>
      </trkpt>
      <trkpt lat="39.00694" lon="-0.31404">
        <time>2019-03-23T09:29:42Z</time>
      </trkpt>
      <trkpt lat="39.00695" lon="-0.31417">
        <time>2019-03-23T09:29:43Z</time>
      </trkpt>
      <trkpt lat="39.00696" lon="-0.31429">
        <time>2019-03-23T09:29:44Z</time>
      </trkpt>
      <trkpt lat="39.00697" lon="-0.3144">
        <time>2019-03-23T09:29:45Z</time>
      </trkpt>
      <trkpt lat="39.00698" lon="-0.31451">
        <time>2019-03-23T09:29:46Z</time>
      </trkpt>
      <trkpt lat="39.00697" lon="-0.31459">
        <time>2019-03-23T09:29:47Z</time>
      </trkpt>
      <trkpt lat="39.00693" lon="-0.31468">
        <time>2019-03-23T09:29:48Z</time>
      </trkpt>
      <trkpt lat="39.00687" lon="-0.31476">
        <time>2019-03-23T09:29:49Z</time>
      </trkpt>
      <trkpt lat="39.0068" lon="-0.31486">
        <time>2019-03-23T09:29:50Z</time>
      </trkpt>
      <trkpt lat="39.00671" lon="-0.31497">
        <time>2019-03-23T09:29:51Z</time>
      </trkpt>
      <trkpt lat="39.00663" lon="-0.31506">
        <time>2019-03-23T09:29:52Z</time>
      </trkpt>
      <trkpt lat="39.00655" lon="-0.31517">
        <time>2019-03-23T09:29:53Z</time>
      </trkpt>
      <trkpt lat="39.00647" lon="-0.31528">
        <time>2019-03-23T09:29:54Z</time>
      </trkpt>
      <trkpt lat="39.00639" lon="-0.31539">
        <time>2019-03-23T09:29:55Z</time>
      </trkpt>
      <trkpt lat="39.00631" lon="-0.31552">
        <time>2019-03-23T09:29:56Z</time>
      </trkpt>
      <trkpt lat="39.00624" lon="-0.31564">
        <time>2019-03-23T09:29:57Z</time>
      </trkpt>
      <trkpt lat="39.00617" lon="-0.31579">
        <time>2019-03-23T09:29:58Z</time>
      </trkpt>
      <trkpt lat="39.00609" lon="-0.31596">
        <time>2019-03-23T09:29:59Z</time>
      </trkpt>
      <trkpt lat="39.00602" lon="-0.3161">
        <time>2019-03-23T09:30:00Z</time>
      </trkpt>
      <trkpt lat="39.00594" lon="-0.31628">
        <time>2019-03-23T09:30:01Z</time>
      </trkpt>
      <trkpt lat="39.00587" lon="-0.31645">
        <time>2019-03-23T09:30:02Z</time>
      </trkpt>
      <trkpt lat="39.0058" lon="-0.3166">
        <time>2019-03-23T09:30:03Z</time>
      </trkpt>
      <trkpt lat="39.00573" lon="-0.31674">
        <time>2019-03-23T09:30:04Z</time>
      </trkpt>
      <trkpt lat="39.00568" lon="-0.31684">
        <time>2019-03-23T09:30:05Z</time>
      </trkpt>
      <trkpt lat="39.00562" lon="-0.31694">
        <time>2019-03-23T09:30:06Z</time>
      </trkpt>
      <trkpt lat="39.00556" lon="-0.31702">
        <time>2019-03-23T09:30:07Z</time>
      </trkpt>
      <trkpt lat="39.0055" lon="-0.31706">
        <time>2019-03-23T09:30:08Z</time>
      </trkpt>
      <trkpt lat="39.00542" lon="-0.31724">
        <time>2019-03-23T09:30:09Z</time>
      </trkpt>
      <trkpt lat="39.00535" lon="-0.31729">
        <time>2019-03-23T09:30:10Z</time>
      </trkpt>
      <trkpt lat="39.00528" lon="-0.31736">
        <time>2019-03-23T09:30:11Z</time>
      </trkpt>
      <trkpt lat="39.00522" lon="-0.31746">
        <time>2019-03-23T09:30:12Z</time>
      </trkpt>
      <trkpt lat="39.00519" lon="-0.31757">
        <time>2019-03-23T09:30:13Z</time>
      </trkpt>
      <trkpt lat="39.00516" lon="-0.31771">
        <time>2019-03-23T09:30:14Z</time>
      </trkpt>
      <trkpt lat="39.00507" lon="-0.31776">
        <time>2019-03-23T09:30:15Z</time>
      </trkpt>
      <trkpt lat="39.00502" lon="-0.31792">
        <time>2019-03-23T09:30:16Z</time>
      </trkpt>
      <trkpt lat="39.00497" lon="-0.3181">
        <time>2019-03-23T09:30:17Z</time>
      </trkpt>
      <trkpt lat="39.00493" lon="-0.31828">
        <time>2019-03-23T09:30:18Z</time>
      </trkpt>
      <trkpt lat="39.00488" lon="-0.31846">
        <time>2019-03-23T09:30:19Z</time>
      </trkpt>
      <trkpt lat="39.00485" lon="-0.31863">
        <time>2019-03-23T09:30:20Z</time>
      </trkpt>
      <trkpt lat="39.00481" lon="-0.31879">
        <time>2019-03-23T09:30:21Z</time>
      </trkpt>
      <trkpt lat="39.00478" lon="-0.31893">
        <time>2019-03-23T09:30:22Z</time>
      </trkpt>
      <trkpt lat="39.00475" lon="-0.31906">
        <time>2019-03-23T09:30:23Z</time>
      </trkpt>
      <trkpt lat="39.00472" lon="-0.31918">
        <time>2019-03-23T09:30:24Z</time>
      </trkpt>
      <trkpt lat="39.00467" lon="-0.31931">
        <time>2019-03-23T09:30:25Z</time>
      </trkpt>
      <trkpt lat="39.00463" lon="-0.31945">
        <time>2019-03-23T09:30:26Z</time>
      </trkpt>
      <trkpt lat="39.00458" lon="-0.31958">
        <time>2019-03-23T09:30:27Z</time>
      </trkpt>
      <trkpt lat="39.00452" lon="-0.31969">
        <time>2019-03-23T09:30:28Z</time>
      </trkpt>
      <trkpt lat="39.00446" lon="-0.31978">
        <time>2019-03-23T09:30:29Z</time>
      </trkpt>
      <trkpt lat="39.00438" lon="-0.31984">
        <time>2019-03-23T09:30:30Z</time>
      </trkpt>
      <trkpt lat="39.00429" lon="-0.31991">
        <time>2019-03-23T09:30:31Z</time>
      </trkpt>
      <trkpt lat="39.00421" lon="-0.31998">
        <time>2019-03-23T09:30:32Z</time>
      </trkpt>
      <trkpt lat="39.00413" lon="-0.32006">
        <time>2019-03-23T09:30:33Z</time>
      </trkpt>
      <trkpt lat="39.00406" lon="-0.32015">
        <time>2019-03-23T09:30:34Z</time>
      </trkpt>
      <trkpt lat="39.00401" lon="-0.32024">
        <time>2019-03-23T09:30:35Z</time>
      </trkpt>
      <trkpt lat="39.00396" lon="-0.32033">
        <time>2019-03-23T09:30:36Z</time>
      </trkpt>
      <trkpt lat="39.00392" lon="-0.32043">
        <time>2019-03-23T09:30:37Z</time>
      </trkpt>
      <trkpt lat="39.00388" lon="-0.32053">
        <time>2019-03-23T09:30:38Z</time>
      </trkpt>
      <trkpt lat="39.00383" lon="-0.32064">
        <time>2019-03-23T09:30:39Z</time>
      </trkpt>
      <trkpt lat="39.00378" lon="-0.32077">
        <time>2019-03-23T09:30:40Z</time>
      </trkpt>
      <trkpt lat="39.00372" lon="-0.3209">
        <time>2019-03-23T09:30:41Z</time>
      </trkpt>
      <trkpt lat="39.00368" lon="-0.32102">
        <time>2019-03-23T09:30:42Z</time>
      </trkpt>
      <trkpt lat="39.00365" lon="-0.32114">
        <time>2019-03-23T09:30:43Z</time>
      </trkpt>
      <trkpt lat="39.00363" lon="-0.32128">
        <time>2019-03-23T09:30:44Z</time>
      </trkpt>
      <trkpt lat="39.00362" lon="-0.32144">
        <time>2019-03-23T09:30:45Z</time>
      </trkpt>
      <trkpt lat="39.00361" lon="-0.32158">
        <time>2019-03-23T09:30:46Z</time>
      </trkpt>
      <trkpt lat="39.00359" lon="-0.32172">
        <time>2019-03-23T09:30:47Z</time>
      </trkpt>
      <trkpt lat="39.00361" lon="-0.32191">
        <time>2019-03-23T09:30:48Z</time>
      </trkpt>
      <trkpt lat="39.00357" lon="-0.32205">
        <time>2019-03-23T09:30:49Z</time>
      </trkpt>
      <trkpt lat="39.00354" lon="-0.32218">
        <time>2019-03-23T09:30:50Z</time>
      </trkpt>
      <trkpt lat="39.00353" lon="-0.3223">
        <time>2019-03-23T09:30:51Z</time>
      </trkpt>
      <trkpt lat="39.00353" lon="-0.32244">
        <time>2019-03-23T09:30:52Z</time>
      </trkpt>
      <trkpt lat="39.00352" lon="-0.32257">
        <time>2019-03-23T09:30:53Z</time>
      </trkpt>
      <trkpt lat="39.00351" lon="-0.32269">
        <time>2019-03-23T09:30:54Z</time>
      </trkpt>
      <trkpt lat="39.00347" lon="-0.32283">
        <time>2019-03-23T09:30:55Z</time>
      </trkpt>
      <trkpt lat="39.00343" lon="-0.32295">
        <time>2019-03-23T09:30:56Z</time>
      </trkpt>
      <trkpt lat="39.00337" lon="-0.32309">
        <time>2019-03-23T09:30:57Z</time>
      </trkpt>
      <trkpt lat="39.00332" lon="-0.32321">
        <time>2019-03-23T09:30:58Z</time>
      </trkpt>
      <trkpt lat="39.00328" lon="-0.32332">
        <time>2019-03-23T09:30:59Z</time>
      </trkpt>
      <trkpt lat="39.00323" lon="-0.32342">
        <time>2019-03-23T09:31:00Z</time>
      </trkpt>
      <trkpt lat="39.00318" lon="-0.32351">
        <time>2019-03-23T09:31:01Z</time>
      </trkpt>
      <trkpt lat="39.00313" lon="-0.32361">
        <time>2019-03-23T09:31:02Z</time>
      </trkpt>
      <trkpt lat="39.00309" lon="-0.32371">
        <time>2019-03-23T09:31:03Z</time>
      </trkpt>
      <trkpt lat="39.00306" lon="-0.32379">
        <time>2019-03-23T09:31:04Z</time>
      </trkpt>
      <trkpt lat="39.00304" lon="-0.3239">
        <time>2019-03-23T09:31:05Z</time>
      </trkpt>
      <trkpt lat="39.00303" lon="-0.32401">
        <time>2019-03-23T09:31:06Z</time>
      </trkpt>
      <trkpt lat="39.003" lon="-0.32411">
        <time>2019-03-23T09:31:07Z</time>
      </trkpt>
      <trkpt lat="39.00302" lon="-0.32423">
        <time>2019-03-23T09:31:08Z</time>
      </trkpt>
      <trkpt lat="39.00305" lon="-0.32435">
        <time>2019-03-23T09:31:09Z</time>
      </trkpt>
      <trkpt lat="39.00308" lon="-0.32446">
        <time>2019-03-23T09:31:10Z</time>
      </trkpt>
      <trkpt lat="39.00312" lon="-0.32457">
        <time>2019-03-23T09:31:11Z</time>
      </trkpt>
      <trkpt lat="39.00315" lon="-0.32468">
        <time>2019-03-23T09:31:12Z</time>
      </trkpt>
      <trkpt lat="39.00319" lon="-0.32479">
        <time>2019-03-23T09:31:13Z</time>
      </trkpt>
      <trkpt lat="39.00323" lon="-0.3249">
        <time>2019-03-23T09:31:14Z</time>
      </trkpt>
      <trkpt lat="39.00327" lon="-0.32502">
        <time>2019-03-23T09:31:15Z</time>
      </trkpt>
      <trkpt lat="39.0033" lon="-0.32514">
        <time>2019-03-23T09:31:16Z</time>
      </trkpt>
      <trkpt lat="39.00332" lon="-0.32525">
        <time>2019-03-23T09:31:17Z</time>
      </trkpt>
      <trkpt lat="39.00334" lon="-0.32538">
        <time>2019-03-23T09:31:18Z</time>
      </trkpt>
      <trkpt lat="39.00334" lon="-0.3255">
        <time>2019-03-23T09:31:19Z</time>
      </trkpt>
      <trkpt lat="39.00333" lon="-0.32561">
        <time>2019-03-23T09:31:20Z</time>
      </trkpt>
      <trkpt lat="39.00332" lon="-0.32571">
        <time>2019-03-23T09:31:21Z</time>
      </trkpt>
      <trkpt lat="39.00326" lon="-0.3258">
        <time>2019-03-23T09:31:22Z</time>
      </trkpt>
      <trkpt lat="39.00322" lon="-0.32588">
        <time>2019-03-23T09:31:23Z</time>
      </trkpt>
      <trkpt lat="39.00317" lon="-0.32595">
        <time>2019-03-23T09:31:24Z</time>
      </trkpt>
      <trkpt lat="39.00312" lon="-0.32601">
        <time>2019-03-23T09:31:25Z</time>
      </trkpt>
      <trkpt lat="39.00305" lon="-0.32606">
        <time>2019-03-23T09:31:26Z</time>
      </trkpt>
      <trkpt lat="39.00298" lon="-0.32612">
        <time>2019-03-23T09:31:27Z</time>
      </trkpt>
      <trkpt lat="39.0029" lon="-0.32619">
        <time>2019-03-23T09:31:28Z</time>
      </trkpt>
      <trkpt lat="39.00283" lon="-0.32626">
        <time>2019-03-23T09:31:29Z</time>
      </trkpt>
      <trkpt lat="39.00275" lon="-0.32631">
        <time>2019-03-23T09:31:30Z</time>
      </trkpt>
      <trkpt lat="39.00267" lon="-0.32638">
        <time>2019-03-23T09:31:31Z</time>
      </trkpt>
      <trkpt lat="39.00259" lon="-0.32645">
        <time>2019-03-23T09:31:32Z</time>
      </trkpt>
      <trkpt lat="39.00252" lon="-0.32653">
        <time>2019-03-23T09:31:33Z</time>
      </trkpt>
      <trkpt lat="39.00244" lon="-0.32664">
        <time>2019-03-23T09:31:34Z</time>
      </trkpt>
      <trkpt lat="39.00236" lon="-0.32675">
        <time>2019-03-23T09:31:35Z</time>
      </trkpt>
      <trkpt lat="39.00227" lon="-0.32686">
        <time>2019-03-23T09:31:36Z</time>
      </trkpt>
      <trkpt lat="39.00217" lon="-0.32698">
        <time>2019-03-23T09:31:37Z</time>
      </trkpt>
      <trkpt lat="39.00206" lon="-0.3271">
        <time>2019-03-23T09:31:38Z</time>
      </trkpt>
      <trkpt lat="39.00195" lon="-0.3272">
        <time>2019-03-23T09:31:39Z</time>
      </trkpt>
      <trkpt lat="39.00184" lon="-0.3273">
        <time>2019-03-23T09:31:40Z</time>
      </trkpt>
      <trkpt lat="39.00174" lon="-0.32739">
        <time>2019-03-23T09:31:41Z</time>
      </trkpt>
      <trkpt lat="39.00163" lon="-0.32749">
        <time>2019-03-23T09:31:42Z</time>
      </trkpt>
      <trkpt lat="39.00154" lon="-0.3276">
        <time>2019-03-23T09:31:43Z</time>
      </trkpt>
      <trkpt lat="39.00144" lon="-0.32772">
        <time>2019-03-23T09:31:44Z</time>
      </trkpt>
      <trkpt lat="39.00135" lon="-0.32784">
        <time>2019-03-23T09:31:45Z</time>
      </trkpt>
      <trkpt lat="39.00126" lon="-0.32795">
        <time>2019-03-23T09:31:46Z</time>
      </trkpt>
      <trkpt lat="39.00119" lon="-0.32807">
        <time>2019-03-23T09:31:47Z</time>
      </trkpt>
      <trkpt lat="39.00113" lon="-0.3282">
        <time>2019-03-23T09:31:48Z</time>
      </trkpt>
      <trkpt lat="39.00107" lon="-0.32834">
        <time>2019-03-23T09:31:49Z</time>
      </trkpt>
      <trkpt lat="39.00103" lon="-0.32848">
        <time>2019-03-23T09:31:50Z</time>
      </trkpt>
      <trkpt lat="39.00099" lon="-0.3286">
        <time>2019-03-23T09:31:51Z</time>
      </trkpt>
      <trkpt lat="39.00095" lon="-0.3287">
        <time>2019-03-23T09:31:52Z</time>
      </trkpt>
      <trkpt lat="39.0009" lon="-0.32878">
        <time>2019-03-23T09:31:53Z</time>
      </trkpt>
      <trkpt lat="39.00085" lon="-0.32883">
        <time>2019-03-23T09:31:54Z</time>
      </trkpt>
      <trkpt lat="39.00079" lon="-0.32887">
        <time>2019-03-23T09:31:55Z</time>
      </trkpt>
      <trkpt lat="39.00071" lon="-0.32888">
        <time>2019-03-23T09:31:56Z</time>
      </trkpt>
      <trkpt lat="39.00063" lon="-0.32888">
        <time>2019-03-23T09:31:57Z</time>
      </trkpt>
      <trkpt lat="39.00052" lon="-0.32886">
        <time>2019-03-23T09:31:58Z</time>
      </trkpt>
      <trkpt lat="39.00041" lon="-0.32886">
        <time>2019-03-23T09:31:59Z</time>
      </trkpt>
      <trkpt lat="39.00029" lon="-0.32885">
        <time>2019-03-23T09:32:00Z</time>
      </trkpt>
      <trkpt lat="39.00017" lon="-0.32884">
        <time>2019-03-23T09:32:01Z</time>
      </trkpt>
      <trkpt lat="39.00006" lon="-0.32884">
        <time>2019-03-23T09:32:02Z</time>
      </trkpt>
      <trkpt lat="38.99995" lon="-0.32885">
        <time>2019-03-23T09:32:03Z</time>
      </trkpt>
      <trkpt lat="38.99983" lon="-0.32886">
        <time>2019-03-23T09:32:04Z</time>
      </trkpt>
      <trkpt lat="38.99971" lon="-0.32885">
        <time>2019-03-23T09:32:05Z</time>
      </trkpt>
      <trkpt lat="38.99959" lon="-0.32883">
        <time>2019-03-23T09:32:06Z</time>
      </trkpt>
      <trkpt lat="38.99948" lon="-0.32881">
        <time>2019-03-23T09:32:07Z</time>
      </trkpt>
      <trkpt lat="38.99937" lon="-0.32878">
        <time>2019-03-23T09:32:08Z</time>
      </trkpt>
      <trkpt lat="38.99927" lon="-0.32878">
        <time>2019-03-23T09:32:09Z</time>
      </trkpt>
      <trkpt lat="38.99918" lon="-0.32878">
        <time>2019-03-23T09:32:10Z</time>
      </trkpt>
      <trkpt lat="38.99908" lon="-0.3288">
        <time>2019-03-23T09:32:11Z</time>
      </trkpt>
      <trkpt lat="38.99897" lon="-0.32883">
        <time>2019-03-23T09:32:12Z</time>
      </trkpt>
      <trkpt lat="38.99885" lon="-0.32887">
        <time>2019-03-23T09:32:13Z</time>
      </trkpt>
      <trkpt lat="38.99873" lon="-0.32891">
        <time>2019-03-23T09:32:14Z</time>
      </trkpt>
      <trkpt lat="38.99862" lon="-0.32895">
        <time>2019-03-23T09:32:15Z</time>
      </trkpt>
      <trkpt lat="38.9985" lon="-0.329">
        <time>2019-03-23T09:32:16Z</time>
      </trkpt>
      <trkpt lat="38.99838" lon="-0.32904">
        <time>2019-03-23T09:32:17Z</time>
      </trkpt>
      <trkpt lat="38.99825" lon="-0.32908">
        <time>2019-03-23T09:32:18Z</time>
      </trkpt>
      <trkpt lat="38.99812" lon="-0.32909">
        <time>2019-03-23T09:32:19Z</time>
      </trkpt>
      <trkpt lat="38.99798" lon="-0.3291">
        <time>2019-03-23T09:32:20Z</time>
      </trkpt>
      <trkpt lat="38.99785" lon="-0.3291">
        <time>2019-03-23T09:32:21Z</time>
      </trkpt>
      <trkpt lat="38.99774" lon="-0.3291">
        <time>2019-03-23T09:32:22Z</time>
      </trkpt>
      <trkpt lat="38.99762" lon="-0.32913">
        <time>2019-03-23T09:32:23Z</time>
      </trkpt>
      <trkpt lat="38.99751" lon="-0.32917">
        <time>2019-03-23T09:32:24Z</time>
      </trkpt>
      <trkpt lat="38.99739" lon="-0.3292">
        <time>2019-03-23T09:32:25Z</time>
      </trkpt>
      <trkpt lat="38.99727" lon="-0.32924">
        <time>2019-03-23T09:32:26Z</time>
      </trkpt>
      <trkpt lat="38.99716" lon="-0.32929">
        <time>2019-03-23T09:32:27Z</time>
      </trkpt>
      <trkpt lat="38.99706" lon="-0.32935">
        <time>2019-03-23T09:32:28Z</time>
      </trkpt>
      <trkpt lat="38.99697" lon="-0.32943">
        <time>2019-03-23T09:32:29Z</time>
      </trkpt>
      <trkpt lat="38.99689" lon="-0.32952">
        <time>2019-03-23T09:32:30Z</time>
      </trkpt>
      <trkpt lat="38.99681" lon="-0.32963">
        <time>2019-03-23T09:32:31Z</time>
      </trkpt>
      <trkpt lat="38.99672" lon="-0.32973">
        <time>2019-03-23T09:32:32Z</time>
      </trkpt>
      <trkpt lat="38.99664" lon="-0.32983">
        <time>2019-03-23T09:32:33Z</time>
      </trkpt>
      <trkpt lat="38.99655" lon="-0.32992">
        <time>2019-03-23T09:32:34Z</time>
      </trkpt>
      <trkpt lat="38.99645" lon="-0.33">
        <time>2019-03-23T09:32:35Z</time>
      </trkpt>
      <trkpt lat="38.99634" lon="-0.33008">
        <time>2019-03-23T09:32:36Z</time>
      </trkpt>
      <trkpt lat="38.99624" lon="-0.33016">
        <time>2019-03-23T09:32:37Z</time>
      </trkpt>
      <trkpt lat="38.99613" lon="-0.33023">
        <time>2019-03-23T09:32:38Z</time>
      </trkpt>
      <trkpt lat="38.99603" lon="-0.33032">
        <time>2019-03-23T09:32:39Z</time>
      </trkpt>
      <trkpt lat="38.99593" lon="-0.3304">
        <time>2019-03-23T09:32:40Z</time>
      </trkpt>
      <trkpt lat="38.99584" lon="-0.33049">
        <time>2019-03-23T09:32:41Z</time>
      </trkpt>
      <trkpt lat="38.99575" lon="-0.33061">
        <time>2019-03-23T09:32:42Z</time>
      </trkpt>
      <trkpt lat="38.99568" lon="-0.33073">
        <time>2019-03-23T09:32:43Z</time>
      </trkpt>
      <trkpt lat="38.99561" lon="-0.33082">
        <time>2019-03-23T09:32:44Z</time>
      </trkpt>
      <trkpt lat="38.99553" lon="-0.33089">
        <time>2019-03-23T09:32:45Z</time>
      </trkpt>
      <trkpt lat="38.99544" lon="-0.33096">
        <time>2019-03-23T09:32:46Z</time>
      </trkpt>
      <trkpt lat="38.99535" lon="-0.33103">
        <time>2019-03-23T09:32:47Z</time>
      </trkpt>
      <trkpt lat="38.99528" lon="-0.3311">
        <time>2019-03-23T09:32:48Z</time>
      </trkpt>
      <trkpt lat="38.99524" lon="-0.33118">
        <time>2019-03-23T09:32:49Z</time>
      </trkpt>
      <trkpt lat="38.99523" lon="-0.33128">
        <time>2019-03-23T09:32:50Z</time>
      </trkpt>
      <trkpt lat="38.99522" lon="-0.3314">
        <time>2019-03-23T09:32:51Z</time>
      </trkpt>
      <trkpt lat="38.9952" lon="-0.33153">
        <time>2019-03-23T09:32:52Z</time>
      </trkpt>
      <trkpt lat="38.99515" lon="-0.33167">
        <time>2019-03-23T09:32:53Z</time>
      </trkpt>
      <trkpt lat="38.99509" lon="-0.33183">
        <time>2019-03-23T09:32:54Z</time>
      </trkpt>
      <trkpt lat="38.99502" lon="-0.33197">
        <time>2019-03-23T09:32:55Z</time>
      </trkpt>
      <trkpt lat="38.99495" lon="-0.33211">
        <time>2019-03-23T09:32:56Z</time>
      </trkpt>
      <trkpt lat="38.99488" lon="-0.33223">
        <time>2019-03-23T09:32:57Z</time>
      </trkpt>
      <trkpt lat="38.9948" lon="-0.33233">
        <time>2019-03-23T09:32:58Z</time>
      </trkpt>
      <trkpt lat="38.9947" lon="-0.33242">
        <time>2019-03-23T09:32:59Z</time>
      </trkpt>
      <trkpt lat="38.99458" lon="-0.33251">
        <time>2019-03-23T09:33:00Z</time>
      </trkpt>
      <trkpt lat="38.99445" lon="-0.33261">
        <time>2019-03-23T09:33:01Z</time>
      </trkpt>
      <trkpt lat="38.99432" lon="-0.33272">
        <time>2019-03-23T09:33:02Z</time>
      </trkpt>
      <trkpt lat="38.9942" lon="-0.3328">
        <time>2019-03-23T09:33:03Z</time>
      </trkpt>
      <trkpt lat="38.99407" lon="-0.33287">
        <time>2019-03-23T09:33:04Z</time>
      </trkpt>
      <trkpt lat="38.99394" lon="-0.33294">
        <time>2019-03-23T09:33:05Z</time>
      </trkpt>
      <trkpt lat="38.99384" lon="-0.33303">
        <time>2019-03-23T09:33:06Z</time>
      </trkpt>
      <trkpt lat="38.99376" lon="-0.33314">
        <time>2019-03-23T09:33:07Z</time>
      </trkpt>
      <trkpt lat="38.99369" lon="-0.33326">
        <time>2019-03-23T09:33:08Z</time>
      </trkpt>
      <trkpt lat="38.99362" lon="-0.33334">
        <time>2019-03-23T09:33:09Z</time>
      </trkpt>
      <trkpt lat="38.99353" lon="-0.33338">
        <time>2019-03-23T09:33:10Z</time>
      </trkpt>
      <trkpt lat="38.99343" lon="-0.3334">
        <time>2019-03-23T09:33:11Z</time>
      </trkpt>
      <trkpt lat="38.99337" lon="-0.33343">
        <time>2019-03-23T09:33:12Z</time>
      </trkpt>
      <trkpt lat="38.99331" lon="-0.33348">
        <time>2019-03-23T09:33:13Z</time>
      </trkpt>
      <trkpt lat="38.99327" lon="-0.33353">
        <time>2019-03-23T09:33:14Z</time>
      </trkpt>
      <trkpt lat="38.99324" lon="-0.3336">
        <time>2019-03-23T09:33:15Z</time>
      </trkpt>
      <trkpt lat="38.9932" lon="-0.3337">
        <time>2019-03-23T09:33:16Z</time>
      </trkpt>
      <trkpt lat="38.99315" lon="-0.33381">
        <time>2019-03-23T09:33:17Z</time>
      </trkpt>
      <trkpt lat="38.9931" lon="-0.33394">
        <time>2019-03-23T09:33:18Z</time>
      </trkpt>
      <trkpt lat="38.99304" lon="-0.33406">
        <time>2019-03-23T09:33:19Z</time>
      </trkpt>
      <trkpt lat="38.993" lon="-0.33418">
        <time>2019-03-23T09:33:20Z</time>
      </trkpt>
      <trkpt lat="38.99297" lon="-0.33429">
        <time>2019-03-23T09:33:21Z</time>
      </trkpt>
      <trkpt lat="38.99299" lon="-0.33439">
        <time>2019-03-23T09:33:22Z</time>
      </trkpt>
      <trkpt lat="38.99301" lon="-0.33448">
        <time>2019-03-23T09:33:23Z</time>
      </trkpt>
      <trkpt lat="38.99306" lon="-0.33458">
        <time>2019-03-23T09:33:24Z</time>
      </trkpt>
      <trkpt lat="38.99311" lon="-0.33468">
        <time>2019-03-23T09:33:25Z</time>
      </trkpt>
      <trkpt lat="38.99316" lon="-0.3348">
        <time>2019-03-23T09:33:26Z</time>
      </trkpt>
      <trkpt lat="38.99323" lon="-0.33492">
        <time>2019-03-23T09:33:27Z</time>
      </trkpt>
      <trkpt lat="38.9933" lon="-0.33504">
        <time>2019-03-23T09:33:28Z</time>
      </trkpt>
      <trkpt lat="38.99336" lon="-0.33516">
        <time>2019-03-23T09:33:29Z</time>
      </trkpt>
      <trkpt lat="38.99341" lon="-0.33526">
        <time>2019-03-23T09:33:30Z</time>
      </trkpt>
      <trkpt lat="38.99345" lon="-0.33537">
        <time>2019-03-23T09:33:31Z</time>
      </trkpt>
      <trkpt lat="38.99347" lon="-0.33547">
        <time>2019-03-23T09:33:32Z</time>
      </trkpt>
      <trkpt lat="38.99348" lon="-0.33557">
        <time>2019-03-23T09:33:33Z</time>
      </trkpt>
      <trkpt lat="38.99349" lon="-0.33568">
        <time>2019-03-23T09:33:34Z</time>
      </trkpt>
      <trkpt lat="38.99348" lon="-0.33582">
        <time>2019-03-23T09:33:35Z</time>
      </trkpt>
      <trkpt lat="38.99348" lon="-0.33596">
        <time>2019-03-23T09:33:36Z</time>
      </trkpt>
      <trkpt lat="38.99348" lon="-0.33611">
        <time>2019-03-23T09:33:37Z</time>
      </trkpt>
      <trkpt lat="38.9935" lon="-0.33621">
        <time>2019-03-23T09:33:38Z</time>
      </trkpt>
      <trkpt lat="38.99351" lon="-0.33629">
        <time>2019-03-23T09:33:39Z</time>
      </trkpt>
      <trkpt lat="38.99353" lon="-0.33635">
        <time>2019-03-23T09:33:40Z</time>
      </trkpt>
      <trkpt lat="38.99355" lon="-0.33641">
        <time>2019-03-23T09:33:41Z</time>
      </trkpt>
      <trkpt lat="38.99357" lon="-0.33645">
        <time>2019-03-23T09:33:42Z</time>
      </trkpt>
      <trkpt lat="38.99358" lon="-0.33649">
        <time>2019-03-23T09:33:43Z</time>
      </trkpt>
      <trkpt lat="38.99358" lon="-0.3365">
        <time>2019-03-23T09:33:44Z</time>
      </trkpt>
      <trkpt lat="38.99357" lon="-0.33651">
        <time>2019-03-23T09:33:47Z</time>
      </trkpt>
      <trkpt lat="38.99358" lon="-0.33654">
        <time>2019-03-23T09:33:48Z</time>
      </trkpt>
      <trkpt lat="38.9936" lon="-0.33657">
        <time>2019-03-23T09:33:49Z</time>
      </trkpt>
      <trkpt lat="38.99363" lon="-0.33659">
        <time>2019-03-23T09:33:50Z</time>
      </trkpt>
      <trkpt lat="38.99364" lon="-0.33662">
        <time>2019-03-23T09:33:51Z</time>
      </trkpt>
      <trkpt lat="38.99362" lon="-0.33664">
        <time>2019-03-23T09:33:52Z</time>
      </trkpt>
      <trkpt lat="38.9936" lon="-0.33664">
        <time>2019-03-23T09:33:59Z</time>
      </trkpt>
      <trkpt lat="38.99359" lon="-0.33662">
        <time>2019-03-23T09:34:00Z</time>
      </trkpt>
      <trkpt lat="38.99358" lon="-0.33659">
        <time>2019-03-23T09:34:01Z</time>
      </trkpt>
      <trkpt lat="38.99356" lon="-0.33652">
        <time>2019-03-23T09:34:02Z</time>
      </trkpt>
      <trkpt lat="38.99354" lon="-0.33643">
        <time>2019-03-23T09:34:03Z</time>
      </trkpt>
      <trkpt lat="38.99351" lon="-0.33631">
        <time>2019-03-23T09:34:04Z</time>
      </trkpt>
      <trkpt lat="38.99349" lon="-0.33618">
        <time>2019-03-23T09:34:05Z</time>
      </trkpt>
      <trkpt lat="38.99347" lon="-0.33604">
        <time>2019-03-23T09:34:06Z</time>
      </trkpt>
      <trkpt lat="38.99347" lon="-0.3359">
        <time>2019-03-23T09:34:07Z</time>
      </trkpt>
      <trkpt lat="38.99348" lon="-0.33575">
        <time>2019-03-23T09:34:08Z</time>
      </trkpt>
      <trkpt lat="38.99348" lon="-0.33562">
        <time>2019-03-23T09:34:09Z</time>
      </trkpt>
      <trkpt lat="38.99347" lon="-0.33551">
        <time>2019-03-23T09:34:10Z</time>
      </trkpt>
      <trkpt lat="38.99346" lon="-0.33542">
        <time>2019-03-23T09:34:11Z</time>
      </trkpt>
      <trkpt lat="38.99343" lon="-0.33533">
        <time>2019-03-23T09:34:12Z</time>
      </trkpt>
      <trkpt lat="38.99339" lon="-0.33523">
        <time>2019-03-23T09:34:13Z</time>
      </trkpt>
      <trkpt lat="38.99332" lon="-0.33512">
        <time>2019-03-23T09:34:14Z</time>
      </trkpt>
      <trkpt lat="38.99325" lon="-0.33499">
        <time>2019-03-23T09:34:15Z</time>
      </trkpt>
      <trkpt lat="38.99317" lon="-0.33484">
        <time>2019-03-23T09:34:16Z</time>
      </trkpt>
      <trkpt lat="38.99311" lon="-0.33471">
        <time>2019-03-23T09:34:17Z</time>
      </trkpt>
      <trkpt lat="38.99306" lon="-0.33461">
        <time>2019-03-23T09:34:18Z</time>
      </trkpt>
      <trkpt lat="38.99302" lon="-0.33452">
        <time>2019-03-23T09:34:19Z</time>
      </trkpt>
      <trkpt lat="38.99298" lon="-0.33443">
        <time>2019-03-23T09:34:20Z</time>
      </trkpt>
      <trkpt lat="38.99296" lon="-0.33435">
        <time>2019-03-23T09:34:21Z</time>
      </trkpt>
      <trkpt lat="38.99298" lon="-0.33425">
        <time>2019-03-23T09:34:22Z</time>
      </trkpt>
      <trkpt lat="38.99302" lon="-0.33413">
        <time>2019-03-23T09:34:23Z</time>
      </trkpt>
      <trkpt lat="38.99308" lon="-0.33401">
        <time>2019-03-23T09:34:24Z</time>
      </trkpt>
      <trkpt lat="38.99314" lon="-0.33387">
        <time>2019-03-23T09:34:25Z</time>
      </trkpt>
      <trkpt lat="38.99319" lon="-0.33374">
        <time>2019-03-23T09:34:26Z</time>
      </trkpt>
      <trkpt lat="38.99322" lon="-0.33366">
        <time>2019-03-23T09:34:27Z</time>
      </trkpt>
      <trkpt lat="38.99324" lon="-0.33361">
        <time>2019-03-23T09:34:28Z</time>
      </trkpt>
      <trkpt lat="38.99325" lon="-0.33357">
        <time>2019-03-23T09:34:29Z</time>
      </trkpt>
      <trkpt lat="38.99326" lon="-0.33354">
        <time>2019-03-23T09:34:30Z</time>
      </trkpt>
      <trkpt lat="38.99327" lon="-0.33352">
        <time>2019-03-23T09:34:31Z</time>
      </trkpt>
      <trkpt lat="38.99328" lon="-0.33352">
        <time>2019-03-23T09:34:55Z</time>
      </trkpt>
      <trkpt lat="38.99328" lon="-0.33349">
        <time>2019-03-23T09:34:56Z</time>
      </trkpt>
      <trkpt lat="38.99329" lon="-0.33347">
        <time>2019-03-23T09:34:57Z</time>
      </trkpt>
      <trkpt lat="38.99329" lon="-0.33345">
        <time>2019-03-23T09:34:58Z</time>
      </trkpt>
      <trkpt lat="38.9933" lon="-0.33345">
        <time>2019-03-23T09:34:59Z</time>
      </trkpt>
      <trkpt lat="38.99331" lon="-0.33344">
        <time>2019-03-23T09:35:00Z</time>
      </trkpt>
      <trkpt lat="38.9933" lon="-0.33345">
        <time>2019-03-23T09:35:03Z</time>
      </trkpt>
      <trkpt lat="38.99329" lon="-0.33345">
        <time>2019-03-23T09:35:06Z</time>
      </trkpt>
      <trkpt lat="38.99329" lon="-0.33347">
        <time>2019-03-23T09:35:07Z</time>
      </trkpt>
      <trkpt lat="38.99328" lon="-0.3335">
        <time>2019-03-23T09:35:08Z</time>
      </trkpt>
      <trkpt lat="38.99326" lon="-0.33351">
        <time>2019-03-23T09:35:09Z</time>
      </trkpt>
      <trkpt lat="38.99325" lon="-0.33352">
        <time>2019-03-23T09:35:10Z</time>
      </trkpt>
      <trkpt lat="38.99325" lon="-0.33354">
        <time>2019-03-23T09:35:11Z</time>
      </trkpt>
      <trkpt lat="38.99327" lon="-0.33357">
        <time>2019-03-23T09:35:42Z</time>
      </trkpt>
      <trkpt lat="38.99325" lon="-0.3336">
        <time>2019-03-23T09:35:43Z</time>
      </trkpt>
      <trkpt lat="38.99323" lon="-0.33365">
        <time>2019-03-23T09:35:44Z</time>
      </trkpt>
      <trkpt lat="38.99321" lon="-0.33372">
        <time>2019-03-23T09:35:45Z</time>
      </trkpt>
      <trkpt lat="38.99318" lon="-0.33379">
        <time>2019-03-23T09:35:46Z</time>
      </trkpt>
      <trkpt lat="38.99315" lon="-0.33387">
        <time>2019-03-23T09:35:47Z</time>
      </trkpt>
      <trkpt lat="38.9931" lon="-0.33396">
        <time>2019-03-23T09:35:48Z</time>
      </trkpt>
      <trkpt lat="38.99306" lon="-0.33407">
        <time>2019-03-23T09:35:49Z</time>
      </trkpt>
      <trkpt lat="38.99302" lon="-0.33417">
        <time>2019-03-23T09:35:50Z</time>
      </trkpt>
      <trkpt lat="38.99299" lon="-0.33428">
        <time>2019-03-23T09:35:51Z</time>
      </trkpt>
      <trkpt lat="38.99299" lon="-0.33436">
        <time>2019-03-23T09:35:52Z</time>
      </trkpt>
      <trkpt lat="38.99299" lon="-0.33444">
        <time>2019-03-23T09:35:53Z</time>
      </trkpt>
      <trkpt lat="38.99303" lon="-0.33453">
        <time>2019-03-23T09:35:54Z</time>
      </trkpt>
      <trkpt lat="38.99307" lon="-0.33459">
        <time>2019-03-23T09:35:55Z</time>
      </trkpt>
      <trkpt lat="38.99312" lon="-0.33469">
        <time>2019-03-23T09:35:56Z</time>
      </trkpt>
      <trkpt lat="38.99316" lon="-0.33479">
        <time>2019-03-23T09:35:57Z</time>
      </trkpt>
      <trkpt lat="38.99322" lon="-0.33491">
        <time>2019-03-23T09:35:58Z</time>
      </trkpt>
      <trkpt lat="38.9933" lon="-0.33504">
        <time>2019-03-23T09:35:59Z</time>
      </trkpt>
      <trkpt lat="38.99336" lon="-0.33514">
        <time>2019-03-23T09:36:00Z</time>
      </trkpt>
      <trkpt lat="38.99341" lon="-0.33526">
        <time>2019-03-23T09:36:01Z</time>
      </trkpt>
      <trkpt lat="38.99345" lon="-0.33536">
        <time>2019-03-23T09:36:02Z</time>
      </trkpt>
      <trkpt lat="38.99347" lon="-0.33547">
        <time>2019-03-23T09:36:03Z</time>
      </trkpt>
      <trkpt lat="38.99348" lon="-0.3356">
        <time>2019-03-23T09:36:04Z</time>
      </trkpt>
      <trkpt lat="38.99348" lon="-0.33573">
        <time>2019-03-23T09:36:05Z</time>
      </trkpt>
      <trkpt lat="38.99347" lon="-0.33589">
        <time>2019-03-23T09:36:06Z</time>
      </trkpt>
      <trkpt lat="38.99347" lon="-0.33607">
        <time>2019-03-23T09:36:07Z</time>
      </trkpt>
      <trkpt lat="38.99348" lon="-0.33619">
        <time>2019-03-23T09:36:08Z</time>
      </trkpt>
      <trkpt lat="38.99351" lon="-0.33633">
        <time>2019-03-23T09:36:09Z</time>
      </trkpt>
      <trkpt lat="38.99356" lon="-0.33651">
        <time>2019-03-23T09:36:10Z</time>
      </trkpt>
      <trkpt lat="38.99359" lon="-0.33665">
        <time>2019-03-23T09:36:11Z</time>
      </trkpt>
      <trkpt lat="38.99363" lon="-0.33682">
        <time>2019-03-23T09:36:12Z</time>
      </trkpt>
      <trkpt lat="38.99366" lon="-0.33695">
        <time>2019-03-23T09:36:13Z</time>
      </trkpt>
      <trkpt lat="38.99369" lon="-0.33707">
        <time>2019-03-23T09:36:14Z</time>
      </trkpt>
      <trkpt lat="38.99374" lon="-0.3372">
        <time>2019-03-23T09:36:15Z</time>
      </trkpt>
      <trkpt lat="38.99378" lon="-0.33728">
        <time>2019-03-23T09:36:16Z</time>
      </trkpt>
      <trkpt lat="38.99384" lon="-0.33735">
        <time>2019-03-23T09:36:17Z</time>
      </trkpt>
      <trkpt lat="38.9939" lon="-0.3374">
        <time>2019-03-23T09:36:18Z</time>
      </trkpt>
      <trkpt lat="38.99396" lon="-0.33741">
        <time>2019-03-23T09:36:19Z</time>
      </trkpt>
      <trkpt lat="38.99404" lon="-0.33741">
        <time>2019-03-23T09:36:20Z</time>
      </trkpt>
      <trkpt lat="38.9941" lon="-0.3374">
        <time>2019-03-23T09:36:21Z</time>
      </trkpt>
      <trkpt lat="38.99418" lon="-0.33736">
        <time>2019-03-23T09:36:22Z</time>
      </trkpt>
      <trkpt lat="38.99427" lon="-0.33731">
        <time>2019-03-23T09:36:23Z</time>
      </trkpt>
      <trkpt lat="38.99435" lon="-0.33726">
        <time>2019-03-23T09:36:24Z</time>
      </trkpt>
      <trkpt lat="38.99443" lon="-0.33722">
        <time>2019-03-23T09:36:25Z</time>
      </trkpt>
      <trkpt lat="38.99449" lon="-0.33721">
        <time>2019-03-23T09:36:26Z</time>
      </trkpt>
      <trkpt lat="38.99456" lon="-0.33723">
        <time>2019-03-23T09:36:27Z</time>
      </trkpt>
      <trkpt lat="38.99464" lon="-0.33729">
        <time>2019-03-23T09:36:28Z</time>
      </trkpt>
      <trkpt lat="38.99474" lon="-0.33736">
        <time>2019-03-23T09:36:29Z</time>
      </trkpt>
      <trkpt lat="38.99486" lon="-0.33745">
        <time>2019-03-23T09:36:30Z</time>
      </trkpt>
      <trkpt lat="38.99496" lon="-0.33755">
        <time>2019-03-23T09:36:31Z</time>
      </trkpt>
      <trkpt lat="38.99504" lon="-0.33767">
        <time>2019-03-23T09:36:32Z</time>
      </trkpt>
      <trkpt lat="38.99512" lon="-0.3378">
        <time>2019-03-23T09:36:33Z</time>
      </trkpt>
      <trkpt lat="38.99518" lon="-0.33793">
        <time>2019-03-23T09:36:34Z</time>
      </trkpt>
      <trkpt lat="38.99524" lon="-0.33809">
        <time>2019-03-23T09:36:35Z</time>
      </trkpt>
      <trkpt lat="38.99529" lon="-0.33824">
        <time>2019-03-23T09:36:36Z</time>
      </trkpt>
      <trkpt lat="38.99534" lon="-0.33837">
        <time>2019-03-23T09:36:37Z</time>
      </trkpt>
      <trkpt lat="38.99539" lon="-0.3385">
        <time>2019-03-23T09:36:38Z</time>
      </trkpt>
      <trkpt lat="38.99544" lon="-0.33863">
        <time>2019-03-23T09:36:39Z</time>
      </trkpt>
      <trkpt lat="38.99545" lon="-0.33875">
        <time>2019-03-23T09:36:40Z</time>
      </trkpt>
      <trkpt lat="38.99547" lon="-0.3389">
        <time>2019-03-23T09:36:41Z</time>
      </trkpt>
      <trkpt lat="38.9955" lon="-0.33903">
        <time>2019-03-23T09:36:42Z</time>
      </trkpt>
      <trkpt lat="38.99553" lon="-0.33915">
        <time>2019-03-23T09:36:43Z</time>
      </trkpt>
      <trkpt lat="38.9956" lon="-0.33929">
        <time>2019-03-23T09:36:44Z</time>
      </trkpt>
      <trkpt lat="38.99563" lon="-0.33941">
        <time>2019-03-23T09:36:45Z</time>
      </trkpt>
      <trkpt lat="38.99568" lon="-0.33954">
        <time>2019-03-23T09:36:46Z</time>
      </trkpt>
      <trkpt lat="38.99568" lon="-0.33966">
        <time>2019-03-23T09:36:47Z</time>
      </trkpt>
      <trkpt lat="38.99567" lon="-0.33974">
        <time>2019-03-23T09:36:48Z</time>
      </trkpt>
      <trkpt lat="38.99565" lon="-0.33982">
        <time>2019-03-23T09:36:49Z</time>
      </trkpt>
      <trkpt lat="38.99561" lon="-0.33988">
        <time>2019-03-23T09:36:50Z</time>
      </trkpt>
      <trkpt lat="38.99556" lon="-0.33994">
        <time>2019-03-23T09:36:51Z</time>
      </trkpt>
      <trkpt lat="38.99554" lon="-0.34001">
        <time>2019-03-23T09:36:52Z</time>
      </trkpt>
      <trkpt lat="38.99554" lon="-0.34006">
        <time>2019-03-23T09:36:53Z</time>
      </trkpt>
      <trkpt lat="38.99558" lon="-0.34011">
        <time>2019-03-23T09:36:54Z</time>
      </trkpt>
      <trkpt lat="38.99564" lon="-0.34016">
        <time>2019-03-23T09:36:55Z</time>
      </trkpt>
      <trkpt lat="38.99571" lon="-0.3402">
        <time>2019-03-23T09:36:56Z</time>
      </trkpt>
      <trkpt lat="38.99576" lon="-0.34027">
        <time>2019-03-23T09:36:57Z</time>
      </trkpt>
      <trkpt lat="38.99578" lon="-0.34036">
        <time>2019-03-23T09:36:58Z</time>
      </trkpt>
      <trkpt lat="38.99577" lon="-0.34043">
        <time>2019-03-23T09:36:59Z</time>
      </trkpt>
      <trkpt lat="38.99572" lon="-0.34051">
        <time>2019-03-23T09:37:00Z</time>
      </trkpt>
      <trkpt lat="38.99566" lon="-0.34055">
        <time>2019-03-23T09:37:01Z</time>
      </trkpt>
      <trkpt lat="38.99558" lon="-0.34056">
        <time>2019-03-23T09:37:02Z</time>
      </trkpt>
      <trkpt lat="38.99549" lon="-0.34053">
        <time>2019-03-23T09:37:03Z</time>
      </trkpt>
      <trkpt lat="38.99541" lon="-0.34048">
        <time>2019-03-23T09:37:04Z</time>
      </trkpt>
      <trkpt lat="38.99533" lon="-0.34041">
        <time>2019-03-23T09:37:05Z</time>
      </trkpt>
      <trkpt lat="38.99525" lon="-0.34037">
        <time>2019-03-23T09:37:06Z</time>
      </trkpt>
      <trkpt lat="38.99518" lon="-0.34036">
        <time>2019-03-23T09:37:07Z</time>
      </trkpt>
      <trkpt lat="38.99513" lon="-0.3404">
        <time>2019-03-23T09:37:08Z</time>
      </trkpt>
      <trkpt lat="38.99512" lon="-0.34046">
        <time>2019-03-23T09:37:09Z</time>
      </trkpt>
      <trkpt lat="38.99512" lon="-0.34052">
        <time>2019-03-23T09:37:10Z</time>
      </trkpt>
      <trkpt lat="38.99515" lon="-0.34059">
        <time>2019-03-23T09:37:11Z</time>
      </trkpt>
      <trkpt lat="38.9952" lon="-0.34069">
        <time>2019-03-23T09:37:12Z</time>
      </trkpt>
      <trkpt lat="38.99524" lon="-0.3408">
        <time>2019-03-23T09:37:13Z</time>
      </trkpt>
      <trkpt lat="38.99527" lon="-0.34093">
        <time>2019-03-23T09:37:14Z</time>
      </trkpt>
      <trkpt lat="38.9953" lon="-0.34105">
        <time>2019-03-23T09:37:15Z</time>
      </trkpt>
      <trkpt lat="38.99534" lon="-0.3412">
        <time>2019-03-23T09:37:16Z</time>
      </trkpt>
      <trkpt lat="38.99534" lon="-0.34134">
        <time>2019-03-23T09:37:17Z</time>
      </trkpt>
      <trkpt lat="38.99533" lon="-0.34148">
        <time>2019-03-23T09:37:18Z</time>
      </trkpt>
      <trkpt lat="38.9953" lon="-0.34164">
        <time>2019-03-23T09:37:19Z</time>
      </trkpt>
      <trkpt lat="38.99525" lon="-0.34179">
        <time>2019-03-23T09:37:20Z</time>
      </trkpt>
      <trkpt lat="38.99518" lon="-0.34196">
        <time>2019-03-23T09:37:21Z</time>
      </trkpt>
      <trkpt lat="38.99512" lon="-0.34213">
        <time>2019-03-23T09:37:22Z</time>
      </trkpt>
      <trkpt lat="38.99507" lon="-0.34228">
        <time>2019-03-23T09:37:23Z</time>
      </trkpt>
      <trkpt lat="38.99503" lon="-0.34242">
        <time>2019-03-23T09:37:24Z</time>
      </trkpt>
      <trkpt lat="38.99497" lon="-0.34253">
        <time>2019-03-23T09:37:25Z</time>
      </trkpt>
      <trkpt lat="38.99488" lon="-0.34263">
        <time>2019-03-23T09:37:26Z</time>
      </trkpt>
      <trkpt lat="38.99475" lon="-0.34274">
        <time>2019-03-23T09:37:27Z</time>
      </trkpt>
      <trkpt lat="38.99463" lon="-0.34286">
        <time>2019-03-23T09:37:28Z</time>
      </trkpt>
      <trkpt lat="38.99451" lon="-0.343">
        <time>2019-03-23T09:37:29Z</time>
      </trkpt>
      <trkpt lat="38.9944" lon="-0.34315">
        <time>2019-03-23T09:37:30Z</time>
      </trkpt>
      <trkpt lat="38.99431" lon="-0.34329">
        <time>2019-03-23T09:37:31Z</time>
      </trkpt>
      <trkpt lat="38.9942" lon="-0.3434">
        <time>2019-03-23T09:37:32Z</time>
      </trkpt>
      <trkpt lat="38.99409" lon="-0.34345">
        <time>2019-03-23T09:37:33Z</time>
      </trkpt>
      <trkpt lat="38.99396" lon="-0.34338">
        <time>2019-03-23T09:37:34Z</time>
      </trkpt>
      <trkpt lat="38.9938" lon="-0.34339">
        <time>2019-03-23T09:37:35Z</time>
      </trkpt>
      <trkpt lat="38.99364" lon="-0.34339">
        <time>2019-03-23T09:37:36Z</time>
      </trkpt>
      <trkpt lat="38.99348" lon="-0.3434">
        <time>2019-03-23T09:37:37Z</time>
      </trkpt>
      <trkpt lat="38.99334" lon="-0.34341">
        <time>2019-03-23T09:37:38Z</time>
      </trkpt>
      <trkpt lat="38.99321" lon="-0.34342">
        <time>2019-03-23T09:37:39Z</time>
      </trkpt>
      <trkpt lat="38.99312" lon="-0.34353">
        <time>2019-03-23T09:37:40Z</time>
      </trkpt>
      <trkpt lat="38.99304" lon="-0.3436">
        <time>2019-03-23T09:37:41Z</time>
      </trkpt>
      <trkpt lat="38.99297" lon="-0.34371">
        <time>2019-03-23T09:37:42Z</time>
      </trkpt>
      <trkpt lat="38.9929" lon="-0.34388">
        <time>2019-03-23T09:37:43Z</time>
      </trkpt>
      <trkpt lat="38.99282" lon="-0.34403">
        <time>2019-03-23T09:37:44Z</time>
      </trkpt>
      <trkpt lat="38.9927" lon="-0.34418">
        <time>2019-03-23T09:37:45Z</time>
      </trkpt>
      <trkpt lat="38.99258" lon="-0.34431">
        <time>2019-03-23T09:37:46Z</time>
      </trkpt>
      <trkpt lat="38.99248" lon="-0.34443">
        <time>2019-03-23T09:37:47Z</time>
      </trkpt>
      <trkpt lat="38.99239" lon="-0.34457">
        <time>2019-03-23T09:37:48Z</time>
      </trkpt>
      <trkpt lat="38.99234" lon="-0.34469">
        <time>2019-03-23T09:37:49Z</time>
      </trkpt>
      <trkpt lat="38.99233" lon="-0.34483">
        <time>2019-03-23T09:37:50Z</time>
      </trkpt>
      <trkpt lat="38.99235" lon="-0.34498">
        <time>2019-03-23T09:37:51Z</time>
      </trkpt>
      <trkpt lat="38.99236" lon="-0.34512">
        <time>2019-03-23T09:37:52Z</time>
      </trkpt>
      <trkpt lat="38.99235" lon="-0.34529">
        <time>2019-03-23T09:37:53Z</time>
      </trkpt>
      <trkpt lat="38.99233" lon="-0.34543">
        <time>2019-03-23T09:37:54Z</time>
      </trkpt>
      <trkpt lat="38.9923" lon="-0.34559">
        <time>2019-03-23T09:37:55Z</time>
      </trkpt>
      <trkpt lat="38.99225" lon="-0.34577">
        <time>2019-03-23T09:37:56Z</time>
      </trkpt>
      <trkpt lat="38.99219" lon="-0.34594">
        <time>2019-03-23T09:37:57Z</time>
      </trkpt>
      <trkpt lat="38.99213" lon="-0.34611">
        <time>2019-03-23T09:37:58Z</time>
      </trkpt>
      <trkpt lat="38.99204" lon="-0.34626">
        <time>2019-03-23T09:37:59Z</time>
      </trkpt>
      <trkpt lat="38.99195" lon="-0.34641">
        <time>2019-03-23T09:38:00Z</time>
      </trkpt>
      <trkpt lat="38.99183" lon="-0.34654">
        <time>2019-03-23T09:38:01Z</time>
      </trkpt>
      <trkpt lat="38.99174" lon="-0.34666">
        <time>2019-03-23T09:38:02Z</time>
      </trkpt>
      <trkpt lat="38.99168" lon="-0.34677">
        <time>2019-03-23T09:38:03Z</time>
      </trkpt>
      <trkpt lat="38.99164" lon="-0.3469">
        <time>2019-03-23T09:38:04Z</time>
      </trkpt>
      <trkpt lat="38.99162" lon="-0.34701">
        <time>2019-03-23T09:38:05Z</time>
      </trkpt>
      <trkpt lat="38.99162" lon="-0.3471">
        <time>2019-03-23T09:38:06Z</time>
      </trkpt>
      <trkpt lat="38.99166" lon="-0.34714">
        <time>2019-03-23T09:38:07Z</time>
      </trkpt>
      <trkpt lat="38.99171" lon="-0.34713">
        <time>2019-03-23T09:38:08Z</time>
      </trkpt>
      <trkpt lat="38.99175" lon="-0.34708">
        <time>2019-03-23T09:38:09Z</time>
      </trkpt>
      <trkpt lat="38.99181" lon="-0.34706">
        <time>2019-03-23T09:38:10Z</time>
      </trkpt>
      <trkpt lat="38.99187" lon="-0.34706">
        <time>2019-03-23T09:38:11Z</time>
      </trkpt>
      <trkpt lat="38.99194" lon="-0.34712">
        <time>2019-03-23T09:38:12Z</time>
      </trkpt>
      <trkpt lat="38.99199" lon="-0.34722">
        <time>2019-03-23T09:38:13Z</time>
      </trkpt>
      <trkpt lat="38.99202" lon="-0.34735">
        <time>2019-03-23T09:38:14Z</time>
      </trkpt>
      <trkpt lat="38.99201" lon="-0.34749">
        <time>2019-03-23T09:38:15Z</time>
      </trkpt>
      <trkpt lat="38.99198" lon="-0.34763">
        <time>2019-03-23T09:38:16Z</time>
      </trkpt>
      <trkpt lat="38.99194" lon="-0.34777">
        <time>2019-03-23T09:38:17Z</time>
      </trkpt>
      <trkpt lat="38.99192" lon="-0.34791">
        <time>2019-03-23T09:38:18Z</time>
      </trkpt>
      <trkpt lat="38.9919" lon="-0.34798">
        <time>2019-03-23T09:38:19Z</time>
      </trkpt>
      <trkpt lat="38.99189" lon="-0.34806">
        <time>2019-03-23T09:38:20Z</time>
      </trkpt>
      <trkpt lat="38.99186" lon="-0.34809">
        <time>2019-03-23T09:38:21Z</time>
      </trkpt>
      <trkpt lat="38.99181" lon="-0.34811">
        <time>2019-03-23T09:38:22Z</time>
      </trkpt>
      <trkpt lat="38.99175" lon="-0.34813">
        <time>2019-03-23T09:38:23Z</time>
      </trkpt>
      <trkpt lat="38.9917" lon="-0.34814">
        <time>2019-03-23T09:38:24Z</time>
      </trkpt>
      <trkpt lat="38.99164" lon="-0.34814">
        <time>2019-03-23T09:38:25Z</time>
      </trkpt>
      <trkpt lat="38.99159" lon="-0.34815">
        <time>2019-03-23T09:38:26Z</time>
      </trkpt>
      <trkpt lat="38.99154" lon="-0.34814">
        <time>2019-03-23T09:38:27Z</time>
      </trkpt>
      <trkpt lat="38.9915" lon="-0.34814">
        <time>2019-03-23T09:38:28Z</time>
      </trkpt>
      <trkpt lat="38.99144" lon="-0.34814">
        <time>2019-03-23T09:38:29Z</time>
      </trkpt>
      <trkpt lat="38.99137" lon="-0.34812">
        <time>2019-03-23T09:38:30Z</time>
      </trkpt>
      <trkpt lat="38.99129" lon="-0.34809">
        <time>2019-03-23T09:38:31Z</time>
      </trkpt>
      <trkpt lat="38.99123" lon="-0.34806">
        <time>2019-03-23T09:38:32Z</time>
      </trkpt>
      <trkpt lat="38.99117" lon="-0.34802">
        <time>2019-03-23T09:38:33Z</time>
      </trkpt>
      <trkpt lat="38.9911" lon="-0.34798">
        <time>2019-03-23T09:38:34Z</time>
      </trkpt>
      <trkpt lat="38.99105" lon="-0.34796">
        <time>2019-03-23T09:38:35Z</time>
      </trkpt>
      <trkpt lat="38.99099" lon="-0.34794">
        <time>2019-03-23T09:38:36Z</time>
      </trkpt>
      <trkpt lat="38.99094" lon="-0.34792">
        <time>2019-03-23T09:38:37Z</time>
      </trkpt>
      <trkpt lat="38.99087" lon="-0.34789">
        <time>2019-03-23T09:38:38Z</time>
      </trkpt>
      <trkpt lat="38.9908" lon="-0.34783">
        <time>2019-03-23T09:38:39Z</time>
      </trkpt>
      <trkpt lat="38.99075" lon="-0.34777">
        <time>2019-03-23T09:38:40Z</time>
      </trkpt>
      <trkpt lat="38.9907" lon="-0.34769">
        <time>2019-03-23T09:38:41Z</time>
      </trkpt>
      <trkpt lat="38.99065" lon="-0.34761">
        <time>2019-03-23T09:38:42Z</time>
      </trkpt>
      <trkpt lat="38.99061" lon="-0.34752">
        <time>2019-03-23T09:38:43Z</time>
      </trkpt>
      <trkpt lat="38.99056" lon="-0.34742">
        <time>2019-03-23T09:38:44Z</time>
      </trkpt>
      <trkpt lat="38.99052" lon="-0.34732">
        <time>2019-03-23T09:38:45Z</time>
      </trkpt>
      <trkpt lat="38.99047" lon="-0.34722">
        <time>2019-03-23T09:38:46Z</time>
      </trkpt>
      <trkpt lat="38.99043" lon="-0.34712">
        <time>2019-03-23T09:38:47Z</time>
      </trkpt>
      <trkpt lat="38.99039" lon="-0.34702">
        <time>2019-03-23T09:38:48Z</time>
      </trkpt>
      <trkpt lat="38.99036" lon="-0.3469">
        <time>2019-03-23T09:38:49Z</time>
      </trkpt>
      <trkpt lat="38.99033" lon="-0.34678">
        <time>2019-03-23T09:38:50Z</time>
      </trkpt>
      <trkpt lat="38.9903" lon="-0.34667">
        <time>2019-03-23T09:38:51Z</time>
      </trkpt>
      <trkpt lat="38.99024" lon="-0.34657">
        <time>2019-03-23T09:38:52Z</time>
      </trkpt>
      <trkpt lat="38.99019" lon="-0.34653">
        <time>2019-03-23T09:38:53Z</time>
      </trkpt>
      <trkpt lat="38.99013" lon="-0.34648">
        <time>2019-03-23T09:38:54Z</time>
      </trkpt>
      <trkpt lat="38.99005" lon="-0.34642">
        <time>2019-03-23T09:38:55Z</time>
      </trkpt>
      <trkpt lat="38.98998" lon="-0.34635">
        <time>2019-03-23T09:38:56Z</time>
      </trkpt>
      <trkpt lat="38.9899" lon="-0.34628">
        <time>2019-03-23T09:38:57Z</time>
      </trkpt>
      <trkpt lat="38.98984" lon="-0.34621">
        <time>2019-03-23T09:38:58Z</time>
      </trkpt>
      <trkpt lat="38.98979" lon="-0.34614">
        <time>2019-03-23T09:38:59Z</time>
      </trkpt>
      <trkpt lat="38.98975" lon="-0.34605">
        <time>2019-03-23T09:39:00Z</time>
      </trkpt>
      <trkpt lat="38.98975" lon="-0.34598">
        <time>2019-03-23T09:39:01Z</time>
      </trkpt>
      <trkpt lat="38.98977" lon="-0.34591">
        <time>2019-03-23T09:39:02Z</time>
      </trkpt>
      <trkpt lat="38.98982" lon="-0.34586">
        <time>2019-03-23T09:39:03Z</time>
      </trkpt>
      <trkpt lat="38.98986" lon="-0.3458">
        <time>2019-03-23T09:39:04Z</time>
      </trkpt>
      <trkpt lat="38.98992" lon="-0.34573">
        <time>2019-03-23T09:39:05Z</time>
      </trkpt>
      <trkpt lat="38.98998" lon="-0.34565">
        <time>2019-03-23T09:39:06Z</time>
      </trkpt>
      <trkpt lat="38.99002" lon="-0.34559">
        <time>2019-03-23T09:39:07Z</time>
      </trkpt>
      <trkpt lat="38.99005" lon="-0.34553">
        <time>2019-03-23T09:39:08Z</time>
      </trkpt>
      <trkpt lat="38.99005" lon="-0.34546">
        <time>2019-03-23T09:39:09Z</time>
      </trkpt>
      <trkpt lat="38.99003" lon="-0.34538">
        <time>2019-03-23T09:39:10Z</time>
      </trkpt>
      <trkpt lat="38.99002" lon="-0.34526">
        <time>2019-03-23T09:39:11Z</time>
      </trkpt>
      <trkpt lat="38.99" lon="-0.34512">
        <time>2019-03-23T09:39:12Z</time>
      </trkpt>
      <trkpt lat="38.98998" lon="-0.34496">
        <time>2019-03-23T09:39:13Z</time>
      </trkpt>
      <trkpt lat="38.98996" lon="-0.34481">
        <time>2019-03-23T09:39:14Z</time>
      </trkpt>
      <trkpt lat="38.98994" lon="-0.34466">
        <time>2019-03-23T09:39:15Z</time>
      </trkpt>
      <trkpt lat="38.98992" lon="-0.34448">
        <time>2019-03-23T09:39:16Z</time>
      </trkpt>
      <trkpt lat="38.98992" lon="-0.34434">
        <time>2019-03-23T09:39:17Z</time>
      </trkpt>
      <trkpt lat="38.98992" lon="-0.34418">
        <time>2019-03-23T09:39:18Z</time>
      </trkpt>
      <trkpt lat="38.98991" lon="-0.34402">
        <time>2019-03-23T09:39:19Z</time>
      </trkpt>
      <trkpt lat="38.9899" lon="-0.34389">
        <time>2019-03-23T09:39:20Z</time>
      </trkpt>
      <trkpt lat="38.98989" lon="-0.34376">
        <time>2019-03-23T09:39:21Z</time>
      </trkpt>
      <trkpt lat="38.9899" lon="-0.34361">
        <time>2019-03-23T09:39:22Z</time>
      </trkpt>
      <trkpt lat="38.98991" lon="-0.34346">
        <time>2019-03-23T09:39:23Z</time>
      </trkpt>
      <trkpt lat="38.98994" lon="-0.34332">
        <time>2019-03-23T09:39:24Z</time>
      </trkpt>
      <trkpt lat="38.98996" lon="-0.3432">
        <time>2019-03-23T09:39:25Z</time>
      </trkpt>
      <trkpt lat="38.98996" lon="-0.34304">
        <time>2019-03-23T09:39:26Z</time>
      </trkpt>
      <trkpt lat="38.98995" lon="-0.34291">
        <time>2019-03-23T09:39:27Z</time>
      </trkpt>
      <trkpt lat="38.98993" lon="-0.34279">
        <time>2019-03-23T09:39:28Z</time>
      </trkpt>
      <trkpt lat="38.98989" lon="-0.34264">
        <time>2019-03-23T09:39:29Z</time>
      </trkpt>
      <trkpt lat="38.98984" lon="-0.34249">
        <time>2019-03-23T09:39:30Z</time>
      </trkpt>
      <trkpt lat="38.9898" lon="-0.34235">
        <time>2019-03-23T09:39:31Z</time>
      </trkpt>
      <trkpt lat="38.98976" lon="-0.34221">
        <time>2019-03-23T09:39:32Z</time>
      </trkpt>
      <trkpt lat="38.98972" lon="-0.34208">
        <time>2019-03-23T09:39:33Z</time>
      </trkpt>
      <trkpt lat="38.98968" lon="-0.34195">
        <time>2019-03-23T09:39:34Z</time>
      </trkpt>
      <trkpt lat="38.98964" lon="-0.34181">
        <time>2019-03-23T09:39:35Z</time>
      </trkpt>
      <trkpt lat="38.9896" lon="-0.3417">
        <time>2019-03-23T09:39:36Z</time>
      </trkpt>
      <trkpt lat="38.98956" lon="-0.34161">
        <time>2019-03-23T09:39:37Z</time>
      </trkpt>
      <trkpt lat="38.9895" lon="-0.34154">
        <time>2019-03-23T09:39:38Z</time>
      </trkpt>
      <trkpt lat="38.98944" lon="-0.34152">
        <time>2019-03-23T09:39:39Z</time>
      </trkpt>
      <trkpt lat="38.98938" lon="-0.34154">
        <time>2019-03-23T09:39:40Z</time>
      </trkpt>
      <trkpt lat="38.98932" lon="-0.34158">
        <time>2019-03-23T09:39:41Z</time>
      </trkpt>
      <trkpt lat="38.98924" lon="-0.34165">
        <time>2019-03-23T09:39:42Z</time>
      </trkpt>
      <trkpt lat="38.98913" lon="-0.3417">
        <time>2019-03-23T09:39:43Z</time>
      </trkpt>
      <trkpt lat="38.98902" lon="-0.34172">
        <time>2019-03-23T09:39:44Z</time>
      </trkpt>
      <trkpt lat="38.98888" lon="-0.34172">
        <time>2019-03-23T09:39:45Z</time>
      </trkpt>
      <trkpt lat="38.98878" lon="-0.34173">
        <time>2019-03-23T09:39:46Z</time>
      </trkpt>
      <trkpt lat="38.9887" lon="-0.34173">
        <time>2019-03-23T09:39:47Z</time>
      </trkpt>
      <trkpt lat="38.98865" lon="-0.34177">
        <time>2019-03-23T09:39:48Z</time>
      </trkpt>
      <trkpt lat="38.9886" lon="-0.34184">
        <time>2019-03-23T09:39:49Z</time>
      </trkpt>
      <trkpt lat="38.98855" lon="-0.3419">
        <time>2019-03-23T09:39:50Z</time>
      </trkpt>
      <trkpt lat="38.98849" lon="-0.34197">
        <time>2019-03-23T09:39:51Z</time>
      </trkpt>
      <trkpt lat="38.98842" lon="-0.34201">
        <time>2019-03-23T09:39:52Z</time>
      </trkpt>
      <trkpt lat="38.98833" lon="-0.34204">
        <time>2019-03-23T09:39:53Z</time>
      </trkpt>
      <trkpt lat="38.98822" lon="-0.34205">
        <time>2019-03-23T09:39:54Z</time>
      </trkpt>
      <trkpt lat="38.9881" lon="-0.34207">
        <time>2019-03-23T09:39:55Z</time>
      </trkpt>
      <trkpt lat="38.98796" lon="-0.34206">
        <time>2019-03-23T09:39:56Z</time>
      </trkpt>
      <trkpt lat="38.98781" lon="-0.34206">
        <time>2019-03-23T09:39:57Z</time>
      </trkpt>
      <trkpt lat="38.98764" lon="-0.34205">
        <time>2019-03-23T09:39:58Z</time>
      </trkpt>
      <trkpt lat="38.98746" lon="-0.34201">
        <time>2019-03-23T09:39:59Z</time>
      </trkpt>
      <trkpt lat="38.9873" lon="-0.34195">
        <time>2019-03-23T09:40:00Z</time>
      </trkpt>
      <trkpt lat="38.98713" lon="-0.34187">
        <time>2019-03-23T09:40:01Z</time>
      </trkpt>
      <trkpt lat="38.9871" lon="-0.34175">
        <time>2019-03-23T09:40:02Z</time>
      </trkpt>
      <trkpt lat="38.98701" lon="-0.34169">
        <time>2019-03-23T09:40:03Z</time>
      </trkpt>
      <trkpt lat="38.98695" lon="-0.34166">
        <time>2019-03-23T09:40:04Z</time>
      </trkpt>
      <trkpt lat="38.9869" lon="-0.34167">
        <time>2019-03-23T09:40:05Z</time>
      </trkpt>
      <trkpt lat="38.98683" lon="-0.34169">
        <time>2019-03-23T09:40:06Z</time>
      </trkpt>
      <trkpt lat="38.98674" lon="-0.34168">
        <time>2019-03-23T09:40:07Z</time>
      </trkpt>
      <trkpt lat="38.98664" lon="-0.34168">
        <time>2019-03-23T09:40:08Z</time>
      </trkpt>
      <trkpt lat="38.98654" lon="-0.34166">
        <time>2019-03-23T09:40:09Z</time>
      </trkpt>
      <trkpt lat="38.98644" lon="-0.34163">
        <time>2019-03-23T09:40:10Z</time>
      </trkpt>
      <trkpt lat="38.98635" lon="-0.34159">
        <time>2019-03-23T09:40:11Z</time>
      </trkpt>
      <trkpt lat="38.98628" lon="-0.34154">
        <time>2019-03-23T09:40:12Z</time>
      </trkpt>
      <trkpt lat="38.98621" lon="-0.34151">
        <time>2019-03-23T09:40:13Z</time>
      </trkpt>
      <trkpt lat="38.98613" lon="-0.34148">
        <time>2019-03-23T09:40:14Z</time>
      </trkpt>
      <trkpt lat="38.98605" lon="-0.34145">
        <time>2019-03-23T09:40:15Z</time>
      </trkpt>
      <trkpt lat="38.98599" lon="-0.34142">
        <time>2019-03-23T09:40:16Z</time>
      </trkpt>
      <trkpt lat="38.98592" lon="-0.3414">
        <time>2019-03-23T09:40:17Z</time>
      </trkpt>
      <trkpt lat="38.98585" lon="-0.3414">
        <time>2019-03-23T09:40:18Z</time>
      </trkpt>
      <trkpt lat="38.98577" lon="-0.34141">
        <time>2019-03-23T09:40:19Z</time>
      </trkpt>
      <trkpt lat="38.98569" lon="-0.34141">
        <time>2019-03-23T09:40:20Z</time>
      </trkpt>
      <trkpt lat="38.98561" lon="-0.3414">
        <time>2019-03-23T09:40:21Z</time>
      </trkpt>
      <trkpt lat="38.98552" lon="-0.34137">
        <time>2019-03-23T09:40:22Z</time>
      </trkpt>
      <trkpt lat="38.98542" lon="-0.34135">
        <time>2019-03-23T09:40:23Z</time>
      </trkpt>
      <trkpt lat="38.98534" lon="-0.34133">
        <time>2019-03-23T09:40:24Z</time>
      </trkpt>
      <trkpt lat="38.98524" lon="-0.3413">
        <time>2019-03-23T09:40:25Z</time>
      </trkpt>
      <trkpt lat="38.98513" lon="-0.34127">
        <time>2019-03-23T09:40:26Z</time>
      </trkpt>
      <trkpt lat="38.98502" lon="-0.34125">
        <time>2019-03-23T09:40:27Z</time>
      </trkpt>
      <trkpt lat="38.98488" lon="-0.34121">
        <time>2019-03-23T09:40:28Z</time>
      </trkpt>
      <trkpt lat="38.98477" lon="-0.34118">
        <time>2019-03-23T09:40:29Z</time>
      </trkpt>
      <trkpt lat="38.98465" lon="-0.34114">
        <time>2019-03-23T09:40:30Z</time>
      </trkpt>
      <trkpt lat="38.98452" lon="-0.34107">
        <time>2019-03-23T09:40:31Z</time>
      </trkpt>
      <trkpt lat="38.98439" lon="-0.341">
        <time>2019-03-23T09:40:32Z</time>
      </trkpt>
      <trkpt lat="38.98425" lon="-0.34092">
        <time>2019-03-23T09:40:33Z</time>
      </trkpt>
      <trkpt lat="38.98408" lon="-0.34085">
        <time>2019-03-23T09:40:34Z</time>
      </trkpt>
      <trkpt lat="38.9839" lon="-0.34078">
        <time>2019-03-23T09:40:35Z</time>
      </trkpt>
      <trkpt lat="38.98377" lon="-0.3407">
        <time>2019-03-23T09:40:36Z</time>
      </trkpt>
      <trkpt lat="38.98363" lon="-0.34064">
        <time>2019-03-23T09:40:37Z</time>
      </trkpt>
      <trkpt lat="38.98351" lon="-0.34059">
        <time>2019-03-23T09:40:38Z</time>
      </trkpt>
      <trkpt lat="38.98341" lon="-0.34054">
        <time>2019-03-23T09:40:39Z</time>
      </trkpt>
      <trkpt lat="38.98333" lon="-0.34047">
        <time>2019-03-23T09:40:40Z</time>
      </trkpt>
      <trkpt lat="38.98328" lon="-0.34038">
        <time>2019-03-23T09:40:41Z</time>
      </trkpt>
      <trkpt lat="38.98327" lon="-0.34029">
        <time>2019-03-23T09:40:42Z</time>
      </trkpt>
      <trkpt lat="38.98327" lon="-0.34017">
        <time>2019-03-23T09:40:43Z</time>
      </trkpt>
      <trkpt lat="38.98327" lon="-0.34007">
        <time>2019-03-23T09:40:44Z</time>
      </trkpt>
      <trkpt lat="38.98326" lon="-0.33996">
        <time>2019-03-23T09:40:45Z</time>
      </trkpt>
      <trkpt lat="38.98322" lon="-0.33987">
        <time>2019-03-23T09:40:46Z</time>
      </trkpt>
      <trkpt lat="38.98318" lon="-0.33979">
        <time>2019-03-23T09:40:47Z</time>
      </trkpt>
      <trkpt lat="38.98315" lon="-0.33973">
        <time>2019-03-23T09:40:48Z</time>
      </trkpt>
      <trkpt lat="38.98314" lon="-0.33965">
        <time>2019-03-23T09:40:49Z</time>
      </trkpt>
      <trkpt lat="38.98315" lon="-0.33955">
        <time>2019-03-23T09:40:50Z</time>
      </trkpt>
      <trkpt lat="38.98317" lon="-0.33944">
        <time>2019-03-23T09:40:51Z</time>
      </trkpt>
      <trkpt lat="38.98318" lon="-0.33933">
        <time>2019-03-23T09:40:52Z</time>
      </trkpt>
      <trkpt lat="38.98319" lon="-0.33919">
        <time>2019-03-23T09:40:53Z</time>
      </trkpt>
      <trkpt lat="38.9832" lon="-0.33908">
        <time>2019-03-23T09:40:54Z</time>
      </trkpt>
      <trkpt lat="38.98321" lon="-0.33897">
        <time>2019-03-23T09:40:55Z</time>
      </trkpt>
      <trkpt lat="38.98322" lon="-0.33887">
        <time>2019-03-23T09:40:56Z</time>
      </trkpt>
      <trkpt lat="38.98322" lon="-0.3388">
        <time>2019-03-23T09:40:57Z</time>
      </trkpt>
      <trkpt lat="38.98322" lon="-0.33873">
        <time>2019-03-23T09:40:58Z</time>
      </trkpt>
      <trkpt lat="38.98322" lon="-0.33869">
        <time>2019-03-23T09:40:59Z</time>
      </trkpt>
      <trkpt lat="38.98322" lon="-0.33867">
        <time>2019-03-23T09:41:00Z</time>
      </trkpt>
      <trkpt lat="38.98322" lon="-0.33864">
        <time>2019-03-23T09:41:01Z</time>
      </trkpt>
      <trkpt lat="38.98322" lon="-0.33862">
        <time>2019-03-23T09:41:02Z</time>
      </trkpt>
      <trkpt lat="38.98323" lon="-0.3386">
        <time>2019-03-23T09:41:03Z</time>
      </trkpt>
      <trkpt lat="38.98324" lon="-0.33856">
        <time>2019-03-23T09:41:04Z</time>
      </trkpt>
      <trkpt lat="38.98326" lon="-0.3385">
        <time>2019-03-23T09:41:05Z</time>
      </trkpt>
      <trkpt lat="38.98327" lon="-0.33845">
        <time>2019-03-23T09:41:06Z</time>
      </trkpt>
      <trkpt lat="38.98329" lon="-0.33838">
        <time>2019-03-23T09:41:07Z</time>
      </trkpt>
      <trkpt lat="38.98331" lon="-0.33831">
        <time>2019-03-23T09:41:08Z</time>
      </trkpt>
      <trkpt lat="38.98333" lon="-0.33825">
        <time>2019-03-23T09:41:09Z</time>
      </trkpt>
      <trkpt lat="38.98335" lon="-0.3382">
        <time>2019-03-23T09:41:10Z</time>
      </trkpt>
      <trkpt lat="38.98336" lon="-0.33816">
        <time>2019-03-23T09:41:11Z</time>
      </trkpt>
      <trkpt lat="38.98335" lon="-0.33813">
        <time>2019-03-23T09:41:12Z</time>
      </trkpt>
      <trkpt lat="38.98332" lon="-0.3381">
        <time>2019-03-23T09:41:13Z</time>
      </trkpt>
      <trkpt lat="38.98328" lon="-0.33808">
        <time>2019-03-23T09:41:14Z</time>
      </trkpt>
      <trkpt lat="38.98321" lon="-0.33807">
        <time>2019-03-23T09:41:15Z</time>
      </trkpt>
      <trkpt lat="38.98314" lon="-0.33806">
        <time>2019-03-23T09:41:16Z</time>
      </trkpt>
      <trkpt lat="38.98309" lon="-0.33804">
        <time>2019-03-23T09:41:17Z</time>
      </trkpt>
      <trkpt lat="38.98311" lon="-0.338">
        <time>2019-03-23T09:41:18Z</time>
      </trkpt>
      <trkpt lat="38.98308" lon="-0.33799">
        <time>2019-03-23T09:41:19Z</time>
      </trkpt>
      <trkpt lat="38.98305" lon="-0.33799">
        <time>2019-03-23T09:41:20Z</time>
      </trkpt>
      <trkpt lat="38.98303" lon="-0.338">
        <time>2019-03-23T09:41:21Z</time>
      </trkpt>
      <trkpt lat="38.98304" lon="-0.338">
        <time>2019-03-23T09:41:22Z</time>
      </trkpt>
      <trkpt lat="38.98299" lon="-0.33799">
        <time>2019-03-23T09:41:36Z</time>
      </trkpt>
      <trkpt lat="38.98294" lon="-0.33798">
        <time>2019-03-23T09:41:37Z</time>
      </trkpt>
      <trkpt lat="38.98289" lon="-0.33798">
        <time>2019-03-23T09:41:38Z</time>
      </trkpt>
      <trkpt lat="38.98281" lon="-0.33796">
        <time>2019-03-23T09:41:39Z</time>
      </trkpt>
      <trkpt lat="38.98271" lon="-0.33794">
        <time>2019-03-23T09:41:40Z</time>
      </trkpt>
      <trkpt lat="38.98262" lon="-0.33792">
        <time>2019-03-23T09:41:41Z</time>
      </trkpt>
      <trkpt lat="38.98253" lon="-0.33791">
        <time>2019-03-23T09:41:42Z</time>
      </trkpt>
      <trkpt lat="38.98243" lon="-0.33788">
        <time>2019-03-23T09:41:43Z</time>
      </trkpt>
      <trkpt lat="38.98236" lon="-0.33787">
        <time>2019-03-23T09:41:44Z</time>
      </trkpt>
      <trkpt lat="38.9823" lon="-0.33785">
        <time>2019-03-23T09:41:45Z</time>
      </trkpt>
      <trkpt lat="38.98222" lon="-0.33784">
        <time>2019-03-23T09:41:46Z</time>
      </trkpt>
      <trkpt lat="38.98213" lon="-0.33782">
        <time>2019-03-23T09:41:47Z</time>
      </trkpt>
      <trkpt lat="38.98201" lon="-0.3378">
        <time>2019-03-23T09:41:48Z</time>
      </trkpt>
      <trkpt lat="38.98187" lon="-0.33779">
        <time>2019-03-23T09:41:49Z</time>
      </trkpt>
      <trkpt lat="38.98172" lon="-0.33776">
        <time>2019-03-23T09:41:50Z</time>
      </trkpt>
      <trkpt lat="38.98154" lon="-0.33772">
        <time>2019-03-23T09:41:51Z</time>
      </trkpt>
      <trkpt lat="38.98137" lon="-0.33768">
        <time>2019-03-23T09:41:52Z</time>
      </trkpt>
      <trkpt lat="38.98124" lon="-0.33763">
        <time>2019-03-23T09:41:53Z</time>
      </trkpt>
      <trkpt lat="38.98107" lon="-0.33759">
        <time>2019-03-23T09:41:54Z</time>
      </trkpt>
      <trkpt lat="38.98089" lon="-0.33754">
        <time>2019-03-23T09:41:55Z</time>
      </trkpt>
      <trkpt lat="38.9807" lon="-0.3375">
        <time>2019-03-23T09:41:56Z</time>
      </trkpt>
      <trkpt lat="38.98053" lon="-0.33745">
        <time>2019-03-23T09:41:57Z</time>
      </trkpt>
      <trkpt lat="38.98035" lon="-0.33738">
        <time>2019-03-23T09:41:58Z</time>
      </trkpt>
      <trkpt lat="38.98014" lon="-0.3373">
        <time>2019-03-23T09:41:59Z</time>
      </trkpt>
      <trkpt lat="38.97994" lon="-0.33723">
        <time>2019-03-23T09:42:00Z</time>
      </trkpt>
      <trkpt lat="38.97971" lon="-0.33715">
        <time>2019-03-23T09:42:01Z</time>
      </trkpt>
      <trkpt lat="38.97945" lon="-0.33706">
        <time>2019-03-23T09:42:02Z</time>
      </trkpt>
      <trkpt lat="38.9792" lon="-0.33701">
        <time>2019-03-23T09:42:03Z</time>
      </trkpt>
      <trkpt lat="38.97891" lon="-0.33696">
        <time>2019-03-23T09:42:04Z</time>
      </trkpt>
      <trkpt lat="38.97865" lon="-0.33695">
        <time>2019-03-23T09:42:05Z</time>
      </trkpt>
      <trkpt lat="38.97837" lon="-0.33697">
        <time>2019-03-23T09:42:06Z</time>
      </trkpt>
      <trkpt lat="38.97807" lon="-0.33703">
        <time>2019-03-23T09:42:07Z</time>
      </trkpt>
      <trkpt lat="38.9778" lon="-0.33711">
        <time>2019-03-23T09:42:08Z</time>
      </trkpt>
      <trkpt lat="38.97753" lon="-0.33721">
        <time>2019-03-23T09:42:09Z</time>
      </trkpt>
      <trkpt lat="38.97726" lon="-0.33729">
        <time>2019-03-23T09:42:10Z</time>
      </trkpt>
      <trkpt lat="38.97699" lon="-0.33737">
        <time>2019-03-23T09:42:11Z</time>
      </trkpt>
      <trkpt lat="38.97673" lon="-0.33747">
        <time>2019-03-23T09:42:12Z</time>
      </trkpt>
      <trkpt lat="38.97647" lon="-0.33755">
        <time>2019-03-23T09:42:13Z</time>
      </trkpt>
      <trkpt lat="38.97624" lon="-0.33765">
        <time>2019-03-23T09:42:14Z</time>
      </trkpt>
      <trkpt lat="38.976" lon="-0.33772">
        <time>2019-03-23T09:42:15Z</time>
      </trkpt>
      <trkpt lat="38.97578" lon="-0.33775">
        <time>2019-03-23T09:42:16Z</time>
      </trkpt>
      <trkpt lat="38.97554" lon="-0.33775">
        <time>2019-03-23T09:42:17Z</time>
      </trkpt>
      <trkpt lat="38.97528" lon="-0.33771">
        <time>2019-03-23T09:42:18Z</time>
      </trkpt>
      <trkpt lat="38.97507" lon="-0.33766">
        <time>2019-03-23T09:42:19Z</time>
      </trkpt>
      <trkpt lat="38.97485" lon="-0.33761">
        <time>2019-03-23T09:42:20Z</time>
      </trkpt>
      <trkpt lat="38.97463" lon="-0.33761">
        <time>2019-03-23T09:42:21Z</time>
      </trkpt>
      <trkpt lat="38.9744" lon="-0.33765">
        <time>2019-03-23T09:42:22Z</time>
      </trkpt>
      <trkpt lat="38.97416" lon="-0.33774">
        <time>2019-03-23T09:42:23Z</time>
      </trkpt>
      <trkpt lat="38.97394" lon="-0.33783">
        <time>2019-03-23T09:42:24Z</time>
      </trkpt>
      <trkpt lat="38.97369" lon="-0.33793">
        <time>2019-03-23T09:42:25Z</time>
      </trkpt>
      <trkpt lat="38.97336" lon="-0.33802">
        <time>2019-03-23T09:42:26Z</time>
      </trkpt>
      <trkpt lat="38.97311" lon="-0.33807">
        <time>2019-03-23T09:42:27Z</time>
      </trkpt>
      <trkpt lat="38.97287" lon="-0.33811">
        <time>2019-03-23T09:42:28Z</time>
      </trkpt>
      <trkpt lat="38.97262" lon="-0.33819">
        <time>2019-03-23T09:42:29Z</time>
      </trkpt>
      <trkpt lat="38.97238" lon="-0.3383">
        <time>2019-03-23T09:42:30Z</time>
      </trkpt>
      <trkpt lat="38.97214" lon="-0.33843">
        <time>2019-03-23T09:42:31Z</time>
      </trkpt>
      <trkpt lat="38.97189" lon="-0.33851">
        <time>2019-03-23T09:42:32Z</time>
      </trkpt>
      <trkpt lat="38.97164" lon="-0.33855">
        <time>2019-03-23T09:42:33Z</time>
      </trkpt>
      <trkpt lat="38.9714" lon="-0.33861">
        <time>2019-03-23T09:42:34Z</time>
      </trkpt>
      <trkpt lat="38.97117" lon="-0.33871">
        <time>2019-03-23T09:42:35Z</time>
      </trkpt>
      <trkpt lat="38.97093" lon="-0.33884">
        <time>2019-03-23T09:42:36Z</time>
      </trkpt>
      <trkpt lat="38.97068" lon="-0.339">
        <time>2019-03-23T09:42:37Z</time>
      </trkpt>
      <trkpt lat="38.97044" lon="-0.33917">
        <time>2019-03-23T09:42:38Z</time>
      </trkpt>
      <trkpt lat="38.9702" lon="-0.33936">
        <time>2019-03-23T09:42:39Z</time>
      </trkpt>
      <trkpt lat="38.96998" lon="-0.33956">
        <time>2019-03-23T09:42:40Z</time>
      </trkpt>
      <trkpt lat="38.96978" lon="-0.33974">
        <time>2019-03-23T09:42:41Z</time>
      </trkpt>
      <trkpt lat="38.96956" lon="-0.3399">
        <time>2019-03-23T09:42:42Z</time>
      </trkpt>
      <trkpt lat="38.96933" lon="-0.34001">
        <time>2019-03-23T09:42:43Z</time>
      </trkpt>
      <trkpt lat="38.96907" lon="-0.34008">
        <time>2019-03-23T09:42:44Z</time>
      </trkpt>
      <trkpt lat="38.9688" lon="-0.34014">
        <time>2019-03-23T09:42:45Z</time>
      </trkpt>
      <trkpt lat="38.96852" lon="-0.34021">
        <time>2019-03-23T09:42:46Z</time>
      </trkpt>
      <trkpt lat="38.96824" lon="-0.34029">
        <time>2019-03-23T09:42:47Z</time>
      </trkpt>
      <trkpt lat="38.96797" lon="-0.34037">
        <time>2019-03-23T09:42:48Z</time>
      </trkpt>
      <trkpt lat="38.96771" lon="-0.34046">
        <time>2019-03-23T09:42:49Z</time>
      </trkpt>
      <trkpt lat="38.96746" lon="-0.3406">
        <time>2019-03-23T09:42:50Z</time>
      </trkpt>
      <trkpt lat="38.96722" lon="-0.34077">
        <time>2019-03-23T09:42:51Z</time>
      </trkpt>
      <trkpt lat="38.96699" lon="-0.34096">
        <time>2019-03-23T09:42:52Z</time>
      </trkpt>
      <trkpt lat="38.96675" lon="-0.34115">
        <time>2019-03-23T09:42:53Z</time>
      </trkpt>
      <trkpt lat="38.96651" lon="-0.34134">
        <time>2019-03-23T09:42:54Z</time>
      </trkpt>
      <trkpt lat="38.96627" lon="-0.34153">
        <time>2019-03-23T09:42:55Z</time>
      </trkpt>
      <trkpt lat="38.96603" lon="-0.34173">
        <time>2019-03-23T09:42:56Z</time>
      </trkpt>
      <trkpt lat="38.9658" lon="-0.34193">
        <time>2019-03-23T09:42:57Z</time>
      </trkpt>
      <trkpt lat="38.96557" lon="-0.34211">
        <time>2019-03-23T09:42:58Z</time>
      </trkpt>
      <trkpt lat="38.96536" lon="-0.34228">
        <time>2019-03-23T09:42:59Z</time>
      </trkpt>
      <trkpt lat="38.96516" lon="-0.34242">
        <time>2019-03-23T09:43:00Z</time>
      </trkpt>
      <trkpt lat="38.96494" lon="-0.34254">
        <time>2019-03-23T09:43:01Z</time>
      </trkpt>
      <trkpt lat="38.96469" lon="-0.34261">
        <time>2019-03-23T09:43:02Z</time>
      </trkpt>
      <trkpt lat="38.96444" lon="-0.34264">
        <time>2019-03-23T09:43:03Z</time>
      </trkpt>
      <trkpt lat="38.96418" lon="-0.34263">
        <time>2019-03-23T09:43:04Z</time>
      </trkpt>
      <trkpt lat="38.96392" lon="-0.34257">
        <time>2019-03-23T09:43:05Z</time>
      </trkpt>
      <trkpt lat="38.96367" lon="-0.34246">
        <time>2019-03-23T09:43:06Z</time>
      </trkpt>
      <trkpt lat="38.96345" lon="-0.3423">
        <time>2019-03-23T09:43:07Z</time>
      </trkpt>
      <trkpt lat="38.96324" lon="-0.34216">
        <time>2019-03-23T09:43:08Z</time>
      </trkpt>
      <trkpt lat="38.96304" lon="-0.34207">
        <time>2019-03-23T09:43:09Z</time>
      </trkpt>
      <trkpt lat="38.96284" lon="-0.342">
        <time>2019-03-23T09:43:10Z</time>
      </trkpt>
      <trkpt lat="38.96263" lon="-0.34197">
        <time>2019-03-23T09:43:11Z</time>
      </trkpt>
      <trkpt lat="38.96241" lon="-0.34197">
        <time>2019-03-23T09:43:12Z</time>
      </trkpt>
      <trkpt lat="38.96217" lon="-0.34197">
        <time>2019-03-23T09:43:13Z</time>
      </trkpt>
      <trkpt lat="38.96194" lon="-0.34198">
        <time>2019-03-23T09:43:14Z</time>
      </trkpt>
      <trkpt lat="38.9617" lon="-0.342">
        <time>2019-03-23T09:43:15Z</time>
      </trkpt>
      <trkpt lat="38.96148" lon="-0.34201">
        <time>2019-03-23T09:43:16Z</time>
      </trkpt>
      <trkpt lat="38.96126" lon="-0.34205">
        <time>2019-03-23T09:43:17Z</time>
      </trkpt>
      <trkpt lat="38.96107" lon="-0.34209">
        <time>2019-03-23T09:43:18Z</time>
      </trkpt>
      <trkpt lat="38.96082" lon="-0.34218">
        <time>2019-03-23T09:43:19Z</time>
      </trkpt>
      <trkpt lat="38.96056" lon="-0.34228">
        <time>2019-03-23T09:43:20Z</time>
      </trkpt>
      <trkpt lat="38.96033" lon="-0.34235">
        <time>2019-03-23T09:43:21Z</time>
      </trkpt>
      <trkpt lat="38.96007" lon="-0.34243">
        <time>2019-03-23T09:43:22Z</time>
      </trkpt>
      <trkpt lat="38.95985" lon="-0.34247">
        <time>2019-03-23T09:43:23Z</time>
      </trkpt>
      <trkpt lat="38.9596" lon="-0.34248">
        <time>2019-03-23T09:43:24Z</time>
      </trkpt>
      <trkpt lat="38.95938" lon="-0.34247">
        <time>2019-03-23T09:43:25Z</time>
      </trkpt>
      <trkpt lat="38.95915" lon="-0.34245">
        <time>2019-03-23T09:43:26Z</time>
      </trkpt>
      <trkpt lat="38.95892" lon="-0.34243">
        <time>2019-03-23T09:43:27Z</time>
      </trkpt>
      <trkpt lat="38.95871" lon="-0.34243">
        <time>2019-03-23T09:43:28Z</time>
      </trkpt>
      <trkpt lat="38.9585" lon="-0.34243">
        <time>2019-03-23T09:43:29Z</time>
      </trkpt>
      <trkpt lat="38.95828" lon="-0.34246">
        <time>2019-03-23T09:43:30Z</time>
      </trkpt>
      <trkpt lat="38.95803" lon="-0.34254">
        <time>2019-03-23T09:43:31Z</time>
      </trkpt>
      <trkpt lat="38.95779" lon="-0.34258">
        <time>2019-03-23T09:43:32Z</time>
      </trkpt>
      <trkpt lat="38.95755" lon="-0.34261">
        <time>2019-03-23T09:43:33Z</time>
      </trkpt>
      <trkpt lat="38.95731" lon="-0.34264">
        <time>2019-03-23T09:43:34Z</time>
      </trkpt>
      <trkpt lat="38.95708" lon="-0.34268">
        <time>2019-03-23T09:43:35Z</time>
      </trkpt>
      <trkpt lat="38.95686" lon="-0.34271">
        <time>2019-03-23T09:43:36Z</time>
      </trkpt>
      <trkpt lat="38.95665" lon="-0.34275">
        <time>2019-03-23T09:43:37Z</time>
      </trkpt>
      <trkpt lat="38.95636" lon="-0.34276">
        <time>2019-03-23T09:43:38Z</time>
      </trkpt>
      <trkpt lat="38.95614" lon="-0.34276">
        <time>2019-03-23T09:43:39Z</time>
      </trkpt>
      <trkpt lat="38.95589" lon="-0.34271">
        <time>2019-03-23T09:43:40Z</time>
      </trkpt>
      <trkpt lat="38.95567" lon="-0.34265">
        <time>2019-03-23T09:43:41Z</time>
      </trkpt>
      <trkpt lat="38.95542" lon="-0.34258">
        <time>2019-03-23T09:43:42Z</time>
      </trkpt>
      <trkpt lat="38.95519" lon="-0.34255">
        <time>2019-03-23T09:43:43Z</time>
      </trkpt>
      <trkpt lat="38.95498" lon="-0.34256">
        <time>2019-03-23T09:43:44Z</time>
      </trkpt>
      <trkpt lat="38.95476" lon="-0.34261">
        <time>2019-03-23T09:43:45Z</time>
      </trkpt>
      <trkpt lat="38.95455" lon="-0.34272">
        <time>2019-03-23T09:43:46Z</time>
      </trkpt>
      <trkpt lat="38.95437" lon="-0.34289">
        <time>2019-03-23T09:43:47Z</time>
      </trkpt>
      <trkpt lat="38.9542" lon="-0.34313">
        <time>2019-03-23T09:43:48Z</time>
      </trkpt>
      <trkpt lat="38.95408" lon="-0.34337">
        <time>2019-03-23T09:43:49Z</time>
      </trkpt>
      <trkpt lat="38.954" lon="-0.34366">
        <time>2019-03-23T09:43:50Z</time>
      </trkpt>
      <trkpt lat="38.95396" lon="-0.34397">
        <time>2019-03-23T09:43:51Z</time>
      </trkpt>
      <trkpt lat="38.95395" lon="-0.34414">
        <time>2019-03-23T09:43:52Z</time>
      </trkpt>
      <trkpt lat="38.95392" lon="-0.34442">
        <time>2019-03-23T09:43:53Z</time>
      </trkpt>
      <trkpt lat="38.95387" lon="-0.34472">
        <time>2019-03-23T09:43:54Z</time>
      </trkpt>
      <trkpt lat="38.95384" lon="-0.34499">
        <time>2019-03-23T09:43:55Z</time>
      </trkpt>
      <trkpt lat="38.95379" lon="-0.34529">
        <time>2019-03-23T09:43:56Z</time>
      </trkpt>
      <trkpt lat="38.95375" lon="-0.34556">
        <time>2019-03-23T09:43:57Z</time>
      </trkpt>
      <trkpt lat="38.95372" lon="-0.34593">
        <time>2019-03-23T09:43:58Z</time>
      </trkpt>
      <trkpt lat="38.95368" lon="-0.34624">
        <time>2019-03-23T09:43:59Z</time>
      </trkpt>
      <trkpt lat="38.95364" lon="-0.34652">
        <time>2019-03-23T09:44:00Z</time>
      </trkpt>
      <trkpt lat="38.95361" lon="-0.34679">
        <time>2019-03-23T09:44:01Z</time>
      </trkpt>
      <trkpt lat="38.9536" lon="-0.34711">
        <time>2019-03-23T09:44:02Z</time>
      </trkpt>
      <trkpt lat="38.95352" lon="-0.34743">
        <time>2019-03-23T09:44:03Z</time>
      </trkpt>
      <trkpt lat="38.95348" lon="-0.34771">
        <time>2019-03-23T09:44:04Z</time>
      </trkpt>
      <trkpt lat="38.95344" lon="-0.34799">
        <time>2019-03-23T09:44:05Z</time>
      </trkpt>
      <trkpt lat="38.95341" lon="-0.34828">
        <time>2019-03-23T09:44:06Z</time>
      </trkpt>
      <trkpt lat="38.95337" lon="-0.34856">
        <time>2019-03-23T09:44:07Z</time>
      </trkpt>
      <trkpt lat="38.95333" lon="-0.34884">
        <time>2019-03-23T09:44:08Z</time>
      </trkpt>
      <trkpt lat="38.9533" lon="-0.34913">
        <time>2019-03-23T09:44:09Z</time>
      </trkpt>
      <trkpt lat="38.95327" lon="-0.34941">
        <time>2019-03-23T09:44:10Z</time>
      </trkpt>
      <trkpt lat="38.95321" lon="-0.3497">
        <time>2019-03-23T09:44:11Z</time>
      </trkpt>
      <trkpt lat="38.95314" lon="-0.34997">
        <time>2019-03-23T09:44:12Z</time>
      </trkpt>
      <trkpt lat="38.95304" lon="-0.35022">
        <time>2019-03-23T09:44:13Z</time>
      </trkpt>
      <trkpt lat="38.95292" lon="-0.35045">
        <time>2019-03-23T09:44:14Z</time>
      </trkpt>
      <trkpt lat="38.95278" lon="-0.35066">
        <time>2019-03-23T09:44:15Z</time>
      </trkpt>
      <trkpt lat="38.95262" lon="-0.35085">
        <time>2019-03-23T09:44:16Z</time>
      </trkpt>
      <trkpt lat="38.95243" lon="-0.35099">
        <time>2019-03-23T09:44:17Z</time>
      </trkpt>
      <trkpt lat="38.95222" lon="-0.35109">
        <time>2019-03-23T09:44:18Z</time>
      </trkpt>
      <trkpt lat="38.95199" lon="-0.35114">
        <time>2019-03-23T09:44:19Z</time>
      </trkpt>
      <trkpt lat="38.95175" lon="-0.35116">
        <time>2019-03-23T09:44:20Z</time>
      </trkpt>
      <trkpt lat="38.95151" lon="-0.35117">
        <time>2019-03-23T09:44:21Z</time>
      </trkpt>
      <trkpt lat="38.95128" lon="-0.35117">
        <time>2019-03-23T09:44:22Z</time>
      </trkpt>
      <trkpt lat="38.95104" lon="-0.35117">
        <time>2019-03-23T09:44:23Z</time>
      </trkpt>
      <trkpt lat="38.95081" lon="-0.35117">
        <time>2019-03-23T09:44:24Z</time>
      </trkpt>
      <trkpt lat="38.95057" lon="-0.35117">
        <time>2019-03-23T09:44:25Z</time>
      </trkpt>
      <trkpt lat="38.95033" lon="-0.35114">
        <time>2019-03-23T09:44:26Z</time>
      </trkpt>
      <trkpt lat="38.95008" lon="-0.35109">
        <time>2019-03-23T09:44:27Z</time>
      </trkpt>
      <trkpt lat="38.94983" lon="-0.35103">
        <time>2019-03-23T09:44:28Z</time>
      </trkpt>
      <trkpt lat="38.94959" lon="-0.35094">
        <time>2019-03-23T09:44:29Z</time>
      </trkpt>
      <trkpt lat="38.94934" lon="-0.35085">
        <time>2019-03-23T09:44:30Z</time>
      </trkpt>
      <trkpt lat="38.9491" lon="-0.35077">
        <time>2019-03-23T09:44:31Z</time>
      </trkpt>
      <trkpt lat="38.94887" lon="-0.35071">
        <time>2019-03-23T09:44:32Z</time>
      </trkpt>
      <trkpt lat="38.94865" lon="-0.35069">
        <time>2019-03-23T09:44:33Z</time>
      </trkpt>
      <trkpt lat="38.94843" lon="-0.3507">
        <time>2019-03-23T09:44:34Z</time>
      </trkpt>
      <trkpt lat="38.94822" lon="-0.35075">
        <time>2019-03-23T09:44:35Z</time>
      </trkpt>
      <trkpt lat="38.94801" lon="-0.35086">
        <time>2019-03-23T09:44:36Z</time>
      </trkpt>
      <trkpt lat="38.9478" lon="-0.35097">
        <time>2019-03-23T09:44:37Z</time>
      </trkpt>
      <trkpt lat="38.94761" lon="-0.35109">
        <time>2019-03-23T09:44:38Z</time>
      </trkpt>
      <trkpt lat="38.94743" lon="-0.35122">
        <time>2019-03-23T09:44:39Z</time>
      </trkpt>
      <trkpt lat="38.94726" lon="-0.35137">
        <time>2019-03-23T09:44:40Z</time>
      </trkpt>
      <trkpt lat="38.9471" lon="-0.35155">
        <time>2019-03-23T09:44:41Z</time>
      </trkpt>
      <trkpt lat="38.94695" lon="-0.35174">
        <time>2019-03-23T09:44:42Z</time>
      </trkpt>
      <trkpt lat="38.9468" lon="-0.35194">
        <time>2019-03-23T09:44:43Z</time>
      </trkpt>
      <trkpt lat="38.94666" lon="-0.35213">
        <time>2019-03-23T09:44:44Z</time>
      </trkpt>
      <trkpt lat="38.94653" lon="-0.35232">
        <time>2019-03-23T09:44:45Z</time>
      </trkpt>
      <trkpt lat="38.9464" lon="-0.35249">
        <time>2019-03-23T09:44:46Z</time>
      </trkpt>
      <trkpt lat="38.94628" lon="-0.35266">
        <time>2019-03-23T09:44:47Z</time>
      </trkpt>
      <trkpt lat="38.94616" lon="-0.3528">
        <time>2019-03-23T09:44:48Z</time>
      </trkpt>
      <trkpt lat="38.94605" lon="-0.35295">
        <time>2019-03-23T09:44:49Z</time>
      </trkpt>
      <trkpt lat="38.94595" lon="-0.35311">
        <time>2019-03-23T09:44:50Z</time>
      </trkpt>
      <trkpt lat="38.94586" lon="-0.35327">
        <time>2019-03-23T09:44:51Z</time>
      </trkpt>
      <trkpt lat="38.94577" lon="-0.35344">
        <time>2019-03-23T09:44:52Z</time>
      </trkpt>
      <trkpt lat="38.94569" lon="-0.35361">
        <time>2019-03-23T09:44:53Z</time>
      </trkpt>
      <trkpt lat="38.94561" lon="-0.35379">
        <time>2019-03-23T09:44:54Z</time>
      </trkpt>
      <trkpt lat="38.94554" lon="-0.35398">
        <time>2019-03-23T09:44:55Z</time>
      </trkpt>
      <trkpt lat="38.94547" lon="-0.35417">
        <time>2019-03-23T09:44:56Z</time>
      </trkpt>
      <trkpt lat="38.94541" lon="-0.35436">
        <time>2019-03-23T09:44:57Z</time>
      </trkpt>
      <trkpt lat="38.94535" lon="-0.35456">
        <time>2019-03-23T09:44:58Z</time>
      </trkpt>
      <trkpt lat="38.94529" lon="-0.35475">
        <time>2019-03-23T09:44:59Z</time>
      </trkpt>
      <trkpt lat="38.94523" lon="-0.35494">
        <time>2019-03-23T09:45:00Z</time>
      </trkpt>
      <trkpt lat="38.94518" lon="-0.35511">
        <time>2019-03-23T09:45:01Z</time>
      </trkpt>
      <trkpt lat="38.94513" lon="-0.35527">
        <time>2019-03-23T09:45:02Z</time>
      </trkpt>
      <trkpt lat="38.94508" lon="-0.35542">
        <time>2019-03-23T09:45:03Z</time>
      </trkpt>
      <trkpt lat="38.94503" lon="-0.35556">
        <time>2019-03-23T09:45:04Z</time>
      </trkpt>
      <trkpt lat="38.94495" lon="-0.35568">
        <time>2019-03-23T09:45:05Z</time>
      </trkpt>
      <trkpt lat="38.94485" lon="-0.35577">
        <time>2019-03-23T09:45:06Z</time>
      </trkpt>
      <trkpt lat="38.94474" lon="-0.35584">
        <time>2019-03-23T09:45:07Z</time>
      </trkpt>
      <trkpt lat="38.94462" lon="-0.35585">
        <time>2019-03-23T09:45:08Z</time>
      </trkpt>
      <trkpt lat="38.94451" lon="-0.3558">
        <time>2019-03-23T09:45:09Z</time>
      </trkpt>
      <trkpt lat="38.94441" lon="-0.3557">
        <time>2019-03-23T09:45:10Z</time>
      </trkpt>
      <trkpt lat="38.94431" lon="-0.3556">
        <time>2019-03-23T09:45:11Z</time>
      </trkpt>
      <trkpt lat="38.94422" lon="-0.35548">
        <time>2019-03-23T09:45:12Z</time>
      </trkpt>
      <trkpt lat="38.94412" lon="-0.35537">
        <time>2019-03-23T09:45:13Z</time>
      </trkpt>
      <trkpt lat="38.94402" lon="-0.35525">
        <time>2019-03-23T09:45:14Z</time>
      </trkpt>
      <trkpt lat="38.9439" lon="-0.35515">
        <time>2019-03-23T09:45:15Z</time>
      </trkpt>
      <trkpt lat="38.94377" lon="-0.35506">
        <time>2019-03-23T09:45:16Z</time>
      </trkpt>
      <trkpt lat="38.94365" lon="-0.35497">
        <time>2019-03-23T09:45:17Z</time>
      </trkpt>
      <trkpt lat="38.94354" lon="-0.35489">
        <time>2019-03-23T09:45:18Z</time>
      </trkpt>
      <trkpt lat="38.94344" lon="-0.35482">
        <time>2019-03-23T09:45:19Z</time>
      </trkpt>
      <trkpt lat="38.94334" lon="-0.35477">
        <time>2019-03-23T09:45:20Z</time>
      </trkpt>
      <trkpt lat="38.94325" lon="-0.35472">
        <time>2019-03-23T09:45:21Z</time>
      </trkpt>
      <trkpt lat="38.94315" lon="-0.35469">
        <time>2019-03-23T09:45:22Z</time>
      </trkpt>
      <trkpt lat="38.94306" lon="-0.35466">
        <time>2019-03-23T09:45:23Z</time>
      </trkpt>
      <trkpt lat="38.94296" lon="-0.35465">
        <time>2019-03-23T09:45:24Z</time>
      </trkpt>
      <trkpt lat="38.94286" lon="-0.35463">
        <time>2019-03-23T09:45:25Z</time>
      </trkpt>
      <trkpt lat="38.94275" lon="-0.35462">
        <time>2019-03-23T09:45:26Z</time>
      </trkpt>
      <trkpt lat="38.94266" lon="-0.35459">
        <time>2019-03-23T09:45:27Z</time>
      </trkpt>
      <trkpt lat="38.94256" lon="-0.35456">
        <time>2019-03-23T09:45:28Z</time>
      </trkpt>
      <trkpt lat="38.94246" lon="-0.35452">
        <time>2019-03-23T09:45:29Z</time>
      </trkpt>
      <trkpt lat="38.94235" lon="-0.35447">
        <time>2019-03-23T09:45:30Z</time>
      </trkpt>
      <trkpt lat="38.94223" lon="-0.35441">
        <time>2019-03-23T09:45:31Z</time>
      </trkpt>
      <trkpt lat="38.94213" lon="-0.35435">
        <time>2019-03-23T09:45:32Z</time>
      </trkpt>
      <trkpt lat="38.94202" lon="-0.35429">
        <time>2019-03-23T09:45:33Z</time>
      </trkpt>
      <trkpt lat="38.94193" lon="-0.35425">
        <time>2019-03-23T09:45:34Z</time>
      </trkpt>
      <trkpt lat="38.94185" lon="-0.35421">
        <time>2019-03-23T09:45:35Z</time>
      </trkpt>
      <trkpt lat="38.94178" lon="-0.35418">
        <time>2019-03-23T09:45:36Z</time>
      </trkpt>
      <trkpt lat="38.94171" lon="-0.35414">
        <time>2019-03-23T09:45:37Z</time>
      </trkpt>
      <trkpt lat="38.94164" lon="-0.3541">
        <time>2019-03-23T09:45:38Z</time>
      </trkpt>
      <trkpt lat="38.94156" lon="-0.35407">
        <time>2019-03-23T09:45:39Z</time>
      </trkpt>
      <trkpt lat="38.94148" lon="-0.35406">
        <time>2019-03-23T09:45:40Z</time>
      </trkpt>
      <trkpt lat="38.9414" lon="-0.35406">
        <time>2019-03-23T09:45:41Z</time>
      </trkpt>
      <trkpt lat="38.94134" lon="-0.35406">
        <time>2019-03-23T09:45:42Z</time>
      </trkpt>
      <trkpt lat="38.94126" lon="-0.35408">
        <time>2019-03-23T09:45:43Z</time>
      </trkpt>
      <trkpt lat="38.94119" lon="-0.35411">
        <time>2019-03-23T09:45:44Z</time>
      </trkpt>
      <trkpt lat="38.94114" lon="-0.35417">
        <time>2019-03-23T09:45:45Z</time>
      </trkpt>
      <trkpt lat="38.94109" lon="-0.35423">
        <time>2019-03-23T09:45:46Z</time>
      </trkpt>
      <trkpt lat="38.94104" lon="-0.35428">
        <time>2019-03-23T09:45:47Z</time>
      </trkpt>
      <trkpt lat="38.94099" lon="-0.35433">
        <time>2019-03-23T09:45:48Z</time>
      </trkpt>
      <trkpt lat="38.94094" lon="-0.35438">
        <time>2019-03-23T09:45:49Z</time>
      </trkpt>
      <trkpt lat="38.94091" lon="-0.35441">
        <time>2019-03-23T09:45:50Z</time>
      </trkpt>
      <trkpt lat="38.94091" lon="-0.35441">
        <time>2019-03-23T09:45:51Z</time>
      </trkpt>
      <trkpt lat="38.9409" lon="-0.35433">
        <time>2019-03-23T09:46:14Z</time>
      </trkpt>
      <trkpt lat="38.94089" lon="-0.35434">
        <time>2019-03-23T09:46:15Z</time>
      </trkpt>
      <trkpt lat="38.94086" lon="-0.35437">
        <time>2019-03-23T09:46:16Z</time>
      </trkpt>
      <trkpt lat="38.94081" lon="-0.35441">
        <time>2019-03-23T09:46:17Z</time>
      </trkpt>
      <trkpt lat="38.94076" lon="-0.35446">
        <time>2019-03-23T09:46:18Z</time>
      </trkpt>
      <trkpt lat="38.94072" lon="-0.3545">
        <time>2019-03-23T09:46:19Z</time>
      </trkpt>
      <trkpt lat="38.94068" lon="-0.35454">
        <time>2019-03-23T09:46:20Z</time>
      </trkpt>
      <trkpt lat="38.94066" lon="-0.35456">
        <time>2019-03-23T09:46:21Z</time>
      </trkpt>
      <trkpt lat="38.94065" lon="-0.35458">
        <time>2019-03-23T09:46:22Z</time>
      </trkpt>
      <trkpt lat="38.94064" lon="-0.3546">
        <time>2019-03-23T09:46:23Z</time>
      </trkpt>
      <trkpt lat="38.94064" lon="-0.35462">
        <time>2019-03-23T09:46:24Z</time>
      </trkpt>
      <trkpt lat="38.94063" lon="-0.35466">
        <time>2019-03-23T09:46:33Z</time>
      </trkpt>
      <trkpt lat="38.94063" lon="-0.3547">
        <time>2019-03-23T09:46:34Z</time>
      </trkpt>
      <trkpt lat="38.94063" lon="-0.35475">
        <time>2019-03-23T09:46:35Z</time>
      </trkpt>
      <trkpt lat="38.94063" lon="-0.3548">
        <time>2019-03-23T09:46:36Z</time>
      </trkpt>
      <trkpt lat="38.94063" lon="-0.35486">
        <time>2019-03-23T09:46:37Z</time>
      </trkpt>
      <trkpt lat="38.94063" lon="-0.35492">
        <time>2019-03-23T09:46:38Z</time>
      </trkpt>
      <trkpt lat="38.94064" lon="-0.35497">
        <time>2019-03-23T09:46:39Z</time>
      </trkpt>
      <trkpt lat="38.94063" lon="-0.35501">
        <time>2019-03-23T09:46:40Z</time>
      </trkpt>
      <trkpt lat="38.94063" lon="-0.35506">
        <time>2019-03-23T09:46:41Z</time>
      </trkpt>
      <trkpt lat="38.94063" lon="-0.35509">
        <time>2019-03-23T09:46:42Z</time>
      </trkpt>
      <trkpt lat="38.94063" lon="-0.35514">
        <time>2019-03-23T09:46:48Z</time>
      </trkpt>
      <trkpt lat="38.94062" lon="-0.35516">
        <time>2019-03-23T09:46:49Z</time>
      </trkpt>
      <trkpt lat="38.9406" lon="-0.35517">
        <time>2019-03-23T09:46:50Z</time>
      </trkpt>
      <trkpt lat="38.94058" lon="-0.35517">
        <time>2019-03-23T09:46:51Z</time>
      </trkpt>
      <trkpt lat="38.94057" lon="-0.35516">
        <time>2019-03-23T09:46:52Z</time>
      </trkpt>
      <trkpt lat="38.94056" lon="-0.35513">
        <time>2019-03-23T09:46:53Z</time>
      </trkpt>
      <trkpt lat="38.94057" lon="-0.3551">
        <time>2019-03-23T09:46:54Z</time>
      </trkpt>
      <trkpt lat="38.94058" lon="-0.35508">
        <time>2019-03-23T09:46:55Z</time>
      </trkpt>
      <trkpt lat="38.94059" lon="-0.35507">
        <time>2019-03-23T09:46:56Z</time>
      </trkpt>
      <trkpt lat="38.94059" lon="-0.35507">
        <time>2019-03-23T09:46:57Z</time>
      </trkpt>
      <trkpt lat="38.94062" lon="-0.35508">
        <time>2019-03-23T09:47:13Z</time>
      </trkpt>
      <trkpt lat="38.94063" lon="-0.35509">
        <time>2019-03-23T09:47:14Z</time>
      </trkpt>
      <trkpt lat="38.94063" lon="-0.35512">
        <time>2019-03-23T09:47:15Z</time>
      </trkpt>
      <trkpt lat="38.94063" lon="-0.35515">
        <time>2019-03-23T09:47:16Z</time>
      </trkpt>
      <trkpt lat="38.94061" lon="-0.35517">
        <time>2019-03-23T09:47:17Z</time>
      </trkpt>
      <trkpt lat="38.94058" lon="-0.35516">
        <time>2019-03-23T09:47:18Z</time>
      </trkpt>
      <trkpt lat="38.94056" lon="-0.35513">
        <time>2019-03-23T09:47:19Z</time>
      </trkpt>
      <trkpt lat="38.94056" lon="-0.35507">
        <time>2019-03-23T09:47:20Z</time>
      </trkpt>
      <trkpt lat="38.94055" lon="-0.35501">
        <time>2019-03-23T09:47:21Z</time>
      </trkpt>
      <trkpt lat="38.94054" lon="-0.35497">
        <time>2019-03-23T09:47:22Z</time>
      </trkpt>
      <trkpt lat="38.94053" lon="-0.35498">
        <time>2019-03-23T09:47:23Z</time>
      </trkpt>
      <trkpt lat="38.94054" lon="-0.35501">
        <time>2019-03-23T09:48:20Z</time>
      </trkpt>
      <trkpt lat="38.94058" lon="-0.35505">
        <time>2019-03-23T09:48:21Z</time>
      </trkpt>
      <trkpt lat="38.94061" lon="-0.35507">
        <time>2019-03-23T09:48:22Z</time>
      </trkpt>
      <trkpt lat="38.94063" lon="-0.35509">
        <time>2019-03-23T09:48:23Z</time>
      </trkpt>
      <trkpt lat="38.94066" lon="-0.35512">
        <time>2019-03-23T09:48:24Z</time>
      </trkpt>
      <trkpt lat="38.94068" lon="-0.35513">
        <time>2019-03-23T09:48:25Z</time>
      </trkpt>
      <trkpt lat="38.94057" lon="-0.35504">
        <time>2019-03-23T09:50:42Z</time>
      </trkpt>
      <trkpt lat="38.94059" lon="-0.35502">
        <time>2019-03-23T09:51:14Z</time>
      </trkpt>
      <trkpt lat="38.94058" lon="-0.35503">
        <time>2019-03-23T09:51:15Z</time>
      </trkpt>
      <trkpt lat="38.94059" lon="-0.35504">
        <time>2019-03-23T09:51:16Z</time>
      </trkpt>
      <trkpt lat="38.94059" lon="-0.35505">
        <time>2019-03-23T09:51:17Z</time>
      </trkpt>
      <trkpt lat="38.94059" lon="-0.35506">
        <time>2019-03-23T09:51:18Z</time>
      </trkpt>
      <trkpt lat="38.9406" lon="-0.35509">
        <time>2019-03-23T09:51:21Z</time>
      </trkpt>
      <trkpt lat="38.9406" lon="-0.3551">
        <time>2019-03-23T09:51:22Z</time>
      </trkpt>
      <trkpt lat="38.94062" lon="-0.35512">
        <time>2019-03-23T09:51:26Z</time>
      </trkpt>
      <trkpt lat="38.94063" lon="-0.35514">
        <time>2019-03-23T09:51:27Z</time>
      </trkpt>
      <trkpt lat="38.94065" lon="-0.35516">
        <time>2019-03-23T09:51:28Z</time>
      </trkpt>
      <trkpt lat="38.94065" lon="-0.35518">
        <time>2019-03-23T09:51:29Z</time>
      </trkpt>
      <trkpt lat="38.94065" lon="-0.3552">
        <time>2019-03-23T09:51:30Z</time>
      </trkpt>
      <trkpt lat="38.94064" lon="-0.35523">
        <time>2019-03-23T09:51:32Z</time>
      </trkpt>
      <trkpt lat="38.94064" lon="-0.35525">
        <time>2019-03-23T09:51:33Z</time>
      </trkpt>
      <trkpt lat="38.94064" lon="-0.35526">
        <time>2019-03-23T09:51:34Z</time>
      </trkpt>
      <trkpt lat="38.94059" lon="-0.35525">
        <time>2019-03-23T09:51:47Z</time>
      </trkpt>
      <trkpt lat="38.94059" lon="-0.35524">
        <time>2019-03-23T09:51:48Z</time>
      </trkpt>
      <trkpt lat="38.94061" lon="-0.35525">
        <time>2019-03-23T09:52:43Z</time>
      </trkpt>
      <trkpt lat="38.94061" lon="-0.35522">
        <time>2019-03-23T09:52:47Z</time>
      </trkpt>
      <trkpt lat="38.9406" lon="-0.35521">
        <time>2019-03-23T09:52:48Z</time>
      </trkpt>
      <trkpt lat="38.94063" lon="-0.35528">
        <time>2019-03-23T09:53:04Z</time>
      </trkpt>
      <trkpt lat="38.94066" lon="-0.35526">
        <time>2019-03-23T09:53:07Z</time>
      </trkpt>
      <trkpt lat="38.94068" lon="-0.35525">
        <time>2019-03-23T09:53:08Z</time>
      </trkpt>
      <trkpt lat="38.9407" lon="-0.35525">
        <time>2019-03-23T09:53:09Z</time>
      </trkpt>
      <trkpt lat="38.94056" lon="-0.355">
        <time>2019-03-23T10:58:00Z</time>
      </trkpt>
      <trkpt lat="38.94058" lon="-0.35497">
        <time>2019-03-23T10:58:01Z</time>
      </trkpt>
      <trkpt lat="38.9406" lon="-0.35495">
        <time>2019-03-23T10:58:02Z</time>
      </trkpt>
      <trkpt lat="38.94062" lon="-0.35494">
        <time>2019-03-23T10:58:03Z</time>
      </trkpt>
      <trkpt lat="38.94063" lon="-0.35494">
        <time>2019-03-23T10:58:04Z</time>
      </trkpt>
      <trkpt lat="38.94065" lon="-0.35492">
        <time>2019-03-23T10:58:05Z</time>
      </trkpt>
      <trkpt lat="38.94065" lon="-0.35487">
        <time>2019-03-23T10:58:06Z</time>
      </trkpt>
      <trkpt lat="38.94065" lon="-0.35481">
        <time>2019-03-23T10:58:07Z</time>
      </trkpt>
      <trkpt lat="38.94064" lon="-0.35476">
        <time>2019-03-23T10:58:08Z</time>
      </trkpt>
      <trkpt lat="38.94063" lon="-0.35472">
        <time>2019-03-23T10:58:09Z</time>
      </trkpt>
      <trkpt lat="38.94063" lon="-0.35471">
        <time>2019-03-23T10:58:10Z</time>
      </trkpt>
      <trkpt lat="38.94062" lon="-0.35469">
        <time>2019-03-23T10:58:12Z</time>
      </trkpt>
      <trkpt lat="38.94062" lon="-0.35466">
        <time>2019-03-23T10:58:13Z</time>
      </trkpt>
      <trkpt lat="38.94064" lon="-0.3546">
        <time>2019-03-23T10:58:14Z</time>
      </trkpt>
      <trkpt lat="38.94069" lon="-0.35455">
        <time>2019-03-23T10:58:15Z</time>
      </trkpt>
      <trkpt lat="38.94075" lon="-0.3545">
        <time>2019-03-23T10:58:16Z</time>
      </trkpt>
      <trkpt lat="38.9408" lon="-0.35445">
        <time>2019-03-23T10:58:17Z</time>
      </trkpt>
      <trkpt lat="38.94086" lon="-0.3544">
        <time>2019-03-23T10:58:18Z</time>
      </trkpt>
      <trkpt lat="38.94091" lon="-0.35434">
        <time>2019-03-23T10:58:19Z</time>
      </trkpt>
      <trkpt lat="38.94097" lon="-0.35428">
        <time>2019-03-23T10:58:20Z</time>
      </trkpt>
      <trkpt lat="38.94103" lon="-0.35423">
        <time>2019-03-23T10:58:21Z</time>
      </trkpt>
      <trkpt lat="38.94109" lon="-0.35417">
        <time>2019-03-23T10:58:22Z</time>
      </trkpt>
      <trkpt lat="38.94115" lon="-0.35412">
        <time>2019-03-23T10:58:23Z</time>
      </trkpt>
      <trkpt lat="38.94121" lon="-0.35406">
        <time>2019-03-23T10:58:24Z</time>
      </trkpt>
      <trkpt lat="38.94128" lon="-0.35403">
        <time>2019-03-23T10:58:25Z</time>
      </trkpt>
      <trkpt lat="38.94136" lon="-0.35401">
        <time>2019-03-23T10:58:26Z</time>
      </trkpt>
      <trkpt lat="38.94144" lon="-0.354">
        <time>2019-03-23T10:58:27Z</time>
      </trkpt>
      <trkpt lat="38.94153" lon="-0.35401">
        <time>2019-03-23T10:58:28Z</time>
      </trkpt>
      <trkpt lat="38.94162" lon="-0.35404">
        <time>2019-03-23T10:58:29Z</time>
      </trkpt>
      <trkpt lat="38.9417" lon="-0.35408">
        <time>2019-03-23T10:58:30Z</time>
      </trkpt>
      <trkpt lat="38.9418" lon="-0.35413">
        <time>2019-03-23T10:58:31Z</time>
      </trkpt>
      <trkpt lat="38.94191" lon="-0.35418">
        <time>2019-03-23T10:58:32Z</time>
      </trkpt>
      <trkpt lat="38.94202" lon="-0.35423">
        <time>2019-03-23T10:58:33Z</time>
      </trkpt>
      <trkpt lat="38.94214" lon="-0.3543">
        <time>2019-03-23T10:58:34Z</time>
      </trkpt>
      <trkpt lat="38.94225" lon="-0.35436">
        <time>2019-03-23T10:58:35Z</time>
      </trkpt>
      <trkpt lat="38.94238" lon="-0.35443">
        <time>2019-03-23T10:58:36Z</time>
      </trkpt>
      <trkpt lat="38.94248" lon="-0.35448">
        <time>2019-03-23T10:58:37Z</time>
      </trkpt>
      <trkpt lat="38.94257" lon="-0.35454">
        <time>2019-03-23T10:58:38Z</time>
      </trkpt>
      <trkpt lat="38.94269" lon="-0.35455">
        <time>2019-03-23T10:58:39Z</time>
      </trkpt>
      <trkpt lat="38.94281" lon="-0.35458">
        <time>2019-03-23T10:58:40Z</time>
      </trkpt>
      <trkpt lat="38.94293" lon="-0.3546">
        <time>2019-03-23T10:58:41Z</time>
      </trkpt>
      <trkpt lat="38.94304" lon="-0.35462">
        <time>2019-03-23T10:58:42Z</time>
      </trkpt>
      <trkpt lat="38.94314" lon="-0.35465">
        <time>2019-03-23T10:58:43Z</time>
      </trkpt>
      <trkpt lat="38.94324" lon="-0.35468">
        <time>2019-03-23T10:58:44Z</time>
      </trkpt>
      <trkpt lat="38.94333" lon="-0.35473">
        <time>2019-03-23T10:58:45Z</time>
      </trkpt>
      <trkpt lat="38.94343" lon="-0.35478">
        <time>2019-03-23T10:58:46Z</time>
      </trkpt>
      <trkpt lat="38.94354" lon="-0.35484">
        <time>2019-03-23T10:58:47Z</time>
      </trkpt>
      <trkpt lat="38.94365" lon="-0.35491">
        <time>2019-03-23T10:58:48Z</time>
      </trkpt>
      <trkpt lat="38.94375" lon="-0.35498">
        <time>2019-03-23T10:58:49Z</time>
      </trkpt>
      <trkpt lat="38.94385" lon="-0.35505">
        <time>2019-03-23T10:58:50Z</time>
      </trkpt>
      <trkpt lat="38.94394" lon="-0.35512">
        <time>2019-03-23T10:58:51Z</time>
      </trkpt>
      <trkpt lat="38.94404" lon="-0.35521">
        <time>2019-03-23T10:58:52Z</time>
      </trkpt>
      <trkpt lat="38.94412" lon="-0.3553">
        <time>2019-03-23T10:58:53Z</time>
      </trkpt>
      <trkpt lat="38.9442" lon="-0.35538">
        <time>2019-03-23T10:58:54Z</time>
      </trkpt>
      <trkpt lat="38.94427" lon="-0.35547">
        <time>2019-03-23T10:58:55Z</time>
      </trkpt>
      <trkpt lat="38.94434" lon="-0.35555">
        <time>2019-03-23T10:58:56Z</time>
      </trkpt>
      <trkpt lat="38.9444" lon="-0.35563">
        <time>2019-03-23T10:58:57Z</time>
      </trkpt>
      <trkpt lat="38.94445" lon="-0.35569">
        <time>2019-03-23T10:58:58Z</time>
      </trkpt>
      <trkpt lat="38.9445" lon="-0.35575">
        <time>2019-03-23T10:58:59Z</time>
      </trkpt>
      <trkpt lat="38.94453" lon="-0.3558">
        <time>2019-03-23T10:59:00Z</time>
      </trkpt>
      <trkpt lat="38.94454" lon="-0.35586">
        <time>2019-03-23T10:59:01Z</time>
      </trkpt>
      <trkpt lat="38.94452" lon="-0.3559">
        <time>2019-03-23T10:59:02Z</time>
      </trkpt>
      <trkpt lat="38.94451" lon="-0.35593">
        <time>2019-03-23T10:59:03Z</time>
      </trkpt>
      <trkpt lat="38.94449" lon="-0.35595">
        <time>2019-03-23T10:59:04Z</time>
      </trkpt>
      <trkpt lat="38.94447" lon="-0.35597">
        <time>2019-03-23T10:59:14Z</time>
      </trkpt>
      <trkpt lat="38.94445" lon="-0.356">
        <time>2019-03-23T10:59:15Z</time>
      </trkpt>
      <trkpt lat="38.9444" lon="-0.35607">
        <time>2019-03-23T10:59:16Z</time>
      </trkpt>
      <trkpt lat="38.94436" lon="-0.35614">
        <time>2019-03-23T10:59:17Z</time>
      </trkpt>
      <trkpt lat="38.94433" lon="-0.35622">
        <time>2019-03-23T10:59:18Z</time>
      </trkpt>
      <trkpt lat="38.94432" lon="-0.35633">
        <time>2019-03-23T10:59:19Z</time>
      </trkpt>
      <trkpt lat="38.94431" lon="-0.35643">
        <time>2019-03-23T10:59:20Z</time>
      </trkpt>
      <trkpt lat="38.94429" lon="-0.35654">
        <time>2019-03-23T10:59:21Z</time>
      </trkpt>
      <trkpt lat="38.94429" lon="-0.35665">
        <time>2019-03-23T10:59:22Z</time>
      </trkpt>
      <trkpt lat="38.94428" lon="-0.35677">
        <time>2019-03-23T10:59:23Z</time>
      </trkpt>
      <trkpt lat="38.94427" lon="-0.35688">
        <time>2019-03-23T10:59:24Z</time>
      </trkpt>
      <trkpt lat="38.94426" lon="-0.35699">
        <time>2019-03-23T10:59:25Z</time>
      </trkpt>
      <trkpt lat="38.94425" lon="-0.3571">
        <time>2019-03-23T10:59:26Z</time>
      </trkpt>
      <trkpt lat="38.94421" lon="-0.35719">
        <time>2019-03-23T10:59:27Z</time>
      </trkpt>
      <trkpt lat="38.94415" lon="-0.35726">
        <time>2019-03-23T10:59:28Z</time>
      </trkpt>
      <trkpt lat="38.94408" lon="-0.35732">
        <time>2019-03-23T10:59:29Z</time>
      </trkpt>
      <trkpt lat="38.94402" lon="-0.35738">
        <time>2019-03-23T10:59:30Z</time>
      </trkpt>
      <trkpt lat="38.94396" lon="-0.35743">
        <time>2019-03-23T10:59:31Z</time>
      </trkpt>
      <trkpt lat="38.94389" lon="-0.35749">
        <time>2019-03-23T10:59:32Z</time>
      </trkpt>
      <trkpt lat="38.94383" lon="-0.35756">
        <time>2019-03-23T10:59:33Z</time>
      </trkpt>
      <trkpt lat="38.94377" lon="-0.35762">
        <time>2019-03-23T10:59:34Z</time>
      </trkpt>
      <trkpt lat="38.94372" lon="-0.35769">
        <time>2019-03-23T10:59:35Z</time>
      </trkpt>
      <trkpt lat="38.94368" lon="-0.35777">
        <time>2019-03-23T10:59:36Z</time>
      </trkpt>
      <trkpt lat="38.94366" lon="-0.35787">
        <time>2019-03-23T10:59:37Z</time>
      </trkpt>
      <trkpt lat="38.94364" lon="-0.35798">
        <time>2019-03-23T10:59:38Z</time>
      </trkpt>
      <trkpt lat="38.94361" lon="-0.3581">
        <time>2019-03-23T10:59:39Z</time>
      </trkpt>
      <trkpt lat="38.94358" lon="-0.35821">
        <time>2019-03-23T10:59:40Z</time>
      </trkpt>
      <trkpt lat="38.94356" lon="-0.35831">
        <time>2019-03-23T10:59:41Z</time>
      </trkpt>
      <trkpt lat="38.94355" lon="-0.35841">
        <time>2019-03-23T10:59:42Z</time>
      </trkpt>
      <trkpt lat="38.94356" lon="-0.35848">
        <time>2019-03-23T10:59:43Z</time>
      </trkpt>
      <trkpt lat="38.94362" lon="-0.35859">
        <time>2019-03-23T10:59:44Z</time>
      </trkpt>
      <trkpt lat="38.94365" lon="-0.35872">
        <time>2019-03-23T10:59:45Z</time>
      </trkpt>
      <trkpt lat="38.94368" lon="-0.35888">
        <time>2019-03-23T10:59:46Z</time>
      </trkpt>
      <trkpt lat="38.94371" lon="-0.35905">
        <time>2019-03-23T10:59:47Z</time>
      </trkpt>
      <trkpt lat="38.94374" lon="-0.35923">
        <time>2019-03-23T10:59:48Z</time>
      </trkpt>
      <trkpt lat="38.94377" lon="-0.35942">
        <time>2019-03-23T10:59:49Z</time>
      </trkpt>
      <trkpt lat="38.94381" lon="-0.35961">
        <time>2019-03-23T10:59:50Z</time>
      </trkpt>
      <trkpt lat="38.94383" lon="-0.35977">
        <time>2019-03-23T10:59:51Z</time>
      </trkpt>
      <trkpt lat="38.94384" lon="-0.35991">
        <time>2019-03-23T10:59:52Z</time>
      </trkpt>
      <trkpt lat="38.94387" lon="-0.36002">
        <time>2019-03-23T10:59:53Z</time>
      </trkpt>
      <trkpt lat="38.94392" lon="-0.36012">
        <time>2019-03-23T10:59:54Z</time>
      </trkpt>
      <trkpt lat="38.94399" lon="-0.36022">
        <time>2019-03-23T10:59:55Z</time>
      </trkpt>
      <trkpt lat="38.94408" lon="-0.36033">
        <time>2019-03-23T10:59:56Z</time>
      </trkpt>
      <trkpt lat="38.94417" lon="-0.36043">
        <time>2019-03-23T10:59:57Z</time>
      </trkpt>
      <trkpt lat="38.94426" lon="-0.36051">
        <time>2019-03-23T10:59:58Z</time>
      </trkpt>
      <trkpt lat="38.94432" lon="-0.3606">
        <time>2019-03-23T10:59:59Z</time>
      </trkpt>
      <trkpt lat="38.94437" lon="-0.36072">
        <time>2019-03-23T11:00:00Z</time>
      </trkpt>
      <trkpt lat="38.94441" lon="-0.36088">
        <time>2019-03-23T11:00:01Z</time>
      </trkpt>
      <trkpt lat="38.94443" lon="-0.36104">
        <time>2019-03-23T11:00:02Z</time>
      </trkpt>
      <trkpt lat="38.94443" lon="-0.36122">
        <time>2019-03-23T11:00:03Z</time>
      </trkpt>
      <trkpt lat="38.94441" lon="-0.36141">
        <time>2019-03-23T11:00:04Z</time>
      </trkpt>
      <trkpt lat="38.94438" lon="-0.36158">
        <time>2019-03-23T11:00:05Z</time>
      </trkpt>
      <trkpt lat="38.94435" lon="-0.36172">
        <time>2019-03-23T11:00:06Z</time>
      </trkpt>
      <trkpt lat="38.94433" lon="-0.36185">
        <time>2019-03-23T11:00:07Z</time>
      </trkpt>
      <trkpt lat="38.94433" lon="-0.36197">
        <time>2019-03-23T11:00:08Z</time>
      </trkpt>
      <trkpt lat="38.94435" lon="-0.36211">
        <time>2019-03-23T11:00:09Z</time>
      </trkpt>
      <trkpt lat="38.94437" lon="-0.36226">
        <time>2019-03-23T11:00:10Z</time>
      </trkpt>
      <trkpt lat="38.94441" lon="-0.36242">
        <time>2019-03-23T11:00:11Z</time>
      </trkpt>
      <trkpt lat="38.94445" lon="-0.36259">
        <time>2019-03-23T11:00:12Z</time>
      </trkpt>
      <trkpt lat="38.94449" lon="-0.36275">
        <time>2019-03-23T11:00:13Z</time>
      </trkpt>
      <trkpt lat="38.94451" lon="-0.36293">
        <time>2019-03-23T11:00:14Z</time>
      </trkpt>
      <trkpt lat="38.94453" lon="-0.3631">
        <time>2019-03-23T11:00:15Z</time>
      </trkpt>
      <trkpt lat="38.94454" lon="-0.36327">
        <time>2019-03-23T11:00:16Z</time>
      </trkpt>
      <trkpt lat="38.94457" lon="-0.36342">
        <time>2019-03-23T11:00:17Z</time>
      </trkpt>
      <trkpt lat="38.94461" lon="-0.36356">
        <time>2019-03-23T11:00:18Z</time>
      </trkpt>
      <trkpt lat="38.94466" lon="-0.36367">
        <time>2019-03-23T11:00:19Z</time>
      </trkpt>
      <trkpt lat="38.94473" lon="-0.36375">
        <time>2019-03-23T11:00:20Z</time>
      </trkpt>
      <trkpt lat="38.94481" lon="-0.36383">
        <time>2019-03-23T11:00:21Z</time>
      </trkpt>
      <trkpt lat="38.9449" lon="-0.36391">
        <time>2019-03-23T11:00:22Z</time>
      </trkpt>
      <trkpt lat="38.945" lon="-0.364">
        <time>2019-03-23T11:00:23Z</time>
      </trkpt>
      <trkpt lat="38.94508" lon="-0.3641">
        <time>2019-03-23T11:00:24Z</time>
      </trkpt>
      <trkpt lat="38.94515" lon="-0.36418">
        <time>2019-03-23T11:00:25Z</time>
      </trkpt>
      <trkpt lat="38.94519" lon="-0.36424">
        <time>2019-03-23T11:00:26Z</time>
      </trkpt>
      <trkpt lat="38.94522" lon="-0.3643">
        <time>2019-03-23T11:00:27Z</time>
      </trkpt>
      <trkpt lat="38.94523" lon="-0.36437">
        <time>2019-03-23T11:00:28Z</time>
      </trkpt>
      <trkpt lat="38.94524" lon="-0.36446">
        <time>2019-03-23T11:00:29Z</time>
      </trkpt>
      <trkpt lat="38.94526" lon="-0.36456">
        <time>2019-03-23T11:00:30Z</time>
      </trkpt>
      <trkpt lat="38.94526" lon="-0.36469">
        <time>2019-03-23T11:00:31Z</time>
      </trkpt>
      <trkpt lat="38.94527" lon="-0.36482">
        <time>2019-03-23T11:00:32Z</time>
      </trkpt>
      <trkpt lat="38.94529" lon="-0.36494">
        <time>2019-03-23T11:00:33Z</time>
      </trkpt>
      <trkpt lat="38.94531" lon="-0.36505">
        <time>2019-03-23T11:00:34Z</time>
      </trkpt>
      <trkpt lat="38.94533" lon="-0.36515">
        <time>2019-03-23T11:00:35Z</time>
      </trkpt>
      <trkpt lat="38.94533" lon="-0.36524">
        <time>2019-03-23T11:00:36Z</time>
      </trkpt>
      <trkpt lat="38.94534" lon="-0.36534">
        <time>2019-03-23T11:00:37Z</time>
      </trkpt>
      <trkpt lat="38.94534" lon="-0.36545">
        <time>2019-03-23T11:00:38Z</time>
      </trkpt>
      <trkpt lat="38.94533" lon="-0.36557">
        <time>2019-03-23T11:00:39Z</time>
      </trkpt>
      <trkpt lat="38.94532" lon="-0.3657">
        <time>2019-03-23T11:00:40Z</time>
      </trkpt>
      <trkpt lat="38.9453" lon="-0.36584">
        <time>2019-03-23T11:00:41Z</time>
      </trkpt>
      <trkpt lat="38.94528" lon="-0.36599">
        <time>2019-03-23T11:00:42Z</time>
      </trkpt>
      <trkpt lat="38.94526" lon="-0.36616">
        <time>2019-03-23T11:00:43Z</time>
      </trkpt>
      <trkpt lat="38.94524" lon="-0.36634">
        <time>2019-03-23T11:00:44Z</time>
      </trkpt>
      <trkpt lat="38.94524" lon="-0.36651">
        <time>2019-03-23T11:00:45Z</time>
      </trkpt>
      <trkpt lat="38.94524" lon="-0.36668">
        <time>2019-03-23T11:00:46Z</time>
      </trkpt>
      <trkpt lat="38.94524" lon="-0.36685">
        <time>2019-03-23T11:00:47Z</time>
      </trkpt>
      <trkpt lat="38.94525" lon="-0.36703">
        <time>2019-03-23T11:00:48Z</time>
      </trkpt>
      <trkpt lat="38.94527" lon="-0.36722">
        <time>2019-03-23T11:00:49Z</time>
      </trkpt>
      <trkpt lat="38.94529" lon="-0.36741">
        <time>2019-03-23T11:00:50Z</time>
      </trkpt>
      <trkpt lat="38.94531" lon="-0.36761">
        <time>2019-03-23T11:00:51Z</time>
      </trkpt>
      <trkpt lat="38.94532" lon="-0.36781">
        <time>2019-03-23T11:00:52Z</time>
      </trkpt>
      <trkpt lat="38.94534" lon="-0.36801">
        <time>2019-03-23T11:00:53Z</time>
      </trkpt>
      <trkpt lat="38.94535" lon="-0.36819">
        <time>2019-03-23T11:00:54Z</time>
      </trkpt>
      <trkpt lat="38.94535" lon="-0.36836">
        <time>2019-03-23T11:00:55Z</time>
      </trkpt>
      <trkpt lat="38.94535" lon="-0.36852">
        <time>2019-03-23T11:00:56Z</time>
      </trkpt>
      <trkpt lat="38.94534" lon="-0.36866">
        <time>2019-03-23T11:00:57Z</time>
      </trkpt>
      <trkpt lat="38.94533" lon="-0.3688">
        <time>2019-03-23T11:00:58Z</time>
      </trkpt>
      <trkpt lat="38.94533" lon="-0.36892">
        <time>2019-03-23T11:00:59Z</time>
      </trkpt>
      <trkpt lat="38.94535" lon="-0.36902">
        <time>2019-03-23T11:01:00Z</time>
      </trkpt>
      <trkpt lat="38.94538" lon="-0.36913">
        <time>2019-03-23T11:01:01Z</time>
      </trkpt>
      <trkpt lat="38.94542" lon="-0.36924">
        <time>2019-03-23T11:01:02Z</time>
      </trkpt>
      <trkpt lat="38.94546" lon="-0.36936">
        <time>2019-03-23T11:01:03Z</time>
      </trkpt>
      <trkpt lat="38.94551" lon="-0.36949">
        <time>2019-03-23T11:01:04Z</time>
      </trkpt>
      <trkpt lat="38.94555" lon="-0.36964">
        <time>2019-03-23T11:01:05Z</time>
      </trkpt>
      <trkpt lat="38.9456" lon="-0.36977">
        <time>2019-03-23T11:01:06Z</time>
      </trkpt>
      <trkpt lat="38.94565" lon="-0.36989">
        <time>2019-03-23T11:01:07Z</time>
      </trkpt>
      <trkpt lat="38.9457" lon="-0.37">
        <time>2019-03-23T11:01:08Z</time>
      </trkpt>
      <trkpt lat="38.94575" lon="-0.37011">
        <time>2019-03-23T11:01:09Z</time>
      </trkpt>
      <trkpt lat="38.9458" lon="-0.37022">
        <time>2019-03-23T11:01:10Z</time>
      </trkpt>
      <trkpt lat="38.94583" lon="-0.37035">
        <time>2019-03-23T11:01:11Z</time>
      </trkpt>
      <trkpt lat="38.94586" lon="-0.37049">
        <time>2019-03-23T11:01:12Z</time>
      </trkpt>
      <trkpt lat="38.9459" lon="-0.37066">
        <time>2019-03-23T11:01:13Z</time>
      </trkpt>
      <trkpt lat="38.94592" lon="-0.37083">
        <time>2019-03-23T11:01:14Z</time>
      </trkpt>
      <trkpt lat="38.94595" lon="-0.37099">
        <time>2019-03-23T11:01:15Z</time>
      </trkpt>
      <trkpt lat="38.94599" lon="-0.37116">
        <time>2019-03-23T11:01:16Z</time>
      </trkpt>
      <trkpt lat="38.94601" lon="-0.37132">
        <time>2019-03-23T11:01:17Z</time>
      </trkpt>
      <trkpt lat="38.94603" lon="-0.37149">
        <time>2019-03-23T11:01:18Z</time>
      </trkpt>
      <trkpt lat="38.94605" lon="-0.37167">
        <time>2019-03-23T11:01:19Z</time>
      </trkpt>
      <trkpt lat="38.94607" lon="-0.37185">
        <time>2019-03-23T11:01:20Z</time>
      </trkpt>
      <trkpt lat="38.94609" lon="-0.37201">
        <time>2019-03-23T11:01:21Z</time>
      </trkpt>
      <trkpt lat="38.9461" lon="-0.37217">
        <time>2019-03-23T11:01:22Z</time>
      </trkpt>
      <trkpt lat="38.94612" lon="-0.37233">
        <time>2019-03-23T11:01:23Z</time>
      </trkpt>
      <trkpt lat="38.94612" lon="-0.37247">
        <time>2019-03-23T11:01:24Z</time>
      </trkpt>
      <trkpt lat="38.94614" lon="-0.37259">
        <time>2019-03-23T11:01:25Z</time>
      </trkpt>
      <trkpt lat="38.94615" lon="-0.37269">
        <time>2019-03-23T11:01:26Z</time>
      </trkpt>
      <trkpt lat="38.94617" lon="-0.37277">
        <time>2019-03-23T11:01:27Z</time>
      </trkpt>
      <trkpt lat="38.9462" lon="-0.37286">
        <time>2019-03-23T11:01:28Z</time>
      </trkpt>
      <trkpt lat="38.94624" lon="-0.37296">
        <time>2019-03-23T11:01:29Z</time>
      </trkpt>
      <trkpt lat="38.9463" lon="-0.37308">
        <time>2019-03-23T11:01:30Z</time>
      </trkpt>
      <trkpt lat="38.94637" lon="-0.37319">
        <time>2019-03-23T11:01:31Z</time>
      </trkpt>
      <trkpt lat="38.94645" lon="-0.37332">
        <time>2019-03-23T11:01:32Z</time>
      </trkpt>
      <trkpt lat="38.94654" lon="-0.37346">
        <time>2019-03-23T11:01:33Z</time>
      </trkpt>
      <trkpt lat="38.94663" lon="-0.37359">
        <time>2019-03-23T11:01:34Z</time>
      </trkpt>
      <trkpt lat="38.9467" lon="-0.37371">
        <time>2019-03-23T11:01:35Z</time>
      </trkpt>
      <trkpt lat="38.94677" lon="-0.37384">
        <time>2019-03-23T11:01:36Z</time>
      </trkpt>
      <trkpt lat="38.94684" lon="-0.37397">
        <time>2019-03-23T11:01:37Z</time>
      </trkpt>
      <trkpt lat="38.9469" lon="-0.37409">
        <time>2019-03-23T11:01:38Z</time>
      </trkpt>
      <trkpt lat="38.94694" lon="-0.37422">
        <time>2019-03-23T11:01:39Z</time>
      </trkpt>
      <trkpt lat="38.94698" lon="-0.37436">
        <time>2019-03-23T11:01:40Z</time>
      </trkpt>
      <trkpt lat="38.94701" lon="-0.37448">
        <time>2019-03-23T11:01:41Z</time>
      </trkpt>
      <trkpt lat="38.94704" lon="-0.3746">
        <time>2019-03-23T11:01:42Z</time>
      </trkpt>
      <trkpt lat="38.94707" lon="-0.37472">
        <time>2019-03-23T11:01:43Z</time>
      </trkpt>
      <trkpt lat="38.94709" lon="-0.37482">
        <time>2019-03-23T11:01:44Z</time>
      </trkpt>
      <trkpt lat="38.9471" lon="-0.37491">
        <time>2019-03-23T11:01:45Z</time>
      </trkpt>
      <trkpt lat="38.94712" lon="-0.37499">
        <time>2019-03-23T11:01:46Z</time>
      </trkpt>
      <trkpt lat="38.94713" lon="-0.37506">
        <time>2019-03-23T11:01:47Z</time>
      </trkpt>
      <trkpt lat="38.94715" lon="-0.37512">
        <time>2019-03-23T11:01:48Z</time>
      </trkpt>
      <trkpt lat="38.94715" lon="-0.37515">
        <time>2019-03-23T11:01:49Z</time>
      </trkpt>
      <trkpt lat="38.94716" lon="-0.37518">
        <time>2019-03-23T11:01:50Z</time>
      </trkpt>
      <trkpt lat="38.94718" lon="-0.37519">
        <time>2019-03-23T11:02:00Z</time>
      </trkpt>
      <trkpt lat="38.94718" lon="-0.37522">
        <time>2019-03-23T11:02:01Z</time>
      </trkpt>
      <trkpt lat="38.94719" lon="-0.37525">
        <time>2019-03-23T11:02:02Z</time>
      </trkpt>
      <trkpt lat="38.94719" lon="-0.37527">
        <time>2019-03-23T11:02:03Z</time>
      </trkpt>
      <trkpt lat="38.94718" lon="-0.37529">
        <time>2019-03-23T11:02:04Z</time>
      </trkpt>
      <trkpt lat="38.94717" lon="-0.3753">
        <time>2019-03-23T11:02:05Z</time>
      </trkpt>
      <trkpt lat="38.94716" lon="-0.37527">
        <time>2019-03-23T11:02:15Z</time>
      </trkpt>
      <trkpt lat="38.94715" lon="-0.37525">
        <time>2019-03-23T11:02:16Z</time>
      </trkpt>
      <trkpt lat="38.94715" lon="-0.37521">
        <time>2019-03-23T11:02:17Z</time>
      </trkpt>
      <trkpt lat="38.94713" lon="-0.37513">
        <time>2019-03-23T11:02:18Z</time>
      </trkpt>
      <trkpt lat="38.94712" lon="-0.37504">
        <time>2019-03-23T11:02:19Z</time>
      </trkpt>
      <trkpt lat="38.9471" lon="-0.37493">
        <time>2019-03-23T11:02:20Z</time>
      </trkpt>
      <trkpt lat="38.94708" lon="-0.3748">
        <time>2019-03-23T11:02:21Z</time>
      </trkpt>
      <trkpt lat="38.94705" lon="-0.37466">
        <time>2019-03-23T11:02:22Z</time>
      </trkpt>
      <trkpt lat="38.94703" lon="-0.37455">
        <time>2019-03-23T11:02:23Z</time>
      </trkpt>
      <trkpt lat="38.94701" lon="-0.37447">
        <time>2019-03-23T11:02:24Z</time>
      </trkpt>
      <trkpt lat="38.94698" lon="-0.37442">
        <time>2019-03-23T11:02:25Z</time>
      </trkpt>
      <trkpt lat="38.94696" lon="-0.37438">
        <time>2019-03-23T11:02:26Z</time>
      </trkpt>
      <trkpt lat="38.94693" lon="-0.37434">
        <time>2019-03-23T11:02:27Z</time>
      </trkpt>
      <trkpt lat="38.9469" lon="-0.37433">
        <time>2019-03-23T11:02:28Z</time>
      </trkpt>
      <trkpt lat="38.94685" lon="-0.37434">
        <time>2019-03-23T11:02:29Z</time>
      </trkpt>
      <trkpt lat="38.94678" lon="-0.37437">
        <time>2019-03-23T11:02:30Z</time>
      </trkpt>
      <trkpt lat="38.94668" lon="-0.3744">
        <time>2019-03-23T11:02:31Z</time>
      </trkpt>
      <trkpt lat="38.94657" lon="-0.37442">
        <time>2019-03-23T11:02:32Z</time>
      </trkpt>
      <trkpt lat="38.94645" lon="-0.37443">
        <time>2019-03-23T11:02:33Z</time>
      </trkpt>
      <trkpt lat="38.94633" lon="-0.37442">
        <time>2019-03-23T11:02:34Z</time>
      </trkpt>
      <trkpt lat="38.94622" lon="-0.37443">
        <time>2019-03-23T11:02:35Z</time>
      </trkpt>
      <trkpt lat="38.94611" lon="-0.37442">
        <time>2019-03-23T11:02:36Z</time>
      </trkpt>
      <trkpt lat="38.94601" lon="-0.3744">
        <time>2019-03-23T11:02:37Z</time>
      </trkpt>
      <trkpt lat="38.94592" lon="-0.37441">
        <time>2019-03-23T11:02:38Z</time>
      </trkpt>
      <trkpt lat="38.94585" lon="-0.37444">
        <time>2019-03-23T11:02:39Z</time>
      </trkpt>
      <trkpt lat="38.9458" lon="-0.37451">
        <time>2019-03-23T11:02:40Z</time>
      </trkpt>
      <trkpt lat="38.94577" lon="-0.37461">
        <time>2019-03-23T11:02:41Z</time>
      </trkpt>
      <trkpt lat="38.94574" lon="-0.3747">
        <time>2019-03-23T11:02:42Z</time>
      </trkpt>
      <trkpt lat="38.94569" lon="-0.37475">
        <time>2019-03-23T11:02:43Z</time>
      </trkpt>
      <trkpt lat="38.94563" lon="-0.37476">
        <time>2019-03-23T11:02:44Z</time>
      </trkpt>
      <trkpt lat="38.94555" lon="-0.37472">
        <time>2019-03-23T11:02:45Z</time>
      </trkpt>
      <trkpt lat="38.94544" lon="-0.37467">
        <time>2019-03-23T11:02:46Z</time>
      </trkpt>
      <trkpt lat="38.94533" lon="-0.37462">
        <time>2019-03-23T11:02:47Z</time>
      </trkpt>
      <trkpt lat="38.94522" lon="-0.37459">
        <time>2019-03-23T11:02:48Z</time>
      </trkpt>
      <trkpt lat="38.94512" lon="-0.37456">
        <time>2019-03-23T11:02:49Z</time>
      </trkpt>
      <trkpt lat="38.94503" lon="-0.37454">
        <time>2019-03-23T11:02:50Z</time>
      </trkpt>
      <trkpt lat="38.94496" lon="-0.37452">
        <time>2019-03-23T11:02:51Z</time>
      </trkpt>
      <trkpt lat="38.94489" lon="-0.3745">
        <time>2019-03-23T11:02:52Z</time>
      </trkpt>
      <trkpt lat="38.94485" lon="-0.37448">
        <time>2019-03-23T11:02:53Z</time>
      </trkpt>
      <trkpt lat="38.94481" lon="-0.37445">
        <time>2019-03-23T11:02:54Z</time>
      </trkpt>
      <trkpt lat="38.9448" lon="-0.37439">
        <time>2019-03-23T11:02:55Z</time>
      </trkpt>
      <trkpt lat="38.9448" lon="-0.37429">
        <time>2019-03-23T11:02:56Z</time>
      </trkpt>
      <trkpt lat="38.9448" lon="-0.37417">
        <time>2019-03-23T11:02:57Z</time>
      </trkpt>
      <trkpt lat="38.94479" lon="-0.37406">
        <time>2019-03-23T11:02:58Z</time>
      </trkpt>
      <trkpt lat="38.94478" lon="-0.37394">
        <time>2019-03-23T11:02:59Z</time>
      </trkpt>
      <trkpt lat="38.94474" lon="-0.37382">
        <time>2019-03-23T11:03:00Z</time>
      </trkpt>
      <trkpt lat="38.94468" lon="-0.3737">
        <time>2019-03-23T11:03:01Z</time>
      </trkpt>
      <trkpt lat="38.94461" lon="-0.37357">
        <time>2019-03-23T11:03:02Z</time>
      </trkpt>
      <trkpt lat="38.94455" lon="-0.37346">
        <time>2019-03-23T11:03:03Z</time>
      </trkpt>
      <trkpt lat="38.9445" lon="-0.37336">
        <time>2019-03-23T11:03:04Z</time>
      </trkpt>
      <trkpt lat="38.94447" lon="-0.37326">
        <time>2019-03-23T11:03:05Z</time>
      </trkpt>
      <trkpt lat="38.94444" lon="-0.37317">
        <time>2019-03-23T11:03:06Z</time>
      </trkpt>
      <trkpt lat="38.94441" lon="-0.3731">
        <time>2019-03-23T11:03:07Z</time>
      </trkpt>
      <trkpt lat="38.94437" lon="-0.37304">
        <time>2019-03-23T11:03:08Z</time>
      </trkpt>
      <trkpt lat="38.94431" lon="-0.37299">
        <time>2019-03-23T11:03:09Z</time>
      </trkpt>
      <trkpt lat="38.94424" lon="-0.37294">
        <time>2019-03-23T11:03:10Z</time>
      </trkpt>
      <trkpt lat="38.94415" lon="-0.37289">
        <time>2019-03-23T11:03:11Z</time>
      </trkpt>
      <trkpt lat="38.94405" lon="-0.37284">
        <time>2019-03-23T11:03:12Z</time>
      </trkpt>
      <trkpt lat="38.94396" lon="-0.3728">
        <time>2019-03-23T11:03:13Z</time>
      </trkpt>
      <trkpt lat="38.94386" lon="-0.37275">
        <time>2019-03-23T11:03:14Z</time>
      </trkpt>
      <trkpt lat="38.94375" lon="-0.3727">
        <time>2019-03-23T11:03:15Z</time>
      </trkpt>
      <trkpt lat="38.94365" lon="-0.37265">
        <time>2019-03-23T11:03:16Z</time>
      </trkpt>
      <trkpt lat="38.94355" lon="-0.37261">
        <time>2019-03-23T11:03:17Z</time>
      </trkpt>
      <trkpt lat="38.94345" lon="-0.37257">
        <time>2019-03-23T11:03:18Z</time>
      </trkpt>
      <trkpt lat="38.94337" lon="-0.37252">
        <time>2019-03-23T11:03:19Z</time>
      </trkpt>
      <trkpt lat="38.9433" lon="-0.37247">
        <time>2019-03-23T11:03:20Z</time>
      </trkpt>
      <trkpt lat="38.94325" lon="-0.37241">
        <time>2019-03-23T11:03:21Z</time>
      </trkpt>
      <trkpt lat="38.94321" lon="-0.37236">
        <time>2019-03-23T11:03:22Z</time>
      </trkpt>
      <trkpt lat="38.94317" lon="-0.37232">
        <time>2019-03-23T11:03:23Z</time>
      </trkpt>
      <trkpt lat="38.94314" lon="-0.37229">
        <time>2019-03-23T11:03:24Z</time>
      </trkpt>
      <trkpt lat="38.94312" lon="-0.37229">
        <time>2019-03-23T11:03:25Z</time>
      </trkpt>
      <trkpt lat="38.94311" lon="-0.37229">
        <time>2019-03-23T11:03:26Z</time>
      </trkpt>
      <trkpt lat="38.9431" lon="-0.3723">
        <time>2019-03-23T11:03:27Z</time>
      </trkpt>
      <trkpt lat="38.94309" lon="-0.37234">
        <time>2019-03-23T11:03:28Z</time>
      </trkpt>
      <trkpt lat="38.94309" lon="-0.37239">
        <time>2019-03-23T11:03:29Z</time>
      </trkpt>
      <trkpt lat="38.94311" lon="-0.37247">
        <time>2019-03-23T11:03:30Z</time>
      </trkpt>
      <trkpt lat="38.94312" lon="-0.37259">
        <time>2019-03-23T11:03:31Z</time>
      </trkpt>
      <trkpt lat="38.94314" lon="-0.37273">
        <time>2019-03-23T11:03:32Z</time>
      </trkpt>
      <trkpt lat="38.94316" lon="-0.3729">
        <time>2019-03-23T11:03:33Z</time>
      </trkpt>
      <trkpt lat="38.94317" lon="-0.37309">
        <time>2019-03-23T11:03:34Z</time>
      </trkpt>
      <trkpt lat="38.94316" lon="-0.37331">
        <time>2019-03-23T11:03:35Z</time>
      </trkpt>
      <trkpt lat="38.94314" lon="-0.37353">
        <time>2019-03-23T11:03:36Z</time>
      </trkpt>
      <trkpt lat="38.9431" lon="-0.37377">
        <time>2019-03-23T11:03:37Z</time>
      </trkpt>
      <trkpt lat="38.94307" lon="-0.37402">
        <time>2019-03-23T11:03:38Z</time>
      </trkpt>
      <trkpt lat="38.94304" lon="-0.37427">
        <time>2019-03-23T11:03:39Z</time>
      </trkpt>
      <trkpt lat="38.943" lon="-0.37452">
        <time>2019-03-23T11:03:40Z</time>
      </trkpt>
      <trkpt lat="38.94297" lon="-0.37477">
        <time>2019-03-23T11:03:41Z</time>
      </trkpt>
      <trkpt lat="38.94294" lon="-0.37503">
        <time>2019-03-23T11:03:42Z</time>
      </trkpt>
      <trkpt lat="38.9429" lon="-0.37528">
        <time>2019-03-23T11:03:43Z</time>
      </trkpt>
      <trkpt lat="38.94287" lon="-0.37553">
        <time>2019-03-23T11:03:44Z</time>
      </trkpt>
      <trkpt lat="38.94284" lon="-0.37578">
        <time>2019-03-23T11:03:45Z</time>
      </trkpt>
      <trkpt lat="38.94279" lon="-0.37602">
        <time>2019-03-23T11:03:46Z</time>
      </trkpt>
      <trkpt lat="38.9427" lon="-0.37626">
        <time>2019-03-23T11:03:47Z</time>
      </trkpt>
      <trkpt lat="38.94259" lon="-0.37651">
        <time>2019-03-23T11:03:48Z</time>
      </trkpt>
      <trkpt lat="38.94248" lon="-0.37676">
        <time>2019-03-23T11:03:49Z</time>
      </trkpt>
      <trkpt lat="38.94237" lon="-0.37702">
        <time>2019-03-23T11:03:50Z</time>
      </trkpt>
      <trkpt lat="38.94226" lon="-0.37727">
        <time>2019-03-23T11:03:51Z</time>
      </trkpt>
      <trkpt lat="38.94216" lon="-0.37751">
        <time>2019-03-23T11:03:52Z</time>
      </trkpt>
      <trkpt lat="38.94206" lon="-0.37776">
        <time>2019-03-23T11:03:53Z</time>
      </trkpt>
      <trkpt lat="38.94195" lon="-0.378">
        <time>2019-03-23T11:03:54Z</time>
      </trkpt>
      <trkpt lat="38.94185" lon="-0.37824">
        <time>2019-03-23T11:03:55Z</time>
      </trkpt>
      <trkpt lat="38.94176" lon="-0.37848">
        <time>2019-03-23T11:03:56Z</time>
      </trkpt>
      <trkpt lat="38.9417" lon="-0.37874">
        <time>2019-03-23T11:03:57Z</time>
      </trkpt>
      <trkpt lat="38.94168" lon="-0.37899">
        <time>2019-03-23T11:03:58Z</time>
      </trkpt>
      <trkpt lat="38.9417" lon="-0.37923">
        <time>2019-03-23T11:03:59Z</time>
      </trkpt>
      <trkpt lat="38.94175" lon="-0.37943">
        <time>2019-03-23T11:04:00Z</time>
      </trkpt>
      <trkpt lat="38.94183" lon="-0.37961">
        <time>2019-03-23T11:04:01Z</time>
      </trkpt>
      <trkpt lat="38.94191" lon="-0.37977">
        <time>2019-03-23T11:04:02Z</time>
      </trkpt>
      <trkpt lat="38.94199" lon="-0.37994">
        <time>2019-03-23T11:04:03Z</time>
      </trkpt>
      <trkpt lat="38.94207" lon="-0.38011">
        <time>2019-03-23T11:04:04Z</time>
      </trkpt>
      <trkpt lat="38.94215" lon="-0.38027">
        <time>2019-03-23T11:04:05Z</time>
      </trkpt>
      <trkpt lat="38.94224" lon="-0.38044">
        <time>2019-03-23T11:04:06Z</time>
      </trkpt>
      <trkpt lat="38.94233" lon="-0.38062">
        <time>2019-03-23T11:04:07Z</time>
      </trkpt>
      <trkpt lat="38.94243" lon="-0.3808">
        <time>2019-03-23T11:04:08Z</time>
      </trkpt>
      <trkpt lat="38.94253" lon="-0.381">
        <time>2019-03-23T11:04:09Z</time>
      </trkpt>
      <trkpt lat="38.94263" lon="-0.3812">
        <time>2019-03-23T11:04:10Z</time>
      </trkpt>
      <trkpt lat="38.94273" lon="-0.38141">
        <time>2019-03-23T11:04:11Z</time>
      </trkpt>
      <trkpt lat="38.94282" lon="-0.3816">
        <time>2019-03-23T11:04:12Z</time>
      </trkpt>
      <trkpt lat="38.94291" lon="-0.38177">
        <time>2019-03-23T11:04:13Z</time>
      </trkpt>
      <trkpt lat="38.943" lon="-0.38195">
        <time>2019-03-23T11:04:14Z</time>
      </trkpt>
      <trkpt lat="38.94309" lon="-0.38213">
        <time>2019-03-23T11:04:15Z</time>
      </trkpt>
      <trkpt lat="38.94319" lon="-0.38232">
        <time>2019-03-23T11:04:16Z</time>
      </trkpt>
      <trkpt lat="38.94329" lon="-0.3825">
        <time>2019-03-23T11:04:17Z</time>
      </trkpt>
      <trkpt lat="38.94337" lon="-0.38267">
        <time>2019-03-23T11:04:18Z</time>
      </trkpt>
      <trkpt lat="38.94345" lon="-0.38282">
        <time>2019-03-23T11:04:19Z</time>
      </trkpt>
      <trkpt lat="38.94352" lon="-0.38296">
        <time>2019-03-23T11:04:20Z</time>
      </trkpt>
      <trkpt lat="38.94359" lon="-0.3831">
        <time>2019-03-23T11:04:21Z</time>
      </trkpt>
      <trkpt lat="38.94363" lon="-0.38325">
        <time>2019-03-23T11:04:22Z</time>
      </trkpt>
      <trkpt lat="38.94365" lon="-0.38341">
        <time>2019-03-23T11:04:23Z</time>
      </trkpt>
      <trkpt lat="38.94364" lon="-0.38357">
        <time>2019-03-23T11:04:24Z</time>
      </trkpt>
      <trkpt lat="38.94361" lon="-0.38372">
        <time>2019-03-23T11:04:25Z</time>
      </trkpt>
      <trkpt lat="38.94356" lon="-0.38386">
        <time>2019-03-23T11:04:26Z</time>
      </trkpt>
      <trkpt lat="38.9435" lon="-0.384">
        <time>2019-03-23T11:04:27Z</time>
      </trkpt>
      <trkpt lat="38.94345" lon="-0.38416">
        <time>2019-03-23T11:04:28Z</time>
      </trkpt>
      <trkpt lat="38.9434" lon="-0.38433">
        <time>2019-03-23T11:04:29Z</time>
      </trkpt>
      <trkpt lat="38.94337" lon="-0.38448">
        <time>2019-03-23T11:04:30Z</time>
      </trkpt>
      <trkpt lat="38.94337" lon="-0.38466">
        <time>2019-03-23T11:04:31Z</time>
      </trkpt>
      <trkpt lat="38.94341" lon="-0.38485">
        <time>2019-03-23T11:04:32Z</time>
      </trkpt>
      <trkpt lat="38.94348" lon="-0.38506">
        <time>2019-03-23T11:04:33Z</time>
      </trkpt>
      <trkpt lat="38.94359" lon="-0.38528">
        <time>2019-03-23T11:04:34Z</time>
      </trkpt>
      <trkpt lat="38.94371" lon="-0.38552">
        <time>2019-03-23T11:04:35Z</time>
      </trkpt>
      <trkpt lat="38.94385" lon="-0.38578">
        <time>2019-03-23T11:04:36Z</time>
      </trkpt>
      <trkpt lat="38.94397" lon="-0.38604">
        <time>2019-03-23T11:04:37Z</time>
      </trkpt>
      <trkpt lat="38.94409" lon="-0.3863">
        <time>2019-03-23T11:04:38Z</time>
      </trkpt>
      <trkpt lat="38.94422" lon="-0.38656">
        <time>2019-03-23T11:04:39Z</time>
      </trkpt>
      <trkpt lat="38.94434" lon="-0.38682">
        <time>2019-03-23T11:04:40Z</time>
      </trkpt>
      <trkpt lat="38.94445" lon="-0.38707">
        <time>2019-03-23T11:04:41Z</time>
      </trkpt>
      <trkpt lat="38.94456" lon="-0.38733">
        <time>2019-03-23T11:04:42Z</time>
      </trkpt>
      <trkpt lat="38.94465" lon="-0.38761">
        <time>2019-03-23T11:04:43Z</time>
      </trkpt>
      <trkpt lat="38.94474" lon="-0.38789">
        <time>2019-03-23T11:04:44Z</time>
      </trkpt>
      <trkpt lat="38.94481" lon="-0.38816">
        <time>2019-03-23T11:04:45Z</time>
      </trkpt>
      <trkpt lat="38.94488" lon="-0.38842">
        <time>2019-03-23T11:04:46Z</time>
      </trkpt>
      <trkpt lat="38.94495" lon="-0.38866">
        <time>2019-03-23T11:04:47Z</time>
      </trkpt>
      <trkpt lat="38.94501" lon="-0.38889">
        <time>2019-03-23T11:04:48Z</time>
      </trkpt>
      <trkpt lat="38.94507" lon="-0.38911">
        <time>2019-03-23T11:04:49Z</time>
      </trkpt>
      <trkpt lat="38.94512" lon="-0.38933">
        <time>2019-03-23T11:04:50Z</time>
      </trkpt>
      <trkpt lat="38.94515" lon="-0.38955">
        <time>2019-03-23T11:04:51Z</time>
      </trkpt>
      <trkpt lat="38.94514" lon="-0.38979">
        <time>2019-03-23T11:04:52Z</time>
      </trkpt>
      <trkpt lat="38.9451" lon="-0.39003">
        <time>2019-03-23T11:04:53Z</time>
      </trkpt>
      <trkpt lat="38.94504" lon="-0.39027">
        <time>2019-03-23T11:04:54Z</time>
      </trkpt>
      <trkpt lat="38.94498" lon="-0.39052">
        <time>2019-03-23T11:04:55Z</time>
      </trkpt>
      <trkpt lat="38.94492" lon="-0.39075">
        <time>2019-03-23T11:04:56Z</time>
      </trkpt>
      <trkpt lat="38.94486" lon="-0.39097">
        <time>2019-03-23T11:04:57Z</time>
      </trkpt>
      <trkpt lat="38.94481" lon="-0.39118">
        <time>2019-03-23T11:04:58Z</time>
      </trkpt>
      <trkpt lat="38.94476" lon="-0.39138">
        <time>2019-03-23T11:04:59Z</time>
      </trkpt>
      <trkpt lat="38.94472" lon="-0.39158">
        <time>2019-03-23T11:05:00Z</time>
      </trkpt>
      <trkpt lat="38.94466" lon="-0.39179">
        <time>2019-03-23T11:05:01Z</time>
      </trkpt>
      <trkpt lat="38.94459" lon="-0.392">
        <time>2019-03-23T11:05:02Z</time>
      </trkpt>
      <trkpt lat="38.94449" lon="-0.3922">
        <time>2019-03-23T11:05:03Z</time>
      </trkpt>
      <trkpt lat="38.94439" lon="-0.39239">
        <time>2019-03-23T11:05:04Z</time>
      </trkpt>
      <trkpt lat="38.94431" lon="-0.39256">
        <time>2019-03-23T11:05:05Z</time>
      </trkpt>
      <trkpt lat="38.94426" lon="-0.39272">
        <time>2019-03-23T11:05:06Z</time>
      </trkpt>
      <trkpt lat="38.94425" lon="-0.39289">
        <time>2019-03-23T11:05:07Z</time>
      </trkpt>
      <trkpt lat="38.94429" lon="-0.39304">
        <time>2019-03-23T11:05:08Z</time>
      </trkpt>
      <trkpt lat="38.94435" lon="-0.39317">
        <time>2019-03-23T11:05:09Z</time>
      </trkpt>
      <trkpt lat="38.94447" lon="-0.39329">
        <time>2019-03-23T11:05:10Z</time>
      </trkpt>
      <trkpt lat="38.94459" lon="-0.39343">
        <time>2019-03-23T11:05:11Z</time>
      </trkpt>
      <trkpt lat="38.94472" lon="-0.39359">
        <time>2019-03-23T11:05:12Z</time>
      </trkpt>
      <trkpt lat="38.94485" lon="-0.39376">
        <time>2019-03-23T11:05:13Z</time>
      </trkpt>
      <trkpt lat="38.945" lon="-0.39393">
        <time>2019-03-23T11:05:14Z</time>
      </trkpt>
      <trkpt lat="38.94515" lon="-0.3941">
        <time>2019-03-23T11:05:15Z</time>
      </trkpt>
      <trkpt lat="38.94529" lon="-0.39429">
        <time>2019-03-23T11:05:16Z</time>
      </trkpt>
      <trkpt lat="38.94542" lon="-0.39449">
        <time>2019-03-23T11:05:17Z</time>
      </trkpt>
      <trkpt lat="38.94554" lon="-0.3947">
        <time>2019-03-23T11:05:18Z</time>
      </trkpt>
      <trkpt lat="38.94566" lon="-0.39492">
        <time>2019-03-23T11:05:19Z</time>
      </trkpt>
      <trkpt lat="38.94576" lon="-0.39514">
        <time>2019-03-23T11:05:20Z</time>
      </trkpt>
      <trkpt lat="38.94586" lon="-0.39536">
        <time>2019-03-23T11:05:21Z</time>
      </trkpt>
      <trkpt lat="38.94595" lon="-0.39559">
        <time>2019-03-23T11:05:22Z</time>
      </trkpt>
      <trkpt lat="38.94603" lon="-0.3958">
        <time>2019-03-23T11:05:23Z</time>
      </trkpt>
      <trkpt lat="38.9461" lon="-0.396">
        <time>2019-03-23T11:05:24Z</time>
      </trkpt>
      <trkpt lat="38.94616" lon="-0.39619">
        <time>2019-03-23T11:05:25Z</time>
      </trkpt>
      <trkpt lat="38.94621" lon="-0.39637">
        <time>2019-03-23T11:05:26Z</time>
      </trkpt>
      <trkpt lat="38.94626" lon="-0.39652">
        <time>2019-03-23T11:05:27Z</time>
      </trkpt>
      <trkpt lat="38.94631" lon="-0.39665">
        <time>2019-03-23T11:05:28Z</time>
      </trkpt>
      <trkpt lat="38.94634" lon="-0.39675">
        <time>2019-03-23T11:05:29Z</time>
      </trkpt>
      <trkpt lat="38.94637" lon="-0.39684">
        <time>2019-03-23T11:05:30Z</time>
      </trkpt>
      <trkpt lat="38.9464" lon="-0.39691">
        <time>2019-03-23T11:05:31Z</time>
      </trkpt>
      <trkpt lat="38.94643" lon="-0.39699">
        <time>2019-03-23T11:05:32Z</time>
      </trkpt>
      <trkpt lat="38.94645" lon="-0.39709">
        <time>2019-03-23T11:05:33Z</time>
      </trkpt>
      <trkpt lat="38.94648" lon="-0.39721">
        <time>2019-03-23T11:05:34Z</time>
      </trkpt>
      <trkpt lat="38.94652" lon="-0.39734">
        <time>2019-03-23T11:05:35Z</time>
      </trkpt>
      <trkpt lat="38.94656" lon="-0.39747">
        <time>2019-03-23T11:05:36Z</time>
      </trkpt>
      <trkpt lat="38.9466" lon="-0.39759">
        <time>2019-03-23T11:05:37Z</time>
      </trkpt>
      <trkpt lat="38.94665" lon="-0.39773">
        <time>2019-03-23T11:05:38Z</time>
      </trkpt>
      <trkpt lat="38.94669" lon="-0.39788">
        <time>2019-03-23T11:05:39Z</time>
      </trkpt>
      <trkpt lat="38.94675" lon="-0.39805">
        <time>2019-03-23T11:05:40Z</time>
      </trkpt>
      <trkpt lat="38.94681" lon="-0.39822">
        <time>2019-03-23T11:05:41Z</time>
      </trkpt>
      <trkpt lat="38.94688" lon="-0.3984">
        <time>2019-03-23T11:05:42Z</time>
      </trkpt>
      <trkpt lat="38.94695" lon="-0.39859">
        <time>2019-03-23T11:05:43Z</time>
      </trkpt>
      <trkpt lat="38.94701" lon="-0.39879">
        <time>2019-03-23T11:05:44Z</time>
      </trkpt>
      <trkpt lat="38.94707" lon="-0.39899">
        <time>2019-03-23T11:05:45Z</time>
      </trkpt>
      <trkpt lat="38.94713" lon="-0.39917">
        <time>2019-03-23T11:05:46Z</time>
      </trkpt>
      <trkpt lat="38.94718" lon="-0.39935">
        <time>2019-03-23T11:05:47Z</time>
      </trkpt>
      <trkpt lat="38.94723" lon="-0.39952">
        <time>2019-03-23T11:05:48Z</time>
      </trkpt>
      <trkpt lat="38.94727" lon="-0.39968">
        <time>2019-03-23T11:05:49Z</time>
      </trkpt>
      <trkpt lat="38.9473" lon="-0.39983">
        <time>2019-03-23T11:05:50Z</time>
      </trkpt>
      <trkpt lat="38.94732" lon="-0.39996">
        <time>2019-03-23T11:05:51Z</time>
      </trkpt>
      <trkpt lat="38.94734" lon="-0.40008">
        <time>2019-03-23T11:05:52Z</time>
      </trkpt>
      <trkpt lat="38.94736" lon="-0.40021">
        <time>2019-03-23T11:05:53Z</time>
      </trkpt>
      <trkpt lat="38.94737" lon="-0.40036">
        <time>2019-03-23T11:05:54Z</time>
      </trkpt>
      <trkpt lat="38.94737" lon="-0.40049">
        <time>2019-03-23T11:05:55Z</time>
      </trkpt>
      <trkpt lat="38.94738" lon="-0.40063">
        <time>2019-03-23T11:05:56Z</time>
      </trkpt>
      <trkpt lat="38.94738" lon="-0.40077">
        <time>2019-03-23T11:05:57Z</time>
      </trkpt>
      <trkpt lat="38.94738" lon="-0.40091">
        <time>2019-03-23T11:05:58Z</time>
      </trkpt>
      <trkpt lat="38.94737" lon="-0.40105">
        <time>2019-03-23T11:05:59Z</time>
      </trkpt>
      <trkpt lat="38.94738" lon="-0.40118">
        <time>2019-03-23T11:06:00Z</time>
      </trkpt>
      <trkpt lat="38.94738" lon="-0.40131">
        <time>2019-03-23T11:06:01Z</time>
      </trkpt>
      <trkpt lat="38.94738" lon="-0.40145">
        <time>2019-03-23T11:06:02Z</time>
      </trkpt>
      <trkpt lat="38.94738" lon="-0.40162">
        <time>2019-03-23T11:06:03Z</time>
      </trkpt>
      <trkpt lat="38.94738" lon="-0.40179">
        <time>2019-03-23T11:06:04Z</time>
      </trkpt>
      <trkpt lat="38.94738" lon="-0.40197">
        <time>2019-03-23T11:06:05Z</time>
      </trkpt>
      <trkpt lat="38.94739" lon="-0.40215">
        <time>2019-03-23T11:06:06Z</time>
      </trkpt>
      <trkpt lat="38.94739" lon="-0.40232">
        <time>2019-03-23T11:06:07Z</time>
      </trkpt>
      <trkpt lat="38.94739" lon="-0.40247">
        <time>2019-03-23T11:06:08Z</time>
      </trkpt>
      <trkpt lat="38.9474" lon="-0.40264">
        <time>2019-03-23T11:06:09Z</time>
      </trkpt>
      <trkpt lat="38.9474" lon="-0.40283">
        <time>2019-03-23T11:06:10Z</time>
      </trkpt>
      <trkpt lat="38.9474" lon="-0.40302">
        <time>2019-03-23T11:06:11Z</time>
      </trkpt>
      <trkpt lat="38.9474" lon="-0.4032">
        <time>2019-03-23T11:06:12Z</time>
      </trkpt>
      <trkpt lat="38.94741" lon="-0.40338">
        <time>2019-03-23T11:06:13Z</time>
      </trkpt>
      <trkpt lat="38.94741" lon="-0.40353">
        <time>2019-03-23T11:06:14Z</time>
      </trkpt>
      <trkpt lat="38.94743" lon="-0.40366">
        <time>2019-03-23T11:06:15Z</time>
      </trkpt>
      <trkpt lat="38.94746" lon="-0.4038">
        <time>2019-03-23T11:06:16Z</time>
      </trkpt>
      <trkpt lat="38.94749" lon="-0.40392">
        <time>2019-03-23T11:06:17Z</time>
      </trkpt>
      <trkpt lat="38.94753" lon="-0.40403">
        <time>2019-03-23T11:06:18Z</time>
      </trkpt>
      <trkpt lat="38.94757" lon="-0.40413">
        <time>2019-03-23T11:06:19Z</time>
      </trkpt>
      <trkpt lat="38.94758" lon="-0.40424">
        <time>2019-03-23T11:06:20Z</time>
      </trkpt>
      <trkpt lat="38.94755" lon="-0.40436">
        <time>2019-03-23T11:06:21Z</time>
      </trkpt>
      <trkpt lat="38.9475" lon="-0.40448">
        <time>2019-03-23T11:06:22Z</time>
      </trkpt>
      <trkpt lat="38.94746" lon="-0.4046">
        <time>2019-03-23T11:06:23Z</time>
      </trkpt>
      <trkpt lat="38.94743" lon="-0.40472">
        <time>2019-03-23T11:06:24Z</time>
      </trkpt>
      <trkpt lat="38.9474" lon="-0.40484">
        <time>2019-03-23T11:06:25Z</time>
      </trkpt>
      <trkpt lat="38.94737" lon="-0.40496">
        <time>2019-03-23T11:06:26Z</time>
      </trkpt>
      <trkpt lat="38.94735" lon="-0.4051">
        <time>2019-03-23T11:06:27Z</time>
      </trkpt>
      <trkpt lat="38.94732" lon="-0.40525">
        <time>2019-03-23T11:06:28Z</time>
      </trkpt>
      <trkpt lat="38.94728" lon="-0.40542">
        <time>2019-03-23T11:06:29Z</time>
      </trkpt>
      <trkpt lat="38.94724" lon="-0.40561">
        <time>2019-03-23T11:06:30Z</time>
      </trkpt>
      <trkpt lat="38.9472" lon="-0.4058">
        <time>2019-03-23T11:06:31Z</time>
      </trkpt>
      <trkpt lat="38.94716" lon="-0.40599">
        <time>2019-03-23T11:06:32Z</time>
      </trkpt>
      <trkpt lat="38.94712" lon="-0.40617">
        <time>2019-03-23T11:06:33Z</time>
      </trkpt>
      <trkpt lat="38.94708" lon="-0.40634">
        <time>2019-03-23T11:06:34Z</time>
      </trkpt>
      <trkpt lat="38.94705" lon="-0.4065">
        <time>2019-03-23T11:06:35Z</time>
      </trkpt>
      <trkpt lat="38.94701" lon="-0.40666">
        <time>2019-03-23T11:06:36Z</time>
      </trkpt>
      <trkpt lat="38.94696" lon="-0.40685">
        <time>2019-03-23T11:06:37Z</time>
      </trkpt>
      <trkpt lat="38.94692" lon="-0.40706">
        <time>2019-03-23T11:06:38Z</time>
      </trkpt>
      <trkpt lat="38.94686" lon="-0.4073">
        <time>2019-03-23T11:06:39Z</time>
      </trkpt>
      <trkpt lat="38.9468" lon="-0.40755">
        <time>2019-03-23T11:06:40Z</time>
      </trkpt>
      <trkpt lat="38.94675" lon="-0.4078">
        <time>2019-03-23T11:06:41Z</time>
      </trkpt>
      <trkpt lat="38.94668" lon="-0.40807">
        <time>2019-03-23T11:06:42Z</time>
      </trkpt>
      <trkpt lat="38.94662" lon="-0.40834">
        <time>2019-03-23T11:06:43Z</time>
      </trkpt>
      <trkpt lat="38.94655" lon="-0.40862">
        <time>2019-03-23T11:06:44Z</time>
      </trkpt>
      <trkpt lat="38.94649" lon="-0.40891">
        <time>2019-03-23T11:06:45Z</time>
      </trkpt>
      <trkpt lat="38.94642" lon="-0.4092">
        <time>2019-03-23T11:06:46Z</time>
      </trkpt>
      <trkpt lat="38.94636" lon="-0.4095">
        <time>2019-03-23T11:06:47Z</time>
      </trkpt>
      <trkpt lat="38.94629" lon="-0.4098">
        <time>2019-03-23T11:06:48Z</time>
      </trkpt>
      <trkpt lat="38.94622" lon="-0.41009">
        <time>2019-03-23T11:06:49Z</time>
      </trkpt>
      <trkpt lat="38.94616" lon="-0.41039">
        <time>2019-03-23T11:06:50Z</time>
      </trkpt>
      <trkpt lat="38.94609" lon="-0.41067">
        <time>2019-03-23T11:06:51Z</time>
      </trkpt>
      <trkpt lat="38.94602" lon="-0.41097">
        <time>2019-03-23T11:06:52Z</time>
      </trkpt>
      <trkpt lat="38.94595" lon="-0.41127">
        <time>2019-03-23T11:06:53Z</time>
      </trkpt>
      <trkpt lat="38.94589" lon="-0.41157">
        <time>2019-03-23T11:06:54Z</time>
      </trkpt>
      <trkpt lat="38.94582" lon="-0.41187">
        <time>2019-03-23T11:06:55Z</time>
      </trkpt>
      <trkpt lat="38.94575" lon="-0.41217">
        <time>2019-03-23T11:06:56Z</time>
      </trkpt>
      <trkpt lat="38.94569" lon="-0.41248">
        <time>2019-03-23T11:06:57Z</time>
      </trkpt>
      <trkpt lat="38.94564" lon="-0.41277">
        <time>2019-03-23T11:06:58Z</time>
      </trkpt>
      <trkpt lat="38.94561" lon="-0.41307">
        <time>2019-03-23T11:06:59Z</time>
      </trkpt>
      <trkpt lat="38.94561" lon="-0.41338">
        <time>2019-03-23T11:07:00Z</time>
      </trkpt>
      <trkpt lat="38.94562" lon="-0.41369">
        <time>2019-03-23T11:07:01Z</time>
      </trkpt>
      <trkpt lat="38.94563" lon="-0.41401">
        <time>2019-03-23T11:07:02Z</time>
      </trkpt>
      <trkpt lat="38.94565" lon="-0.41433">
        <time>2019-03-23T11:07:03Z</time>
      </trkpt>
      <trkpt lat="38.94566" lon="-0.41465">
        <time>2019-03-23T11:07:04Z</time>
      </trkpt>
      <trkpt lat="38.94567" lon="-0.41497">
        <time>2019-03-23T11:07:05Z</time>
      </trkpt>
      <trkpt lat="38.94569" lon="-0.41528">
        <time>2019-03-23T11:07:06Z</time>
      </trkpt>
      <trkpt lat="38.9457" lon="-0.4156">
        <time>2019-03-23T11:07:07Z</time>
      </trkpt>
      <trkpt lat="38.94572" lon="-0.41592">
        <time>2019-03-23T11:07:08Z</time>
      </trkpt>
      <trkpt lat="38.94574" lon="-0.41624">
        <time>2019-03-23T11:07:09Z</time>
      </trkpt>
      <trkpt lat="38.94575" lon="-0.41656">
        <time>2019-03-23T11:07:10Z</time>
      </trkpt>
      <trkpt lat="38.94577" lon="-0.41686">
        <time>2019-03-23T11:07:11Z</time>
      </trkpt>
      <trkpt lat="38.94578" lon="-0.41714">
        <time>2019-03-23T11:07:12Z</time>
      </trkpt>
      <trkpt lat="38.94578" lon="-0.41743">
        <time>2019-03-23T11:07:13Z</time>
      </trkpt>
      <trkpt lat="38.94577" lon="-0.41772">
        <time>2019-03-23T11:07:14Z</time>
      </trkpt>
      <trkpt lat="38.94572" lon="-0.41802">
        <time>2019-03-23T11:07:15Z</time>
      </trkpt>
      <trkpt lat="38.94564" lon="-0.41831">
        <time>2019-03-23T11:07:16Z</time>
      </trkpt>
      <trkpt lat="38.94555" lon="-0.4186">
        <time>2019-03-23T11:07:17Z</time>
      </trkpt>
      <trkpt lat="38.94545" lon="-0.4189">
        <time>2019-03-23T11:07:18Z</time>
      </trkpt>
      <trkpt lat="38.94534" lon="-0.4192">
        <time>2019-03-23T11:07:19Z</time>
      </trkpt>
      <trkpt lat="38.94524" lon="-0.4195">
        <time>2019-03-23T11:07:20Z</time>
      </trkpt>
      <trkpt lat="38.94513" lon="-0.4198">
        <time>2019-03-23T11:07:21Z</time>
      </trkpt>
      <trkpt lat="38.94503" lon="-0.4201">
        <time>2019-03-23T11:07:22Z</time>
      </trkpt>
      <trkpt lat="38.94492" lon="-0.42041">
        <time>2019-03-23T11:07:23Z</time>
      </trkpt>
      <trkpt lat="38.94481" lon="-0.42071">
        <time>2019-03-23T11:07:24Z</time>
      </trkpt>
      <trkpt lat="38.9447" lon="-0.42102">
        <time>2019-03-23T11:07:25Z</time>
      </trkpt>
      <trkpt lat="38.94459" lon="-0.42133">
        <time>2019-03-23T11:07:26Z</time>
      </trkpt>
      <trkpt lat="38.94449" lon="-0.42162">
        <time>2019-03-23T11:07:27Z</time>
      </trkpt>
      <trkpt lat="38.9444" lon="-0.42191">
        <time>2019-03-23T11:07:28Z</time>
      </trkpt>
      <trkpt lat="38.9443" lon="-0.42218">
        <time>2019-03-23T11:07:29Z</time>
      </trkpt>
      <trkpt lat="38.94421" lon="-0.42244">
        <time>2019-03-23T11:07:30Z</time>
      </trkpt>
      <trkpt lat="38.94413" lon="-0.42268">
        <time>2019-03-23T11:07:31Z</time>
      </trkpt>
      <trkpt lat="38.94405" lon="-0.42292">
        <time>2019-03-23T11:07:32Z</time>
      </trkpt>
      <trkpt lat="38.94397" lon="-0.42315">
        <time>2019-03-23T11:07:33Z</time>
      </trkpt>
      <trkpt lat="38.94389" lon="-0.42338">
        <time>2019-03-23T11:07:34Z</time>
      </trkpt>
      <trkpt lat="38.94383" lon="-0.42361">
        <time>2019-03-23T11:07:35Z</time>
      </trkpt>
      <trkpt lat="38.94381" lon="-0.42385">
        <time>2019-03-23T11:07:36Z</time>
      </trkpt>
      <trkpt lat="38.94382" lon="-0.42411">
        <time>2019-03-23T11:07:37Z</time>
      </trkpt>
      <trkpt lat="38.94387" lon="-0.42435">
        <time>2019-03-23T11:07:38Z</time>
      </trkpt>
      <trkpt lat="38.94393" lon="-0.42457">
        <time>2019-03-23T11:07:39Z</time>
      </trkpt>
      <trkpt lat="38.94397" lon="-0.42477">
        <time>2019-03-23T11:07:40Z</time>
      </trkpt>
      <trkpt lat="38.94399" lon="-0.42496">
        <time>2019-03-23T11:07:41Z</time>
      </trkpt>
      <trkpt lat="38.94397" lon="-0.42512">
        <time>2019-03-23T11:07:42Z</time>
      </trkpt>
      <trkpt lat="38.94392" lon="-0.42525">
        <time>2019-03-23T11:07:43Z</time>
      </trkpt>
      <trkpt lat="38.94382" lon="-0.42533">
        <time>2019-03-23T11:07:44Z</time>
      </trkpt>
      <trkpt lat="38.94368" lon="-0.42537">
        <time>2019-03-23T11:07:45Z</time>
      </trkpt>
      <trkpt lat="38.94353" lon="-0.4254">
        <time>2019-03-23T11:07:46Z</time>
      </trkpt>
      <trkpt lat="38.94336" lon="-0.42545">
        <time>2019-03-23T11:07:47Z</time>
      </trkpt>
      <trkpt lat="38.94318" lon="-0.42551">
        <time>2019-03-23T11:07:48Z</time>
      </trkpt>
      <trkpt lat="38.94296" lon="-0.42557">
        <time>2019-03-23T11:07:49Z</time>
      </trkpt>
      <trkpt lat="38.94276" lon="-0.42563">
        <time>2019-03-23T11:07:50Z</time>
      </trkpt>
      <trkpt lat="38.94255" lon="-0.42568">
        <time>2019-03-23T11:07:51Z</time>
      </trkpt>
      <trkpt lat="38.94237" lon="-0.42572">
        <time>2019-03-23T11:07:52Z</time>
      </trkpt>
      <trkpt lat="38.94219" lon="-0.4258">
        <time>2019-03-23T11:07:53Z</time>
      </trkpt>
      <trkpt lat="38.94202" lon="-0.42591">
        <time>2019-03-23T11:07:54Z</time>
      </trkpt>
      <trkpt lat="38.94187" lon="-0.42605">
        <time>2019-03-23T11:07:55Z</time>
      </trkpt>
      <trkpt lat="38.94173" lon="-0.42623">
        <time>2019-03-23T11:07:56Z</time>
      </trkpt>
      <trkpt lat="38.94162" lon="-0.42641">
        <time>2019-03-23T11:07:57Z</time>
      </trkpt>
      <trkpt lat="38.94155" lon="-0.42661">
        <time>2019-03-23T11:07:58Z</time>
      </trkpt>
      <trkpt lat="38.94152" lon="-0.42681">
        <time>2019-03-23T11:07:59Z</time>
      </trkpt>
      <trkpt lat="38.94153" lon="-0.42703">
        <time>2019-03-23T11:08:00Z</time>
      </trkpt>
      <trkpt lat="38.94158" lon="-0.42724">
        <time>2019-03-23T11:08:01Z</time>
      </trkpt>
      <trkpt lat="38.94167" lon="-0.42743">
        <time>2019-03-23T11:08:02Z</time>
      </trkpt>
      <trkpt lat="38.94179" lon="-0.42758">
        <time>2019-03-23T11:08:03Z</time>
      </trkpt>
      <trkpt lat="38.94193" lon="-0.4277">
        <time>2019-03-23T11:08:04Z</time>
      </trkpt>
      <trkpt lat="38.9421" lon="-0.42782">
        <time>2019-03-23T11:08:05Z</time>
      </trkpt>
      <trkpt lat="38.94228" lon="-0.42793">
        <time>2019-03-23T11:08:06Z</time>
      </trkpt>
      <trkpt lat="38.94247" lon="-0.42806">
        <time>2019-03-23T11:08:07Z</time>
      </trkpt>
      <trkpt lat="38.94266" lon="-0.42817">
        <time>2019-03-23T11:08:08Z</time>
      </trkpt>
      <trkpt lat="38.94287" lon="-0.42828">
        <time>2019-03-23T11:08:09Z</time>
      </trkpt>
      <trkpt lat="38.9431" lon="-0.42837">
        <time>2019-03-23T11:08:10Z</time>
      </trkpt>
      <trkpt lat="38.94332" lon="-0.42844">
        <time>2019-03-23T11:08:11Z</time>
      </trkpt>
      <trkpt lat="38.94356" lon="-0.42849">
        <time>2019-03-23T11:08:12Z</time>
      </trkpt>
      <trkpt lat="38.9438" lon="-0.42854">
        <time>2019-03-23T11:08:13Z</time>
      </trkpt>
      <trkpt lat="38.94403" lon="-0.42858">
        <time>2019-03-23T11:08:14Z</time>
      </trkpt>
      <trkpt lat="38.94424" lon="-0.42863">
        <time>2019-03-23T11:08:15Z</time>
      </trkpt>
      <trkpt lat="38.94446" lon="-0.42867">
        <time>2019-03-23T11:08:16Z</time>
      </trkpt>
      <trkpt lat="38.94467" lon="-0.42871">
        <time>2019-03-23T11:08:17Z</time>
      </trkpt>
      <trkpt lat="38.94487" lon="-0.42874">
        <time>2019-03-23T11:08:18Z</time>
      </trkpt>
      <trkpt lat="38.94507" lon="-0.42881">
        <time>2019-03-23T11:08:19Z</time>
      </trkpt>
      <trkpt lat="38.94527" lon="-0.4289">
        <time>2019-03-23T11:08:20Z</time>
      </trkpt>
      <trkpt lat="38.94545" lon="-0.42902">
        <time>2019-03-23T11:08:21Z</time>
      </trkpt>
      <trkpt lat="38.94563" lon="-0.42916">
        <time>2019-03-23T11:08:22Z</time>
      </trkpt>
      <trkpt lat="38.94579" lon="-0.42933">
        <time>2019-03-23T11:08:23Z</time>
      </trkpt>
      <trkpt lat="38.94597" lon="-0.4295">
        <time>2019-03-23T11:08:24Z</time>
      </trkpt>
      <trkpt lat="38.94614" lon="-0.42968">
        <time>2019-03-23T11:08:25Z</time>
      </trkpt>
      <trkpt lat="38.94633" lon="-0.42986">
        <time>2019-03-23T11:08:26Z</time>
      </trkpt>
      <trkpt lat="38.94651" lon="-0.43004">
        <time>2019-03-23T11:08:27Z</time>
      </trkpt>
      <trkpt lat="38.94665" lon="-0.4302">
        <time>2019-03-23T11:08:28Z</time>
      </trkpt>
      <trkpt lat="38.94677" lon="-0.43037">
        <time>2019-03-23T11:08:29Z</time>
      </trkpt>
      <trkpt lat="38.94684" lon="-0.43055">
        <time>2019-03-23T11:08:30Z</time>
      </trkpt>
      <trkpt lat="38.94686" lon="-0.43076">
        <time>2019-03-23T11:08:31Z</time>
      </trkpt>
      <trkpt lat="38.94685" lon="-0.43097">
        <time>2019-03-23T11:08:32Z</time>
      </trkpt>
      <trkpt lat="38.9468" lon="-0.43118">
        <time>2019-03-23T11:08:33Z</time>
      </trkpt>
      <trkpt lat="38.94672" lon="-0.4314">
        <time>2019-03-23T11:08:34Z</time>
      </trkpt>
      <trkpt lat="38.94664" lon="-0.43163">
        <time>2019-03-23T11:08:35Z</time>
      </trkpt>
      <trkpt lat="38.94655" lon="-0.43188">
        <time>2019-03-23T11:08:36Z</time>
      </trkpt>
      <trkpt lat="38.94646" lon="-0.43214">
        <time>2019-03-23T11:08:37Z</time>
      </trkpt>
      <trkpt lat="38.94638" lon="-0.43237">
        <time>2019-03-23T11:08:38Z</time>
      </trkpt>
      <trkpt lat="38.9463" lon="-0.43259">
        <time>2019-03-23T11:08:39Z</time>
      </trkpt>
      <trkpt lat="38.94623" lon="-0.43281">
        <time>2019-03-23T11:08:40Z</time>
      </trkpt>
      <trkpt lat="38.94619" lon="-0.43305">
        <time>2019-03-23T11:08:41Z</time>
      </trkpt>
      <trkpt lat="38.94618" lon="-0.43331">
        <time>2019-03-23T11:08:42Z</time>
      </trkpt>
      <trkpt lat="38.94618" lon="-0.43358">
        <time>2019-03-23T11:08:43Z</time>
      </trkpt>
      <trkpt lat="38.9462" lon="-0.43385">
        <time>2019-03-23T11:08:44Z</time>
      </trkpt>
      <trkpt lat="38.94622" lon="-0.43411">
        <time>2019-03-23T11:08:45Z</time>
      </trkpt>
      <trkpt lat="38.94623" lon="-0.43436">
        <time>2019-03-23T11:08:46Z</time>
      </trkpt>
      <trkpt lat="38.94622" lon="-0.43461">
        <time>2019-03-23T11:08:47Z</time>
      </trkpt>
      <trkpt lat="38.94619" lon="-0.43488">
        <time>2019-03-23T11:08:48Z</time>
      </trkpt>
      <trkpt lat="38.94615" lon="-0.43515">
        <time>2019-03-23T11:08:49Z</time>
      </trkpt>
      <trkpt lat="38.94609" lon="-0.43542">
        <time>2019-03-23T11:08:50Z</time>
      </trkpt>
      <trkpt lat="38.94602" lon="-0.4357">
        <time>2019-03-23T11:08:51Z</time>
      </trkpt>
      <trkpt lat="38.94595" lon="-0.43596">
        <time>2019-03-23T11:08:52Z</time>
      </trkpt>
      <trkpt lat="38.94588" lon="-0.4362">
        <time>2019-03-23T11:08:53Z</time>
      </trkpt>
      <trkpt lat="38.94583" lon="-0.43644">
        <time>2019-03-23T11:08:54Z</time>
      </trkpt>
      <trkpt lat="38.94577" lon="-0.43668">
        <time>2019-03-23T11:08:55Z</time>
      </trkpt>
      <trkpt lat="38.9457" lon="-0.43692">
        <time>2019-03-23T11:08:56Z</time>
      </trkpt>
      <trkpt lat="38.94564" lon="-0.43714">
        <time>2019-03-23T11:08:57Z</time>
      </trkpt>
      <trkpt lat="38.94559" lon="-0.43735">
        <time>2019-03-23T11:08:58Z</time>
      </trkpt>
      <trkpt lat="38.94554" lon="-0.43756">
        <time>2019-03-23T11:08:59Z</time>
      </trkpt>
      <trkpt lat="38.94549" lon="-0.43776">
        <time>2019-03-23T11:09:00Z</time>
      </trkpt>
      <trkpt lat="38.94544" lon="-0.43796">
        <time>2019-03-23T11:09:01Z</time>
      </trkpt>
      <trkpt lat="38.94538" lon="-0.43817">
        <time>2019-03-23T11:09:02Z</time>
      </trkpt>
      <trkpt lat="38.94533" lon="-0.43837">
        <time>2019-03-23T11:09:03Z</time>
      </trkpt>
      <trkpt lat="38.94528" lon="-0.43856">
        <time>2019-03-23T11:09:04Z</time>
      </trkpt>
      <trkpt lat="38.94521" lon="-0.43873">
        <time>2019-03-23T11:09:05Z</time>
      </trkpt>
      <trkpt lat="38.94513" lon="-0.43888">
        <time>2019-03-23T11:09:06Z</time>
      </trkpt>
      <trkpt lat="38.94503" lon="-0.43903">
        <time>2019-03-23T11:09:07Z</time>
      </trkpt>
      <trkpt lat="38.94492" lon="-0.43915">
        <time>2019-03-23T11:09:08Z</time>
      </trkpt>
      <trkpt lat="38.94479" lon="-0.43927">
        <time>2019-03-23T11:09:09Z</time>
      </trkpt>
      <trkpt lat="38.94466" lon="-0.43936">
        <time>2019-03-23T11:09:10Z</time>
      </trkpt>
      <trkpt lat="38.94453" lon="-0.43945">
        <time>2019-03-23T11:09:11Z</time>
      </trkpt>
      <trkpt lat="38.94441" lon="-0.43954">
        <time>2019-03-23T11:09:12Z</time>
      </trkpt>
      <trkpt lat="38.9443" lon="-0.43962">
        <time>2019-03-23T11:09:13Z</time>
      </trkpt>
      <trkpt lat="38.94418" lon="-0.43971">
        <time>2019-03-23T11:09:14Z</time>
      </trkpt>
      <trkpt lat="38.94406" lon="-0.43979">
        <time>2019-03-23T11:09:15Z</time>
      </trkpt>
      <trkpt lat="38.94394" lon="-0.43988">
        <time>2019-03-23T11:09:16Z</time>
      </trkpt>
      <trkpt lat="38.94384" lon="-0.43996">
        <time>2019-03-23T11:09:17Z</time>
      </trkpt>
      <trkpt lat="38.94374" lon="-0.44003">
        <time>2019-03-23T11:09:18Z</time>
      </trkpt>
      <trkpt lat="38.94365" lon="-0.4401">
        <time>2019-03-23T11:09:19Z</time>
      </trkpt>
      <trkpt lat="38.94358" lon="-0.44018">
        <time>2019-03-23T11:09:20Z</time>
      </trkpt>
      <trkpt lat="38.9435" lon="-0.44026">
        <time>2019-03-23T11:09:21Z</time>
      </trkpt>
      <trkpt lat="38.94342" lon="-0.44031">
        <time>2019-03-23T11:09:22Z</time>
      </trkpt>
      <trkpt lat="38.94332" lon="-0.44035">
        <time>2019-03-23T11:09:23Z</time>
      </trkpt>
      <trkpt lat="38.94323" lon="-0.4404">
        <time>2019-03-23T11:09:24Z</time>
      </trkpt>
      <trkpt lat="38.94314" lon="-0.44045">
        <time>2019-03-23T11:09:25Z</time>
      </trkpt>
      <trkpt lat="38.94306" lon="-0.44051">
        <time>2019-03-23T11:09:26Z</time>
      </trkpt>
      <trkpt lat="38.94297" lon="-0.44057">
        <time>2019-03-23T11:09:27Z</time>
      </trkpt>
      <trkpt lat="38.94287" lon="-0.44064">
        <time>2019-03-23T11:09:28Z</time>
      </trkpt>
      <trkpt lat="38.94277" lon="-0.44072">
        <time>2019-03-23T11:09:29Z</time>
      </trkpt>
      <trkpt lat="38.94268" lon="-0.44079">
        <time>2019-03-23T11:09:30Z</time>
      </trkpt>
      <trkpt lat="38.94258" lon="-0.44086">
        <time>2019-03-23T11:09:31Z</time>
      </trkpt>
      <trkpt lat="38.94249" lon="-0.44092">
        <time>2019-03-23T11:09:32Z</time>
      </trkpt>
      <trkpt lat="38.94241" lon="-0.44099">
        <time>2019-03-23T11:09:33Z</time>
      </trkpt>
      <trkpt lat="38.94233" lon="-0.44105">
        <time>2019-03-23T11:09:34Z</time>
      </trkpt>
      <trkpt lat="38.94224" lon="-0.44111">
        <time>2019-03-23T11:09:35Z</time>
      </trkpt>
      <trkpt lat="38.94216" lon="-0.44117">
        <time>2019-03-23T11:09:36Z</time>
      </trkpt>
      <trkpt lat="38.94206" lon="-0.44124">
        <time>2019-03-23T11:09:37Z</time>
      </trkpt>
      <trkpt lat="38.94197" lon="-0.44131">
        <time>2019-03-23T11:09:38Z</time>
      </trkpt>
      <trkpt lat="38.94187" lon="-0.44138">
        <time>2019-03-23T11:09:39Z</time>
      </trkpt>
      <trkpt lat="38.94177" lon="-0.44145">
        <time>2019-03-23T11:09:40Z</time>
      </trkpt>
      <trkpt lat="38.94169" lon="-0.44153">
        <time>2019-03-23T11:09:41Z</time>
      </trkpt>
      <trkpt lat="38.94161" lon="-0.44161">
        <time>2019-03-23T11:09:42Z</time>
      </trkpt>
      <trkpt lat="38.94155" lon="-0.4417">
        <time>2019-03-23T11:09:43Z</time>
      </trkpt>
      <trkpt lat="38.94149" lon="-0.44179">
        <time>2019-03-23T11:09:44Z</time>
      </trkpt>
      <trkpt lat="38.94145" lon="-0.44187">
        <time>2019-03-23T11:09:45Z</time>
      </trkpt>
      <trkpt lat="38.94141" lon="-0.44195">
        <time>2019-03-23T11:09:46Z</time>
      </trkpt>
      <trkpt lat="38.94139" lon="-0.44201">
        <time>2019-03-23T11:09:47Z</time>
      </trkpt>
      <trkpt lat="38.94138" lon="-0.44207">
        <time>2019-03-23T11:09:48Z</time>
      </trkpt>
      <trkpt lat="38.94136" lon="-0.44213">
        <time>2019-03-23T11:09:49Z</time>
      </trkpt>
      <trkpt lat="38.94135" lon="-0.44219">
        <time>2019-03-23T11:09:50Z</time>
      </trkpt>
      <trkpt lat="38.94133" lon="-0.44227">
        <time>2019-03-23T11:09:51Z</time>
      </trkpt>
      <trkpt lat="38.94132" lon="-0.44235">
        <time>2019-03-23T11:09:52Z</time>
      </trkpt>
      <trkpt lat="38.9413" lon="-0.44245">
        <time>2019-03-23T11:09:53Z</time>
      </trkpt>
      <trkpt lat="38.94128" lon="-0.44256">
        <time>2019-03-23T11:09:54Z</time>
      </trkpt>
      <trkpt lat="38.94126" lon="-0.44268">
        <time>2019-03-23T11:09:55Z</time>
      </trkpt>
      <trkpt lat="38.94124" lon="-0.4428">
        <time>2019-03-23T11:09:56Z</time>
      </trkpt>
      <trkpt lat="38.94121" lon="-0.44293">
        <time>2019-03-23T11:09:57Z</time>
      </trkpt>
      <trkpt lat="38.94119" lon="-0.44305">
        <time>2019-03-23T11:09:58Z</time>
      </trkpt>
      <trkpt lat="38.94117" lon="-0.44315">
        <time>2019-03-23T11:09:59Z</time>
      </trkpt>
      <trkpt lat="38.94115" lon="-0.44325">
        <time>2019-03-23T11:10:00Z</time>
      </trkpt>
      <trkpt lat="38.94113" lon="-0.44334">
        <time>2019-03-23T11:10:01Z</time>
      </trkpt>
      <trkpt lat="38.94112" lon="-0.44344">
        <time>2019-03-23T11:10:02Z</time>
      </trkpt>
      <trkpt lat="38.9411" lon="-0.44354">
        <time>2019-03-23T11:10:03Z</time>
      </trkpt>
      <trkpt lat="38.94109" lon="-0.44363">
        <time>2019-03-23T11:10:04Z</time>
      </trkpt>
      <trkpt lat="38.94108" lon="-0.44368">
        <time>2019-03-23T11:10:05Z</time>
      </trkpt>
      <trkpt lat="38.94108" lon="-0.4437">
        <time>2019-03-23T11:10:06Z</time>
      </trkpt>
      <trkpt lat="38.94107" lon="-0.44371">
        <time>2019-03-23T11:10:09Z</time>
      </trkpt>
      <trkpt lat="38.94107" lon="-0.44375">
        <time>2019-03-23T11:10:10Z</time>
      </trkpt>
      <trkpt lat="38.94107" lon="-0.44378">
        <time>2019-03-23T11:10:11Z</time>
      </trkpt>
      <trkpt lat="38.94106" lon="-0.44379">
        <time>2019-03-23T11:10:16Z</time>
      </trkpt>
      <trkpt lat="38.94106" lon="-0.44382">
        <time>2019-03-23T11:10:17Z</time>
      </trkpt>
      <trkpt lat="38.94107" lon="-0.44385">
        <time>2019-03-23T11:10:18Z</time>
      </trkpt>
      <trkpt lat="38.94107" lon="-0.4439">
        <time>2019-03-23T11:10:19Z</time>
      </trkpt>
      <trkpt lat="38.94108" lon="-0.44397">
        <time>2019-03-23T11:10:20Z</time>
      </trkpt>
      <trkpt lat="38.94106" lon="-0.44404">
        <time>2019-03-23T11:10:21Z</time>
      </trkpt>
      <trkpt lat="38.94104" lon="-0.44414">
        <time>2019-03-23T11:10:22Z</time>
      </trkpt>
      <trkpt lat="38.94102" lon="-0.44426">
        <time>2019-03-23T11:10:23Z</time>
      </trkpt>
      <trkpt lat="38.94102" lon="-0.44439">
        <time>2019-03-23T11:10:24Z</time>
      </trkpt>
      <trkpt lat="38.94103" lon="-0.44452">
        <time>2019-03-23T11:10:25Z</time>
      </trkpt>
      <trkpt lat="38.94106" lon="-0.44465">
        <time>2019-03-23T11:10:26Z</time>
      </trkpt>
      <trkpt lat="38.94108" lon="-0.44476">
        <time>2019-03-23T11:10:27Z</time>
      </trkpt>
      <trkpt lat="38.9411" lon="-0.44488">
        <time>2019-03-23T11:10:28Z</time>
      </trkpt>
      <trkpt lat="38.94112" lon="-0.44498">
        <time>2019-03-23T11:10:29Z</time>
      </trkpt>
      <trkpt lat="38.94114" lon="-0.44509">
        <time>2019-03-23T11:10:30Z</time>
      </trkpt>
      <trkpt lat="38.94115" lon="-0.44518">
        <time>2019-03-23T11:10:31Z</time>
      </trkpt>
      <trkpt lat="38.94117" lon="-0.44527">
        <time>2019-03-23T11:10:32Z</time>
      </trkpt>
      <trkpt lat="38.94119" lon="-0.44535">
        <time>2019-03-23T11:10:33Z</time>
      </trkpt>
      <trkpt lat="38.9412" lon="-0.44543">
        <time>2019-03-23T11:10:34Z</time>
      </trkpt>
      <trkpt lat="38.94121" lon="-0.4455">
        <time>2019-03-23T11:10:35Z</time>
      </trkpt>
      <trkpt lat="38.94122" lon="-0.44556">
        <time>2019-03-23T11:10:36Z</time>
      </trkpt>
      <trkpt lat="38.94124" lon="-0.44562">
        <time>2019-03-23T11:10:37Z</time>
      </trkpt>
      <trkpt lat="38.94125" lon="-0.44569">
        <time>2019-03-23T11:10:38Z</time>
      </trkpt>
      <trkpt lat="38.94127" lon="-0.44578">
        <time>2019-03-23T11:10:39Z</time>
      </trkpt>
      <trkpt lat="38.94128" lon="-0.44586">
        <time>2019-03-23T11:10:40Z</time>
      </trkpt>
      <trkpt lat="38.9413" lon="-0.44597">
        <time>2019-03-23T11:10:41Z</time>
      </trkpt>
      <trkpt lat="38.94133" lon="-0.4461">
        <time>2019-03-23T11:10:42Z</time>
      </trkpt>
      <trkpt lat="38.94138" lon="-0.44624">
        <time>2019-03-23T11:10:43Z</time>
      </trkpt>
      <trkpt lat="38.94143" lon="-0.4464">
        <time>2019-03-23T11:10:44Z</time>
      </trkpt>
      <trkpt lat="38.9415" lon="-0.44653">
        <time>2019-03-23T11:10:45Z</time>
      </trkpt>
      <trkpt lat="38.94159" lon="-0.44663">
        <time>2019-03-23T11:10:46Z</time>
      </trkpt>
      <trkpt lat="38.94168" lon="-0.44671">
        <time>2019-03-23T11:10:47Z</time>
      </trkpt>
      <trkpt lat="38.94176" lon="-0.44677">
        <time>2019-03-23T11:10:48Z</time>
      </trkpt>
      <trkpt lat="38.94182" lon="-0.44682">
        <time>2019-03-23T11:10:49Z</time>
      </trkpt>
      <trkpt lat="38.94187" lon="-0.44685">
        <time>2019-03-23T11:10:50Z</time>
      </trkpt>
      <trkpt lat="38.94191" lon="-0.44687">
        <time>2019-03-23T11:10:51Z</time>
      </trkpt>
      <trkpt lat="38.94193" lon="-0.44691">
        <time>2019-03-23T11:10:52Z</time>
      </trkpt>
      <trkpt lat="38.94194" lon="-0.44697">
        <time>2019-03-23T11:10:53Z</time>
      </trkpt>
      <trkpt lat="38.94192" lon="-0.44702">
        <time>2019-03-23T11:10:54Z</time>
      </trkpt>
      <trkpt lat="38.94187" lon="-0.44707">
        <time>2019-03-23T11:10:55Z</time>
      </trkpt>
      <trkpt lat="38.94181" lon="-0.44712">
        <time>2019-03-23T11:10:56Z</time>
      </trkpt>
      <trkpt lat="38.94175" lon="-0.44721">
        <time>2019-03-23T11:10:57Z</time>
      </trkpt>
      <trkpt lat="38.9417" lon="-0.44733">
        <time>2019-03-23T11:10:58Z</time>
      </trkpt>
      <trkpt lat="38.94162" lon="-0.44747">
        <time>2019-03-23T11:10:59Z</time>
      </trkpt>
      <trkpt lat="38.94155" lon="-0.4476">
        <time>2019-03-23T11:11:00Z</time>
      </trkpt>
      <trkpt lat="38.94147" lon="-0.44775">
        <time>2019-03-23T11:11:01Z</time>
      </trkpt>
      <trkpt lat="38.9414" lon="-0.44787">
        <time>2019-03-23T11:11:02Z</time>
      </trkpt>
      <trkpt lat="38.94136" lon="-0.44799">
        <time>2019-03-23T11:11:03Z</time>
      </trkpt>
      <trkpt lat="38.94132" lon="-0.44809">
        <time>2019-03-23T11:11:04Z</time>
      </trkpt>
      <trkpt lat="38.94126" lon="-0.44818">
        <time>2019-03-23T11:11:05Z</time>
      </trkpt>
      <trkpt lat="38.94119" lon="-0.44829">
        <time>2019-03-23T11:11:06Z</time>
      </trkpt>
      <trkpt lat="38.94112" lon="-0.44841">
        <time>2019-03-23T11:11:07Z</time>
      </trkpt>
      <trkpt lat="38.94104" lon="-0.44856">
        <time>2019-03-23T11:11:08Z</time>
      </trkpt>
      <trkpt lat="38.94095" lon="-0.44871">
        <time>2019-03-23T11:11:09Z</time>
      </trkpt>
      <trkpt lat="38.94086" lon="-0.44888">
        <time>2019-03-23T11:11:10Z</time>
      </trkpt>
      <trkpt lat="38.94077" lon="-0.44904">
        <time>2019-03-23T11:11:11Z</time>
      </trkpt>
      <trkpt lat="38.94069" lon="-0.4492">
        <time>2019-03-23T11:11:12Z</time>
      </trkpt>
      <trkpt lat="38.94061" lon="-0.44935">
        <time>2019-03-23T11:11:13Z</time>
      </trkpt>
      <trkpt lat="38.94054" lon="-0.44949">
        <time>2019-03-23T11:11:14Z</time>
      </trkpt>
      <trkpt lat="38.94047" lon="-0.44961">
        <time>2019-03-23T11:11:15Z</time>
      </trkpt>
      <trkpt lat="38.9404" lon="-0.44974">
        <time>2019-03-23T11:11:16Z</time>
      </trkpt>
      <trkpt lat="38.94033" lon="-0.44988">
        <time>2019-03-23T11:11:17Z</time>
      </trkpt>
      <trkpt lat="38.94024" lon="-0.45004">
        <time>2019-03-23T11:11:18Z</time>
      </trkpt>
      <trkpt lat="38.94015" lon="-0.45021">
        <time>2019-03-23T11:11:19Z</time>
      </trkpt>
      <trkpt lat="38.94004" lon="-0.45039">
        <time>2019-03-23T11:11:20Z</time>
      </trkpt>
      <trkpt lat="38.93995" lon="-0.45057">
        <time>2019-03-23T11:11:21Z</time>
      </trkpt>
      <trkpt lat="38.93984" lon="-0.45076">
        <time>2019-03-23T11:11:22Z</time>
      </trkpt>
      <trkpt lat="38.93975" lon="-0.45094">
        <time>2019-03-23T11:11:23Z</time>
      </trkpt>
      <trkpt lat="38.93966" lon="-0.4511">
        <time>2019-03-23T11:11:24Z</time>
      </trkpt>
      <trkpt lat="38.93958" lon="-0.45125">
        <time>2019-03-23T11:11:25Z</time>
      </trkpt>
      <trkpt lat="38.93951" lon="-0.45139">
        <time>2019-03-23T11:11:26Z</time>
      </trkpt>
      <trkpt lat="38.93943" lon="-0.45154">
        <time>2019-03-23T11:11:27Z</time>
      </trkpt>
      <trkpt lat="38.93934" lon="-0.45169">
        <time>2019-03-23T11:11:28Z</time>
      </trkpt>
      <trkpt lat="38.93925" lon="-0.45186">
        <time>2019-03-23T11:11:29Z</time>
      </trkpt>
      <trkpt lat="38.93916" lon="-0.45202">
        <time>2019-03-23T11:11:30Z</time>
      </trkpt>
      <trkpt lat="38.93908" lon="-0.45218">
        <time>2019-03-23T11:11:31Z</time>
      </trkpt>
      <trkpt lat="38.939" lon="-0.45233">
        <time>2019-03-23T11:11:32Z</time>
      </trkpt>
      <trkpt lat="38.93891" lon="-0.45249">
        <time>2019-03-23T11:11:33Z</time>
      </trkpt>
      <trkpt lat="38.93883" lon="-0.45264">
        <time>2019-03-23T11:11:34Z</time>
      </trkpt>
      <trkpt lat="38.93876" lon="-0.45278">
        <time>2019-03-23T11:11:35Z</time>
      </trkpt>
      <trkpt lat="38.93869" lon="-0.45292">
        <time>2019-03-23T11:11:36Z</time>
      </trkpt>
      <trkpt lat="38.93867" lon="-0.45303">
        <time>2019-03-23T11:11:37Z</time>
      </trkpt>
      <trkpt lat="38.93867" lon="-0.45316">
        <time>2019-03-23T11:11:38Z</time>
      </trkpt>
      <trkpt lat="38.93871" lon="-0.45327">
        <time>2019-03-23T11:11:39Z</time>
      </trkpt>
      <trkpt lat="38.93876" lon="-0.45341">
        <time>2019-03-23T11:11:40Z</time>
      </trkpt>
      <trkpt lat="38.9388" lon="-0.45355">
        <time>2019-03-23T11:11:41Z</time>
      </trkpt>
      <trkpt lat="38.93885" lon="-0.45372">
        <time>2019-03-23T11:11:42Z</time>
      </trkpt>
      <trkpt lat="38.9389" lon="-0.45389">
        <time>2019-03-23T11:11:43Z</time>
      </trkpt>
      <trkpt lat="38.93895" lon="-0.45406">
        <time>2019-03-23T11:11:44Z</time>
      </trkpt>
      <trkpt lat="38.93899" lon="-0.45427">
        <time>2019-03-23T11:11:45Z</time>
      </trkpt>
      <trkpt lat="38.93902" lon="-0.45449">
        <time>2019-03-23T11:11:46Z</time>
      </trkpt>
      <trkpt lat="38.93905" lon="-0.45471">
        <time>2019-03-23T11:11:47Z</time>
      </trkpt>
      <trkpt lat="38.93907" lon="-0.45492">
        <time>2019-03-23T11:11:48Z</time>
      </trkpt>
      <trkpt lat="38.93911" lon="-0.45511">
        <time>2019-03-23T11:11:49Z</time>
      </trkpt>
      <trkpt lat="38.93916" lon="-0.45528">
        <time>2019-03-23T11:11:50Z</time>
      </trkpt>
      <trkpt lat="38.93922" lon="-0.45541">
        <time>2019-03-23T11:11:51Z</time>
      </trkpt>
      <trkpt lat="38.9393" lon="-0.4555">
        <time>2019-03-23T11:11:52Z</time>
      </trkpt>
      <trkpt lat="38.93938" lon="-0.45556">
        <time>2019-03-23T11:11:53Z</time>
      </trkpt>
      <trkpt lat="38.93946" lon="-0.45563">
        <time>2019-03-23T11:11:54Z</time>
      </trkpt>
      <trkpt lat="38.9395" lon="-0.45572">
        <time>2019-03-23T11:11:55Z</time>
      </trkpt>
      <trkpt lat="38.9395" lon="-0.45582">
        <time>2019-03-23T11:11:56Z</time>
      </trkpt>
      <trkpt lat="38.93947" lon="-0.45591">
        <time>2019-03-23T11:11:57Z</time>
      </trkpt>
      <trkpt lat="38.9394" lon="-0.45598">
        <time>2019-03-23T11:11:58Z</time>
      </trkpt>
      <trkpt lat="38.93932" lon="-0.45605">
        <time>2019-03-23T11:11:59Z</time>
      </trkpt>
      <trkpt lat="38.93924" lon="-0.45614">
        <time>2019-03-23T11:12:00Z</time>
      </trkpt>
      <trkpt lat="38.93918" lon="-0.45626">
        <time>2019-03-23T11:12:01Z</time>
      </trkpt>
      <trkpt lat="38.93914" lon="-0.45643">
        <time>2019-03-23T11:12:02Z</time>
      </trkpt>
      <trkpt lat="38.93909" lon="-0.45662">
        <time>2019-03-23T11:12:03Z</time>
      </trkpt>
      <trkpt lat="38.93902" lon="-0.45682">
        <time>2019-03-23T11:12:04Z</time>
      </trkpt>
      <trkpt lat="38.93893" lon="-0.45701">
        <time>2019-03-23T11:12:05Z</time>
      </trkpt>
      <trkpt lat="38.93883" lon="-0.45719">
        <time>2019-03-23T11:12:06Z</time>
      </trkpt>
      <trkpt lat="38.93872" lon="-0.45736">
        <time>2019-03-23T11:12:07Z</time>
      </trkpt>
      <trkpt lat="38.9386" lon="-0.45752">
        <time>2019-03-23T11:12:08Z</time>
      </trkpt>
      <trkpt lat="38.93847" lon="-0.45768">
        <time>2019-03-23T11:12:09Z</time>
      </trkpt>
      <trkpt lat="38.93834" lon="-0.45784">
        <time>2019-03-23T11:12:10Z</time>
      </trkpt>
      <trkpt lat="38.93819" lon="-0.458">
        <time>2019-03-23T11:12:11Z</time>
      </trkpt>
      <trkpt lat="38.93804" lon="-0.45817">
        <time>2019-03-23T11:12:12Z</time>
      </trkpt>
      <trkpt lat="38.93789" lon="-0.45834">
        <time>2019-03-23T11:12:13Z</time>
      </trkpt>
      <trkpt lat="38.93773" lon="-0.45851">
        <time>2019-03-23T11:12:14Z</time>
      </trkpt>
      <trkpt lat="38.93757" lon="-0.4587">
        <time>2019-03-23T11:12:15Z</time>
      </trkpt>
      <trkpt lat="38.9374" lon="-0.45889">
        <time>2019-03-23T11:12:16Z</time>
      </trkpt>
      <trkpt lat="38.93724" lon="-0.45908">
        <time>2019-03-23T11:12:17Z</time>
      </trkpt>
      <trkpt lat="38.93707" lon="-0.45928">
        <time>2019-03-23T11:12:18Z</time>
      </trkpt>
      <trkpt lat="38.9369" lon="-0.45947">
        <time>2019-03-23T11:12:19Z</time>
      </trkpt>
      <trkpt lat="38.93673" lon="-0.45968">
        <time>2019-03-23T11:12:20Z</time>
      </trkpt>
      <trkpt lat="38.93658" lon="-0.45991">
        <time>2019-03-23T11:12:21Z</time>
      </trkpt>
      <trkpt lat="38.93644" lon="-0.46016">
        <time>2019-03-23T11:12:22Z</time>
      </trkpt>
      <trkpt lat="38.93633" lon="-0.46042">
        <time>2019-03-23T11:12:23Z</time>
      </trkpt>
      <trkpt lat="38.93625" lon="-0.46071">
        <time>2019-03-23T11:12:24Z</time>
      </trkpt>
      <trkpt lat="38.9362" lon="-0.46101">
        <time>2019-03-23T11:12:25Z</time>
      </trkpt>
      <trkpt lat="38.93617" lon="-0.46131">
        <time>2019-03-23T11:12:26Z</time>
      </trkpt>
      <trkpt lat="38.93614" lon="-0.46162">
        <time>2019-03-23T11:12:27Z</time>
      </trkpt>
      <trkpt lat="38.93611" lon="-0.46192">
        <time>2019-03-23T11:12:28Z</time>
      </trkpt>
      <trkpt lat="38.93608" lon="-0.4622">
        <time>2019-03-23T11:12:29Z</time>
      </trkpt>
      <trkpt lat="38.93606" lon="-0.46247">
        <time>2019-03-23T11:12:30Z</time>
      </trkpt>
      <trkpt lat="38.93604" lon="-0.46272">
        <time>2019-03-23T11:12:31Z</time>
      </trkpt>
      <trkpt lat="38.93603" lon="-0.46295">
        <time>2019-03-23T11:12:32Z</time>
      </trkpt>
      <trkpt lat="38.93601" lon="-0.46318">
        <time>2019-03-23T11:12:33Z</time>
      </trkpt>
      <trkpt lat="38.93599" lon="-0.46339">
        <time>2019-03-23T11:12:34Z</time>
      </trkpt>
      <trkpt lat="38.93597" lon="-0.4636">
        <time>2019-03-23T11:12:35Z</time>
      </trkpt>
      <trkpt lat="38.93596" lon="-0.46381">
        <time>2019-03-23T11:12:36Z</time>
      </trkpt>
      <trkpt lat="38.93594" lon="-0.46403">
        <time>2019-03-23T11:12:37Z</time>
      </trkpt>
      <trkpt lat="38.93593" lon="-0.46423">
        <time>2019-03-23T11:12:38Z</time>
      </trkpt>
      <trkpt lat="38.93593" lon="-0.46442">
        <time>2019-03-23T11:12:39Z</time>
      </trkpt>
      <trkpt lat="38.93594" lon="-0.4646">
        <time>2019-03-23T11:12:40Z</time>
      </trkpt>
      <trkpt lat="38.93597" lon="-0.46479">
        <time>2019-03-23T11:12:41Z</time>
      </trkpt>
      <trkpt lat="38.936" lon="-0.46498">
        <time>2019-03-23T11:12:42Z</time>
      </trkpt>
      <trkpt lat="38.93604" lon="-0.46516">
        <time>2019-03-23T11:12:43Z</time>
      </trkpt>
      <trkpt lat="38.93609" lon="-0.46534">
        <time>2019-03-23T11:12:44Z</time>
      </trkpt>
      <trkpt lat="38.93615" lon="-0.46551">
        <time>2019-03-23T11:12:45Z</time>
      </trkpt>
      <trkpt lat="38.93622" lon="-0.46567">
        <time>2019-03-23T11:12:46Z</time>
      </trkpt>
      <trkpt lat="38.9363" lon="-0.46583">
        <time>2019-03-23T11:12:47Z</time>
      </trkpt>
      <trkpt lat="38.93638" lon="-0.46598">
        <time>2019-03-23T11:12:48Z</time>
      </trkpt>
      <trkpt lat="38.93647" lon="-0.46613">
        <time>2019-03-23T11:12:49Z</time>
      </trkpt>
      <trkpt lat="38.93658" lon="-0.46626">
        <time>2019-03-23T11:12:50Z</time>
      </trkpt>
      <trkpt lat="38.93669" lon="-0.46639">
        <time>2019-03-23T11:12:51Z</time>
      </trkpt>
      <trkpt lat="38.9368" lon="-0.46652">
        <time>2019-03-23T11:12:52Z</time>
      </trkpt>
      <trkpt lat="38.93692" lon="-0.46664">
        <time>2019-03-23T11:12:53Z</time>
      </trkpt>
      <trkpt lat="38.93703" lon="-0.46676">
        <time>2019-03-23T11:12:54Z</time>
      </trkpt>
      <trkpt lat="38.93713" lon="-0.46687">
        <time>2019-03-23T11:12:55Z</time>
      </trkpt>
      <trkpt lat="38.93725" lon="-0.46697">
        <time>2019-03-23T11:12:56Z</time>
      </trkpt>
      <trkpt lat="38.93735" lon="-0.46708">
        <time>2019-03-23T11:12:57Z</time>
      </trkpt>
      <trkpt lat="38.93746" lon="-0.4672">
        <time>2019-03-23T11:12:58Z</time>
      </trkpt>
      <trkpt lat="38.93758" lon="-0.46731">
        <time>2019-03-23T11:12:59Z</time>
      </trkpt>
      <trkpt lat="38.9377" lon="-0.46741">
        <time>2019-03-23T11:13:00Z</time>
      </trkpt>
      <trkpt lat="38.93782" lon="-0.46751">
        <time>2019-03-23T11:13:01Z</time>
      </trkpt>
      <trkpt lat="38.93794" lon="-0.46762">
        <time>2019-03-23T11:13:02Z</time>
      </trkpt>
      <trkpt lat="38.93805" lon="-0.46773">
        <time>2019-03-23T11:13:03Z</time>
      </trkpt>
      <trkpt lat="38.93818" lon="-0.46783">
        <time>2019-03-23T11:13:04Z</time>
      </trkpt>
      <trkpt lat="38.93831" lon="-0.46793">
        <time>2019-03-23T11:13:05Z</time>
      </trkpt>
      <trkpt lat="38.93844" lon="-0.46803">
        <time>2019-03-23T11:13:06Z</time>
      </trkpt>
      <trkpt lat="38.93857" lon="-0.46812">
        <time>2019-03-23T11:13:07Z</time>
      </trkpt>
      <trkpt lat="38.93871" lon="-0.46823">
        <time>2019-03-23T11:13:08Z</time>
      </trkpt>
      <trkpt lat="38.93886" lon="-0.46832">
        <time>2019-03-23T11:13:09Z</time>
      </trkpt>
      <trkpt lat="38.93901" lon="-0.46842">
        <time>2019-03-23T11:13:10Z</time>
      </trkpt>
      <trkpt lat="38.93915" lon="-0.4685">
        <time>2019-03-23T11:13:11Z</time>
      </trkpt>
      <trkpt lat="38.9393" lon="-0.46859">
        <time>2019-03-23T11:13:12Z</time>
      </trkpt>
      <trkpt lat="38.93945" lon="-0.46869">
        <time>2019-03-23T11:13:13Z</time>
      </trkpt>
      <trkpt lat="38.9396" lon="-0.4688">
        <time>2019-03-23T11:13:14Z</time>
      </trkpt>
      <trkpt lat="38.93975" lon="-0.46892">
        <time>2019-03-23T11:13:15Z</time>
      </trkpt>
      <trkpt lat="38.93989" lon="-0.46906">
        <time>2019-03-23T11:13:16Z</time>
      </trkpt>
      <trkpt lat="38.94003" lon="-0.46921">
        <time>2019-03-23T11:13:17Z</time>
      </trkpt>
      <trkpt lat="38.94015" lon="-0.46937">
        <time>2019-03-23T11:13:18Z</time>
      </trkpt>
      <trkpt lat="38.94026" lon="-0.46954">
        <time>2019-03-23T11:13:19Z</time>
      </trkpt>
      <trkpt lat="38.94035" lon="-0.4697">
        <time>2019-03-23T11:13:20Z</time>
      </trkpt>
      <trkpt lat="38.94044" lon="-0.46988">
        <time>2019-03-23T11:13:21Z</time>
      </trkpt>
      <trkpt lat="38.94052" lon="-0.47008">
        <time>2019-03-23T11:13:22Z</time>
      </trkpt>
      <trkpt lat="38.94058" lon="-0.47028">
        <time>2019-03-23T11:13:23Z</time>
      </trkpt>
      <trkpt lat="38.94064" lon="-0.47049">
        <time>2019-03-23T11:13:24Z</time>
      </trkpt>
      <trkpt lat="38.94068" lon="-0.47071">
        <time>2019-03-23T11:13:25Z</time>
      </trkpt>
      <trkpt lat="38.94072" lon="-0.47092">
        <time>2019-03-23T11:13:26Z</time>
      </trkpt>
      <trkpt lat="38.94073" lon="-0.47113">
        <time>2019-03-23T11:13:27Z</time>
      </trkpt>
      <trkpt lat="38.94074" lon="-0.47134">
        <time>2019-03-23T11:13:28Z</time>
      </trkpt>
      <trkpt lat="38.94074" lon="-0.47154">
        <time>2019-03-23T11:13:29Z</time>
      </trkpt>
      <trkpt lat="38.94072" lon="-0.47173">
        <time>2019-03-23T11:13:30Z</time>
      </trkpt>
      <trkpt lat="38.9407" lon="-0.47193">
        <time>2019-03-23T11:13:31Z</time>
      </trkpt>
      <trkpt lat="38.94067" lon="-0.47212">
        <time>2019-03-23T11:13:32Z</time>
      </trkpt>
      <trkpt lat="38.94064" lon="-0.47232">
        <time>2019-03-23T11:13:33Z</time>
      </trkpt>
      <trkpt lat="38.9406" lon="-0.47252">
        <time>2019-03-23T11:13:34Z</time>
      </trkpt>
      <trkpt lat="38.94056" lon="-0.47273">
        <time>2019-03-23T11:13:35Z</time>
      </trkpt>
      <trkpt lat="38.94052" lon="-0.47295">
        <time>2019-03-23T11:13:36Z</time>
      </trkpt>
      <trkpt lat="38.94048" lon="-0.47317">
        <time>2019-03-23T11:13:37Z</time>
      </trkpt>
      <trkpt lat="38.94045" lon="-0.4734">
        <time>2019-03-23T11:13:38Z</time>
      </trkpt>
      <trkpt lat="38.94042" lon="-0.47361">
        <time>2019-03-23T11:13:39Z</time>
      </trkpt>
      <trkpt lat="38.94039" lon="-0.47381">
        <time>2019-03-23T11:13:40Z</time>
      </trkpt>
      <trkpt lat="38.94035" lon="-0.47401">
        <time>2019-03-23T11:13:41Z</time>
      </trkpt>
      <trkpt lat="38.94031" lon="-0.47421">
        <time>2019-03-23T11:13:42Z</time>
      </trkpt>
      <trkpt lat="38.94027" lon="-0.47442">
        <time>2019-03-23T11:13:43Z</time>
      </trkpt>
      <trkpt lat="38.94024" lon="-0.47462">
        <time>2019-03-23T11:13:44Z</time>
      </trkpt>
      <trkpt lat="38.9402" lon="-0.47482">
        <time>2019-03-23T11:13:45Z</time>
      </trkpt>
      <trkpt lat="38.94018" lon="-0.47501">
        <time>2019-03-23T11:13:46Z</time>
      </trkpt>
      <trkpt lat="38.94014" lon="-0.47521">
        <time>2019-03-23T11:13:47Z</time>
      </trkpt>
      <trkpt lat="38.94011" lon="-0.47541">
        <time>2019-03-23T11:13:48Z</time>
      </trkpt>
      <trkpt lat="38.94008" lon="-0.47561">
        <time>2019-03-23T11:13:49Z</time>
      </trkpt>
      <trkpt lat="38.94004" lon="-0.4758">
        <time>2019-03-23T11:13:50Z</time>
      </trkpt>
      <trkpt lat="38.94001" lon="-0.476">
        <time>2019-03-23T11:13:51Z</time>
      </trkpt>
      <trkpt lat="38.93997" lon="-0.4762">
        <time>2019-03-23T11:13:52Z</time>
      </trkpt>
      <trkpt lat="38.93994" lon="-0.4764">
        <time>2019-03-23T11:13:53Z</time>
      </trkpt>
      <trkpt lat="38.9399" lon="-0.4766">
        <time>2019-03-23T11:13:54Z</time>
      </trkpt>
      <trkpt lat="38.93987" lon="-0.4768">
        <time>2019-03-23T11:13:55Z</time>
      </trkpt>
      <trkpt lat="38.93983" lon="-0.47699">
        <time>2019-03-23T11:13:56Z</time>
      </trkpt>
      <trkpt lat="38.9398" lon="-0.47719">
        <time>2019-03-23T11:13:57Z</time>
      </trkpt>
      <trkpt lat="38.93977" lon="-0.47739">
        <time>2019-03-23T11:13:58Z</time>
      </trkpt>
      <trkpt lat="38.93973" lon="-0.47758">
        <time>2019-03-23T11:13:59Z</time>
      </trkpt>
      <trkpt lat="38.9397" lon="-0.47778">
        <time>2019-03-23T11:14:00Z</time>
      </trkpt>
      <trkpt lat="38.93967" lon="-0.47798">
        <time>2019-03-23T11:14:01Z</time>
      </trkpt>
      <trkpt lat="38.93963" lon="-0.47818">
        <time>2019-03-23T11:14:02Z</time>
      </trkpt>
      <trkpt lat="38.93959" lon="-0.47838">
        <time>2019-03-23T11:14:03Z</time>
      </trkpt>
      <trkpt lat="38.93956" lon="-0.47859">
        <time>2019-03-23T11:14:04Z</time>
      </trkpt>
      <trkpt lat="38.93952" lon="-0.4788">
        <time>2019-03-23T11:14:05Z</time>
      </trkpt>
      <trkpt lat="38.93949" lon="-0.47901">
        <time>2019-03-23T11:14:06Z</time>
      </trkpt>
      <trkpt lat="38.93945" lon="-0.47922">
        <time>2019-03-23T11:14:07Z</time>
      </trkpt>
      <trkpt lat="38.93941" lon="-0.47944">
        <time>2019-03-23T11:14:08Z</time>
      </trkpt>
      <trkpt lat="38.93937" lon="-0.47967">
        <time>2019-03-23T11:14:09Z</time>
      </trkpt>
      <trkpt lat="38.93933" lon="-0.4799">
        <time>2019-03-23T11:14:10Z</time>
      </trkpt>
      <trkpt lat="38.93929" lon="-0.48013">
        <time>2019-03-23T11:14:11Z</time>
      </trkpt>
      <trkpt lat="38.93925" lon="-0.48036">
        <time>2019-03-23T11:14:12Z</time>
      </trkpt>
      <trkpt lat="38.93922" lon="-0.48058">
        <time>2019-03-23T11:14:13Z</time>
      </trkpt>
      <trkpt lat="38.93918" lon="-0.48081">
        <time>2019-03-23T11:14:14Z</time>
      </trkpt>
      <trkpt lat="38.93914" lon="-0.48102">
        <time>2019-03-23T11:14:15Z</time>
      </trkpt>
      <trkpt lat="38.9391" lon="-0.48122">
        <time>2019-03-23T11:14:16Z</time>
      </trkpt>
      <trkpt lat="38.93907" lon="-0.48142">
        <time>2019-03-23T11:14:17Z</time>
      </trkpt>
      <trkpt lat="38.93904" lon="-0.4816">
        <time>2019-03-23T11:14:18Z</time>
      </trkpt>
      <trkpt lat="38.93901" lon="-0.48178">
        <time>2019-03-23T11:14:19Z</time>
      </trkpt>
      <trkpt lat="38.93898" lon="-0.48195">
        <time>2019-03-23T11:14:20Z</time>
      </trkpt>
      <trkpt lat="38.93895" lon="-0.48211">
        <time>2019-03-23T11:14:21Z</time>
      </trkpt>
      <trkpt lat="38.93893" lon="-0.48224">
        <time>2019-03-23T11:14:22Z</time>
      </trkpt>
      <trkpt lat="38.93892" lon="-0.48234">
        <time>2019-03-23T11:14:23Z</time>
      </trkpt>
      <trkpt lat="38.93893" lon="-0.48242">
        <time>2019-03-23T11:14:24Z</time>
      </trkpt>
      <trkpt lat="38.93895" lon="-0.48247">
        <time>2019-03-23T11:14:25Z</time>
      </trkpt>
      <trkpt lat="38.93898" lon="-0.48252">
        <time>2019-03-23T11:14:26Z</time>
      </trkpt>
      <trkpt lat="38.93901" lon="-0.48257">
        <time>2019-03-23T11:14:27Z</time>
      </trkpt>
      <trkpt lat="38.93903" lon="-0.4826">
        <time>2019-03-23T11:14:28Z</time>
      </trkpt>
      <trkpt lat="38.93906" lon="-0.48261">
        <time>2019-03-23T11:14:29Z</time>
      </trkpt>
      <trkpt lat="38.93907" lon="-0.48261">
        <time>2019-03-23T11:14:30Z</time>
      </trkpt>
      <trkpt lat="38.93906" lon="-0.48258">
        <time>2019-03-23T11:20:43Z</time>
      </trkpt>
      <trkpt lat="38.93907" lon="-0.4826">
        <time>2019-03-23T11:20:44Z</time>
      </trkpt>
      <trkpt lat="38.93906" lon="-0.48262">
        <time>2019-03-23T11:20:45Z</time>
      </trkpt>
      <trkpt lat="38.93904" lon="-0.48264">
        <time>2019-03-23T11:20:46Z</time>
      </trkpt>
      <trkpt lat="38.939" lon="-0.48262">
        <time>2019-03-23T11:20:47Z</time>
      </trkpt>
      <trkpt lat="38.93897" lon="-0.48255">
        <time>2019-03-23T11:20:48Z</time>
      </trkpt>
      <trkpt lat="38.93899" lon="-0.48249">
        <time>2019-03-23T11:20:49Z</time>
      </trkpt>
      <trkpt lat="38.939" lon="-0.48242">
        <time>2019-03-23T11:20:50Z</time>
      </trkpt>
      <trkpt lat="38.93905" lon="-0.48239">
        <time>2019-03-23T11:20:51Z</time>
      </trkpt>
      <trkpt lat="38.9391" lon="-0.48238">
        <time>2019-03-23T11:20:52Z</time>
      </trkpt>
      <trkpt lat="38.93912" lon="-0.48239">
        <time>2019-03-23T11:20:53Z</time>
      </trkpt>
      <trkpt lat="38.93914" lon="-0.4824">
        <time>2019-03-23T11:20:54Z</time>
      </trkpt>
      <trkpt lat="38.93915" lon="-0.48242">
        <time>2019-03-23T11:20:55Z</time>
      </trkpt>
      <trkpt lat="38.93918" lon="-0.48245">
        <time>2019-03-23T11:20:56Z</time>
      </trkpt>
      <trkpt lat="38.93921" lon="-0.48249">
        <time>2019-03-23T11:20:57Z</time>
      </trkpt>
      <trkpt lat="38.93924" lon="-0.48255">
        <time>2019-03-23T11:20:58Z</time>
      </trkpt>
      <trkpt lat="38.93926" lon="-0.48263">
        <time>2019-03-23T11:20:59Z</time>
      </trkpt>
      <trkpt lat="38.93927" lon="-0.4827">
        <time>2019-03-23T11:21:00Z</time>
      </trkpt>
      <trkpt lat="38.93931" lon="-0.48277">
        <time>2019-03-23T11:21:01Z</time>
      </trkpt>
      <trkpt lat="38.93936" lon="-0.48281">
        <time>2019-03-23T11:21:02Z</time>
      </trkpt>
      <trkpt lat="38.93941" lon="-0.48284">
        <time>2019-03-23T11:21:03Z</time>
      </trkpt>
      <trkpt lat="38.93947" lon="-0.48282">
        <time>2019-03-23T11:21:04Z</time>
      </trkpt>
      <trkpt lat="38.93951" lon="-0.48276">
        <time>2019-03-23T11:21:05Z</time>
      </trkpt>
      <trkpt lat="38.93953" lon="-0.48268">
        <time>2019-03-23T11:21:06Z</time>
      </trkpt>
      <trkpt lat="38.93954" lon="-0.48259">
        <time>2019-03-23T11:21:07Z</time>
      </trkpt>
      <trkpt lat="38.93955" lon="-0.4825">
        <time>2019-03-23T11:21:08Z</time>
      </trkpt>
      <trkpt lat="38.93958" lon="-0.48241">
        <time>2019-03-23T11:21:09Z</time>
      </trkpt>
      <trkpt lat="38.93961" lon="-0.48234">
        <time>2019-03-23T11:21:10Z</time>
      </trkpt>
      <trkpt lat="38.93965" lon="-0.48226">
        <time>2019-03-23T11:21:11Z</time>
      </trkpt>
      <trkpt lat="38.93969" lon="-0.48218">
        <time>2019-03-23T11:21:12Z</time>
      </trkpt>
      <trkpt lat="38.93971" lon="-0.48209">
        <time>2019-03-23T11:21:13Z</time>
      </trkpt>
      <trkpt lat="38.93973" lon="-0.482">
        <time>2019-03-23T11:21:14Z</time>
      </trkpt>
      <trkpt lat="38.93974" lon="-0.48192">
        <time>2019-03-23T11:21:15Z</time>
      </trkpt>
      <trkpt lat="38.93975" lon="-0.48183">
        <time>2019-03-23T11:21:16Z</time>
      </trkpt>
      <trkpt lat="38.93975" lon="-0.48175">
        <time>2019-03-23T11:21:17Z</time>
      </trkpt>
      <trkpt lat="38.93977" lon="-0.48165">
        <time>2019-03-23T11:21:18Z</time>
      </trkpt>
      <trkpt lat="38.93981" lon="-0.48158">
        <time>2019-03-23T11:21:19Z</time>
      </trkpt>
      <trkpt lat="38.93985" lon="-0.48153">
        <time>2019-03-23T11:21:20Z</time>
      </trkpt>
      <trkpt lat="38.93989" lon="-0.48148">
        <time>2019-03-23T11:21:21Z</time>
      </trkpt>
      <trkpt lat="38.93992" lon="-0.48144">
        <time>2019-03-23T11:21:22Z</time>
      </trkpt>
      <trkpt lat="38.93995" lon="-0.4814">
        <time>2019-03-23T11:21:23Z</time>
      </trkpt>
      <trkpt lat="38.93999" lon="-0.48135">
        <time>2019-03-23T11:21:24Z</time>
      </trkpt>
      <trkpt lat="38.94001" lon="-0.48132">
        <time>2019-03-23T11:21:25Z</time>
      </trkpt>
      <trkpt lat="38.94003" lon="-0.48129">
        <time>2019-03-23T11:21:26Z</time>
      </trkpt>
      <trkpt lat="38.94005" lon="-0.48124">
        <time>2019-03-23T11:21:27Z</time>
      </trkpt>
      <trkpt lat="38.94007" lon="-0.48119">
        <time>2019-03-23T11:21:28Z</time>
      </trkpt>
      <trkpt lat="38.94007" lon="-0.48113">
        <time>2019-03-23T11:21:29Z</time>
      </trkpt>
      <trkpt lat="38.9401" lon="-0.48109">
        <time>2019-03-23T11:21:30Z</time>
      </trkpt>
      <trkpt lat="38.94012" lon="-0.48107">
        <time>2019-03-23T11:21:31Z</time>
      </trkpt>
      <trkpt lat="38.94014" lon="-0.48104">
        <time>2019-03-23T11:21:32Z</time>
      </trkpt>
      <trkpt lat="38.94016" lon="-0.48102">
        <time>2019-03-23T11:21:33Z</time>
      </trkpt>
      <trkpt lat="38.94018" lon="-0.48102">
        <time>2019-03-23T11:21:34Z</time>
      </trkpt>
      <trkpt lat="38.94019" lon="-0.48103">
        <time>2019-03-23T11:21:52Z</time>
      </trkpt>
      <trkpt lat="38.9402" lon="-0.48104">
        <time>2019-03-23T11:21:53Z</time>
      </trkpt>
      <trkpt lat="38.94022" lon="-0.48103">
        <time>2019-03-23T11:21:54Z</time>
      </trkpt>
      <trkpt lat="38.94023" lon="-0.48103">
        <time>2019-03-23T11:21:55Z</time>
      </trkpt>
      <trkpt lat="38.94025" lon="-0.48103">
        <time>2019-03-23T11:21:56Z</time>
      </trkpt>
      <trkpt lat="38.94028" lon="-0.48101">
        <time>2019-03-23T11:21:57Z</time>
      </trkpt>
      <trkpt lat="38.94034" lon="-0.48102">
        <time>2019-03-23T11:21:58Z</time>
      </trkpt>
      <trkpt lat="38.94038" lon="-0.48099">
        <time>2019-03-23T11:21:59Z</time>
      </trkpt>
      <trkpt lat="38.94041" lon="-0.48095">
        <time>2019-03-23T11:22:00Z</time>
      </trkpt>
      <trkpt lat="38.94044" lon="-0.48092">
        <time>2019-03-23T11:22:01Z</time>
      </trkpt>
      <trkpt lat="38.94047" lon="-0.48085">
        <time>2019-03-23T11:22:02Z</time>
      </trkpt>
      <trkpt lat="38.94049" lon="-0.48079">
        <time>2019-03-23T11:22:03Z</time>
      </trkpt>
      <trkpt lat="38.9405" lon="-0.48073">
        <time>2019-03-23T11:22:04Z</time>
      </trkpt>
      <trkpt lat="38.94052" lon="-0.48068">
        <time>2019-03-23T11:22:05Z</time>
      </trkpt>
      <trkpt lat="38.94054" lon="-0.48064">
        <time>2019-03-23T11:22:06Z</time>
      </trkpt>
      <trkpt lat="38.94056" lon="-0.48061">
        <time>2019-03-23T11:22:07Z</time>
      </trkpt>
      <trkpt lat="38.94057" lon="-0.48061">
        <time>2019-03-23T11:22:08Z</time>
      </trkpt>
      <trkpt lat="38.9406" lon="-0.4806">
        <time>2019-03-23T11:22:09Z</time>
      </trkpt>
      <trkpt lat="38.94063" lon="-0.4806">
        <time>2019-03-23T11:22:10Z</time>
      </trkpt>
      <trkpt lat="38.94067" lon="-0.48062">
        <time>2019-03-23T11:22:11Z</time>
      </trkpt>
      <trkpt lat="38.94072" lon="-0.48066">
        <time>2019-03-23T11:22:12Z</time>
      </trkpt>
      <trkpt lat="38.94077" lon="-0.48069">
        <time>2019-03-23T11:22:13Z</time>
      </trkpt>
      <trkpt lat="38.94082" lon="-0.48072">
        <time>2019-03-23T11:22:14Z</time>
      </trkpt>
      <trkpt lat="38.94087" lon="-0.48075">
        <time>2019-03-23T11:22:15Z</time>
      </trkpt>
      <trkpt lat="38.94091" lon="-0.48077">
        <time>2019-03-23T11:22:16Z</time>
      </trkpt>
      <trkpt lat="38.94096" lon="-0.4808">
        <time>2019-03-23T11:22:17Z</time>
      </trkpt>
      <trkpt lat="38.94101" lon="-0.48081">
        <time>2019-03-23T11:22:18Z</time>
      </trkpt>
      <trkpt lat="38.94106" lon="-0.48083">
        <time>2019-03-23T11:22:19Z</time>
      </trkpt>
      <trkpt lat="38.9411" lon="-0.48084">
        <time>2019-03-23T11:22:20Z</time>
      </trkpt>
      <trkpt lat="38.94114" lon="-0.48086">
        <time>2019-03-23T11:22:21Z</time>
      </trkpt>
      <trkpt lat="38.94118" lon="-0.48087">
        <time>2019-03-23T11:22:22Z</time>
      </trkpt>
      <trkpt lat="38.94122" lon="-0.4809">
        <time>2019-03-23T11:22:23Z</time>
      </trkpt>
      <trkpt lat="38.94126" lon="-0.48093">
        <time>2019-03-23T11:22:24Z</time>
      </trkpt>
      <trkpt lat="38.94129" lon="-0.48096">
        <time>2019-03-23T11:22:25Z</time>
      </trkpt>
      <trkpt lat="38.94133" lon="-0.48097">
        <time>2019-03-23T11:22:26Z</time>
      </trkpt>
      <trkpt lat="38.94137" lon="-0.48095">
        <time>2019-03-23T11:22:27Z</time>
      </trkpt>
      <trkpt lat="38.9414" lon="-0.4809">
        <time>2019-03-23T11:22:28Z</time>
      </trkpt>
      <trkpt lat="38.94142" lon="-0.48082">
        <time>2019-03-23T11:22:29Z</time>
      </trkpt>
      <trkpt lat="38.94144" lon="-0.48073">
        <time>2019-03-23T11:22:30Z</time>
      </trkpt>
      <trkpt lat="38.94147" lon="-0.48065">
        <time>2019-03-23T11:22:31Z</time>
      </trkpt>
      <trkpt lat="38.94149" lon="-0.48057">
        <time>2019-03-23T11:22:32Z</time>
      </trkpt>
      <trkpt lat="38.94152" lon="-0.4805">
        <time>2019-03-23T11:22:33Z</time>
      </trkpt>
      <trkpt lat="38.94155" lon="-0.4804">
        <time>2019-03-23T11:22:34Z</time>
      </trkpt>
      <trkpt lat="38.94158" lon="-0.48029">
        <time>2019-03-23T11:22:35Z</time>
      </trkpt>
      <trkpt lat="38.94161" lon="-0.48017">
        <time>2019-03-23T11:22:36Z</time>
      </trkpt>
      <trkpt lat="38.94166" lon="-0.48003">
        <time>2019-03-23T11:22:37Z</time>
      </trkpt>
      <trkpt lat="38.9417" lon="-0.4799">
        <time>2019-03-23T11:22:38Z</time>
      </trkpt>
      <trkpt lat="38.94174" lon="-0.47977">
        <time>2019-03-23T11:22:39Z</time>
      </trkpt>
      <trkpt lat="38.94176" lon="-0.47966">
        <time>2019-03-23T11:22:40Z</time>
      </trkpt>
      <trkpt lat="38.94179" lon="-0.47957">
        <time>2019-03-23T11:22:41Z</time>
      </trkpt>
      <trkpt lat="38.94181" lon="-0.47946">
        <time>2019-03-23T11:22:42Z</time>
      </trkpt>
      <trkpt lat="38.94184" lon="-0.47934">
        <time>2019-03-23T11:22:43Z</time>
      </trkpt>
      <trkpt lat="38.94187" lon="-0.4792">
        <time>2019-03-23T11:22:44Z</time>
      </trkpt>
      <trkpt lat="38.94191" lon="-0.47904">
        <time>2019-03-23T11:22:45Z</time>
      </trkpt>
      <trkpt lat="38.94193" lon="-0.47887">
        <time>2019-03-23T11:22:46Z</time>
      </trkpt>
      <trkpt lat="38.94194" lon="-0.4787">
        <time>2019-03-23T11:22:47Z</time>
      </trkpt>
      <trkpt lat="38.94194" lon="-0.47854">
        <time>2019-03-23T11:22:48Z</time>
      </trkpt>
      <trkpt lat="38.94193" lon="-0.47838">
        <time>2019-03-23T11:22:49Z</time>
      </trkpt>
      <trkpt lat="38.9419" lon="-0.47824">
        <time>2019-03-23T11:22:50Z</time>
      </trkpt>
      <trkpt lat="38.94187" lon="-0.47812">
        <time>2019-03-23T11:22:51Z</time>
      </trkpt>
      <trkpt lat="38.94185" lon="-0.47801">
        <time>2019-03-23T11:22:52Z</time>
      </trkpt>
      <trkpt lat="38.94185" lon="-0.47797">
        <time>2019-03-23T11:22:53Z</time>
      </trkpt>
      <trkpt lat="38.94185" lon="-0.47793">
        <time>2019-03-23T11:22:54Z</time>
      </trkpt>
      <trkpt lat="38.94185" lon="-0.4779">
        <time>2019-03-23T11:22:55Z</time>
      </trkpt>
      <trkpt lat="38.94187" lon="-0.47788">
        <time>2019-03-23T11:22:56Z</time>
      </trkpt>
      <trkpt lat="38.94189" lon="-0.47786">
        <time>2019-03-23T11:22:57Z</time>
      </trkpt>
      <trkpt lat="38.9419" lon="-0.47784">
        <time>2019-03-23T11:22:58Z</time>
      </trkpt>
      <trkpt lat="38.94192" lon="-0.47781">
        <time>2019-03-23T11:22:59Z</time>
      </trkpt>
      <trkpt lat="38.94194" lon="-0.4778">
        <time>2019-03-23T11:23:00Z</time>
      </trkpt>
      <trkpt lat="38.94196" lon="-0.47778">
        <time>2019-03-23T11:23:01Z</time>
      </trkpt>
      <trkpt lat="38.94197" lon="-0.47778">
        <time>2019-03-23T11:23:02Z</time>
      </trkpt>
      <trkpt lat="38.94198" lon="-0.47777">
        <time>2019-03-23T11:23:03Z</time>
      </trkpt>
      <trkpt lat="38.94201" lon="-0.47775">
        <time>2019-03-23T11:23:12Z</time>
      </trkpt>
      <trkpt lat="38.94205" lon="-0.47773">
        <time>2019-03-23T11:23:13Z</time>
      </trkpt>
      <trkpt lat="38.94211" lon="-0.47771">
        <time>2019-03-23T11:23:14Z</time>
      </trkpt>
      <trkpt lat="38.94217" lon="-0.47769">
        <time>2019-03-23T11:23:15Z</time>
      </trkpt>
      <trkpt lat="38.94224" lon="-0.47767">
        <time>2019-03-23T11:23:16Z</time>
      </trkpt>
      <trkpt lat="38.94231" lon="-0.47766">
        <time>2019-03-23T11:23:17Z</time>
      </trkpt>
      <trkpt lat="38.94237" lon="-0.47764">
        <time>2019-03-23T11:23:18Z</time>
      </trkpt>
      <trkpt lat="38.94244" lon="-0.47762">
        <time>2019-03-23T11:23:19Z</time>
      </trkpt>
      <trkpt lat="38.94252" lon="-0.4776">
        <time>2019-03-23T11:23:20Z</time>
      </trkpt>
      <trkpt lat="38.9426" lon="-0.47759">
        <time>2019-03-23T11:23:21Z</time>
      </trkpt>
      <trkpt lat="38.94267" lon="-0.47759">
        <time>2019-03-23T11:23:22Z</time>
      </trkpt>
      <trkpt lat="38.94275" lon="-0.47759">
        <time>2019-03-23T11:23:23Z</time>
      </trkpt>
      <trkpt lat="38.94284" lon="-0.47759">
        <time>2019-03-23T11:23:24Z</time>
      </trkpt>
      <trkpt lat="38.94295" lon="-0.47759">
        <time>2019-03-23T11:23:25Z</time>
      </trkpt>
      <trkpt lat="38.94307" lon="-0.4776">
        <time>2019-03-23T11:23:26Z</time>
      </trkpt>
      <trkpt lat="38.94322" lon="-0.4776">
        <time>2019-03-23T11:23:27Z</time>
      </trkpt>
      <trkpt lat="38.94337" lon="-0.47761">
        <time>2019-03-23T11:23:28Z</time>
      </trkpt>
      <trkpt lat="38.9435" lon="-0.47763">
        <time>2019-03-23T11:23:29Z</time>
      </trkpt>
      <trkpt lat="38.94365" lon="-0.47764">
        <time>2019-03-23T11:23:30Z</time>
      </trkpt>
      <trkpt lat="38.94378" lon="-0.47766">
        <time>2019-03-23T11:23:31Z</time>
      </trkpt>
      <trkpt lat="38.94391" lon="-0.47767">
        <time>2019-03-23T11:23:32Z</time>
      </trkpt>
      <trkpt lat="38.944" lon="-0.47767">
        <time>2019-03-23T11:23:33Z</time>
      </trkpt>
      <trkpt lat="38.94411" lon="-0.47768">
        <time>2019-03-23T11:23:34Z</time>
      </trkpt>
      <trkpt lat="38.94423" lon="-0.4777">
        <time>2019-03-23T11:23:35Z</time>
      </trkpt>
      <trkpt lat="38.94436" lon="-0.47773">
        <time>2019-03-23T11:23:36Z</time>
      </trkpt>
      <trkpt lat="38.94448" lon="-0.47776">
        <time>2019-03-23T11:23:37Z</time>
      </trkpt>
      <trkpt lat="38.94459" lon="-0.47779">
        <time>2019-03-23T11:23:38Z</time>
      </trkpt>
      <trkpt lat="38.94471" lon="-0.47782">
        <time>2019-03-23T11:23:39Z</time>
      </trkpt>
      <trkpt lat="38.94481" lon="-0.47785">
        <time>2019-03-23T11:23:40Z</time>
      </trkpt>
      <trkpt lat="38.94494" lon="-0.47787">
        <time>2019-03-23T11:23:41Z</time>
      </trkpt>
      <trkpt lat="38.94505" lon="-0.47789">
        <time>2019-03-23T11:23:42Z</time>
      </trkpt>
      <trkpt lat="38.94515" lon="-0.47789">
        <time>2019-03-23T11:23:43Z</time>
      </trkpt>
      <trkpt lat="38.94526" lon="-0.47788">
        <time>2019-03-23T11:23:44Z</time>
      </trkpt>
      <trkpt lat="38.94536" lon="-0.47787">
        <time>2019-03-23T11:23:45Z</time>
      </trkpt>
      <trkpt lat="38.94547" lon="-0.47786">
        <time>2019-03-23T11:23:46Z</time>
      </trkpt>
      <trkpt lat="38.94563" lon="-0.47785">
        <time>2019-03-23T11:23:47Z</time>
      </trkpt>
      <trkpt lat="38.94575" lon="-0.47786">
        <time>2019-03-23T11:23:48Z</time>
      </trkpt>
      <trkpt lat="38.94588" lon="-0.47787">
        <time>2019-03-23T11:23:49Z</time>
      </trkpt>
      <trkpt lat="38.946" lon="-0.47787">
        <time>2019-03-23T11:23:50Z</time>
      </trkpt>
      <trkpt lat="38.94611" lon="-0.47788">
        <time>2019-03-23T11:23:51Z</time>
      </trkpt>
      <trkpt lat="38.94625" lon="-0.47788">
        <time>2019-03-23T11:23:52Z</time>
      </trkpt>
      <trkpt lat="38.94637" lon="-0.4779">
        <time>2019-03-23T11:23:53Z</time>
      </trkpt>
      <trkpt lat="38.94647" lon="-0.4779">
        <time>2019-03-23T11:23:54Z</time>
      </trkpt>
      <trkpt lat="38.94657" lon="-0.47791">
        <time>2019-03-23T11:23:55Z</time>
      </trkpt>
      <trkpt lat="38.94666" lon="-0.4779">
        <time>2019-03-23T11:23:56Z</time>
      </trkpt>
      <trkpt lat="38.94675" lon="-0.4779">
        <time>2019-03-23T11:23:57Z</time>
      </trkpt>
      <trkpt lat="38.94684" lon="-0.4779">
        <time>2019-03-23T11:23:58Z</time>
      </trkpt>
      <trkpt lat="38.94692" lon="-0.4779">
        <time>2019-03-23T11:23:59Z</time>
      </trkpt>
      <trkpt lat="38.947" lon="-0.47791">
        <time>2019-03-23T11:24:00Z</time>
      </trkpt>
      <trkpt lat="38.94707" lon="-0.47792">
        <time>2019-03-23T11:24:01Z</time>
      </trkpt>
      <trkpt lat="38.94715" lon="-0.47793">
        <time>2019-03-23T11:24:02Z</time>
      </trkpt>
      <trkpt lat="38.94723" lon="-0.47794">
        <time>2019-03-23T11:24:03Z</time>
      </trkpt>
      <trkpt lat="38.9473" lon="-0.47795">
        <time>2019-03-23T11:24:04Z</time>
      </trkpt>
      <trkpt lat="38.94739" lon="-0.47796">
        <time>2019-03-23T11:24:05Z</time>
      </trkpt>
      <trkpt lat="38.94747" lon="-0.47797">
        <time>2019-03-23T11:24:06Z</time>
      </trkpt>
      <trkpt lat="38.94755" lon="-0.47797">
        <time>2019-03-23T11:24:07Z</time>
      </trkpt>
      <trkpt lat="38.94764" lon="-0.47798">
        <time>2019-03-23T11:24:08Z</time>
      </trkpt>
      <trkpt lat="38.94774" lon="-0.47799">
        <time>2019-03-23T11:24:09Z</time>
      </trkpt>
      <trkpt lat="38.94784" lon="-0.47801">
        <time>2019-03-23T11:24:10Z</time>
      </trkpt>
      <trkpt lat="38.94794" lon="-0.47804">
        <time>2019-03-23T11:24:11Z</time>
      </trkpt>
      <trkpt lat="38.94804" lon="-0.47807">
        <time>2019-03-23T11:24:12Z</time>
      </trkpt>
      <trkpt lat="38.94815" lon="-0.47811">
        <time>2019-03-23T11:24:13Z</time>
      </trkpt>
      <trkpt lat="38.94827" lon="-0.47816">
        <time>2019-03-23T11:24:14Z</time>
      </trkpt>
      <trkpt lat="38.94838" lon="-0.47821">
        <time>2019-03-23T11:24:15Z</time>
      </trkpt>
      <trkpt lat="38.9485" lon="-0.47828">
        <time>2019-03-23T11:24:16Z</time>
      </trkpt>
      <trkpt lat="38.9486" lon="-0.47833">
        <time>2019-03-23T11:24:17Z</time>
      </trkpt>
      <trkpt lat="38.94872" lon="-0.47838">
        <time>2019-03-23T11:24:18Z</time>
      </trkpt>
      <trkpt lat="38.94884" lon="-0.47843">
        <time>2019-03-23T11:24:19Z</time>
      </trkpt>
      <trkpt lat="38.94895" lon="-0.47846">
        <time>2019-03-23T11:24:20Z</time>
      </trkpt>
      <trkpt lat="38.94908" lon="-0.4785">
        <time>2019-03-23T11:24:21Z</time>
      </trkpt>
      <trkpt lat="38.94921" lon="-0.47853">
        <time>2019-03-23T11:24:22Z</time>
      </trkpt>
      <trkpt lat="38.94933" lon="-0.47856">
        <time>2019-03-23T11:24:23Z</time>
      </trkpt>
      <trkpt lat="38.94944" lon="-0.47859">
        <time>2019-03-23T11:24:24Z</time>
      </trkpt>
      <trkpt lat="38.94954" lon="-0.47862">
        <time>2019-03-23T11:24:25Z</time>
      </trkpt>
      <trkpt lat="38.94964" lon="-0.47864">
        <time>2019-03-23T11:24:26Z</time>
      </trkpt>
      <trkpt lat="38.94973" lon="-0.47866">
        <time>2019-03-23T11:24:27Z</time>
      </trkpt>
      <trkpt lat="38.94982" lon="-0.47868">
        <time>2019-03-23T11:24:28Z</time>
      </trkpt>
      <trkpt lat="38.94993" lon="-0.47869">
        <time>2019-03-23T11:24:29Z</time>
      </trkpt>
      <trkpt lat="38.95005" lon="-0.4787">
        <time>2019-03-23T11:24:30Z</time>
      </trkpt>
      <trkpt lat="38.95015" lon="-0.47872">
        <time>2019-03-23T11:24:31Z</time>
      </trkpt>
      <trkpt lat="38.95027" lon="-0.47875">
        <time>2019-03-23T11:24:32Z</time>
      </trkpt>
      <trkpt lat="38.95036" lon="-0.47879">
        <time>2019-03-23T11:24:33Z</time>
      </trkpt>
      <trkpt lat="38.95046" lon="-0.47884">
        <time>2019-03-23T11:24:34Z</time>
      </trkpt>
      <trkpt lat="38.95054" lon="-0.47889">
        <time>2019-03-23T11:24:35Z</time>
      </trkpt>
      <trkpt lat="38.95062" lon="-0.47896">
        <time>2019-03-23T11:24:36Z</time>
      </trkpt>
      <trkpt lat="38.9507" lon="-0.47905">
        <time>2019-03-23T11:24:37Z</time>
      </trkpt>
      <trkpt lat="38.95077" lon="-0.47915">
        <time>2019-03-23T11:24:38Z</time>
      </trkpt>
      <trkpt lat="38.95082" lon="-0.47925">
        <time>2019-03-23T11:24:39Z</time>
      </trkpt>
      <trkpt lat="38.95087" lon="-0.47937">
        <time>2019-03-23T11:24:40Z</time>
      </trkpt>
      <trkpt lat="38.9509" lon="-0.47948">
        <time>2019-03-23T11:24:41Z</time>
      </trkpt>
      <trkpt lat="38.95092" lon="-0.47959">
        <time>2019-03-23T11:24:42Z</time>
      </trkpt>
      <trkpt lat="38.95094" lon="-0.47969">
        <time>2019-03-23T11:24:43Z</time>
      </trkpt>
      <trkpt lat="38.95095" lon="-0.47978">
        <time>2019-03-23T11:24:44Z</time>
      </trkpt>
      <trkpt lat="38.95097" lon="-0.47987">
        <time>2019-03-23T11:24:45Z</time>
      </trkpt>
      <trkpt lat="38.95099" lon="-0.47997">
        <time>2019-03-23T11:24:46Z</time>
      </trkpt>
      <trkpt lat="38.95102" lon="-0.48007">
        <time>2019-03-23T11:24:47Z</time>
      </trkpt>
      <trkpt lat="38.95104" lon="-0.48017">
        <time>2019-03-23T11:24:48Z</time>
      </trkpt>
      <trkpt lat="38.95106" lon="-0.48027">
        <time>2019-03-23T11:24:49Z</time>
      </trkpt>
      <trkpt lat="38.95108" lon="-0.48038">
        <time>2019-03-23T11:24:50Z</time>
      </trkpt>
      <trkpt lat="38.95111" lon="-0.48047">
        <time>2019-03-23T11:24:51Z</time>
      </trkpt>
      <trkpt lat="38.95113" lon="-0.48057">
        <time>2019-03-23T11:24:52Z</time>
      </trkpt>
      <trkpt lat="38.95115" lon="-0.48069">
        <time>2019-03-23T11:24:53Z</time>
      </trkpt>
      <trkpt lat="38.95117" lon="-0.48086">
        <time>2019-03-23T11:24:54Z</time>
      </trkpt>
      <trkpt lat="38.95118" lon="-0.48099">
        <time>2019-03-23T11:24:55Z</time>
      </trkpt>
      <trkpt lat="38.95117" lon="-0.48114">
        <time>2019-03-23T11:24:56Z</time>
      </trkpt>
      <trkpt lat="38.95116" lon="-0.4813">
        <time>2019-03-23T11:24:57Z</time>
      </trkpt>
      <trkpt lat="38.95115" lon="-0.48144">
        <time>2019-03-23T11:24:58Z</time>
      </trkpt>
      <trkpt lat="38.95112" lon="-0.48159">
        <time>2019-03-23T11:24:59Z</time>
      </trkpt>
      <trkpt lat="38.9511" lon="-0.48172">
        <time>2019-03-23T11:25:00Z</time>
      </trkpt>
      <trkpt lat="38.95106" lon="-0.48186">
        <time>2019-03-23T11:25:01Z</time>
      </trkpt>
      <trkpt lat="38.95103" lon="-0.48199">
        <time>2019-03-23T11:25:02Z</time>
      </trkpt>
      <trkpt lat="38.95099" lon="-0.48211">
        <time>2019-03-23T11:25:03Z</time>
      </trkpt>
      <trkpt lat="38.95094" lon="-0.48225">
        <time>2019-03-23T11:25:04Z</time>
      </trkpt>
      <trkpt lat="38.95088" lon="-0.48236">
        <time>2019-03-23T11:25:05Z</time>
      </trkpt>
      <trkpt lat="38.95081" lon="-0.4825">
        <time>2019-03-23T11:25:06Z</time>
      </trkpt>
      <trkpt lat="38.95074" lon="-0.48262">
        <time>2019-03-23T11:25:07Z</time>
      </trkpt>
      <trkpt lat="38.95067" lon="-0.48274">
        <time>2019-03-23T11:25:08Z</time>
      </trkpt>
      <trkpt lat="38.9506" lon="-0.48287">
        <time>2019-03-23T11:25:09Z</time>
      </trkpt>
      <trkpt lat="38.95055" lon="-0.48299">
        <time>2019-03-23T11:25:10Z</time>
      </trkpt>
      <trkpt lat="38.95049" lon="-0.4831">
        <time>2019-03-23T11:25:11Z</time>
      </trkpt>
      <trkpt lat="38.95043" lon="-0.48324">
        <time>2019-03-23T11:25:12Z</time>
      </trkpt>
      <trkpt lat="38.95037" lon="-0.48336">
        <time>2019-03-23T11:25:13Z</time>
      </trkpt>
      <trkpt lat="38.95032" lon="-0.48348">
        <time>2019-03-23T11:25:14Z</time>
      </trkpt>
      <trkpt lat="38.95028" lon="-0.48359">
        <time>2019-03-23T11:25:15Z</time>
      </trkpt>
      <trkpt lat="38.95024" lon="-0.48369">
        <time>2019-03-23T11:25:16Z</time>
      </trkpt>
      <trkpt lat="38.95019" lon="-0.48381">
        <time>2019-03-23T11:25:17Z</time>
      </trkpt>
      <trkpt lat="38.95014" lon="-0.48392">
        <time>2019-03-23T11:25:18Z</time>
      </trkpt>
      <trkpt lat="38.9501" lon="-0.48403">
        <time>2019-03-23T11:25:19Z</time>
      </trkpt>
      <trkpt lat="38.95006" lon="-0.48415">
        <time>2019-03-23T11:25:20Z</time>
      </trkpt>
      <trkpt lat="38.95002" lon="-0.48427">
        <time>2019-03-23T11:25:21Z</time>
      </trkpt>
      <trkpt lat="38.94999" lon="-0.48439">
        <time>2019-03-23T11:25:22Z</time>
      </trkpt>
      <trkpt lat="38.94996" lon="-0.48451">
        <time>2019-03-23T11:25:23Z</time>
      </trkpt>
      <trkpt lat="38.94994" lon="-0.4846">
        <time>2019-03-23T11:25:24Z</time>
      </trkpt>
      <trkpt lat="38.94992" lon="-0.48472">
        <time>2019-03-23T11:25:25Z</time>
      </trkpt>
      <trkpt lat="38.94991" lon="-0.48483">
        <time>2019-03-23T11:25:26Z</time>
      </trkpt>
      <trkpt lat="38.9499" lon="-0.48493">
        <time>2019-03-23T11:25:27Z</time>
      </trkpt>
      <trkpt lat="38.94989" lon="-0.48506">
        <time>2019-03-23T11:25:28Z</time>
      </trkpt>
      <trkpt lat="38.94989" lon="-0.48518">
        <time>2019-03-23T11:25:29Z</time>
      </trkpt>
      <trkpt lat="38.94988" lon="-0.48531">
        <time>2019-03-23T11:25:30Z</time>
      </trkpt>
      <trkpt lat="38.94987" lon="-0.48543">
        <time>2019-03-23T11:25:31Z</time>
      </trkpt>
      <trkpt lat="38.94987" lon="-0.48555">
        <time>2019-03-23T11:25:32Z</time>
      </trkpt>
      <trkpt lat="38.94987" lon="-0.48568">
        <time>2019-03-23T11:25:33Z</time>
      </trkpt>
      <trkpt lat="38.94987" lon="-0.48581">
        <time>2019-03-23T11:25:34Z</time>
      </trkpt>
      <trkpt lat="38.94986" lon="-0.48593">
        <time>2019-03-23T11:25:35Z</time>
      </trkpt>
      <trkpt lat="38.94986" lon="-0.48607">
        <time>2019-03-23T11:25:36Z</time>
      </trkpt>
      <trkpt lat="38.94986" lon="-0.4862">
        <time>2019-03-23T11:25:37Z</time>
      </trkpt>
      <trkpt lat="38.94985" lon="-0.48634">
        <time>2019-03-23T11:25:38Z</time>
      </trkpt>
      <trkpt lat="38.94985" lon="-0.48647">
        <time>2019-03-23T11:25:39Z</time>
      </trkpt>
      <trkpt lat="38.94986" lon="-0.48659">
        <time>2019-03-23T11:25:40Z</time>
      </trkpt>
      <trkpt lat="38.94986" lon="-0.48673">
        <time>2019-03-23T11:25:41Z</time>
      </trkpt>
      <trkpt lat="38.94987" lon="-0.48686">
        <time>2019-03-23T11:25:42Z</time>
      </trkpt>
      <trkpt lat="38.94987" lon="-0.48698">
        <time>2019-03-23T11:25:43Z</time>
      </trkpt>
      <trkpt lat="38.94988" lon="-0.48709">
        <time>2019-03-23T11:25:44Z</time>
      </trkpt>
      <trkpt lat="38.94989" lon="-0.4872">
        <time>2019-03-23T11:25:45Z</time>
      </trkpt>
      <trkpt lat="38.9499" lon="-0.48729">
        <time>2019-03-23T11:25:46Z</time>
      </trkpt>
      <trkpt lat="38.94992" lon="-0.48738">
        <time>2019-03-23T11:25:47Z</time>
      </trkpt>
      <trkpt lat="38.94993" lon="-0.48746">
        <time>2019-03-23T11:25:48Z</time>
      </trkpt>
      <trkpt lat="38.94994" lon="-0.48755">
        <time>2019-03-23T11:25:49Z</time>
      </trkpt>
      <trkpt lat="38.94997" lon="-0.48763">
        <time>2019-03-23T11:25:50Z</time>
      </trkpt>
      <trkpt lat="38.94999" lon="-0.48771">
        <time>2019-03-23T11:25:51Z</time>
      </trkpt>
      <trkpt lat="38.95" lon="-0.4878">
        <time>2019-03-23T11:25:52Z</time>
      </trkpt>
      <trkpt lat="38.95" lon="-0.48788">
        <time>2019-03-23T11:25:53Z</time>
      </trkpt>
      <trkpt lat="38.94997" lon="-0.48798">
        <time>2019-03-23T11:25:54Z</time>
      </trkpt>
      <trkpt lat="38.94995" lon="-0.48808">
        <time>2019-03-23T11:25:55Z</time>
      </trkpt>
      <trkpt lat="38.94992" lon="-0.48818">
        <time>2019-03-23T11:25:56Z</time>
      </trkpt>
      <trkpt lat="38.9499" lon="-0.48827">
        <time>2019-03-23T11:25:57Z</time>
      </trkpt>
      <trkpt lat="38.94988" lon="-0.48835">
        <time>2019-03-23T11:25:58Z</time>
      </trkpt>
      <trkpt lat="38.94987" lon="-0.48841">
        <time>2019-03-23T11:25:59Z</time>
      </trkpt>
      <trkpt lat="38.94987" lon="-0.48845">
        <time>2019-03-23T11:26:00Z</time>
      </trkpt>
      <trkpt lat="38.94988" lon="-0.48848">
        <time>2019-03-23T11:26:01Z</time>
      </trkpt>
      <trkpt lat="38.94989" lon="-0.48849">
        <time>2019-03-23T11:26:02Z</time>
      </trkpt>
      <trkpt lat="38.94992" lon="-0.48849">
        <time>2019-03-23T11:26:03Z</time>
      </trkpt>
      <trkpt lat="38.94995" lon="-0.48849">
        <time>2019-03-23T11:26:04Z</time>
      </trkpt>
      <trkpt lat="38.94999" lon="-0.48845">
        <time>2019-03-23T11:26:05Z</time>
      </trkpt>
      <trkpt lat="38.95002" lon="-0.4884">
        <time>2019-03-23T11:26:06Z</time>
      </trkpt>
      <trkpt lat="38.95006" lon="-0.48833">
        <time>2019-03-23T11:26:07Z</time>
      </trkpt>
      <trkpt lat="38.9501" lon="-0.48825">
        <time>2019-03-23T11:26:08Z</time>
      </trkpt>
      <trkpt lat="38.95013" lon="-0.48818">
        <time>2019-03-23T11:26:09Z</time>
      </trkpt>
      <trkpt lat="38.95017" lon="-0.48809">
        <time>2019-03-23T11:26:10Z</time>
      </trkpt>
      <trkpt lat="38.95022" lon="-0.48802">
        <time>2019-03-23T11:26:11Z</time>
      </trkpt>
      <trkpt lat="38.95027" lon="-0.48795">
        <time>2019-03-23T11:26:12Z</time>
      </trkpt>
      <trkpt lat="38.95036" lon="-0.48789">
        <time>2019-03-23T11:26:13Z</time>
      </trkpt>
      <trkpt lat="38.95046" lon="-0.48785">
        <time>2019-03-23T11:26:14Z</time>
      </trkpt>
      <trkpt lat="38.95057" lon="-0.48784">
        <time>2019-03-23T11:26:15Z</time>
      </trkpt>
      <trkpt lat="38.9507" lon="-0.48783">
        <time>2019-03-23T11:26:16Z</time>
      </trkpt>
      <trkpt lat="38.95083" lon="-0.48783">
        <time>2019-03-23T11:26:17Z</time>
      </trkpt>
      <trkpt lat="38.95096" lon="-0.48783">
        <time>2019-03-23T11:26:18Z</time>
      </trkpt>
      <trkpt lat="38.95108" lon="-0.48784">
        <time>2019-03-23T11:26:19Z</time>
      </trkpt>
      <trkpt lat="38.9512" lon="-0.48784">
        <time>2019-03-23T11:26:20Z</time>
      </trkpt>
      <trkpt lat="38.95133" lon="-0.48783">
        <time>2019-03-23T11:26:21Z</time>
      </trkpt>
      <trkpt lat="38.95142" lon="-0.48784">
        <time>2019-03-23T11:26:22Z</time>
      </trkpt>
      <trkpt lat="38.95151" lon="-0.48786">
        <time>2019-03-23T11:26:23Z</time>
      </trkpt>
      <trkpt lat="38.95161" lon="-0.48792">
        <time>2019-03-23T11:26:24Z</time>
      </trkpt>
      <trkpt lat="38.95169" lon="-0.48795">
        <time>2019-03-23T11:26:25Z</time>
      </trkpt>
      <trkpt lat="38.95176" lon="-0.48798">
        <time>2019-03-23T11:26:26Z</time>
      </trkpt>
      <trkpt lat="38.95182" lon="-0.48801">
        <time>2019-03-23T11:26:27Z</time>
      </trkpt>
      <trkpt lat="38.95187" lon="-0.48803">
        <time>2019-03-23T11:26:28Z</time>
      </trkpt>
      <trkpt lat="38.95193" lon="-0.48806">
        <time>2019-03-23T11:26:29Z</time>
      </trkpt>
      <trkpt lat="38.95197" lon="-0.48808">
        <time>2019-03-23T11:26:30Z</time>
      </trkpt>
      <trkpt lat="38.95203" lon="-0.48809">
        <time>2019-03-23T11:26:31Z</time>
      </trkpt>
      <trkpt lat="38.95209" lon="-0.48809">
        <time>2019-03-23T11:26:32Z</time>
      </trkpt>
      <trkpt lat="38.95216" lon="-0.48809">
        <time>2019-03-23T11:26:33Z</time>
      </trkpt>
      <trkpt lat="38.95223" lon="-0.48809">
        <time>2019-03-23T11:26:34Z</time>
      </trkpt>
      <trkpt lat="38.9523" lon="-0.4881">
        <time>2019-03-23T11:26:35Z</time>
      </trkpt>
      <trkpt lat="38.95236" lon="-0.4881">
        <time>2019-03-23T11:26:36Z</time>
      </trkpt>
      <trkpt lat="38.95243" lon="-0.4881">
        <time>2019-03-23T11:26:37Z</time>
      </trkpt>
      <trkpt lat="38.95249" lon="-0.48808">
        <time>2019-03-23T11:26:38Z</time>
      </trkpt>
      <trkpt lat="38.95255" lon="-0.48805">
        <time>2019-03-23T11:26:39Z</time>
      </trkpt>
      <trkpt lat="38.95263" lon="-0.488">
        <time>2019-03-23T11:26:40Z</time>
      </trkpt>
      <trkpt lat="38.9527" lon="-0.48796">
        <time>2019-03-23T11:26:41Z</time>
      </trkpt>
      <trkpt lat="38.9528" lon="-0.48792">
        <time>2019-03-23T11:26:42Z</time>
      </trkpt>
      <trkpt lat="38.95289" lon="-0.48789">
        <time>2019-03-23T11:26:43Z</time>
      </trkpt>
      <trkpt lat="38.95299" lon="-0.48787">
        <time>2019-03-23T11:26:44Z</time>
      </trkpt>
      <trkpt lat="38.95309" lon="-0.48784">
        <time>2019-03-23T11:26:45Z</time>
      </trkpt>
      <trkpt lat="38.95318" lon="-0.48784">
        <time>2019-03-23T11:26:46Z</time>
      </trkpt>
      <trkpt lat="38.95327" lon="-0.48785">
        <time>2019-03-23T11:26:47Z</time>
      </trkpt>
      <trkpt lat="38.95337" lon="-0.48784">
        <time>2019-03-23T11:26:48Z</time>
      </trkpt>
      <trkpt lat="38.95345" lon="-0.4878">
        <time>2019-03-23T11:26:49Z</time>
      </trkpt>
      <trkpt lat="38.95354" lon="-0.48775">
        <time>2019-03-23T11:26:50Z</time>
      </trkpt>
      <trkpt lat="38.95363" lon="-0.48769">
        <time>2019-03-23T11:26:51Z</time>
      </trkpt>
      <trkpt lat="38.95373" lon="-0.48763">
        <time>2019-03-23T11:26:52Z</time>
      </trkpt>
      <trkpt lat="38.95385" lon="-0.48757">
        <time>2019-03-23T11:26:53Z</time>
      </trkpt>
      <trkpt lat="38.95397" lon="-0.48752">
        <time>2019-03-23T11:26:54Z</time>
      </trkpt>
      <trkpt lat="38.95407" lon="-0.48746">
        <time>2019-03-23T11:26:55Z</time>
      </trkpt>
      <trkpt lat="38.95418" lon="-0.48738">
        <time>2019-03-23T11:26:56Z</time>
      </trkpt>
      <trkpt lat="38.95426" lon="-0.48731">
        <time>2019-03-23T11:26:57Z</time>
      </trkpt>
      <trkpt lat="38.95437" lon="-0.48721">
        <time>2019-03-23T11:26:58Z</time>
      </trkpt>
      <trkpt lat="38.95446" lon="-0.4871">
        <time>2019-03-23T11:26:59Z</time>
      </trkpt>
      <trkpt lat="38.95455" lon="-0.487">
        <time>2019-03-23T11:27:00Z</time>
      </trkpt>
      <trkpt lat="38.95465" lon="-0.48693">
        <time>2019-03-23T11:27:01Z</time>
      </trkpt>
      <trkpt lat="38.95477" lon="-0.48689">
        <time>2019-03-23T11:27:02Z</time>
      </trkpt>
      <trkpt lat="38.95486" lon="-0.48688">
        <time>2019-03-23T11:27:03Z</time>
      </trkpt>
      <trkpt lat="38.95497" lon="-0.48686">
        <time>2019-03-23T11:27:04Z</time>
      </trkpt>
      <trkpt lat="38.95509" lon="-0.48681">
        <time>2019-03-23T11:27:05Z</time>
      </trkpt>
      <trkpt lat="38.95518" lon="-0.48677">
        <time>2019-03-23T11:27:06Z</time>
      </trkpt>
      <trkpt lat="38.95527" lon="-0.48673">
        <time>2019-03-23T11:27:07Z</time>
      </trkpt>
      <trkpt lat="38.95535" lon="-0.48669">
        <time>2019-03-23T11:27:08Z</time>
      </trkpt>
      <trkpt lat="38.95542" lon="-0.48664">
        <time>2019-03-23T11:27:09Z</time>
      </trkpt>
      <trkpt lat="38.95547" lon="-0.48659">
        <time>2019-03-23T11:27:10Z</time>
      </trkpt>
      <trkpt lat="38.95551" lon="-0.48653">
        <time>2019-03-23T11:27:11Z</time>
      </trkpt>
      <trkpt lat="38.95553" lon="-0.48645">
        <time>2019-03-23T11:27:12Z</time>
      </trkpt>
      <trkpt lat="38.95555" lon="-0.48637">
        <time>2019-03-23T11:27:13Z</time>
      </trkpt>
      <trkpt lat="38.95556" lon="-0.48629">
        <time>2019-03-23T11:27:14Z</time>
      </trkpt>
      <trkpt lat="38.95558" lon="-0.48621">
        <time>2019-03-23T11:27:15Z</time>
      </trkpt>
      <trkpt lat="38.9556" lon="-0.48616">
        <time>2019-03-23T11:27:16Z</time>
      </trkpt>
      <trkpt lat="38.95564" lon="-0.48614">
        <time>2019-03-23T11:27:17Z</time>
      </trkpt>
      <trkpt lat="38.95568" lon="-0.48614">
        <time>2019-03-23T11:27:18Z</time>
      </trkpt>
      <trkpt lat="38.95572" lon="-0.48616">
        <time>2019-03-23T11:27:19Z</time>
      </trkpt>
      <trkpt lat="38.95576" lon="-0.48619">
        <time>2019-03-23T11:27:20Z</time>
      </trkpt>
      <trkpt lat="38.9558" lon="-0.48623">
        <time>2019-03-23T11:27:21Z</time>
      </trkpt>
      <trkpt lat="38.95584" lon="-0.48626">
        <time>2019-03-23T11:27:22Z</time>
      </trkpt>
      <trkpt lat="38.95588" lon="-0.4863">
        <time>2019-03-23T11:27:23Z</time>
      </trkpt>
      <trkpt lat="38.95592" lon="-0.48633">
        <time>2019-03-23T11:27:24Z</time>
      </trkpt>
      <trkpt lat="38.95596" lon="-0.48637">
        <time>2019-03-23T11:27:25Z</time>
      </trkpt>
      <trkpt lat="38.956" lon="-0.48639">
        <time>2019-03-23T11:27:26Z</time>
      </trkpt>
      <trkpt lat="38.95603" lon="-0.48642">
        <time>2019-03-23T11:27:27Z</time>
      </trkpt>
      <trkpt lat="38.95607" lon="-0.48644">
        <time>2019-03-23T11:27:28Z</time>
      </trkpt>
      <trkpt lat="38.9561" lon="-0.48645">
        <time>2019-03-23T11:27:29Z</time>
      </trkpt>
      <trkpt lat="38.95614" lon="-0.48646">
        <time>2019-03-23T11:27:30Z</time>
      </trkpt>
      <trkpt lat="38.95618" lon="-0.48647">
        <time>2019-03-23T11:27:31Z</time>
      </trkpt>
      <trkpt lat="38.95621" lon="-0.48648">
        <time>2019-03-23T11:27:32Z</time>
      </trkpt>
      <trkpt lat="38.95624" lon="-0.4865">
        <time>2019-03-23T11:27:33Z</time>
      </trkpt>
      <trkpt lat="38.95626" lon="-0.48651">
        <time>2019-03-23T11:27:34Z</time>
      </trkpt>
      <trkpt lat="38.95628" lon="-0.48652">
        <time>2019-03-23T11:27:35Z</time>
      </trkpt>
      <trkpt lat="38.95629" lon="-0.48653">
        <time>2019-03-23T11:27:36Z</time>
      </trkpt>
      <trkpt lat="38.95629" lon="-0.48656">
        <time>2019-03-23T11:27:37Z</time>
      </trkpt>
      <trkpt lat="38.95627" lon="-0.48657">
        <time>2019-03-23T11:27:38Z</time>
      </trkpt>
      <trkpt lat="38.95626" lon="-0.48657">
        <time>2019-03-23T11:27:39Z</time>
      </trkpt>
      <trkpt lat="38.95626" lon="-0.48656">
        <time>2019-03-23T11:27:44Z</time>
      </trkpt>
      <trkpt lat="38.95624" lon="-0.48654">
        <time>2019-03-23T11:27:45Z</time>
      </trkpt>
      <trkpt lat="38.95622" lon="-0.48651">
        <time>2019-03-23T11:27:46Z</time>
      </trkpt>
      <trkpt lat="38.9562" lon="-0.48648">
        <time>2019-03-23T11:27:47Z</time>
      </trkpt>
      <trkpt lat="38.95618" lon="-0.48647">
        <time>2019-03-23T11:27:48Z</time>
      </trkpt>
      <trkpt lat="38.95616" lon="-0.48646">
        <time>2019-03-23T11:27:49Z</time>
      </trkpt>
      <trkpt lat="38.95614" lon="-0.48645">
        <time>2019-03-23T11:27:50Z</time>
      </trkpt>
      <trkpt lat="38.95613" lon="-0.48645">
        <time>2019-03-23T11:27:51Z</time>
      </trkpt>
      <trkpt lat="38.95612" lon="-0.48647">
        <time>2019-03-23T11:37:41Z</time>
      </trkpt>
      <trkpt lat="38.9561" lon="-0.48647">
        <time>2019-03-23T11:37:42Z</time>
      </trkpt>
      <trkpt lat="38.95607" lon="-0.48645">
        <time>2019-03-23T11:37:43Z</time>
      </trkpt>
      <trkpt lat="38.95603" lon="-0.48643">
        <time>2019-03-23T11:37:44Z</time>
      </trkpt>
      <trkpt lat="38.95599" lon="-0.48641">
        <time>2019-03-23T11:37:45Z</time>
      </trkpt>
      <trkpt lat="38.95594" lon="-0.48638">
        <time>2019-03-23T11:37:46Z</time>
      </trkpt>
      <trkpt lat="38.95589" lon="-0.48633">
        <time>2019-03-23T11:37:47Z</time>
      </trkpt>
      <trkpt lat="38.95585" lon="-0.4863">
        <time>2019-03-23T11:37:48Z</time>
      </trkpt>
      <trkpt lat="38.95579" lon="-0.48626">
        <time>2019-03-23T11:37:49Z</time>
      </trkpt>
      <trkpt lat="38.95575" lon="-0.48622">
        <time>2019-03-23T11:37:50Z</time>
      </trkpt>
      <trkpt lat="38.9557" lon="-0.4862">
        <time>2019-03-23T11:37:51Z</time>
      </trkpt>
      <trkpt lat="38.95565" lon="-0.4862">
        <time>2019-03-23T11:37:52Z</time>
      </trkpt>
      <trkpt lat="38.95561" lon="-0.48623">
        <time>2019-03-23T11:37:53Z</time>
      </trkpt>
      <trkpt lat="38.95558" lon="-0.48628">
        <time>2019-03-23T11:37:54Z</time>
      </trkpt>
      <trkpt lat="38.95557" lon="-0.48634">
        <time>2019-03-23T11:37:55Z</time>
      </trkpt>
      <trkpt lat="38.95556" lon="-0.4864">
        <time>2019-03-23T11:37:56Z</time>
      </trkpt>
      <trkpt lat="38.95555" lon="-0.48647">
        <time>2019-03-23T11:37:57Z</time>
      </trkpt>
      <trkpt lat="38.95553" lon="-0.48654">
        <time>2019-03-23T11:37:58Z</time>
      </trkpt>
      <trkpt lat="38.9555" lon="-0.4866">
        <time>2019-03-23T11:37:59Z</time>
      </trkpt>
      <trkpt lat="38.95546" lon="-0.48665">
        <time>2019-03-23T11:38:00Z</time>
      </trkpt>
      <trkpt lat="38.9554" lon="-0.4867">
        <time>2019-03-23T11:38:01Z</time>
      </trkpt>
      <trkpt lat="38.95534" lon="-0.48674">
        <time>2019-03-23T11:38:02Z</time>
      </trkpt>
      <trkpt lat="38.95527" lon="-0.48678">
        <time>2019-03-23T11:38:03Z</time>
      </trkpt>
      <trkpt lat="38.95521" lon="-0.48681">
        <time>2019-03-23T11:38:04Z</time>
      </trkpt>
      <trkpt lat="38.95514" lon="-0.48684">
        <time>2019-03-23T11:38:05Z</time>
      </trkpt>
      <trkpt lat="38.95507" lon="-0.48688">
        <time>2019-03-23T11:38:06Z</time>
      </trkpt>
      <trkpt lat="38.955" lon="-0.4869">
        <time>2019-03-23T11:38:07Z</time>
      </trkpt>
      <trkpt lat="38.95494" lon="-0.48691">
        <time>2019-03-23T11:38:08Z</time>
      </trkpt>
      <trkpt lat="38.95488" lon="-0.48692">
        <time>2019-03-23T11:38:09Z</time>
      </trkpt>
      <trkpt lat="38.95481" lon="-0.48692">
        <time>2019-03-23T11:38:10Z</time>
      </trkpt>
      <trkpt lat="38.95474" lon="-0.48693">
        <time>2019-03-23T11:38:11Z</time>
      </trkpt>
      <trkpt lat="38.95466" lon="-0.48696">
        <time>2019-03-23T11:38:12Z</time>
      </trkpt>
      <trkpt lat="38.95458" lon="-0.48701">
        <time>2019-03-23T11:38:13Z</time>
      </trkpt>
      <trkpt lat="38.9545" lon="-0.48708">
        <time>2019-03-23T11:38:14Z</time>
      </trkpt>
      <trkpt lat="38.95444" lon="-0.48715">
        <time>2019-03-23T11:38:15Z</time>
      </trkpt>
      <trkpt lat="38.95436" lon="-0.48723">
        <time>2019-03-23T11:38:16Z</time>
      </trkpt>
      <trkpt lat="38.95429" lon="-0.48731">
        <time>2019-03-23T11:38:17Z</time>
      </trkpt>
      <trkpt lat="38.95422" lon="-0.48738">
        <time>2019-03-23T11:38:18Z</time>
      </trkpt>
      <trkpt lat="38.95413" lon="-0.48745">
        <time>2019-03-23T11:38:19Z</time>
      </trkpt>
      <trkpt lat="38.95405" lon="-0.4875">
        <time>2019-03-23T11:38:20Z</time>
      </trkpt>
      <trkpt lat="38.95395" lon="-0.48754">
        <time>2019-03-23T11:38:21Z</time>
      </trkpt>
      <trkpt lat="38.95385" lon="-0.48758">
        <time>2019-03-23T11:38:22Z</time>
      </trkpt>
      <trkpt lat="38.95375" lon="-0.48762">
        <time>2019-03-23T11:38:23Z</time>
      </trkpt>
      <trkpt lat="38.95364" lon="-0.4877">
        <time>2019-03-23T11:38:24Z</time>
      </trkpt>
      <trkpt lat="38.95353" lon="-0.48776">
        <time>2019-03-23T11:38:25Z</time>
      </trkpt>
      <trkpt lat="38.95341" lon="-0.48781">
        <time>2019-03-23T11:38:26Z</time>
      </trkpt>
      <trkpt lat="38.95328" lon="-0.48785">
        <time>2019-03-23T11:38:27Z</time>
      </trkpt>
      <trkpt lat="38.95316" lon="-0.48786">
        <time>2019-03-23T11:38:28Z</time>
      </trkpt>
      <trkpt lat="38.95304" lon="-0.48788">
        <time>2019-03-23T11:38:29Z</time>
      </trkpt>
      <trkpt lat="38.95293" lon="-0.48791">
        <time>2019-03-23T11:38:30Z</time>
      </trkpt>
      <trkpt lat="38.95282" lon="-0.48794">
        <time>2019-03-23T11:38:31Z</time>
      </trkpt>
      <trkpt lat="38.95272" lon="-0.48798">
        <time>2019-03-23T11:38:32Z</time>
      </trkpt>
      <trkpt lat="38.95267" lon="-0.488">
        <time>2019-03-23T11:38:33Z</time>
      </trkpt>
      <trkpt lat="38.9526" lon="-0.48804">
        <time>2019-03-23T11:38:34Z</time>
      </trkpt>
      <trkpt lat="38.95252" lon="-0.48808">
        <time>2019-03-23T11:38:35Z</time>
      </trkpt>
      <trkpt lat="38.95245" lon="-0.48811">
        <time>2019-03-23T11:38:36Z</time>
      </trkpt>
      <trkpt lat="38.95238" lon="-0.48812">
        <time>2019-03-23T11:38:37Z</time>
      </trkpt>
      <trkpt lat="38.95231" lon="-0.48812">
        <time>2019-03-23T11:38:38Z</time>
      </trkpt>
      <trkpt lat="38.95224" lon="-0.48812">
        <time>2019-03-23T11:38:39Z</time>
      </trkpt>
      <trkpt lat="38.95217" lon="-0.48813">
        <time>2019-03-23T11:38:40Z</time>
      </trkpt>
      <trkpt lat="38.95211" lon="-0.48812">
        <time>2019-03-23T11:38:41Z</time>
      </trkpt>
      <trkpt lat="38.95204" lon="-0.48811">
        <time>2019-03-23T11:38:42Z</time>
      </trkpt>
      <trkpt lat="38.95195" lon="-0.48811">
        <time>2019-03-23T11:38:43Z</time>
      </trkpt>
      <trkpt lat="38.95187" lon="-0.48809">
        <time>2019-03-23T11:38:44Z</time>
      </trkpt>
      <trkpt lat="38.95178" lon="-0.48807">
        <time>2019-03-23T11:38:45Z</time>
      </trkpt>
      <trkpt lat="38.95169" lon="-0.48804">
        <time>2019-03-23T11:38:46Z</time>
      </trkpt>
      <trkpt lat="38.95161" lon="-0.48801">
        <time>2019-03-23T11:38:47Z</time>
      </trkpt>
      <trkpt lat="38.95153" lon="-0.48798">
        <time>2019-03-23T11:38:48Z</time>
      </trkpt>
      <trkpt lat="38.95145" lon="-0.48795">
        <time>2019-03-23T11:38:49Z</time>
      </trkpt>
      <trkpt lat="38.95137" lon="-0.48794">
        <time>2019-03-23T11:38:50Z</time>
      </trkpt>
      <trkpt lat="38.95129" lon="-0.48793">
        <time>2019-03-23T11:38:51Z</time>
      </trkpt>
      <trkpt lat="38.9512" lon="-0.48792">
        <time>2019-03-23T11:38:52Z</time>
      </trkpt>
      <trkpt lat="38.95111" lon="-0.48792">
        <time>2019-03-23T11:38:53Z</time>
      </trkpt>
      <trkpt lat="38.95101" lon="-0.48791">
        <time>2019-03-23T11:38:54Z</time>
      </trkpt>
      <trkpt lat="38.95091" lon="-0.48791">
        <time>2019-03-23T11:38:55Z</time>
      </trkpt>
      <trkpt lat="38.9508" lon="-0.4879">
        <time>2019-03-23T11:38:56Z</time>
      </trkpt>
      <trkpt lat="38.9507" lon="-0.48789">
        <time>2019-03-23T11:38:57Z</time>
      </trkpt>
      <trkpt lat="38.9506" lon="-0.48788">
        <time>2019-03-23T11:38:58Z</time>
      </trkpt>
      <trkpt lat="38.9505" lon="-0.48788">
        <time>2019-03-23T11:38:59Z</time>
      </trkpt>
      <trkpt lat="38.95041" lon="-0.4879">
        <time>2019-03-23T11:39:00Z</time>
      </trkpt>
      <trkpt lat="38.95032" lon="-0.48795">
        <time>2019-03-23T11:39:01Z</time>
      </trkpt>
      <trkpt lat="38.95023" lon="-0.48802">
        <time>2019-03-23T11:39:02Z</time>
      </trkpt>
      <trkpt lat="38.95019" lon="-0.48811">
        <time>2019-03-23T11:39:03Z</time>
      </trkpt>
      <trkpt lat="38.95014" lon="-0.48821">
        <time>2019-03-23T11:39:04Z</time>
      </trkpt>
      <trkpt lat="38.9501" lon="-0.48831">
        <time>2019-03-23T11:39:05Z</time>
      </trkpt>
      <trkpt lat="38.95004" lon="-0.48839">
        <time>2019-03-23T11:39:06Z</time>
      </trkpt>
      <trkpt lat="38.94998" lon="-0.48847">
        <time>2019-03-23T11:39:07Z</time>
      </trkpt>
      <trkpt lat="38.94992" lon="-0.48852">
        <time>2019-03-23T11:39:08Z</time>
      </trkpt>
      <trkpt lat="38.94986" lon="-0.48857">
        <time>2019-03-23T11:39:09Z</time>
      </trkpt>
      <trkpt lat="38.94981" lon="-0.48861">
        <time>2019-03-23T11:39:10Z</time>
      </trkpt>
      <trkpt lat="38.94977" lon="-0.48864">
        <time>2019-03-23T11:39:11Z</time>
      </trkpt>
      <trkpt lat="38.94976" lon="-0.48869">
        <time>2019-03-23T11:39:12Z</time>
      </trkpt>
      <trkpt lat="38.94976" lon="-0.48875">
        <time>2019-03-23T11:39:13Z</time>
      </trkpt>
      <trkpt lat="38.94976" lon="-0.48882">
        <time>2019-03-23T11:39:14Z</time>
      </trkpt>
      <trkpt lat="38.94979" lon="-0.48891">
        <time>2019-03-23T11:39:15Z</time>
      </trkpt>
      <trkpt lat="38.94982" lon="-0.48898">
        <time>2019-03-23T11:39:16Z</time>
      </trkpt>
      <trkpt lat="38.94987" lon="-0.48904">
        <time>2019-03-23T11:39:17Z</time>
      </trkpt>
      <trkpt lat="38.94993" lon="-0.48908">
        <time>2019-03-23T11:39:18Z</time>
      </trkpt>
      <trkpt lat="38.94999" lon="-0.4891">
        <time>2019-03-23T11:39:19Z</time>
      </trkpt>
      <trkpt lat="38.95006" lon="-0.48913">
        <time>2019-03-23T11:39:20Z</time>
      </trkpt>
      <trkpt lat="38.95014" lon="-0.48917">
        <time>2019-03-23T11:39:21Z</time>
      </trkpt>
      <trkpt lat="38.9502" lon="-0.48919">
        <time>2019-03-23T11:39:22Z</time>
      </trkpt>
      <trkpt lat="38.95028" lon="-0.48923">
        <time>2019-03-23T11:39:23Z</time>
      </trkpt>
      <trkpt lat="38.95035" lon="-0.48927">
        <time>2019-03-23T11:39:24Z</time>
      </trkpt>
      <trkpt lat="38.95041" lon="-0.48931">
        <time>2019-03-23T11:39:25Z</time>
      </trkpt>
      <trkpt lat="38.95048" lon="-0.48936">
        <time>2019-03-23T11:39:26Z</time>
      </trkpt>
      <trkpt lat="38.95054" lon="-0.4894">
        <time>2019-03-23T11:39:27Z</time>
      </trkpt>
      <trkpt lat="38.95061" lon="-0.48943">
        <time>2019-03-23T11:39:28Z</time>
      </trkpt>
      <trkpt lat="38.95068" lon="-0.48946">
        <time>2019-03-23T11:39:29Z</time>
      </trkpt>
      <trkpt lat="38.95074" lon="-0.48951">
        <time>2019-03-23T11:39:30Z</time>
      </trkpt>
      <trkpt lat="38.9508" lon="-0.48956">
        <time>2019-03-23T11:39:31Z</time>
      </trkpt>
      <trkpt lat="38.95085" lon="-0.48962">
        <time>2019-03-23T11:39:32Z</time>
      </trkpt>
      <trkpt lat="38.9509" lon="-0.4897">
        <time>2019-03-23T11:39:33Z</time>
      </trkpt>
      <trkpt lat="38.95095" lon="-0.48978">
        <time>2019-03-23T11:39:34Z</time>
      </trkpt>
      <trkpt lat="38.951" lon="-0.48985">
        <time>2019-03-23T11:39:35Z</time>
      </trkpt>
      <trkpt lat="38.95104" lon="-0.48992">
        <time>2019-03-23T11:39:36Z</time>
      </trkpt>
      <trkpt lat="38.9511" lon="-0.49001">
        <time>2019-03-23T11:39:37Z</time>
      </trkpt>
      <trkpt lat="38.95115" lon="-0.49008">
        <time>2019-03-23T11:39:38Z</time>
      </trkpt>
      <trkpt lat="38.95121" lon="-0.49016">
        <time>2019-03-23T11:39:39Z</time>
      </trkpt>
      <trkpt lat="38.95127" lon="-0.49024">
        <time>2019-03-23T11:39:40Z</time>
      </trkpt>
      <trkpt lat="38.95132" lon="-0.49032">
        <time>2019-03-23T11:39:41Z</time>
      </trkpt>
      <trkpt lat="38.95138" lon="-0.49041">
        <time>2019-03-23T11:39:42Z</time>
      </trkpt>
      <trkpt lat="38.95142" lon="-0.49048">
        <time>2019-03-23T11:39:43Z</time>
      </trkpt>
      <trkpt lat="38.95146" lon="-0.49056">
        <time>2019-03-23T11:39:44Z</time>
      </trkpt>
      <trkpt lat="38.95149" lon="-0.49062">
        <time>2019-03-23T11:39:45Z</time>
      </trkpt>
      <trkpt lat="38.95152" lon="-0.49068">
        <time>2019-03-23T11:39:46Z</time>
      </trkpt>
      <trkpt lat="38.95156" lon="-0.49076">
        <time>2019-03-23T11:39:47Z</time>
      </trkpt>
      <trkpt lat="38.95159" lon="-0.49082">
        <time>2019-03-23T11:39:48Z</time>
      </trkpt>
      <trkpt lat="38.95161" lon="-0.49089">
        <time>2019-03-23T11:39:49Z</time>
      </trkpt>
      <trkpt lat="38.95164" lon="-0.49097">
        <time>2019-03-23T11:39:50Z</time>
      </trkpt>
      <trkpt lat="38.95165" lon="-0.49104">
        <time>2019-03-23T11:39:51Z</time>
      </trkpt>
      <trkpt lat="38.95166" lon="-0.49113">
        <time>2019-03-23T11:39:52Z</time>
      </trkpt>
      <trkpt lat="38.95168" lon="-0.49123">
        <time>2019-03-23T11:39:53Z</time>
      </trkpt>
      <trkpt lat="38.9517" lon="-0.49133">
        <time>2019-03-23T11:39:54Z</time>
      </trkpt>
      <trkpt lat="38.95173" lon="-0.49144">
        <time>2019-03-23T11:39:55Z</time>
      </trkpt>
      <trkpt lat="38.95176" lon="-0.49153">
        <time>2019-03-23T11:39:56Z</time>
      </trkpt>
      <trkpt lat="38.9518" lon="-0.49164">
        <time>2019-03-23T11:39:57Z</time>
      </trkpt>
      <trkpt lat="38.95184" lon="-0.49174">
        <time>2019-03-23T11:39:58Z</time>
      </trkpt>
      <trkpt lat="38.95188" lon="-0.49184">
        <time>2019-03-23T11:39:59Z</time>
      </trkpt>
      <trkpt lat="38.95192" lon="-0.49196">
        <time>2019-03-23T11:40:00Z</time>
      </trkpt>
      <trkpt lat="38.95196" lon="-0.49206">
        <time>2019-03-23T11:40:01Z</time>
      </trkpt>
      <trkpt lat="38.95199" lon="-0.49217">
        <time>2019-03-23T11:40:02Z</time>
      </trkpt>
      <trkpt lat="38.95202" lon="-0.49228">
        <time>2019-03-23T11:40:03Z</time>
      </trkpt>
      <trkpt lat="38.95206" lon="-0.49238">
        <time>2019-03-23T11:40:04Z</time>
      </trkpt>
      <trkpt lat="38.95209" lon="-0.49247">
        <time>2019-03-23T11:40:05Z</time>
      </trkpt>
      <trkpt lat="38.95213" lon="-0.49257">
        <time>2019-03-23T11:40:06Z</time>
      </trkpt>
      <trkpt lat="38.95217" lon="-0.49266">
        <time>2019-03-23T11:40:07Z</time>
      </trkpt>
      <trkpt lat="38.95221" lon="-0.49277">
        <time>2019-03-23T11:40:08Z</time>
      </trkpt>
      <trkpt lat="38.95226" lon="-0.49288">
        <time>2019-03-23T11:40:09Z</time>
      </trkpt>
      <trkpt lat="38.9523" lon="-0.49298">
        <time>2019-03-23T11:40:10Z</time>
      </trkpt>
      <trkpt lat="38.95232" lon="-0.49309">
        <time>2019-03-23T11:40:11Z</time>
      </trkpt>
      <trkpt lat="38.95232" lon="-0.49319">
        <time>2019-03-23T11:40:12Z</time>
      </trkpt>
      <trkpt lat="38.95229" lon="-0.4933">
        <time>2019-03-23T11:40:13Z</time>
      </trkpt>
      <trkpt lat="38.95224" lon="-0.49341">
        <time>2019-03-23T11:40:14Z</time>
      </trkpt>
      <trkpt lat="38.95219" lon="-0.49349">
        <time>2019-03-23T11:40:15Z</time>
      </trkpt>
      <trkpt lat="38.95213" lon="-0.4936">
        <time>2019-03-23T11:40:16Z</time>
      </trkpt>
      <trkpt lat="38.95207" lon="-0.49369">
        <time>2019-03-23T11:40:17Z</time>
      </trkpt>
      <trkpt lat="38.95202" lon="-0.4938">
        <time>2019-03-23T11:40:18Z</time>
      </trkpt>
      <trkpt lat="38.95197" lon="-0.49391">
        <time>2019-03-23T11:40:19Z</time>
      </trkpt>
      <trkpt lat="38.95193" lon="-0.49401">
        <time>2019-03-23T11:40:20Z</time>
      </trkpt>
      <trkpt lat="38.95191" lon="-0.49409">
        <time>2019-03-23T11:40:21Z</time>
      </trkpt>
      <trkpt lat="38.95189" lon="-0.49417">
        <time>2019-03-23T11:40:22Z</time>
      </trkpt>
      <trkpt lat="38.95188" lon="-0.49422">
        <time>2019-03-23T11:40:23Z</time>
      </trkpt>
      <trkpt lat="38.95187" lon="-0.49428">
        <time>2019-03-23T11:40:24Z</time>
      </trkpt>
      <trkpt lat="38.95185" lon="-0.49433">
        <time>2019-03-23T11:40:25Z</time>
      </trkpt>
      <trkpt lat="38.95184" lon="-0.49437">
        <time>2019-03-23T11:40:26Z</time>
      </trkpt>
      <trkpt lat="38.95184" lon="-0.49442">
        <time>2019-03-23T11:40:27Z</time>
      </trkpt>
      <trkpt lat="38.95184" lon="-0.49445">
        <time>2019-03-23T11:40:28Z</time>
      </trkpt>
      <trkpt lat="38.95185" lon="-0.49448">
        <time>2019-03-23T11:40:29Z</time>
      </trkpt>
      <trkpt lat="38.95186" lon="-0.4945">
        <time>2019-03-23T11:40:30Z</time>
      </trkpt>
      <trkpt lat="38.95187" lon="-0.49451">
        <time>2019-03-23T11:40:31Z</time>
      </trkpt>
      <trkpt lat="38.95183" lon="-0.49446">
        <time>2019-03-23T11:41:00Z</time>
      </trkpt>
      <trkpt lat="38.95184" lon="-0.49446">
        <time>2019-03-23T11:41:01Z</time>
      </trkpt>
      <trkpt lat="38.95185" lon="-0.49445">
        <time>2019-03-23T11:41:02Z</time>
      </trkpt>
      <trkpt lat="38.95183" lon="-0.49443">
        <time>2019-03-23T11:41:07Z</time>
      </trkpt>
      <trkpt lat="38.95182" lon="-0.4944">
        <time>2019-03-23T11:41:08Z</time>
      </trkpt>
      <trkpt lat="38.95182" lon="-0.49435">
        <time>2019-03-23T11:41:09Z</time>
      </trkpt>
      <trkpt lat="38.95185" lon="-0.49425">
        <time>2019-03-23T11:41:10Z</time>
      </trkpt>
      <trkpt lat="38.95187" lon="-0.49417">
        <time>2019-03-23T11:41:11Z</time>
      </trkpt>
      <trkpt lat="38.95189" lon="-0.49407">
        <time>2019-03-23T11:41:12Z</time>
      </trkpt>
      <trkpt lat="38.95192" lon="-0.49396">
        <time>2019-03-23T11:41:13Z</time>
      </trkpt>
      <trkpt lat="38.95196" lon="-0.49387">
        <time>2019-03-23T11:41:14Z</time>
      </trkpt>
      <trkpt lat="38.952" lon="-0.49378">
        <time>2019-03-23T11:41:15Z</time>
      </trkpt>
      <trkpt lat="38.95205" lon="-0.49369">
        <time>2019-03-23T11:41:16Z</time>
      </trkpt>
      <trkpt lat="38.9521" lon="-0.4936">
        <time>2019-03-23T11:41:17Z</time>
      </trkpt>
      <trkpt lat="38.95215" lon="-0.4935">
        <time>2019-03-23T11:41:18Z</time>
      </trkpt>
      <trkpt lat="38.9522" lon="-0.49342">
        <time>2019-03-23T11:41:19Z</time>
      </trkpt>
      <trkpt lat="38.95224" lon="-0.49334">
        <time>2019-03-23T11:41:20Z</time>
      </trkpt>
      <trkpt lat="38.95228" lon="-0.49325">
        <time>2019-03-23T11:41:21Z</time>
      </trkpt>
      <trkpt lat="38.9523" lon="-0.49315">
        <time>2019-03-23T11:41:22Z</time>
      </trkpt>
      <trkpt lat="38.9523" lon="-0.49304">
        <time>2019-03-23T11:41:23Z</time>
      </trkpt>
      <trkpt lat="38.95226" lon="-0.49295">
        <time>2019-03-23T11:41:24Z</time>
      </trkpt>
      <trkpt lat="38.95222" lon="-0.49284">
        <time>2019-03-23T11:41:25Z</time>
      </trkpt>
      <trkpt lat="38.95217" lon="-0.49271">
        <time>2019-03-23T11:41:26Z</time>
      </trkpt>
      <trkpt lat="38.95213" lon="-0.4926">
        <time>2019-03-23T11:41:27Z</time>
      </trkpt>
      <trkpt lat="38.95208" lon="-0.49247">
        <time>2019-03-23T11:41:28Z</time>
      </trkpt>
      <trkpt lat="38.95203" lon="-0.49233">
        <time>2019-03-23T11:41:29Z</time>
      </trkpt>
      <trkpt lat="38.95198" lon="-0.4922">
        <time>2019-03-23T11:41:30Z</time>
      </trkpt>
      <trkpt lat="38.95194" lon="-0.49206">
        <time>2019-03-23T11:41:31Z</time>
      </trkpt>
      <trkpt lat="38.95188" lon="-0.49192">
        <time>2019-03-23T11:41:32Z</time>
      </trkpt>
      <trkpt lat="38.95184" lon="-0.49178">
        <time>2019-03-23T11:41:33Z</time>
      </trkpt>
      <trkpt lat="38.95178" lon="-0.49163">
        <time>2019-03-23T11:41:34Z</time>
      </trkpt>
      <trkpt lat="38.95173" lon="-0.4915">
        <time>2019-03-23T11:41:35Z</time>
      </trkpt>
      <trkpt lat="38.95169" lon="-0.49136">
        <time>2019-03-23T11:41:36Z</time>
      </trkpt>
      <trkpt lat="38.95166" lon="-0.49121">
        <time>2019-03-23T11:41:37Z</time>
      </trkpt>
      <trkpt lat="38.95164" lon="-0.49107">
        <time>2019-03-23T11:41:38Z</time>
      </trkpt>
      <trkpt lat="38.95162" lon="-0.49095">
        <time>2019-03-23T11:41:39Z</time>
      </trkpt>
      <trkpt lat="38.95159" lon="-0.49086">
        <time>2019-03-23T11:41:40Z</time>
      </trkpt>
      <trkpt lat="38.95154" lon="-0.49076">
        <time>2019-03-23T11:41:41Z</time>
      </trkpt>
      <trkpt lat="38.95148" lon="-0.49064">
        <time>2019-03-23T11:41:42Z</time>
      </trkpt>
      <trkpt lat="38.95142" lon="-0.49053">
        <time>2019-03-23T11:41:43Z</time>
      </trkpt>
      <trkpt lat="38.95136" lon="-0.4904">
        <time>2019-03-23T11:41:44Z</time>
      </trkpt>
      <trkpt lat="38.95127" lon="-0.49027">
        <time>2019-03-23T11:41:45Z</time>
      </trkpt>
      <trkpt lat="38.9512" lon="-0.49017">
        <time>2019-03-23T11:41:46Z</time>
      </trkpt>
      <trkpt lat="38.95112" lon="-0.49006">
        <time>2019-03-23T11:41:47Z</time>
      </trkpt>
      <trkpt lat="38.95104" lon="-0.48995">
        <time>2019-03-23T11:41:48Z</time>
      </trkpt>
      <trkpt lat="38.95096" lon="-0.48982">
        <time>2019-03-23T11:41:49Z</time>
      </trkpt>
      <trkpt lat="38.95086" lon="-0.4897">
        <time>2019-03-23T11:41:50Z</time>
      </trkpt>
      <trkpt lat="38.95076" lon="-0.48961">
        <time>2019-03-23T11:41:51Z</time>
      </trkpt>
      <trkpt lat="38.95063" lon="-0.48951">
        <time>2019-03-23T11:41:52Z</time>
      </trkpt>
      <trkpt lat="38.95049" lon="-0.48944">
        <time>2019-03-23T11:41:53Z</time>
      </trkpt>
      <trkpt lat="38.95037" lon="-0.48936">
        <time>2019-03-23T11:41:54Z</time>
      </trkpt>
      <trkpt lat="38.95025" lon="-0.48929">
        <time>2019-03-23T11:41:55Z</time>
      </trkpt>
      <trkpt lat="38.95014" lon="-0.48923">
        <time>2019-03-23T11:41:56Z</time>
      </trkpt>
      <trkpt lat="38.95002" lon="-0.48918">
        <time>2019-03-23T11:41:57Z</time>
      </trkpt>
      <trkpt lat="38.94993" lon="-0.48913">
        <time>2019-03-23T11:41:58Z</time>
      </trkpt>
      <trkpt lat="38.94986" lon="-0.48907">
        <time>2019-03-23T11:41:59Z</time>
      </trkpt>
      <trkpt lat="38.94981" lon="-0.489">
        <time>2019-03-23T11:42:00Z</time>
      </trkpt>
      <trkpt lat="38.94979" lon="-0.4889">
        <time>2019-03-23T11:42:01Z</time>
      </trkpt>
      <trkpt lat="38.94978" lon="-0.48882">
        <time>2019-03-23T11:42:02Z</time>
      </trkpt>
      <trkpt lat="38.94976" lon="-0.48876">
        <time>2019-03-23T11:42:03Z</time>
      </trkpt>
      <trkpt lat="38.94973" lon="-0.48872">
        <time>2019-03-23T11:42:04Z</time>
      </trkpt>
      <trkpt lat="38.94969" lon="-0.4887">
        <time>2019-03-23T11:42:05Z</time>
      </trkpt>
      <trkpt lat="38.94964" lon="-0.48871">
        <time>2019-03-23T11:42:06Z</time>
      </trkpt>
      <trkpt lat="38.94958" lon="-0.48873">
        <time>2019-03-23T11:42:07Z</time>
      </trkpt>
      <trkpt lat="38.9495" lon="-0.48876">
        <time>2019-03-23T11:42:08Z</time>
      </trkpt>
      <trkpt lat="38.9494" lon="-0.4888">
        <time>2019-03-23T11:42:09Z</time>
      </trkpt>
      <trkpt lat="38.94928" lon="-0.48887">
        <time>2019-03-23T11:42:10Z</time>
      </trkpt>
      <trkpt lat="38.94917" lon="-0.48896">
        <time>2019-03-23T11:42:11Z</time>
      </trkpt>
      <trkpt lat="38.94907" lon="-0.48902">
        <time>2019-03-23T11:42:12Z</time>
      </trkpt>
      <trkpt lat="38.94896" lon="-0.48909">
        <time>2019-03-23T11:42:13Z</time>
      </trkpt>
      <trkpt lat="38.94884" lon="-0.48917">
        <time>2019-03-23T11:42:14Z</time>
      </trkpt>
      <trkpt lat="38.94873" lon="-0.48923">
        <time>2019-03-23T11:42:15Z</time>
      </trkpt>
      <trkpt lat="38.94861" lon="-0.48926">
        <time>2019-03-23T11:42:16Z</time>
      </trkpt>
      <trkpt lat="38.94848" lon="-0.48928">
        <time>2019-03-23T11:42:17Z</time>
      </trkpt>
      <trkpt lat="38.94838" lon="-0.4893">
        <time>2019-03-23T11:42:18Z</time>
      </trkpt>
      <trkpt lat="38.94827" lon="-0.48932">
        <time>2019-03-23T11:42:19Z</time>
      </trkpt>
      <trkpt lat="38.94816" lon="-0.48932">
        <time>2019-03-23T11:42:20Z</time>
      </trkpt>
      <trkpt lat="38.94806" lon="-0.48929">
        <time>2019-03-23T11:42:21Z</time>
      </trkpt>
      <trkpt lat="38.94794" lon="-0.48925">
        <time>2019-03-23T11:42:22Z</time>
      </trkpt>
      <trkpt lat="38.94783" lon="-0.48922">
        <time>2019-03-23T11:42:23Z</time>
      </trkpt>
      <trkpt lat="38.94772" lon="-0.48919">
        <time>2019-03-23T11:42:24Z</time>
      </trkpt>
      <trkpt lat="38.94763" lon="-0.48915">
        <time>2019-03-23T11:42:25Z</time>
      </trkpt>
      <trkpt lat="38.94754" lon="-0.48911">
        <time>2019-03-23T11:42:26Z</time>
      </trkpt>
      <trkpt lat="38.94747" lon="-0.48906">
        <time>2019-03-23T11:42:27Z</time>
      </trkpt>
      <trkpt lat="38.94743" lon="-0.48904">
        <time>2019-03-23T11:42:28Z</time>
      </trkpt>
      <trkpt lat="38.94741" lon="-0.48904">
        <time>2019-03-23T11:42:29Z</time>
      </trkpt>
      <trkpt lat="38.94739" lon="-0.48906">
        <time>2019-03-23T11:42:30Z</time>
      </trkpt>
      <trkpt lat="38.94738" lon="-0.48909">
        <time>2019-03-23T11:42:31Z</time>
      </trkpt>
      <trkpt lat="38.9474" lon="-0.48915">
        <time>2019-03-23T11:42:32Z</time>
      </trkpt>
      <trkpt lat="38.94745" lon="-0.48921">
        <time>2019-03-23T11:42:33Z</time>
      </trkpt>
      <trkpt lat="38.94752" lon="-0.48929">
        <time>2019-03-23T11:42:34Z</time>
      </trkpt>
      <trkpt lat="38.94759" lon="-0.48941">
        <time>2019-03-23T11:42:35Z</time>
      </trkpt>
      <trkpt lat="38.94768" lon="-0.48954">
        <time>2019-03-23T11:42:36Z</time>
      </trkpt>
      <trkpt lat="38.94776" lon="-0.48966">
        <time>2019-03-23T11:42:37Z</time>
      </trkpt>
      <trkpt lat="38.94787" lon="-0.48981">
        <time>2019-03-23T11:42:38Z</time>
      </trkpt>
      <trkpt lat="38.94797" lon="-0.48994">
        <time>2019-03-23T11:42:39Z</time>
      </trkpt>
      <trkpt lat="38.94808" lon="-0.49011">
        <time>2019-03-23T11:42:40Z</time>
      </trkpt>
      <trkpt lat="38.94819" lon="-0.49027">
        <time>2019-03-23T11:42:41Z</time>
      </trkpt>
      <trkpt lat="38.94831" lon="-0.49044">
        <time>2019-03-23T11:42:42Z</time>
      </trkpt>
      <trkpt lat="38.94845" lon="-0.49063">
        <time>2019-03-23T11:42:43Z</time>
      </trkpt>
      <trkpt lat="38.94858" lon="-0.49081">
        <time>2019-03-23T11:42:44Z</time>
      </trkpt>
      <trkpt lat="38.94873" lon="-0.49101">
        <time>2019-03-23T11:42:45Z</time>
      </trkpt>
      <trkpt lat="38.94888" lon="-0.49121">
        <time>2019-03-23T11:42:46Z</time>
      </trkpt>
      <trkpt lat="38.94903" lon="-0.4914">
        <time>2019-03-23T11:42:47Z</time>
      </trkpt>
      <trkpt lat="38.94918" lon="-0.49161">
        <time>2019-03-23T11:42:48Z</time>
      </trkpt>
      <trkpt lat="38.94934" lon="-0.49184">
        <time>2019-03-23T11:42:49Z</time>
      </trkpt>
      <trkpt lat="38.94948" lon="-0.49205">
        <time>2019-03-23T11:42:50Z</time>
      </trkpt>
      <trkpt lat="38.94966" lon="-0.49234">
        <time>2019-03-23T11:42:51Z</time>
      </trkpt>
      <trkpt lat="38.94981" lon="-0.49256">
        <time>2019-03-23T11:42:52Z</time>
      </trkpt>
      <trkpt lat="38.94995" lon="-0.49276">
        <time>2019-03-23T11:42:53Z</time>
      </trkpt>
      <trkpt lat="38.95008" lon="-0.49295">
        <time>2019-03-23T11:42:54Z</time>
      </trkpt>
      <trkpt lat="38.95019" lon="-0.49312">
        <time>2019-03-23T11:42:55Z</time>
      </trkpt>
      <trkpt lat="38.95025" lon="-0.4933">
        <time>2019-03-23T11:42:56Z</time>
      </trkpt>
      <trkpt lat="38.95027" lon="-0.49349">
        <time>2019-03-23T11:42:57Z</time>
      </trkpt>
      <trkpt lat="38.95025" lon="-0.49368">
        <time>2019-03-23T11:42:58Z</time>
      </trkpt>
      <trkpt lat="38.95014" lon="-0.49381">
        <time>2019-03-23T11:42:59Z</time>
      </trkpt>
      <trkpt lat="38.95005" lon="-0.49402">
        <time>2019-03-23T11:43:00Z</time>
      </trkpt>
      <trkpt lat="38.94996" lon="-0.49426">
        <time>2019-03-23T11:43:01Z</time>
      </trkpt>
      <trkpt lat="38.94984" lon="-0.49453">
        <time>2019-03-23T11:43:02Z</time>
      </trkpt>
      <trkpt lat="38.94971" lon="-0.49481">
        <time>2019-03-23T11:43:03Z</time>
      </trkpt>
      <trkpt lat="38.94958" lon="-0.49511">
        <time>2019-03-23T11:43:04Z</time>
      </trkpt>
      <trkpt lat="38.94947" lon="-0.49542">
        <time>2019-03-23T11:43:05Z</time>
      </trkpt>
      <trkpt lat="38.94936" lon="-0.49572">
        <time>2019-03-23T11:43:06Z</time>
      </trkpt>
      <trkpt lat="38.94926" lon="-0.49591">
        <time>2019-03-23T11:43:07Z</time>
      </trkpt>
      <trkpt lat="38.94914" lon="-0.49619">
        <time>2019-03-23T11:43:08Z</time>
      </trkpt>
      <trkpt lat="38.94902" lon="-0.49646">
        <time>2019-03-23T11:43:09Z</time>
      </trkpt>
      <trkpt lat="38.94889" lon="-0.49673">
        <time>2019-03-23T11:43:10Z</time>
      </trkpt>
      <trkpt lat="38.94877" lon="-0.49695">
        <time>2019-03-23T11:43:11Z</time>
      </trkpt>
      <trkpt lat="38.94865" lon="-0.49718">
        <time>2019-03-23T11:43:12Z</time>
      </trkpt>
      <trkpt lat="38.94853" lon="-0.49743">
        <time>2019-03-23T11:43:13Z</time>
      </trkpt>
      <trkpt lat="38.94838" lon="-0.49778">
        <time>2019-03-23T11:43:14Z</time>
      </trkpt>
      <trkpt lat="38.94823" lon="-0.4981">
        <time>2019-03-23T11:43:15Z</time>
      </trkpt>
      <trkpt lat="38.9481" lon="-0.49837">
        <time>2019-03-23T11:43:16Z</time>
      </trkpt>
      <trkpt lat="38.94795" lon="-0.49863">
        <time>2019-03-23T11:43:17Z</time>
      </trkpt>
      <trkpt lat="38.94779" lon="-0.49888">
        <time>2019-03-23T11:43:18Z</time>
      </trkpt>
      <trkpt lat="38.94761" lon="-0.49911">
        <time>2019-03-23T11:43:19Z</time>
      </trkpt>
      <trkpt lat="38.94742" lon="-0.49935">
        <time>2019-03-23T11:43:20Z</time>
      </trkpt>
      <trkpt lat="38.94723" lon="-0.49959">
        <time>2019-03-23T11:43:21Z</time>
      </trkpt>
      <trkpt lat="38.94705" lon="-0.49981">
        <time>2019-03-23T11:43:22Z</time>
      </trkpt>
      <trkpt lat="38.94689" lon="-0.50001">
        <time>2019-03-23T11:43:23Z</time>
      </trkpt>
      <trkpt lat="38.94673" lon="-0.50021">
        <time>2019-03-23T11:43:24Z</time>
      </trkpt>
      <trkpt lat="38.94661" lon="-0.50041">
        <time>2019-03-23T11:43:25Z</time>
      </trkpt>
      <trkpt lat="38.9465" lon="-0.50061">
        <time>2019-03-23T11:43:26Z</time>
      </trkpt>
      <trkpt lat="38.9464" lon="-0.50082">
        <time>2019-03-23T11:43:27Z</time>
      </trkpt>
      <trkpt lat="38.94633" lon="-0.50102">
        <time>2019-03-23T11:43:28Z</time>
      </trkpt>
      <trkpt lat="38.94628" lon="-0.5012">
        <time>2019-03-23T11:43:29Z</time>
      </trkpt>
      <trkpt lat="38.94627" lon="-0.50137">
        <time>2019-03-23T11:43:30Z</time>
      </trkpt>
      <trkpt lat="38.94632" lon="-0.50151">
        <time>2019-03-23T11:43:31Z</time>
      </trkpt>
      <trkpt lat="38.94639" lon="-0.50163">
        <time>2019-03-23T11:43:32Z</time>
      </trkpt>
      <trkpt lat="38.9465" lon="-0.50172">
        <time>2019-03-23T11:43:33Z</time>
      </trkpt>
      <trkpt lat="38.94663" lon="-0.50181">
        <time>2019-03-23T11:43:34Z</time>
      </trkpt>
      <trkpt lat="38.94678" lon="-0.50185">
        <time>2019-03-23T11:43:35Z</time>
      </trkpt>
      <trkpt lat="38.94695" lon="-0.50185">
        <time>2019-03-23T11:43:36Z</time>
      </trkpt>
      <trkpt lat="38.94712" lon="-0.50182">
        <time>2019-03-23T11:43:37Z</time>
      </trkpt>
      <trkpt lat="38.94729" lon="-0.50177">
        <time>2019-03-23T11:43:38Z</time>
      </trkpt>
      <trkpt lat="38.94747" lon="-0.50175">
        <time>2019-03-23T11:43:39Z</time>
      </trkpt>
      <trkpt lat="38.94766" lon="-0.50177">
        <time>2019-03-23T11:43:40Z</time>
      </trkpt>
      <trkpt lat="38.94786" lon="-0.50183">
        <time>2019-03-23T11:43:41Z</time>
      </trkpt>
      <trkpt lat="38.94805" lon="-0.50188">
        <time>2019-03-23T11:43:42Z</time>
      </trkpt>
      <trkpt lat="38.94824" lon="-0.50194">
        <time>2019-03-23T11:43:43Z</time>
      </trkpt>
      <trkpt lat="38.9484" lon="-0.50202">
        <time>2019-03-23T11:43:44Z</time>
      </trkpt>
      <trkpt lat="38.94853" lon="-0.50216">
        <time>2019-03-23T11:43:45Z</time>
      </trkpt>
      <trkpt lat="38.94865" lon="-0.50233">
        <time>2019-03-23T11:43:46Z</time>
      </trkpt>
      <trkpt lat="38.94878" lon="-0.50248">
        <time>2019-03-23T11:43:47Z</time>
      </trkpt>
      <trkpt lat="38.9489" lon="-0.50262">
        <time>2019-03-23T11:43:48Z</time>
      </trkpt>
      <trkpt lat="38.94907" lon="-0.50268">
        <time>2019-03-23T11:43:49Z</time>
      </trkpt>
      <trkpt lat="38.94921" lon="-0.50281">
        <time>2019-03-23T11:43:50Z</time>
      </trkpt>
      <trkpt lat="38.94932" lon="-0.503">
        <time>2019-03-23T11:43:51Z</time>
      </trkpt>
      <trkpt lat="38.94943" lon="-0.50321">
        <time>2019-03-23T11:43:52Z</time>
      </trkpt>
      <trkpt lat="38.94953" lon="-0.50344">
        <time>2019-03-23T11:43:53Z</time>
      </trkpt>
      <trkpt lat="38.9496" lon="-0.5037">
        <time>2019-03-23T11:43:54Z</time>
      </trkpt>
      <trkpt lat="38.94967" lon="-0.50397">
        <time>2019-03-23T11:43:55Z</time>
      </trkpt>
      <trkpt lat="38.9497" lon="-0.50424">
        <time>2019-03-23T11:43:56Z</time>
      </trkpt>
      <trkpt lat="38.94971" lon="-0.50447">
        <time>2019-03-23T11:43:57Z</time>
      </trkpt>
      <trkpt lat="38.94969" lon="-0.50469">
        <time>2019-03-23T11:43:58Z</time>
      </trkpt>
      <trkpt lat="38.94963" lon="-0.50488">
        <time>2019-03-23T11:43:59Z</time>
      </trkpt>
      <trkpt lat="38.94962" lon="-0.50508">
        <time>2019-03-23T11:44:00Z</time>
      </trkpt>
      <trkpt lat="38.94965" lon="-0.50526">
        <time>2019-03-23T11:44:01Z</time>
      </trkpt>
      <trkpt lat="38.94973" lon="-0.50549">
        <time>2019-03-23T11:44:02Z</time>
      </trkpt>
      <trkpt lat="38.94981" lon="-0.50572">
        <time>2019-03-23T11:44:03Z</time>
      </trkpt>
      <trkpt lat="38.94988" lon="-0.50592">
        <time>2019-03-23T11:44:04Z</time>
      </trkpt>
      <trkpt lat="38.95" lon="-0.50609">
        <time>2019-03-23T11:44:05Z</time>
      </trkpt>
      <trkpt lat="38.95015" lon="-0.50625">
        <time>2019-03-23T11:44:06Z</time>
      </trkpt>
      <trkpt lat="38.95031" lon="-0.50638">
        <time>2019-03-23T11:44:07Z</time>
      </trkpt>
      <trkpt lat="38.95047" lon="-0.50647">
        <time>2019-03-23T11:44:08Z</time>
      </trkpt>
      <trkpt lat="38.95066" lon="-0.50651">
        <time>2019-03-23T11:44:09Z</time>
      </trkpt>
      <trkpt lat="38.95086" lon="-0.50653">
        <time>2019-03-23T11:44:10Z</time>
      </trkpt>
      <trkpt lat="38.95107" lon="-0.50653">
        <time>2019-03-23T11:44:11Z</time>
      </trkpt>
      <trkpt lat="38.95129" lon="-0.50654">
        <time>2019-03-23T11:44:12Z</time>
      </trkpt>
      <trkpt lat="38.9515" lon="-0.50653">
        <time>2019-03-23T11:44:13Z</time>
      </trkpt>
      <trkpt lat="38.95169" lon="-0.50653">
        <time>2019-03-23T11:44:14Z</time>
      </trkpt>
      <trkpt lat="38.95186" lon="-0.50655">
        <time>2019-03-23T11:44:15Z</time>
      </trkpt>
      <trkpt lat="38.952" lon="-0.5066">
        <time>2019-03-23T11:44:16Z</time>
      </trkpt>
      <trkpt lat="38.95214" lon="-0.50673">
        <time>2019-03-23T11:44:17Z</time>
      </trkpt>
      <trkpt lat="38.95226" lon="-0.50688">
        <time>2019-03-23T11:44:18Z</time>
      </trkpt>
      <trkpt lat="38.95241" lon="-0.50705">
        <time>2019-03-23T11:44:19Z</time>
      </trkpt>
      <trkpt lat="38.95256" lon="-0.50722">
        <time>2019-03-23T11:44:20Z</time>
      </trkpt>
      <trkpt lat="38.95273" lon="-0.5074">
        <time>2019-03-23T11:44:21Z</time>
      </trkpt>
      <trkpt lat="38.95289" lon="-0.50758">
        <time>2019-03-23T11:44:22Z</time>
      </trkpt>
      <trkpt lat="38.95303" lon="-0.50776">
        <time>2019-03-23T11:44:23Z</time>
      </trkpt>
      <trkpt lat="38.95318" lon="-0.50793">
        <time>2019-03-23T11:44:24Z</time>
      </trkpt>
      <trkpt lat="38.95333" lon="-0.50807">
        <time>2019-03-23T11:44:25Z</time>
      </trkpt>
      <trkpt lat="38.95351" lon="-0.50817">
        <time>2019-03-23T11:44:26Z</time>
      </trkpt>
      <trkpt lat="38.95369" lon="-0.50827">
        <time>2019-03-23T11:44:27Z</time>
      </trkpt>
      <trkpt lat="38.95393" lon="-0.50832">
        <time>2019-03-23T11:44:28Z</time>
      </trkpt>
      <trkpt lat="38.95416" lon="-0.50839">
        <time>2019-03-23T11:44:29Z</time>
      </trkpt>
      <trkpt lat="38.9544" lon="-0.50847">
        <time>2019-03-23T11:44:30Z</time>
      </trkpt>
      <trkpt lat="38.95463" lon="-0.50855">
        <time>2019-03-23T11:44:31Z</time>
      </trkpt>
      <trkpt lat="38.95484" lon="-0.50861">
        <time>2019-03-23T11:44:32Z</time>
      </trkpt>
      <trkpt lat="38.95504" lon="-0.50863">
        <time>2019-03-23T11:44:33Z</time>
      </trkpt>
      <trkpt lat="38.95523" lon="-0.50865">
        <time>2019-03-23T11:44:34Z</time>
      </trkpt>
      <trkpt lat="38.95541" lon="-0.50871">
        <time>2019-03-23T11:44:35Z</time>
      </trkpt>
      <trkpt lat="38.95558" lon="-0.5088">
        <time>2019-03-23T11:44:36Z</time>
      </trkpt>
      <trkpt lat="38.95573" lon="-0.50885">
        <time>2019-03-23T11:44:37Z</time>
      </trkpt>
      <trkpt lat="38.95589" lon="-0.50886">
        <time>2019-03-23T11:44:38Z</time>
      </trkpt>
      <trkpt lat="38.95605" lon="-0.5088">
        <time>2019-03-23T11:44:39Z</time>
      </trkpt>
      <trkpt lat="38.95624" lon="-0.50874">
        <time>2019-03-23T11:44:40Z</time>
      </trkpt>
      <trkpt lat="38.95645" lon="-0.50867">
        <time>2019-03-23T11:44:41Z</time>
      </trkpt>
      <trkpt lat="38.95666" lon="-0.50861">
        <time>2019-03-23T11:44:42Z</time>
      </trkpt>
      <trkpt lat="38.95687" lon="-0.50854">
        <time>2019-03-23T11:44:43Z</time>
      </trkpt>
      <trkpt lat="38.95706" lon="-0.5085">
        <time>2019-03-23T11:44:44Z</time>
      </trkpt>
      <trkpt lat="38.95724" lon="-0.50844">
        <time>2019-03-23T11:44:45Z</time>
      </trkpt>
      <trkpt lat="38.95742" lon="-0.50834">
        <time>2019-03-23T11:44:46Z</time>
      </trkpt>
      <trkpt lat="38.95759" lon="-0.50821">
        <time>2019-03-23T11:44:47Z</time>
      </trkpt>
      <trkpt lat="38.95777" lon="-0.50807">
        <time>2019-03-23T11:44:48Z</time>
      </trkpt>
      <trkpt lat="38.95796" lon="-0.50794">
        <time>2019-03-23T11:44:49Z</time>
      </trkpt>
      <trkpt lat="38.95814" lon="-0.5078">
        <time>2019-03-23T11:44:50Z</time>
      </trkpt>
      <trkpt lat="38.95832" lon="-0.50765">
        <time>2019-03-23T11:44:51Z</time>
      </trkpt>
      <trkpt lat="38.95849" lon="-0.5075">
        <time>2019-03-23T11:44:52Z</time>
      </trkpt>
      <trkpt lat="38.95865" lon="-0.50734">
        <time>2019-03-23T11:44:53Z</time>
      </trkpt>
      <trkpt lat="38.95881" lon="-0.50718">
        <time>2019-03-23T11:44:54Z</time>
      </trkpt>
      <trkpt lat="38.95895" lon="-0.507">
        <time>2019-03-23T11:44:55Z</time>
      </trkpt>
      <trkpt lat="38.95906" lon="-0.5068">
        <time>2019-03-23T11:44:56Z</time>
      </trkpt>
      <trkpt lat="38.95916" lon="-0.50655">
        <time>2019-03-23T11:44:57Z</time>
      </trkpt>
      <trkpt lat="38.95927" lon="-0.5063">
        <time>2019-03-23T11:44:58Z</time>
      </trkpt>
      <trkpt lat="38.95938" lon="-0.50604">
        <time>2019-03-23T11:44:59Z</time>
      </trkpt>
      <trkpt lat="38.95949" lon="-0.50579">
        <time>2019-03-23T11:45:00Z</time>
      </trkpt>
      <trkpt lat="38.95957" lon="-0.50554">
        <time>2019-03-23T11:45:01Z</time>
      </trkpt>
      <trkpt lat="38.95962" lon="-0.50528">
        <time>2019-03-23T11:45:02Z</time>
      </trkpt>
      <trkpt lat="38.95964" lon="-0.50499">
        <time>2019-03-23T11:45:03Z</time>
      </trkpt>
      <trkpt lat="38.95967" lon="-0.50472">
        <time>2019-03-23T11:45:04Z</time>
      </trkpt>
      <trkpt lat="38.95969" lon="-0.50445">
        <time>2019-03-23T11:45:05Z</time>
      </trkpt>
      <trkpt lat="38.95971" lon="-0.50419">
        <time>2019-03-23T11:45:06Z</time>
      </trkpt>
      <trkpt lat="38.95978" lon="-0.504">
        <time>2019-03-23T11:45:07Z</time>
      </trkpt>
      <trkpt lat="38.95988" lon="-0.5038">
        <time>2019-03-23T11:45:08Z</time>
      </trkpt>
      <trkpt lat="38.96003" lon="-0.50362">
        <time>2019-03-23T11:45:09Z</time>
      </trkpt>
      <trkpt lat="38.96019" lon="-0.50343">
        <time>2019-03-23T11:45:10Z</time>
      </trkpt>
      <trkpt lat="38.96036" lon="-0.50324">
        <time>2019-03-23T11:45:11Z</time>
      </trkpt>
      <trkpt lat="38.96052" lon="-0.50305">
        <time>2019-03-23T11:45:12Z</time>
      </trkpt>
      <trkpt lat="38.96068" lon="-0.50287">
        <time>2019-03-23T11:45:13Z</time>
      </trkpt>
      <trkpt lat="38.96084" lon="-0.50269">
        <time>2019-03-23T11:45:14Z</time>
      </trkpt>
      <trkpt lat="38.96099" lon="-0.50251">
        <time>2019-03-23T11:45:15Z</time>
      </trkpt>
      <trkpt lat="38.96114" lon="-0.50234">
        <time>2019-03-23T11:45:16Z</time>
      </trkpt>
      <trkpt lat="38.96128" lon="-0.5022">
        <time>2019-03-23T11:45:17Z</time>
      </trkpt>
      <trkpt lat="38.96145" lon="-0.50209">
        <time>2019-03-23T11:45:18Z</time>
      </trkpt>
      <trkpt lat="38.96162" lon="-0.50197">
        <time>2019-03-23T11:45:19Z</time>
      </trkpt>
      <trkpt lat="38.96178" lon="-0.50182">
        <time>2019-03-23T11:45:20Z</time>
      </trkpt>
      <trkpt lat="38.96195" lon="-0.50169">
        <time>2019-03-23T11:45:21Z</time>
      </trkpt>
      <trkpt lat="38.96215" lon="-0.50158">
        <time>2019-03-23T11:45:22Z</time>
      </trkpt>
      <trkpt lat="38.96236" lon="-0.50148">
        <time>2019-03-23T11:45:23Z</time>
      </trkpt>
      <trkpt lat="38.96255" lon="-0.50137">
        <time>2019-03-23T11:45:24Z</time>
      </trkpt>
      <trkpt lat="38.96275" lon="-0.50132">
        <time>2019-03-23T11:45:25Z</time>
      </trkpt>
      <trkpt lat="38.96296" lon="-0.5013">
        <time>2019-03-23T11:45:26Z</time>
      </trkpt>
      <trkpt lat="38.96314" lon="-0.50134">
        <time>2019-03-23T11:45:27Z</time>
      </trkpt>
      <trkpt lat="38.96328" lon="-0.5014">
        <time>2019-03-23T11:45:28Z</time>
      </trkpt>
      <trkpt lat="38.96337" lon="-0.50154">
        <time>2019-03-23T11:45:29Z</time>
      </trkpt>
      <trkpt lat="38.96342" lon="-0.50168">
        <time>2019-03-23T11:45:30Z</time>
      </trkpt>
      <trkpt lat="38.9634" lon="-0.50186">
        <time>2019-03-23T11:45:31Z</time>
      </trkpt>
      <trkpt lat="38.96335" lon="-0.50204">
        <time>2019-03-23T11:45:32Z</time>
      </trkpt>
      <trkpt lat="38.96327" lon="-0.50225">
        <time>2019-03-23T11:45:33Z</time>
      </trkpt>
      <trkpt lat="38.96322" lon="-0.50248">
        <time>2019-03-23T11:45:34Z</time>
      </trkpt>
      <trkpt lat="38.96319" lon="-0.50274">
        <time>2019-03-23T11:45:35Z</time>
      </trkpt>
      <trkpt lat="38.96314" lon="-0.50299">
        <time>2019-03-23T11:45:36Z</time>
      </trkpt>
      <trkpt lat="38.96307" lon="-0.50324">
        <time>2019-03-23T11:45:37Z</time>
      </trkpt>
      <trkpt lat="38.96301" lon="-0.50347">
        <time>2019-03-23T11:45:38Z</time>
      </trkpt>
      <trkpt lat="38.96295" lon="-0.50368">
        <time>2019-03-23T11:45:39Z</time>
      </trkpt>
      <trkpt lat="38.96289" lon="-0.50387">
        <time>2019-03-23T11:45:40Z</time>
      </trkpt>
      <trkpt lat="38.96285" lon="-0.50403">
        <time>2019-03-23T11:45:41Z</time>
      </trkpt>
      <trkpt lat="38.96285" lon="-0.50419">
        <time>2019-03-23T11:45:42Z</time>
      </trkpt>
      <trkpt lat="38.9629" lon="-0.50433">
        <time>2019-03-23T11:45:43Z</time>
      </trkpt>
      <trkpt lat="38.96299" lon="-0.50447">
        <time>2019-03-23T11:45:44Z</time>
      </trkpt>
      <trkpt lat="38.96309" lon="-0.50463">
        <time>2019-03-23T11:45:45Z</time>
      </trkpt>
      <trkpt lat="38.96321" lon="-0.5048">
        <time>2019-03-23T11:45:46Z</time>
      </trkpt>
      <trkpt lat="38.96334" lon="-0.50498">
        <time>2019-03-23T11:45:47Z</time>
      </trkpt>
      <trkpt lat="38.96346" lon="-0.50513">
        <time>2019-03-23T11:45:48Z</time>
      </trkpt>
      <trkpt lat="38.96361" lon="-0.50524">
        <time>2019-03-23T11:45:49Z</time>
      </trkpt>
      <trkpt lat="38.96375" lon="-0.50535">
        <time>2019-03-23T11:45:50Z</time>
      </trkpt>
      <trkpt lat="38.96387" lon="-0.5055">
        <time>2019-03-23T11:45:51Z</time>
      </trkpt>
      <trkpt lat="38.96398" lon="-0.50564">
        <time>2019-03-23T11:45:52Z</time>
      </trkpt>
      <trkpt lat="38.96406" lon="-0.50581">
        <time>2019-03-23T11:45:53Z</time>
      </trkpt>
      <trkpt lat="38.96411" lon="-0.50601">
        <time>2019-03-23T11:45:54Z</time>
      </trkpt>
      <trkpt lat="38.96411" lon="-0.50624">
        <time>2019-03-23T11:45:55Z</time>
      </trkpt>
      <trkpt lat="38.96411" lon="-0.50648">
        <time>2019-03-23T11:45:56Z</time>
      </trkpt>
      <trkpt lat="38.96409" lon="-0.50675">
        <time>2019-03-23T11:45:57Z</time>
      </trkpt>
      <trkpt lat="38.96405" lon="-0.50702">
        <time>2019-03-23T11:45:58Z</time>
      </trkpt>
      <trkpt lat="38.96401" lon="-0.50729">
        <time>2019-03-23T11:45:59Z</time>
      </trkpt>
      <trkpt lat="38.96397" lon="-0.50756">
        <time>2019-03-23T11:46:00Z</time>
      </trkpt>
      <trkpt lat="38.96392" lon="-0.50783">
        <time>2019-03-23T11:46:01Z</time>
      </trkpt>
      <trkpt lat="38.96387" lon="-0.50808">
        <time>2019-03-23T11:46:02Z</time>
      </trkpt>
      <trkpt lat="38.96381" lon="-0.50832">
        <time>2019-03-23T11:46:03Z</time>
      </trkpt>
      <trkpt lat="38.96374" lon="-0.50856">
        <time>2019-03-23T11:46:04Z</time>
      </trkpt>
      <trkpt lat="38.96367" lon="-0.50879">
        <time>2019-03-23T11:46:05Z</time>
      </trkpt>
      <trkpt lat="38.9636" lon="-0.50902">
        <time>2019-03-23T11:46:06Z</time>
      </trkpt>
      <trkpt lat="38.96354" lon="-0.50924">
        <time>2019-03-23T11:46:07Z</time>
      </trkpt>
      <trkpt lat="38.96348" lon="-0.50947">
        <time>2019-03-23T11:46:08Z</time>
      </trkpt>
      <trkpt lat="38.96344" lon="-0.50972">
        <time>2019-03-23T11:46:09Z</time>
      </trkpt>
      <trkpt lat="38.9634" lon="-0.50996">
        <time>2019-03-23T11:46:10Z</time>
      </trkpt>
      <trkpt lat="38.96337" lon="-0.51021">
        <time>2019-03-23T11:46:11Z</time>
      </trkpt>
      <trkpt lat="38.96334" lon="-0.51046">
        <time>2019-03-23T11:46:12Z</time>
      </trkpt>
      <trkpt lat="38.96332" lon="-0.51069">
        <time>2019-03-23T11:46:13Z</time>
      </trkpt>
      <trkpt lat="38.9633" lon="-0.51091">
        <time>2019-03-23T11:46:14Z</time>
      </trkpt>
      <trkpt lat="38.96328" lon="-0.51108">
        <time>2019-03-23T11:46:15Z</time>
      </trkpt>
      <trkpt lat="38.96329" lon="-0.51123">
        <time>2019-03-23T11:46:16Z</time>
      </trkpt>
      <trkpt lat="38.96335" lon="-0.51136">
        <time>2019-03-23T11:46:17Z</time>
      </trkpt>
      <trkpt lat="38.96346" lon="-0.51144">
        <time>2019-03-23T11:46:18Z</time>
      </trkpt>
      <trkpt lat="38.96359" lon="-0.51148">
        <time>2019-03-23T11:46:19Z</time>
      </trkpt>
      <trkpt lat="38.96374" lon="-0.5115">
        <time>2019-03-23T11:46:20Z</time>
      </trkpt>
      <trkpt lat="38.96391" lon="-0.5115">
        <time>2019-03-23T11:46:21Z</time>
      </trkpt>
      <trkpt lat="38.96408" lon="-0.5115">
        <time>2019-03-23T11:46:22Z</time>
      </trkpt>
      <trkpt lat="38.96427" lon="-0.5115">
        <time>2019-03-23T11:46:23Z</time>
      </trkpt>
      <trkpt lat="38.96445" lon="-0.51149">
        <time>2019-03-23T11:46:24Z</time>
      </trkpt>
      <trkpt lat="38.96463" lon="-0.5115">
        <time>2019-03-23T11:46:25Z</time>
      </trkpt>
      <trkpt lat="38.96481" lon="-0.5115">
        <time>2019-03-23T11:46:26Z</time>
      </trkpt>
      <trkpt lat="38.96497" lon="-0.51151">
        <time>2019-03-23T11:46:27Z</time>
      </trkpt>
      <trkpt lat="38.96512" lon="-0.51152">
        <time>2019-03-23T11:46:28Z</time>
      </trkpt>
      <trkpt lat="38.96527" lon="-0.51151">
        <time>2019-03-23T11:46:29Z</time>
      </trkpt>
      <trkpt lat="38.96544" lon="-0.51146">
        <time>2019-03-23T11:46:30Z</time>
      </trkpt>
      <trkpt lat="38.96559" lon="-0.51138">
        <time>2019-03-23T11:46:31Z</time>
      </trkpt>
      <trkpt lat="38.96573" lon="-0.51131">
        <time>2019-03-23T11:46:32Z</time>
      </trkpt>
      <trkpt lat="38.96585" lon="-0.51123">
        <time>2019-03-23T11:46:33Z</time>
      </trkpt>
      <trkpt lat="38.96596" lon="-0.51118">
        <time>2019-03-23T11:46:34Z</time>
      </trkpt>
      <trkpt lat="38.96606" lon="-0.51114">
        <time>2019-03-23T11:46:35Z</time>
      </trkpt>
      <trkpt lat="38.96616" lon="-0.51112">
        <time>2019-03-23T11:46:36Z</time>
      </trkpt>
      <trkpt lat="38.96626" lon="-0.51113">
        <time>2019-03-23T11:46:37Z</time>
      </trkpt>
      <trkpt lat="38.96638" lon="-0.51118">
        <time>2019-03-23T11:46:38Z</time>
      </trkpt>
      <trkpt lat="38.96651" lon="-0.51126">
        <time>2019-03-23T11:46:39Z</time>
      </trkpt>
      <trkpt lat="38.96664" lon="-0.51136">
        <time>2019-03-23T11:46:40Z</time>
      </trkpt>
      <trkpt lat="38.96676" lon="-0.5115">
        <time>2019-03-23T11:46:41Z</time>
      </trkpt>
      <trkpt lat="38.96687" lon="-0.51166">
        <time>2019-03-23T11:46:42Z</time>
      </trkpt>
      <trkpt lat="38.96696" lon="-0.51185">
        <time>2019-03-23T11:46:43Z</time>
      </trkpt>
      <trkpt lat="38.96706" lon="-0.51202">
        <time>2019-03-23T11:46:44Z</time>
      </trkpt>
      <trkpt lat="38.96717" lon="-0.51212">
        <time>2019-03-23T11:46:45Z</time>
      </trkpt>
      <trkpt lat="38.96729" lon="-0.5122">
        <time>2019-03-23T11:46:46Z</time>
      </trkpt>
      <trkpt lat="38.96744" lon="-0.51223">
        <time>2019-03-23T11:46:47Z</time>
      </trkpt>
      <trkpt lat="38.96759" lon="-0.51221">
        <time>2019-03-23T11:46:48Z</time>
      </trkpt>
      <trkpt lat="38.96775" lon="-0.51214">
        <time>2019-03-23T11:46:49Z</time>
      </trkpt>
      <trkpt lat="38.96789" lon="-0.51209">
        <time>2019-03-23T11:46:50Z</time>
      </trkpt>
      <trkpt lat="38.96802" lon="-0.51204">
        <time>2019-03-23T11:46:51Z</time>
      </trkpt>
      <trkpt lat="38.96814" lon="-0.51199">
        <time>2019-03-23T11:46:52Z</time>
      </trkpt>
      <trkpt lat="38.96824" lon="-0.51196">
        <time>2019-03-23T11:46:53Z</time>
      </trkpt>
      <trkpt lat="38.96835" lon="-0.51192">
        <time>2019-03-23T11:46:54Z</time>
      </trkpt>
      <trkpt lat="38.96847" lon="-0.51189">
        <time>2019-03-23T11:46:55Z</time>
      </trkpt>
      <trkpt lat="38.96857" lon="-0.51191">
        <time>2019-03-23T11:46:56Z</time>
      </trkpt>
      <trkpt lat="38.96865" lon="-0.51198">
        <time>2019-03-23T11:46:57Z</time>
      </trkpt>
      <trkpt lat="38.9687" lon="-0.51209">
        <time>2019-03-23T11:46:58Z</time>
      </trkpt>
      <trkpt lat="38.96872" lon="-0.51221">
        <time>2019-03-23T11:46:59Z</time>
      </trkpt>
      <trkpt lat="38.96874" lon="-0.51231">
        <time>2019-03-23T11:47:00Z</time>
      </trkpt>
      <trkpt lat="38.96876" lon="-0.51244">
        <time>2019-03-23T11:47:01Z</time>
      </trkpt>
      <trkpt lat="38.96878" lon="-0.51257">
        <time>2019-03-23T11:47:02Z</time>
      </trkpt>
      <trkpt lat="38.9688" lon="-0.51272">
        <time>2019-03-23T11:47:03Z</time>
      </trkpt>
      <trkpt lat="38.96884" lon="-0.51288">
        <time>2019-03-23T11:47:04Z</time>
      </trkpt>
      <trkpt lat="38.96891" lon="-0.51306">
        <time>2019-03-23T11:47:05Z</time>
      </trkpt>
      <trkpt lat="38.96899" lon="-0.51323">
        <time>2019-03-23T11:47:06Z</time>
      </trkpt>
      <trkpt lat="38.9691" lon="-0.51341">
        <time>2019-03-23T11:47:07Z</time>
      </trkpt>
      <trkpt lat="38.9692" lon="-0.51361">
        <time>2019-03-23T11:47:08Z</time>
      </trkpt>
      <trkpt lat="38.96931" lon="-0.5138">
        <time>2019-03-23T11:47:09Z</time>
      </trkpt>
      <trkpt lat="38.96941" lon="-0.51399">
        <time>2019-03-23T11:47:10Z</time>
      </trkpt>
      <trkpt lat="38.96952" lon="-0.51419">
        <time>2019-03-23T11:47:11Z</time>
      </trkpt>
      <trkpt lat="38.96963" lon="-0.51439">
        <time>2019-03-23T11:47:12Z</time>
      </trkpt>
      <trkpt lat="38.96974" lon="-0.51459">
        <time>2019-03-23T11:47:13Z</time>
      </trkpt>
      <trkpt lat="38.96985" lon="-0.51481">
        <time>2019-03-23T11:47:14Z</time>
      </trkpt>
      <trkpt lat="38.96996" lon="-0.51502">
        <time>2019-03-23T11:47:15Z</time>
      </trkpt>
      <trkpt lat="38.97007" lon="-0.51523">
        <time>2019-03-23T11:47:16Z</time>
      </trkpt>
      <trkpt lat="38.97016" lon="-0.51542">
        <time>2019-03-23T11:47:17Z</time>
      </trkpt>
      <trkpt lat="38.97024" lon="-0.51562">
        <time>2019-03-23T11:47:18Z</time>
      </trkpt>
      <trkpt lat="38.9703" lon="-0.5158">
        <time>2019-03-23T11:47:19Z</time>
      </trkpt>
      <trkpt lat="38.97037" lon="-0.51597">
        <time>2019-03-23T11:47:20Z</time>
      </trkpt>
      <trkpt lat="38.97044" lon="-0.51612">
        <time>2019-03-23T11:47:21Z</time>
      </trkpt>
      <trkpt lat="38.97053" lon="-0.51626">
        <time>2019-03-23T11:47:22Z</time>
      </trkpt>
      <trkpt lat="38.97066" lon="-0.51634">
        <time>2019-03-23T11:47:23Z</time>
      </trkpt>
      <trkpt lat="38.97079" lon="-0.51642">
        <time>2019-03-23T11:47:24Z</time>
      </trkpt>
      <trkpt lat="38.97093" lon="-0.51646">
        <time>2019-03-23T11:47:25Z</time>
      </trkpt>
      <trkpt lat="38.97107" lon="-0.51653">
        <time>2019-03-23T11:47:26Z</time>
      </trkpt>
      <trkpt lat="38.97123" lon="-0.51658">
        <time>2019-03-23T11:47:27Z</time>
      </trkpt>
      <trkpt lat="38.97139" lon="-0.51664">
        <time>2019-03-23T11:47:28Z</time>
      </trkpt>
      <trkpt lat="38.97156" lon="-0.5167">
        <time>2019-03-23T11:47:29Z</time>
      </trkpt>
      <trkpt lat="38.97173" lon="-0.51676">
        <time>2019-03-23T11:47:30Z</time>
      </trkpt>
      <trkpt lat="38.97191" lon="-0.51684">
        <time>2019-03-23T11:47:31Z</time>
      </trkpt>
      <trkpt lat="38.9721" lon="-0.51692">
        <time>2019-03-23T11:47:32Z</time>
      </trkpt>
      <trkpt lat="38.9723" lon="-0.517">
        <time>2019-03-23T11:47:33Z</time>
      </trkpt>
      <trkpt lat="38.97249" lon="-0.51708">
        <time>2019-03-23T11:47:34Z</time>
      </trkpt>
      <trkpt lat="38.97267" lon="-0.51716">
        <time>2019-03-23T11:47:35Z</time>
      </trkpt>
      <trkpt lat="38.97284" lon="-0.51725">
        <time>2019-03-23T11:47:36Z</time>
      </trkpt>
      <trkpt lat="38.97301" lon="-0.51733">
        <time>2019-03-23T11:47:37Z</time>
      </trkpt>
      <trkpt lat="38.97316" lon="-0.51742">
        <time>2019-03-23T11:47:38Z</time>
      </trkpt>
      <trkpt lat="38.97331" lon="-0.5175">
        <time>2019-03-23T11:47:39Z</time>
      </trkpt>
      <trkpt lat="38.97345" lon="-0.51758">
        <time>2019-03-23T11:47:40Z</time>
      </trkpt>
      <trkpt lat="38.97358" lon="-0.51765">
        <time>2019-03-23T11:47:41Z</time>
      </trkpt>
      <trkpt lat="38.97371" lon="-0.51772">
        <time>2019-03-23T11:47:42Z</time>
      </trkpt>
      <trkpt lat="38.97383" lon="-0.51778">
        <time>2019-03-23T11:47:43Z</time>
      </trkpt>
      <trkpt lat="38.97394" lon="-0.51784">
        <time>2019-03-23T11:47:44Z</time>
      </trkpt>
      <trkpt lat="38.97406" lon="-0.51787">
        <time>2019-03-23T11:47:45Z</time>
      </trkpt>
      <trkpt lat="38.9742" lon="-0.51789">
        <time>2019-03-23T11:47:46Z</time>
      </trkpt>
      <trkpt lat="38.97437" lon="-0.51788">
        <time>2019-03-23T11:47:47Z</time>
      </trkpt>
      <trkpt lat="38.97457" lon="-0.51785">
        <time>2019-03-23T11:47:48Z</time>
      </trkpt>
      <trkpt lat="38.97477" lon="-0.51781">
        <time>2019-03-23T11:47:49Z</time>
      </trkpt>
      <trkpt lat="38.97496" lon="-0.51779">
        <time>2019-03-23T11:47:50Z</time>
      </trkpt>
      <trkpt lat="38.97516" lon="-0.51777">
        <time>2019-03-23T11:47:51Z</time>
      </trkpt>
      <trkpt lat="38.97536" lon="-0.51774">
        <time>2019-03-23T11:47:52Z</time>
      </trkpt>
      <trkpt lat="38.97555" lon="-0.51771">
        <time>2019-03-23T11:47:53Z</time>
      </trkpt>
      <trkpt lat="38.97574" lon="-0.51768">
        <time>2019-03-23T11:47:54Z</time>
      </trkpt>
      <trkpt lat="38.97593" lon="-0.51766">
        <time>2019-03-23T11:47:55Z</time>
      </trkpt>
      <trkpt lat="38.97612" lon="-0.51763">
        <time>2019-03-23T11:47:56Z</time>
      </trkpt>
      <trkpt lat="38.9763" lon="-0.51761">
        <time>2019-03-23T11:47:57Z</time>
      </trkpt>
      <trkpt lat="38.97647" lon="-0.51757">
        <time>2019-03-23T11:47:58Z</time>
      </trkpt>
      <trkpt lat="38.97665" lon="-0.51751">
        <time>2019-03-23T11:47:59Z</time>
      </trkpt>
      <trkpt lat="38.97683" lon="-0.51743">
        <time>2019-03-23T11:48:00Z</time>
      </trkpt>
      <trkpt lat="38.97701" lon="-0.51735">
        <time>2019-03-23T11:48:01Z</time>
      </trkpt>
      <trkpt lat="38.97717" lon="-0.51729">
        <time>2019-03-23T11:48:02Z</time>
      </trkpt>
      <trkpt lat="38.97732" lon="-0.5172">
        <time>2019-03-23T11:48:03Z</time>
      </trkpt>
      <trkpt lat="38.97745" lon="-0.5171">
        <time>2019-03-23T11:48:04Z</time>
      </trkpt>
      <trkpt lat="38.97753" lon="-0.51694">
        <time>2019-03-23T11:48:05Z</time>
      </trkpt>
      <trkpt lat="38.9776" lon="-0.51676">
        <time>2019-03-23T11:48:06Z</time>
      </trkpt>
      <trkpt lat="38.97767" lon="-0.51656">
        <time>2019-03-23T11:48:07Z</time>
      </trkpt>
      <trkpt lat="38.97774" lon="-0.51635">
        <time>2019-03-23T11:48:08Z</time>
      </trkpt>
      <trkpt lat="38.97779" lon="-0.5161">
        <time>2019-03-23T11:48:09Z</time>
      </trkpt>
      <trkpt lat="38.97784" lon="-0.51587">
        <time>2019-03-23T11:48:10Z</time>
      </trkpt>
      <trkpt lat="38.97788" lon="-0.51562">
        <time>2019-03-23T11:48:11Z</time>
      </trkpt>
      <trkpt lat="38.97793" lon="-0.51537">
        <time>2019-03-23T11:48:12Z</time>
      </trkpt>
      <trkpt lat="38.97797" lon="-0.51512">
        <time>2019-03-23T11:48:13Z</time>
      </trkpt>
      <trkpt lat="38.97802" lon="-0.51488">
        <time>2019-03-23T11:48:14Z</time>
      </trkpt>
      <trkpt lat="38.97807" lon="-0.51464">
        <time>2019-03-23T11:48:15Z</time>
      </trkpt>
      <trkpt lat="38.97811" lon="-0.5144">
        <time>2019-03-23T11:48:16Z</time>
      </trkpt>
      <trkpt lat="38.97814" lon="-0.51417">
        <time>2019-03-23T11:48:17Z</time>
      </trkpt>
      <trkpt lat="38.97818" lon="-0.51394">
        <time>2019-03-23T11:48:18Z</time>
      </trkpt>
      <trkpt lat="38.97823" lon="-0.51371">
        <time>2019-03-23T11:48:19Z</time>
      </trkpt>
      <trkpt lat="38.97829" lon="-0.51349">
        <time>2019-03-23T11:48:20Z</time>
      </trkpt>
      <trkpt lat="38.97837" lon="-0.51329">
        <time>2019-03-23T11:48:21Z</time>
      </trkpt>
      <trkpt lat="38.97845" lon="-0.51309">
        <time>2019-03-23T11:48:22Z</time>
      </trkpt>
      <trkpt lat="38.97855" lon="-0.51289">
        <time>2019-03-23T11:48:23Z</time>
      </trkpt>
      <trkpt lat="38.97864" lon="-0.5127">
        <time>2019-03-23T11:48:24Z</time>
      </trkpt>
      <trkpt lat="38.97874" lon="-0.51251">
        <time>2019-03-23T11:48:25Z</time>
      </trkpt>
      <trkpt lat="38.97883" lon="-0.51232">
        <time>2019-03-23T11:48:26Z</time>
      </trkpt>
      <trkpt lat="38.97893" lon="-0.51212">
        <time>2019-03-23T11:48:27Z</time>
      </trkpt>
      <trkpt lat="38.97902" lon="-0.51193">
        <time>2019-03-23T11:48:28Z</time>
      </trkpt>
      <trkpt lat="38.97912" lon="-0.51172">
        <time>2019-03-23T11:48:29Z</time>
      </trkpt>
      <trkpt lat="38.97921" lon="-0.51153">
        <time>2019-03-23T11:48:30Z</time>
      </trkpt>
      <trkpt lat="38.97929" lon="-0.51136">
        <time>2019-03-23T11:48:31Z</time>
      </trkpt>
      <trkpt lat="38.97935" lon="-0.51116">
        <time>2019-03-23T11:48:32Z</time>
      </trkpt>
      <trkpt lat="38.97936" lon="-0.51095">
        <time>2019-03-23T11:48:33Z</time>
      </trkpt>
      <trkpt lat="38.97934" lon="-0.51074">
        <time>2019-03-23T11:48:34Z</time>
      </trkpt>
      <trkpt lat="38.97932" lon="-0.51053">
        <time>2019-03-23T11:48:35Z</time>
      </trkpt>
      <trkpt lat="38.9793" lon="-0.5103">
        <time>2019-03-23T11:48:36Z</time>
      </trkpt>
      <trkpt lat="38.97928" lon="-0.51008">
        <time>2019-03-23T11:48:37Z</time>
      </trkpt>
      <trkpt lat="38.97926" lon="-0.50987">
        <time>2019-03-23T11:48:38Z</time>
      </trkpt>
      <trkpt lat="38.97924" lon="-0.50966">
        <time>2019-03-23T11:48:39Z</time>
      </trkpt>
      <trkpt lat="38.97922" lon="-0.50946">
        <time>2019-03-23T11:48:40Z</time>
      </trkpt>
      <trkpt lat="38.97921" lon="-0.50928">
        <time>2019-03-23T11:48:41Z</time>
      </trkpt>
      <trkpt lat="38.97919" lon="-0.5091">
        <time>2019-03-23T11:48:42Z</time>
      </trkpt>
      <trkpt lat="38.97919" lon="-0.50892">
        <time>2019-03-23T11:48:43Z</time>
      </trkpt>
      <trkpt lat="38.97921" lon="-0.50873">
        <time>2019-03-23T11:48:44Z</time>
      </trkpt>
      <trkpt lat="38.97928" lon="-0.50854">
        <time>2019-03-23T11:48:45Z</time>
      </trkpt>
      <trkpt lat="38.97937" lon="-0.50836">
        <time>2019-03-23T11:48:46Z</time>
      </trkpt>
      <trkpt lat="38.97949" lon="-0.5082">
        <time>2019-03-23T11:48:47Z</time>
      </trkpt>
      <trkpt lat="38.97962" lon="-0.50804">
        <time>2019-03-23T11:48:48Z</time>
      </trkpt>
      <trkpt lat="38.97977" lon="-0.50791">
        <time>2019-03-23T11:48:49Z</time>
      </trkpt>
      <trkpt lat="38.97993" lon="-0.5078">
        <time>2019-03-23T11:48:50Z</time>
      </trkpt>
      <trkpt lat="38.98009" lon="-0.50771">
        <time>2019-03-23T11:48:51Z</time>
      </trkpt>
      <trkpt lat="38.98024" lon="-0.5076">
        <time>2019-03-23T11:48:52Z</time>
      </trkpt>
      <trkpt lat="38.98039" lon="-0.5075">
        <time>2019-03-23T11:48:53Z</time>
      </trkpt>
      <trkpt lat="38.98055" lon="-0.5074">
        <time>2019-03-23T11:48:54Z</time>
      </trkpt>
      <trkpt lat="38.9807" lon="-0.5073">
        <time>2019-03-23T11:48:55Z</time>
      </trkpt>
      <trkpt lat="38.98086" lon="-0.5072">
        <time>2019-03-23T11:48:56Z</time>
      </trkpt>
      <trkpt lat="38.98102" lon="-0.5071">
        <time>2019-03-23T11:48:57Z</time>
      </trkpt>
      <trkpt lat="38.98118" lon="-0.507">
        <time>2019-03-23T11:48:58Z</time>
      </trkpt>
      <trkpt lat="38.98132" lon="-0.50691">
        <time>2019-03-23T11:48:59Z</time>
      </trkpt>
      <trkpt lat="38.98145" lon="-0.5068">
        <time>2019-03-23T11:49:00Z</time>
      </trkpt>
      <trkpt lat="38.98156" lon="-0.50667">
        <time>2019-03-23T11:49:01Z</time>
      </trkpt>
      <trkpt lat="38.98163" lon="-0.50653">
        <time>2019-03-23T11:49:02Z</time>
      </trkpt>
      <trkpt lat="38.98168" lon="-0.50639">
        <time>2019-03-23T11:49:03Z</time>
      </trkpt>
      <trkpt lat="38.98166" lon="-0.50625">
        <time>2019-03-23T11:49:04Z</time>
      </trkpt>
      <trkpt lat="38.9816" lon="-0.50612">
        <time>2019-03-23T11:49:05Z</time>
      </trkpt>
      <trkpt lat="38.98153" lon="-0.50602">
        <time>2019-03-23T11:49:06Z</time>
      </trkpt>
      <trkpt lat="38.98142" lon="-0.50595">
        <time>2019-03-23T11:49:07Z</time>
      </trkpt>
      <trkpt lat="38.98132" lon="-0.50587">
        <time>2019-03-23T11:49:08Z</time>
      </trkpt>
      <trkpt lat="38.98121" lon="-0.50581">
        <time>2019-03-23T11:49:09Z</time>
      </trkpt>
      <trkpt lat="38.98111" lon="-0.50574">
        <time>2019-03-23T11:49:10Z</time>
      </trkpt>
      <trkpt lat="38.98101" lon="-0.50566">
        <time>2019-03-23T11:49:11Z</time>
      </trkpt>
      <trkpt lat="38.98092" lon="-0.50557">
        <time>2019-03-23T11:49:12Z</time>
      </trkpt>
      <trkpt lat="38.98084" lon="-0.50545">
        <time>2019-03-23T11:49:13Z</time>
      </trkpt>
      <trkpt lat="38.98076" lon="-0.50533">
        <time>2019-03-23T11:49:14Z</time>
      </trkpt>
      <trkpt lat="38.9807" lon="-0.50519">
        <time>2019-03-23T11:49:15Z</time>
      </trkpt>
      <trkpt lat="38.98064" lon="-0.50503">
        <time>2019-03-23T11:49:16Z</time>
      </trkpt>
      <trkpt lat="38.98061" lon="-0.50486">
        <time>2019-03-23T11:49:17Z</time>
      </trkpt>
      <trkpt lat="38.98059" lon="-0.5047">
        <time>2019-03-23T11:49:18Z</time>
      </trkpt>
      <trkpt lat="38.98061" lon="-0.50453">
        <time>2019-03-23T11:49:19Z</time>
      </trkpt>
      <trkpt lat="38.98064" lon="-0.50438">
        <time>2019-03-23T11:49:20Z</time>
      </trkpt>
      <trkpt lat="38.98068" lon="-0.50422">
        <time>2019-03-23T11:49:21Z</time>
      </trkpt>
      <trkpt lat="38.98071" lon="-0.50408">
        <time>2019-03-23T11:49:22Z</time>
      </trkpt>
      <trkpt lat="38.98074" lon="-0.50394">
        <time>2019-03-23T11:49:23Z</time>
      </trkpt>
      <trkpt lat="38.98077" lon="-0.50382">
        <time>2019-03-23T11:49:24Z</time>
      </trkpt>
      <trkpt lat="38.9808" lon="-0.50371">
        <time>2019-03-23T11:49:25Z</time>
      </trkpt>
      <trkpt lat="38.98085" lon="-0.50363">
        <time>2019-03-23T11:49:26Z</time>
      </trkpt>
      <trkpt lat="38.98087" lon="-0.50357">
        <time>2019-03-23T11:49:27Z</time>
      </trkpt>
      <trkpt lat="38.98088" lon="-0.50352">
        <time>2019-03-23T11:49:28Z</time>
      </trkpt>
      <trkpt lat="38.98087" lon="-0.50348">
        <time>2019-03-23T11:49:29Z</time>
      </trkpt>
      <trkpt lat="38.98085" lon="-0.50346">
        <time>2019-03-23T11:49:30Z</time>
      </trkpt>
      <trkpt lat="38.98083" lon="-0.50343">
        <time>2019-03-23T11:49:31Z</time>
      </trkpt>
      <trkpt lat="38.98081" lon="-0.50342">
        <time>2019-03-23T11:49:32Z</time>
      </trkpt>
      <trkpt lat="38.9808" lon="-0.50344">
        <time>2019-03-23T11:50:42Z</time>
      </trkpt>
      <trkpt lat="38.98075" lon="-0.50336">
        <time>2019-03-23T11:50:43Z</time>
      </trkpt>
      <trkpt lat="38.98072" lon="-0.5033">
        <time>2019-03-23T11:50:44Z</time>
      </trkpt>
      <trkpt lat="38.98066" lon="-0.50326">
        <time>2019-03-23T11:50:45Z</time>
      </trkpt>
      <trkpt lat="38.98058" lon="-0.50319">
        <time>2019-03-23T11:50:46Z</time>
      </trkpt>
      <trkpt lat="38.98051" lon="-0.50311">
        <time>2019-03-23T11:50:47Z</time>
      </trkpt>
      <trkpt lat="38.98044" lon="-0.50301">
        <time>2019-03-23T11:50:48Z</time>
      </trkpt>
      <trkpt lat="38.98037" lon="-0.50292">
        <time>2019-03-23T11:50:49Z</time>
      </trkpt>
      <trkpt lat="38.98032" lon="-0.50281">
        <time>2019-03-23T11:50:50Z</time>
      </trkpt>
      <trkpt lat="38.98028" lon="-0.5027">
        <time>2019-03-23T11:50:51Z</time>
      </trkpt>
      <trkpt lat="38.98024" lon="-0.50258">
        <time>2019-03-23T11:50:52Z</time>
      </trkpt>
      <trkpt lat="38.9802" lon="-0.50246">
        <time>2019-03-23T11:50:53Z</time>
      </trkpt>
      <trkpt lat="38.98016" lon="-0.50235">
        <time>2019-03-23T11:50:54Z</time>
      </trkpt>
      <trkpt lat="38.98011" lon="-0.50225">
        <time>2019-03-23T11:50:55Z</time>
      </trkpt>
      <trkpt lat="38.98004" lon="-0.50216">
        <time>2019-03-23T11:50:56Z</time>
      </trkpt>
      <trkpt lat="38.97995" lon="-0.50209">
        <time>2019-03-23T11:50:57Z</time>
      </trkpt>
      <trkpt lat="38.97987" lon="-0.50201">
        <time>2019-03-23T11:50:58Z</time>
      </trkpt>
      <trkpt lat="38.9798" lon="-0.50194">
        <time>2019-03-23T11:50:59Z</time>
      </trkpt>
      <trkpt lat="38.97974" lon="-0.50188">
        <time>2019-03-23T11:51:00Z</time>
      </trkpt>
      <trkpt lat="38.97968" lon="-0.50182">
        <time>2019-03-23T11:51:01Z</time>
      </trkpt>
      <trkpt lat="38.97962" lon="-0.50176">
        <time>2019-03-23T11:51:02Z</time>
      </trkpt>
      <trkpt lat="38.97952" lon="-0.50167">
        <time>2019-03-23T11:51:03Z</time>
      </trkpt>
      <trkpt lat="38.97944" lon="-0.50161">
        <time>2019-03-23T11:51:04Z</time>
      </trkpt>
      <trkpt lat="38.97935" lon="-0.50151">
        <time>2019-03-23T11:51:05Z</time>
      </trkpt>
      <trkpt lat="38.97925" lon="-0.50143">
        <time>2019-03-23T11:51:06Z</time>
      </trkpt>
      <trkpt lat="38.97917" lon="-0.50134">
        <time>2019-03-23T11:51:07Z</time>
      </trkpt>
      <trkpt lat="38.97908" lon="-0.50125">
        <time>2019-03-23T11:51:08Z</time>
      </trkpt>
      <trkpt lat="38.97901" lon="-0.50117">
        <time>2019-03-23T11:51:09Z</time>
      </trkpt>
      <trkpt lat="38.97894" lon="-0.50109">
        <time>2019-03-23T11:51:10Z</time>
      </trkpt>
      <trkpt lat="38.97888" lon="-0.50102">
        <time>2019-03-23T11:51:11Z</time>
      </trkpt>
      <trkpt lat="38.97884" lon="-0.50097">
        <time>2019-03-23T11:51:12Z</time>
      </trkpt>
      <trkpt lat="38.97883" lon="-0.5009">
        <time>2019-03-23T11:51:13Z</time>
      </trkpt>
      <trkpt lat="38.97881" lon="-0.50081">
        <time>2019-03-23T11:51:14Z</time>
      </trkpt>
      <trkpt lat="38.97879" lon="-0.5007">
        <time>2019-03-23T11:51:15Z</time>
      </trkpt>
      <trkpt lat="38.97876" lon="-0.50057">
        <time>2019-03-23T11:51:16Z</time>
      </trkpt>
      <trkpt lat="38.97873" lon="-0.50044">
        <time>2019-03-23T11:51:17Z</time>
      </trkpt>
      <trkpt lat="38.97869" lon="-0.50029">
        <time>2019-03-23T11:51:18Z</time>
      </trkpt>
      <trkpt lat="38.97867" lon="-0.50014">
        <time>2019-03-23T11:51:19Z</time>
      </trkpt>
      <trkpt lat="38.97865" lon="-0.5">
        <time>2019-03-23T11:51:20Z</time>
      </trkpt>
      <trkpt lat="38.97863" lon="-0.49986">
        <time>2019-03-23T11:51:21Z</time>
      </trkpt>
      <trkpt lat="38.9786" lon="-0.49973">
        <time>2019-03-23T11:51:22Z</time>
      </trkpt>
      <trkpt lat="38.97858" lon="-0.4996">
        <time>2019-03-23T11:51:23Z</time>
      </trkpt>
      <trkpt lat="38.97855" lon="-0.49946">
        <time>2019-03-23T11:51:24Z</time>
      </trkpt>
      <trkpt lat="38.97851" lon="-0.49932">
        <time>2019-03-23T11:51:25Z</time>
      </trkpt>
      <trkpt lat="38.97849" lon="-0.49921">
        <time>2019-03-23T11:51:26Z</time>
      </trkpt>
      <trkpt lat="38.97846" lon="-0.49909">
        <time>2019-03-23T11:51:27Z</time>
      </trkpt>
      <trkpt lat="38.97844" lon="-0.49898">
        <time>2019-03-23T11:51:28Z</time>
      </trkpt>
      <trkpt lat="38.97842" lon="-0.49887">
        <time>2019-03-23T11:51:29Z</time>
      </trkpt>
      <trkpt lat="38.97841" lon="-0.49874">
        <time>2019-03-23T11:51:30Z</time>
      </trkpt>
      <trkpt lat="38.97839" lon="-0.49864">
        <time>2019-03-23T11:51:31Z</time>
      </trkpt>
      <trkpt lat="38.97837" lon="-0.49856">
        <time>2019-03-23T11:51:32Z</time>
      </trkpt>
      <trkpt lat="38.97833" lon="-0.49848">
        <time>2019-03-23T11:51:33Z</time>
      </trkpt>
      <trkpt lat="38.97829" lon="-0.49841">
        <time>2019-03-23T11:51:34Z</time>
      </trkpt>
      <trkpt lat="38.97825" lon="-0.49834">
        <time>2019-03-23T11:51:35Z</time>
      </trkpt>
      <trkpt lat="38.9782" lon="-0.49826">
        <time>2019-03-23T11:51:36Z</time>
      </trkpt>
      <trkpt lat="38.97813" lon="-0.4982">
        <time>2019-03-23T11:51:37Z</time>
      </trkpt>
      <trkpt lat="38.97805" lon="-0.49813">
        <time>2019-03-23T11:51:38Z</time>
      </trkpt>
      <trkpt lat="38.97796" lon="-0.49807">
        <time>2019-03-23T11:51:39Z</time>
      </trkpt>
      <trkpt lat="38.97787" lon="-0.49802">
        <time>2019-03-23T11:51:40Z</time>
      </trkpt>
      <trkpt lat="38.97778" lon="-0.49794">
        <time>2019-03-23T11:51:41Z</time>
      </trkpt>
      <trkpt lat="38.97771" lon="-0.49788">
        <time>2019-03-23T11:51:42Z</time>
      </trkpt>
      <trkpt lat="38.97767" lon="-0.4978">
        <time>2019-03-23T11:51:43Z</time>
      </trkpt>
      <trkpt lat="38.97765" lon="-0.49769">
        <time>2019-03-23T11:51:44Z</time>
      </trkpt>
      <trkpt lat="38.97761" lon="-0.4976">
        <time>2019-03-23T11:51:45Z</time>
      </trkpt>
      <trkpt lat="38.97758" lon="-0.49751">
        <time>2019-03-23T11:51:46Z</time>
      </trkpt>
      <trkpt lat="38.97754" lon="-0.49742">
        <time>2019-03-23T11:51:47Z</time>
      </trkpt>
      <trkpt lat="38.97751" lon="-0.49734">
        <time>2019-03-23T11:51:48Z</time>
      </trkpt>
      <trkpt lat="38.97747" lon="-0.49725">
        <time>2019-03-23T11:51:49Z</time>
      </trkpt>
      <trkpt lat="38.97742" lon="-0.49717">
        <time>2019-03-23T11:51:50Z</time>
      </trkpt>
      <trkpt lat="38.97736" lon="-0.49708">
        <time>2019-03-23T11:51:51Z</time>
      </trkpt>
      <trkpt lat="38.97731" lon="-0.49699">
        <time>2019-03-23T11:51:52Z</time>
      </trkpt>
      <trkpt lat="38.97727" lon="-0.49688">
        <time>2019-03-23T11:51:53Z</time>
      </trkpt>
      <trkpt lat="38.97723" lon="-0.49676">
        <time>2019-03-23T11:51:54Z</time>
      </trkpt>
      <trkpt lat="38.97719" lon="-0.49664">
        <time>2019-03-23T11:51:55Z</time>
      </trkpt>
      <trkpt lat="38.97715" lon="-0.49654">
        <time>2019-03-23T11:51:56Z</time>
      </trkpt>
      <trkpt lat="38.97712" lon="-0.49642">
        <time>2019-03-23T11:51:57Z</time>
      </trkpt>
      <trkpt lat="38.97709" lon="-0.49632">
        <time>2019-03-23T11:51:58Z</time>
      </trkpt>
      <trkpt lat="38.97705" lon="-0.49621">
        <time>2019-03-23T11:51:59Z</time>
      </trkpt>
      <trkpt lat="38.97701" lon="-0.49611">
        <time>2019-03-23T11:52:00Z</time>
      </trkpt>
      <trkpt lat="38.97697" lon="-0.496">
        <time>2019-03-23T11:52:01Z</time>
      </trkpt>
      <trkpt lat="38.97695" lon="-0.4959">
        <time>2019-03-23T11:52:02Z</time>
      </trkpt>
      <trkpt lat="38.97692" lon="-0.49583">
        <time>2019-03-23T11:52:03Z</time>
      </trkpt>
      <trkpt lat="38.97689" lon="-0.49575">
        <time>2019-03-23T11:52:04Z</time>
      </trkpt>
      <trkpt lat="38.97686" lon="-0.49565">
        <time>2019-03-23T11:52:05Z</time>
      </trkpt>
      <trkpt lat="38.97683" lon="-0.49555">
        <time>2019-03-23T11:52:06Z</time>
      </trkpt>
      <trkpt lat="38.97681" lon="-0.49546">
        <time>2019-03-23T11:52:07Z</time>
      </trkpt>
      <trkpt lat="38.97678" lon="-0.49539">
        <time>2019-03-23T11:52:08Z</time>
      </trkpt>
      <trkpt lat="38.97678" lon="-0.49532">
        <time>2019-03-23T11:52:09Z</time>
      </trkpt>
      <trkpt lat="38.97682" lon="-0.49524">
        <time>2019-03-23T11:52:10Z</time>
      </trkpt>
      <trkpt lat="38.97685" lon="-0.49518">
        <time>2019-03-23T11:52:11Z</time>
      </trkpt>
      <trkpt lat="38.97687" lon="-0.49511">
        <time>2019-03-23T11:52:12Z</time>
      </trkpt>
      <trkpt lat="38.97687" lon="-0.49503">
        <time>2019-03-23T11:52:13Z</time>
      </trkpt>
      <trkpt lat="38.97683" lon="-0.49497">
        <time>2019-03-23T11:52:14Z</time>
      </trkpt>
      <trkpt lat="38.97681" lon="-0.4949">
        <time>2019-03-23T11:52:15Z</time>
      </trkpt>
      <trkpt lat="38.97678" lon="-0.49485">
        <time>2019-03-23T11:52:16Z</time>
      </trkpt>
      <trkpt lat="38.97672" lon="-0.49479">
        <time>2019-03-23T11:52:17Z</time>
      </trkpt>
      <trkpt lat="38.97665" lon="-0.49474">
        <time>2019-03-23T11:52:18Z</time>
      </trkpt>
      <trkpt lat="38.9766" lon="-0.49471">
        <time>2019-03-23T11:52:19Z</time>
      </trkpt>
      <trkpt lat="38.97655" lon="-0.49466">
        <time>2019-03-23T11:52:20Z</time>
      </trkpt>
      <trkpt lat="38.97654" lon="-0.49458">
        <time>2019-03-23T11:52:21Z</time>
      </trkpt>
      <trkpt lat="38.97656" lon="-0.49451">
        <time>2019-03-23T11:52:22Z</time>
      </trkpt>
      <trkpt lat="38.9766" lon="-0.49447">
        <time>2019-03-23T11:52:23Z</time>
      </trkpt>
      <trkpt lat="38.97664" lon="-0.49448">
        <time>2019-03-23T11:52:24Z</time>
      </trkpt>
      <trkpt lat="38.97669" lon="-0.49449">
        <time>2019-03-23T11:52:25Z</time>
      </trkpt>
      <trkpt lat="38.97671" lon="-0.4945">
        <time>2019-03-23T11:52:26Z</time>
      </trkpt>
      <trkpt lat="38.97674" lon="-0.49452">
        <time>2019-03-23T11:52:32Z</time>
      </trkpt>
      <trkpt lat="38.97676" lon="-0.49453">
        <time>2019-03-23T11:52:33Z</time>
      </trkpt>
      <trkpt lat="38.97678" lon="-0.49454">
        <time>2019-03-23T11:52:34Z</time>
      </trkpt>
      <trkpt lat="38.97681" lon="-0.49455">
        <time>2019-03-23T11:52:35Z</time>
      </trkpt>
      <trkpt lat="38.97684" lon="-0.49455">
        <time>2019-03-23T11:52:36Z</time>
      </trkpt>
      <trkpt lat="38.97686" lon="-0.49456">
        <time>2019-03-23T11:52:37Z</time>
      </trkpt>
      <trkpt lat="38.97688" lon="-0.49457">
        <time>2019-03-23T11:52:38Z</time>
      </trkpt>
      <trkpt lat="38.97688" lon="-0.49459">
        <time>2019-03-23T11:52:39Z</time>
      </trkpt>
      <trkpt lat="38.97685" lon="-0.49461">
        <time>2019-03-23T11:53:20Z</time>
      </trkpt>
      <trkpt lat="38.97683" lon="-0.49459">
        <time>2019-03-23T11:53:21Z</time>
      </trkpt>
      <trkpt lat="38.97681" lon="-0.49458">
        <time>2019-03-23T11:53:22Z</time>
      </trkpt>
      <trkpt lat="38.97679" lon="-0.49457">
        <time>2019-03-23T11:53:23Z</time>
      </trkpt>
      <trkpt lat="38.97678" lon="-0.49456">
        <time>2019-03-23T11:53:24Z</time>
      </trkpt>
      <trkpt lat="38.97677" lon="-0.49456">
        <time>2019-03-23T11:53:40Z</time>
      </trkpt>
      <trkpt lat="38.97675" lon="-0.49455">
        <time>2019-03-23T11:53:41Z</time>
      </trkpt>
      <trkpt lat="38.97673" lon="-0.49454">
        <time>2019-03-23T11:53:45Z</time>
      </trkpt>
      <trkpt lat="38.97669" lon="-0.49451">
        <time>2019-03-23T11:53:46Z</time>
      </trkpt>
      <trkpt lat="38.97664" lon="-0.49449">
        <time>2019-03-23T11:53:47Z</time>
      </trkpt>
      <trkpt lat="38.97659" lon="-0.49448">
        <time>2019-03-23T11:53:48Z</time>
      </trkpt>
      <trkpt lat="38.97655" lon="-0.49451">
        <time>2019-03-23T11:53:49Z</time>
      </trkpt>
      <trkpt lat="38.97654" lon="-0.49457">
        <time>2019-03-23T11:53:50Z</time>
      </trkpt>
      <trkpt lat="38.97656" lon="-0.49466">
        <time>2019-03-23T11:53:51Z</time>
      </trkpt>
      <trkpt lat="38.97662" lon="-0.49473">
        <time>2019-03-23T11:53:52Z</time>
      </trkpt>
      <trkpt lat="38.97667" lon="-0.49476">
        <time>2019-03-23T11:53:53Z</time>
      </trkpt>
      <trkpt lat="38.97673" lon="-0.4948">
        <time>2019-03-23T11:53:54Z</time>
      </trkpt>
      <trkpt lat="38.97678" lon="-0.49486">
        <time>2019-03-23T11:53:55Z</time>
      </trkpt>
      <trkpt lat="38.97682" lon="-0.49495">
        <time>2019-03-23T11:53:56Z</time>
      </trkpt>
      <trkpt lat="38.97684" lon="-0.49501">
        <time>2019-03-23T11:53:57Z</time>
      </trkpt>
      <trkpt lat="38.97688" lon="-0.4951">
        <time>2019-03-23T11:53:58Z</time>
      </trkpt>
      <trkpt lat="38.9769" lon="-0.49519">
        <time>2019-03-23T11:53:59Z</time>
      </trkpt>
      <trkpt lat="38.97685" lon="-0.49523">
        <time>2019-03-23T11:54:00Z</time>
      </trkpt>
      <trkpt lat="38.97683" lon="-0.49529">
        <time>2019-03-23T11:54:01Z</time>
      </trkpt>
      <trkpt lat="38.97682" lon="-0.49535">
        <time>2019-03-23T11:54:02Z</time>
      </trkpt>
      <trkpt lat="38.97682" lon="-0.49543">
        <time>2019-03-23T11:54:03Z</time>
      </trkpt>
      <trkpt lat="38.97683" lon="-0.49549">
        <time>2019-03-23T11:54:04Z</time>
      </trkpt>
      <trkpt lat="38.97684" lon="-0.49554">
        <time>2019-03-23T11:54:05Z</time>
      </trkpt>
      <trkpt lat="38.97685" lon="-0.49557">
        <time>2019-03-23T11:54:06Z</time>
      </trkpt>
      <trkpt lat="38.97686" lon="-0.49559">
        <time>2019-03-23T11:54:07Z</time>
      </trkpt>
      <trkpt lat="38.97686" lon="-0.49562">
        <time>2019-03-23T11:54:08Z</time>
      </trkpt>
      <trkpt lat="38.97687" lon="-0.49563">
        <time>2019-03-23T11:54:09Z</time>
      </trkpt>
      <trkpt lat="38.97687" lon="-0.49564">
        <time>2019-03-23T11:54:10Z</time>
      </trkpt>
      <trkpt lat="38.97687" lon="-0.49565">
        <time>2019-03-23T11:54:17Z</time>
      </trkpt>
      <trkpt lat="38.97688" lon="-0.49568">
        <time>2019-03-23T11:54:18Z</time>
      </trkpt>
      <trkpt lat="38.97691" lon="-0.49574">
        <time>2019-03-23T11:54:19Z</time>
      </trkpt>
      <trkpt lat="38.97694" lon="-0.49582">
        <time>2019-03-23T11:54:20Z</time>
      </trkpt>
      <trkpt lat="38.97699" lon="-0.49593">
        <time>2019-03-23T11:54:21Z</time>
      </trkpt>
      <trkpt lat="38.97702" lon="-0.49604">
        <time>2019-03-23T11:54:22Z</time>
      </trkpt>
      <trkpt lat="38.97706" lon="-0.49615">
        <time>2019-03-23T11:54:23Z</time>
      </trkpt>
      <trkpt lat="38.9771" lon="-0.49628">
        <time>2019-03-23T11:54:24Z</time>
      </trkpt>
      <trkpt lat="38.97715" lon="-0.49646">
        <time>2019-03-23T11:54:25Z</time>
      </trkpt>
      <trkpt lat="38.97719" lon="-0.4966">
        <time>2019-03-23T11:54:26Z</time>
      </trkpt>
      <trkpt lat="38.97724" lon="-0.49673">
        <time>2019-03-23T11:54:27Z</time>
      </trkpt>
      <trkpt lat="38.97729" lon="-0.49685">
        <time>2019-03-23T11:54:28Z</time>
      </trkpt>
      <trkpt lat="38.97732" lon="-0.49696">
        <time>2019-03-23T11:54:29Z</time>
      </trkpt>
      <trkpt lat="38.97737" lon="-0.49707">
        <time>2019-03-23T11:54:30Z</time>
      </trkpt>
      <trkpt lat="38.97743" lon="-0.49716">
        <time>2019-03-23T11:54:31Z</time>
      </trkpt>
      <trkpt lat="38.9775" lon="-0.49724">
        <time>2019-03-23T11:54:32Z</time>
      </trkpt>
      <trkpt lat="38.97755" lon="-0.49736">
        <time>2019-03-23T11:54:33Z</time>
      </trkpt>
      <trkpt lat="38.97759" lon="-0.49747">
        <time>2019-03-23T11:54:34Z</time>
      </trkpt>
      <trkpt lat="38.97763" lon="-0.49758">
        <time>2019-03-23T11:54:35Z</time>
      </trkpt>
      <trkpt lat="38.97768" lon="-0.49767">
        <time>2019-03-23T11:54:36Z</time>
      </trkpt>
      <trkpt lat="38.97768" lon="-0.49771">
        <time>2019-03-23T11:54:37Z</time>
      </trkpt>
      <trkpt lat="38.97771" lon="-0.4978">
        <time>2019-03-23T11:54:38Z</time>
      </trkpt>
      <trkpt lat="38.97776" lon="-0.49787">
        <time>2019-03-23T11:54:39Z</time>
      </trkpt>
      <trkpt lat="38.97784" lon="-0.49795">
        <time>2019-03-23T11:54:40Z</time>
      </trkpt>
      <trkpt lat="38.97795" lon="-0.49802">
        <time>2019-03-23T11:54:41Z</time>
      </trkpt>
      <trkpt lat="38.97805" lon="-0.49811">
        <time>2019-03-23T11:54:42Z</time>
      </trkpt>
      <trkpt lat="38.97814" lon="-0.4982">
        <time>2019-03-23T11:54:43Z</time>
      </trkpt>
      <trkpt lat="38.97821" lon="-0.49828">
        <time>2019-03-23T11:54:44Z</time>
      </trkpt>
      <trkpt lat="38.97828" lon="-0.4984">
        <time>2019-03-23T11:54:45Z</time>
      </trkpt>
      <trkpt lat="38.97833" lon="-0.49849">
        <time>2019-03-23T11:54:46Z</time>
      </trkpt>
      <trkpt lat="38.97837" lon="-0.49859">
        <time>2019-03-23T11:54:47Z</time>
      </trkpt>
      <trkpt lat="38.97839" lon="-0.49871">
        <time>2019-03-23T11:54:48Z</time>
      </trkpt>
      <trkpt lat="38.97846" lon="-0.49879">
        <time>2019-03-23T11:54:49Z</time>
      </trkpt>
      <trkpt lat="38.97848" lon="-0.49891">
        <time>2019-03-23T11:54:50Z</time>
      </trkpt>
      <trkpt lat="38.9785" lon="-0.49905">
        <time>2019-03-23T11:54:51Z</time>
      </trkpt>
      <trkpt lat="38.97852" lon="-0.49918">
        <time>2019-03-23T11:54:52Z</time>
      </trkpt>
      <trkpt lat="38.97857" lon="-0.49933">
        <time>2019-03-23T11:54:53Z</time>
      </trkpt>
      <trkpt lat="38.9786" lon="-0.49949">
        <time>2019-03-23T11:54:54Z</time>
      </trkpt>
      <trkpt lat="38.97863" lon="-0.49964">
        <time>2019-03-23T11:54:55Z</time>
      </trkpt>
      <trkpt lat="38.97868" lon="-0.49984">
        <time>2019-03-23T11:54:56Z</time>
      </trkpt>
      <trkpt lat="38.97872" lon="-0.50002">
        <time>2019-03-23T11:54:57Z</time>
      </trkpt>
      <trkpt lat="38.97877" lon="-0.50023">
        <time>2019-03-23T11:54:58Z</time>
      </trkpt>
      <trkpt lat="38.97881" lon="-0.5004">
        <time>2019-03-23T11:54:59Z</time>
      </trkpt>
      <trkpt lat="38.97885" lon="-0.50056">
        <time>2019-03-23T11:55:00Z</time>
      </trkpt>
      <trkpt lat="38.97888" lon="-0.50073">
        <time>2019-03-23T11:55:01Z</time>
      </trkpt>
      <trkpt lat="38.9789" lon="-0.50088">
        <time>2019-03-23T11:55:02Z</time>
      </trkpt>
      <trkpt lat="38.97892" lon="-0.50099">
        <time>2019-03-23T11:55:03Z</time>
      </trkpt>
      <trkpt lat="38.97894" lon="-0.50107">
        <time>2019-03-23T11:55:04Z</time>
      </trkpt>
      <trkpt lat="38.97896" lon="-0.50114">
        <time>2019-03-23T11:55:05Z</time>
      </trkpt>
      <trkpt lat="38.97902" lon="-0.50121">
        <time>2019-03-23T11:55:06Z</time>
      </trkpt>
      <trkpt lat="38.97908" lon="-0.50129">
        <time>2019-03-23T11:55:07Z</time>
      </trkpt>
      <trkpt lat="38.97916" lon="-0.50139">
        <time>2019-03-23T11:55:08Z</time>
      </trkpt>
      <trkpt lat="38.97926" lon="-0.5015">
        <time>2019-03-23T11:55:09Z</time>
      </trkpt>
      <trkpt lat="38.97936" lon="-0.50163">
        <time>2019-03-23T11:55:10Z</time>
      </trkpt>
      <trkpt lat="38.97946" lon="-0.50176">
        <time>2019-03-23T11:55:11Z</time>
      </trkpt>
      <trkpt lat="38.97956" lon="-0.50187">
        <time>2019-03-23T11:55:12Z</time>
      </trkpt>
      <trkpt lat="38.97993" lon="-0.50215">
        <time>2019-03-23T11:55:16Z</time>
      </trkpt>
      <trkpt lat="38.98002" lon="-0.50224">
        <time>2019-03-23T11:55:17Z</time>
      </trkpt>
      <trkpt lat="38.98017" lon="-0.50237">
        <time>2019-03-23T11:55:18Z</time>
      </trkpt>
      <trkpt lat="38.98021" lon="-0.50247">
        <time>2019-03-23T11:55:19Z</time>
      </trkpt>
      <trkpt lat="38.98025" lon="-0.50261">
        <time>2019-03-23T11:55:20Z</time>
      </trkpt>
      <trkpt lat="38.98029" lon="-0.50273">
        <time>2019-03-23T11:55:21Z</time>
      </trkpt>
      <trkpt lat="38.98035" lon="-0.50285">
        <time>2019-03-23T11:55:22Z</time>
      </trkpt>
      <trkpt lat="38.98043" lon="-0.50296">
        <time>2019-03-23T11:55:23Z</time>
      </trkpt>
      <trkpt lat="38.9805" lon="-0.50305">
        <time>2019-03-23T11:55:24Z</time>
      </trkpt>
      <trkpt lat="38.98059" lon="-0.50316">
        <time>2019-03-23T11:55:25Z</time>
      </trkpt>
      <trkpt lat="38.98068" lon="-0.50324">
        <time>2019-03-23T11:55:26Z</time>
      </trkpt>
      <trkpt lat="38.98075" lon="-0.50331">
        <time>2019-03-23T11:55:27Z</time>
      </trkpt>
      <trkpt lat="38.9808" lon="-0.50338">
        <time>2019-03-23T11:55:28Z</time>
      </trkpt>
      <trkpt lat="38.98085" lon="-0.50345">
        <time>2019-03-23T11:55:29Z</time>
      </trkpt>
      <trkpt lat="38.98089" lon="-0.50353">
        <time>2019-03-23T11:55:30Z</time>
      </trkpt>
      <trkpt lat="38.98092" lon="-0.50356">
        <time>2019-03-23T11:55:31Z</time>
      </trkpt>
      <trkpt lat="38.98096" lon="-0.50356">
        <time>2019-03-23T11:55:32Z</time>
      </trkpt>
      <trkpt lat="38.98102" lon="-0.50355">
        <time>2019-03-23T11:55:33Z</time>
      </trkpt>
      <trkpt lat="38.9811" lon="-0.50354">
        <time>2019-03-23T11:55:34Z</time>
      </trkpt>
      <trkpt lat="38.9812" lon="-0.50355">
        <time>2019-03-23T11:55:35Z</time>
      </trkpt>
      <trkpt lat="38.98134" lon="-0.50356">
        <time>2019-03-23T11:55:36Z</time>
      </trkpt>
      <trkpt lat="38.98149" lon="-0.50359">
        <time>2019-03-23T11:55:37Z</time>
      </trkpt>
      <trkpt lat="38.98155" lon="-0.50368">
        <time>2019-03-23T11:55:38Z</time>
      </trkpt>
      <trkpt lat="38.98167" lon="-0.50372">
        <time>2019-03-23T11:55:39Z</time>
      </trkpt>
      <trkpt lat="38.98177" lon="-0.50375">
        <time>2019-03-23T11:55:40Z</time>
      </trkpt>
      <trkpt lat="38.98188" lon="-0.5038">
        <time>2019-03-23T11:55:41Z</time>
      </trkpt>
      <trkpt lat="38.98199" lon="-0.50384">
        <time>2019-03-23T11:55:42Z</time>
      </trkpt>
      <trkpt lat="38.98211" lon="-0.50389">
        <time>2019-03-23T11:55:43Z</time>
      </trkpt>
      <trkpt lat="38.98226" lon="-0.50397">
        <time>2019-03-23T11:55:44Z</time>
      </trkpt>
      <trkpt lat="38.9824" lon="-0.50407">
        <time>2019-03-23T11:55:45Z</time>
      </trkpt>
      <trkpt lat="38.98256" lon="-0.50421">
        <time>2019-03-23T11:55:46Z</time>
      </trkpt>
      <trkpt lat="38.98269" lon="-0.50433">
        <time>2019-03-23T11:55:47Z</time>
      </trkpt>
      <trkpt lat="38.98281" lon="-0.50444">
        <time>2019-03-23T11:55:48Z</time>
      </trkpt>
      <trkpt lat="38.98296" lon="-0.50459">
        <time>2019-03-23T11:55:49Z</time>
      </trkpt>
      <trkpt lat="38.9831" lon="-0.50474">
        <time>2019-03-23T11:55:50Z</time>
      </trkpt>
      <trkpt lat="38.98324" lon="-0.50492">
        <time>2019-03-23T11:55:51Z</time>
      </trkpt>
      <trkpt lat="38.98338" lon="-0.50514">
        <time>2019-03-23T11:55:52Z</time>
      </trkpt>
      <trkpt lat="38.98358" lon="-0.50535">
        <time>2019-03-23T11:55:53Z</time>
      </trkpt>
      <trkpt lat="38.98369" lon="-0.50553">
        <time>2019-03-23T11:55:54Z</time>
      </trkpt>
      <trkpt lat="38.98378" lon="-0.50576">
        <time>2019-03-23T11:55:55Z</time>
      </trkpt>
      <trkpt lat="38.98382" lon="-0.50602">
        <time>2019-03-23T11:55:56Z</time>
      </trkpt>
      <trkpt lat="38.98385" lon="-0.5063">
        <time>2019-03-23T11:55:57Z</time>
      </trkpt>
      <trkpt lat="38.98388" lon="-0.50659">
        <time>2019-03-23T11:55:58Z</time>
      </trkpt>
      <trkpt lat="38.98392" lon="-0.50688">
        <time>2019-03-23T11:55:59Z</time>
      </trkpt>
      <trkpt lat="38.98395" lon="-0.50714">
        <time>2019-03-23T11:56:00Z</time>
      </trkpt>
      <trkpt lat="38.98397" lon="-0.50739">
        <time>2019-03-23T11:56:01Z</time>
      </trkpt>
      <trkpt lat="38.98399" lon="-0.50759">
        <time>2019-03-23T11:56:02Z</time>
      </trkpt>
      <trkpt lat="38.98403" lon="-0.50776">
        <time>2019-03-23T11:56:03Z</time>
      </trkpt>
      <trkpt lat="38.9841" lon="-0.50789">
        <time>2019-03-23T11:56:04Z</time>
      </trkpt>
      <trkpt lat="38.98421" lon="-0.50796">
        <time>2019-03-23T11:56:05Z</time>
      </trkpt>
      <trkpt lat="38.98435" lon="-0.508">
        <time>2019-03-23T11:56:06Z</time>
      </trkpt>
      <trkpt lat="38.98451" lon="-0.50802">
        <time>2019-03-23T11:56:07Z</time>
      </trkpt>
      <trkpt lat="38.98469" lon="-0.50803">
        <time>2019-03-23T11:56:08Z</time>
      </trkpt>
      <trkpt lat="38.98487" lon="-0.50798">
        <time>2019-03-23T11:56:09Z</time>
      </trkpt>
      <trkpt lat="38.98506" lon="-0.50789">
        <time>2019-03-23T11:56:10Z</time>
      </trkpt>
      <trkpt lat="38.98524" lon="-0.50779">
        <time>2019-03-23T11:56:11Z</time>
      </trkpt>
      <trkpt lat="38.98545" lon="-0.50769">
        <time>2019-03-23T11:56:12Z</time>
      </trkpt>
      <trkpt lat="38.98564" lon="-0.50759">
        <time>2019-03-23T11:56:13Z</time>
      </trkpt>
      <trkpt lat="38.98582" lon="-0.50748">
        <time>2019-03-23T11:56:14Z</time>
      </trkpt>
      <trkpt lat="38.98596" lon="-0.50736">
        <time>2019-03-23T11:56:15Z</time>
      </trkpt>
      <trkpt lat="38.98608" lon="-0.50722">
        <time>2019-03-23T11:56:16Z</time>
      </trkpt>
      <trkpt lat="38.98612" lon="-0.50705">
        <time>2019-03-23T11:56:17Z</time>
      </trkpt>
      <trkpt lat="38.98613" lon="-0.50684">
        <time>2019-03-23T11:56:18Z</time>
      </trkpt>
      <trkpt lat="38.98614" lon="-0.50662">
        <time>2019-03-23T11:56:19Z</time>
      </trkpt>
      <trkpt lat="38.98616" lon="-0.50637">
        <time>2019-03-23T11:56:20Z</time>
      </trkpt>
      <trkpt lat="38.98618" lon="-0.50611">
        <time>2019-03-23T11:56:21Z</time>
      </trkpt>
      <trkpt lat="38.98622" lon="-0.50585">
        <time>2019-03-23T11:56:22Z</time>
      </trkpt>
      <trkpt lat="38.9863" lon="-0.50561">
        <time>2019-03-23T11:56:23Z</time>
      </trkpt>
      <trkpt lat="38.98641" lon="-0.50538">
        <time>2019-03-23T11:56:24Z</time>
      </trkpt>
      <trkpt lat="38.98649" lon="-0.50515">
        <time>2019-03-23T11:56:25Z</time>
      </trkpt>
      <trkpt lat="38.98652" lon="-0.50492">
        <time>2019-03-23T11:56:26Z</time>
      </trkpt>
      <trkpt lat="38.98651" lon="-0.50467">
        <time>2019-03-23T11:56:27Z</time>
      </trkpt>
      <trkpt lat="38.98652" lon="-0.50441">
        <time>2019-03-23T11:56:28Z</time>
      </trkpt>
      <trkpt lat="38.98656" lon="-0.50414">
        <time>2019-03-23T11:56:29Z</time>
      </trkpt>
      <trkpt lat="38.98662" lon="-0.50389">
        <time>2019-03-23T11:56:30Z</time>
      </trkpt>
      <trkpt lat="38.98671" lon="-0.50365">
        <time>2019-03-23T11:56:31Z</time>
      </trkpt>
      <trkpt lat="38.9868" lon="-0.50344">
        <time>2019-03-23T11:56:32Z</time>
      </trkpt>
      <trkpt lat="38.98691" lon="-0.50325">
        <time>2019-03-23T11:56:33Z</time>
      </trkpt>
      <trkpt lat="38.98701" lon="-0.50309">
        <time>2019-03-23T11:56:34Z</time>
      </trkpt>
      <trkpt lat="38.98712" lon="-0.50298">
        <time>2019-03-23T11:56:35Z</time>
      </trkpt>
      <trkpt lat="38.98723" lon="-0.5029">
        <time>2019-03-23T11:56:36Z</time>
      </trkpt>
      <trkpt lat="38.98738" lon="-0.503">
        <time>2019-03-23T11:56:37Z</time>
      </trkpt>
      <trkpt lat="38.98757" lon="-0.50303">
        <time>2019-03-23T11:56:38Z</time>
      </trkpt>
      <trkpt lat="38.98776" lon="-0.50307">
        <time>2019-03-23T11:56:39Z</time>
      </trkpt>
      <trkpt lat="38.98794" lon="-0.5031">
        <time>2019-03-23T11:56:40Z</time>
      </trkpt>
      <trkpt lat="38.98809" lon="-0.50317">
        <time>2019-03-23T11:56:41Z</time>
      </trkpt>
      <trkpt lat="38.98822" lon="-0.50329">
        <time>2019-03-23T11:56:42Z</time>
      </trkpt>
      <trkpt lat="38.98831" lon="-0.50345">
        <time>2019-03-23T11:56:43Z</time>
      </trkpt>
      <trkpt lat="38.98836" lon="-0.50362">
        <time>2019-03-23T11:56:44Z</time>
      </trkpt>
      <trkpt lat="38.98838" lon="-0.50384">
        <time>2019-03-23T11:56:45Z</time>
      </trkpt>
      <trkpt lat="38.9884" lon="-0.50405">
        <time>2019-03-23T11:56:46Z</time>
      </trkpt>
      <trkpt lat="38.98841" lon="-0.50423">
        <time>2019-03-23T11:56:47Z</time>
      </trkpt>
      <trkpt lat="38.98843" lon="-0.50442">
        <time>2019-03-23T11:56:48Z</time>
      </trkpt>
      <trkpt lat="38.98848" lon="-0.50455">
        <time>2019-03-23T11:56:49Z</time>
      </trkpt>
      <trkpt lat="38.98856" lon="-0.50466">
        <time>2019-03-23T11:56:50Z</time>
      </trkpt>
      <trkpt lat="38.98868" lon="-0.50473">
        <time>2019-03-23T11:56:51Z</time>
      </trkpt>
      <trkpt lat="38.9888" lon="-0.50474">
        <time>2019-03-23T11:56:52Z</time>
      </trkpt>
      <trkpt lat="38.98893" lon="-0.50469">
        <time>2019-03-23T11:56:53Z</time>
      </trkpt>
      <trkpt lat="38.98904" lon="-0.5046">
        <time>2019-03-23T11:56:54Z</time>
      </trkpt>
      <trkpt lat="38.98913" lon="-0.50451">
        <time>2019-03-23T11:56:55Z</time>
      </trkpt>
      <trkpt lat="38.98921" lon="-0.50443">
        <time>2019-03-23T11:56:56Z</time>
      </trkpt>
      <trkpt lat="38.9893" lon="-0.50437">
        <time>2019-03-23T11:56:57Z</time>
      </trkpt>
      <trkpt lat="38.98939" lon="-0.50435">
        <time>2019-03-23T11:56:58Z</time>
      </trkpt>
      <trkpt lat="38.98948" lon="-0.50436">
        <time>2019-03-23T11:56:59Z</time>
      </trkpt>
      <trkpt lat="38.98956" lon="-0.5044">
        <time>2019-03-23T11:57:00Z</time>
      </trkpt>
      <trkpt lat="38.98965" lon="-0.50447">
        <time>2019-03-23T11:57:01Z</time>
      </trkpt>
      <trkpt lat="38.98972" lon="-0.50456">
        <time>2019-03-23T11:57:02Z</time>
      </trkpt>
      <trkpt lat="38.98976" lon="-0.50464">
        <time>2019-03-23T11:57:03Z</time>
      </trkpt>
      <trkpt lat="38.9898" lon="-0.50477">
        <time>2019-03-23T11:57:04Z</time>
      </trkpt>
      <trkpt lat="38.98983" lon="-0.5049">
        <time>2019-03-23T11:57:05Z</time>
      </trkpt>
      <trkpt lat="38.98983" lon="-0.50504">
        <time>2019-03-23T11:57:06Z</time>
      </trkpt>
      <trkpt lat="38.98984" lon="-0.5052">
        <time>2019-03-23T11:57:07Z</time>
      </trkpt>
      <trkpt lat="38.98985" lon="-0.50534">
        <time>2019-03-23T11:57:08Z</time>
      </trkpt>
      <trkpt lat="38.98984" lon="-0.50551">
        <time>2019-03-23T11:57:09Z</time>
      </trkpt>
      <trkpt lat="38.98984" lon="-0.50566">
        <time>2019-03-23T11:57:10Z</time>
      </trkpt>
      <trkpt lat="38.98983" lon="-0.5058">
        <time>2019-03-23T11:57:11Z</time>
      </trkpt>
      <trkpt lat="38.98981" lon="-0.50599">
        <time>2019-03-23T11:57:12Z</time>
      </trkpt>
      <trkpt lat="38.98981" lon="-0.50617">
        <time>2019-03-23T11:57:13Z</time>
      </trkpt>
      <trkpt lat="38.9898" lon="-0.50637">
        <time>2019-03-23T11:57:14Z</time>
      </trkpt>
      <trkpt lat="38.98979" lon="-0.50657">
        <time>2019-03-23T11:57:15Z</time>
      </trkpt>
      <trkpt lat="38.98978" lon="-0.50674">
        <time>2019-03-23T11:57:16Z</time>
      </trkpt>
      <trkpt lat="38.98977" lon="-0.50693">
        <time>2019-03-23T11:57:17Z</time>
      </trkpt>
      <trkpt lat="38.98976" lon="-0.50711">
        <time>2019-03-23T11:57:18Z</time>
      </trkpt>
      <trkpt lat="38.98975" lon="-0.5073">
        <time>2019-03-23T11:57:19Z</time>
      </trkpt>
      <trkpt lat="38.98973" lon="-0.50755">
        <time>2019-03-23T11:57:20Z</time>
      </trkpt>
      <trkpt lat="38.98972" lon="-0.50781">
        <time>2019-03-23T11:57:21Z</time>
      </trkpt>
      <trkpt lat="38.98968" lon="-0.50809">
        <time>2019-03-23T11:57:22Z</time>
      </trkpt>
      <trkpt lat="38.98966" lon="-0.50835">
        <time>2019-03-23T11:57:23Z</time>
      </trkpt>
      <trkpt lat="38.98963" lon="-0.50861">
        <time>2019-03-23T11:57:24Z</time>
      </trkpt>
      <trkpt lat="38.9896" lon="-0.50886">
        <time>2019-03-23T11:57:25Z</time>
      </trkpt>
      <trkpt lat="38.98957" lon="-0.5091">
        <time>2019-03-23T11:57:26Z</time>
      </trkpt>
      <trkpt lat="38.98953" lon="-0.50934">
        <time>2019-03-23T11:57:27Z</time>
      </trkpt>
      <trkpt lat="38.9895" lon="-0.50958">
        <time>2019-03-23T11:57:28Z</time>
      </trkpt>
      <trkpt lat="38.98946" lon="-0.50982">
        <time>2019-03-23T11:57:29Z</time>
      </trkpt>
      <trkpt lat="38.98942" lon="-0.51005">
        <time>2019-03-23T11:57:30Z</time>
      </trkpt>
      <trkpt lat="38.98938" lon="-0.51027">
        <time>2019-03-23T11:57:31Z</time>
      </trkpt>
      <trkpt lat="38.98934" lon="-0.51048">
        <time>2019-03-23T11:57:32Z</time>
      </trkpt>
      <trkpt lat="38.98929" lon="-0.51068">
        <time>2019-03-23T11:57:33Z</time>
      </trkpt>
      <trkpt lat="38.98925" lon="-0.51086">
        <time>2019-03-23T11:57:34Z</time>
      </trkpt>
      <trkpt lat="38.98919" lon="-0.51103">
        <time>2019-03-23T11:57:35Z</time>
      </trkpt>
      <trkpt lat="38.98916" lon="-0.51126">
        <time>2019-03-23T11:57:36Z</time>
      </trkpt>
      <trkpt lat="38.9891" lon="-0.51141">
        <time>2019-03-23T11:57:37Z</time>
      </trkpt>
      <trkpt lat="38.98903" lon="-0.51155">
        <time>2019-03-23T11:57:38Z</time>
      </trkpt>
      <trkpt lat="38.98897" lon="-0.51167">
        <time>2019-03-23T11:57:39Z</time>
      </trkpt>
      <trkpt lat="38.98892" lon="-0.51175">
        <time>2019-03-23T11:57:40Z</time>
      </trkpt>
      <trkpt lat="38.98891" lon="-0.51181">
        <time>2019-03-23T11:57:41Z</time>
      </trkpt>
      <trkpt lat="38.98892" lon="-0.51185">
        <time>2019-03-23T11:57:42Z</time>
      </trkpt>
      <trkpt lat="38.98895" lon="-0.51186">
        <time>2019-03-23T11:57:43Z</time>
      </trkpt>
      <trkpt lat="38.98898" lon="-0.51181">
        <time>2019-03-23T11:57:44Z</time>
      </trkpt>
      <trkpt lat="38.98903" lon="-0.51174">
        <time>2019-03-23T11:57:45Z</time>
      </trkpt>
      <trkpt lat="38.98909" lon="-0.51164">
        <time>2019-03-23T11:57:46Z</time>
      </trkpt>
      <trkpt lat="38.98916" lon="-0.5115">
        <time>2019-03-23T11:57:47Z</time>
      </trkpt>
      <trkpt lat="38.98923" lon="-0.51135">
        <time>2019-03-23T11:57:48Z</time>
      </trkpt>
      <trkpt lat="38.98932" lon="-0.51115">
        <time>2019-03-23T11:57:49Z</time>
      </trkpt>
      <trkpt lat="38.98941" lon="-0.51096">
        <time>2019-03-23T11:57:50Z</time>
      </trkpt>
      <trkpt lat="38.98951" lon="-0.51079">
        <time>2019-03-23T11:57:51Z</time>
      </trkpt>
      <trkpt lat="38.9896" lon="-0.51061">
        <time>2019-03-23T11:57:52Z</time>
      </trkpt>
      <trkpt lat="38.98968" lon="-0.51046">
        <time>2019-03-23T11:57:53Z</time>
      </trkpt>
      <trkpt lat="38.98974" lon="-0.51031">
        <time>2019-03-23T11:57:54Z</time>
      </trkpt>
      <trkpt lat="38.9898" lon="-0.51016">
        <time>2019-03-23T11:57:55Z</time>
      </trkpt>
      <trkpt lat="38.98986" lon="-0.51002">
        <time>2019-03-23T11:57:56Z</time>
      </trkpt>
      <trkpt lat="38.98991" lon="-0.50989">
        <time>2019-03-23T11:57:57Z</time>
      </trkpt>
      <trkpt lat="38.98996" lon="-0.50976">
        <time>2019-03-23T11:57:58Z</time>
      </trkpt>
      <trkpt lat="38.99001" lon="-0.50962">
        <time>2019-03-23T11:57:59Z</time>
      </trkpt>
      <trkpt lat="38.99006" lon="-0.50945">
        <time>2019-03-23T11:58:00Z</time>
      </trkpt>
      <trkpt lat="38.99011" lon="-0.50926">
        <time>2019-03-23T11:58:01Z</time>
      </trkpt>
      <trkpt lat="38.99016" lon="-0.50909">
        <time>2019-03-23T11:58:02Z</time>
      </trkpt>
      <trkpt lat="38.99028" lon="-0.50891">
        <time>2019-03-23T11:58:03Z</time>
      </trkpt>
      <trkpt lat="38.99033" lon="-0.50874">
        <time>2019-03-23T11:58:04Z</time>
      </trkpt>
      <trkpt lat="38.99038" lon="-0.50854">
        <time>2019-03-23T11:58:05Z</time>
      </trkpt>
      <trkpt lat="38.99043" lon="-0.50837">
        <time>2019-03-23T11:58:06Z</time>
      </trkpt>
      <trkpt lat="38.99047" lon="-0.50821">
        <time>2019-03-23T11:58:07Z</time>
      </trkpt>
      <trkpt lat="38.99051" lon="-0.50803">
        <time>2019-03-23T11:58:08Z</time>
      </trkpt>
      <trkpt lat="38.99053" lon="-0.50788">
        <time>2019-03-23T11:58:09Z</time>
      </trkpt>
      <trkpt lat="38.99054" lon="-0.50772">
        <time>2019-03-23T11:58:10Z</time>
      </trkpt>
      <trkpt lat="38.99056" lon="-0.50757">
        <time>2019-03-23T11:58:11Z</time>
      </trkpt>
      <trkpt lat="38.99059" lon="-0.50744">
        <time>2019-03-23T11:58:12Z</time>
      </trkpt>
      <trkpt lat="38.99062" lon="-0.50727">
        <time>2019-03-23T11:58:13Z</time>
      </trkpt>
      <trkpt lat="38.99065" lon="-0.50709">
        <time>2019-03-23T11:58:14Z</time>
      </trkpt>
      <trkpt lat="38.99066" lon="-0.50692">
        <time>2019-03-23T11:58:15Z</time>
      </trkpt>
      <trkpt lat="38.99067" lon="-0.50668">
        <time>2019-03-23T11:58:16Z</time>
      </trkpt>
      <trkpt lat="38.99067" lon="-0.50644">
        <time>2019-03-23T11:58:17Z</time>
      </trkpt>
      <trkpt lat="38.99067" lon="-0.50616">
        <time>2019-03-23T11:58:18Z</time>
      </trkpt>
      <trkpt lat="38.99065" lon="-0.50586">
        <time>2019-03-23T11:58:19Z</time>
      </trkpt>
      <trkpt lat="38.99063" lon="-0.50557">
        <time>2019-03-23T11:58:20Z</time>
      </trkpt>
      <trkpt lat="38.99061" lon="-0.5052">
        <time>2019-03-23T11:58:21Z</time>
      </trkpt>
      <trkpt lat="38.99059" lon="-0.50485">
        <time>2019-03-23T11:58:22Z</time>
      </trkpt>
      <trkpt lat="38.99057" lon="-0.50451">
        <time>2019-03-23T11:58:23Z</time>
      </trkpt>
      <trkpt lat="38.99056" lon="-0.50411">
        <time>2019-03-23T11:58:24Z</time>
      </trkpt>
      <trkpt lat="38.99054" lon="-0.5038">
        <time>2019-03-23T11:58:25Z</time>
      </trkpt>
      <trkpt lat="38.99053" lon="-0.50344">
        <time>2019-03-23T11:58:26Z</time>
      </trkpt>
      <trkpt lat="38.99052" lon="-0.50306">
        <time>2019-03-23T11:58:27Z</time>
      </trkpt>
      <trkpt lat="38.99051" lon="-0.50274">
        <time>2019-03-23T11:58:28Z</time>
      </trkpt>
      <trkpt lat="38.99051" lon="-0.50251">
        <time>2019-03-23T11:58:29Z</time>
      </trkpt>
      <trkpt lat="38.99052" lon="-0.50219">
        <time>2019-03-23T11:58:30Z</time>
      </trkpt>
      <trkpt lat="38.99054" lon="-0.50187">
        <time>2019-03-23T11:58:31Z</time>
      </trkpt>
      <trkpt lat="38.99056" lon="-0.50155">
        <time>2019-03-23T11:58:32Z</time>
      </trkpt>
      <trkpt lat="38.99058" lon="-0.50121">
        <time>2019-03-23T11:58:33Z</time>
      </trkpt>
      <trkpt lat="38.9906" lon="-0.50087">
        <time>2019-03-23T11:58:34Z</time>
      </trkpt>
      <trkpt lat="38.99062" lon="-0.50055">
        <time>2019-03-23T11:58:35Z</time>
      </trkpt>
      <trkpt lat="38.99064" lon="-0.50022">
        <time>2019-03-23T11:58:36Z</time>
      </trkpt>
      <trkpt lat="38.99066" lon="-0.49995">
        <time>2019-03-23T11:58:37Z</time>
      </trkpt>
      <trkpt lat="38.99067" lon="-0.49968">
        <time>2019-03-23T11:58:38Z</time>
      </trkpt>
      <trkpt lat="38.99069" lon="-0.49941">
        <time>2019-03-23T11:58:39Z</time>
      </trkpt>
      <trkpt lat="38.99072" lon="-0.49911">
        <time>2019-03-23T11:58:40Z</time>
      </trkpt>
      <trkpt lat="38.99074" lon="-0.4989">
        <time>2019-03-23T11:58:41Z</time>
      </trkpt>
      <trkpt lat="38.99075" lon="-0.4987">
        <time>2019-03-23T11:58:42Z</time>
      </trkpt>
      <trkpt lat="38.99074" lon="-0.49852">
        <time>2019-03-23T11:58:43Z</time>
      </trkpt>
      <trkpt lat="38.99073" lon="-0.49835">
        <time>2019-03-23T11:58:44Z</time>
      </trkpt>
      <trkpt lat="38.99074" lon="-0.49817">
        <time>2019-03-23T11:58:45Z</time>
      </trkpt>
      <trkpt lat="38.99077" lon="-0.49801">
        <time>2019-03-23T11:58:46Z</time>
      </trkpt>
      <trkpt lat="38.99083" lon="-0.49785">
        <time>2019-03-23T11:58:47Z</time>
      </trkpt>
      <trkpt lat="38.99089" lon="-0.49765">
        <time>2019-03-23T11:58:48Z</time>
      </trkpt>
      <trkpt lat="38.99093" lon="-0.49745">
        <time>2019-03-23T11:58:49Z</time>
      </trkpt>
      <trkpt lat="38.99098" lon="-0.49724">
        <time>2019-03-23T11:58:50Z</time>
      </trkpt>
      <trkpt lat="38.99102" lon="-0.49703">
        <time>2019-03-23T11:58:51Z</time>
      </trkpt>
      <trkpt lat="38.99106" lon="-0.49681">
        <time>2019-03-23T11:58:52Z</time>
      </trkpt>
      <trkpt lat="38.9911" lon="-0.49657">
        <time>2019-03-23T11:58:53Z</time>
      </trkpt>
      <trkpt lat="38.99113" lon="-0.49633">
        <time>2019-03-23T11:58:54Z</time>
      </trkpt>
      <trkpt lat="38.99116" lon="-0.49609">
        <time>2019-03-23T11:58:55Z</time>
      </trkpt>
      <trkpt lat="38.99118" lon="-0.49584">
        <time>2019-03-23T11:58:56Z</time>
      </trkpt>
      <trkpt lat="38.99119" lon="-0.49559">
        <time>2019-03-23T11:58:57Z</time>
      </trkpt>
      <trkpt lat="38.99119" lon="-0.49531">
        <time>2019-03-23T11:58:58Z</time>
      </trkpt>
      <trkpt lat="38.99114" lon="-0.49502">
        <time>2019-03-23T11:58:59Z</time>
      </trkpt>
      <trkpt lat="38.99114" lon="-0.49473">
        <time>2019-03-23T11:59:00Z</time>
      </trkpt>
      <trkpt lat="38.99115" lon="-0.49444">
        <time>2019-03-23T11:59:01Z</time>
      </trkpt>
      <trkpt lat="38.99115" lon="-0.49414">
        <time>2019-03-23T11:59:02Z</time>
      </trkpt>
      <trkpt lat="38.99116" lon="-0.49384">
        <time>2019-03-23T11:59:03Z</time>
      </trkpt>
      <trkpt lat="38.99116" lon="-0.49354">
        <time>2019-03-23T11:59:04Z</time>
      </trkpt>
      <trkpt lat="38.99117" lon="-0.49325">
        <time>2019-03-23T11:59:05Z</time>
      </trkpt>
      <trkpt lat="38.99117" lon="-0.49296">
        <time>2019-03-23T11:59:06Z</time>
      </trkpt>
      <trkpt lat="38.99118" lon="-0.49267">
        <time>2019-03-23T11:59:07Z</time>
      </trkpt>
      <trkpt lat="38.99118" lon="-0.49238">
        <time>2019-03-23T11:59:08Z</time>
      </trkpt>
      <trkpt lat="38.99119" lon="-0.49209">
        <time>2019-03-23T11:59:09Z</time>
      </trkpt>
      <trkpt lat="38.99119" lon="-0.49182">
        <time>2019-03-23T11:59:10Z</time>
      </trkpt>
      <trkpt lat="38.99119" lon="-0.49157">
        <time>2019-03-23T11:59:11Z</time>
      </trkpt>
      <trkpt lat="38.99119" lon="-0.49133">
        <time>2019-03-23T11:59:12Z</time>
      </trkpt>
      <trkpt lat="38.9912" lon="-0.49109">
        <time>2019-03-23T11:59:13Z</time>
      </trkpt>
      <trkpt lat="38.99119" lon="-0.49088">
        <time>2019-03-23T11:59:14Z</time>
      </trkpt>
      <trkpt lat="38.99118" lon="-0.49071">
        <time>2019-03-23T11:59:15Z</time>
      </trkpt>
      <trkpt lat="38.99116" lon="-0.49054">
        <time>2019-03-23T11:59:16Z</time>
      </trkpt>
      <trkpt lat="38.99113" lon="-0.49037">
        <time>2019-03-23T11:59:17Z</time>
      </trkpt>
      <trkpt lat="38.99107" lon="-0.49019">
        <time>2019-03-23T11:59:18Z</time>
      </trkpt>
      <trkpt lat="38.991" lon="-0.49003">
        <time>2019-03-23T11:59:19Z</time>
      </trkpt>
      <trkpt lat="38.9909" lon="-0.48987">
        <time>2019-03-23T11:59:20Z</time>
      </trkpt>
      <trkpt lat="38.9908" lon="-0.48974">
        <time>2019-03-23T11:59:21Z</time>
      </trkpt>
      <trkpt lat="38.9907" lon="-0.48961">
        <time>2019-03-23T11:59:22Z</time>
      </trkpt>
      <trkpt lat="38.99057" lon="-0.4895">
        <time>2019-03-23T11:59:23Z</time>
      </trkpt>
      <trkpt lat="38.99045" lon="-0.48939">
        <time>2019-03-23T11:59:24Z</time>
      </trkpt>
      <trkpt lat="38.9903" lon="-0.48927">
        <time>2019-03-23T11:59:25Z</time>
      </trkpt>
      <trkpt lat="38.99016" lon="-0.48914">
        <time>2019-03-23T11:59:26Z</time>
      </trkpt>
      <trkpt lat="38.99002" lon="-0.48903">
        <time>2019-03-23T11:59:27Z</time>
      </trkpt>
      <trkpt lat="38.98986" lon="-0.4889">
        <time>2019-03-23T11:59:28Z</time>
      </trkpt>
      <trkpt lat="38.98972" lon="-0.48878">
        <time>2019-03-23T11:59:29Z</time>
      </trkpt>
      <trkpt lat="38.98955" lon="-0.48864">
        <time>2019-03-23T11:59:30Z</time>
      </trkpt>
      <trkpt lat="38.98939" lon="-0.48851">
        <time>2019-03-23T11:59:31Z</time>
      </trkpt>
      <trkpt lat="38.98926" lon="-0.48841">
        <time>2019-03-23T11:59:32Z</time>
      </trkpt>
      <trkpt lat="38.98911" lon="-0.48828">
        <time>2019-03-23T11:59:33Z</time>
      </trkpt>
      <trkpt lat="38.98897" lon="-0.48816">
        <time>2019-03-23T11:59:34Z</time>
      </trkpt>
      <trkpt lat="38.98885" lon="-0.48806">
        <time>2019-03-23T11:59:35Z</time>
      </trkpt>
      <trkpt lat="38.98873" lon="-0.48794">
        <time>2019-03-23T11:59:36Z</time>
      </trkpt>
      <trkpt lat="38.98861" lon="-0.48781">
        <time>2019-03-23T11:59:37Z</time>
      </trkpt>
      <trkpt lat="38.9885" lon="-0.48767">
        <time>2019-03-23T11:59:38Z</time>
      </trkpt>
      <trkpt lat="38.98841" lon="-0.48752">
        <time>2019-03-23T11:59:39Z</time>
      </trkpt>
      <trkpt lat="38.98832" lon="-0.48736">
        <time>2019-03-23T11:59:40Z</time>
      </trkpt>
      <trkpt lat="38.98824" lon="-0.48718">
        <time>2019-03-23T11:59:41Z</time>
      </trkpt>
      <trkpt lat="38.98818" lon="-0.487">
        <time>2019-03-23T11:59:42Z</time>
      </trkpt>
      <trkpt lat="38.98812" lon="-0.48683">
        <time>2019-03-23T11:59:43Z</time>
      </trkpt>
      <trkpt lat="38.98805" lon="-0.48664">
        <time>2019-03-23T11:59:44Z</time>
      </trkpt>
      <trkpt lat="38.988" lon="-0.48648">
        <time>2019-03-23T11:59:45Z</time>
      </trkpt>
      <trkpt lat="38.98794" lon="-0.48629">
        <time>2019-03-23T11:59:46Z</time>
      </trkpt>
      <trkpt lat="38.98788" lon="-0.48611">
        <time>2019-03-23T11:59:47Z</time>
      </trkpt>
      <trkpt lat="38.98783" lon="-0.48595">
        <time>2019-03-23T11:59:48Z</time>
      </trkpt>
      <trkpt lat="38.98777" lon="-0.48579">
        <time>2019-03-23T11:59:49Z</time>
      </trkpt>
      <trkpt lat="38.98772" lon="-0.48564">
        <time>2019-03-23T11:59:50Z</time>
      </trkpt>
      <trkpt lat="38.98768" lon="-0.4855">
        <time>2019-03-23T11:59:51Z</time>
      </trkpt>
      <trkpt lat="38.98763" lon="-0.48534">
        <time>2019-03-23T11:59:52Z</time>
      </trkpt>
      <trkpt lat="38.98758" lon="-0.48519">
        <time>2019-03-23T11:59:53Z</time>
      </trkpt>
      <trkpt lat="38.98753" lon="-0.48502">
        <time>2019-03-23T11:59:54Z</time>
      </trkpt>
      <trkpt lat="38.98747" lon="-0.48484">
        <time>2019-03-23T11:59:55Z</time>
      </trkpt>
      <trkpt lat="38.98741" lon="-0.48467">
        <time>2019-03-23T11:59:56Z</time>
      </trkpt>
      <trkpt lat="38.98734" lon="-0.48447">
        <time>2019-03-23T11:59:57Z</time>
      </trkpt>
      <trkpt lat="38.98726" lon="-0.48427">
        <time>2019-03-23T11:59:58Z</time>
      </trkpt>
      <trkpt lat="38.98716" lon="-0.48406">
        <time>2019-03-23T11:59:59Z</time>
      </trkpt>
      <trkpt lat="38.98705" lon="-0.48381">
        <time>2019-03-23T12:00:00Z</time>
      </trkpt>
      <trkpt lat="38.98701" lon="-0.48363">
        <time>2019-03-23T12:00:01Z</time>
      </trkpt>
      <trkpt lat="38.98701" lon="-0.48348">
        <time>2019-03-23T12:00:02Z</time>
      </trkpt>
      <trkpt lat="38.98694" lon="-0.48329">
        <time>2019-03-23T12:00:03Z</time>
      </trkpt>
      <trkpt lat="38.98688" lon="-0.48309">
        <time>2019-03-23T12:00:04Z</time>
      </trkpt>
      <trkpt lat="38.98682" lon="-0.48289">
        <time>2019-03-23T12:00:05Z</time>
      </trkpt>
      <trkpt lat="38.98677" lon="-0.48268">
        <time>2019-03-23T12:00:06Z</time>
      </trkpt>
      <trkpt lat="38.98673" lon="-0.48246">
        <time>2019-03-23T12:00:07Z</time>
      </trkpt>
      <trkpt lat="38.98669" lon="-0.48222">
        <time>2019-03-23T12:00:08Z</time>
      </trkpt>
      <trkpt lat="38.98666" lon="-0.48198">
        <time>2019-03-23T12:00:09Z</time>
      </trkpt>
      <trkpt lat="38.98665" lon="-0.48174">
        <time>2019-03-23T12:00:10Z</time>
      </trkpt>
      <trkpt lat="38.98667" lon="-0.48148">
        <time>2019-03-23T12:00:11Z</time>
      </trkpt>
      <trkpt lat="38.98669" lon="-0.48122">
        <time>2019-03-23T12:00:12Z</time>
      </trkpt>
      <trkpt lat="38.98672" lon="-0.48096">
        <time>2019-03-23T12:00:13Z</time>
      </trkpt>
      <trkpt lat="38.98677" lon="-0.48071">
        <time>2019-03-23T12:00:14Z</time>
      </trkpt>
      <trkpt lat="38.98682" lon="-0.48047">
        <time>2019-03-23T12:00:15Z</time>
      </trkpt>
      <trkpt lat="38.98689" lon="-0.48025">
        <time>2019-03-23T12:00:16Z</time>
      </trkpt>
      <trkpt lat="38.98696" lon="-0.48005">
        <time>2019-03-23T12:00:17Z</time>
      </trkpt>
      <trkpt lat="38.98704" lon="-0.47984">
        <time>2019-03-23T12:00:18Z</time>
      </trkpt>
      <trkpt lat="38.98711" lon="-0.47964">
        <time>2019-03-23T12:00:19Z</time>
      </trkpt>
      <trkpt lat="38.98718" lon="-0.47944">
        <time>2019-03-23T12:00:20Z</time>
      </trkpt>
      <trkpt lat="38.98724" lon="-0.47922">
        <time>2019-03-23T12:00:21Z</time>
      </trkpt>
      <trkpt lat="38.9873" lon="-0.47901">
        <time>2019-03-23T12:00:22Z</time>
      </trkpt>
      <trkpt lat="38.98735" lon="-0.47878">
        <time>2019-03-23T12:00:23Z</time>
      </trkpt>
      <trkpt lat="38.98738" lon="-0.47855">
        <time>2019-03-23T12:00:24Z</time>
      </trkpt>
      <trkpt lat="38.9874" lon="-0.47834">
        <time>2019-03-23T12:00:25Z</time>
      </trkpt>
      <trkpt lat="38.98742" lon="-0.47814">
        <time>2019-03-23T12:00:26Z</time>
      </trkpt>
      <trkpt lat="38.98742" lon="-0.47795">
        <time>2019-03-23T12:00:27Z</time>
      </trkpt>
      <trkpt lat="38.98742" lon="-0.47777">
        <time>2019-03-23T12:00:28Z</time>
      </trkpt>
      <trkpt lat="38.98741" lon="-0.47761">
        <time>2019-03-23T12:00:29Z</time>
      </trkpt>
      <trkpt lat="38.9874" lon="-0.47746">
        <time>2019-03-23T12:00:30Z</time>
      </trkpt>
      <trkpt lat="38.9874" lon="-0.4773">
        <time>2019-03-23T12:00:31Z</time>
      </trkpt>
      <trkpt lat="38.98739" lon="-0.47714">
        <time>2019-03-23T12:00:32Z</time>
      </trkpt>
      <trkpt lat="38.98738" lon="-0.47698">
        <time>2019-03-23T12:00:33Z</time>
      </trkpt>
      <trkpt lat="38.98736" lon="-0.47683">
        <time>2019-03-23T12:00:34Z</time>
      </trkpt>
      <trkpt lat="38.98734" lon="-0.4767">
        <time>2019-03-23T12:00:35Z</time>
      </trkpt>
      <trkpt lat="38.98732" lon="-0.47657">
        <time>2019-03-23T12:00:36Z</time>
      </trkpt>
      <trkpt lat="38.98728" lon="-0.47647">
        <time>2019-03-23T12:00:37Z</time>
      </trkpt>
      <trkpt lat="38.98724" lon="-0.47635">
        <time>2019-03-23T12:00:38Z</time>
      </trkpt>
      <trkpt lat="38.98724" lon="-0.47623">
        <time>2019-03-23T12:00:39Z</time>
      </trkpt>
      <trkpt lat="38.98726" lon="-0.4761">
        <time>2019-03-23T12:00:40Z</time>
      </trkpt>
      <trkpt lat="38.98728" lon="-0.47596">
        <time>2019-03-23T12:00:41Z</time>
      </trkpt>
      <trkpt lat="38.98729" lon="-0.47581">
        <time>2019-03-23T12:00:42Z</time>
      </trkpt>
      <trkpt lat="38.9873" lon="-0.47565">
        <time>2019-03-23T12:00:43Z</time>
      </trkpt>
      <trkpt lat="38.9873" lon="-0.47549">
        <time>2019-03-23T12:00:44Z</time>
      </trkpt>
      <trkpt lat="38.98731" lon="-0.47532">
        <time>2019-03-23T12:00:45Z</time>
      </trkpt>
      <trkpt lat="38.98731" lon="-0.47514">
        <time>2019-03-23T12:00:46Z</time>
      </trkpt>
      <trkpt lat="38.98731" lon="-0.47495">
        <time>2019-03-23T12:00:47Z</time>
      </trkpt>
      <trkpt lat="38.9873" lon="-0.47476">
        <time>2019-03-23T12:00:48Z</time>
      </trkpt>
      <trkpt lat="38.9873" lon="-0.47457">
        <time>2019-03-23T12:00:49Z</time>
      </trkpt>
      <trkpt lat="38.9873" lon="-0.47439">
        <time>2019-03-23T12:00:50Z</time>
      </trkpt>
      <trkpt lat="38.98729" lon="-0.47419">
        <time>2019-03-23T12:00:51Z</time>
      </trkpt>
      <trkpt lat="38.98729" lon="-0.47401">
        <time>2019-03-23T12:00:52Z</time>
      </trkpt>
      <trkpt lat="38.98729" lon="-0.47385">
        <time>2019-03-23T12:00:53Z</time>
      </trkpt>
      <trkpt lat="38.98729" lon="-0.47369">
        <time>2019-03-23T12:00:54Z</time>
      </trkpt>
      <trkpt lat="38.9873" lon="-0.47355">
        <time>2019-03-23T12:00:55Z</time>
      </trkpt>
      <trkpt lat="38.98732" lon="-0.47341">
        <time>2019-03-23T12:00:56Z</time>
      </trkpt>
      <trkpt lat="38.98733" lon="-0.47327">
        <time>2019-03-23T12:00:57Z</time>
      </trkpt>
      <trkpt lat="38.98735" lon="-0.47315">
        <time>2019-03-23T12:00:58Z</time>
      </trkpt>
      <trkpt lat="38.98736" lon="-0.47303">
        <time>2019-03-23T12:00:59Z</time>
      </trkpt>
      <trkpt lat="38.98735" lon="-0.47292">
        <time>2019-03-23T12:01:00Z</time>
      </trkpt>
      <trkpt lat="38.98735" lon="-0.47282">
        <time>2019-03-23T12:01:01Z</time>
      </trkpt>
      <trkpt lat="38.98737" lon="-0.47272">
        <time>2019-03-23T12:01:02Z</time>
      </trkpt>
      <trkpt lat="38.98741" lon="-0.47263">
        <time>2019-03-23T12:01:03Z</time>
      </trkpt>
      <trkpt lat="38.98747" lon="-0.47255">
        <time>2019-03-23T12:01:04Z</time>
      </trkpt>
      <trkpt lat="38.98753" lon="-0.47247">
        <time>2019-03-23T12:01:05Z</time>
      </trkpt>
      <trkpt lat="38.98758" lon="-0.47238">
        <time>2019-03-23T12:01:06Z</time>
      </trkpt>
      <trkpt lat="38.98765" lon="-0.47229">
        <time>2019-03-23T12:01:07Z</time>
      </trkpt>
      <trkpt lat="38.98772" lon="-0.47221">
        <time>2019-03-23T12:01:08Z</time>
      </trkpt>
      <trkpt lat="38.98779" lon="-0.47213">
        <time>2019-03-23T12:01:09Z</time>
      </trkpt>
      <trkpt lat="38.98787" lon="-0.47207">
        <time>2019-03-23T12:01:10Z</time>
      </trkpt>
      <trkpt lat="38.98796" lon="-0.47201">
        <time>2019-03-23T12:01:11Z</time>
      </trkpt>
      <trkpt lat="38.98805" lon="-0.47196">
        <time>2019-03-23T12:01:12Z</time>
      </trkpt>
      <trkpt lat="38.98813" lon="-0.47191">
        <time>2019-03-23T12:01:13Z</time>
      </trkpt>
      <trkpt lat="38.98821" lon="-0.47186">
        <time>2019-03-23T12:01:14Z</time>
      </trkpt>
      <trkpt lat="38.98828" lon="-0.47181">
        <time>2019-03-23T12:01:15Z</time>
      </trkpt>
      <trkpt lat="38.98833" lon="-0.47177">
        <time>2019-03-23T12:01:16Z</time>
      </trkpt>
      <trkpt lat="38.98838" lon="-0.47173">
        <time>2019-03-23T12:01:17Z</time>
      </trkpt>
      <trkpt lat="38.98841" lon="-0.47172">
        <time>2019-03-23T12:01:18Z</time>
      </trkpt>
      <trkpt lat="38.98843" lon="-0.4717">
        <time>2019-03-23T12:01:19Z</time>
      </trkpt>
      <trkpt lat="38.98844" lon="-0.47169">
        <time>2019-03-23T12:01:20Z</time>
      </trkpt>
      <trkpt lat="38.98843" lon="-0.47169">
        <time>2019-03-23T12:03:42Z</time>
      </trkpt>
      <trkpt lat="38.98845" lon="-0.47168">
        <time>2019-03-23T12:03:43Z</time>
      </trkpt>
      <trkpt lat="38.98847" lon="-0.47169">
        <time>2019-03-23T12:03:44Z</time>
      </trkpt>
      <trkpt lat="38.98849" lon="-0.4717">
        <time>2019-03-23T12:03:45Z</time>
      </trkpt>
      <trkpt lat="38.98852" lon="-0.47169">
        <time>2019-03-23T12:03:46Z</time>
      </trkpt>
      <trkpt lat="38.98854" lon="-0.47167">
        <time>2019-03-23T12:03:47Z</time>
      </trkpt>
      <trkpt lat="38.98855" lon="-0.47166">
        <time>2019-03-23T12:03:48Z</time>
      </trkpt>
      <trkpt lat="38.98858" lon="-0.47167">
        <time>2019-03-23T12:03:57Z</time>
      </trkpt>
      <trkpt lat="38.98863" lon="-0.47164">
        <time>2019-03-23T12:03:58Z</time>
      </trkpt>
      <trkpt lat="38.9887" lon="-0.47161">
        <time>2019-03-23T12:03:59Z</time>
      </trkpt>
      <trkpt lat="38.98878" lon="-0.47157">
        <time>2019-03-23T12:04:00Z</time>
      </trkpt>
      <trkpt lat="38.98886" lon="-0.47152">
        <time>2019-03-23T12:04:01Z</time>
      </trkpt>
      <trkpt lat="38.98893" lon="-0.47147">
        <time>2019-03-23T12:04:02Z</time>
      </trkpt>
      <trkpt lat="38.98902" lon="-0.47142">
        <time>2019-03-23T12:04:03Z</time>
      </trkpt>
      <trkpt lat="38.98909" lon="-0.47138">
        <time>2019-03-23T12:04:04Z</time>
      </trkpt>
      <trkpt lat="38.98918" lon="-0.47133">
        <time>2019-03-23T12:04:05Z</time>
      </trkpt>
      <trkpt lat="38.98929" lon="-0.47126">
        <time>2019-03-23T12:04:06Z</time>
      </trkpt>
      <trkpt lat="38.98942" lon="-0.47119">
        <time>2019-03-23T12:04:07Z</time>
      </trkpt>
      <trkpt lat="38.98954" lon="-0.47111">
        <time>2019-03-23T12:04:08Z</time>
      </trkpt>
      <trkpt lat="38.98968" lon="-0.47104">
        <time>2019-03-23T12:04:09Z</time>
      </trkpt>
      <trkpt lat="38.98981" lon="-0.47096">
        <time>2019-03-23T12:04:10Z</time>
      </trkpt>
      <trkpt lat="38.98992" lon="-0.47089">
        <time>2019-03-23T12:04:11Z</time>
      </trkpt>
      <trkpt lat="38.99001" lon="-0.47078">
        <time>2019-03-23T12:04:12Z</time>
      </trkpt>
      <trkpt lat="38.99008" lon="-0.47064">
        <time>2019-03-23T12:04:13Z</time>
      </trkpt>
      <trkpt lat="38.99011" lon="-0.4705">
        <time>2019-03-23T12:04:14Z</time>
      </trkpt>
      <trkpt lat="38.99012" lon="-0.47036">
        <time>2019-03-23T12:04:15Z</time>
      </trkpt>
      <trkpt lat="38.99011" lon="-0.47023">
        <time>2019-03-23T12:04:16Z</time>
      </trkpt>
      <trkpt lat="38.99009" lon="-0.47008">
        <time>2019-03-23T12:04:17Z</time>
      </trkpt>
      <trkpt lat="38.99007" lon="-0.46993">
        <time>2019-03-23T12:04:18Z</time>
      </trkpt>
      <trkpt lat="38.99006" lon="-0.46978">
        <time>2019-03-23T12:04:19Z</time>
      </trkpt>
      <trkpt lat="38.99005" lon="-0.46964">
        <time>2019-03-23T12:04:20Z</time>
      </trkpt>
      <trkpt lat="38.99003" lon="-0.4695">
        <time>2019-03-23T12:04:21Z</time>
      </trkpt>
      <trkpt lat="38.99002" lon="-0.46936">
        <time>2019-03-23T12:04:22Z</time>
      </trkpt>
      <trkpt lat="38.99001" lon="-0.46921">
        <time>2019-03-23T12:04:23Z</time>
      </trkpt>
      <trkpt lat="38.98999" lon="-0.46907">
        <time>2019-03-23T12:04:24Z</time>
      </trkpt>
      <trkpt lat="38.98998" lon="-0.46894">
        <time>2019-03-23T12:04:25Z</time>
      </trkpt>
      <trkpt lat="38.98996" lon="-0.46881">
        <time>2019-03-23T12:04:26Z</time>
      </trkpt>
      <trkpt lat="38.98995" lon="-0.46869">
        <time>2019-03-23T12:04:27Z</time>
      </trkpt>
      <trkpt lat="38.98994" lon="-0.46855">
        <time>2019-03-23T12:04:28Z</time>
      </trkpt>
      <trkpt lat="38.98992" lon="-0.46842">
        <time>2019-03-23T12:04:29Z</time>
      </trkpt>
      <trkpt lat="38.98991" lon="-0.46828">
        <time>2019-03-23T12:04:30Z</time>
      </trkpt>
      <trkpt lat="38.98989" lon="-0.46814">
        <time>2019-03-23T12:04:31Z</time>
      </trkpt>
      <trkpt lat="38.98988" lon="-0.468">
        <time>2019-03-23T12:04:32Z</time>
      </trkpt>
      <trkpt lat="38.98987" lon="-0.46788">
        <time>2019-03-23T12:04:33Z</time>
      </trkpt>
      <trkpt lat="38.98986" lon="-0.46777">
        <time>2019-03-23T12:04:34Z</time>
      </trkpt>
      <trkpt lat="38.98984" lon="-0.46765">
        <time>2019-03-23T12:04:35Z</time>
      </trkpt>
      <trkpt lat="38.98983" lon="-0.46752">
        <time>2019-03-23T12:04:36Z</time>
      </trkpt>
      <trkpt lat="38.98982" lon="-0.46738">
        <time>2019-03-23T12:04:37Z</time>
      </trkpt>
      <trkpt lat="38.98981" lon="-0.46724">
        <time>2019-03-23T12:04:38Z</time>
      </trkpt>
      <trkpt lat="38.9898" lon="-0.46711">
        <time>2019-03-23T12:04:39Z</time>
      </trkpt>
      <trkpt lat="38.98979" lon="-0.46697">
        <time>2019-03-23T12:04:40Z</time>
      </trkpt>
      <trkpt lat="38.98977" lon="-0.46686">
        <time>2019-03-23T12:04:41Z</time>
      </trkpt>
      <trkpt lat="38.98975" lon="-0.46675">
        <time>2019-03-23T12:04:42Z</time>
      </trkpt>
      <trkpt lat="38.98973" lon="-0.46666">
        <time>2019-03-23T12:04:43Z</time>
      </trkpt>
      <trkpt lat="38.98969" lon="-0.46658">
        <time>2019-03-23T12:04:44Z</time>
      </trkpt>
      <trkpt lat="38.98964" lon="-0.46651">
        <time>2019-03-23T12:04:45Z</time>
      </trkpt>
      <trkpt lat="38.98962" lon="-0.46642">
        <time>2019-03-23T12:04:46Z</time>
      </trkpt>
      <trkpt lat="38.98962" lon="-0.46631">
        <time>2019-03-23T12:04:47Z</time>
      </trkpt>
      <trkpt lat="38.98965" lon="-0.4662">
        <time>2019-03-23T12:04:48Z</time>
      </trkpt>
      <trkpt lat="38.98967" lon="-0.46609">
        <time>2019-03-23T12:04:49Z</time>
      </trkpt>
      <trkpt lat="38.98967" lon="-0.46597">
        <time>2019-03-23T12:04:50Z</time>
      </trkpt>
      <trkpt lat="38.98967" lon="-0.46585">
        <time>2019-03-23T12:04:51Z</time>
      </trkpt>
      <trkpt lat="38.98966" lon="-0.46573">
        <time>2019-03-23T12:04:52Z</time>
      </trkpt>
      <trkpt lat="38.98965" lon="-0.46561">
        <time>2019-03-23T12:04:53Z</time>
      </trkpt>
      <trkpt lat="38.98964" lon="-0.46548">
        <time>2019-03-23T12:04:54Z</time>
      </trkpt>
      <trkpt lat="38.98962" lon="-0.46538">
        <time>2019-03-23T12:04:55Z</time>
      </trkpt>
      <trkpt lat="38.98961" lon="-0.46527">
        <time>2019-03-23T12:04:56Z</time>
      </trkpt>
      <trkpt lat="38.9896" lon="-0.46517">
        <time>2019-03-23T12:04:57Z</time>
      </trkpt>
      <trkpt lat="38.9896" lon="-0.46506">
        <time>2019-03-23T12:04:58Z</time>
      </trkpt>
      <trkpt lat="38.98959" lon="-0.46495">
        <time>2019-03-23T12:04:59Z</time>
      </trkpt>
      <trkpt lat="38.98958" lon="-0.46485">
        <time>2019-03-23T12:05:00Z</time>
      </trkpt>
      <trkpt lat="38.98957" lon="-0.46474">
        <time>2019-03-23T12:05:01Z</time>
      </trkpt>
      <trkpt lat="38.98956" lon="-0.46463">
        <time>2019-03-23T12:05:02Z</time>
      </trkpt>
      <trkpt lat="38.98955" lon="-0.46452">
        <time>2019-03-23T12:05:03Z</time>
      </trkpt>
      <trkpt lat="38.98955" lon="-0.46441">
        <time>2019-03-23T12:05:04Z</time>
      </trkpt>
      <trkpt lat="38.98954" lon="-0.4643">
        <time>2019-03-23T12:05:05Z</time>
      </trkpt>
      <trkpt lat="38.98953" lon="-0.46419">
        <time>2019-03-23T12:05:06Z</time>
      </trkpt>
      <trkpt lat="38.98952" lon="-0.46408">
        <time>2019-03-23T12:05:07Z</time>
      </trkpt>
      <trkpt lat="38.98952" lon="-0.46396">
        <time>2019-03-23T12:05:08Z</time>
      </trkpt>
      <trkpt lat="38.9895" lon="-0.46383">
        <time>2019-03-23T12:05:09Z</time>
      </trkpt>
      <trkpt lat="38.98948" lon="-0.46369">
        <time>2019-03-23T12:05:10Z</time>
      </trkpt>
      <trkpt lat="38.98947" lon="-0.46355">
        <time>2019-03-23T12:05:11Z</time>
      </trkpt>
      <trkpt lat="38.98946" lon="-0.46343">
        <time>2019-03-23T12:05:12Z</time>
      </trkpt>
      <trkpt lat="38.98945" lon="-0.46333">
        <time>2019-03-23T12:05:13Z</time>
      </trkpt>
      <trkpt lat="38.98943" lon="-0.46326">
        <time>2019-03-23T12:05:14Z</time>
      </trkpt>
      <trkpt lat="38.98941" lon="-0.46321">
        <time>2019-03-23T12:05:15Z</time>
      </trkpt>
      <trkpt lat="38.98941" lon="-0.46317">
        <time>2019-03-23T12:05:16Z</time>
      </trkpt>
      <trkpt lat="38.98942" lon="-0.46314">
        <time>2019-03-23T12:05:17Z</time>
      </trkpt>
      <trkpt lat="38.98943" lon="-0.46313">
        <time>2019-03-23T12:05:18Z</time>
      </trkpt>
      <trkpt lat="38.98947" lon="-0.46313">
        <time>2019-03-23T12:05:19Z</time>
      </trkpt>
      <trkpt lat="38.9895" lon="-0.46316">
        <time>2019-03-23T12:05:20Z</time>
      </trkpt>
      <trkpt lat="38.98951" lon="-0.46323">
        <time>2019-03-23T12:05:21Z</time>
      </trkpt>
      <trkpt lat="38.98951" lon="-0.46333">
        <time>2019-03-23T12:05:22Z</time>
      </trkpt>
      <trkpt lat="38.98953" lon="-0.46346">
        <time>2019-03-23T12:05:23Z</time>
      </trkpt>
      <trkpt lat="38.98954" lon="-0.46361">
        <time>2019-03-23T12:05:24Z</time>
      </trkpt>
      <trkpt lat="38.98955" lon="-0.4638">
        <time>2019-03-23T12:05:25Z</time>
      </trkpt>
      <trkpt lat="38.98957" lon="-0.464">
        <time>2019-03-23T12:05:26Z</time>
      </trkpt>
      <trkpt lat="38.98959" lon="-0.4642">
        <time>2019-03-23T12:05:27Z</time>
      </trkpt>
      <trkpt lat="38.98962" lon="-0.46438">
        <time>2019-03-23T12:05:28Z</time>
      </trkpt>
      <trkpt lat="38.98964" lon="-0.46456">
        <time>2019-03-23T12:05:29Z</time>
      </trkpt>
      <trkpt lat="38.98967" lon="-0.46474">
        <time>2019-03-23T12:05:30Z</time>
      </trkpt>
      <trkpt lat="38.9897" lon="-0.46491">
        <time>2019-03-23T12:05:31Z</time>
      </trkpt>
      <trkpt lat="38.98971" lon="-0.46507">
        <time>2019-03-23T12:05:32Z</time>
      </trkpt>
      <trkpt lat="38.98972" lon="-0.4652">
        <time>2019-03-23T12:05:33Z</time>
      </trkpt>
      <trkpt lat="38.98972" lon="-0.46529">
        <time>2019-03-23T12:05:34Z</time>
      </trkpt>
      <trkpt lat="38.98973" lon="-0.46535">
        <time>2019-03-23T12:05:35Z</time>
      </trkpt>
      <trkpt lat="38.98976" lon="-0.46537">
        <time>2019-03-23T12:05:36Z</time>
      </trkpt>
      <trkpt lat="38.98979" lon="-0.46536">
        <time>2019-03-23T12:05:37Z</time>
      </trkpt>
      <trkpt lat="38.98982" lon="-0.46533">
        <time>2019-03-23T12:05:38Z</time>
      </trkpt>
      <trkpt lat="38.98985" lon="-0.46528">
        <time>2019-03-23T12:05:39Z</time>
      </trkpt>
      <trkpt lat="38.98989" lon="-0.46519">
        <time>2019-03-23T12:05:40Z</time>
      </trkpt>
      <trkpt lat="38.98991" lon="-0.46508">
        <time>2019-03-23T12:05:41Z</time>
      </trkpt>
      <trkpt lat="38.98999" lon="-0.46494">
        <time>2019-03-23T12:05:42Z</time>
      </trkpt>
      <trkpt lat="38.99006" lon="-0.4648">
        <time>2019-03-23T12:05:43Z</time>
      </trkpt>
      <trkpt lat="38.99013" lon="-0.46465">
        <time>2019-03-23T12:05:44Z</time>
      </trkpt>
      <trkpt lat="38.99022" lon="-0.4645">
        <time>2019-03-23T12:05:45Z</time>
      </trkpt>
      <trkpt lat="38.99033" lon="-0.46435">
        <time>2019-03-23T12:05:46Z</time>
      </trkpt>
      <trkpt lat="38.99043" lon="-0.46418">
        <time>2019-03-23T12:05:47Z</time>
      </trkpt>
      <trkpt lat="38.99054" lon="-0.46403">
        <time>2019-03-23T12:05:48Z</time>
      </trkpt>
      <trkpt lat="38.99062" lon="-0.46389">
        <time>2019-03-23T12:05:49Z</time>
      </trkpt>
      <trkpt lat="38.99072" lon="-0.46375">
        <time>2019-03-23T12:05:50Z</time>
      </trkpt>
      <trkpt lat="38.99082" lon="-0.46362">
        <time>2019-03-23T12:05:51Z</time>
      </trkpt>
      <trkpt lat="38.99091" lon="-0.46347">
        <time>2019-03-23T12:05:52Z</time>
      </trkpt>
      <trkpt lat="38.99099" lon="-0.46331">
        <time>2019-03-23T12:05:53Z</time>
      </trkpt>
      <trkpt lat="38.99108" lon="-0.46316">
        <time>2019-03-23T12:05:54Z</time>
      </trkpt>
      <trkpt lat="38.99117" lon="-0.46301">
        <time>2019-03-23T12:05:55Z</time>
      </trkpt>
      <trkpt lat="38.99125" lon="-0.46287">
        <time>2019-03-23T12:05:56Z</time>
      </trkpt>
      <trkpt lat="38.99133" lon="-0.46275">
        <time>2019-03-23T12:05:57Z</time>
      </trkpt>
      <trkpt lat="38.99142" lon="-0.46262">
        <time>2019-03-23T12:05:58Z</time>
      </trkpt>
      <trkpt lat="38.9915" lon="-0.46248">
        <time>2019-03-23T12:05:59Z</time>
      </trkpt>
      <trkpt lat="38.99157" lon="-0.46234">
        <time>2019-03-23T12:06:00Z</time>
      </trkpt>
      <trkpt lat="38.99165" lon="-0.46221">
        <time>2019-03-23T12:06:01Z</time>
      </trkpt>
      <trkpt lat="38.99171" lon="-0.4621">
        <time>2019-03-23T12:06:02Z</time>
      </trkpt>
      <trkpt lat="38.99178" lon="-0.46199">
        <time>2019-03-23T12:06:03Z</time>
      </trkpt>
      <trkpt lat="38.99185" lon="-0.46191">
        <time>2019-03-23T12:06:04Z</time>
      </trkpt>
      <trkpt lat="38.99196" lon="-0.46186">
        <time>2019-03-23T12:06:05Z</time>
      </trkpt>
      <trkpt lat="38.99208" lon="-0.46184">
        <time>2019-03-23T12:06:06Z</time>
      </trkpt>
      <trkpt lat="38.9922" lon="-0.46182">
        <time>2019-03-23T12:06:07Z</time>
      </trkpt>
      <trkpt lat="38.99232" lon="-0.4618">
        <time>2019-03-23T12:06:08Z</time>
      </trkpt>
      <trkpt lat="38.99244" lon="-0.46175">
        <time>2019-03-23T12:06:09Z</time>
      </trkpt>
      <trkpt lat="38.99256" lon="-0.46167">
        <time>2019-03-23T12:06:10Z</time>
      </trkpt>
      <trkpt lat="38.99267" lon="-0.46157">
        <time>2019-03-23T12:06:11Z</time>
      </trkpt>
      <trkpt lat="38.99276" lon="-0.46146">
        <time>2019-03-23T12:06:12Z</time>
      </trkpt>
      <trkpt lat="38.99284" lon="-0.46134">
        <time>2019-03-23T12:06:13Z</time>
      </trkpt>
      <trkpt lat="38.99292" lon="-0.46122">
        <time>2019-03-23T12:06:14Z</time>
      </trkpt>
      <trkpt lat="38.99302" lon="-0.46112">
        <time>2019-03-23T12:06:15Z</time>
      </trkpt>
      <trkpt lat="38.99312" lon="-0.46103">
        <time>2019-03-23T12:06:16Z</time>
      </trkpt>
      <trkpt lat="38.99323" lon="-0.46093">
        <time>2019-03-23T12:06:17Z</time>
      </trkpt>
      <trkpt lat="38.99333" lon="-0.46084">
        <time>2019-03-23T12:06:18Z</time>
      </trkpt>
      <trkpt lat="38.99343" lon="-0.46077">
        <time>2019-03-23T12:06:19Z</time>
      </trkpt>
      <trkpt lat="38.99356" lon="-0.46075">
        <time>2019-03-23T12:06:20Z</time>
      </trkpt>
      <trkpt lat="38.99369" lon="-0.46074">
        <time>2019-03-23T12:06:21Z</time>
      </trkpt>
      <trkpt lat="38.99381" lon="-0.46071">
        <time>2019-03-23T12:06:22Z</time>
      </trkpt>
      <trkpt lat="38.99392" lon="-0.46065">
        <time>2019-03-23T12:06:23Z</time>
      </trkpt>
      <trkpt lat="38.99402" lon="-0.46058">
        <time>2019-03-23T12:06:24Z</time>
      </trkpt>
      <trkpt lat="38.99413" lon="-0.46049">
        <time>2019-03-23T12:06:25Z</time>
      </trkpt>
      <trkpt lat="38.99425" lon="-0.46039">
        <time>2019-03-23T12:06:26Z</time>
      </trkpt>
      <trkpt lat="38.99437" lon="-0.46027">
        <time>2019-03-23T12:06:27Z</time>
      </trkpt>
      <trkpt lat="38.9945" lon="-0.46014">
        <time>2019-03-23T12:06:28Z</time>
      </trkpt>
      <trkpt lat="38.99462" lon="-0.46001">
        <time>2019-03-23T12:06:29Z</time>
      </trkpt>
      <trkpt lat="38.99473" lon="-0.45989">
        <time>2019-03-23T12:06:30Z</time>
      </trkpt>
      <trkpt lat="38.99483" lon="-0.45975">
        <time>2019-03-23T12:06:31Z</time>
      </trkpt>
      <trkpt lat="38.99494" lon="-0.45962">
        <time>2019-03-23T12:06:32Z</time>
      </trkpt>
      <trkpt lat="38.99504" lon="-0.45948">
        <time>2019-03-23T12:06:33Z</time>
      </trkpt>
      <trkpt lat="38.99514" lon="-0.45935">
        <time>2019-03-23T12:06:34Z</time>
      </trkpt>
      <trkpt lat="38.99521" lon="-0.45922">
        <time>2019-03-23T12:06:35Z</time>
      </trkpt>
      <trkpt lat="38.99527" lon="-0.45908">
        <time>2019-03-23T12:06:36Z</time>
      </trkpt>
      <trkpt lat="38.99531" lon="-0.45893">
        <time>2019-03-23T12:06:37Z</time>
      </trkpt>
      <trkpt lat="38.99537" lon="-0.45875">
        <time>2019-03-23T12:06:38Z</time>
      </trkpt>
      <trkpt lat="38.99543" lon="-0.45855">
        <time>2019-03-23T12:06:39Z</time>
      </trkpt>
      <trkpt lat="38.9955" lon="-0.45836">
        <time>2019-03-23T12:06:40Z</time>
      </trkpt>
      <trkpt lat="38.99557" lon="-0.45817">
        <time>2019-03-23T12:06:41Z</time>
      </trkpt>
      <trkpt lat="38.99564" lon="-0.458">
        <time>2019-03-23T12:06:42Z</time>
      </trkpt>
      <trkpt lat="38.99571" lon="-0.45782">
        <time>2019-03-23T12:06:43Z</time>
      </trkpt>
      <trkpt lat="38.99579" lon="-0.45766">
        <time>2019-03-23T12:06:44Z</time>
      </trkpt>
      <trkpt lat="38.99587" lon="-0.45749">
        <time>2019-03-23T12:06:45Z</time>
      </trkpt>
      <trkpt lat="38.99595" lon="-0.45731">
        <time>2019-03-23T12:06:46Z</time>
      </trkpt>
      <trkpt lat="38.99602" lon="-0.45712">
        <time>2019-03-23T12:06:47Z</time>
      </trkpt>
      <trkpt lat="38.9961" lon="-0.45695">
        <time>2019-03-23T12:06:48Z</time>
      </trkpt>
      <trkpt lat="38.99617" lon="-0.45678">
        <time>2019-03-23T12:06:49Z</time>
      </trkpt>
      <trkpt lat="38.99625" lon="-0.45662">
        <time>2019-03-23T12:06:50Z</time>
      </trkpt>
      <trkpt lat="38.99634" lon="-0.45645">
        <time>2019-03-23T12:06:51Z</time>
      </trkpt>
      <trkpt lat="38.99643" lon="-0.45627">
        <time>2019-03-23T12:06:52Z</time>
      </trkpt>
      <trkpt lat="38.99653" lon="-0.4561">
        <time>2019-03-23T12:06:53Z</time>
      </trkpt>
      <trkpt lat="38.99662" lon="-0.45594">
        <time>2019-03-23T12:06:54Z</time>
      </trkpt>
      <trkpt lat="38.99672" lon="-0.45578">
        <time>2019-03-23T12:06:55Z</time>
      </trkpt>
      <trkpt lat="38.99681" lon="-0.45563">
        <time>2019-03-23T12:06:56Z</time>
      </trkpt>
      <trkpt lat="38.99689" lon="-0.45547">
        <time>2019-03-23T12:06:57Z</time>
      </trkpt>
      <trkpt lat="38.99697" lon="-0.45532">
        <time>2019-03-23T12:06:58Z</time>
      </trkpt>
      <trkpt lat="38.99705" lon="-0.45517">
        <time>2019-03-23T12:06:59Z</time>
      </trkpt>
      <trkpt lat="38.99712" lon="-0.45505">
        <time>2019-03-23T12:07:00Z</time>
      </trkpt>
      <trkpt lat="38.99718" lon="-0.45493">
        <time>2019-03-23T12:07:01Z</time>
      </trkpt>
      <trkpt lat="38.99723" lon="-0.45483">
        <time>2019-03-23T12:07:02Z</time>
      </trkpt>
      <trkpt lat="38.99726" lon="-0.45476">
        <time>2019-03-23T12:07:03Z</time>
      </trkpt>
      <trkpt lat="38.99729" lon="-0.45468">
        <time>2019-03-23T12:07:04Z</time>
      </trkpt>
      <trkpt lat="38.99729" lon="-0.45466">
        <time>2019-03-23T12:07:05Z</time>
      </trkpt>
      <trkpt lat="38.99729" lon="-0.45463">
        <time>2019-03-23T12:07:06Z</time>
      </trkpt>
      <trkpt lat="38.99728" lon="-0.45461">
        <time>2019-03-23T12:07:07Z</time>
      </trkpt>
      <trkpt lat="38.99728" lon="-0.45458">
        <time>2019-03-23T12:07:08Z</time>
      </trkpt>
      <trkpt lat="38.99731" lon="-0.45452">
        <time>2019-03-23T12:07:09Z</time>
      </trkpt>
      <trkpt lat="38.99736" lon="-0.45445">
        <time>2019-03-23T12:07:10Z</time>
      </trkpt>
      <trkpt lat="38.99743" lon="-0.45439">
        <time>2019-03-23T12:07:11Z</time>
      </trkpt>
      <trkpt lat="38.99751" lon="-0.45431">
        <time>2019-03-23T12:07:12Z</time>
      </trkpt>
      <trkpt lat="38.99757" lon="-0.4542">
        <time>2019-03-23T12:07:13Z</time>
      </trkpt>
      <trkpt lat="38.99762" lon="-0.45405">
        <time>2019-03-23T12:07:14Z</time>
      </trkpt>
      <trkpt lat="38.99768" lon="-0.4539">
        <time>2019-03-23T12:07:15Z</time>
      </trkpt>
      <trkpt lat="38.99775" lon="-0.45375">
        <time>2019-03-23T12:07:16Z</time>
      </trkpt>
      <trkpt lat="38.9978" lon="-0.45361">
        <time>2019-03-23T12:07:17Z</time>
      </trkpt>
      <trkpt lat="38.99785" lon="-0.45345">
        <time>2019-03-23T12:07:18Z</time>
      </trkpt>
      <trkpt lat="38.9979" lon="-0.45326">
        <time>2019-03-23T12:07:19Z</time>
      </trkpt>
      <trkpt lat="38.99795" lon="-0.45308">
        <time>2019-03-23T12:07:20Z</time>
      </trkpt>
      <trkpt lat="38.99801" lon="-0.45288">
        <time>2019-03-23T12:07:21Z</time>
      </trkpt>
      <trkpt lat="38.99807" lon="-0.4527">
        <time>2019-03-23T12:07:22Z</time>
      </trkpt>
      <trkpt lat="38.99814" lon="-0.45254">
        <time>2019-03-23T12:07:23Z</time>
      </trkpt>
      <trkpt lat="38.99821" lon="-0.4524">
        <time>2019-03-23T12:07:24Z</time>
      </trkpt>
      <trkpt lat="38.99828" lon="-0.45226">
        <time>2019-03-23T12:07:25Z</time>
      </trkpt>
      <trkpt lat="38.99834" lon="-0.45212">
        <time>2019-03-23T12:07:26Z</time>
      </trkpt>
      <trkpt lat="38.99837" lon="-0.45198">
        <time>2019-03-23T12:07:27Z</time>
      </trkpt>
      <trkpt lat="38.99839" lon="-0.45183">
        <time>2019-03-23T12:07:28Z</time>
      </trkpt>
      <trkpt lat="38.9984" lon="-0.45169">
        <time>2019-03-23T12:07:29Z</time>
      </trkpt>
      <trkpt lat="38.99838" lon="-0.45152">
        <time>2019-03-23T12:07:30Z</time>
      </trkpt>
      <trkpt lat="38.99835" lon="-0.45134">
        <time>2019-03-23T12:07:31Z</time>
      </trkpt>
      <trkpt lat="38.99832" lon="-0.45117">
        <time>2019-03-23T12:07:32Z</time>
      </trkpt>
      <trkpt lat="38.99829" lon="-0.45101">
        <time>2019-03-23T12:07:33Z</time>
      </trkpt>
      <trkpt lat="38.9983" lon="-0.45084">
        <time>2019-03-23T12:07:34Z</time>
      </trkpt>
      <trkpt lat="38.99833" lon="-0.45066">
        <time>2019-03-23T12:07:35Z</time>
      </trkpt>
      <trkpt lat="38.99838" lon="-0.45047">
        <time>2019-03-23T12:07:36Z</time>
      </trkpt>
      <trkpt lat="38.99843" lon="-0.45029">
        <time>2019-03-23T12:07:37Z</time>
      </trkpt>
      <trkpt lat="38.99849" lon="-0.45011">
        <time>2019-03-23T12:07:38Z</time>
      </trkpt>
      <trkpt lat="38.99856" lon="-0.44993">
        <time>2019-03-23T12:07:39Z</time>
      </trkpt>
      <trkpt lat="38.99864" lon="-0.44975">
        <time>2019-03-23T12:07:40Z</time>
      </trkpt>
      <trkpt lat="38.9987" lon="-0.44958">
        <time>2019-03-23T12:07:41Z</time>
      </trkpt>
      <trkpt lat="38.99875" lon="-0.44939">
        <time>2019-03-23T12:07:42Z</time>
      </trkpt>
      <trkpt lat="38.99879" lon="-0.4492">
        <time>2019-03-23T12:07:43Z</time>
      </trkpt>
      <trkpt lat="38.99881" lon="-0.449">
        <time>2019-03-23T12:07:44Z</time>
      </trkpt>
      <trkpt lat="38.99884" lon="-0.4488">
        <time>2019-03-23T12:07:45Z</time>
      </trkpt>
      <trkpt lat="38.99887" lon="-0.4486">
        <time>2019-03-23T12:07:46Z</time>
      </trkpt>
      <trkpt lat="38.9989" lon="-0.44843">
        <time>2019-03-23T12:07:47Z</time>
      </trkpt>
      <trkpt lat="38.99894" lon="-0.44828">
        <time>2019-03-23T12:07:48Z</time>
      </trkpt>
      <trkpt lat="38.99899" lon="-0.44814">
        <time>2019-03-23T12:07:49Z</time>
      </trkpt>
      <trkpt lat="38.99905" lon="-0.448">
        <time>2019-03-23T12:07:50Z</time>
      </trkpt>
      <trkpt lat="38.99911" lon="-0.44784">
        <time>2019-03-23T12:07:51Z</time>
      </trkpt>
      <trkpt lat="38.99917" lon="-0.44768">
        <time>2019-03-23T12:07:52Z</time>
      </trkpt>
      <trkpt lat="38.99921" lon="-0.44753">
        <time>2019-03-23T12:07:53Z</time>
      </trkpt>
      <trkpt lat="38.99925" lon="-0.44739">
        <time>2019-03-23T12:07:54Z</time>
      </trkpt>
      <trkpt lat="38.99928" lon="-0.44726">
        <time>2019-03-23T12:07:55Z</time>
      </trkpt>
      <trkpt lat="38.9993" lon="-0.44715">
        <time>2019-03-23T12:07:56Z</time>
      </trkpt>
      <trkpt lat="38.99929" lon="-0.44705">
        <time>2019-03-23T12:07:57Z</time>
      </trkpt>
      <trkpt lat="38.99924" lon="-0.44696">
        <time>2019-03-23T12:07:58Z</time>
      </trkpt>
      <trkpt lat="38.99917" lon="-0.44688">
        <time>2019-03-23T12:07:59Z</time>
      </trkpt>
      <trkpt lat="38.99909" lon="-0.44678">
        <time>2019-03-23T12:08:00Z</time>
      </trkpt>
      <trkpt lat="38.99903" lon="-0.44668">
        <time>2019-03-23T12:08:01Z</time>
      </trkpt>
      <trkpt lat="38.99898" lon="-0.44659">
        <time>2019-03-23T12:08:02Z</time>
      </trkpt>
      <trkpt lat="38.99897" lon="-0.44648">
        <time>2019-03-23T12:08:03Z</time>
      </trkpt>
      <trkpt lat="38.999" lon="-0.44638">
        <time>2019-03-23T12:08:04Z</time>
      </trkpt>
      <trkpt lat="38.99906" lon="-0.44629">
        <time>2019-03-23T12:08:05Z</time>
      </trkpt>
      <trkpt lat="38.99912" lon="-0.44617">
        <time>2019-03-23T12:08:06Z</time>
      </trkpt>
      <trkpt lat="38.99918" lon="-0.44603">
        <time>2019-03-23T12:08:07Z</time>
      </trkpt>
      <trkpt lat="38.99921" lon="-0.44587">
        <time>2019-03-23T12:08:08Z</time>
      </trkpt>
      <trkpt lat="38.99924" lon="-0.4457">
        <time>2019-03-23T12:08:09Z</time>
      </trkpt>
      <trkpt lat="38.99925" lon="-0.44551">
        <time>2019-03-23T12:08:10Z</time>
      </trkpt>
      <trkpt lat="38.99926" lon="-0.44531">
        <time>2019-03-23T12:08:11Z</time>
      </trkpt>
      <trkpt lat="38.99929" lon="-0.44509">
        <time>2019-03-23T12:08:12Z</time>
      </trkpt>
      <trkpt lat="38.99934" lon="-0.44486">
        <time>2019-03-23T12:08:13Z</time>
      </trkpt>
      <trkpt lat="38.99938" lon="-0.44461">
        <time>2019-03-23T12:08:14Z</time>
      </trkpt>
      <trkpt lat="38.9994" lon="-0.44437">
        <time>2019-03-23T12:08:15Z</time>
      </trkpt>
      <trkpt lat="38.99942" lon="-0.44413">
        <time>2019-03-23T12:08:16Z</time>
      </trkpt>
      <trkpt lat="38.99945" lon="-0.44389">
        <time>2019-03-23T12:08:17Z</time>
      </trkpt>
      <trkpt lat="38.99948" lon="-0.44364">
        <time>2019-03-23T12:08:18Z</time>
      </trkpt>
      <trkpt lat="38.99952" lon="-0.4434">
        <time>2019-03-23T12:08:19Z</time>
      </trkpt>
      <trkpt lat="38.99956" lon="-0.44314">
        <time>2019-03-23T12:08:20Z</time>
      </trkpt>
      <trkpt lat="38.99959" lon="-0.44288">
        <time>2019-03-23T12:08:21Z</time>
      </trkpt>
      <trkpt lat="38.99964" lon="-0.44264">
        <time>2019-03-23T12:08:22Z</time>
      </trkpt>
      <trkpt lat="38.99967" lon="-0.44242">
        <time>2019-03-23T12:08:23Z</time>
      </trkpt>
      <trkpt lat="38.99972" lon="-0.44218">
        <time>2019-03-23T12:08:24Z</time>
      </trkpt>
      <trkpt lat="38.99976" lon="-0.44194">
        <time>2019-03-23T12:08:25Z</time>
      </trkpt>
      <trkpt lat="38.99981" lon="-0.44168">
        <time>2019-03-23T12:08:26Z</time>
      </trkpt>
      <trkpt lat="38.99985" lon="-0.44145">
        <time>2019-03-23T12:08:27Z</time>
      </trkpt>
      <trkpt lat="38.9999" lon="-0.44122">
        <time>2019-03-23T12:08:28Z</time>
      </trkpt>
      <trkpt lat="38.99994" lon="-0.44102">
        <time>2019-03-23T12:08:29Z</time>
      </trkpt>
      <trkpt lat="38.99997" lon="-0.44083">
        <time>2019-03-23T12:08:30Z</time>
      </trkpt>
      <trkpt lat="39.0" lon="-0.44067">
        <time>2019-03-23T12:08:31Z</time>
      </trkpt>
      <trkpt lat="39.00003" lon="-0.44052">
        <time>2019-03-23T12:08:32Z</time>
      </trkpt>
      <trkpt lat="39.00009" lon="-0.44036">
        <time>2019-03-23T12:08:33Z</time>
      </trkpt>
      <trkpt lat="39.00017" lon="-0.44021">
        <time>2019-03-23T12:08:34Z</time>
      </trkpt>
      <trkpt lat="39.00025" lon="-0.44008">
        <time>2019-03-23T12:08:35Z</time>
      </trkpt>
      <trkpt lat="39.00034" lon="-0.43997">
        <time>2019-03-23T12:08:36Z</time>
      </trkpt>
      <trkpt lat="39.00042" lon="-0.43984">
        <time>2019-03-23T12:08:37Z</time>
      </trkpt>
      <trkpt lat="39.0005" lon="-0.43969">
        <time>2019-03-23T12:08:38Z</time>
      </trkpt>
      <trkpt lat="39.00057" lon="-0.43952">
        <time>2019-03-23T12:08:39Z</time>
      </trkpt>
      <trkpt lat="39.00062" lon="-0.43936">
        <time>2019-03-23T12:08:40Z</time>
      </trkpt>
      <trkpt lat="39.00066" lon="-0.43921">
        <time>2019-03-23T12:08:41Z</time>
      </trkpt>
      <trkpt lat="39.00067" lon="-0.43911">
        <time>2019-03-23T12:08:42Z</time>
      </trkpt>
      <trkpt lat="39.00065" lon="-0.43903">
        <time>2019-03-23T12:08:43Z</time>
      </trkpt>
      <trkpt lat="39.00061" lon="-0.43898">
        <time>2019-03-23T12:08:44Z</time>
      </trkpt>
      <trkpt lat="39.00054" lon="-0.43894">
        <time>2019-03-23T12:08:45Z</time>
      </trkpt>
      <trkpt lat="39.00047" lon="-0.43894">
        <time>2019-03-23T12:08:46Z</time>
      </trkpt>
      <trkpt lat="39.00041" lon="-0.43895">
        <time>2019-03-23T12:08:47Z</time>
      </trkpt>
      <trkpt lat="39.00034" lon="-0.43895">
        <time>2019-03-23T12:08:48Z</time>
      </trkpt>
      <trkpt lat="39.00028" lon="-0.43893">
        <time>2019-03-23T12:08:49Z</time>
      </trkpt>
      <trkpt lat="39.00023" lon="-0.43889">
        <time>2019-03-23T12:08:50Z</time>
      </trkpt>
      <trkpt lat="39.0002" lon="-0.43883">
        <time>2019-03-23T12:08:51Z</time>
      </trkpt>
      <trkpt lat="39.00021" lon="-0.43876">
        <time>2019-03-23T12:08:52Z</time>
      </trkpt>
      <trkpt lat="39.00025" lon="-0.43869">
        <time>2019-03-23T12:08:53Z</time>
      </trkpt>
      <trkpt lat="39.0003" lon="-0.43864">
        <time>2019-03-23T12:08:54Z</time>
      </trkpt>
      <trkpt lat="39.00038" lon="-0.43861">
        <time>2019-03-23T12:08:55Z</time>
      </trkpt>
      <trkpt lat="39.00047" lon="-0.43857">
        <time>2019-03-23T12:08:56Z</time>
      </trkpt>
      <trkpt lat="39.00058" lon="-0.43852">
        <time>2019-03-23T12:08:57Z</time>
      </trkpt>
      <trkpt lat="39.00069" lon="-0.43849">
        <time>2019-03-23T12:08:58Z</time>
      </trkpt>
      <trkpt lat="39.00081" lon="-0.43846">
        <time>2019-03-23T12:08:59Z</time>
      </trkpt>
      <trkpt lat="39.00094" lon="-0.43846">
        <time>2019-03-23T12:09:00Z</time>
      </trkpt>
      <trkpt lat="39.00104" lon="-0.43849">
        <time>2019-03-23T12:09:01Z</time>
      </trkpt>
      <trkpt lat="39.00113" lon="-0.43849">
        <time>2019-03-23T12:09:02Z</time>
      </trkpt>
      <trkpt lat="39.00121" lon="-0.43845">
        <time>2019-03-23T12:09:03Z</time>
      </trkpt>
      <trkpt lat="39.0013" lon="-0.43838">
        <time>2019-03-23T12:09:04Z</time>
      </trkpt>
      <trkpt lat="39.0014" lon="-0.43832">
        <time>2019-03-23T12:09:05Z</time>
      </trkpt>
      <trkpt lat="39.00151" lon="-0.43826">
        <time>2019-03-23T12:09:06Z</time>
      </trkpt>
      <trkpt lat="39.00163" lon="-0.43821">
        <time>2019-03-23T12:09:07Z</time>
      </trkpt>
      <trkpt lat="39.00168" lon="-0.43812">
        <time>2019-03-23T12:09:08Z</time>
      </trkpt>
      <trkpt lat="39.00173" lon="-0.43801">
        <time>2019-03-23T12:09:09Z</time>
      </trkpt>
      <trkpt lat="39.00178" lon="-0.43787">
        <time>2019-03-23T12:09:10Z</time>
      </trkpt>
      <trkpt lat="39.00183" lon="-0.43772">
        <time>2019-03-23T12:09:11Z</time>
      </trkpt>
      <trkpt lat="39.00189" lon="-0.43757">
        <time>2019-03-23T12:09:12Z</time>
      </trkpt>
      <trkpt lat="39.00196" lon="-0.43743">
        <time>2019-03-23T12:09:13Z</time>
      </trkpt>
      <trkpt lat="39.00206" lon="-0.43731">
        <time>2019-03-23T12:09:14Z</time>
      </trkpt>
      <trkpt lat="39.00215" lon="-0.43719">
        <time>2019-03-23T12:09:15Z</time>
      </trkpt>
      <trkpt lat="39.00224" lon="-0.43706">
        <time>2019-03-23T12:09:16Z</time>
      </trkpt>
      <trkpt lat="39.00232" lon="-0.43695">
        <time>2019-03-23T12:09:17Z</time>
      </trkpt>
      <trkpt lat="39.0024" lon="-0.43683">
        <time>2019-03-23T12:09:18Z</time>
      </trkpt>
      <trkpt lat="39.00248" lon="-0.43669">
        <time>2019-03-23T12:09:19Z</time>
      </trkpt>
      <trkpt lat="39.00254" lon="-0.43654">
        <time>2019-03-23T12:09:20Z</time>
      </trkpt>
      <trkpt lat="39.00261" lon="-0.43638">
        <time>2019-03-23T12:09:21Z</time>
      </trkpt>
      <trkpt lat="39.00267" lon="-0.43622">
        <time>2019-03-23T12:09:22Z</time>
      </trkpt>
      <trkpt lat="39.0027" lon="-0.43605">
        <time>2019-03-23T12:09:23Z</time>
      </trkpt>
      <trkpt lat="39.00273" lon="-0.43588">
        <time>2019-03-23T12:09:24Z</time>
      </trkpt>
      <trkpt lat="39.00275" lon="-0.43569">
        <time>2019-03-23T12:09:25Z</time>
      </trkpt>
      <trkpt lat="39.00279" lon="-0.43551">
        <time>2019-03-23T12:09:26Z</time>
      </trkpt>
      <trkpt lat="39.00285" lon="-0.43532">
        <time>2019-03-23T12:09:27Z</time>
      </trkpt>
      <trkpt lat="39.00292" lon="-0.43512">
        <time>2019-03-23T12:09:28Z</time>
      </trkpt>
      <trkpt lat="39.00297" lon="-0.43492">
        <time>2019-03-23T12:09:29Z</time>
      </trkpt>
      <trkpt lat="39.00303" lon="-0.43473">
        <time>2019-03-23T12:09:30Z</time>
      </trkpt>
      <trkpt lat="39.0031" lon="-0.43452">
        <time>2019-03-23T12:09:31Z</time>
      </trkpt>
      <trkpt lat="39.00315" lon="-0.4343">
        <time>2019-03-23T12:09:32Z</time>
      </trkpt>
      <trkpt lat="39.00322" lon="-0.43408">
        <time>2019-03-23T12:09:33Z</time>
      </trkpt>
      <trkpt lat="39.00327" lon="-0.43385">
        <time>2019-03-23T12:09:34Z</time>
      </trkpt>
      <trkpt lat="39.00333" lon="-0.43361">
        <time>2019-03-23T12:09:35Z</time>
      </trkpt>
      <trkpt lat="39.00337" lon="-0.43337">
        <time>2019-03-23T12:09:36Z</time>
      </trkpt>
      <trkpt lat="39.00343" lon="-0.43312">
        <time>2019-03-23T12:09:37Z</time>
      </trkpt>
      <trkpt lat="39.00348" lon="-0.43289">
        <time>2019-03-23T12:09:38Z</time>
      </trkpt>
      <trkpt lat="39.00354" lon="-0.43266">
        <time>2019-03-23T12:09:39Z</time>
      </trkpt>
      <trkpt lat="39.00361" lon="-0.43244">
        <time>2019-03-23T12:09:40Z</time>
      </trkpt>
      <trkpt lat="39.00369" lon="-0.43223">
        <time>2019-03-23T12:09:41Z</time>
      </trkpt>
      <trkpt lat="39.00377" lon="-0.43202">
        <time>2019-03-23T12:09:42Z</time>
      </trkpt>
      <trkpt lat="39.00386" lon="-0.43181">
        <time>2019-03-23T12:09:43Z</time>
      </trkpt>
      <trkpt lat="39.00393" lon="-0.4316">
        <time>2019-03-23T12:09:44Z</time>
      </trkpt>
      <trkpt lat="39.00401" lon="-0.43139">
        <time>2019-03-23T12:09:45Z</time>
      </trkpt>
      <trkpt lat="39.00409" lon="-0.43119">
        <time>2019-03-23T12:09:46Z</time>
      </trkpt>
      <trkpt lat="39.00417" lon="-0.43099">
        <time>2019-03-23T12:09:47Z</time>
      </trkpt>
      <trkpt lat="39.00424" lon="-0.4308">
        <time>2019-03-23T12:09:48Z</time>
      </trkpt>
      <trkpt lat="39.00432" lon="-0.43062">
        <time>2019-03-23T12:09:49Z</time>
      </trkpt>
      <trkpt lat="39.00439" lon="-0.43044">
        <time>2019-03-23T12:09:50Z</time>
      </trkpt>
      <trkpt lat="39.00445" lon="-0.43029">
        <time>2019-03-23T12:09:51Z</time>
      </trkpt>
      <trkpt lat="39.0045" lon="-0.43015">
        <time>2019-03-23T12:09:52Z</time>
      </trkpt>
      <trkpt lat="39.00455" lon="-0.43002">
        <time>2019-03-23T12:09:53Z</time>
      </trkpt>
      <trkpt lat="39.00459" lon="-0.42989">
        <time>2019-03-23T12:09:54Z</time>
      </trkpt>
      <trkpt lat="39.00462" lon="-0.42975">
        <time>2019-03-23T12:09:55Z</time>
      </trkpt>
      <trkpt lat="39.00464" lon="-0.42959">
        <time>2019-03-23T12:09:56Z</time>
      </trkpt>
      <trkpt lat="39.00468" lon="-0.42941">
        <time>2019-03-23T12:09:57Z</time>
      </trkpt>
      <trkpt lat="39.00471" lon="-0.42923">
        <time>2019-03-23T12:09:58Z</time>
      </trkpt>
      <trkpt lat="39.00474" lon="-0.42906">
        <time>2019-03-23T12:09:59Z</time>
      </trkpt>
      <trkpt lat="39.00478" lon="-0.4289">
        <time>2019-03-23T12:10:00Z</time>
      </trkpt>
      <trkpt lat="39.00483" lon="-0.42873">
        <time>2019-03-23T12:10:01Z</time>
      </trkpt>
      <trkpt lat="39.00489" lon="-0.42855">
        <time>2019-03-23T12:10:02Z</time>
      </trkpt>
      <trkpt lat="39.00495" lon="-0.42839">
        <time>2019-03-23T12:10:03Z</time>
      </trkpt>
      <trkpt lat="39.00501" lon="-0.42823">
        <time>2019-03-23T12:10:04Z</time>
      </trkpt>
      <trkpt lat="39.00507" lon="-0.42806">
        <time>2019-03-23T12:10:05Z</time>
      </trkpt>
      <trkpt lat="39.00513" lon="-0.42789">
        <time>2019-03-23T12:10:06Z</time>
      </trkpt>
      <trkpt lat="39.00519" lon="-0.42772">
        <time>2019-03-23T12:10:07Z</time>
      </trkpt>
      <trkpt lat="39.00524" lon="-0.42754">
        <time>2019-03-23T12:10:08Z</time>
      </trkpt>
      <trkpt lat="39.0053" lon="-0.42736">
        <time>2019-03-23T12:10:09Z</time>
      </trkpt>
      <trkpt lat="39.00537" lon="-0.42718">
        <time>2019-03-23T12:10:10Z</time>
      </trkpt>
      <trkpt lat="39.00544" lon="-0.427">
        <time>2019-03-23T12:10:11Z</time>
      </trkpt>
      <trkpt lat="39.00551" lon="-0.42682">
        <time>2019-03-23T12:10:12Z</time>
      </trkpt>
      <trkpt lat="39.00559" lon="-0.42664">
        <time>2019-03-23T12:10:13Z</time>
      </trkpt>
      <trkpt lat="39.00566" lon="-0.42645">
        <time>2019-03-23T12:10:14Z</time>
      </trkpt>
      <trkpt lat="39.00573" lon="-0.42626">
        <time>2019-03-23T12:10:15Z</time>
      </trkpt>
      <trkpt lat="39.00581" lon="-0.42606">
        <time>2019-03-23T12:10:16Z</time>
      </trkpt>
      <trkpt lat="39.00587" lon="-0.42588">
        <time>2019-03-23T12:10:17Z</time>
      </trkpt>
      <trkpt lat="39.00594" lon="-0.42571">
        <time>2019-03-23T12:10:18Z</time>
      </trkpt>
      <trkpt lat="39.006" lon="-0.42554">
        <time>2019-03-23T12:10:19Z</time>
      </trkpt>
      <trkpt lat="39.00608" lon="-0.42536">
        <time>2019-03-23T12:10:20Z</time>
      </trkpt>
      <trkpt lat="39.00616" lon="-0.42519">
        <time>2019-03-23T12:10:21Z</time>
      </trkpt>
      <trkpt lat="39.00624" lon="-0.42502">
        <time>2019-03-23T12:10:22Z</time>
      </trkpt>
      <trkpt lat="39.00632" lon="-0.42487">
        <time>2019-03-23T12:10:23Z</time>
      </trkpt>
      <trkpt lat="39.00638" lon="-0.42475">
        <time>2019-03-23T12:10:24Z</time>
      </trkpt>
      <trkpt lat="39.00641" lon="-0.42465">
        <time>2019-03-23T12:10:25Z</time>
      </trkpt>
      <trkpt lat="39.00644" lon="-0.42456">
        <time>2019-03-23T12:10:26Z</time>
      </trkpt>
      <trkpt lat="39.00645" lon="-0.42446">
        <time>2019-03-23T12:10:27Z</time>
      </trkpt>
      <trkpt lat="39.00647" lon="-0.42433">
        <time>2019-03-23T12:10:28Z</time>
      </trkpt>
      <trkpt lat="39.00649" lon="-0.42421">
        <time>2019-03-23T12:10:29Z</time>
      </trkpt>
      <trkpt lat="39.0065" lon="-0.4241">
        <time>2019-03-23T12:10:30Z</time>
      </trkpt>
      <trkpt lat="39.00651" lon="-0.42398">
        <time>2019-03-23T12:10:31Z</time>
      </trkpt>
      <trkpt lat="39.00653" lon="-0.42385">
        <time>2019-03-23T12:10:32Z</time>
      </trkpt>
      <trkpt lat="39.00654" lon="-0.42372">
        <time>2019-03-23T12:10:33Z</time>
      </trkpt>
      <trkpt lat="39.00657" lon="-0.42358">
        <time>2019-03-23T12:10:34Z</time>
      </trkpt>
      <trkpt lat="39.0066" lon="-0.42343">
        <time>2019-03-23T12:10:35Z</time>
      </trkpt>
      <trkpt lat="39.00665" lon="-0.42329">
        <time>2019-03-23T12:10:36Z</time>
      </trkpt>
      <trkpt lat="39.0067" lon="-0.42315">
        <time>2019-03-23T12:10:37Z</time>
      </trkpt>
      <trkpt lat="39.00675" lon="-0.42299">
        <time>2019-03-23T12:10:38Z</time>
      </trkpt>
      <trkpt lat="39.00679" lon="-0.42283">
        <time>2019-03-23T12:10:39Z</time>
      </trkpt>
      <trkpt lat="39.00682" lon="-0.42266">
        <time>2019-03-23T12:10:40Z</time>
      </trkpt>
      <trkpt lat="39.00685" lon="-0.42246">
        <time>2019-03-23T12:10:41Z</time>
      </trkpt>
      <trkpt lat="39.00686" lon="-0.42227">
        <time>2019-03-23T12:10:42Z</time>
      </trkpt>
      <trkpt lat="39.00686" lon="-0.42207">
        <time>2019-03-23T12:10:43Z</time>
      </trkpt>
      <trkpt lat="39.00686" lon="-0.42189">
        <time>2019-03-23T12:10:44Z</time>
      </trkpt>
      <trkpt lat="39.00687" lon="-0.42173">
        <time>2019-03-23T12:10:45Z</time>
      </trkpt>
      <trkpt lat="39.00688" lon="-0.42158">
        <time>2019-03-23T12:10:46Z</time>
      </trkpt>
      <trkpt lat="39.00691" lon="-0.42145">
        <time>2019-03-23T12:10:47Z</time>
      </trkpt>
      <trkpt lat="39.00694" lon="-0.42133">
        <time>2019-03-23T12:10:48Z</time>
      </trkpt>
      <trkpt lat="39.00696" lon="-0.42121">
        <time>2019-03-23T12:10:49Z</time>
      </trkpt>
      <trkpt lat="39.00699" lon="-0.42108">
        <time>2019-03-23T12:10:50Z</time>
      </trkpt>
      <trkpt lat="39.00702" lon="-0.42095">
        <time>2019-03-23T12:10:51Z</time>
      </trkpt>
      <trkpt lat="39.00705" lon="-0.42082">
        <time>2019-03-23T12:10:52Z</time>
      </trkpt>
      <trkpt lat="39.00707" lon="-0.42068">
        <time>2019-03-23T12:10:53Z</time>
      </trkpt>
      <trkpt lat="39.0071" lon="-0.42054">
        <time>2019-03-23T12:10:54Z</time>
      </trkpt>
      <trkpt lat="39.00714" lon="-0.42038">
        <time>2019-03-23T12:10:55Z</time>
      </trkpt>
      <trkpt lat="39.00717" lon="-0.42022">
        <time>2019-03-23T12:10:56Z</time>
      </trkpt>
      <trkpt lat="39.00721" lon="-0.42004">
        <time>2019-03-23T12:10:57Z</time>
      </trkpt>
      <trkpt lat="39.00725" lon="-0.41984">
        <time>2019-03-23T12:10:58Z</time>
      </trkpt>
      <trkpt lat="39.0073" lon="-0.41963">
        <time>2019-03-23T12:10:59Z</time>
      </trkpt>
      <trkpt lat="39.00735" lon="-0.41942">
        <time>2019-03-23T12:11:00Z</time>
      </trkpt>
      <trkpt lat="39.0074" lon="-0.41921">
        <time>2019-03-23T12:11:01Z</time>
      </trkpt>
      <trkpt lat="39.00746" lon="-0.41898">
        <time>2019-03-23T12:11:02Z</time>
      </trkpt>
      <trkpt lat="39.00751" lon="-0.41876">
        <time>2019-03-23T12:11:03Z</time>
      </trkpt>
      <trkpt lat="39.00757" lon="-0.41855">
        <time>2019-03-23T12:11:04Z</time>
      </trkpt>
      <trkpt lat="39.00764" lon="-0.41834">
        <time>2019-03-23T12:11:05Z</time>
      </trkpt>
      <trkpt lat="39.00772" lon="-0.41812">
        <time>2019-03-23T12:11:06Z</time>
      </trkpt>
      <trkpt lat="39.0078" lon="-0.4179">
        <time>2019-03-23T12:11:07Z</time>
      </trkpt>
      <trkpt lat="39.00788" lon="-0.41769">
        <time>2019-03-23T12:11:08Z</time>
      </trkpt>
      <trkpt lat="39.00797" lon="-0.41749">
        <time>2019-03-23T12:11:09Z</time>
      </trkpt>
      <trkpt lat="39.00804" lon="-0.4173">
        <time>2019-03-23T12:11:10Z</time>
      </trkpt>
      <trkpt lat="39.0081" lon="-0.41712">
        <time>2019-03-23T12:11:11Z</time>
      </trkpt>
      <trkpt lat="39.00815" lon="-0.41696">
        <time>2019-03-23T12:11:12Z</time>
      </trkpt>
      <trkpt lat="39.00819" lon="-0.41679">
        <time>2019-03-23T12:11:13Z</time>
      </trkpt>
      <trkpt lat="39.00822" lon="-0.41661">
        <time>2019-03-23T12:11:14Z</time>
      </trkpt>
      <trkpt lat="39.00826" lon="-0.41644">
        <time>2019-03-23T12:11:15Z</time>
      </trkpt>
      <trkpt lat="39.0083" lon="-0.41626">
        <time>2019-03-23T12:11:16Z</time>
      </trkpt>
      <trkpt lat="39.00835" lon="-0.41608">
        <time>2019-03-23T12:11:17Z</time>
      </trkpt>
      <trkpt lat="39.0084" lon="-0.41591">
        <time>2019-03-23T12:11:18Z</time>
      </trkpt>
      <trkpt lat="39.00846" lon="-0.41572">
        <time>2019-03-23T12:11:19Z</time>
      </trkpt>
      <trkpt lat="39.00851" lon="-0.41555">
        <time>2019-03-23T12:11:20Z</time>
      </trkpt>
      <trkpt lat="39.00856" lon="-0.41539">
        <time>2019-03-23T12:11:21Z</time>
      </trkpt>
      <trkpt lat="39.0086" lon="-0.41525">
        <time>2019-03-23T12:11:22Z</time>
      </trkpt>
      <trkpt lat="39.00865" lon="-0.4151">
        <time>2019-03-23T12:11:23Z</time>
      </trkpt>
      <trkpt lat="39.00869" lon="-0.41494">
        <time>2019-03-23T12:11:24Z</time>
      </trkpt>
      <trkpt lat="39.00873" lon="-0.41478">
        <time>2019-03-23T12:11:25Z</time>
      </trkpt>
      <trkpt lat="39.00877" lon="-0.4146">
        <time>2019-03-23T12:11:26Z</time>
      </trkpt>
      <trkpt lat="39.00881" lon="-0.41442">
        <time>2019-03-23T12:11:27Z</time>
      </trkpt>
      <trkpt lat="39.00883" lon="-0.41423">
        <time>2019-03-23T12:11:28Z</time>
      </trkpt>
      <trkpt lat="39.00886" lon="-0.41405">
        <time>2019-03-23T12:11:29Z</time>
      </trkpt>
      <trkpt lat="39.00887" lon="-0.4139">
        <time>2019-03-23T12:11:30Z</time>
      </trkpt>
      <trkpt lat="39.00888" lon="-0.41377">
        <time>2019-03-23T12:11:31Z</time>
      </trkpt>
      <trkpt lat="39.00888" lon="-0.41368">
        <time>2019-03-23T12:11:32Z</time>
      </trkpt>
      <trkpt lat="39.00888" lon="-0.41363">
        <time>2019-03-23T12:11:33Z</time>
      </trkpt>
      <trkpt lat="39.00889" lon="-0.4136">
        <time>2019-03-23T12:11:34Z</time>
      </trkpt>
      <trkpt lat="39.00889" lon="-0.41359">
        <time>2019-03-23T12:11:35Z</time>
      </trkpt>
      <trkpt lat="39.00889" lon="-0.41357">
        <time>2019-03-23T12:11:36Z</time>
      </trkpt>
      <trkpt lat="39.00891" lon="-0.41354">
        <time>2019-03-23T12:11:37Z</time>
      </trkpt>
      <trkpt lat="39.00894" lon="-0.41351">
        <time>2019-03-23T12:11:38Z</time>
      </trkpt>
      <trkpt lat="39.00896" lon="-0.41347">
        <time>2019-03-23T12:11:39Z</time>
      </trkpt>
      <trkpt lat="39.00897" lon="-0.41342">
        <time>2019-03-23T12:11:40Z</time>
      </trkpt>
      <trkpt lat="39.00896" lon="-0.41335">
        <time>2019-03-23T12:11:41Z</time>
      </trkpt>
      <trkpt lat="39.00897" lon="-0.41326">
        <time>2019-03-23T12:11:42Z</time>
      </trkpt>
      <trkpt lat="39.00899" lon="-0.41316">
        <time>2019-03-23T12:11:43Z</time>
      </trkpt>
      <trkpt lat="39.00902" lon="-0.41304">
        <time>2019-03-23T12:11:44Z</time>
      </trkpt>
      <trkpt lat="39.00904" lon="-0.4129">
        <time>2019-03-23T12:11:45Z</time>
      </trkpt>
      <trkpt lat="39.00906" lon="-0.41275">
        <time>2019-03-23T12:11:46Z</time>
      </trkpt>
      <trkpt lat="39.00909" lon="-0.41261">
        <time>2019-03-23T12:11:47Z</time>
      </trkpt>
      <trkpt lat="39.00912" lon="-0.41246">
        <time>2019-03-23T12:11:48Z</time>
      </trkpt>
      <trkpt lat="39.00915" lon="-0.41231">
        <time>2019-03-23T12:11:49Z</time>
      </trkpt>
      <trkpt lat="39.00918" lon="-0.41215">
        <time>2019-03-23T12:11:50Z</time>
      </trkpt>
      <trkpt lat="39.00921" lon="-0.412">
        <time>2019-03-23T12:11:51Z</time>
      </trkpt>
      <trkpt lat="39.00923" lon="-0.41186">
        <time>2019-03-23T12:11:52Z</time>
      </trkpt>
      <trkpt lat="39.00926" lon="-0.41172">
        <time>2019-03-23T12:11:53Z</time>
      </trkpt>
      <trkpt lat="39.00929" lon="-0.41158">
        <time>2019-03-23T12:11:54Z</time>
      </trkpt>
      <trkpt lat="39.00933" lon="-0.41142">
        <time>2019-03-23T12:11:55Z</time>
      </trkpt>
      <trkpt lat="39.00935" lon="-0.41125">
        <time>2019-03-23T12:11:56Z</time>
      </trkpt>
      <trkpt lat="39.00938" lon="-0.41108">
        <time>2019-03-23T12:11:57Z</time>
      </trkpt>
      <trkpt lat="39.00941" lon="-0.41091">
        <time>2019-03-23T12:11:58Z</time>
      </trkpt>
      <trkpt lat="39.00944" lon="-0.41075">
        <time>2019-03-23T12:11:59Z</time>
      </trkpt>
      <trkpt lat="39.00947" lon="-0.41059">
        <time>2019-03-23T12:12:00Z</time>
      </trkpt>
      <trkpt lat="39.00948" lon="-0.41042">
        <time>2019-03-23T12:12:01Z</time>
      </trkpt>
      <trkpt lat="39.00947" lon="-0.41025">
        <time>2019-03-23T12:12:02Z</time>
      </trkpt>
      <trkpt lat="39.00947" lon="-0.41011">
        <time>2019-03-23T12:12:03Z</time>
      </trkpt>
      <trkpt lat="39.00951" lon="-0.40998">
        <time>2019-03-23T12:12:04Z</time>
      </trkpt>
      <trkpt lat="39.00958" lon="-0.40984">
        <time>2019-03-23T12:12:05Z</time>
      </trkpt>
      <trkpt lat="39.00963" lon="-0.4097">
        <time>2019-03-23T12:12:06Z</time>
      </trkpt>
      <trkpt lat="39.00967" lon="-0.40957">
        <time>2019-03-23T12:12:07Z</time>
      </trkpt>
      <trkpt lat="39.0097" lon="-0.40945">
        <time>2019-03-23T12:12:08Z</time>
      </trkpt>
      <trkpt lat="39.00973" lon="-0.40931">
        <time>2019-03-23T12:12:09Z</time>
      </trkpt>
      <trkpt lat="39.00976" lon="-0.40917">
        <time>2019-03-23T12:12:10Z</time>
      </trkpt>
      <trkpt lat="39.00979" lon="-0.40903">
        <time>2019-03-23T12:12:11Z</time>
      </trkpt>
      <trkpt lat="39.00981" lon="-0.40889">
        <time>2019-03-23T12:12:12Z</time>
      </trkpt>
      <trkpt lat="39.00981" lon="-0.40874">
        <time>2019-03-23T12:12:13Z</time>
      </trkpt>
      <trkpt lat="39.0098" lon="-0.40859">
        <time>2019-03-23T12:12:14Z</time>
      </trkpt>
      <trkpt lat="39.00978" lon="-0.40844">
        <time>2019-03-23T12:12:15Z</time>
      </trkpt>
      <trkpt lat="39.00974" lon="-0.40828">
        <time>2019-03-23T12:12:16Z</time>
      </trkpt>
      <trkpt lat="39.0097" lon="-0.40812">
        <time>2019-03-23T12:12:17Z</time>
      </trkpt>
      <trkpt lat="39.00967" lon="-0.40794">
        <time>2019-03-23T12:12:18Z</time>
      </trkpt>
      <trkpt lat="39.00964" lon="-0.40777">
        <time>2019-03-23T12:12:19Z</time>
      </trkpt>
      <trkpt lat="39.00961" lon="-0.4076">
        <time>2019-03-23T12:12:20Z</time>
      </trkpt>
      <trkpt lat="39.00958" lon="-0.40743">
        <time>2019-03-23T12:12:21Z</time>
      </trkpt>
      <trkpt lat="39.00954" lon="-0.40726">
        <time>2019-03-23T12:12:22Z</time>
      </trkpt>
      <trkpt lat="39.0095" lon="-0.4071">
        <time>2019-03-23T12:12:23Z</time>
      </trkpt>
      <trkpt lat="39.00948" lon="-0.40694">
        <time>2019-03-23T12:12:24Z</time>
      </trkpt>
      <trkpt lat="39.00946" lon="-0.40679">
        <time>2019-03-23T12:12:25Z</time>
      </trkpt>
      <trkpt lat="39.00948" lon="-0.40665">
        <time>2019-03-23T12:12:26Z</time>
      </trkpt>
      <trkpt lat="39.0095" lon="-0.40652">
        <time>2019-03-23T12:12:27Z</time>
      </trkpt>
      <trkpt lat="39.00949" lon="-0.40637">
        <time>2019-03-23T12:12:28Z</time>
      </trkpt>
      <trkpt lat="39.00948" lon="-0.40621">
        <time>2019-03-23T12:12:29Z</time>
      </trkpt>
      <trkpt lat="39.00945" lon="-0.40603">
        <time>2019-03-23T12:12:30Z</time>
      </trkpt>
      <trkpt lat="39.00941" lon="-0.40584">
        <time>2019-03-23T12:12:31Z</time>
      </trkpt>
      <trkpt lat="39.00938" lon="-0.40564">
        <time>2019-03-23T12:12:32Z</time>
      </trkpt>
      <trkpt lat="39.00935" lon="-0.40544">
        <time>2019-03-23T12:12:33Z</time>
      </trkpt>
      <trkpt lat="39.00932" lon="-0.40524">
        <time>2019-03-23T12:12:34Z</time>
      </trkpt>
      <trkpt lat="39.0093" lon="-0.40506">
        <time>2019-03-23T12:12:35Z</time>
      </trkpt>
      <trkpt lat="39.00928" lon="-0.4049">
        <time>2019-03-23T12:12:36Z</time>
      </trkpt>
      <trkpt lat="39.00926" lon="-0.40477">
        <time>2019-03-23T12:12:37Z</time>
      </trkpt>
      <trkpt lat="39.00927" lon="-0.40465">
        <time>2019-03-23T12:12:38Z</time>
      </trkpt>
      <trkpt lat="39.00929" lon="-0.40452">
        <time>2019-03-23T12:12:39Z</time>
      </trkpt>
      <trkpt lat="39.0093" lon="-0.40438">
        <time>2019-03-23T12:12:40Z</time>
      </trkpt>
      <trkpt lat="39.0093" lon="-0.40423">
        <time>2019-03-23T12:12:41Z</time>
      </trkpt>
      <trkpt lat="39.0093" lon="-0.40408">
        <time>2019-03-23T12:12:42Z</time>
      </trkpt>
      <trkpt lat="39.00931" lon="-0.40393">
        <time>2019-03-23T12:12:43Z</time>
      </trkpt>
      <trkpt lat="39.00932" lon="-0.40379">
        <time>2019-03-23T12:12:44Z</time>
      </trkpt>
      <trkpt lat="39.00932" lon="-0.40367">
        <time>2019-03-23T12:12:45Z</time>
      </trkpt>
      <trkpt lat="39.00931" lon="-0.40354">
        <time>2019-03-23T12:12:46Z</time>
      </trkpt>
      <trkpt lat="39.00929" lon="-0.40342">
        <time>2019-03-23T12:12:47Z</time>
      </trkpt>
      <trkpt lat="39.00925" lon="-0.40331">
        <time>2019-03-23T12:12:48Z</time>
      </trkpt>
      <trkpt lat="39.00921" lon="-0.40321">
        <time>2019-03-23T12:12:49Z</time>
      </trkpt>
      <trkpt lat="39.00917" lon="-0.40312">
        <time>2019-03-23T12:12:50Z</time>
      </trkpt>
      <trkpt lat="39.00916" lon="-0.40304">
        <time>2019-03-23T12:12:51Z</time>
      </trkpt>
      <trkpt lat="39.00917" lon="-0.40297">
        <time>2019-03-23T12:12:52Z</time>
      </trkpt>
      <trkpt lat="39.0092" lon="-0.40292">
        <time>2019-03-23T12:12:53Z</time>
      </trkpt>
      <trkpt lat="39.00925" lon="-0.40286">
        <time>2019-03-23T12:12:54Z</time>
      </trkpt>
      <trkpt lat="39.0093" lon="-0.40281">
        <time>2019-03-23T12:12:55Z</time>
      </trkpt>
      <trkpt lat="39.00937" lon="-0.40276">
        <time>2019-03-23T12:12:56Z</time>
      </trkpt>
      <trkpt lat="39.00945" lon="-0.40269">
        <time>2019-03-23T12:12:57Z</time>
      </trkpt>
      <trkpt lat="39.00953" lon="-0.40263">
        <time>2019-03-23T12:12:58Z</time>
      </trkpt>
      <trkpt lat="39.00961" lon="-0.40257">
        <time>2019-03-23T12:12:59Z</time>
      </trkpt>
      <trkpt lat="39.00967" lon="-0.40252">
        <time>2019-03-23T12:13:00Z</time>
      </trkpt>
      <trkpt lat="39.00972" lon="-0.40245">
        <time>2019-03-23T12:13:01Z</time>
      </trkpt>
      <trkpt lat="39.00973" lon="-0.40237">
        <time>2019-03-23T12:13:02Z</time>
      </trkpt>
      <trkpt lat="39.00973" lon="-0.40229">
        <time>2019-03-23T12:13:03Z</time>
      </trkpt>
      <trkpt lat="39.0097" lon="-0.40219">
        <time>2019-03-23T12:13:04Z</time>
      </trkpt>
      <trkpt lat="39.00967" lon="-0.40209">
        <time>2019-03-23T12:13:05Z</time>
      </trkpt>
      <trkpt lat="39.00966" lon="-0.40199">
        <time>2019-03-23T12:13:06Z</time>
      </trkpt>
      <trkpt lat="39.00967" lon="-0.40189">
        <time>2019-03-23T12:13:07Z</time>
      </trkpt>
      <trkpt lat="39.0097" lon="-0.4018">
        <time>2019-03-23T12:13:08Z</time>
      </trkpt>
      <trkpt lat="39.00977" lon="-0.4017">
        <time>2019-03-23T12:13:09Z</time>
      </trkpt>
      <trkpt lat="39.00984" lon="-0.40162">
        <time>2019-03-23T12:13:10Z</time>
      </trkpt>
      <trkpt lat="39.00992" lon="-0.40152">
        <time>2019-03-23T12:13:11Z</time>
      </trkpt>
      <trkpt lat="39.01" lon="-0.40143">
        <time>2019-03-23T12:13:12Z</time>
      </trkpt>
      <trkpt lat="39.01007" lon="-0.40133">
        <time>2019-03-23T12:13:13Z</time>
      </trkpt>
      <trkpt lat="39.01012" lon="-0.40124">
        <time>2019-03-23T12:13:14Z</time>
      </trkpt>
      <trkpt lat="39.01015" lon="-0.40112">
        <time>2019-03-23T12:13:15Z</time>
      </trkpt>
      <trkpt lat="39.01018" lon="-0.40099">
        <time>2019-03-23T12:13:16Z</time>
      </trkpt>
      <trkpt lat="39.0102" lon="-0.40084">
        <time>2019-03-23T12:13:17Z</time>
      </trkpt>
      <trkpt lat="39.01021" lon="-0.4007">
        <time>2019-03-23T12:13:18Z</time>
      </trkpt>
      <trkpt lat="39.01023" lon="-0.40057">
        <time>2019-03-23T12:13:19Z</time>
      </trkpt>
      <trkpt lat="39.01024" lon="-0.40046">
        <time>2019-03-23T12:13:20Z</time>
      </trkpt>
      <trkpt lat="39.01024" lon="-0.40036">
        <time>2019-03-23T12:13:21Z</time>
      </trkpt>
      <trkpt lat="39.01021" lon="-0.40029">
        <time>2019-03-23T12:13:22Z</time>
      </trkpt>
      <trkpt lat="39.01016" lon="-0.40025">
        <time>2019-03-23T12:13:23Z</time>
      </trkpt>
      <trkpt lat="39.01011" lon="-0.40022">
        <time>2019-03-23T12:13:24Z</time>
      </trkpt>
      <trkpt lat="39.01008" lon="-0.40016">
        <time>2019-03-23T12:13:25Z</time>
      </trkpt>
      <trkpt lat="39.01007" lon="-0.40008">
        <time>2019-03-23T12:13:26Z</time>
      </trkpt>
      <trkpt lat="39.01009" lon="-0.39999">
        <time>2019-03-23T12:13:27Z</time>
      </trkpt>
      <trkpt lat="39.01012" lon="-0.39987">
        <time>2019-03-23T12:13:28Z</time>
      </trkpt>
      <trkpt lat="39.01015" lon="-0.39972">
        <time>2019-03-23T12:13:29Z</time>
      </trkpt>
      <trkpt lat="39.01017" lon="-0.39958">
        <time>2019-03-23T12:13:30Z</time>
      </trkpt>
      <trkpt lat="39.01018" lon="-0.39945">
        <time>2019-03-23T12:13:31Z</time>
      </trkpt>
      <trkpt lat="39.01021" lon="-0.39934">
        <time>2019-03-23T12:13:32Z</time>
      </trkpt>
      <trkpt lat="39.01028" lon="-0.39924">
        <time>2019-03-23T12:13:33Z</time>
      </trkpt>
      <trkpt lat="39.01034" lon="-0.39913">
        <time>2019-03-23T12:13:34Z</time>
      </trkpt>
      <trkpt lat="39.0104" lon="-0.39902">
        <time>2019-03-23T12:13:35Z</time>
      </trkpt>
      <trkpt lat="39.01045" lon="-0.39892">
        <time>2019-03-23T12:13:36Z</time>
      </trkpt>
      <trkpt lat="39.01048" lon="-0.39883">
        <time>2019-03-23T12:13:37Z</time>
      </trkpt>
      <trkpt lat="39.01051" lon="-0.39873">
        <time>2019-03-23T12:13:38Z</time>
      </trkpt>
      <trkpt lat="39.01052" lon="-0.39863">
        <time>2019-03-23T12:13:39Z</time>
      </trkpt>
      <trkpt lat="39.01053" lon="-0.39852">
        <time>2019-03-23T12:13:40Z</time>
      </trkpt>
      <trkpt lat="39.01052" lon="-0.39842">
        <time>2019-03-23T12:13:41Z</time>
      </trkpt>
      <trkpt lat="39.0105" lon="-0.39833">
        <time>2019-03-23T12:13:42Z</time>
      </trkpt>
      <trkpt lat="39.0105" lon="-0.39823">
        <time>2019-03-23T12:13:43Z</time>
      </trkpt>
      <trkpt lat="39.01053" lon="-0.39815">
        <time>2019-03-23T12:13:44Z</time>
      </trkpt>
      <trkpt lat="39.01058" lon="-0.3981">
        <time>2019-03-23T12:13:45Z</time>
      </trkpt>
      <trkpt lat="39.01064" lon="-0.39808">
        <time>2019-03-23T12:13:46Z</time>
      </trkpt>
      <trkpt lat="39.01072" lon="-0.39806">
        <time>2019-03-23T12:13:47Z</time>
      </trkpt>
      <trkpt lat="39.01079" lon="-0.39803">
        <time>2019-03-23T12:13:48Z</time>
      </trkpt>
      <trkpt lat="39.01084" lon="-0.39799">
        <time>2019-03-23T12:13:49Z</time>
      </trkpt>
      <trkpt lat="39.01089" lon="-0.39792">
        <time>2019-03-23T12:13:50Z</time>
      </trkpt>
      <trkpt lat="39.01093" lon="-0.39783">
        <time>2019-03-23T12:13:51Z</time>
      </trkpt>
      <trkpt lat="39.01098" lon="-0.39772">
        <time>2019-03-23T12:13:52Z</time>
      </trkpt>
      <trkpt lat="39.01103" lon="-0.39759">
        <time>2019-03-23T12:13:53Z</time>
      </trkpt>
      <trkpt lat="39.01107" lon="-0.39747">
        <time>2019-03-23T12:13:54Z</time>
      </trkpt>
      <trkpt lat="39.0111" lon="-0.39735">
        <time>2019-03-23T12:13:55Z</time>
      </trkpt>
      <trkpt lat="39.01114" lon="-0.39723">
        <time>2019-03-23T12:13:56Z</time>
      </trkpt>
      <trkpt lat="39.01116" lon="-0.3971">
        <time>2019-03-23T12:13:57Z</time>
      </trkpt>
      <trkpt lat="39.01118" lon="-0.39699">
        <time>2019-03-23T12:13:58Z</time>
      </trkpt>
      <trkpt lat="39.0112" lon="-0.39688">
        <time>2019-03-23T12:13:59Z</time>
      </trkpt>
      <trkpt lat="39.01124" lon="-0.39679">
        <time>2019-03-23T12:14:00Z</time>
      </trkpt>
      <trkpt lat="39.01128" lon="-0.39666">
        <time>2019-03-23T12:14:01Z</time>
      </trkpt>
      <trkpt lat="39.01131" lon="-0.39654">
        <time>2019-03-23T12:14:02Z</time>
      </trkpt>
      <trkpt lat="39.01134" lon="-0.39642">
        <time>2019-03-23T12:14:03Z</time>
      </trkpt>
      <trkpt lat="39.01138" lon="-0.3963">
        <time>2019-03-23T12:14:04Z</time>
      </trkpt>
      <trkpt lat="39.0114" lon="-0.39618">
        <time>2019-03-23T12:14:05Z</time>
      </trkpt>
      <trkpt lat="39.01143" lon="-0.39604">
        <time>2019-03-23T12:14:06Z</time>
      </trkpt>
      <trkpt lat="39.01145" lon="-0.39591">
        <time>2019-03-23T12:14:07Z</time>
      </trkpt>
      <trkpt lat="39.01148" lon="-0.39576">
        <time>2019-03-23T12:14:08Z</time>
      </trkpt>
      <trkpt lat="39.01152" lon="-0.39563">
        <time>2019-03-23T12:14:09Z</time>
      </trkpt>
      <trkpt lat="39.01157" lon="-0.39551">
        <time>2019-03-23T12:14:10Z</time>
      </trkpt>
      <trkpt lat="39.01163" lon="-0.3954">
        <time>2019-03-23T12:14:11Z</time>
      </trkpt>
      <trkpt lat="39.01169" lon="-0.39529">
        <time>2019-03-23T12:14:12Z</time>
      </trkpt>
      <trkpt lat="39.01173" lon="-0.39517">
        <time>2019-03-23T12:14:13Z</time>
      </trkpt>
      <trkpt lat="39.01176" lon="-0.39505">
        <time>2019-03-23T12:14:14Z</time>
      </trkpt>
      <trkpt lat="39.01179" lon="-0.39491">
        <time>2019-03-23T12:14:15Z</time>
      </trkpt>
      <trkpt lat="39.01182" lon="-0.39478">
        <time>2019-03-23T12:14:16Z</time>
      </trkpt>
      <trkpt lat="39.01186" lon="-0.39463">
        <time>2019-03-23T12:14:17Z</time>
      </trkpt>
      <trkpt lat="39.01193" lon="-0.3945">
        <time>2019-03-23T12:14:18Z</time>
      </trkpt>
      <trkpt lat="39.012" lon="-0.39438">
        <time>2019-03-23T12:14:19Z</time>
      </trkpt>
      <trkpt lat="39.01207" lon="-0.39428">
        <time>2019-03-23T12:14:20Z</time>
      </trkpt>
      <trkpt lat="39.01214" lon="-0.39419">
        <time>2019-03-23T12:14:21Z</time>
      </trkpt>
      <trkpt lat="39.01218" lon="-0.3941">
        <time>2019-03-23T12:14:22Z</time>
      </trkpt>
      <trkpt lat="39.0122" lon="-0.39398">
        <time>2019-03-23T12:14:23Z</time>
      </trkpt>
      <trkpt lat="39.01221" lon="-0.39387">
        <time>2019-03-23T12:14:24Z</time>
      </trkpt>
      <trkpt lat="39.01219" lon="-0.39377">
        <time>2019-03-23T12:14:25Z</time>
      </trkpt>
      <trkpt lat="39.01214" lon="-0.39366">
        <time>2019-03-23T12:14:26Z</time>
      </trkpt>
      <trkpt lat="39.01209" lon="-0.39356">
        <time>2019-03-23T12:14:27Z</time>
      </trkpt>
      <trkpt lat="39.01203" lon="-0.39345">
        <time>2019-03-23T12:14:28Z</time>
      </trkpt>
      <trkpt lat="39.01198" lon="-0.39335">
        <time>2019-03-23T12:14:29Z</time>
      </trkpt>
      <trkpt lat="39.01192" lon="-0.39326">
        <time>2019-03-23T12:14:30Z</time>
      </trkpt>
      <trkpt lat="39.01188" lon="-0.39319">
        <time>2019-03-23T12:14:31Z</time>
      </trkpt>
      <trkpt lat="39.01185" lon="-0.39313">
        <time>2019-03-23T12:14:32Z</time>
      </trkpt>
      <trkpt lat="39.01183" lon="-0.39308">
        <time>2019-03-23T12:14:33Z</time>
      </trkpt>
      <trkpt lat="39.01183" lon="-0.39303">
        <time>2019-03-23T12:14:34Z</time>
      </trkpt>
      <trkpt lat="39.01185" lon="-0.39299">
        <time>2019-03-23T12:14:35Z</time>
      </trkpt>
      <trkpt lat="39.01189" lon="-0.39297">
        <time>2019-03-23T12:14:36Z</time>
      </trkpt>
      <trkpt lat="39.01194" lon="-0.39299">
        <time>2019-03-23T12:14:37Z</time>
      </trkpt>
      <trkpt lat="39.01201" lon="-0.39303">
        <time>2019-03-23T12:14:38Z</time>
      </trkpt>
      <trkpt lat="39.01209" lon="-0.39307">
        <time>2019-03-23T12:14:39Z</time>
      </trkpt>
      <trkpt lat="39.01217" lon="-0.39314">
        <time>2019-03-23T12:14:40Z</time>
      </trkpt>
      <trkpt lat="39.01225" lon="-0.39322">
        <time>2019-03-23T12:14:41Z</time>
      </trkpt>
      <trkpt lat="39.01232" lon="-0.39332">
        <time>2019-03-23T12:14:42Z</time>
      </trkpt>
      <trkpt lat="39.01237" lon="-0.3934">
        <time>2019-03-23T12:14:43Z</time>
      </trkpt>
      <trkpt lat="39.01243" lon="-0.39346">
        <time>2019-03-23T12:14:44Z</time>
      </trkpt>
      <trkpt lat="39.01249" lon="-0.39348">
        <time>2019-03-23T12:14:45Z</time>
      </trkpt>
      <trkpt lat="39.01256" lon="-0.39348">
        <time>2019-03-23T12:14:46Z</time>
      </trkpt>
      <trkpt lat="39.01263" lon="-0.39351">
        <time>2019-03-23T12:14:47Z</time>
      </trkpt>
      <trkpt lat="39.01268" lon="-0.39357">
        <time>2019-03-23T12:14:48Z</time>
      </trkpt>
      <trkpt lat="39.01274" lon="-0.39364">
        <time>2019-03-23T12:14:49Z</time>
      </trkpt>
      <trkpt lat="39.01281" lon="-0.39373">
        <time>2019-03-23T12:14:50Z</time>
      </trkpt>
      <trkpt lat="39.01288" lon="-0.39382">
        <time>2019-03-23T12:14:51Z</time>
      </trkpt>
      <trkpt lat="39.01293" lon="-0.39392">
        <time>2019-03-23T12:14:52Z</time>
      </trkpt>
      <trkpt lat="39.01296" lon="-0.39404">
        <time>2019-03-23T12:14:53Z</time>
      </trkpt>
      <trkpt lat="39.01299" lon="-0.39416">
        <time>2019-03-23T12:14:54Z</time>
      </trkpt>
      <trkpt lat="39.01304" lon="-0.39428">
        <time>2019-03-23T12:14:55Z</time>
      </trkpt>
      <trkpt lat="39.01311" lon="-0.39436">
        <time>2019-03-23T12:14:56Z</time>
      </trkpt>
      <trkpt lat="39.01318" lon="-0.39442">
        <time>2019-03-23T12:14:57Z</time>
      </trkpt>
      <trkpt lat="39.01325" lon="-0.39444">
        <time>2019-03-23T12:14:58Z</time>
      </trkpt>
      <trkpt lat="39.01334" lon="-0.39444">
        <time>2019-03-23T12:14:59Z</time>
      </trkpt>
      <trkpt lat="39.01343" lon="-0.39444">
        <time>2019-03-23T12:15:00Z</time>
      </trkpt>
      <trkpt lat="39.01349" lon="-0.39448">
        <time>2019-03-23T12:15:01Z</time>
      </trkpt>
      <trkpt lat="39.01354" lon="-0.39455">
        <time>2019-03-23T12:15:02Z</time>
      </trkpt>
      <trkpt lat="39.01356" lon="-0.39464">
        <time>2019-03-23T12:15:03Z</time>
      </trkpt>
      <trkpt lat="39.01357" lon="-0.39474">
        <time>2019-03-23T12:15:04Z</time>
      </trkpt>
      <trkpt lat="39.01361" lon="-0.39482">
        <time>2019-03-23T12:15:05Z</time>
      </trkpt>
      <trkpt lat="39.01366" lon="-0.39488">
        <time>2019-03-23T12:15:06Z</time>
      </trkpt>
      <trkpt lat="39.01371" lon="-0.39492">
        <time>2019-03-23T12:15:07Z</time>
      </trkpt>
      <trkpt lat="39.01381" lon="-0.39495">
        <time>2019-03-23T12:15:08Z</time>
      </trkpt>
      <trkpt lat="39.01391" lon="-0.395">
        <time>2019-03-23T12:15:09Z</time>
      </trkpt>
      <trkpt lat="39.01402" lon="-0.39505">
        <time>2019-03-23T12:15:10Z</time>
      </trkpt>
      <trkpt lat="39.01411" lon="-0.39508">
        <time>2019-03-23T12:15:11Z</time>
      </trkpt>
      <trkpt lat="39.01419" lon="-0.3951">
        <time>2019-03-23T12:15:12Z</time>
      </trkpt>
      <trkpt lat="39.01425" lon="-0.39509">
        <time>2019-03-23T12:15:13Z</time>
      </trkpt>
      <trkpt lat="39.01428" lon="-0.39508">
        <time>2019-03-23T12:15:14Z</time>
      </trkpt>
      <trkpt lat="39.0143" lon="-0.39506">
        <time>2019-03-23T12:15:15Z</time>
      </trkpt>
      <trkpt lat="39.0143" lon="-0.39503">
        <time>2019-03-23T12:15:16Z</time>
      </trkpt>
      <trkpt lat="39.0143" lon="-0.395">
        <time>2019-03-23T12:15:17Z</time>
      </trkpt>
      <trkpt lat="39.01429" lon="-0.39497">
        <time>2019-03-23T12:15:18Z</time>
      </trkpt>
      <trkpt lat="39.01429" lon="-0.39495">
        <time>2019-03-23T12:15:19Z</time>
      </trkpt>
      <trkpt lat="39.01428" lon="-0.39492">
        <time>2019-03-23T12:15:20Z</time>
      </trkpt>
      <trkpt lat="39.01427" lon="-0.39488">
        <time>2019-03-23T12:15:21Z</time>
      </trkpt>
      <trkpt lat="39.01426" lon="-0.3948">
        <time>2019-03-23T12:15:22Z</time>
      </trkpt>
      <trkpt lat="39.01424" lon="-0.39471">
        <time>2019-03-23T12:15:23Z</time>
      </trkpt>
      <trkpt lat="39.0142" lon="-0.39462">
        <time>2019-03-23T12:15:24Z</time>
      </trkpt>
      <trkpt lat="39.01415" lon="-0.39454">
        <time>2019-03-23T12:15:25Z</time>
      </trkpt>
      <trkpt lat="39.01408" lon="-0.39446">
        <time>2019-03-23T12:15:26Z</time>
      </trkpt>
      <trkpt lat="39.01399" lon="-0.39439">
        <time>2019-03-23T12:15:27Z</time>
      </trkpt>
      <trkpt lat="39.01389" lon="-0.39433">
        <time>2019-03-23T12:15:28Z</time>
      </trkpt>
      <trkpt lat="39.0138" lon="-0.39426">
        <time>2019-03-23T12:15:29Z</time>
      </trkpt>
      <trkpt lat="39.01371" lon="-0.39421">
        <time>2019-03-23T12:15:30Z</time>
      </trkpt>
      <trkpt lat="39.01364" lon="-0.39418">
        <time>2019-03-23T12:15:31Z</time>
      </trkpt>
      <trkpt lat="39.01358" lon="-0.39411">
        <time>2019-03-23T12:15:32Z</time>
      </trkpt>
      <trkpt lat="39.01355" lon="-0.39402">
        <time>2019-03-23T12:15:33Z</time>
      </trkpt>
      <trkpt lat="39.01354" lon="-0.3939">
        <time>2019-03-23T12:15:34Z</time>
      </trkpt>
      <trkpt lat="39.01352" lon="-0.39377">
        <time>2019-03-23T12:15:35Z</time>
      </trkpt>
      <trkpt lat="39.01347" lon="-0.39364">
        <time>2019-03-23T12:15:36Z</time>
      </trkpt>
      <trkpt lat="39.0134" lon="-0.39352">
        <time>2019-03-23T12:15:37Z</time>
      </trkpt>
      <trkpt lat="39.01334" lon="-0.39341">
        <time>2019-03-23T12:15:38Z</time>
      </trkpt>
      <trkpt lat="39.01328" lon="-0.39332">
        <time>2019-03-23T12:15:39Z</time>
      </trkpt>
      <trkpt lat="39.01324" lon="-0.39323">
        <time>2019-03-23T12:15:40Z</time>
      </trkpt>
      <trkpt lat="39.0132" lon="-0.39312">
        <time>2019-03-23T12:15:41Z</time>
      </trkpt>
      <trkpt lat="39.01316" lon="-0.39299">
        <time>2019-03-23T12:15:42Z</time>
      </trkpt>
      <trkpt lat="39.01312" lon="-0.39286">
        <time>2019-03-23T12:15:43Z</time>
      </trkpt>
      <trkpt lat="39.01307" lon="-0.39273">
        <time>2019-03-23T12:15:44Z</time>
      </trkpt>
      <trkpt lat="39.01301" lon="-0.39262">
        <time>2019-03-23T12:15:45Z</time>
      </trkpt>
      <trkpt lat="39.01293" lon="-0.39253">
        <time>2019-03-23T12:15:46Z</time>
      </trkpt>
      <trkpt lat="39.01284" lon="-0.39243">
        <time>2019-03-23T12:15:47Z</time>
      </trkpt>
      <trkpt lat="39.01277" lon="-0.3923">
        <time>2019-03-23T12:15:48Z</time>
      </trkpt>
      <trkpt lat="39.01269" lon="-0.39214">
        <time>2019-03-23T12:15:49Z</time>
      </trkpt>
      <trkpt lat="39.01261" lon="-0.39197">
        <time>2019-03-23T12:15:50Z</time>
      </trkpt>
      <trkpt lat="39.01253" lon="-0.39181">
        <time>2019-03-23T12:15:51Z</time>
      </trkpt>
      <trkpt lat="39.01245" lon="-0.39167">
        <time>2019-03-23T12:15:52Z</time>
      </trkpt>
      <trkpt lat="39.01239" lon="-0.39154">
        <time>2019-03-23T12:15:53Z</time>
      </trkpt>
      <trkpt lat="39.01235" lon="-0.3914">
        <time>2019-03-23T12:15:54Z</time>
      </trkpt>
      <trkpt lat="39.01232" lon="-0.39126">
        <time>2019-03-23T12:15:55Z</time>
      </trkpt>
      <trkpt lat="39.0123" lon="-0.39111">
        <time>2019-03-23T12:15:56Z</time>
      </trkpt>
      <trkpt lat="39.01232" lon="-0.39094">
        <time>2019-03-23T12:15:57Z</time>
      </trkpt>
      <trkpt lat="39.01233" lon="-0.39078">
        <time>2019-03-23T12:15:58Z</time>
      </trkpt>
      <trkpt lat="39.01232" lon="-0.39062">
        <time>2019-03-23T12:15:59Z</time>
      </trkpt>
      <trkpt lat="39.0123" lon="-0.39047">
        <time>2019-03-23T12:16:00Z</time>
      </trkpt>
      <trkpt lat="39.01229" lon="-0.39031">
        <time>2019-03-23T12:16:01Z</time>
      </trkpt>
      <trkpt lat="39.01231" lon="-0.39013">
        <time>2019-03-23T12:16:02Z</time>
      </trkpt>
      <trkpt lat="39.01233" lon="-0.38997">
        <time>2019-03-23T12:16:03Z</time>
      </trkpt>
      <trkpt lat="39.01236" lon="-0.38981">
        <time>2019-03-23T12:16:04Z</time>
      </trkpt>
      <trkpt lat="39.01237" lon="-0.38966">
        <time>2019-03-23T12:16:05Z</time>
      </trkpt>
      <trkpt lat="39.01237" lon="-0.3895">
        <time>2019-03-23T12:16:06Z</time>
      </trkpt>
      <trkpt lat="39.01239" lon="-0.38932">
        <time>2019-03-23T12:16:07Z</time>
      </trkpt>
      <trkpt lat="39.01241" lon="-0.38913">
        <time>2019-03-23T12:16:08Z</time>
      </trkpt>
      <trkpt lat="39.01243" lon="-0.38893">
        <time>2019-03-23T12:16:09Z</time>
      </trkpt>
      <trkpt lat="39.01245" lon="-0.38873">
        <time>2019-03-23T12:16:10Z</time>
      </trkpt>
      <trkpt lat="39.01247" lon="-0.38852">
        <time>2019-03-23T12:16:11Z</time>
      </trkpt>
      <trkpt lat="39.01249" lon="-0.38831">
        <time>2019-03-23T12:16:12Z</time>
      </trkpt>
      <trkpt lat="39.01251" lon="-0.38812">
        <time>2019-03-23T12:16:13Z</time>
      </trkpt>
      <trkpt lat="39.01254" lon="-0.38795">
        <time>2019-03-23T12:16:14Z</time>
      </trkpt>
      <trkpt lat="39.01258" lon="-0.3878">
        <time>2019-03-23T12:16:15Z</time>
      </trkpt>
      <trkpt lat="39.01265" lon="-0.38766">
        <time>2019-03-23T12:16:16Z</time>
      </trkpt>
      <trkpt lat="39.01272" lon="-0.3875">
        <time>2019-03-23T12:16:17Z</time>
      </trkpt>
      <trkpt lat="39.01278" lon="-0.38734">
        <time>2019-03-23T12:16:18Z</time>
      </trkpt>
      <trkpt lat="39.01284" lon="-0.38719">
        <time>2019-03-23T12:16:19Z</time>
      </trkpt>
      <trkpt lat="39.01288" lon="-0.38707">
        <time>2019-03-23T12:16:20Z</time>
      </trkpt>
      <trkpt lat="39.01292" lon="-0.38698">
        <time>2019-03-23T12:16:21Z</time>
      </trkpt>
      <trkpt lat="39.01294" lon="-0.38692">
        <time>2019-03-23T12:16:22Z</time>
      </trkpt>
      <trkpt lat="39.01296" lon="-0.38688">
        <time>2019-03-23T12:16:23Z</time>
      </trkpt>
      <trkpt lat="39.01297" lon="-0.38683">
        <time>2019-03-23T12:16:24Z</time>
      </trkpt>
      <trkpt lat="39.01298" lon="-0.38679">
        <time>2019-03-23T12:16:25Z</time>
      </trkpt>
      <trkpt lat="39.01298" lon="-0.38677">
        <time>2019-03-23T12:16:26Z</time>
      </trkpt>
      <trkpt lat="39.01298" lon="-0.38676">
        <time>2019-03-23T12:16:27Z</time>
      </trkpt>
      <trkpt lat="39.01298" lon="-0.38673">
        <time>2019-03-23T12:16:34Z</time>
      </trkpt>
      <trkpt lat="39.01298" lon="-0.38669">
        <time>2019-03-23T12:16:35Z</time>
      </trkpt>
      <trkpt lat="39.01297" lon="-0.38663">
        <time>2019-03-23T12:16:36Z</time>
      </trkpt>
      <trkpt lat="39.01296" lon="-0.38656">
        <time>2019-03-23T12:16:37Z</time>
      </trkpt>
      <trkpt lat="39.01296" lon="-0.38647">
        <time>2019-03-23T12:16:38Z</time>
      </trkpt>
      <trkpt lat="39.01296" lon="-0.38638">
        <time>2019-03-23T12:16:39Z</time>
      </trkpt>
      <trkpt lat="39.01296" lon="-0.3863">
        <time>2019-03-23T12:16:40Z</time>
      </trkpt>
      <trkpt lat="39.01296" lon="-0.3862">
        <time>2019-03-23T12:16:41Z</time>
      </trkpt>
      <trkpt lat="39.01297" lon="-0.3861">
        <time>2019-03-23T12:16:42Z</time>
      </trkpt>
      <trkpt lat="39.01298" lon="-0.386">
        <time>2019-03-23T12:16:43Z</time>
      </trkpt>
      <trkpt lat="39.013" lon="-0.38591">
        <time>2019-03-23T12:16:44Z</time>
      </trkpt>
      <trkpt lat="39.01302" lon="-0.38584">
        <time>2019-03-23T12:16:45Z</time>
      </trkpt>
      <trkpt lat="39.01303" lon="-0.38576">
        <time>2019-03-23T12:16:46Z</time>
      </trkpt>
      <trkpt lat="39.01302" lon="-0.38567">
        <time>2019-03-23T12:16:47Z</time>
      </trkpt>
      <trkpt lat="39.013" lon="-0.38559">
        <time>2019-03-23T12:16:48Z</time>
      </trkpt>
      <trkpt lat="39.01297" lon="-0.38548">
        <time>2019-03-23T12:16:49Z</time>
      </trkpt>
      <trkpt lat="39.01294" lon="-0.38538">
        <time>2019-03-23T12:16:50Z</time>
      </trkpt>
      <trkpt lat="39.01292" lon="-0.38526">
        <time>2019-03-23T12:16:51Z</time>
      </trkpt>
      <trkpt lat="39.01291" lon="-0.38515">
        <time>2019-03-23T12:16:52Z</time>
      </trkpt>
      <trkpt lat="39.01291" lon="-0.38504">
        <time>2019-03-23T12:16:53Z</time>
      </trkpt>
      <trkpt lat="39.01292" lon="-0.38494">
        <time>2019-03-23T12:16:54Z</time>
      </trkpt>
      <trkpt lat="39.01293" lon="-0.38484">
        <time>2019-03-23T12:16:55Z</time>
      </trkpt>
      <trkpt lat="39.01294" lon="-0.38475">
        <time>2019-03-23T12:16:56Z</time>
      </trkpt>
      <trkpt lat="39.01295" lon="-0.38467">
        <time>2019-03-23T12:16:57Z</time>
      </trkpt>
      <trkpt lat="39.01294" lon="-0.38459">
        <time>2019-03-23T12:16:58Z</time>
      </trkpt>
      <trkpt lat="39.01292" lon="-0.38453">
        <time>2019-03-23T12:16:59Z</time>
      </trkpt>
      <trkpt lat="39.01293" lon="-0.38448">
        <time>2019-03-23T12:17:00Z</time>
      </trkpt>
      <trkpt lat="39.01295" lon="-0.38442">
        <time>2019-03-23T12:17:01Z</time>
      </trkpt>
      <trkpt lat="39.01299" lon="-0.38436">
        <time>2019-03-23T12:17:02Z</time>
      </trkpt>
      <trkpt lat="39.01305" lon="-0.38428">
        <time>2019-03-23T12:17:03Z</time>
      </trkpt>
      <trkpt lat="39.0131" lon="-0.38419">
        <time>2019-03-23T12:17:04Z</time>
      </trkpt>
      <trkpt lat="39.01316" lon="-0.3841">
        <time>2019-03-23T12:17:05Z</time>
      </trkpt>
      <trkpt lat="39.01322" lon="-0.38401">
        <time>2019-03-23T12:17:06Z</time>
      </trkpt>
      <trkpt lat="39.01328" lon="-0.38391">
        <time>2019-03-23T12:17:07Z</time>
      </trkpt>
      <trkpt lat="39.01334" lon="-0.3838">
        <time>2019-03-23T12:17:08Z</time>
      </trkpt>
      <trkpt lat="39.01339" lon="-0.38368">
        <time>2019-03-23T12:17:09Z</time>
      </trkpt>
      <trkpt lat="39.01343" lon="-0.38358">
        <time>2019-03-23T12:17:10Z</time>
      </trkpt>
      <trkpt lat="39.01351" lon="-0.38346">
        <time>2019-03-23T12:17:11Z</time>
      </trkpt>
      <trkpt lat="39.0136" lon="-0.38334">
        <time>2019-03-23T12:17:12Z</time>
      </trkpt>
      <trkpt lat="39.0137" lon="-0.38321">
        <time>2019-03-23T12:17:13Z</time>
      </trkpt>
      <trkpt lat="39.0138" lon="-0.38308">
        <time>2019-03-23T12:17:14Z</time>
      </trkpt>
      <trkpt lat="39.0139" lon="-0.38296">
        <time>2019-03-23T12:17:15Z</time>
      </trkpt>
      <trkpt lat="39.01401" lon="-0.38285">
        <time>2019-03-23T12:17:16Z</time>
      </trkpt>
      <trkpt lat="39.0141" lon="-0.38274">
        <time>2019-03-23T12:17:17Z</time>
      </trkpt>
      <trkpt lat="39.01419" lon="-0.38264">
        <time>2019-03-23T12:17:18Z</time>
      </trkpt>
      <trkpt lat="39.01427" lon="-0.38255">
        <time>2019-03-23T12:17:19Z</time>
      </trkpt>
      <trkpt lat="39.01435" lon="-0.38247">
        <time>2019-03-23T12:17:20Z</time>
      </trkpt>
      <trkpt lat="39.01443" lon="-0.38239">
        <time>2019-03-23T12:17:21Z</time>
      </trkpt>
      <trkpt lat="39.01448" lon="-0.38232">
        <time>2019-03-23T12:17:22Z</time>
      </trkpt>
      <trkpt lat="39.01451" lon="-0.38224">
        <time>2019-03-23T12:17:23Z</time>
      </trkpt>
      <trkpt lat="39.01453" lon="-0.38217">
        <time>2019-03-23T12:17:24Z</time>
      </trkpt>
      <trkpt lat="39.01454" lon="-0.38209">
        <time>2019-03-23T12:17:25Z</time>
      </trkpt>
      <trkpt lat="39.01454" lon="-0.382">
        <time>2019-03-23T12:17:26Z</time>
      </trkpt>
      <trkpt lat="39.01453" lon="-0.38189">
        <time>2019-03-23T12:17:27Z</time>
      </trkpt>
      <trkpt lat="39.01453" lon="-0.38177">
        <time>2019-03-23T12:17:28Z</time>
      </trkpt>
      <trkpt lat="39.01452" lon="-0.38165">
        <time>2019-03-23T12:17:29Z</time>
      </trkpt>
      <trkpt lat="39.01453" lon="-0.38154">
        <time>2019-03-23T12:17:30Z</time>
      </trkpt>
      <trkpt lat="39.01452" lon="-0.38144">
        <time>2019-03-23T12:17:31Z</time>
      </trkpt>
      <trkpt lat="39.01452" lon="-0.38133">
        <time>2019-03-23T12:17:32Z</time>
      </trkpt>
      <trkpt lat="39.01452" lon="-0.38122">
        <time>2019-03-23T12:17:33Z</time>
      </trkpt>
      <trkpt lat="39.01452" lon="-0.38111">
        <time>2019-03-23T12:17:34Z</time>
      </trkpt>
      <trkpt lat="39.01452" lon="-0.38099">
        <time>2019-03-23T12:17:35Z</time>
      </trkpt>
      <trkpt lat="39.01453" lon="-0.38088">
        <time>2019-03-23T12:17:36Z</time>
      </trkpt>
      <trkpt lat="39.01453" lon="-0.38077">
        <time>2019-03-23T12:17:37Z</time>
      </trkpt>
      <trkpt lat="39.01453" lon="-0.38066">
        <time>2019-03-23T12:17:38Z</time>
      </trkpt>
      <trkpt lat="39.01452" lon="-0.38054">
        <time>2019-03-23T12:17:39Z</time>
      </trkpt>
      <trkpt lat="39.01452" lon="-0.38042">
        <time>2019-03-23T12:17:40Z</time>
      </trkpt>
      <trkpt lat="39.01451" lon="-0.38029">
        <time>2019-03-23T12:17:41Z</time>
      </trkpt>
      <trkpt lat="39.01451" lon="-0.38016">
        <time>2019-03-23T12:17:42Z</time>
      </trkpt>
      <trkpt lat="39.0145" lon="-0.38005">
        <time>2019-03-23T12:17:43Z</time>
      </trkpt>
      <trkpt lat="39.01448" lon="-0.37995">
        <time>2019-03-23T12:17:44Z</time>
      </trkpt>
      <trkpt lat="39.01444" lon="-0.37987">
        <time>2019-03-23T12:17:45Z</time>
      </trkpt>
      <trkpt lat="39.01439" lon="-0.3798">
        <time>2019-03-23T12:17:46Z</time>
      </trkpt>
      <trkpt lat="39.01433" lon="-0.37975">
        <time>2019-03-23T12:17:47Z</time>
      </trkpt>
      <trkpt lat="39.01429" lon="-0.37968">
        <time>2019-03-23T12:17:48Z</time>
      </trkpt>
      <trkpt lat="39.01427" lon="-0.3796">
        <time>2019-03-23T12:17:49Z</time>
      </trkpt>
      <trkpt lat="39.01426" lon="-0.3795">
        <time>2019-03-23T12:17:50Z</time>
      </trkpt>
      <trkpt lat="39.01425" lon="-0.37939">
        <time>2019-03-23T12:17:51Z</time>
      </trkpt>
      <trkpt lat="39.01424" lon="-0.37927">
        <time>2019-03-23T12:17:52Z</time>
      </trkpt>
      <trkpt lat="39.01424" lon="-0.37914">
        <time>2019-03-23T12:17:53Z</time>
      </trkpt>
      <trkpt lat="39.01423" lon="-0.37902">
        <time>2019-03-23T12:17:54Z</time>
      </trkpt>
      <trkpt lat="39.01423" lon="-0.37889">
        <time>2019-03-23T12:17:55Z</time>
      </trkpt>
      <trkpt lat="39.01423" lon="-0.37876">
        <time>2019-03-23T12:17:56Z</time>
      </trkpt>
      <trkpt lat="39.01422" lon="-0.37862">
        <time>2019-03-23T12:17:57Z</time>
      </trkpt>
      <trkpt lat="39.01422" lon="-0.37849">
        <time>2019-03-23T12:17:58Z</time>
      </trkpt>
      <trkpt lat="39.01422" lon="-0.37838">
        <time>2019-03-23T12:17:59Z</time>
      </trkpt>
      <trkpt lat="39.01422" lon="-0.3783">
        <time>2019-03-23T12:18:00Z</time>
      </trkpt>
      <trkpt lat="39.01422" lon="-0.37825">
        <time>2019-03-23T12:18:01Z</time>
      </trkpt>
      <trkpt lat="39.01422" lon="-0.37823">
        <time>2019-03-23T12:18:02Z</time>
      </trkpt>
      <trkpt lat="39.01421" lon="-0.37822">
        <time>2019-03-23T12:18:03Z</time>
      </trkpt>
      <trkpt lat="39.01424" lon="-0.37823">
        <time>2019-03-23T12:23:38Z</time>
      </trkpt>
      <trkpt lat="39.01424" lon="-0.3782">
        <time>2019-03-23T12:23:39Z</time>
      </trkpt>
      <trkpt lat="39.01425" lon="-0.37815">
        <time>2019-03-23T12:23:40Z</time>
      </trkpt>
      <trkpt lat="39.01423" lon="-0.37808">
        <time>2019-03-23T12:23:41Z</time>
      </trkpt>
      <trkpt lat="39.01422" lon="-0.378">
        <time>2019-03-23T12:23:42Z</time>
      </trkpt>
      <trkpt lat="39.01422" lon="-0.37792">
        <time>2019-03-23T12:23:43Z</time>
      </trkpt>
      <trkpt lat="39.01421" lon="-0.37782">
        <time>2019-03-23T12:23:44Z</time>
      </trkpt>
      <trkpt lat="39.01421" lon="-0.37772">
        <time>2019-03-23T12:23:45Z</time>
      </trkpt>
      <trkpt lat="39.0142" lon="-0.37761">
        <time>2019-03-23T12:23:46Z</time>
      </trkpt>
      <trkpt lat="39.0142" lon="-0.3775">
        <time>2019-03-23T12:23:47Z</time>
      </trkpt>
      <trkpt lat="39.01421" lon="-0.3774">
        <time>2019-03-23T12:23:48Z</time>
      </trkpt>
      <trkpt lat="39.01421" lon="-0.37729">
        <time>2019-03-23T12:23:49Z</time>
      </trkpt>
      <trkpt lat="39.01422" lon="-0.37719">
        <time>2019-03-23T12:23:50Z</time>
      </trkpt>
      <trkpt lat="39.01421" lon="-0.37709">
        <time>2019-03-23T12:23:51Z</time>
      </trkpt>
      <trkpt lat="39.01419" lon="-0.377">
        <time>2019-03-23T12:23:52Z</time>
      </trkpt>
      <trkpt lat="39.01419" lon="-0.37686">
        <time>2019-03-23T12:23:53Z</time>
      </trkpt>
      <trkpt lat="39.01419" lon="-0.37675">
        <time>2019-03-23T12:23:54Z</time>
      </trkpt>
      <trkpt lat="39.01419" lon="-0.37663">
        <time>2019-03-23T12:23:55Z</time>
      </trkpt>
      <trkpt lat="39.01419" lon="-0.37651">
        <time>2019-03-23T12:23:56Z</time>
      </trkpt>
      <trkpt lat="39.01419" lon="-0.3764">
        <time>2019-03-23T12:23:57Z</time>
      </trkpt>
      <trkpt lat="39.01419" lon="-0.37631">
        <time>2019-03-23T12:23:58Z</time>
      </trkpt>
      <trkpt lat="39.01418" lon="-0.37621">
        <time>2019-03-23T12:23:59Z</time>
      </trkpt>
      <trkpt lat="39.01419" lon="-0.37612">
        <time>2019-03-23T12:24:00Z</time>
      </trkpt>
      <trkpt lat="39.01419" lon="-0.37604">
        <time>2019-03-23T12:24:01Z</time>
      </trkpt>
      <trkpt lat="39.01419" lon="-0.37597">
        <time>2019-03-23T12:24:02Z</time>
      </trkpt>
      <trkpt lat="39.01418" lon="-0.3759">
        <time>2019-03-23T12:24:03Z</time>
      </trkpt>
      <trkpt lat="39.01419" lon="-0.37584">
        <time>2019-03-23T12:24:04Z</time>
      </trkpt>
      <trkpt lat="39.01421" lon="-0.37579">
        <time>2019-03-23T12:24:05Z</time>
      </trkpt>
      <trkpt lat="39.01424" lon="-0.37575">
        <time>2019-03-23T12:24:06Z</time>
      </trkpt>
      <trkpt lat="39.01428" lon="-0.37572">
        <time>2019-03-23T12:24:07Z</time>
      </trkpt>
      <trkpt lat="39.01433" lon="-0.37569">
        <time>2019-03-23T12:24:08Z</time>
      </trkpt>
      <trkpt lat="39.01436" lon="-0.37566">
        <time>2019-03-23T12:24:09Z</time>
      </trkpt>
      <trkpt lat="39.01439" lon="-0.37561">
        <time>2019-03-23T12:24:10Z</time>
      </trkpt>
      <trkpt lat="39.01441" lon="-0.37554">
        <time>2019-03-23T12:24:11Z</time>
      </trkpt>
      <trkpt lat="39.01441" lon="-0.37547">
        <time>2019-03-23T12:24:12Z</time>
      </trkpt>
      <trkpt lat="39.0144" lon="-0.37538">
        <time>2019-03-23T12:24:13Z</time>
      </trkpt>
      <trkpt lat="39.01439" lon="-0.37528">
        <time>2019-03-23T12:24:14Z</time>
      </trkpt>
      <trkpt lat="39.0144" lon="-0.37518">
        <time>2019-03-23T12:24:15Z</time>
      </trkpt>
      <trkpt lat="39.0144" lon="-0.37509">
        <time>2019-03-23T12:24:16Z</time>
      </trkpt>
      <trkpt lat="39.0144" lon="-0.37501">
        <time>2019-03-23T12:24:17Z</time>
      </trkpt>
      <trkpt lat="39.0144" lon="-0.37494">
        <time>2019-03-23T12:24:18Z</time>
      </trkpt>
      <trkpt lat="39.0144" lon="-0.37487">
        <time>2019-03-23T12:24:19Z</time>
      </trkpt>
      <trkpt lat="39.01441" lon="-0.37478">
        <time>2019-03-23T12:24:20Z</time>
      </trkpt>
      <trkpt lat="39.01441" lon="-0.37469">
        <time>2019-03-23T12:24:21Z</time>
      </trkpt>
      <trkpt lat="39.01441" lon="-0.37459">
        <time>2019-03-23T12:24:22Z</time>
      </trkpt>
      <trkpt lat="39.01441" lon="-0.37449">
        <time>2019-03-23T12:24:23Z</time>
      </trkpt>
      <trkpt lat="39.01441" lon="-0.37438">
        <time>2019-03-23T12:24:24Z</time>
      </trkpt>
      <trkpt lat="39.01441" lon="-0.37429">
        <time>2019-03-23T12:24:25Z</time>
      </trkpt>
      <trkpt lat="39.01441" lon="-0.37418">
        <time>2019-03-23T12:24:26Z</time>
      </trkpt>
      <trkpt lat="39.01441" lon="-0.37409">
        <time>2019-03-23T12:24:27Z</time>
      </trkpt>
      <trkpt lat="39.01441" lon="-0.374">
        <time>2019-03-23T12:24:28Z</time>
      </trkpt>
      <trkpt lat="39.01442" lon="-0.37392">
        <time>2019-03-23T12:24:29Z</time>
      </trkpt>
      <trkpt lat="39.01442" lon="-0.37386">
        <time>2019-03-23T12:24:30Z</time>
      </trkpt>
      <trkpt lat="39.01444" lon="-0.3738">
        <time>2019-03-23T12:24:31Z</time>
      </trkpt>
      <trkpt lat="39.01447" lon="-0.37376">
        <time>2019-03-23T12:24:32Z</time>
      </trkpt>
      <trkpt lat="39.01452" lon="-0.37373">
        <time>2019-03-23T12:24:33Z</time>
      </trkpt>
      <trkpt lat="39.01459" lon="-0.37372">
        <time>2019-03-23T12:24:34Z</time>
      </trkpt>
      <trkpt lat="39.01466" lon="-0.37372">
        <time>2019-03-23T12:24:35Z</time>
      </trkpt>
      <trkpt lat="39.01474" lon="-0.37372">
        <time>2019-03-23T12:24:36Z</time>
      </trkpt>
      <trkpt lat="39.01482" lon="-0.37372">
        <time>2019-03-23T12:24:37Z</time>
      </trkpt>
      <trkpt lat="39.01488" lon="-0.37371">
        <time>2019-03-23T12:24:38Z</time>
      </trkpt>
      <trkpt lat="39.01492" lon="-0.3737">
        <time>2019-03-23T12:24:39Z</time>
      </trkpt>
      <trkpt lat="39.01495" lon="-0.37366">
        <time>2019-03-23T12:24:40Z</time>
      </trkpt>
      <trkpt lat="39.01496" lon="-0.37363">
        <time>2019-03-23T12:24:41Z</time>
      </trkpt>
      <trkpt lat="39.01496" lon="-0.37357">
        <time>2019-03-23T12:24:42Z</time>
      </trkpt>
      <trkpt lat="39.01494" lon="-0.37352">
        <time>2019-03-23T12:24:43Z</time>
      </trkpt>
      <trkpt lat="39.01491" lon="-0.37346">
        <time>2019-03-23T12:24:44Z</time>
      </trkpt>
      <trkpt lat="39.01489" lon="-0.3734">
        <time>2019-03-23T12:24:45Z</time>
      </trkpt>
      <trkpt lat="39.01486" lon="-0.37336">
        <time>2019-03-23T12:24:46Z</time>
      </trkpt>
      <trkpt lat="39.01483" lon="-0.37334">
        <time>2019-03-23T12:24:47Z</time>
      </trkpt>
      <trkpt lat="39.0148" lon="-0.37331">
        <time>2019-03-23T12:24:48Z</time>
      </trkpt>
      <trkpt lat="39.01477" lon="-0.37329">
        <time>2019-03-23T12:24:49Z</time>
      </trkpt>
      <trkpt lat="39.01475" lon="-0.37327">
        <time>2019-03-23T12:24:50Z</time>
      </trkpt>
      <trkpt lat="39.01474" lon="-0.37324">
        <time>2019-03-23T12:24:51Z</time>
      </trkpt>
      <trkpt lat="39.01472" lon="-0.37321">
        <time>2019-03-23T12:24:52Z</time>
      </trkpt>
      <trkpt lat="39.01472" lon="-0.37319">
        <time>2019-03-23T12:24:53Z</time>
      </trkpt>
      <trkpt lat="39.01471" lon="-0.37317">
        <time>2019-03-23T12:25:11Z</time>
      </trkpt>
      <trkpt lat="39.0147" lon="-0.37315">
        <time>2019-03-23T12:25:12Z</time>
      </trkpt>
      <trkpt lat="39.01468" lon="-0.37311">
        <time>2019-03-23T12:25:13Z</time>
      </trkpt>
      <trkpt lat="39.01467" lon="-0.37306">
        <time>2019-03-23T12:25:14Z</time>
      </trkpt>
      <trkpt lat="39.01464" lon="-0.37294">
        <time>2019-03-23T12:25:15Z</time>
      </trkpt>
      <trkpt lat="39.01461" lon="-0.37284">
        <time>2019-03-23T12:25:16Z</time>
      </trkpt>
      <trkpt lat="39.01457" lon="-0.37274">
        <time>2019-03-23T12:25:17Z</time>
      </trkpt>
      <trkpt lat="39.01453" lon="-0.37265">
        <time>2019-03-23T12:25:18Z</time>
      </trkpt>
      <trkpt lat="39.01447" lon="-0.37256">
        <time>2019-03-23T12:25:19Z</time>
      </trkpt>
      <trkpt lat="39.01441" lon="-0.37247">
        <time>2019-03-23T12:25:20Z</time>
      </trkpt>
      <trkpt lat="39.01434" lon="-0.37236">
        <time>2019-03-23T12:25:21Z</time>
      </trkpt>
      <trkpt lat="39.01428" lon="-0.37225">
        <time>2019-03-23T12:25:22Z</time>
      </trkpt>
      <trkpt lat="39.01422" lon="-0.37214">
        <time>2019-03-23T12:25:23Z</time>
      </trkpt>
      <trkpt lat="39.01418" lon="-0.37204">
        <time>2019-03-23T12:25:24Z</time>
      </trkpt>
      <trkpt lat="39.01414" lon="-0.37194">
        <time>2019-03-23T12:25:25Z</time>
      </trkpt>
      <trkpt lat="39.01412" lon="-0.37185">
        <time>2019-03-23T12:25:26Z</time>
      </trkpt>
      <trkpt lat="39.01413" lon="-0.37176">
        <time>2019-03-23T12:25:27Z</time>
      </trkpt>
      <trkpt lat="39.01416" lon="-0.37169">
        <time>2019-03-23T12:25:28Z</time>
      </trkpt>
      <trkpt lat="39.01422" lon="-0.37161">
        <time>2019-03-23T12:25:29Z</time>
      </trkpt>
      <trkpt lat="39.01428" lon="-0.37153">
        <time>2019-03-23T12:25:30Z</time>
      </trkpt>
      <trkpt lat="39.01435" lon="-0.37146">
        <time>2019-03-23T12:25:31Z</time>
      </trkpt>
      <trkpt lat="39.01441" lon="-0.37137">
        <time>2019-03-23T12:25:32Z</time>
      </trkpt>
      <trkpt lat="39.01446" lon="-0.37128">
        <time>2019-03-23T12:25:33Z</time>
      </trkpt>
      <trkpt lat="39.01449" lon="-0.37119">
        <time>2019-03-23T12:25:34Z</time>
      </trkpt>
      <trkpt lat="39.0145" lon="-0.3711">
        <time>2019-03-23T12:25:35Z</time>
      </trkpt>
      <trkpt lat="39.01449" lon="-0.37099">
        <time>2019-03-23T12:25:36Z</time>
      </trkpt>
      <trkpt lat="39.01447" lon="-0.37087">
        <time>2019-03-23T12:25:37Z</time>
      </trkpt>
      <trkpt lat="39.01445" lon="-0.37074">
        <time>2019-03-23T12:25:38Z</time>
      </trkpt>
      <trkpt lat="39.01444" lon="-0.37059">
        <time>2019-03-23T12:25:39Z</time>
      </trkpt>
      <trkpt lat="39.01444" lon="-0.37045">
        <time>2019-03-23T12:25:40Z</time>
      </trkpt>
      <trkpt lat="39.01443" lon="-0.37032">
        <time>2019-03-23T12:25:41Z</time>
      </trkpt>
      <trkpt lat="39.01441" lon="-0.37018">
        <time>2019-03-23T12:25:42Z</time>
      </trkpt>
      <trkpt lat="39.0144" lon="-0.37003">
        <time>2019-03-23T12:25:43Z</time>
      </trkpt>
      <trkpt lat="39.01439" lon="-0.3699">
        <time>2019-03-23T12:25:44Z</time>
      </trkpt>
      <trkpt lat="39.01437" lon="-0.36978">
        <time>2019-03-23T12:25:45Z</time>
      </trkpt>
      <trkpt lat="39.01436" lon="-0.36966">
        <time>2019-03-23T12:25:46Z</time>
      </trkpt>
      <trkpt lat="39.01434" lon="-0.36955">
        <time>2019-03-23T12:25:47Z</time>
      </trkpt>
      <trkpt lat="39.01433" lon="-0.36944">
        <time>2019-03-23T12:25:48Z</time>
      </trkpt>
      <trkpt lat="39.01432" lon="-0.36935">
        <time>2019-03-23T12:25:49Z</time>
      </trkpt>
      <trkpt lat="39.0143" lon="-0.36927">
        <time>2019-03-23T12:25:50Z</time>
      </trkpt>
      <trkpt lat="39.01429" lon="-0.36919">
        <time>2019-03-23T12:25:51Z</time>
      </trkpt>
      <trkpt lat="39.01428" lon="-0.36912">
        <time>2019-03-23T12:25:52Z</time>
      </trkpt>
      <trkpt lat="39.01427" lon="-0.36906">
        <time>2019-03-23T12:25:53Z</time>
      </trkpt>
      <trkpt lat="39.01427" lon="-0.36901">
        <time>2019-03-23T12:25:54Z</time>
      </trkpt>
      <trkpt lat="39.01427" lon="-0.36897">
        <time>2019-03-23T12:25:55Z</time>
      </trkpt>
      <trkpt lat="39.0143" lon="-0.36893">
        <time>2019-03-23T12:25:56Z</time>
      </trkpt>
      <trkpt lat="39.01433" lon="-0.36891">
        <time>2019-03-23T12:25:57Z</time>
      </trkpt>
      <trkpt lat="39.01436" lon="-0.36892">
        <time>2019-03-23T12:25:58Z</time>
      </trkpt>
      <trkpt lat="39.01438" lon="-0.36895">
        <time>2019-03-23T12:25:59Z</time>
      </trkpt>
      <trkpt lat="39.01439" lon="-0.36898">
        <time>2019-03-23T12:26:00Z</time>
      </trkpt>
      <trkpt lat="39.0144" lon="-0.36901">
        <time>2019-03-23T12:26:01Z</time>
      </trkpt>
      <trkpt lat="39.01442" lon="-0.36903">
        <time>2019-03-23T12:26:02Z</time>
      </trkpt>
      <trkpt lat="39.01445" lon="-0.36902">
        <time>2019-03-23T12:26:03Z</time>
      </trkpt>
      <trkpt lat="39.01446" lon="-0.36899">
        <time>2019-03-23T12:26:04Z</time>
      </trkpt>
      <trkpt lat="39.01446" lon="-0.36895">
        <time>2019-03-23T12:26:05Z</time>
      </trkpt>
      <trkpt lat="39.01444" lon="-0.36893">
        <time>2019-03-23T12:26:06Z</time>
      </trkpt>
      <trkpt lat="39.01437" lon="-0.36896">
        <time>2019-03-23T12:34:56Z</time>
      </trkpt>
      <trkpt lat="39.01436" lon="-0.36894">
        <time>2019-03-23T12:34:57Z</time>
      </trkpt>
      <trkpt lat="39.01435" lon="-0.36892">
        <time>2019-03-23T12:34:58Z</time>
      </trkpt>
      <trkpt lat="39.01434" lon="-0.36887">
        <time>2019-03-23T12:34:59Z</time>
      </trkpt>
      <trkpt lat="39.01436" lon="-0.36882">
        <time>2019-03-23T12:35:00Z</time>
      </trkpt>
      <trkpt lat="39.01441" lon="-0.36877">
        <time>2019-03-23T12:35:01Z</time>
      </trkpt>
      <trkpt lat="39.01443" lon="-0.36871">
        <time>2019-03-23T12:35:02Z</time>
      </trkpt>
      <trkpt lat="39.01445" lon="-0.36866">
        <time>2019-03-23T12:35:03Z</time>
      </trkpt>
      <trkpt lat="39.01442" lon="-0.36859">
        <time>2019-03-23T12:35:04Z</time>
      </trkpt>
      <trkpt lat="39.01439" lon="-0.36853">
        <time>2019-03-23T12:35:05Z</time>
      </trkpt>
      <trkpt lat="39.01437" lon="-0.36847">
        <time>2019-03-23T12:35:06Z</time>
      </trkpt>
      <trkpt lat="39.01434" lon="-0.36839">
        <time>2019-03-23T12:35:07Z</time>
      </trkpt>
      <trkpt lat="39.0143" lon="-0.36829">
        <time>2019-03-23T12:35:08Z</time>
      </trkpt>
      <trkpt lat="39.01428" lon="-0.36821">
        <time>2019-03-23T12:35:09Z</time>
      </trkpt>
      <trkpt lat="39.01427" lon="-0.36815">
        <time>2019-03-23T12:35:10Z</time>
      </trkpt>
      <trkpt lat="39.01426" lon="-0.36808">
        <time>2019-03-23T12:35:11Z</time>
      </trkpt>
      <trkpt lat="39.01425" lon="-0.36801">
        <time>2019-03-23T12:35:12Z</time>
      </trkpt>
      <trkpt lat="39.01424" lon="-0.36793">
        <time>2019-03-23T12:35:13Z</time>
      </trkpt>
      <trkpt lat="39.01425" lon="-0.36785">
        <time>2019-03-23T12:35:14Z</time>
      </trkpt>
      <trkpt lat="39.01425" lon="-0.36777">
        <time>2019-03-23T12:35:15Z</time>
      </trkpt>
      <trkpt lat="39.01425" lon="-0.36768">
        <time>2019-03-23T12:35:16Z</time>
      </trkpt>
      <trkpt lat="39.01426" lon="-0.36758">
        <time>2019-03-23T12:35:17Z</time>
      </trkpt>
      <trkpt lat="39.01428" lon="-0.36748">
        <time>2019-03-23T12:35:18Z</time>
      </trkpt>
      <trkpt lat="39.0143" lon="-0.3674">
        <time>2019-03-23T12:35:19Z</time>
      </trkpt>
      <trkpt lat="39.01432" lon="-0.36732">
        <time>2019-03-23T12:35:20Z</time>
      </trkpt>
      <trkpt lat="39.01434" lon="-0.36727">
        <time>2019-03-23T12:35:21Z</time>
      </trkpt>
      <trkpt lat="39.01436" lon="-0.36721">
        <time>2019-03-23T12:35:22Z</time>
      </trkpt>
      <trkpt lat="39.01439" lon="-0.36714">
        <time>2019-03-23T12:35:23Z</time>
      </trkpt>
      <trkpt lat="39.01442" lon="-0.36705">
        <time>2019-03-23T12:35:24Z</time>
      </trkpt>
      <trkpt lat="39.01445" lon="-0.36695">
        <time>2019-03-23T12:35:25Z</time>
      </trkpt>
      <trkpt lat="39.01449" lon="-0.36683">
        <time>2019-03-23T12:35:26Z</time>
      </trkpt>
      <trkpt lat="39.01454" lon="-0.36669">
        <time>2019-03-23T12:35:27Z</time>
      </trkpt>
      <trkpt lat="39.01459" lon="-0.36654">
        <time>2019-03-23T12:35:28Z</time>
      </trkpt>
      <trkpt lat="39.01466" lon="-0.36639">
        <time>2019-03-23T12:35:29Z</time>
      </trkpt>
      <trkpt lat="39.01474" lon="-0.36624">
        <time>2019-03-23T12:35:30Z</time>
      </trkpt>
      <trkpt lat="39.0148" lon="-0.36608">
        <time>2019-03-23T12:35:31Z</time>
      </trkpt>
      <trkpt lat="39.01486" lon="-0.36593">
        <time>2019-03-23T12:35:32Z</time>
      </trkpt>
      <trkpt lat="39.01489" lon="-0.36576">
        <time>2019-03-23T12:35:33Z</time>
      </trkpt>
      <trkpt lat="39.01491" lon="-0.36558">
        <time>2019-03-23T12:35:34Z</time>
      </trkpt>
      <trkpt lat="39.01493" lon="-0.36542">
        <time>2019-03-23T12:35:35Z</time>
      </trkpt>
      <trkpt lat="39.01494" lon="-0.36526">
        <time>2019-03-23T12:35:36Z</time>
      </trkpt>
      <trkpt lat="39.01495" lon="-0.36513">
        <time>2019-03-23T12:35:37Z</time>
      </trkpt>
      <trkpt lat="39.01496" lon="-0.36502">
        <time>2019-03-23T12:35:38Z</time>
      </trkpt>
      <trkpt lat="39.01497" lon="-0.36494">
        <time>2019-03-23T12:35:39Z</time>
      </trkpt>
      <trkpt lat="39.01499" lon="-0.3649">
        <time>2019-03-23T12:35:40Z</time>
      </trkpt>
      <trkpt lat="39.015" lon="-0.36486">
        <time>2019-03-23T12:35:41Z</time>
      </trkpt>
      <trkpt lat="39.015" lon="-0.36481">
        <time>2019-03-23T12:35:42Z</time>
      </trkpt>
      <trkpt lat="39.01499" lon="-0.36473">
        <time>2019-03-23T12:35:43Z</time>
      </trkpt>
      <trkpt lat="39.01499" lon="-0.36464">
        <time>2019-03-23T12:35:44Z</time>
      </trkpt>
      <trkpt lat="39.01499" lon="-0.36453">
        <time>2019-03-23T12:35:45Z</time>
      </trkpt>
      <trkpt lat="39.01499" lon="-0.36441">
        <time>2019-03-23T12:35:46Z</time>
      </trkpt>
      <trkpt lat="39.01496" lon="-0.36429">
        <time>2019-03-23T12:35:47Z</time>
      </trkpt>
      <trkpt lat="39.01492" lon="-0.36417">
        <time>2019-03-23T12:35:48Z</time>
      </trkpt>
      <trkpt lat="39.01486" lon="-0.36406">
        <time>2019-03-23T12:35:49Z</time>
      </trkpt>
      <trkpt lat="39.01477" lon="-0.36396">
        <time>2019-03-23T12:35:50Z</time>
      </trkpt>
      <trkpt lat="39.01469" lon="-0.36387">
        <time>2019-03-23T12:35:51Z</time>
      </trkpt>
      <trkpt lat="39.01461" lon="-0.36378">
        <time>2019-03-23T12:35:52Z</time>
      </trkpt>
      <trkpt lat="39.01454" lon="-0.36367">
        <time>2019-03-23T12:35:53Z</time>
      </trkpt>
      <trkpt lat="39.01445" lon="-0.36355">
        <time>2019-03-23T12:35:54Z</time>
      </trkpt>
      <trkpt lat="39.01435" lon="-0.36344">
        <time>2019-03-23T12:35:55Z</time>
      </trkpt>
      <trkpt lat="39.01425" lon="-0.36332">
        <time>2019-03-23T12:35:56Z</time>
      </trkpt>
      <trkpt lat="39.01414" lon="-0.3632">
        <time>2019-03-23T12:35:57Z</time>
      </trkpt>
      <trkpt lat="39.01405" lon="-0.36307">
        <time>2019-03-23T12:35:58Z</time>
      </trkpt>
      <trkpt lat="39.01396" lon="-0.36295">
        <time>2019-03-23T12:35:59Z</time>
      </trkpt>
      <trkpt lat="39.01388" lon="-0.36283">
        <time>2019-03-23T12:36:00Z</time>
      </trkpt>
      <trkpt lat="39.0138" lon="-0.36272">
        <time>2019-03-23T12:36:01Z</time>
      </trkpt>
      <trkpt lat="39.01373" lon="-0.3626">
        <time>2019-03-23T12:36:02Z</time>
      </trkpt>
      <trkpt lat="39.01364" lon="-0.36247">
        <time>2019-03-23T12:36:03Z</time>
      </trkpt>
      <trkpt lat="39.01357" lon="-0.36233">
        <time>2019-03-23T12:36:04Z</time>
      </trkpt>
      <trkpt lat="39.0135" lon="-0.36217">
        <time>2019-03-23T12:36:05Z</time>
      </trkpt>
      <trkpt lat="39.01344" lon="-0.362">
        <time>2019-03-23T12:36:06Z</time>
      </trkpt>
      <trkpt lat="39.0134" lon="-0.36182">
        <time>2019-03-23T12:36:07Z</time>
      </trkpt>
      <trkpt lat="39.01335" lon="-0.36165">
        <time>2019-03-23T12:36:08Z</time>
      </trkpt>
      <trkpt lat="39.01331" lon="-0.36148">
        <time>2019-03-23T12:36:09Z</time>
      </trkpt>
      <trkpt lat="39.01326" lon="-0.36133">
        <time>2019-03-23T12:36:10Z</time>
      </trkpt>
      <trkpt lat="39.01322" lon="-0.36117">
        <time>2019-03-23T12:36:11Z</time>
      </trkpt>
      <trkpt lat="39.01318" lon="-0.36104">
        <time>2019-03-23T12:36:12Z</time>
      </trkpt>
      <trkpt lat="39.01314" lon="-0.36089">
        <time>2019-03-23T12:36:13Z</time>
      </trkpt>
      <trkpt lat="39.0131" lon="-0.36074">
        <time>2019-03-23T12:36:14Z</time>
      </trkpt>
      <trkpt lat="39.01305" lon="-0.36059">
        <time>2019-03-23T12:36:15Z</time>
      </trkpt>
      <trkpt lat="39.013" lon="-0.36044">
        <time>2019-03-23T12:36:16Z</time>
      </trkpt>
      <trkpt lat="39.01294" lon="-0.36029">
        <time>2019-03-23T12:36:17Z</time>
      </trkpt>
      <trkpt lat="39.01288" lon="-0.36012">
        <time>2019-03-23T12:36:18Z</time>
      </trkpt>
      <trkpt lat="39.01281" lon="-0.35995">
        <time>2019-03-23T12:36:19Z</time>
      </trkpt>
      <trkpt lat="39.01274" lon="-0.35977">
        <time>2019-03-23T12:36:20Z</time>
      </trkpt>
      <trkpt lat="39.01269" lon="-0.35957">
        <time>2019-03-23T12:36:21Z</time>
      </trkpt>
      <trkpt lat="39.01264" lon="-0.35938">
        <time>2019-03-23T12:36:22Z</time>
      </trkpt>
      <trkpt lat="39.01259" lon="-0.35918">
        <time>2019-03-23T12:36:23Z</time>
      </trkpt>
      <trkpt lat="39.01253" lon="-0.35901">
        <time>2019-03-23T12:36:24Z</time>
      </trkpt>
      <trkpt lat="39.01248" lon="-0.35884">
        <time>2019-03-23T12:36:25Z</time>
      </trkpt>
      <trkpt lat="39.01245" lon="-0.35869">
        <time>2019-03-23T12:36:26Z</time>
      </trkpt>
      <trkpt lat="39.01245" lon="-0.35855">
        <time>2019-03-23T12:36:27Z</time>
      </trkpt>
      <trkpt lat="39.01246" lon="-0.35842">
        <time>2019-03-23T12:36:28Z</time>
      </trkpt>
      <trkpt lat="39.01249" lon="-0.35828">
        <time>2019-03-23T12:36:29Z</time>
      </trkpt>
      <trkpt lat="39.01252" lon="-0.35815">
        <time>2019-03-23T12:36:30Z</time>
      </trkpt>
      <trkpt lat="39.01256" lon="-0.35801">
        <time>2019-03-23T12:36:31Z</time>
      </trkpt>
      <trkpt lat="39.0126" lon="-0.35788">
        <time>2019-03-23T12:36:32Z</time>
      </trkpt>
      <trkpt lat="39.01264" lon="-0.35776">
        <time>2019-03-23T12:36:33Z</time>
      </trkpt>
      <trkpt lat="39.01267" lon="-0.35763">
        <time>2019-03-23T12:36:34Z</time>
      </trkpt>
      <trkpt lat="39.01269" lon="-0.35749">
        <time>2019-03-23T12:36:35Z</time>
      </trkpt>
      <trkpt lat="39.0127" lon="-0.35733">
        <time>2019-03-23T12:36:36Z</time>
      </trkpt>
      <trkpt lat="39.01271" lon="-0.35716">
        <time>2019-03-23T12:36:37Z</time>
      </trkpt>
      <trkpt lat="39.01271" lon="-0.35697">
        <time>2019-03-23T12:36:38Z</time>
      </trkpt>
      <trkpt lat="39.01271" lon="-0.35679">
        <time>2019-03-23T12:36:39Z</time>
      </trkpt>
      <trkpt lat="39.01271" lon="-0.35663">
        <time>2019-03-23T12:36:40Z</time>
      </trkpt>
      <trkpt lat="39.0127" lon="-0.35649">
        <time>2019-03-23T12:36:41Z</time>
      </trkpt>
      <trkpt lat="39.01267" lon="-0.35638">
        <time>2019-03-23T12:36:42Z</time>
      </trkpt>
      <trkpt lat="39.01264" lon="-0.35631">
        <time>2019-03-23T12:36:43Z</time>
      </trkpt>
      <trkpt lat="39.01258" lon="-0.35628">
        <time>2019-03-23T12:36:44Z</time>
      </trkpt>
      <trkpt lat="39.01252" lon="-0.35627">
        <time>2019-03-23T12:36:45Z</time>
      </trkpt>
      <trkpt lat="39.01244" lon="-0.35626">
        <time>2019-03-23T12:36:46Z</time>
      </trkpt>
      <trkpt lat="39.01236" lon="-0.35626">
        <time>2019-03-23T12:36:47Z</time>
      </trkpt>
      <trkpt lat="39.01229" lon="-0.35625">
        <time>2019-03-23T12:36:48Z</time>
      </trkpt>
      <trkpt lat="39.01222" lon="-0.35623">
        <time>2019-03-23T12:36:49Z</time>
      </trkpt>
      <trkpt lat="39.01214" lon="-0.3562">
        <time>2019-03-23T12:36:50Z</time>
      </trkpt>
      <trkpt lat="39.01207" lon="-0.35616">
        <time>2019-03-23T12:36:51Z</time>
      </trkpt>
      <trkpt lat="39.012" lon="-0.35609">
        <time>2019-03-23T12:36:52Z</time>
      </trkpt>
      <trkpt lat="39.01192" lon="-0.35599">
        <time>2019-03-23T12:36:53Z</time>
      </trkpt>
      <trkpt lat="39.01182" lon="-0.3559">
        <time>2019-03-23T12:36:54Z</time>
      </trkpt>
      <trkpt lat="39.01172" lon="-0.3558">
        <time>2019-03-23T12:36:55Z</time>
      </trkpt>
      <trkpt lat="39.01161" lon="-0.35569">
        <time>2019-03-23T12:36:56Z</time>
      </trkpt>
      <trkpt lat="39.0115" lon="-0.35557">
        <time>2019-03-23T12:36:57Z</time>
      </trkpt>
      <trkpt lat="39.01138" lon="-0.35545">
        <time>2019-03-23T12:36:58Z</time>
      </trkpt>
      <trkpt lat="39.01125" lon="-0.35532">
        <time>2019-03-23T12:36:59Z</time>
      </trkpt>
      <trkpt lat="39.01114" lon="-0.35521">
        <time>2019-03-23T12:37:00Z</time>
      </trkpt>
      <trkpt lat="39.01104" lon="-0.35511">
        <time>2019-03-23T12:37:01Z</time>
      </trkpt>
      <trkpt lat="39.01094" lon="-0.35502">
        <time>2019-03-23T12:37:02Z</time>
      </trkpt>
      <trkpt lat="39.01085" lon="-0.35494">
        <time>2019-03-23T12:37:03Z</time>
      </trkpt>
      <trkpt lat="39.01078" lon="-0.35485">
        <time>2019-03-23T12:37:04Z</time>
      </trkpt>
      <trkpt lat="39.01072" lon="-0.35476">
        <time>2019-03-23T12:37:05Z</time>
      </trkpt>
      <trkpt lat="39.01068" lon="-0.35464">
        <time>2019-03-23T12:37:06Z</time>
      </trkpt>
      <trkpt lat="39.01064" lon="-0.35451">
        <time>2019-03-23T12:37:07Z</time>
      </trkpt>
      <trkpt lat="39.01059" lon="-0.35438">
        <time>2019-03-23T12:37:08Z</time>
      </trkpt>
      <trkpt lat="39.01054" lon="-0.35423">
        <time>2019-03-23T12:37:09Z</time>
      </trkpt>
      <trkpt lat="39.01048" lon="-0.35409">
        <time>2019-03-23T12:37:10Z</time>
      </trkpt>
      <trkpt lat="39.01043" lon="-0.35394">
        <time>2019-03-23T12:37:11Z</time>
      </trkpt>
      <trkpt lat="39.01039" lon="-0.35381">
        <time>2019-03-23T12:37:12Z</time>
      </trkpt>
      <trkpt lat="39.01038" lon="-0.35367">
        <time>2019-03-23T12:37:13Z</time>
      </trkpt>
      <trkpt lat="39.01039" lon="-0.35354">
        <time>2019-03-23T12:37:14Z</time>
      </trkpt>
      <trkpt lat="39.01041" lon="-0.35339">
        <time>2019-03-23T12:37:15Z</time>
      </trkpt>
      <trkpt lat="39.01045" lon="-0.35322">
        <time>2019-03-23T12:37:16Z</time>
      </trkpt>
      <trkpt lat="39.01047" lon="-0.35306">
        <time>2019-03-23T12:37:17Z</time>
      </trkpt>
      <trkpt lat="39.01049" lon="-0.35291">
        <time>2019-03-23T12:37:18Z</time>
      </trkpt>
      <trkpt lat="39.01051" lon="-0.35278">
        <time>2019-03-23T12:37:19Z</time>
      </trkpt>
      <trkpt lat="39.01056" lon="-0.35268">
        <time>2019-03-23T12:37:20Z</time>
      </trkpt>
      <trkpt lat="39.01063" lon="-0.35264">
        <time>2019-03-23T12:37:21Z</time>
      </trkpt>
      <trkpt lat="39.01073" lon="-0.35262">
        <time>2019-03-23T12:37:22Z</time>
      </trkpt>
      <trkpt lat="39.01085" lon="-0.35263">
        <time>2019-03-23T12:37:23Z</time>
      </trkpt>
      <trkpt lat="39.01098" lon="-0.35265">
        <time>2019-03-23T12:37:24Z</time>
      </trkpt>
      <trkpt lat="39.01113" lon="-0.35267">
        <time>2019-03-23T12:37:25Z</time>
      </trkpt>
      <trkpt lat="39.01127" lon="-0.35268">
        <time>2019-03-23T12:37:26Z</time>
      </trkpt>
      <trkpt lat="39.0114" lon="-0.35269">
        <time>2019-03-23T12:37:27Z</time>
      </trkpt>
      <trkpt lat="39.01153" lon="-0.35267">
        <time>2019-03-23T12:37:28Z</time>
      </trkpt>
      <trkpt lat="39.01166" lon="-0.35262">
        <time>2019-03-23T12:37:29Z</time>
      </trkpt>
      <trkpt lat="39.01178" lon="-0.35254">
        <time>2019-03-23T12:37:30Z</time>
      </trkpt>
      <trkpt lat="39.0119" lon="-0.35245">
        <time>2019-03-23T12:37:31Z</time>
      </trkpt>
      <trkpt lat="39.01199" lon="-0.35234">
        <time>2019-03-23T12:37:32Z</time>
      </trkpt>
      <trkpt lat="39.01207" lon="-0.35223">
        <time>2019-03-23T12:37:33Z</time>
      </trkpt>
      <trkpt lat="39.01213" lon="-0.35208">
        <time>2019-03-23T12:37:34Z</time>
      </trkpt>
      <trkpt lat="39.01217" lon="-0.35192">
        <time>2019-03-23T12:37:35Z</time>
      </trkpt>
      <trkpt lat="39.0122" lon="-0.35174">
        <time>2019-03-23T12:37:36Z</time>
      </trkpt>
      <trkpt lat="39.0122" lon="-0.35157">
        <time>2019-03-23T12:37:37Z</time>
      </trkpt>
      <trkpt lat="39.01219" lon="-0.35141">
        <time>2019-03-23T12:37:38Z</time>
      </trkpt>
      <trkpt lat="39.0122" lon="-0.35125">
        <time>2019-03-23T12:37:39Z</time>
      </trkpt>
      <trkpt lat="39.01224" lon="-0.35111">
        <time>2019-03-23T12:37:40Z</time>
      </trkpt>
      <trkpt lat="39.01231" lon="-0.35099">
        <time>2019-03-23T12:37:41Z</time>
      </trkpt>
      <trkpt lat="39.01241" lon="-0.35089">
        <time>2019-03-23T12:37:42Z</time>
      </trkpt>
      <trkpt lat="39.01252" lon="-0.35084">
        <time>2019-03-23T12:37:43Z</time>
      </trkpt>
      <trkpt lat="39.01263" lon="-0.35084">
        <time>2019-03-23T12:37:44Z</time>
      </trkpt>
      <trkpt lat="39.01272" lon="-0.35087">
        <time>2019-03-23T12:37:45Z</time>
      </trkpt>
      <trkpt lat="39.01282" lon="-0.35089">
        <time>2019-03-23T12:37:46Z</time>
      </trkpt>
      <trkpt lat="39.01291" lon="-0.35088">
        <time>2019-03-23T12:37:47Z</time>
      </trkpt>
      <trkpt lat="39.01302" lon="-0.35085">
        <time>2019-03-23T12:37:48Z</time>
      </trkpt>
      <trkpt lat="39.01313" lon="-0.35082">
        <time>2019-03-23T12:37:49Z</time>
      </trkpt>
      <trkpt lat="39.01324" lon="-0.35077">
        <time>2019-03-23T12:37:50Z</time>
      </trkpt>
      <trkpt lat="39.01335" lon="-0.35071">
        <time>2019-03-23T12:37:51Z</time>
      </trkpt>
      <trkpt lat="39.01344" lon="-0.35064">
        <time>2019-03-23T12:37:52Z</time>
      </trkpt>
      <trkpt lat="39.01351" lon="-0.35057">
        <time>2019-03-23T12:37:53Z</time>
      </trkpt>
      <trkpt lat="39.01356" lon="-0.35047">
        <time>2019-03-23T12:37:54Z</time>
      </trkpt>
      <trkpt lat="39.01359" lon="-0.35035">
        <time>2019-03-23T12:37:55Z</time>
      </trkpt>
      <trkpt lat="39.01362" lon="-0.3502">
        <time>2019-03-23T12:37:56Z</time>
      </trkpt>
      <trkpt lat="39.01363" lon="-0.35006">
        <time>2019-03-23T12:37:57Z</time>
      </trkpt>
      <trkpt lat="39.01363" lon="-0.34991">
        <time>2019-03-23T12:37:58Z</time>
      </trkpt>
      <trkpt lat="39.0136" lon="-0.34977">
        <time>2019-03-23T12:37:59Z</time>
      </trkpt>
      <trkpt lat="39.01354" lon="-0.34965">
        <time>2019-03-23T12:38:00Z</time>
      </trkpt>
      <trkpt lat="39.01347" lon="-0.34952">
        <time>2019-03-23T12:38:01Z</time>
      </trkpt>
      <trkpt lat="39.01342" lon="-0.34939">
        <time>2019-03-23T12:38:02Z</time>
      </trkpt>
      <trkpt lat="39.01338" lon="-0.34924">
        <time>2019-03-23T12:38:03Z</time>
      </trkpt>
      <trkpt lat="39.01334" lon="-0.34906">
        <time>2019-03-23T12:38:04Z</time>
      </trkpt>
      <trkpt lat="39.01332" lon="-0.34889">
        <time>2019-03-23T12:38:05Z</time>
      </trkpt>
      <trkpt lat="39.01329" lon="-0.34873">
        <time>2019-03-23T12:38:06Z</time>
      </trkpt>
      <trkpt lat="39.01323" lon="-0.3486">
        <time>2019-03-23T12:38:07Z</time>
      </trkpt>
      <trkpt lat="39.01316" lon="-0.34847">
        <time>2019-03-23T12:38:08Z</time>
      </trkpt>
      <trkpt lat="39.01309" lon="-0.34831">
        <time>2019-03-23T12:38:09Z</time>
      </trkpt>
      <trkpt lat="39.01302" lon="-0.34814">
        <time>2019-03-23T12:38:10Z</time>
      </trkpt>
      <trkpt lat="39.01293" lon="-0.34797">
        <time>2019-03-23T12:38:11Z</time>
      </trkpt>
      <trkpt lat="39.01285" lon="-0.34782">
        <time>2019-03-23T12:38:12Z</time>
      </trkpt>
      <trkpt lat="39.01275" lon="-0.34765">
        <time>2019-03-23T12:38:13Z</time>
      </trkpt>
      <trkpt lat="39.01265" lon="-0.34751">
        <time>2019-03-23T12:38:14Z</time>
      </trkpt>
      <trkpt lat="39.01254" lon="-0.34738">
        <time>2019-03-23T12:38:15Z</time>
      </trkpt>
      <trkpt lat="39.01244" lon="-0.34727">
        <time>2019-03-23T12:38:16Z</time>
      </trkpt>
      <trkpt lat="39.01237" lon="-0.34714">
        <time>2019-03-23T12:38:17Z</time>
      </trkpt>
      <trkpt lat="39.01231" lon="-0.347">
        <time>2019-03-23T12:38:18Z</time>
      </trkpt>
      <trkpt lat="39.01225" lon="-0.34684">
        <time>2019-03-23T12:38:19Z</time>
      </trkpt>
      <trkpt lat="39.01221" lon="-0.34667">
        <time>2019-03-23T12:38:20Z</time>
      </trkpt>
      <trkpt lat="39.01217" lon="-0.34652">
        <time>2019-03-23T12:38:21Z</time>
      </trkpt>
      <trkpt lat="39.01214" lon="-0.3464">
        <time>2019-03-23T12:38:22Z</time>
      </trkpt>
      <trkpt lat="39.01211" lon="-0.34631">
        <time>2019-03-23T12:38:23Z</time>
      </trkpt>
      <trkpt lat="39.01207" lon="-0.34627">
        <time>2019-03-23T12:38:24Z</time>
      </trkpt>
      <trkpt lat="39.01202" lon="-0.34626">
        <time>2019-03-23T12:38:25Z</time>
      </trkpt>
      <trkpt lat="39.01197" lon="-0.3463">
        <time>2019-03-23T12:38:26Z</time>
      </trkpt>
      <trkpt lat="39.01192" lon="-0.34638">
        <time>2019-03-23T12:38:27Z</time>
      </trkpt>
      <trkpt lat="39.01186" lon="-0.34647">
        <time>2019-03-23T12:38:28Z</time>
      </trkpt>
      <trkpt lat="39.01178" lon="-0.34656">
        <time>2019-03-23T12:38:29Z</time>
      </trkpt>
      <trkpt lat="39.01169" lon="-0.34663">
        <time>2019-03-23T12:38:30Z</time>
      </trkpt>
      <trkpt lat="39.01158" lon="-0.34666">
        <time>2019-03-23T12:38:31Z</time>
      </trkpt>
      <trkpt lat="39.01148" lon="-0.34667">
        <time>2019-03-23T12:38:32Z</time>
      </trkpt>
      <trkpt lat="39.01139" lon="-0.34667">
        <time>2019-03-23T12:38:33Z</time>
      </trkpt>
      <trkpt lat="39.01135" lon="-0.34661">
        <time>2019-03-23T12:38:34Z</time>
      </trkpt>
      <trkpt lat="39.01131" lon="-0.34652">
        <time>2019-03-23T12:38:35Z</time>
      </trkpt>
      <trkpt lat="39.01126" lon="-0.3464">
        <time>2019-03-23T12:38:36Z</time>
      </trkpt>
      <trkpt lat="39.01121" lon="-0.34626">
        <time>2019-03-23T12:38:37Z</time>
      </trkpt>
      <trkpt lat="39.01115" lon="-0.34612">
        <time>2019-03-23T12:38:38Z</time>
      </trkpt>
      <trkpt lat="39.01109" lon="-0.34597">
        <time>2019-03-23T12:38:39Z</time>
      </trkpt>
      <trkpt lat="39.01104" lon="-0.34582">
        <time>2019-03-23T12:38:40Z</time>
      </trkpt>
      <trkpt lat="39.01101" lon="-0.34569">
        <time>2019-03-23T12:38:41Z</time>
      </trkpt>
      <trkpt lat="39.011" lon="-0.34556">
        <time>2019-03-23T12:38:42Z</time>
      </trkpt>
      <trkpt lat="39.01103" lon="-0.34543">
        <time>2019-03-23T12:38:43Z</time>
      </trkpt>
      <trkpt lat="39.01105" lon="-0.34531">
        <time>2019-03-23T12:38:44Z</time>
      </trkpt>
      <trkpt lat="39.01108" lon="-0.34522">
        <time>2019-03-23T12:38:45Z</time>
      </trkpt>
      <trkpt lat="39.01113" lon="-0.34517">
        <time>2019-03-23T12:38:46Z</time>
      </trkpt>
      <trkpt lat="39.01118" lon="-0.34517">
        <time>2019-03-23T12:38:47Z</time>
      </trkpt>
      <trkpt lat="39.01123" lon="-0.34523">
        <time>2019-03-23T12:38:48Z</time>
      </trkpt>
      <trkpt lat="39.01126" lon="-0.34531">
        <time>2019-03-23T12:38:49Z</time>
      </trkpt>
      <trkpt lat="39.01127" lon="-0.34542">
        <time>2019-03-23T12:38:50Z</time>
      </trkpt>
      <trkpt lat="39.01129" lon="-0.34554">
        <time>2019-03-23T12:38:51Z</time>
      </trkpt>
      <trkpt lat="39.01133" lon="-0.34565">
        <time>2019-03-23T12:38:52Z</time>
      </trkpt>
      <trkpt lat="39.01139" lon="-0.34572">
        <time>2019-03-23T12:38:53Z</time>
      </trkpt>
      <trkpt lat="39.01146" lon="-0.34575">
        <time>2019-03-23T12:38:54Z</time>
      </trkpt>
      <trkpt lat="39.01154" lon="-0.34574">
        <time>2019-03-23T12:38:55Z</time>
      </trkpt>
      <trkpt lat="39.01162" lon="-0.34568">
        <time>2019-03-23T12:38:56Z</time>
      </trkpt>
      <trkpt lat="39.01168" lon="-0.3456">
        <time>2019-03-23T12:38:57Z</time>
      </trkpt>
      <trkpt lat="39.0118" lon="-0.34549">
        <time>2019-03-23T12:38:58Z</time>
      </trkpt>
      <trkpt lat="39.01192" lon="-0.34543">
        <time>2019-03-23T12:38:59Z</time>
      </trkpt>
      <trkpt lat="39.01206" lon="-0.3454">
        <time>2019-03-23T12:39:00Z</time>
      </trkpt>
      <trkpt lat="39.0122" lon="-0.34537">
        <time>2019-03-23T12:39:01Z</time>
      </trkpt>
      <trkpt lat="39.01235" lon="-0.34538">
        <time>2019-03-23T12:39:02Z</time>
      </trkpt>
      <trkpt lat="39.01249" lon="-0.34541">
        <time>2019-03-23T12:39:03Z</time>
      </trkpt>
      <trkpt lat="39.01261" lon="-0.34546">
        <time>2019-03-23T12:39:04Z</time>
      </trkpt>
      <trkpt lat="39.01269" lon="-0.34555">
        <time>2019-03-23T12:39:05Z</time>
      </trkpt>
      <trkpt lat="39.01276" lon="-0.34564">
        <time>2019-03-23T12:39:06Z</time>
      </trkpt>
      <trkpt lat="39.01283" lon="-0.3457">
        <time>2019-03-23T12:39:07Z</time>
      </trkpt>
      <trkpt lat="39.01289" lon="-0.34572">
        <time>2019-03-23T12:39:08Z</time>
      </trkpt>
      <trkpt lat="39.01294" lon="-0.34569">
        <time>2019-03-23T12:39:09Z</time>
      </trkpt>
      <trkpt lat="39.01296" lon="-0.34563">
        <time>2019-03-23T12:39:10Z</time>
      </trkpt>
      <trkpt lat="39.01294" lon="-0.34553">
        <time>2019-03-23T12:39:11Z</time>
      </trkpt>
      <trkpt lat="39.0129" lon="-0.34543">
        <time>2019-03-23T12:39:12Z</time>
      </trkpt>
      <trkpt lat="39.01283" lon="-0.34532">
        <time>2019-03-23T12:39:13Z</time>
      </trkpt>
      <trkpt lat="39.01275" lon="-0.3452">
        <time>2019-03-23T12:39:14Z</time>
      </trkpt>
      <trkpt lat="39.01265" lon="-0.34509">
        <time>2019-03-23T12:39:15Z</time>
      </trkpt>
      <trkpt lat="39.01257" lon="-0.34496">
        <time>2019-03-23T12:39:16Z</time>
      </trkpt>
      <trkpt lat="39.01248" lon="-0.34483">
        <time>2019-03-23T12:39:17Z</time>
      </trkpt>
      <trkpt lat="39.01237" lon="-0.34472">
        <time>2019-03-23T12:39:18Z</time>
      </trkpt>
      <trkpt lat="39.01227" lon="-0.34463">
        <time>2019-03-23T12:39:19Z</time>
      </trkpt>
      <trkpt lat="39.01218" lon="-0.34453">
        <time>2019-03-23T12:39:20Z</time>
      </trkpt>
      <trkpt lat="39.01212" lon="-0.34444">
        <time>2019-03-23T12:39:21Z</time>
      </trkpt>
      <trkpt lat="39.01209" lon="-0.34433">
        <time>2019-03-23T12:39:22Z</time>
      </trkpt>
      <trkpt lat="39.01209" lon="-0.34422">
        <time>2019-03-23T12:39:23Z</time>
      </trkpt>
      <trkpt lat="39.01211" lon="-0.34409">
        <time>2019-03-23T12:39:24Z</time>
      </trkpt>
      <trkpt lat="39.01213" lon="-0.34395">
        <time>2019-03-23T12:39:25Z</time>
      </trkpt>
      <trkpt lat="39.01216" lon="-0.34379">
        <time>2019-03-23T12:39:26Z</time>
      </trkpt>
      <trkpt lat="39.01219" lon="-0.34362">
        <time>2019-03-23T12:39:27Z</time>
      </trkpt>
      <trkpt lat="39.01222" lon="-0.34344">
        <time>2019-03-23T12:39:28Z</time>
      </trkpt>
      <trkpt lat="39.01224" lon="-0.34326">
        <time>2019-03-23T12:39:29Z</time>
      </trkpt>
      <trkpt lat="39.01224" lon="-0.34307">
        <time>2019-03-23T12:39:30Z</time>
      </trkpt>
      <trkpt lat="39.01223" lon="-0.34287">
        <time>2019-03-23T12:39:31Z</time>
      </trkpt>
      <trkpt lat="39.01222" lon="-0.34267">
        <time>2019-03-23T12:39:32Z</time>
      </trkpt>
      <trkpt lat="39.01219" lon="-0.34247">
        <time>2019-03-23T12:39:33Z</time>
      </trkpt>
      <trkpt lat="39.01218" lon="-0.34226">
        <time>2019-03-23T12:39:34Z</time>
      </trkpt>
      <trkpt lat="39.01215" lon="-0.34206">
        <time>2019-03-23T12:39:35Z</time>
      </trkpt>
      <trkpt lat="39.01211" lon="-0.34187">
        <time>2019-03-23T12:39:36Z</time>
      </trkpt>
      <trkpt lat="39.01206" lon="-0.3417">
        <time>2019-03-23T12:39:37Z</time>
      </trkpt>
      <trkpt lat="39.01202" lon="-0.34155">
        <time>2019-03-23T12:39:38Z</time>
      </trkpt>
      <trkpt lat="39.012" lon="-0.34139">
        <time>2019-03-23T12:39:39Z</time>
      </trkpt>
      <trkpt lat="39.01201" lon="-0.34123">
        <time>2019-03-23T12:39:40Z</time>
      </trkpt>
      <trkpt lat="39.01202" lon="-0.34107">
        <time>2019-03-23T12:39:41Z</time>
      </trkpt>
      <trkpt lat="39.01204" lon="-0.34091">
        <time>2019-03-23T12:39:42Z</time>
      </trkpt>
      <trkpt lat="39.01206" lon="-0.34075">
        <time>2019-03-23T12:39:43Z</time>
      </trkpt>
      <trkpt lat="39.0121" lon="-0.34059">
        <time>2019-03-23T12:39:44Z</time>
      </trkpt>
      <trkpt lat="39.01216" lon="-0.34044">
        <time>2019-03-23T12:39:45Z</time>
      </trkpt>
      <trkpt lat="39.01224" lon="-0.3403">
        <time>2019-03-23T12:39:46Z</time>
      </trkpt>
      <trkpt lat="39.01232" lon="-0.34017">
        <time>2019-03-23T12:39:47Z</time>
      </trkpt>
      <trkpt lat="39.01239" lon="-0.34006">
        <time>2019-03-23T12:39:48Z</time>
      </trkpt>
      <trkpt lat="39.01245" lon="-0.33995">
        <time>2019-03-23T12:39:49Z</time>
      </trkpt>
      <trkpt lat="39.01248" lon="-0.33981">
        <time>2019-03-23T12:39:50Z</time>
      </trkpt>
      <trkpt lat="39.01251" lon="-0.33965">
        <time>2019-03-23T12:39:51Z</time>
      </trkpt>
      <trkpt lat="39.01252" lon="-0.33945">
        <time>2019-03-23T12:39:52Z</time>
      </trkpt>
      <trkpt lat="39.01254" lon="-0.33924">
        <time>2019-03-23T12:39:53Z</time>
      </trkpt>
      <trkpt lat="39.01256" lon="-0.33904">
        <time>2019-03-23T12:39:54Z</time>
      </trkpt>
      <trkpt lat="39.01258" lon="-0.33886">
        <time>2019-03-23T12:39:55Z</time>
      </trkpt>
      <trkpt lat="39.01259" lon="-0.33869">
        <time>2019-03-23T12:39:56Z</time>
      </trkpt>
      <trkpt lat="39.01258" lon="-0.33854">
        <time>2019-03-23T12:39:57Z</time>
      </trkpt>
      <trkpt lat="39.01254" lon="-0.33839">
        <time>2019-03-23T12:39:58Z</time>
      </trkpt>
      <trkpt lat="39.01249" lon="-0.33825">
        <time>2019-03-23T12:39:59Z</time>
      </trkpt>
      <trkpt lat="39.01246" lon="-0.3381">
        <time>2019-03-23T12:40:00Z</time>
      </trkpt>
      <trkpt lat="39.01246" lon="-0.33793">
        <time>2019-03-23T12:40:01Z</time>
      </trkpt>
      <trkpt lat="39.01246" lon="-0.33776">
        <time>2019-03-23T12:40:02Z</time>
      </trkpt>
      <trkpt lat="39.01244" lon="-0.33761">
        <time>2019-03-23T12:40:03Z</time>
      </trkpt>
      <trkpt lat="39.01239" lon="-0.33745">
        <time>2019-03-23T12:40:04Z</time>
      </trkpt>
      <trkpt lat="39.01234" lon="-0.3373">
        <time>2019-03-23T12:40:05Z</time>
      </trkpt>
      <trkpt lat="39.01232" lon="-0.33717">
        <time>2019-03-23T12:40:06Z</time>
      </trkpt>
      <trkpt lat="39.01232" lon="-0.33706">
        <time>2019-03-23T12:40:07Z</time>
      </trkpt>
      <trkpt lat="39.01234" lon="-0.33697">
        <time>2019-03-23T12:40:08Z</time>
      </trkpt>
      <trkpt lat="39.01238" lon="-0.33689">
        <time>2019-03-23T12:40:09Z</time>
      </trkpt>
      <trkpt lat="39.01242" lon="-0.33678">
        <time>2019-03-23T12:40:10Z</time>
      </trkpt>
      <trkpt lat="39.01243" lon="-0.33667">
        <time>2019-03-23T12:40:11Z</time>
      </trkpt>
      <trkpt lat="39.01242" lon="-0.33655">
        <time>2019-03-23T12:40:12Z</time>
      </trkpt>
      <trkpt lat="39.0124" lon="-0.33639">
        <time>2019-03-23T12:40:13Z</time>
      </trkpt>
      <trkpt lat="39.01239" lon="-0.33624">
        <time>2019-03-23T12:40:14Z</time>
      </trkpt>
      <trkpt lat="39.01236" lon="-0.33609">
        <time>2019-03-23T12:40:15Z</time>
      </trkpt>
      <trkpt lat="39.01231" lon="-0.33598">
        <time>2019-03-23T12:40:16Z</time>
      </trkpt>
      <trkpt lat="39.01225" lon="-0.33588">
        <time>2019-03-23T12:40:17Z</time>
      </trkpt>
      <trkpt lat="39.0122" lon="-0.33576">
        <time>2019-03-23T12:40:18Z</time>
      </trkpt>
      <trkpt lat="39.01219" lon="-0.33564">
        <time>2019-03-23T12:40:19Z</time>
      </trkpt>
      <trkpt lat="39.01219" lon="-0.33551">
        <time>2019-03-23T12:40:20Z</time>
      </trkpt>
      <trkpt lat="39.01217" lon="-0.33538">
        <time>2019-03-23T12:40:21Z</time>
      </trkpt>
      <trkpt lat="39.01213" lon="-0.33526">
        <time>2019-03-23T12:40:22Z</time>
      </trkpt>
      <trkpt lat="39.01206" lon="-0.33516">
        <time>2019-03-23T12:40:23Z</time>
      </trkpt>
      <trkpt lat="39.01198" lon="-0.33507">
        <time>2019-03-23T12:40:24Z</time>
      </trkpt>
      <trkpt lat="39.0119" lon="-0.33497">
        <time>2019-03-23T12:40:25Z</time>
      </trkpt>
      <trkpt lat="39.01185" lon="-0.33485">
        <time>2019-03-23T12:40:26Z</time>
      </trkpt>
      <trkpt lat="39.01183" lon="-0.3347">
        <time>2019-03-23T12:40:27Z</time>
      </trkpt>
      <trkpt lat="39.01182" lon="-0.33454">
        <time>2019-03-23T12:40:28Z</time>
      </trkpt>
      <trkpt lat="39.01182" lon="-0.33437">
        <time>2019-03-23T12:40:29Z</time>
      </trkpt>
      <trkpt lat="39.01183" lon="-0.3342">
        <time>2019-03-23T12:40:30Z</time>
      </trkpt>
      <trkpt lat="39.01183" lon="-0.33403">
        <time>2019-03-23T12:40:31Z</time>
      </trkpt>
      <trkpt lat="39.01184" lon="-0.33385">
        <time>2019-03-23T12:40:32Z</time>
      </trkpt>
      <trkpt lat="39.01184" lon="-0.33366">
        <time>2019-03-23T12:40:33Z</time>
      </trkpt>
      <trkpt lat="39.01186" lon="-0.33348">
        <time>2019-03-23T12:40:34Z</time>
      </trkpt>
      <trkpt lat="39.01191" lon="-0.33331">
        <time>2019-03-23T12:40:35Z</time>
      </trkpt>
      <trkpt lat="39.01195" lon="-0.33316">
        <time>2019-03-23T12:40:36Z</time>
      </trkpt>
      <trkpt lat="39.012" lon="-0.33298">
        <time>2019-03-23T12:40:37Z</time>
      </trkpt>
      <trkpt lat="39.01206" lon="-0.33282">
        <time>2019-03-23T12:40:38Z</time>
      </trkpt>
      <trkpt lat="39.01212" lon="-0.33266">
        <time>2019-03-23T12:40:39Z</time>
      </trkpt>
      <trkpt lat="39.01219" lon="-0.33253">
        <time>2019-03-23T12:40:40Z</time>
      </trkpt>
      <trkpt lat="39.01222" lon="-0.33239">
        <time>2019-03-23T12:40:41Z</time>
      </trkpt>
      <trkpt lat="39.01227" lon="-0.33225">
        <time>2019-03-23T12:40:42Z</time>
      </trkpt>
      <trkpt lat="39.01229" lon="-0.33208">
        <time>2019-03-23T12:40:43Z</time>
      </trkpt>
      <trkpt lat="39.01232" lon="-0.33191">
        <time>2019-03-23T12:40:44Z</time>
      </trkpt>
      <trkpt lat="39.01233" lon="-0.33172">
        <time>2019-03-23T12:40:45Z</time>
      </trkpt>
      <trkpt lat="39.01234" lon="-0.33154">
        <time>2019-03-23T12:40:46Z</time>
      </trkpt>
      <trkpt lat="39.01233" lon="-0.33134">
        <time>2019-03-23T12:40:47Z</time>
      </trkpt>
      <trkpt lat="39.01233" lon="-0.33116">
        <time>2019-03-23T12:40:48Z</time>
      </trkpt>
      <trkpt lat="39.01234" lon="-0.33099">
        <time>2019-03-23T12:40:49Z</time>
      </trkpt>
      <trkpt lat="39.01237" lon="-0.33083">
        <time>2019-03-23T12:40:50Z</time>
      </trkpt>
      <trkpt lat="39.01242" lon="-0.33065">
        <time>2019-03-23T12:40:51Z</time>
      </trkpt>
      <trkpt lat="39.01248" lon="-0.33049">
        <time>2019-03-23T12:40:52Z</time>
      </trkpt>
      <trkpt lat="39.01256" lon="-0.33033">
        <time>2019-03-23T12:40:53Z</time>
      </trkpt>
      <trkpt lat="39.01264" lon="-0.33018">
        <time>2019-03-23T12:40:54Z</time>
      </trkpt>
      <trkpt lat="39.01273" lon="-0.33003">
        <time>2019-03-23T12:40:55Z</time>
      </trkpt>
      <trkpt lat="39.01284" lon="-0.32989">
        <time>2019-03-23T12:40:56Z</time>
      </trkpt>
      <trkpt lat="39.01294" lon="-0.32977">
        <time>2019-03-23T12:40:57Z</time>
      </trkpt>
      <trkpt lat="39.01305" lon="-0.32965">
        <time>2019-03-23T12:40:58Z</time>
      </trkpt>
      <trkpt lat="39.0131" lon="-0.32954">
        <time>2019-03-23T12:40:59Z</time>
      </trkpt>
      <trkpt lat="39.01314" lon="-0.32943">
        <time>2019-03-23T12:41:00Z</time>
      </trkpt>
      <trkpt lat="39.01317" lon="-0.32933">
        <time>2019-03-23T12:41:01Z</time>
      </trkpt>
      <trkpt lat="39.01317" lon="-0.32923">
        <time>2019-03-23T12:41:02Z</time>
      </trkpt>
      <trkpt lat="39.01318" lon="-0.32912">
        <time>2019-03-23T12:41:03Z</time>
      </trkpt>
      <trkpt lat="39.01319" lon="-0.32898">
        <time>2019-03-23T12:41:04Z</time>
      </trkpt>
      <trkpt lat="39.01321" lon="-0.32884">
        <time>2019-03-23T12:41:05Z</time>
      </trkpt>
      <trkpt lat="39.01322" lon="-0.3287">
        <time>2019-03-23T12:41:06Z</time>
      </trkpt>
      <trkpt lat="39.01323" lon="-0.32854">
        <time>2019-03-23T12:41:07Z</time>
      </trkpt>
      <trkpt lat="39.01324" lon="-0.32838">
        <time>2019-03-23T12:41:08Z</time>
      </trkpt>
      <trkpt lat="39.01328" lon="-0.32823">
        <time>2019-03-23T12:41:09Z</time>
      </trkpt>
      <trkpt lat="39.01331" lon="-0.32808">
        <time>2019-03-23T12:41:10Z</time>
      </trkpt>
      <trkpt lat="39.01333" lon="-0.32792">
        <time>2019-03-23T12:41:11Z</time>
      </trkpt>
      <trkpt lat="39.01334" lon="-0.32776">
        <time>2019-03-23T12:41:12Z</time>
      </trkpt>
      <trkpt lat="39.01335" lon="-0.32759">
        <time>2019-03-23T12:41:13Z</time>
      </trkpt>
      <trkpt lat="39.01334" lon="-0.32743">
        <time>2019-03-23T12:41:14Z</time>
      </trkpt>
      <trkpt lat="39.01333" lon="-0.32726">
        <time>2019-03-23T12:41:15Z</time>
      </trkpt>
      <trkpt lat="39.01333" lon="-0.32711">
        <time>2019-03-23T12:41:16Z</time>
      </trkpt>
      <trkpt lat="39.01335" lon="-0.32698">
        <time>2019-03-23T12:41:17Z</time>
      </trkpt>
      <trkpt lat="39.0134" lon="-0.32687">
        <time>2019-03-23T12:41:18Z</time>
      </trkpt>
      <trkpt lat="39.01345" lon="-0.32676">
        <time>2019-03-23T12:41:19Z</time>
      </trkpt>
      <trkpt lat="39.0135" lon="-0.32663">
        <time>2019-03-23T12:41:20Z</time>
      </trkpt>
      <trkpt lat="39.01355" lon="-0.3265">
        <time>2019-03-23T12:41:21Z</time>
      </trkpt>
      <trkpt lat="39.01359" lon="-0.32635">
        <time>2019-03-23T12:41:22Z</time>
      </trkpt>
      <trkpt lat="39.01361" lon="-0.3262">
        <time>2019-03-23T12:41:23Z</time>
      </trkpt>
      <trkpt lat="39.01362" lon="-0.32604">
        <time>2019-03-23T12:41:24Z</time>
      </trkpt>
      <trkpt lat="39.01366" lon="-0.32589">
        <time>2019-03-23T12:41:25Z</time>
      </trkpt>
      <trkpt lat="39.01372" lon="-0.32575">
        <time>2019-03-23T12:41:26Z</time>
      </trkpt>
      <trkpt lat="39.01379" lon="-0.32561">
        <time>2019-03-23T12:41:27Z</time>
      </trkpt>
      <trkpt lat="39.01387" lon="-0.32549">
        <time>2019-03-23T12:41:28Z</time>
      </trkpt>
      <trkpt lat="39.01395" lon="-0.32535">
        <time>2019-03-23T12:41:29Z</time>
      </trkpt>
      <trkpt lat="39.01401" lon="-0.32521">
        <time>2019-03-23T12:41:30Z</time>
      </trkpt>
      <trkpt lat="39.01406" lon="-0.32505">
        <time>2019-03-23T12:41:31Z</time>
      </trkpt>
      <trkpt lat="39.01409" lon="-0.32488">
        <time>2019-03-23T12:41:32Z</time>
      </trkpt>
      <trkpt lat="39.01411" lon="-0.32469">
        <time>2019-03-23T12:41:33Z</time>
      </trkpt>
      <trkpt lat="39.01413" lon="-0.3245">
        <time>2019-03-23T12:41:34Z</time>
      </trkpt>
      <trkpt lat="39.01416" lon="-0.3243">
        <time>2019-03-23T12:41:35Z</time>
      </trkpt>
      <trkpt lat="39.01421" lon="-0.32412">
        <time>2019-03-23T12:41:36Z</time>
      </trkpt>
      <trkpt lat="39.01427" lon="-0.32395">
        <time>2019-03-23T12:41:37Z</time>
      </trkpt>
      <trkpt lat="39.01432" lon="-0.3238">
        <time>2019-03-23T12:41:38Z</time>
      </trkpt>
      <trkpt lat="39.01438" lon="-0.32367">
        <time>2019-03-23T12:41:39Z</time>
      </trkpt>
      <trkpt lat="39.01441" lon="-0.32355">
        <time>2019-03-23T12:41:40Z</time>
      </trkpt>
      <trkpt lat="39.0144" lon="-0.32347">
        <time>2019-03-23T12:41:41Z</time>
      </trkpt>
      <trkpt lat="39.01438" lon="-0.32336">
        <time>2019-03-23T12:41:42Z</time>
      </trkpt>
      <trkpt lat="39.01434" lon="-0.32323">
        <time>2019-03-23T12:41:43Z</time>
      </trkpt>
      <trkpt lat="39.01428" lon="-0.32312">
        <time>2019-03-23T12:41:44Z</time>
      </trkpt>
      <trkpt lat="39.01421" lon="-0.32301">
        <time>2019-03-23T12:41:45Z</time>
      </trkpt>
      <trkpt lat="39.01414" lon="-0.32292">
        <time>2019-03-23T12:41:46Z</time>
      </trkpt>
      <trkpt lat="39.01407" lon="-0.32281">
        <time>2019-03-23T12:41:47Z</time>
      </trkpt>
      <trkpt lat="39.01405" lon="-0.32268">
        <time>2019-03-23T12:41:48Z</time>
      </trkpt>
      <trkpt lat="39.01405" lon="-0.32253">
        <time>2019-03-23T12:41:49Z</time>
      </trkpt>
      <trkpt lat="39.01407" lon="-0.32237">
        <time>2019-03-23T12:41:50Z</time>
      </trkpt>
      <trkpt lat="39.0141" lon="-0.32223">
        <time>2019-03-23T12:41:51Z</time>
      </trkpt>
      <trkpt lat="39.01412" lon="-0.3221">
        <time>2019-03-23T12:41:52Z</time>
      </trkpt>
      <trkpt lat="39.01412" lon="-0.322">
        <time>2019-03-23T12:41:53Z</time>
      </trkpt>
      <trkpt lat="39.01408" lon="-0.32189">
        <time>2019-03-23T12:41:54Z</time>
      </trkpt>
      <trkpt lat="39.01405" lon="-0.32176">
        <time>2019-03-23T12:41:55Z</time>
      </trkpt>
      <trkpt lat="39.01402" lon="-0.32161">
        <time>2019-03-23T12:41:56Z</time>
      </trkpt>
      <trkpt lat="39.01397" lon="-0.32145">
        <time>2019-03-23T12:41:57Z</time>
      </trkpt>
      <trkpt lat="39.01393" lon="-0.32131">
        <time>2019-03-23T12:41:58Z</time>
      </trkpt>
      <trkpt lat="39.01391" lon="-0.32117">
        <time>2019-03-23T12:41:59Z</time>
      </trkpt>
      <trkpt lat="39.01391" lon="-0.32102">
        <time>2019-03-23T12:42:00Z</time>
      </trkpt>
      <trkpt lat="39.01393" lon="-0.32086">
        <time>2019-03-23T12:42:01Z</time>
      </trkpt>
      <trkpt lat="39.01394" lon="-0.32071">
        <time>2019-03-23T12:42:02Z</time>
      </trkpt>
      <trkpt lat="39.01396" lon="-0.32056">
        <time>2019-03-23T12:42:03Z</time>
      </trkpt>
      <trkpt lat="39.01398" lon="-0.32042">
        <time>2019-03-23T12:42:04Z</time>
      </trkpt>
      <trkpt lat="39.01398" lon="-0.32029">
        <time>2019-03-23T12:42:05Z</time>
      </trkpt>
      <trkpt lat="39.014" lon="-0.32016">
        <time>2019-03-23T12:42:06Z</time>
      </trkpt>
      <trkpt lat="39.01401" lon="-0.32002">
        <time>2019-03-23T12:42:07Z</time>
      </trkpt>
      <trkpt lat="39.014" lon="-0.3199">
        <time>2019-03-23T12:42:08Z</time>
      </trkpt>
      <trkpt lat="39.01398" lon="-0.31977">
        <time>2019-03-23T12:42:09Z</time>
      </trkpt>
      <trkpt lat="39.01398" lon="-0.31964">
        <time>2019-03-23T12:42:10Z</time>
      </trkpt>
      <trkpt lat="39.014" lon="-0.31951">
        <time>2019-03-23T12:42:11Z</time>
      </trkpt>
      <trkpt lat="39.01405" lon="-0.31938">
        <time>2019-03-23T12:42:12Z</time>
      </trkpt>
      <trkpt lat="39.01411" lon="-0.31925">
        <time>2019-03-23T12:42:13Z</time>
      </trkpt>
      <trkpt lat="39.01416" lon="-0.31912">
        <time>2019-03-23T12:42:14Z</time>
      </trkpt>
      <trkpt lat="39.01419" lon="-0.31897">
        <time>2019-03-23T12:42:15Z</time>
      </trkpt>
      <trkpt lat="39.01421" lon="-0.31882">
        <time>2019-03-23T12:42:16Z</time>
      </trkpt>
      <trkpt lat="39.01419" lon="-0.31867">
        <time>2019-03-23T12:42:17Z</time>
      </trkpt>
      <trkpt lat="39.01416" lon="-0.31854">
        <time>2019-03-23T12:42:18Z</time>
      </trkpt>
      <trkpt lat="39.01414" lon="-0.3184">
        <time>2019-03-23T12:42:19Z</time>
      </trkpt>
      <trkpt lat="39.01412" lon="-0.31827">
        <time>2019-03-23T12:42:20Z</time>
      </trkpt>
      <trkpt lat="39.01409" lon="-0.31816">
        <time>2019-03-23T12:42:21Z</time>
      </trkpt>
      <trkpt lat="39.01405" lon="-0.31806">
        <time>2019-03-23T12:42:22Z</time>
      </trkpt>
      <trkpt lat="39.01401" lon="-0.31796">
        <time>2019-03-23T12:42:23Z</time>
      </trkpt>
      <trkpt lat="39.01399" lon="-0.31788">
        <time>2019-03-23T12:42:24Z</time>
      </trkpt>
      <trkpt lat="39.01396" lon="-0.31779">
        <time>2019-03-23T12:42:25Z</time>
      </trkpt>
      <trkpt lat="39.01395" lon="-0.3177">
        <time>2019-03-23T12:42:26Z</time>
      </trkpt>
      <trkpt lat="39.01394" lon="-0.31759">
        <time>2019-03-23T12:42:27Z</time>
      </trkpt>
      <trkpt lat="39.01394" lon="-0.31749">
        <time>2019-03-23T12:42:28Z</time>
      </trkpt>
      <trkpt lat="39.01392" lon="-0.31741">
        <time>2019-03-23T12:42:29Z</time>
      </trkpt>
      <trkpt lat="39.01389" lon="-0.31734">
        <time>2019-03-23T12:42:30Z</time>
      </trkpt>
      <trkpt lat="39.01384" lon="-0.31727">
        <time>2019-03-23T12:42:31Z</time>
      </trkpt>
      <trkpt lat="39.01378" lon="-0.31721">
        <time>2019-03-23T12:42:32Z</time>
      </trkpt>
      <trkpt lat="39.01373" lon="-0.31714">
        <time>2019-03-23T12:42:33Z</time>
      </trkpt>
      <trkpt lat="39.01367" lon="-0.31708">
        <time>2019-03-23T12:42:34Z</time>
      </trkpt>
      <trkpt lat="39.01365" lon="-0.31703">
        <time>2019-03-23T12:42:35Z</time>
      </trkpt>
      <trkpt lat="39.01362" lon="-0.31697">
        <time>2019-03-23T12:42:36Z</time>
      </trkpt>
      <trkpt lat="39.01368" lon="-0.31692">
        <time>2019-03-23T12:42:37Z</time>
      </trkpt>
      <trkpt lat="39.01373" lon="-0.31691">
        <time>2019-03-23T12:42:38Z</time>
      </trkpt>
      <trkpt lat="39.01378" lon="-0.31692">
        <time>2019-03-23T12:42:39Z</time>
      </trkpt>
      <trkpt lat="39.01383" lon="-0.31694">
        <time>2019-03-23T12:42:40Z</time>
      </trkpt>
      <trkpt lat="39.01389" lon="-0.31694">
        <time>2019-03-23T12:42:41Z</time>
      </trkpt>
      <trkpt lat="39.01396" lon="-0.31693">
        <time>2019-03-23T12:42:42Z</time>
      </trkpt>
      <trkpt lat="39.01401" lon="-0.3169">
        <time>2019-03-23T12:42:43Z</time>
      </trkpt>
      <trkpt lat="39.01406" lon="-0.31687">
        <time>2019-03-23T12:42:44Z</time>
      </trkpt>
      <trkpt lat="39.01409" lon="-0.31682">
        <time>2019-03-23T12:42:45Z</time>
      </trkpt>
      <trkpt lat="39.01408" lon="-0.31676">
        <time>2019-03-23T12:42:46Z</time>
      </trkpt>
      <trkpt lat="39.01406" lon="-0.3167">
        <time>2019-03-23T12:42:47Z</time>
      </trkpt>
      <trkpt lat="39.01402" lon="-0.31664">
        <time>2019-03-23T12:42:48Z</time>
      </trkpt>
      <trkpt lat="39.01399" lon="-0.31657">
        <time>2019-03-23T12:42:49Z</time>
      </trkpt>
      <trkpt lat="39.01395" lon="-0.31651">
        <time>2019-03-23T12:42:50Z</time>
      </trkpt>
      <trkpt lat="39.01392" lon="-0.31643">
        <time>2019-03-23T12:42:51Z</time>
      </trkpt>
      <trkpt lat="39.01392" lon="-0.31636">
        <time>2019-03-23T12:42:52Z</time>
      </trkpt>
      <trkpt lat="39.01396" lon="-0.31628">
        <time>2019-03-23T12:42:53Z</time>
      </trkpt>
      <trkpt lat="39.014" lon="-0.31622">
        <time>2019-03-23T12:42:54Z</time>
      </trkpt>
      <trkpt lat="39.01404" lon="-0.31614">
        <time>2019-03-23T12:42:55Z</time>
      </trkpt>
      <trkpt lat="39.01409" lon="-0.31606">
        <time>2019-03-23T12:42:56Z</time>
      </trkpt>
      <trkpt lat="39.01416" lon="-0.31598">
        <time>2019-03-23T12:42:57Z</time>
      </trkpt>
      <trkpt lat="39.01421" lon="-0.31592">
        <time>2019-03-23T12:42:58Z</time>
      </trkpt>
      <trkpt lat="39.01425" lon="-0.31583">
        <time>2019-03-23T12:42:59Z</time>
      </trkpt>
      <trkpt lat="39.01426" lon="-0.31572">
        <time>2019-03-23T12:43:00Z</time>
      </trkpt>
      <trkpt lat="39.01427" lon="-0.31559">
        <time>2019-03-23T12:43:01Z</time>
      </trkpt>
      <trkpt lat="39.01428" lon="-0.31543">
        <time>2019-03-23T12:43:02Z</time>
      </trkpt>
      <trkpt lat="39.0143" lon="-0.31528">
        <time>2019-03-23T12:43:03Z</time>
      </trkpt>
      <trkpt lat="39.01432" lon="-0.31513">
        <time>2019-03-23T12:43:04Z</time>
      </trkpt>
      <trkpt lat="39.01435" lon="-0.315">
        <time>2019-03-23T12:43:05Z</time>
      </trkpt>
      <trkpt lat="39.0144" lon="-0.31487">
        <time>2019-03-23T12:43:06Z</time>
      </trkpt>
      <trkpt lat="39.01447" lon="-0.31474">
        <time>2019-03-23T12:43:07Z</time>
      </trkpt>
      <trkpt lat="39.01454" lon="-0.31461">
        <time>2019-03-23T12:43:08Z</time>
      </trkpt>
      <trkpt lat="39.01462" lon="-0.31448">
        <time>2019-03-23T12:43:09Z</time>
      </trkpt>
      <trkpt lat="39.01469" lon="-0.31435">
        <time>2019-03-23T12:43:10Z</time>
      </trkpt>
      <trkpt lat="39.01475" lon="-0.31423">
        <time>2019-03-23T12:43:11Z</time>
      </trkpt>
      <trkpt lat="39.0148" lon="-0.31412">
        <time>2019-03-23T12:43:12Z</time>
      </trkpt>
      <trkpt lat="39.01483" lon="-0.31401">
        <time>2019-03-23T12:43:13Z</time>
      </trkpt>
      <trkpt lat="39.01485" lon="-0.31391">
        <time>2019-03-23T12:43:14Z</time>
      </trkpt>
      <trkpt lat="39.01483" lon="-0.31381">
        <time>2019-03-23T12:43:15Z</time>
      </trkpt>
      <trkpt lat="39.0148" lon="-0.3137">
        <time>2019-03-23T12:43:16Z</time>
      </trkpt>
      <trkpt lat="39.01475" lon="-0.3136">
        <time>2019-03-23T12:43:17Z</time>
      </trkpt>
      <trkpt lat="39.01468" lon="-0.31349">
        <time>2019-03-23T12:43:18Z</time>
      </trkpt>
      <trkpt lat="39.01461" lon="-0.31337">
        <time>2019-03-23T12:43:19Z</time>
      </trkpt>
      <trkpt lat="39.01455" lon="-0.31326">
        <time>2019-03-23T12:43:20Z</time>
      </trkpt>
      <trkpt lat="39.01449" lon="-0.31315">
        <time>2019-03-23T12:43:21Z</time>
      </trkpt>
      <trkpt lat="39.01444" lon="-0.31305">
        <time>2019-03-23T12:43:22Z</time>
      </trkpt>
      <trkpt lat="39.0144" lon="-0.31296">
        <time>2019-03-23T12:43:23Z</time>
      </trkpt>
      <trkpt lat="39.01438" lon="-0.31287">
        <time>2019-03-23T12:43:24Z</time>
      </trkpt>
      <trkpt lat="39.01437" lon="-0.31276">
        <time>2019-03-23T12:43:25Z</time>
      </trkpt>
      <trkpt lat="39.01437" lon="-0.31264">
        <time>2019-03-23T12:43:26Z</time>
      </trkpt>
      <trkpt lat="39.01437" lon="-0.3125">
        <time>2019-03-23T12:43:27Z</time>
      </trkpt>
      <trkpt lat="39.01436" lon="-0.31236">
        <time>2019-03-23T12:43:28Z</time>
      </trkpt>
      <trkpt lat="39.01436" lon="-0.31224">
        <time>2019-03-23T12:43:29Z</time>
      </trkpt>
      <trkpt lat="39.01439" lon="-0.31212">
        <time>2019-03-23T12:43:30Z</time>
      </trkpt>
      <trkpt lat="39.01445" lon="-0.31201">
        <time>2019-03-23T12:43:31Z</time>
      </trkpt>
      <trkpt lat="39.01454" lon="-0.31191">
        <time>2019-03-23T12:43:32Z</time>
      </trkpt>
      <trkpt lat="39.01464" lon="-0.31182">
        <time>2019-03-23T12:43:33Z</time>
      </trkpt>
      <trkpt lat="39.01476" lon="-0.31173">
        <time>2019-03-23T12:43:34Z</time>
      </trkpt>
      <trkpt lat="39.01487" lon="-0.31163">
        <time>2019-03-23T12:43:35Z</time>
      </trkpt>
      <trkpt lat="39.01498" lon="-0.31153">
        <time>2019-03-23T12:43:36Z</time>
      </trkpt>
      <trkpt lat="39.01507" lon="-0.31144">
        <time>2019-03-23T12:43:37Z</time>
      </trkpt>
      <trkpt lat="39.01515" lon="-0.31134">
        <time>2019-03-23T12:43:38Z</time>
      </trkpt>
      <trkpt lat="39.01519" lon="-0.31123">
        <time>2019-03-23T12:43:39Z</time>
      </trkpt>
      <trkpt lat="39.0152" lon="-0.31112">
        <time>2019-03-23T12:43:40Z</time>
      </trkpt>
      <trkpt lat="39.0152" lon="-0.31099">
        <time>2019-03-23T12:43:41Z</time>
      </trkpt>
      <trkpt lat="39.01519" lon="-0.31085">
        <time>2019-03-23T12:43:42Z</time>
      </trkpt>
      <trkpt lat="39.01516" lon="-0.3107">
        <time>2019-03-23T12:43:43Z</time>
      </trkpt>
      <trkpt lat="39.01514" lon="-0.31053">
        <time>2019-03-23T12:43:44Z</time>
      </trkpt>
      <trkpt lat="39.01512" lon="-0.31036">
        <time>2019-03-23T12:43:45Z</time>
      </trkpt>
      <trkpt lat="39.01509" lon="-0.31021">
        <time>2019-03-23T12:43:46Z</time>
      </trkpt>
      <trkpt lat="39.01503" lon="-0.31007">
        <time>2019-03-23T12:43:47Z</time>
      </trkpt>
      <trkpt lat="39.01495" lon="-0.30994">
        <time>2019-03-23T12:43:48Z</time>
      </trkpt>
      <trkpt lat="39.01486" lon="-0.30982">
        <time>2019-03-23T12:43:49Z</time>
      </trkpt>
      <trkpt lat="39.01479" lon="-0.30971">
        <time>2019-03-23T12:43:50Z</time>
      </trkpt>
      <trkpt lat="39.01474" lon="-0.30961">
        <time>2019-03-23T12:43:51Z</time>
      </trkpt>
      <trkpt lat="39.01473" lon="-0.30951">
        <time>2019-03-23T12:43:52Z</time>
      </trkpt>
      <trkpt lat="39.01475" lon="-0.30941">
        <time>2019-03-23T12:43:53Z</time>
      </trkpt>
      <trkpt lat="39.01477" lon="-0.30931">
        <time>2019-03-23T12:43:54Z</time>
      </trkpt>
      <trkpt lat="39.01476" lon="-0.30921">
        <time>2019-03-23T12:43:55Z</time>
      </trkpt>
      <trkpt lat="39.01471" lon="-0.30913">
        <time>2019-03-23T12:43:56Z</time>
      </trkpt>
      <trkpt lat="39.01465" lon="-0.30905">
        <time>2019-03-23T12:43:57Z</time>
      </trkpt>
      <trkpt lat="39.01456" lon="-0.30896">
        <time>2019-03-23T12:43:58Z</time>
      </trkpt>
      <trkpt lat="39.01447" lon="-0.30886">
        <time>2019-03-23T12:43:59Z</time>
      </trkpt>
      <trkpt lat="39.01437" lon="-0.30874">
        <time>2019-03-23T12:44:00Z</time>
      </trkpt>
      <trkpt lat="39.01428" lon="-0.30863">
        <time>2019-03-23T12:44:01Z</time>
      </trkpt>
      <trkpt lat="39.01418" lon="-0.30852">
        <time>2019-03-23T12:44:02Z</time>
      </trkpt>
      <trkpt lat="39.01409" lon="-0.30843">
        <time>2019-03-23T12:44:03Z</time>
      </trkpt>
      <trkpt lat="39.01402" lon="-0.30833">
        <time>2019-03-23T12:44:04Z</time>
      </trkpt>
      <trkpt lat="39.01399" lon="-0.30824">
        <time>2019-03-23T12:44:05Z</time>
      </trkpt>
      <trkpt lat="39.01401" lon="-0.30814">
        <time>2019-03-23T12:44:06Z</time>
      </trkpt>
      <trkpt lat="39.01406" lon="-0.30804">
        <time>2019-03-23T12:44:07Z</time>
      </trkpt>
      <trkpt lat="39.01413" lon="-0.30793">
        <time>2019-03-23T12:44:08Z</time>
      </trkpt>
      <trkpt lat="39.0142" lon="-0.3078">
        <time>2019-03-23T12:44:09Z</time>
      </trkpt>
      <trkpt lat="39.01428" lon="-0.30766">
        <time>2019-03-23T12:44:10Z</time>
      </trkpt>
      <trkpt lat="39.01437" lon="-0.3075">
        <time>2019-03-23T12:44:11Z</time>
      </trkpt>
      <trkpt lat="39.01447" lon="-0.30733">
        <time>2019-03-23T12:44:12Z</time>
      </trkpt>
      <trkpt lat="39.01458" lon="-0.30715">
        <time>2019-03-23T12:44:13Z</time>
      </trkpt>
      <trkpt lat="39.01468" lon="-0.30697">
        <time>2019-03-23T12:44:14Z</time>
      </trkpt>
      <trkpt lat="39.01478" lon="-0.30679">
        <time>2019-03-23T12:44:15Z</time>
      </trkpt>
      <trkpt lat="39.01488" lon="-0.3066">
        <time>2019-03-23T12:44:16Z</time>
      </trkpt>
      <trkpt lat="39.01497" lon="-0.30641">
        <time>2019-03-23T12:44:17Z</time>
      </trkpt>
      <trkpt lat="39.01505" lon="-0.30624">
        <time>2019-03-23T12:44:18Z</time>
      </trkpt>
      <trkpt lat="39.01514" lon="-0.30608">
        <time>2019-03-23T12:44:19Z</time>
      </trkpt>
      <trkpt lat="39.01523" lon="-0.30591">
        <time>2019-03-23T12:44:20Z</time>
      </trkpt>
      <trkpt lat="39.01532" lon="-0.30576">
        <time>2019-03-23T12:44:21Z</time>
      </trkpt>
      <trkpt lat="39.01539" lon="-0.30563">
        <time>2019-03-23T12:44:22Z</time>
      </trkpt>
      <trkpt lat="39.01545" lon="-0.30551">
        <time>2019-03-23T12:44:23Z</time>
      </trkpt>
      <trkpt lat="39.0155" lon="-0.30542">
        <time>2019-03-23T12:44:24Z</time>
      </trkpt>
      <trkpt lat="39.01554" lon="-0.30535">
        <time>2019-03-23T12:44:25Z</time>
      </trkpt>
      <trkpt lat="39.01557" lon="-0.3053">
        <time>2019-03-23T12:44:26Z</time>
      </trkpt>
      <trkpt lat="39.0156" lon="-0.30528">
        <time>2019-03-23T12:44:27Z</time>
      </trkpt>
      <trkpt lat="39.01563" lon="-0.30529">
        <time>2019-03-23T12:44:28Z</time>
      </trkpt>
      <trkpt lat="39.01566" lon="-0.30532">
        <time>2019-03-23T12:44:29Z</time>
      </trkpt>
      <trkpt lat="39.01571" lon="-0.30538">
        <time>2019-03-23T12:44:30Z</time>
      </trkpt>
      <trkpt lat="39.01577" lon="-0.30545">
        <time>2019-03-23T12:44:31Z</time>
      </trkpt>
      <trkpt lat="39.01585" lon="-0.30553">
        <time>2019-03-23T12:44:32Z</time>
      </trkpt>
      <trkpt lat="39.01595" lon="-0.30562">
        <time>2019-03-23T12:44:33Z</time>
      </trkpt>
      <trkpt lat="39.01605" lon="-0.30573">
        <time>2019-03-23T12:44:34Z</time>
      </trkpt>
      <trkpt lat="39.01615" lon="-0.30586">
        <time>2019-03-23T12:44:35Z</time>
      </trkpt>
      <trkpt lat="39.01625" lon="-0.306">
        <time>2019-03-23T12:44:36Z</time>
      </trkpt>
      <trkpt lat="39.01635" lon="-0.30614">
        <time>2019-03-23T12:44:37Z</time>
      </trkpt>
      <trkpt lat="39.01647" lon="-0.30629">
        <time>2019-03-23T12:44:38Z</time>
      </trkpt>
      <trkpt lat="39.01659" lon="-0.30645">
        <time>2019-03-23T12:44:39Z</time>
      </trkpt>
      <trkpt lat="39.01671" lon="-0.3066">
        <time>2019-03-23T12:44:40Z</time>
      </trkpt>
      <trkpt lat="39.01683" lon="-0.30674">
        <time>2019-03-23T12:44:41Z</time>
      </trkpt>
      <trkpt lat="39.01694" lon="-0.30688">
        <time>2019-03-23T12:44:42Z</time>
      </trkpt>
      <trkpt lat="39.01704" lon="-0.30701">
        <time>2019-03-23T12:44:43Z</time>
      </trkpt>
      <trkpt lat="39.01714" lon="-0.30713">
        <time>2019-03-23T12:44:44Z</time>
      </trkpt>
      <trkpt lat="39.01724" lon="-0.30726">
        <time>2019-03-23T12:44:45Z</time>
      </trkpt>
      <trkpt lat="39.01734" lon="-0.30739">
        <time>2019-03-23T12:44:46Z</time>
      </trkpt>
      <trkpt lat="39.01744" lon="-0.30751">
        <time>2019-03-23T12:44:47Z</time>
      </trkpt>
      <trkpt lat="39.01753" lon="-0.30763">
        <time>2019-03-23T12:44:48Z</time>
      </trkpt>
      <trkpt lat="39.0176" lon="-0.30774">
        <time>2019-03-23T12:44:49Z</time>
      </trkpt>
      <trkpt lat="39.01765" lon="-0.30786">
        <time>2019-03-23T12:44:50Z</time>
      </trkpt>
      <trkpt lat="39.01771" lon="-0.30799">
        <time>2019-03-23T12:44:51Z</time>
      </trkpt>
      <trkpt lat="39.01777" lon="-0.30813">
        <time>2019-03-23T12:44:52Z</time>
      </trkpt>
      <trkpt lat="39.01781" lon="-0.30828">
        <time>2019-03-23T12:44:53Z</time>
      </trkpt>
      <trkpt lat="39.01783" lon="-0.30842">
        <time>2019-03-23T12:44:54Z</time>
      </trkpt>
      <trkpt lat="39.01785" lon="-0.30856">
        <time>2019-03-23T12:44:55Z</time>
      </trkpt>
      <trkpt lat="39.01785" lon="-0.30869">
        <time>2019-03-23T12:44:56Z</time>
      </trkpt>
      <trkpt lat="39.01783" lon="-0.30883">
        <time>2019-03-23T12:44:57Z</time>
      </trkpt>
      <trkpt lat="39.01779" lon="-0.30896">
        <time>2019-03-23T12:44:58Z</time>
      </trkpt>
      <trkpt lat="39.01777" lon="-0.30907">
        <time>2019-03-23T12:44:59Z</time>
      </trkpt>
      <trkpt lat="39.01776" lon="-0.30917">
        <time>2019-03-23T12:45:00Z</time>
      </trkpt>
      <trkpt lat="39.01777" lon="-0.30925">
        <time>2019-03-23T12:45:01Z</time>
      </trkpt>
      <trkpt lat="39.01781" lon="-0.30934">
        <time>2019-03-23T12:45:02Z</time>
      </trkpt>
      <trkpt lat="39.01787" lon="-0.30943">
        <time>2019-03-23T12:45:03Z</time>
      </trkpt>
      <trkpt lat="39.01793" lon="-0.30953">
        <time>2019-03-23T12:45:04Z</time>
      </trkpt>
      <trkpt lat="39.018" lon="-0.30964">
        <time>2019-03-23T12:45:05Z</time>
      </trkpt>
      <trkpt lat="39.01809" lon="-0.30976">
        <time>2019-03-23T12:45:06Z</time>
      </trkpt>
      <trkpt lat="39.01817" lon="-0.30987">
        <time>2019-03-23T12:45:07Z</time>
      </trkpt>
      <trkpt lat="39.01823" lon="-0.30996">
        <time>2019-03-23T12:45:08Z</time>
      </trkpt>
      <trkpt lat="39.01828" lon="-0.31005">
        <time>2019-03-23T12:45:09Z</time>
      </trkpt>
      <trkpt lat="39.0183" lon="-0.31013">
        <time>2019-03-23T12:45:10Z</time>
      </trkpt>
      <trkpt lat="39.01829" lon="-0.31021">
        <time>2019-03-23T12:45:11Z</time>
      </trkpt>
      <trkpt lat="39.01826" lon="-0.31029">
        <time>2019-03-23T12:45:12Z</time>
      </trkpt>
      <trkpt lat="39.01822" lon="-0.31038">
        <time>2019-03-23T12:45:13Z</time>
      </trkpt>
      <trkpt lat="39.01818" lon="-0.31048">
        <time>2019-03-23T12:45:14Z</time>
      </trkpt>
      <trkpt lat="39.01815" lon="-0.31061">
        <time>2019-03-23T12:45:15Z</time>
      </trkpt>
      <trkpt lat="39.01813" lon="-0.31073">
        <time>2019-03-23T12:45:16Z</time>
      </trkpt>
      <trkpt lat="39.01813" lon="-0.31084">
        <time>2019-03-23T12:45:17Z</time>
      </trkpt>
      <trkpt lat="39.01817" lon="-0.31094">
        <time>2019-03-23T12:45:18Z</time>
      </trkpt>
      <trkpt lat="39.01822" lon="-0.31103">
        <time>2019-03-23T12:45:19Z</time>
      </trkpt>
      <trkpt lat="39.0183" lon="-0.31112">
        <time>2019-03-23T12:45:20Z</time>
      </trkpt>
      <trkpt lat="39.01839" lon="-0.31121">
        <time>2019-03-23T12:45:21Z</time>
      </trkpt>
      <trkpt lat="39.01849" lon="-0.31128">
        <time>2019-03-23T12:45:22Z</time>
      </trkpt>
      <trkpt lat="39.0186" lon="-0.31135">
        <time>2019-03-23T12:45:23Z</time>
      </trkpt>
      <trkpt lat="39.0187" lon="-0.3114">
        <time>2019-03-23T12:45:24Z</time>
      </trkpt>
      <trkpt lat="39.0188" lon="-0.31144">
        <time>2019-03-23T12:45:25Z</time>
      </trkpt>
      <trkpt lat="39.01888" lon="-0.31146">
        <time>2019-03-23T12:45:26Z</time>
      </trkpt>
      <trkpt lat="39.01896" lon="-0.3115">
        <time>2019-03-23T12:45:27Z</time>
      </trkpt>
      <trkpt lat="39.01903" lon="-0.31157">
        <time>2019-03-23T12:45:28Z</time>
      </trkpt>
      <trkpt lat="39.01909" lon="-0.31166">
        <time>2019-03-23T12:45:29Z</time>
      </trkpt>
      <trkpt lat="39.01914" lon="-0.31175">
        <time>2019-03-23T12:45:30Z</time>
      </trkpt>
      <trkpt lat="39.01917" lon="-0.31183">
        <time>2019-03-23T12:45:31Z</time>
      </trkpt>
      <trkpt lat="39.01918" lon="-0.31191">
        <time>2019-03-23T12:45:32Z</time>
      </trkpt>
      <trkpt lat="39.01916" lon="-0.312">
        <time>2019-03-23T12:45:33Z</time>
      </trkpt>
      <trkpt lat="39.01912" lon="-0.31208">
        <time>2019-03-23T12:45:34Z</time>
      </trkpt>
      <trkpt lat="39.01908" lon="-0.31216">
        <time>2019-03-23T12:45:35Z</time>
      </trkpt>
      <trkpt lat="39.01907" lon="-0.31224">
        <time>2019-03-23T12:45:36Z</time>
      </trkpt>
      <trkpt lat="39.01908" lon="-0.31233">
        <time>2019-03-23T12:45:37Z</time>
      </trkpt>
      <trkpt lat="39.01911" lon="-0.31241">
        <time>2019-03-23T12:45:38Z</time>
      </trkpt>
      <trkpt lat="39.01914" lon="-0.3125">
        <time>2019-03-23T12:45:39Z</time>
      </trkpt>
      <trkpt lat="39.0192" lon="-0.31259">
        <time>2019-03-23T12:45:40Z</time>
      </trkpt>
      <trkpt lat="39.01925" lon="-0.31268">
        <time>2019-03-23T12:45:41Z</time>
      </trkpt>
      <trkpt lat="39.01931" lon="-0.31276">
        <time>2019-03-23T12:45:42Z</time>
      </trkpt>
      <trkpt lat="39.01937" lon="-0.31284">
        <time>2019-03-23T12:45:43Z</time>
      </trkpt>
      <trkpt lat="39.01944" lon="-0.31293">
        <time>2019-03-23T12:45:44Z</time>
      </trkpt>
      <trkpt lat="39.01951" lon="-0.31302">
        <time>2019-03-23T12:45:45Z</time>
      </trkpt>
      <trkpt lat="39.01959" lon="-0.31311">
        <time>2019-03-23T12:45:46Z</time>
      </trkpt>
      <trkpt lat="39.01966" lon="-0.3132">
        <time>2019-03-23T12:45:47Z</time>
      </trkpt>
      <trkpt lat="39.01973" lon="-0.31328">
        <time>2019-03-23T12:45:48Z</time>
      </trkpt>
      <trkpt lat="39.0198" lon="-0.31336">
        <time>2019-03-23T12:45:49Z</time>
      </trkpt>
      <trkpt lat="39.01986" lon="-0.31345">
        <time>2019-03-23T12:45:50Z</time>
      </trkpt>
      <trkpt lat="39.01992" lon="-0.31355">
        <time>2019-03-23T12:45:51Z</time>
      </trkpt>
      <trkpt lat="39.01999" lon="-0.31365">
        <time>2019-03-23T12:45:52Z</time>
      </trkpt>
      <trkpt lat="39.02006" lon="-0.31373">
        <time>2019-03-23T12:45:53Z</time>
      </trkpt>
      <trkpt lat="39.02012" lon="-0.31382">
        <time>2019-03-23T12:45:54Z</time>
      </trkpt>
      <trkpt lat="39.0202" lon="-0.3139">
        <time>2019-03-23T12:45:55Z</time>
      </trkpt>
      <trkpt lat="39.02028" lon="-0.31397">
        <time>2019-03-23T12:45:56Z</time>
      </trkpt>
      <trkpt lat="39.02037" lon="-0.31403">
        <time>2019-03-23T12:45:57Z</time>
      </trkpt>
      <trkpt lat="39.02046" lon="-0.31409">
        <time>2019-03-23T12:45:58Z</time>
      </trkpt>
      <trkpt lat="39.02055" lon="-0.31415">
        <time>2019-03-23T12:45:59Z</time>
      </trkpt>
      <trkpt lat="39.02064" lon="-0.31423">
        <time>2019-03-23T12:46:00Z</time>
      </trkpt>
      <trkpt lat="39.02073" lon="-0.3143">
        <time>2019-03-23T12:46:01Z</time>
      </trkpt>
      <trkpt lat="39.02082" lon="-0.31438">
        <time>2019-03-23T12:46:02Z</time>
      </trkpt>
      <trkpt lat="39.0209" lon="-0.31446">
        <time>2019-03-23T12:46:03Z</time>
      </trkpt>
      <trkpt lat="39.02098" lon="-0.31457">
        <time>2019-03-23T12:46:04Z</time>
      </trkpt>
      <trkpt lat="39.02105" lon="-0.31469">
        <time>2019-03-23T12:46:05Z</time>
      </trkpt>
      <trkpt lat="39.02111" lon="-0.31481">
        <time>2019-03-23T12:46:06Z</time>
      </trkpt>
      <trkpt lat="39.02116" lon="-0.31489">
        <time>2019-03-23T12:46:07Z</time>
      </trkpt>
      <trkpt lat="39.02119" lon="-0.31496">
        <time>2019-03-23T12:46:08Z</time>
      </trkpt>
      <trkpt lat="39.02122" lon="-0.31501">
        <time>2019-03-23T12:46:09Z</time>
      </trkpt>
      <trkpt lat="39.02124" lon="-0.31503">
        <time>2019-03-23T12:46:10Z</time>
      </trkpt>
      <trkpt lat="39.02127" lon="-0.31503">
        <time>2019-03-23T12:46:11Z</time>
      </trkpt>
      <trkpt lat="39.02132" lon="-0.31501">
        <time>2019-03-23T12:46:12Z</time>
      </trkpt>
      <trkpt lat="39.02139" lon="-0.31496">
        <time>2019-03-23T12:46:13Z</time>
      </trkpt>
      <trkpt lat="39.02146" lon="-0.3149">
        <time>2019-03-23T12:46:14Z</time>
      </trkpt>
      <trkpt lat="39.02155" lon="-0.31484">
        <time>2019-03-23T12:46:15Z</time>
      </trkpt>
      <trkpt lat="39.02164" lon="-0.31478">
        <time>2019-03-23T12:46:16Z</time>
      </trkpt>
      <trkpt lat="39.02174" lon="-0.31471">
        <time>2019-03-23T12:46:17Z</time>
      </trkpt>
      <trkpt lat="39.02184" lon="-0.31464">
        <time>2019-03-23T12:46:18Z</time>
      </trkpt>
      <trkpt lat="39.02194" lon="-0.31456">
        <time>2019-03-23T12:46:19Z</time>
      </trkpt>
      <trkpt lat="39.02204" lon="-0.31448">
        <time>2019-03-23T12:46:20Z</time>
      </trkpt>
      <trkpt lat="39.02212" lon="-0.31441">
        <time>2019-03-23T12:46:21Z</time>
      </trkpt>
      <trkpt lat="39.02221" lon="-0.31433">
        <time>2019-03-23T12:46:22Z</time>
      </trkpt>
      <trkpt lat="39.02229" lon="-0.31426">
        <time>2019-03-23T12:46:23Z</time>
      </trkpt>
      <trkpt lat="39.02238" lon="-0.31419">
        <time>2019-03-23T12:46:24Z</time>
      </trkpt>
      <trkpt lat="39.02246" lon="-0.31412">
        <time>2019-03-23T12:46:25Z</time>
      </trkpt>
      <trkpt lat="39.02252" lon="-0.31405">
        <time>2019-03-23T12:46:26Z</time>
      </trkpt>
      <trkpt lat="39.02258" lon="-0.31396">
        <time>2019-03-23T12:46:27Z</time>
      </trkpt>
      <trkpt lat="39.02262" lon="-0.31386">
        <time>2019-03-23T12:46:28Z</time>
      </trkpt>
      <trkpt lat="39.02266" lon="-0.31375">
        <time>2019-03-23T12:46:29Z</time>
      </trkpt>
      <trkpt lat="39.02271" lon="-0.31365">
        <time>2019-03-23T12:46:30Z</time>
      </trkpt>
      <trkpt lat="39.02275" lon="-0.31356">
        <time>2019-03-23T12:46:31Z</time>
      </trkpt>
      <trkpt lat="39.02279" lon="-0.31348">
        <time>2019-03-23T12:46:32Z</time>
      </trkpt>
      <trkpt lat="39.02283" lon="-0.3134">
        <time>2019-03-23T12:46:33Z</time>
      </trkpt>
      <trkpt lat="39.02288" lon="-0.31333">
        <time>2019-03-23T12:46:34Z</time>
      </trkpt>
      <trkpt lat="39.02292" lon="-0.31325">
        <time>2019-03-23T12:46:35Z</time>
      </trkpt>
      <trkpt lat="39.02297" lon="-0.31317">
        <time>2019-03-23T12:46:36Z</time>
      </trkpt>
      <trkpt lat="39.02302" lon="-0.31309">
        <time>2019-03-23T12:46:37Z</time>
      </trkpt>
      <trkpt lat="39.02306" lon="-0.31298">
        <time>2019-03-23T12:46:38Z</time>
      </trkpt>
      <trkpt lat="39.02308" lon="-0.31287">
        <time>2019-03-23T12:46:39Z</time>
      </trkpt>
      <trkpt lat="39.0231" lon="-0.31275">
        <time>2019-03-23T12:46:40Z</time>
      </trkpt>
      <trkpt lat="39.02314" lon="-0.31263">
        <time>2019-03-23T12:46:41Z</time>
      </trkpt>
      <trkpt lat="39.02316" lon="-0.3125">
        <time>2019-03-23T12:46:42Z</time>
      </trkpt>
      <trkpt lat="39.02318" lon="-0.31237">
        <time>2019-03-23T12:46:43Z</time>
      </trkpt>
      <trkpt lat="39.02317" lon="-0.31223">
        <time>2019-03-23T12:46:44Z</time>
      </trkpt>
      <trkpt lat="39.02318" lon="-0.3121">
        <time>2019-03-23T12:46:45Z</time>
      </trkpt>
      <trkpt lat="39.02319" lon="-0.31197">
        <time>2019-03-23T12:46:46Z</time>
      </trkpt>
      <trkpt lat="39.02322" lon="-0.31185">
        <time>2019-03-23T12:46:47Z</time>
      </trkpt>
      <trkpt lat="39.02326" lon="-0.31173">
        <time>2019-03-23T12:46:48Z</time>
      </trkpt>
      <trkpt lat="39.02332" lon="-0.31162">
        <time>2019-03-23T12:46:49Z</time>
      </trkpt>
      <trkpt lat="39.02339" lon="-0.31151">
        <time>2019-03-23T12:46:50Z</time>
      </trkpt>
      <trkpt lat="39.02346" lon="-0.3114">
        <time>2019-03-23T12:46:51Z</time>
      </trkpt>
      <trkpt lat="39.02353" lon="-0.31129">
        <time>2019-03-23T12:46:52Z</time>
      </trkpt>
      <trkpt lat="39.02358" lon="-0.31118">
        <time>2019-03-23T12:46:53Z</time>
      </trkpt>
      <trkpt lat="39.02362" lon="-0.31106">
        <time>2019-03-23T12:46:54Z</time>
      </trkpt>
      <trkpt lat="39.02363" lon="-0.31094">
        <time>2019-03-23T12:46:55Z</time>
      </trkpt>
      <trkpt lat="39.02366" lon="-0.31082">
        <time>2019-03-23T12:46:56Z</time>
      </trkpt>
      <trkpt lat="39.0237" lon="-0.31071">
        <time>2019-03-23T12:46:57Z</time>
      </trkpt>
      <trkpt lat="39.02376" lon="-0.3106">
        <time>2019-03-23T12:46:58Z</time>
      </trkpt>
      <trkpt lat="39.02382" lon="-0.31049">
        <time>2019-03-23T12:46:59Z</time>
      </trkpt>
      <trkpt lat="39.02389" lon="-0.31037">
        <time>2019-03-23T12:47:00Z</time>
      </trkpt>
      <trkpt lat="39.02395" lon="-0.31026">
        <time>2019-03-23T12:47:01Z</time>
      </trkpt>
      <trkpt lat="39.024" lon="-0.31014">
        <time>2019-03-23T12:47:02Z</time>
      </trkpt>
      <trkpt lat="39.02407" lon="-0.31004">
        <time>2019-03-23T12:47:03Z</time>
      </trkpt>
      <trkpt lat="39.02414" lon="-0.30996">
        <time>2019-03-23T12:47:04Z</time>
      </trkpt>
      <trkpt lat="39.02421" lon="-0.30989">
        <time>2019-03-23T12:47:05Z</time>
      </trkpt>
      <trkpt lat="39.02427" lon="-0.30982">
        <time>2019-03-23T12:47:06Z</time>
      </trkpt>
      <trkpt lat="39.02433" lon="-0.30975">
        <time>2019-03-23T12:47:07Z</time>
      </trkpt>
      <trkpt lat="39.02438" lon="-0.30969">
        <time>2019-03-23T12:47:08Z</time>
      </trkpt>
      <trkpt lat="39.02442" lon="-0.30963">
        <time>2019-03-23T12:47:09Z</time>
      </trkpt>
      <trkpt lat="39.02444" lon="-0.30958">
        <time>2019-03-23T12:47:10Z</time>
      </trkpt>
      <trkpt lat="39.02446" lon="-0.30955">
        <time>2019-03-23T12:47:11Z</time>
      </trkpt>
      <trkpt lat="39.02447" lon="-0.30953">
        <time>2019-03-23T12:47:12Z</time>
      </trkpt>
      <trkpt lat="39.02448" lon="-0.30951">
        <time>2019-03-23T12:47:37Z</time>
      </trkpt>
      <trkpt lat="39.02447" lon="-0.30949">
        <time>2019-03-23T12:47:38Z</time>
      </trkpt>
      <trkpt lat="39.02445" lon="-0.30946">
        <time>2019-03-23T12:47:39Z</time>
      </trkpt>
      <trkpt lat="39.02439" lon="-0.30944">
        <time>2019-03-23T12:47:40Z</time>
      </trkpt>
      <trkpt lat="39.02433" lon="-0.3094">
        <time>2019-03-23T12:47:41Z</time>
      </trkpt>
      <trkpt lat="39.02424" lon="-0.30937">
        <time>2019-03-23T12:47:42Z</time>
      </trkpt>
      <trkpt lat="39.02412" lon="-0.30931">
        <time>2019-03-23T12:47:43Z</time>
      </trkpt>
      <trkpt lat="39.024" lon="-0.30918">
        <time>2019-03-23T12:47:44Z</time>
      </trkpt>
      <trkpt lat="39.02388" lon="-0.30905">
        <time>2019-03-23T12:47:45Z</time>
      </trkpt>
      <trkpt lat="39.02378" lon="-0.30892">
        <time>2019-03-23T12:47:46Z</time>
      </trkpt>
      <trkpt lat="39.0237" lon="-0.30879">
        <time>2019-03-23T12:47:47Z</time>
      </trkpt>
      <trkpt lat="39.02367" lon="-0.30864">
        <time>2019-03-23T12:47:48Z</time>
      </trkpt>
      <trkpt lat="39.02368" lon="-0.30849">
        <time>2019-03-23T12:47:49Z</time>
      </trkpt>
      <trkpt lat="39.0237" lon="-0.30832">
        <time>2019-03-23T12:47:50Z</time>
      </trkpt>
      <trkpt lat="39.0237" lon="-0.30817">
        <time>2019-03-23T12:47:51Z</time>
      </trkpt>
      <trkpt lat="39.02368" lon="-0.30802">
        <time>2019-03-23T12:47:52Z</time>
      </trkpt>
      <trkpt lat="39.02363" lon="-0.30789">
        <time>2019-03-23T12:47:53Z</time>
      </trkpt>
      <trkpt lat="39.02358" lon="-0.30779">
        <time>2019-03-23T12:47:54Z</time>
      </trkpt>
      <trkpt lat="39.02352" lon="-0.30769">
        <time>2019-03-23T12:47:55Z</time>
      </trkpt>
      <trkpt lat="39.0235" lon="-0.30761">
        <time>2019-03-23T12:47:56Z</time>
      </trkpt>
      <trkpt lat="39.0235" lon="-0.30755">
        <time>2019-03-23T12:47:57Z</time>
      </trkpt>
      <trkpt lat="39.02353" lon="-0.30751">
        <time>2019-03-23T12:47:58Z</time>
      </trkpt>
      <trkpt lat="39.02357" lon="-0.30749">
        <time>2019-03-23T12:47:59Z</time>
      </trkpt>
      <trkpt lat="39.02366" lon="-0.3075">
        <time>2019-03-23T12:48:00Z</time>
      </trkpt>
      <trkpt lat="39.02375" lon="-0.30752">
        <time>2019-03-23T12:48:01Z</time>
      </trkpt>
      <trkpt lat="39.02387" lon="-0.30754">
        <time>2019-03-23T12:48:02Z</time>
      </trkpt>
      <trkpt lat="39.024" lon="-0.30755">
        <time>2019-03-23T12:48:03Z</time>
      </trkpt>
      <trkpt lat="39.02411" lon="-0.30756">
        <time>2019-03-23T12:48:04Z</time>
      </trkpt>
      <trkpt lat="39.02423" lon="-0.30754">
        <time>2019-03-23T12:48:05Z</time>
      </trkpt>
      <trkpt lat="39.02435" lon="-0.3075">
        <time>2019-03-23T12:48:06Z</time>
      </trkpt>
      <trkpt lat="39.02445" lon="-0.30744">
        <time>2019-03-23T12:48:07Z</time>
      </trkpt>
      <trkpt lat="39.02455" lon="-0.30735">
        <time>2019-03-23T12:48:08Z</time>
      </trkpt>
      <trkpt lat="39.02465" lon="-0.30724">
        <time>2019-03-23T12:48:09Z</time>
      </trkpt>
      <trkpt lat="39.02475" lon="-0.30711">
        <time>2019-03-23T12:48:10Z</time>
      </trkpt>
      <trkpt lat="39.02487" lon="-0.30699">
        <time>2019-03-23T12:48:11Z</time>
      </trkpt>
      <trkpt lat="39.02497" lon="-0.30686">
        <time>2019-03-23T12:48:12Z</time>
      </trkpt>
      <trkpt lat="39.02506" lon="-0.30673">
        <time>2019-03-23T12:48:13Z</time>
      </trkpt>
      <trkpt lat="39.02514" lon="-0.30662">
        <time>2019-03-23T12:48:14Z</time>
      </trkpt>
      <trkpt lat="39.02521" lon="-0.30653">
        <time>2019-03-23T12:48:15Z</time>
      </trkpt>
      <trkpt lat="39.0253" lon="-0.30642">
        <time>2019-03-23T12:48:16Z</time>
      </trkpt>
      <trkpt lat="39.02537" lon="-0.30633">
        <time>2019-03-23T12:48:17Z</time>
      </trkpt>
      <trkpt lat="39.02544" lon="-0.30622">
        <time>2019-03-23T12:48:18Z</time>
      </trkpt>
      <trkpt lat="39.0255" lon="-0.30612">
        <time>2019-03-23T12:48:19Z</time>
      </trkpt>
      <trkpt lat="39.02552" lon="-0.30602">
        <time>2019-03-23T12:48:20Z</time>
      </trkpt>
      <trkpt lat="39.02552" lon="-0.30592">
        <time>2019-03-23T12:48:21Z</time>
      </trkpt>
      <trkpt lat="39.02549" lon="-0.30583">
        <time>2019-03-23T12:48:22Z</time>
      </trkpt>
      <trkpt lat="39.02543" lon="-0.30577">
        <time>2019-03-23T12:48:23Z</time>
      </trkpt>
      <trkpt lat="39.02534" lon="-0.30572">
        <time>2019-03-23T12:48:24Z</time>
      </trkpt>
      <trkpt lat="39.02524" lon="-0.30567">
        <time>2019-03-23T12:48:25Z</time>
      </trkpt>
      <trkpt lat="39.02519" lon="-0.30554">
        <time>2019-03-23T12:48:26Z</time>
      </trkpt>
      <trkpt lat="39.02507" lon="-0.30545">
        <time>2019-03-23T12:48:27Z</time>
      </trkpt>
      <trkpt lat="39.02495" lon="-0.30536">
        <time>2019-03-23T12:48:28Z</time>
      </trkpt>
      <trkpt lat="39.02485" lon="-0.30524">
        <time>2019-03-23T12:48:29Z</time>
      </trkpt>
      <trkpt lat="39.02475" lon="-0.30508">
        <time>2019-03-23T12:48:30Z</time>
      </trkpt>
      <trkpt lat="39.02467" lon="-0.30492">
        <time>2019-03-23T12:48:31Z</time>
      </trkpt>
      <trkpt lat="39.02462" lon="-0.30475">
        <time>2019-03-23T12:48:32Z</time>
      </trkpt>
      <trkpt lat="39.02461" lon="-0.30466">
        <time>2019-03-23T12:48:33Z</time>
      </trkpt>
      <trkpt lat="39.02464" lon="-0.30449">
        <time>2019-03-23T12:48:34Z</time>
      </trkpt>
      <trkpt lat="39.0247" lon="-0.3043">
        <time>2019-03-23T12:48:35Z</time>
      </trkpt>
      <trkpt lat="39.02475" lon="-0.30413">
        <time>2019-03-23T12:48:36Z</time>
      </trkpt>
      <trkpt lat="39.0248" lon="-0.30395">
        <time>2019-03-23T12:48:37Z</time>
      </trkpt>
      <trkpt lat="39.02483" lon="-0.30376">
        <time>2019-03-23T12:48:38Z</time>
      </trkpt>
      <trkpt lat="39.02486" lon="-0.3036">
        <time>2019-03-23T12:48:39Z</time>
      </trkpt>
      <trkpt lat="39.0249" lon="-0.30343">
        <time>2019-03-23T12:48:40Z</time>
      </trkpt>
      <trkpt lat="39.02493" lon="-0.30329">
        <time>2019-03-23T12:48:41Z</time>
      </trkpt>
      <trkpt lat="39.02495" lon="-0.30316">
        <time>2019-03-23T12:48:42Z</time>
      </trkpt>
      <trkpt lat="39.02495" lon="-0.30302">
        <time>2019-03-23T12:48:43Z</time>
      </trkpt>
      <trkpt lat="39.02493" lon="-0.30293">
        <time>2019-03-23T12:48:44Z</time>
      </trkpt>
      <trkpt lat="39.02487" lon="-0.30288">
        <time>2019-03-23T12:48:45Z</time>
      </trkpt>
      <trkpt lat="39.02478" lon="-0.30284">
        <time>2019-03-23T12:48:46Z</time>
      </trkpt>
      <trkpt lat="39.02468" lon="-0.30281">
        <time>2019-03-23T12:48:47Z</time>
      </trkpt>
      <trkpt lat="39.02455" lon="-0.3028">
        <time>2019-03-23T12:48:48Z</time>
      </trkpt>
      <trkpt lat="39.02441" lon="-0.3028">
        <time>2019-03-23T12:48:49Z</time>
      </trkpt>
      <trkpt lat="39.02428" lon="-0.30282">
        <time>2019-03-23T12:48:50Z</time>
      </trkpt>
      <trkpt lat="39.02412" lon="-0.30283">
        <time>2019-03-23T12:48:51Z</time>
      </trkpt>
      <trkpt lat="39.02399" lon="-0.30283">
        <time>2019-03-23T12:48:52Z</time>
      </trkpt>
      <trkpt lat="39.02383" lon="-0.30282">
        <time>2019-03-23T12:48:53Z</time>
      </trkpt>
      <trkpt lat="39.0237" lon="-0.30281">
        <time>2019-03-23T12:48:54Z</time>
      </trkpt>
      <trkpt lat="39.02359" lon="-0.30279">
        <time>2019-03-23T12:48:55Z</time>
      </trkpt>
      <trkpt lat="39.02348" lon="-0.30277">
        <time>2019-03-23T12:48:56Z</time>
      </trkpt>
      <trkpt lat="39.02339" lon="-0.30272">
        <time>2019-03-23T12:48:57Z</time>
      </trkpt>
      <trkpt lat="39.02334" lon="-0.30266">
        <time>2019-03-23T12:48:58Z</time>
      </trkpt>
      <trkpt lat="39.02331" lon="-0.30256">
        <time>2019-03-23T12:48:59Z</time>
      </trkpt>
      <trkpt lat="39.02333" lon="-0.30247">
        <time>2019-03-23T12:49:00Z</time>
      </trkpt>
      <trkpt lat="39.02338" lon="-0.30234">
        <time>2019-03-23T12:49:01Z</time>
      </trkpt>
      <trkpt lat="39.02343" lon="-0.30219">
        <time>2019-03-23T12:49:02Z</time>
      </trkpt>
      <trkpt lat="39.02347" lon="-0.30205">
        <time>2019-03-23T12:49:03Z</time>
      </trkpt>
      <trkpt lat="39.0235" lon="-0.30188">
        <time>2019-03-23T12:49:04Z</time>
      </trkpt>
      <trkpt lat="39.02352" lon="-0.30172">
        <time>2019-03-23T12:49:05Z</time>
      </trkpt>
      <trkpt lat="39.02353" lon="-0.30156">
        <time>2019-03-23T12:49:06Z</time>
      </trkpt>
      <trkpt lat="39.02352" lon="-0.30145">
        <time>2019-03-23T12:49:07Z</time>
      </trkpt>
      <trkpt lat="39.02352" lon="-0.30135">
        <time>2019-03-23T12:49:08Z</time>
      </trkpt>
      <trkpt lat="39.02348" lon="-0.30125">
        <time>2019-03-23T12:49:09Z</time>
      </trkpt>
      <trkpt lat="39.02344" lon="-0.30117">
        <time>2019-03-23T12:49:10Z</time>
      </trkpt>
      <trkpt lat="39.0234" lon="-0.30108">
        <time>2019-03-23T12:49:11Z</time>
      </trkpt>
      <trkpt lat="39.02332" lon="-0.30098">
        <time>2019-03-23T12:49:12Z</time>
      </trkpt>
      <trkpt lat="39.02326" lon="-0.3009">
        <time>2019-03-23T12:49:13Z</time>
      </trkpt>
      <trkpt lat="39.02321" lon="-0.30082">
        <time>2019-03-23T12:49:14Z</time>
      </trkpt>
      <trkpt lat="39.02315" lon="-0.30073">
        <time>2019-03-23T12:49:15Z</time>
      </trkpt>
      <trkpt lat="39.0231" lon="-0.30065">
        <time>2019-03-23T12:49:16Z</time>
      </trkpt>
      <trkpt lat="39.02303" lon="-0.30055">
        <time>2019-03-23T12:49:17Z</time>
      </trkpt>
      <trkpt lat="39.02298" lon="-0.30047">
        <time>2019-03-23T12:49:18Z</time>
      </trkpt>
      <trkpt lat="39.02293" lon="-0.30038">
        <time>2019-03-23T12:49:19Z</time>
      </trkpt>
      <trkpt lat="39.02286" lon="-0.30028">
        <time>2019-03-23T12:49:20Z</time>
      </trkpt>
      <trkpt lat="39.02281" lon="-0.3002">
        <time>2019-03-23T12:49:21Z</time>
      </trkpt>
      <trkpt lat="39.02278" lon="-0.30012">
        <time>2019-03-23T12:49:22Z</time>
      </trkpt>
      <trkpt lat="39.02277" lon="-0.30004">
        <time>2019-03-23T12:49:23Z</time>
      </trkpt>
      <trkpt lat="39.02276" lon="-0.29995">
        <time>2019-03-23T12:49:24Z</time>
      </trkpt>
      <trkpt lat="39.02278" lon="-0.29984">
        <time>2019-03-23T12:49:25Z</time>
      </trkpt>
      <trkpt lat="39.0228" lon="-0.29974">
        <time>2019-03-23T12:49:26Z</time>
      </trkpt>
      <trkpt lat="39.02283" lon="-0.29963">
        <time>2019-03-23T12:49:27Z</time>
      </trkpt>
      <trkpt lat="39.02288" lon="-0.29952">
        <time>2019-03-23T12:49:28Z</time>
      </trkpt>
      <trkpt lat="39.02294" lon="-0.29942">
        <time>2019-03-23T12:49:29Z</time>
      </trkpt>
      <trkpt lat="39.023" lon="-0.29934">
        <time>2019-03-23T12:49:30Z</time>
      </trkpt>
      <trkpt lat="39.02305" lon="-0.29924">
        <time>2019-03-23T12:49:31Z</time>
      </trkpt>
      <trkpt lat="39.0231" lon="-0.29915">
        <time>2019-03-23T12:49:32Z</time>
      </trkpt>
      <trkpt lat="39.02314" lon="-0.29905">
        <time>2019-03-23T12:49:33Z</time>
      </trkpt>
      <trkpt lat="39.02313" lon="-0.29894">
        <time>2019-03-23T12:49:34Z</time>
      </trkpt>
      <trkpt lat="39.02312" lon="-0.29885">
        <time>2019-03-23T12:49:35Z</time>
      </trkpt>
      <trkpt lat="39.02312" lon="-0.29876">
        <time>2019-03-23T12:49:36Z</time>
      </trkpt>
      <trkpt lat="39.02312" lon="-0.29869">
        <time>2019-03-23T12:49:37Z</time>
      </trkpt>
      <trkpt lat="39.02312" lon="-0.29862">
        <time>2019-03-23T12:49:38Z</time>
      </trkpt>
      <trkpt lat="39.02312" lon="-0.29856">
        <time>2019-03-23T12:49:39Z</time>
      </trkpt>
      <trkpt lat="39.02312" lon="-0.29853">
        <time>2019-03-23T12:49:40Z</time>
      </trkpt>
      <trkpt lat="39.02312" lon="-0.29849">
        <time>2019-03-23T12:49:41Z</time>
      </trkpt>
      <trkpt lat="39.02312" lon="-0.29847">
        <time>2019-03-23T12:49:42Z</time>
      </trkpt>
      <trkpt lat="39.02312" lon="-0.29844">
        <time>2019-03-23T12:49:43Z</time>
      </trkpt>
      <trkpt lat="39.02313" lon="-0.29841">
        <time>2019-03-23T12:49:44Z</time>
      </trkpt>
      <trkpt lat="39.02314" lon="-0.29839">
        <time>2019-03-23T12:49:45Z</time>
      </trkpt>
      <trkpt lat="39.02318" lon="-0.29836">
        <time>2019-03-23T13:34:19Z</time>
      </trkpt>
      <trkpt lat="39.0232" lon="-0.29836">
        <time>2019-03-23T13:34:20Z</time>
      </trkpt>
      <trkpt lat="39.02322" lon="-0.29838">
        <time>2019-03-23T13:34:21Z</time>
      </trkpt>
      <trkpt lat="39.02322" lon="-0.29841">
        <time>2019-03-23T13:34:22Z</time>
      </trkpt>
      <trkpt lat="39.02321" lon="-0.29844">
        <time>2019-03-23T13:34:23Z</time>
      </trkpt>
      <trkpt lat="39.02319" lon="-0.29848">
        <time>2019-03-23T13:34:24Z</time>
      </trkpt>
      <trkpt lat="39.02317" lon="-0.29854">
        <time>2019-03-23T13:34:25Z</time>
      </trkpt>
      <trkpt lat="39.02316" lon="-0.29863">
        <time>2019-03-23T13:34:26Z</time>
      </trkpt>
      <trkpt lat="39.02316" lon="-0.29871">
        <time>2019-03-23T13:34:27Z</time>
      </trkpt>
      <trkpt lat="39.02316" lon="-0.29879">
        <time>2019-03-23T13:34:28Z</time>
      </trkpt>
      <trkpt lat="39.02317" lon="-0.29888">
        <time>2019-03-23T13:34:29Z</time>
      </trkpt>
      <trkpt lat="39.02317" lon="-0.29895">
        <time>2019-03-23T13:34:30Z</time>
      </trkpt>
      <trkpt lat="39.02316" lon="-0.29902">
        <time>2019-03-23T13:34:31Z</time>
      </trkpt>
      <trkpt lat="39.02315" lon="-0.29909">
        <time>2019-03-23T13:34:32Z</time>
      </trkpt>
      <trkpt lat="39.02312" lon="-0.29914">
        <time>2019-03-23T13:34:33Z</time>
      </trkpt>
      <trkpt lat="39.02308" lon="-0.2992">
        <time>2019-03-23T13:34:34Z</time>
      </trkpt>
      <trkpt lat="39.02302" lon="-0.29927">
        <time>2019-03-23T13:34:35Z</time>
      </trkpt>
      <trkpt lat="39.02296" lon="-0.29933">
        <time>2019-03-23T13:34:36Z</time>
      </trkpt>
      <trkpt lat="39.02287" lon="-0.29944">
        <time>2019-03-23T13:34:37Z</time>
      </trkpt>
      <trkpt lat="39.0228" lon="-0.29958">
        <time>2019-03-23T13:34:38Z</time>
      </trkpt>
      <trkpt lat="39.02274" lon="-0.29972">
        <time>2019-03-23T13:34:39Z</time>
      </trkpt>
      <trkpt lat="39.02269" lon="-0.29987">
        <time>2019-03-23T13:34:40Z</time>
      </trkpt>
      <trkpt lat="39.02268" lon="-0.3">
        <time>2019-03-23T13:34:41Z</time>
      </trkpt>
      <trkpt lat="39.0227" lon="-0.30015">
        <time>2019-03-23T13:34:42Z</time>
      </trkpt>
      <trkpt lat="39.02276" lon="-0.30027">
        <time>2019-03-23T13:34:43Z</time>
      </trkpt>
      <trkpt lat="39.02283" lon="-0.30039">
        <time>2019-03-23T13:34:44Z</time>
      </trkpt>
      <trkpt lat="39.02291" lon="-0.30054">
        <time>2019-03-23T13:34:45Z</time>
      </trkpt>
      <trkpt lat="39.023" lon="-0.30069">
        <time>2019-03-23T13:34:46Z</time>
      </trkpt>
      <trkpt lat="39.0231" lon="-0.30082">
        <time>2019-03-23T13:34:47Z</time>
      </trkpt>
      <trkpt lat="39.0232" lon="-0.30096">
        <time>2019-03-23T13:34:48Z</time>
      </trkpt>
      <trkpt lat="39.02329" lon="-0.30109">
        <time>2019-03-23T13:34:49Z</time>
      </trkpt>
      <trkpt lat="39.02338" lon="-0.30123">
        <time>2019-03-23T13:34:50Z</time>
      </trkpt>
      <trkpt lat="39.02345" lon="-0.30135">
        <time>2019-03-23T13:34:51Z</time>
      </trkpt>
      <trkpt lat="39.02358" lon="-0.30144">
        <time>2019-03-23T13:34:52Z</time>
      </trkpt>
      <trkpt lat="39.02358" lon="-0.3016">
        <time>2019-03-23T13:34:53Z</time>
      </trkpt>
      <trkpt lat="39.02356" lon="-0.30178">
        <time>2019-03-23T13:34:54Z</time>
      </trkpt>
      <trkpt lat="39.02354" lon="-0.30195">
        <time>2019-03-23T13:34:55Z</time>
      </trkpt>
      <trkpt lat="39.02349" lon="-0.30211">
        <time>2019-03-23T13:34:56Z</time>
      </trkpt>
      <trkpt lat="39.02343" lon="-0.30225">
        <time>2019-03-23T13:34:57Z</time>
      </trkpt>
      <trkpt lat="39.02337" lon="-0.30238">
        <time>2019-03-23T13:34:58Z</time>
      </trkpt>
      <trkpt lat="39.02332" lon="-0.30249">
        <time>2019-03-23T13:34:59Z</time>
      </trkpt>
      <trkpt lat="39.02332" lon="-0.30258">
        <time>2019-03-23T13:35:00Z</time>
      </trkpt>
      <trkpt lat="39.02336" lon="-0.30267">
        <time>2019-03-23T13:35:01Z</time>
      </trkpt>
      <trkpt lat="39.02343" lon="-0.30273">
        <time>2019-03-23T13:35:02Z</time>
      </trkpt>
      <trkpt lat="39.02352" lon="-0.30277">
        <time>2019-03-23T13:35:03Z</time>
      </trkpt>
      <trkpt lat="39.02365" lon="-0.30278">
        <time>2019-03-23T13:35:04Z</time>
      </trkpt>
      <trkpt lat="39.0238" lon="-0.30279">
        <time>2019-03-23T13:35:05Z</time>
      </trkpt>
      <trkpt lat="39.02396" lon="-0.30279">
        <time>2019-03-23T13:35:06Z</time>
      </trkpt>
      <trkpt lat="39.02412" lon="-0.30278">
        <time>2019-03-23T13:35:07Z</time>
      </trkpt>
      <trkpt lat="39.02426" lon="-0.30277">
        <time>2019-03-23T13:35:08Z</time>
      </trkpt>
      <trkpt lat="39.02442" lon="-0.30275">
        <time>2019-03-23T13:35:09Z</time>
      </trkpt>
      <trkpt lat="39.02455" lon="-0.30277">
        <time>2019-03-23T13:35:10Z</time>
      </trkpt>
      <trkpt lat="39.02468" lon="-0.30278">
        <time>2019-03-23T13:35:11Z</time>
      </trkpt>
      <trkpt lat="39.0248" lon="-0.30281">
        <time>2019-03-23T13:35:12Z</time>
      </trkpt>
      <trkpt lat="39.02488" lon="-0.30285">
        <time>2019-03-23T13:35:13Z</time>
      </trkpt>
      <trkpt lat="39.02495" lon="-0.30294">
        <time>2019-03-23T13:35:14Z</time>
      </trkpt>
      <trkpt lat="39.02497" lon="-0.30304">
        <time>2019-03-23T13:35:15Z</time>
      </trkpt>
      <trkpt lat="39.02497" lon="-0.30316">
        <time>2019-03-23T13:35:16Z</time>
      </trkpt>
      <trkpt lat="39.02494" lon="-0.30333">
        <time>2019-03-23T13:35:17Z</time>
      </trkpt>
      <trkpt lat="39.02491" lon="-0.3035">
        <time>2019-03-23T13:35:18Z</time>
      </trkpt>
      <trkpt lat="39.02486" lon="-0.30369">
        <time>2019-03-23T13:35:19Z</time>
      </trkpt>
      <trkpt lat="39.0248" lon="-0.30391">
        <time>2019-03-23T13:35:20Z</time>
      </trkpt>
      <trkpt lat="39.02473" lon="-0.30411">
        <time>2019-03-23T13:35:21Z</time>
      </trkpt>
      <trkpt lat="39.02467" lon="-0.30428">
        <time>2019-03-23T13:35:22Z</time>
      </trkpt>
      <trkpt lat="39.02463" lon="-0.30445">
        <time>2019-03-23T13:35:23Z</time>
      </trkpt>
      <trkpt lat="39.02462" lon="-0.30461">
        <time>2019-03-23T13:35:24Z</time>
      </trkpt>
      <trkpt lat="39.02465" lon="-0.3048">
        <time>2019-03-23T13:35:25Z</time>
      </trkpt>
      <trkpt lat="39.02471" lon="-0.30495">
        <time>2019-03-23T13:35:26Z</time>
      </trkpt>
      <trkpt lat="39.02479" lon="-0.30509">
        <time>2019-03-23T13:35:27Z</time>
      </trkpt>
      <trkpt lat="39.02488" lon="-0.30522">
        <time>2019-03-23T13:35:28Z</time>
      </trkpt>
      <trkpt lat="39.02498" lon="-0.30533">
        <time>2019-03-23T13:35:29Z</time>
      </trkpt>
      <trkpt lat="39.02511" lon="-0.30544">
        <time>2019-03-23T13:35:30Z</time>
      </trkpt>
      <trkpt lat="39.02524" lon="-0.30553">
        <time>2019-03-23T13:35:31Z</time>
      </trkpt>
      <trkpt lat="39.02536" lon="-0.30559">
        <time>2019-03-23T13:35:32Z</time>
      </trkpt>
      <trkpt lat="39.02548" lon="-0.30564">
        <time>2019-03-23T13:35:33Z</time>
      </trkpt>
      <trkpt lat="39.02556" lon="-0.30569">
        <time>2019-03-23T13:35:34Z</time>
      </trkpt>
      <trkpt lat="39.02561" lon="-0.30577">
        <time>2019-03-23T13:35:35Z</time>
      </trkpt>
      <trkpt lat="39.02562" lon="-0.30587">
        <time>2019-03-23T13:35:36Z</time>
      </trkpt>
      <trkpt lat="39.02559" lon="-0.30598">
        <time>2019-03-23T13:35:37Z</time>
      </trkpt>
      <trkpt lat="39.02553" lon="-0.30611">
        <time>2019-03-23T13:35:38Z</time>
      </trkpt>
      <trkpt lat="39.02544" lon="-0.30624">
        <time>2019-03-23T13:35:39Z</time>
      </trkpt>
      <trkpt lat="39.02534" lon="-0.30638">
        <time>2019-03-23T13:35:40Z</time>
      </trkpt>
      <trkpt lat="39.02523" lon="-0.30655">
        <time>2019-03-23T13:35:41Z</time>
      </trkpt>
      <trkpt lat="39.02512" lon="-0.3067">
        <time>2019-03-23T13:35:42Z</time>
      </trkpt>
      <trkpt lat="39.02502" lon="-0.30684">
        <time>2019-03-23T13:35:43Z</time>
      </trkpt>
      <trkpt lat="39.0249" lon="-0.30698">
        <time>2019-03-23T13:35:44Z</time>
      </trkpt>
      <trkpt lat="39.0248" lon="-0.30711">
        <time>2019-03-23T13:35:45Z</time>
      </trkpt>
      <trkpt lat="39.02469" lon="-0.30724">
        <time>2019-03-23T13:35:46Z</time>
      </trkpt>
      <trkpt lat="39.02452" lon="-0.30741">
        <time>2019-03-23T13:35:47Z</time>
      </trkpt>
      <trkpt lat="39.02441" lon="-0.30749">
        <time>2019-03-23T13:35:48Z</time>
      </trkpt>
      <trkpt lat="39.02428" lon="-0.30755">
        <time>2019-03-23T13:35:49Z</time>
      </trkpt>
      <trkpt lat="39.02413" lon="-0.30757">
        <time>2019-03-23T13:35:50Z</time>
      </trkpt>
      <trkpt lat="39.02399" lon="-0.30756">
        <time>2019-03-23T13:35:51Z</time>
      </trkpt>
      <trkpt lat="39.02386" lon="-0.30755">
        <time>2019-03-23T13:35:52Z</time>
      </trkpt>
      <trkpt lat="39.02376" lon="-0.30753">
        <time>2019-03-23T13:35:53Z</time>
      </trkpt>
      <trkpt lat="39.02367" lon="-0.30752">
        <time>2019-03-23T13:35:54Z</time>
      </trkpt>
      <trkpt lat="39.0236" lon="-0.30755">
        <time>2019-03-23T13:35:55Z</time>
      </trkpt>
      <trkpt lat="39.02356" lon="-0.30758">
        <time>2019-03-23T13:35:56Z</time>
      </trkpt>
      <trkpt lat="39.02355" lon="-0.30762">
        <time>2019-03-23T13:35:57Z</time>
      </trkpt>
      <trkpt lat="39.02356" lon="-0.30768">
        <time>2019-03-23T13:35:58Z</time>
      </trkpt>
      <trkpt lat="39.0236" lon="-0.30776">
        <time>2019-03-23T13:35:59Z</time>
      </trkpt>
      <trkpt lat="39.02367" lon="-0.30786">
        <time>2019-03-23T13:36:00Z</time>
      </trkpt>
      <trkpt lat="39.02371" lon="-0.30798">
        <time>2019-03-23T13:36:01Z</time>
      </trkpt>
      <trkpt lat="39.02373" lon="-0.30814">
        <time>2019-03-23T13:36:02Z</time>
      </trkpt>
      <trkpt lat="39.02372" lon="-0.30831">
        <time>2019-03-23T13:36:03Z</time>
      </trkpt>
      <trkpt lat="39.0237" lon="-0.30848">
        <time>2019-03-23T13:36:04Z</time>
      </trkpt>
      <trkpt lat="39.02373" lon="-0.3087">
        <time>2019-03-23T13:36:05Z</time>
      </trkpt>
      <trkpt lat="39.02375" lon="-0.30878">
        <time>2019-03-23T13:36:06Z</time>
      </trkpt>
      <trkpt lat="39.02383" lon="-0.30891">
        <time>2019-03-23T13:36:07Z</time>
      </trkpt>
      <trkpt lat="39.02393" lon="-0.30904">
        <time>2019-03-23T13:36:08Z</time>
      </trkpt>
      <trkpt lat="39.02406" lon="-0.30917">
        <time>2019-03-23T13:36:09Z</time>
      </trkpt>
      <trkpt lat="39.02421" lon="-0.30929">
        <time>2019-03-23T13:36:10Z</time>
      </trkpt>
      <trkpt lat="39.02433" lon="-0.30939">
        <time>2019-03-23T13:36:11Z</time>
      </trkpt>
      <trkpt lat="39.02451" lon="-0.30945">
        <time>2019-03-23T13:36:12Z</time>
      </trkpt>
      <trkpt lat="39.02464" lon="-0.3095">
        <time>2019-03-23T13:36:13Z</time>
      </trkpt>
      <trkpt lat="39.02476" lon="-0.30957">
        <time>2019-03-23T13:36:14Z</time>
      </trkpt>
      <trkpt lat="39.02487" lon="-0.30962">
        <time>2019-03-23T13:36:15Z</time>
      </trkpt>
      <trkpt lat="39.02497" lon="-0.30964">
        <time>2019-03-23T13:36:16Z</time>
      </trkpt>
      <trkpt lat="39.02507" lon="-0.30964">
        <time>2019-03-23T13:36:17Z</time>
      </trkpt>
      <trkpt lat="39.02517" lon="-0.30963">
        <time>2019-03-23T13:36:18Z</time>
      </trkpt>
      <trkpt lat="39.02527" lon="-0.30961">
        <time>2019-03-23T13:36:19Z</time>
      </trkpt>
      <trkpt lat="39.02536" lon="-0.30958">
        <time>2019-03-23T13:36:20Z</time>
      </trkpt>
      <trkpt lat="39.02545" lon="-0.30952">
        <time>2019-03-23T13:36:21Z</time>
      </trkpt>
      <trkpt lat="39.0255" lon="-0.30943">
        <time>2019-03-23T13:36:22Z</time>
      </trkpt>
      <trkpt lat="39.02552" lon="-0.30932">
        <time>2019-03-23T13:36:23Z</time>
      </trkpt>
      <trkpt lat="39.02551" lon="-0.30921">
        <time>2019-03-23T13:36:24Z</time>
      </trkpt>
      <trkpt lat="39.02541" lon="-0.30912">
        <time>2019-03-23T13:36:25Z</time>
      </trkpt>
      <trkpt lat="39.02534" lon="-0.30902">
        <time>2019-03-23T13:36:26Z</time>
      </trkpt>
      <trkpt lat="39.02527" lon="-0.30891">
        <time>2019-03-23T13:36:27Z</time>
      </trkpt>
      <trkpt lat="39.02524" lon="-0.3088">
        <time>2019-03-23T13:36:28Z</time>
      </trkpt>
      <trkpt lat="39.02523" lon="-0.30867">
        <time>2019-03-23T13:36:29Z</time>
      </trkpt>
      <trkpt lat="39.02526" lon="-0.30856">
        <time>2019-03-23T13:36:30Z</time>
      </trkpt>
      <trkpt lat="39.02532" lon="-0.30846">
        <time>2019-03-23T13:36:31Z</time>
      </trkpt>
      <trkpt lat="39.02539" lon="-0.30834">
        <time>2019-03-23T13:36:32Z</time>
      </trkpt>
      <trkpt lat="39.02543" lon="-0.30823">
        <time>2019-03-23T13:36:33Z</time>
      </trkpt>
      <trkpt lat="39.02547" lon="-0.3081">
        <time>2019-03-23T13:36:34Z</time>
      </trkpt>
      <trkpt lat="39.02548" lon="-0.30798">
        <time>2019-03-23T13:36:35Z</time>
      </trkpt>
      <trkpt lat="39.02547" lon="-0.30786">
        <time>2019-03-23T13:36:36Z</time>
      </trkpt>
      <trkpt lat="39.02546" lon="-0.30772">
        <time>2019-03-23T13:36:37Z</time>
      </trkpt>
      <trkpt lat="39.02545" lon="-0.30759">
        <time>2019-03-23T13:36:38Z</time>
      </trkpt>
      <trkpt lat="39.02546" lon="-0.30745">
        <time>2019-03-23T13:36:39Z</time>
      </trkpt>
      <trkpt lat="39.02551" lon="-0.30732">
        <time>2019-03-23T13:36:40Z</time>
      </trkpt>
      <trkpt lat="39.02558" lon="-0.30719">
        <time>2019-03-23T13:36:41Z</time>
      </trkpt>
      <trkpt lat="39.02568" lon="-0.30709">
        <time>2019-03-23T13:36:42Z</time>
      </trkpt>
      <trkpt lat="39.0258" lon="-0.30698">
        <time>2019-03-23T13:36:43Z</time>
      </trkpt>
      <trkpt lat="39.02592" lon="-0.3069">
        <time>2019-03-23T13:36:44Z</time>
      </trkpt>
      <trkpt lat="39.02605" lon="-0.30684">
        <time>2019-03-23T13:36:45Z</time>
      </trkpt>
      <trkpt lat="39.02616" lon="-0.30679">
        <time>2019-03-23T13:36:46Z</time>
      </trkpt>
      <trkpt lat="39.02628" lon="-0.30674">
        <time>2019-03-23T13:36:47Z</time>
      </trkpt>
      <trkpt lat="39.02638" lon="-0.30667">
        <time>2019-03-23T13:36:48Z</time>
      </trkpt>
      <trkpt lat="39.02647" lon="-0.3066">
        <time>2019-03-23T13:36:49Z</time>
      </trkpt>
      <trkpt lat="39.02656" lon="-0.30644">
        <time>2019-03-23T13:36:50Z</time>
      </trkpt>
      <trkpt lat="39.02661" lon="-0.30628">
        <time>2019-03-23T13:36:51Z</time>
      </trkpt>
      <trkpt lat="39.02668" lon="-0.30613">
        <time>2019-03-23T13:36:52Z</time>
      </trkpt>
      <trkpt lat="39.02677" lon="-0.30595">
        <time>2019-03-23T13:36:53Z</time>
      </trkpt>
      <trkpt lat="39.02688" lon="-0.30581">
        <time>2019-03-23T13:36:54Z</time>
      </trkpt>
      <trkpt lat="39.02701" lon="-0.30571">
        <time>2019-03-23T13:36:55Z</time>
      </trkpt>
      <trkpt lat="39.02715" lon="-0.3056">
        <time>2019-03-23T13:36:56Z</time>
      </trkpt>
      <trkpt lat="39.02727" lon="-0.30549">
        <time>2019-03-23T13:36:57Z</time>
      </trkpt>
      <trkpt lat="39.02734" lon="-0.30538">
        <time>2019-03-23T13:36:58Z</time>
      </trkpt>
      <trkpt lat="39.02739" lon="-0.30523">
        <time>2019-03-23T13:36:59Z</time>
      </trkpt>
      <trkpt lat="39.02742" lon="-0.30506">
        <time>2019-03-23T13:37:00Z</time>
      </trkpt>
      <trkpt lat="39.02745" lon="-0.30485">
        <time>2019-03-23T13:37:01Z</time>
      </trkpt>
      <trkpt lat="39.02749" lon="-0.30465">
        <time>2019-03-23T13:37:02Z</time>
      </trkpt>
      <trkpt lat="39.02752" lon="-0.30447">
        <time>2019-03-23T13:37:03Z</time>
      </trkpt>
      <trkpt lat="39.02753" lon="-0.30427">
        <time>2019-03-23T13:37:04Z</time>
      </trkpt>
      <trkpt lat="39.02757" lon="-0.30408">
        <time>2019-03-23T13:37:05Z</time>
      </trkpt>
      <trkpt lat="39.02764" lon="-0.30388">
        <time>2019-03-23T13:37:06Z</time>
      </trkpt>
      <trkpt lat="39.02772" lon="-0.3037">
        <time>2019-03-23T13:37:07Z</time>
      </trkpt>
      <trkpt lat="39.02778" lon="-0.30355">
        <time>2019-03-23T13:37:08Z</time>
      </trkpt>
      <trkpt lat="39.02783" lon="-0.30337">
        <time>2019-03-23T13:37:09Z</time>
      </trkpt>
      <trkpt lat="39.02785" lon="-0.30319">
        <time>2019-03-23T13:37:10Z</time>
      </trkpt>
      <trkpt lat="39.02785" lon="-0.303">
        <time>2019-03-23T13:37:11Z</time>
      </trkpt>
      <trkpt lat="39.0278" lon="-0.30288">
        <time>2019-03-23T13:37:12Z</time>
      </trkpt>
      <trkpt lat="39.02775" lon="-0.30276">
        <time>2019-03-23T13:37:13Z</time>
      </trkpt>
      <trkpt lat="39.02773" lon="-0.30266">
        <time>2019-03-23T13:37:14Z</time>
      </trkpt>
      <trkpt lat="39.02771" lon="-0.3026">
        <time>2019-03-23T13:37:15Z</time>
      </trkpt>
      <trkpt lat="39.02775" lon="-0.30254">
        <time>2019-03-23T13:37:16Z</time>
      </trkpt>
      <trkpt lat="39.02783" lon="-0.30252">
        <time>2019-03-23T13:37:17Z</time>
      </trkpt>
      <trkpt lat="39.02789" lon="-0.30257">
        <time>2019-03-23T13:37:18Z</time>
      </trkpt>
      <trkpt lat="39.02795" lon="-0.30267">
        <time>2019-03-23T13:37:19Z</time>
      </trkpt>
      <trkpt lat="39.02801" lon="-0.30281">
        <time>2019-03-23T13:37:20Z</time>
      </trkpt>
      <trkpt lat="39.02806" lon="-0.30296">
        <time>2019-03-23T13:37:21Z</time>
      </trkpt>
      <trkpt lat="39.02811" lon="-0.30317">
        <time>2019-03-23T13:37:22Z</time>
      </trkpt>
      <trkpt lat="39.02813" lon="-0.30338">
        <time>2019-03-23T13:37:23Z</time>
      </trkpt>
      <trkpt lat="39.02812" lon="-0.30357">
        <time>2019-03-23T13:37:24Z</time>
      </trkpt>
      <trkpt lat="39.02809" lon="-0.3038">
        <time>2019-03-23T13:37:25Z</time>
      </trkpt>
      <trkpt lat="39.02808" lon="-0.30403">
        <time>2019-03-23T13:37:26Z</time>
      </trkpt>
      <trkpt lat="39.02804" lon="-0.3043">
        <time>2019-03-23T13:37:27Z</time>
      </trkpt>
      <trkpt lat="39.02805" lon="-0.30453">
        <time>2019-03-23T13:37:28Z</time>
      </trkpt>
      <trkpt lat="39.02805" lon="-0.30472">
        <time>2019-03-23T13:37:29Z</time>
      </trkpt>
      <trkpt lat="39.02805" lon="-0.30489">
        <time>2019-03-23T13:37:30Z</time>
      </trkpt>
      <trkpt lat="39.02805" lon="-0.30502">
        <time>2019-03-23T13:37:31Z</time>
      </trkpt>
      <trkpt lat="39.02808" lon="-0.30511">
        <time>2019-03-23T13:37:32Z</time>
      </trkpt>
      <trkpt lat="39.02813" lon="-0.30518">
        <time>2019-03-23T13:37:33Z</time>
      </trkpt>
      <trkpt lat="39.02818" lon="-0.30519">
        <time>2019-03-23T13:37:34Z</time>
      </trkpt>
      <trkpt lat="39.02822" lon="-0.30504">
        <time>2019-03-23T13:37:35Z</time>
      </trkpt>
      <trkpt lat="39.02824" lon="-0.30493">
        <time>2019-03-23T13:37:36Z</time>
      </trkpt>
      <trkpt lat="39.02824" lon="-0.30479">
        <time>2019-03-23T13:37:37Z</time>
      </trkpt>
      <trkpt lat="39.02825" lon="-0.30461">
        <time>2019-03-23T13:37:38Z</time>
      </trkpt>
      <trkpt lat="39.02827" lon="-0.30441">
        <time>2019-03-23T13:37:39Z</time>
      </trkpt>
      <trkpt lat="39.0283" lon="-0.30425">
        <time>2019-03-23T13:37:40Z</time>
      </trkpt>
      <trkpt lat="39.02836" lon="-0.30403">
        <time>2019-03-23T13:37:41Z</time>
      </trkpt>
      <trkpt lat="39.02841" lon="-0.30384">
        <time>2019-03-23T13:37:42Z</time>
      </trkpt>
      <trkpt lat="39.02845" lon="-0.30365">
        <time>2019-03-23T13:37:43Z</time>
      </trkpt>
      <trkpt lat="39.02848" lon="-0.30346">
        <time>2019-03-23T13:37:44Z</time>
      </trkpt>
      <trkpt lat="39.02849" lon="-0.30328">
        <time>2019-03-23T13:37:45Z</time>
      </trkpt>
      <trkpt lat="39.02853" lon="-0.30304">
        <time>2019-03-23T13:37:46Z</time>
      </trkpt>
      <trkpt lat="39.02852" lon="-0.30289">
        <time>2019-03-23T13:37:47Z</time>
      </trkpt>
      <trkpt lat="39.02851" lon="-0.30277">
        <time>2019-03-23T13:37:48Z</time>
      </trkpt>
      <trkpt lat="39.02851" lon="-0.30266">
        <time>2019-03-23T13:37:49Z</time>
      </trkpt>
      <trkpt lat="39.02854" lon="-0.30259">
        <time>2019-03-23T13:37:50Z</time>
      </trkpt>
      <trkpt lat="39.0286" lon="-0.30255">
        <time>2019-03-23T13:37:51Z</time>
      </trkpt>
      <trkpt lat="39.02866" lon="-0.30257">
        <time>2019-03-23T13:37:52Z</time>
      </trkpt>
      <trkpt lat="39.02871" lon="-0.30264">
        <time>2019-03-23T13:37:53Z</time>
      </trkpt>
      <trkpt lat="39.02874" lon="-0.30276">
        <time>2019-03-23T13:37:54Z</time>
      </trkpt>
      <trkpt lat="39.02876" lon="-0.30291">
        <time>2019-03-23T13:37:55Z</time>
      </trkpt>
      <trkpt lat="39.02878" lon="-0.30308">
        <time>2019-03-23T13:37:56Z</time>
      </trkpt>
      <trkpt lat="39.02883" lon="-0.3033">
        <time>2019-03-23T13:37:57Z</time>
      </trkpt>
      <trkpt lat="39.02888" lon="-0.30349">
        <time>2019-03-23T13:37:58Z</time>
      </trkpt>
      <trkpt lat="39.02892" lon="-0.30366">
        <time>2019-03-23T13:37:59Z</time>
      </trkpt>
      <trkpt lat="39.02891" lon="-0.30385">
        <time>2019-03-23T13:38:00Z</time>
      </trkpt>
      <trkpt lat="39.02886" lon="-0.30403">
        <time>2019-03-23T13:38:01Z</time>
      </trkpt>
      <trkpt lat="39.02879" lon="-0.30409">
        <time>2019-03-23T13:38:02Z</time>
      </trkpt>
      <trkpt lat="39.02875" lon="-0.30426">
        <time>2019-03-23T13:38:03Z</time>
      </trkpt>
      <trkpt lat="39.02874" lon="-0.30444">
        <time>2019-03-23T13:38:04Z</time>
      </trkpt>
      <trkpt lat="39.02876" lon="-0.30459">
        <time>2019-03-23T13:38:05Z</time>
      </trkpt>
      <trkpt lat="39.02878" lon="-0.30474">
        <time>2019-03-23T13:38:06Z</time>
      </trkpt>
      <trkpt lat="39.0288" lon="-0.30484">
        <time>2019-03-23T13:38:07Z</time>
      </trkpt>
      <trkpt lat="39.02883" lon="-0.30491">
        <time>2019-03-23T13:38:08Z</time>
      </trkpt>
      <trkpt lat="39.02887" lon="-0.30493">
        <time>2019-03-23T13:38:09Z</time>
      </trkpt>
      <trkpt lat="39.02891" lon="-0.3049">
        <time>2019-03-23T13:38:10Z</time>
      </trkpt>
      <trkpt lat="39.02893" lon="-0.30482">
        <time>2019-03-23T13:38:11Z</time>
      </trkpt>
      <trkpt lat="39.02893" lon="-0.3047">
        <time>2019-03-23T13:38:12Z</time>
      </trkpt>
      <trkpt lat="39.02891" lon="-0.3046">
        <time>2019-03-23T13:38:13Z</time>
      </trkpt>
      <trkpt lat="39.02892" lon="-0.30443">
        <time>2019-03-23T13:38:14Z</time>
      </trkpt>
      <trkpt lat="39.02896" lon="-0.30425">
        <time>2019-03-23T13:38:15Z</time>
      </trkpt>
      <trkpt lat="39.02901" lon="-0.30406">
        <time>2019-03-23T13:38:16Z</time>
      </trkpt>
      <trkpt lat="39.02911" lon="-0.30391">
        <time>2019-03-23T13:38:17Z</time>
      </trkpt>
      <trkpt lat="39.02921" lon="-0.30376">
        <time>2019-03-23T13:38:18Z</time>
      </trkpt>
      <trkpt lat="39.02928" lon="-0.3036">
        <time>2019-03-23T13:38:19Z</time>
      </trkpt>
      <trkpt lat="39.02933" lon="-0.30344">
        <time>2019-03-23T13:38:20Z</time>
      </trkpt>
      <trkpt lat="39.02936" lon="-0.30327">
        <time>2019-03-23T13:38:21Z</time>
      </trkpt>
      <trkpt lat="39.02937" lon="-0.30309">
        <time>2019-03-23T13:38:22Z</time>
      </trkpt>
      <trkpt lat="39.02935" lon="-0.30292">
        <time>2019-03-23T13:38:23Z</time>
      </trkpt>
      <trkpt lat="39.02931" lon="-0.30275">
        <time>2019-03-23T13:38:24Z</time>
      </trkpt>
      <trkpt lat="39.02925" lon="-0.3026">
        <time>2019-03-23T13:38:25Z</time>
      </trkpt>
      <trkpt lat="39.02919" lon="-0.30248">
        <time>2019-03-23T13:38:26Z</time>
      </trkpt>
      <trkpt lat="39.02916" lon="-0.30238">
        <time>2019-03-23T13:38:27Z</time>
      </trkpt>
      <trkpt lat="39.02918" lon="-0.30228">
        <time>2019-03-23T13:38:28Z</time>
      </trkpt>
      <trkpt lat="39.02922" lon="-0.30223">
        <time>2019-03-23T13:38:29Z</time>
      </trkpt>
      <trkpt lat="39.02928" lon="-0.30223">
        <time>2019-03-23T13:38:30Z</time>
      </trkpt>
      <trkpt lat="39.02934" lon="-0.30228">
        <time>2019-03-23T13:38:31Z</time>
      </trkpt>
      <trkpt lat="39.0294" lon="-0.30239">
        <time>2019-03-23T13:38:32Z</time>
      </trkpt>
      <trkpt lat="39.02947" lon="-0.30253">
        <time>2019-03-23T13:38:33Z</time>
      </trkpt>
      <trkpt lat="39.02953" lon="-0.30269">
        <time>2019-03-23T13:38:34Z</time>
      </trkpt>
      <trkpt lat="39.02959" lon="-0.30288">
        <time>2019-03-23T13:38:35Z</time>
      </trkpt>
      <trkpt lat="39.02963" lon="-0.30307">
        <time>2019-03-23T13:38:36Z</time>
      </trkpt>
      <trkpt lat="39.02963" lon="-0.3033">
        <time>2019-03-23T13:38:37Z</time>
      </trkpt>
      <trkpt lat="39.0296" lon="-0.30353">
        <time>2019-03-23T13:38:38Z</time>
      </trkpt>
      <trkpt lat="39.02955" lon="-0.30375">
        <time>2019-03-23T13:38:39Z</time>
      </trkpt>
      <trkpt lat="39.02949" lon="-0.30396">
        <time>2019-03-23T13:38:40Z</time>
      </trkpt>
      <trkpt lat="39.02945" lon="-0.30414">
        <time>2019-03-23T13:38:41Z</time>
      </trkpt>
      <trkpt lat="39.02944" lon="-0.30432">
        <time>2019-03-23T13:38:42Z</time>
      </trkpt>
      <trkpt lat="39.02947" lon="-0.30446">
        <time>2019-03-23T13:38:43Z</time>
      </trkpt>
      <trkpt lat="39.02954" lon="-0.30456">
        <time>2019-03-23T13:38:44Z</time>
      </trkpt>
      <trkpt lat="39.0296" lon="-0.30468">
        <time>2019-03-23T13:38:45Z</time>
      </trkpt>
      <trkpt lat="39.02964" lon="-0.30481">
        <time>2019-03-23T13:38:46Z</time>
      </trkpt>
      <trkpt lat="39.02963" lon="-0.30494">
        <time>2019-03-23T13:38:47Z</time>
      </trkpt>
      <trkpt lat="39.02958" lon="-0.30509">
        <time>2019-03-23T13:38:48Z</time>
      </trkpt>
      <trkpt lat="39.0295" lon="-0.30524">
        <time>2019-03-23T13:38:49Z</time>
      </trkpt>
      <trkpt lat="39.02942" lon="-0.30541">
        <time>2019-03-23T13:38:50Z</time>
      </trkpt>
      <trkpt lat="39.02931" lon="-0.30557">
        <time>2019-03-23T13:38:51Z</time>
      </trkpt>
      <trkpt lat="39.02919" lon="-0.30571">
        <time>2019-03-23T13:38:52Z</time>
      </trkpt>
      <trkpt lat="39.02902" lon="-0.30588">
        <time>2019-03-23T13:38:53Z</time>
      </trkpt>
      <trkpt lat="39.02885" lon="-0.30607">
        <time>2019-03-23T13:38:54Z</time>
      </trkpt>
      <trkpt lat="39.02869" lon="-0.30624">
        <time>2019-03-23T13:38:55Z</time>
      </trkpt>
      <trkpt lat="39.02851" lon="-0.30643">
        <time>2019-03-23T13:38:56Z</time>
      </trkpt>
      <trkpt lat="39.02842" lon="-0.30653">
        <time>2019-03-23T13:38:57Z</time>
      </trkpt>
      <trkpt lat="39.02829" lon="-0.3067">
        <time>2019-03-23T13:38:58Z</time>
      </trkpt>
      <trkpt lat="39.02818" lon="-0.30682">
        <time>2019-03-23T13:38:59Z</time>
      </trkpt>
      <trkpt lat="39.02809" lon="-0.30693">
        <time>2019-03-23T13:39:00Z</time>
      </trkpt>
      <trkpt lat="39.02802" lon="-0.30706">
        <time>2019-03-23T13:39:01Z</time>
      </trkpt>
      <trkpt lat="39.02796" lon="-0.30718">
        <time>2019-03-23T13:39:02Z</time>
      </trkpt>
      <trkpt lat="39.02794" lon="-0.30729">
        <time>2019-03-23T13:39:03Z</time>
      </trkpt>
      <trkpt lat="39.02794" lon="-0.30738">
        <time>2019-03-23T13:39:04Z</time>
      </trkpt>
      <trkpt lat="39.02796" lon="-0.30745">
        <time>2019-03-23T13:39:05Z</time>
      </trkpt>
      <trkpt lat="39.02802" lon="-0.30748">
        <time>2019-03-23T13:39:06Z</time>
      </trkpt>
      <trkpt lat="39.02805" lon="-0.30752">
        <time>2019-03-23T13:39:07Z</time>
      </trkpt>
      <trkpt lat="39.02802" lon="-0.30744">
        <time>2019-03-23T13:39:08Z</time>
      </trkpt>
      <trkpt lat="39.02806" lon="-0.3073">
        <time>2019-03-23T13:39:09Z</time>
      </trkpt>
      <trkpt lat="39.02812" lon="-0.30714">
        <time>2019-03-23T13:39:10Z</time>
      </trkpt>
      <trkpt lat="39.02822" lon="-0.30698">
        <time>2019-03-23T13:39:11Z</time>
      </trkpt>
      <trkpt lat="39.02835" lon="-0.30684">
        <time>2019-03-23T13:39:12Z</time>
      </trkpt>
      <trkpt lat="39.02847" lon="-0.30673">
        <time>2019-03-23T13:39:13Z</time>
      </trkpt>
      <trkpt lat="39.02863" lon="-0.30659">
        <time>2019-03-23T13:39:14Z</time>
      </trkpt>
      <trkpt lat="39.02879" lon="-0.30647">
        <time>2019-03-23T13:39:15Z</time>
      </trkpt>
      <trkpt lat="39.02894" lon="-0.30638">
        <time>2019-03-23T13:39:16Z</time>
      </trkpt>
      <trkpt lat="39.02912" lon="-0.3063">
        <time>2019-03-23T13:39:17Z</time>
      </trkpt>
      <trkpt lat="39.02936" lon="-0.30616">
        <time>2019-03-23T13:39:18Z</time>
      </trkpt>
      <trkpt lat="39.02953" lon="-0.30608">
        <time>2019-03-23T13:39:19Z</time>
      </trkpt>
      <trkpt lat="39.0297" lon="-0.30598">
        <time>2019-03-23T13:39:20Z</time>
      </trkpt>
      <trkpt lat="39.02984" lon="-0.30588">
        <time>2019-03-23T13:39:21Z</time>
      </trkpt>
      <trkpt lat="39.02999" lon="-0.30584">
        <time>2019-03-23T13:39:22Z</time>
      </trkpt>
      <trkpt lat="39.03014" lon="-0.3058">
        <time>2019-03-23T13:39:23Z</time>
      </trkpt>
      <trkpt lat="39.03028" lon="-0.30574">
        <time>2019-03-23T13:39:24Z</time>
      </trkpt>
      <trkpt lat="39.03044" lon="-0.3056">
        <time>2019-03-23T13:39:25Z</time>
      </trkpt>
      <trkpt lat="39.03059" lon="-0.30551">
        <time>2019-03-23T13:39:26Z</time>
      </trkpt>
      <trkpt lat="39.03074" lon="-0.30542">
        <time>2019-03-23T13:39:27Z</time>
      </trkpt>
      <trkpt lat="39.03085" lon="-0.30531">
        <time>2019-03-23T13:39:28Z</time>
      </trkpt>
      <trkpt lat="39.03093" lon="-0.3052">
        <time>2019-03-23T13:39:29Z</time>
      </trkpt>
      <trkpt lat="39.03097" lon="-0.30509">
        <time>2019-03-23T13:39:30Z</time>
      </trkpt>
      <trkpt lat="39.03099" lon="-0.30498">
        <time>2019-03-23T13:39:31Z</time>
      </trkpt>
      <trkpt lat="39.03091" lon="-0.30489">
        <time>2019-03-23T13:39:32Z</time>
      </trkpt>
      <trkpt lat="39.03083" lon="-0.30476">
        <time>2019-03-23T13:39:33Z</time>
      </trkpt>
      <trkpt lat="39.03074" lon="-0.30459">
        <time>2019-03-23T13:39:34Z</time>
      </trkpt>
      <trkpt lat="39.03063" lon="-0.30441">
        <time>2019-03-23T13:39:35Z</time>
      </trkpt>
      <trkpt lat="39.03052" lon="-0.30428">
        <time>2019-03-23T13:39:36Z</time>
      </trkpt>
      <trkpt lat="39.03043" lon="-0.30417">
        <time>2019-03-23T13:39:37Z</time>
      </trkpt>
      <trkpt lat="39.03038" lon="-0.30405">
        <time>2019-03-23T13:39:38Z</time>
      </trkpt>
      <trkpt lat="39.03038" lon="-0.30391">
        <time>2019-03-23T13:39:39Z</time>
      </trkpt>
      <trkpt lat="39.03043" lon="-0.30376">
        <time>2019-03-23T13:39:40Z</time>
      </trkpt>
      <trkpt lat="39.03052" lon="-0.30359">
        <time>2019-03-23T13:39:41Z</time>
      </trkpt>
      <trkpt lat="39.03064" lon="-0.3034">
        <time>2019-03-23T13:39:42Z</time>
      </trkpt>
      <trkpt lat="39.03078" lon="-0.3032">
        <time>2019-03-23T13:39:43Z</time>
      </trkpt>
      <trkpt lat="39.03089" lon="-0.303">
        <time>2019-03-23T13:39:44Z</time>
      </trkpt>
      <trkpt lat="39.03099" lon="-0.3028">
        <time>2019-03-23T13:39:45Z</time>
      </trkpt>
      <trkpt lat="39.03106" lon="-0.30261">
        <time>2019-03-23T13:39:46Z</time>
      </trkpt>
      <trkpt lat="39.03111" lon="-0.30244">
        <time>2019-03-23T13:39:47Z</time>
      </trkpt>
      <trkpt lat="39.03116" lon="-0.30228">
        <time>2019-03-23T13:39:48Z</time>
      </trkpt>
      <trkpt lat="39.0312" lon="-0.30213">
        <time>2019-03-23T13:39:49Z</time>
      </trkpt>
      <trkpt lat="39.03122" lon="-0.302">
        <time>2019-03-23T13:39:50Z</time>
      </trkpt>
      <trkpt lat="39.03124" lon="-0.30186">
        <time>2019-03-23T13:39:51Z</time>
      </trkpt>
      <trkpt lat="39.03122" lon="-0.30174">
        <time>2019-03-23T13:39:52Z</time>
      </trkpt>
      <trkpt lat="39.03118" lon="-0.30163">
        <time>2019-03-23T13:39:53Z</time>
      </trkpt>
      <trkpt lat="39.03112" lon="-0.30154">
        <time>2019-03-23T13:39:54Z</time>
      </trkpt>
      <trkpt lat="39.03106" lon="-0.30146">
        <time>2019-03-23T13:39:55Z</time>
      </trkpt>
      <trkpt lat="39.03094" lon="-0.30144">
        <time>2019-03-23T13:39:56Z</time>
      </trkpt>
      <trkpt lat="39.03087" lon="-0.30136">
        <time>2019-03-23T13:39:57Z</time>
      </trkpt>
      <trkpt lat="39.03079" lon="-0.30129">
        <time>2019-03-23T13:39:58Z</time>
      </trkpt>
      <trkpt lat="39.0307" lon="-0.30122">
        <time>2019-03-23T13:39:59Z</time>
      </trkpt>
      <trkpt lat="39.03061" lon="-0.30117">
        <time>2019-03-23T13:40:00Z</time>
      </trkpt>
      <trkpt lat="39.03053" lon="-0.30114">
        <time>2019-03-23T13:40:01Z</time>
      </trkpt>
      <trkpt lat="39.03047" lon="-0.30109">
        <time>2019-03-23T13:40:02Z</time>
      </trkpt>
      <trkpt lat="39.03042" lon="-0.30104">
        <time>2019-03-23T13:40:03Z</time>
      </trkpt>
      <trkpt lat="39.03041" lon="-0.30098">
        <time>2019-03-23T13:40:04Z</time>
      </trkpt>
      <trkpt lat="39.03041" lon="-0.30091">
        <time>2019-03-23T13:40:05Z</time>
      </trkpt>
      <trkpt lat="39.03044" lon="-0.30085">
        <time>2019-03-23T13:40:06Z</time>
      </trkpt>
      <trkpt lat="39.03049" lon="-0.30081">
        <time>2019-03-23T13:40:07Z</time>
      </trkpt>
      <trkpt lat="39.03055" lon="-0.3008">
        <time>2019-03-23T13:40:08Z</time>
      </trkpt>
      <trkpt lat="39.03062" lon="-0.30082">
        <time>2019-03-23T13:40:09Z</time>
      </trkpt>
      <trkpt lat="39.0307" lon="-0.30086">
        <time>2019-03-23T13:40:10Z</time>
      </trkpt>
      <trkpt lat="39.03078" lon="-0.3009">
        <time>2019-03-23T13:40:11Z</time>
      </trkpt>
      <trkpt lat="39.03086" lon="-0.30096">
        <time>2019-03-23T13:40:12Z</time>
      </trkpt>
      <trkpt lat="39.03096" lon="-0.30102">
        <time>2019-03-23T13:40:13Z</time>
      </trkpt>
      <trkpt lat="39.03106" lon="-0.30109">
        <time>2019-03-23T13:40:14Z</time>
      </trkpt>
      <trkpt lat="39.03116" lon="-0.30117">
        <time>2019-03-23T13:40:15Z</time>
      </trkpt>
      <trkpt lat="39.03126" lon="-0.30124">
        <time>2019-03-23T13:40:16Z</time>
      </trkpt>
      <trkpt lat="39.03136" lon="-0.30131">
        <time>2019-03-23T13:40:17Z</time>
      </trkpt>
      <trkpt lat="39.03146" lon="-0.30138">
        <time>2019-03-23T13:40:18Z</time>
      </trkpt>
      <trkpt lat="39.03154" lon="-0.30147">
        <time>2019-03-23T13:40:19Z</time>
      </trkpt>
      <trkpt lat="39.03161" lon="-0.30156">
        <time>2019-03-23T13:40:20Z</time>
      </trkpt>
      <trkpt lat="39.03167" lon="-0.30166">
        <time>2019-03-23T13:40:21Z</time>
      </trkpt>
      <trkpt lat="39.0317" lon="-0.30176">
        <time>2019-03-23T13:40:22Z</time>
      </trkpt>
      <trkpt lat="39.03171" lon="-0.30185">
        <time>2019-03-23T13:40:23Z</time>
      </trkpt>
      <trkpt lat="39.03169" lon="-0.30196">
        <time>2019-03-23T13:40:24Z</time>
      </trkpt>
      <trkpt lat="39.03167" lon="-0.30206">
        <time>2019-03-23T13:40:25Z</time>
      </trkpt>
      <trkpt lat="39.03164" lon="-0.30216">
        <time>2019-03-23T13:40:26Z</time>
      </trkpt>
      <trkpt lat="39.03162" lon="-0.30228">
        <time>2019-03-23T13:40:27Z</time>
      </trkpt>
      <trkpt lat="39.03159" lon="-0.3024">
        <time>2019-03-23T13:40:28Z</time>
      </trkpt>
      <trkpt lat="39.03156" lon="-0.30255">
        <time>2019-03-23T13:40:29Z</time>
      </trkpt>
      <trkpt lat="39.03153" lon="-0.30269">
        <time>2019-03-23T13:40:30Z</time>
      </trkpt>
      <trkpt lat="39.0315" lon="-0.30283">
        <time>2019-03-23T13:40:31Z</time>
      </trkpt>
      <trkpt lat="39.03148" lon="-0.30296">
        <time>2019-03-23T13:40:32Z</time>
      </trkpt>
      <trkpt lat="39.03145" lon="-0.30309">
        <time>2019-03-23T13:40:33Z</time>
      </trkpt>
      <trkpt lat="39.03142" lon="-0.30324">
        <time>2019-03-23T13:40:34Z</time>
      </trkpt>
      <trkpt lat="39.03138" lon="-0.30339">
        <time>2019-03-23T13:40:35Z</time>
      </trkpt>
      <trkpt lat="39.03136" lon="-0.30351">
        <time>2019-03-23T13:40:36Z</time>
      </trkpt>
      <trkpt lat="39.03132" lon="-0.30365">
        <time>2019-03-23T13:40:37Z</time>
      </trkpt>
      <trkpt lat="39.0313" lon="-0.30378">
        <time>2019-03-23T13:40:38Z</time>
      </trkpt>
      <trkpt lat="39.0313" lon="-0.30391">
        <time>2019-03-23T13:40:39Z</time>
      </trkpt>
      <trkpt lat="39.03132" lon="-0.30403">
        <time>2019-03-23T13:40:40Z</time>
      </trkpt>
      <trkpt lat="39.03136" lon="-0.30414">
        <time>2019-03-23T13:40:41Z</time>
      </trkpt>
      <trkpt lat="39.03141" lon="-0.30424">
        <time>2019-03-23T13:40:42Z</time>
      </trkpt>
      <trkpt lat="39.03146" lon="-0.30434">
        <time>2019-03-23T13:40:43Z</time>
      </trkpt>
      <trkpt lat="39.0315" lon="-0.30442">
        <time>2019-03-23T13:40:44Z</time>
      </trkpt>
      <trkpt lat="39.03155" lon="-0.30449">
        <time>2019-03-23T13:40:45Z</time>
      </trkpt>
      <trkpt lat="39.0316" lon="-0.30452">
        <time>2019-03-23T13:40:46Z</time>
      </trkpt>
      <trkpt lat="39.03164" lon="-0.30453">
        <time>2019-03-23T13:40:47Z</time>
      </trkpt>
      <trkpt lat="39.03168" lon="-0.3045">
        <time>2019-03-23T13:40:48Z</time>
      </trkpt>
      <trkpt lat="39.0317" lon="-0.30445">
        <time>2019-03-23T13:40:49Z</time>
      </trkpt>
      <trkpt lat="39.0317" lon="-0.30437">
        <time>2019-03-23T13:40:50Z</time>
      </trkpt>
      <trkpt lat="39.03168" lon="-0.30429">
        <time>2019-03-23T13:40:51Z</time>
      </trkpt>
      <trkpt lat="39.03165" lon="-0.30421">
        <time>2019-03-23T13:40:52Z</time>
      </trkpt>
      <trkpt lat="39.03163" lon="-0.3041">
        <time>2019-03-23T13:40:53Z</time>
      </trkpt>
      <trkpt lat="39.03163" lon="-0.30398">
        <time>2019-03-23T13:40:54Z</time>
      </trkpt>
      <trkpt lat="39.03165" lon="-0.30387">
        <time>2019-03-23T13:40:55Z</time>
      </trkpt>
      <trkpt lat="39.03168" lon="-0.30375">
        <time>2019-03-23T13:40:56Z</time>
      </trkpt>
      <trkpt lat="39.0317" lon="-0.30364">
        <time>2019-03-23T13:40:57Z</time>
      </trkpt>
      <trkpt lat="39.03171" lon="-0.30352">
        <time>2019-03-23T13:40:58Z</time>
      </trkpt>
      <trkpt lat="39.03172" lon="-0.3034">
        <time>2019-03-23T13:40:59Z</time>
      </trkpt>
      <trkpt lat="39.03174" lon="-0.30331">
        <time>2019-03-23T13:41:00Z</time>
      </trkpt>
      <trkpt lat="39.03179" lon="-0.30322">
        <time>2019-03-23T13:41:01Z</time>
      </trkpt>
      <trkpt lat="39.03185" lon="-0.30315">
        <time>2019-03-23T13:41:02Z</time>
      </trkpt>
      <trkpt lat="39.03194" lon="-0.30312">
        <time>2019-03-23T13:41:03Z</time>
      </trkpt>
      <trkpt lat="39.03202" lon="-0.3031">
        <time>2019-03-23T13:41:04Z</time>
      </trkpt>
      <trkpt lat="39.03211" lon="-0.3031">
        <time>2019-03-23T13:41:05Z</time>
      </trkpt>
      <trkpt lat="39.03221" lon="-0.30311">
        <time>2019-03-23T13:41:06Z</time>
      </trkpt>
      <trkpt lat="39.03233" lon="-0.3031">
        <time>2019-03-23T13:41:07Z</time>
      </trkpt>
      <trkpt lat="39.03247" lon="-0.30308">
        <time>2019-03-23T13:41:08Z</time>
      </trkpt>
      <trkpt lat="39.03265" lon="-0.30306">
        <time>2019-03-23T13:41:09Z</time>
      </trkpt>
      <trkpt lat="39.03283" lon="-0.30305">
        <time>2019-03-23T13:41:10Z</time>
      </trkpt>
      <trkpt lat="39.03299" lon="-0.30304">
        <time>2019-03-23T13:41:11Z</time>
      </trkpt>
      <trkpt lat="39.03317" lon="-0.30305">
        <time>2019-03-23T13:41:12Z</time>
      </trkpt>
      <trkpt lat="39.03332" lon="-0.30311">
        <time>2019-03-23T13:41:13Z</time>
      </trkpt>
      <trkpt lat="39.03348" lon="-0.30323">
        <time>2019-03-23T13:41:14Z</time>
      </trkpt>
      <trkpt lat="39.03359" lon="-0.30337">
        <time>2019-03-23T13:41:15Z</time>
      </trkpt>
      <trkpt lat="39.03375" lon="-0.3035">
        <time>2019-03-23T13:41:16Z</time>
      </trkpt>
      <trkpt lat="39.03393" lon="-0.30362">
        <time>2019-03-23T13:41:17Z</time>
      </trkpt>
      <trkpt lat="39.03412" lon="-0.30372">
        <time>2019-03-23T13:41:18Z</time>
      </trkpt>
      <trkpt lat="39.03432" lon="-0.30382">
        <time>2019-03-23T13:41:19Z</time>
      </trkpt>
      <trkpt lat="39.03454" lon="-0.30394">
        <time>2019-03-23T13:41:20Z</time>
      </trkpt>
      <trkpt lat="39.03475" lon="-0.30405">
        <time>2019-03-23T13:41:21Z</time>
      </trkpt>
      <trkpt lat="39.03494" lon="-0.30416">
        <time>2019-03-23T13:41:22Z</time>
      </trkpt>
      <trkpt lat="39.03514" lon="-0.30427">
        <time>2019-03-23T13:41:23Z</time>
      </trkpt>
      <trkpt lat="39.03532" lon="-0.30436">
        <time>2019-03-23T13:41:24Z</time>
      </trkpt>
      <trkpt lat="39.03551" lon="-0.30443">
        <time>2019-03-23T13:41:25Z</time>
      </trkpt>
      <trkpt lat="39.03571" lon="-0.30446">
        <time>2019-03-23T13:41:26Z</time>
      </trkpt>
      <trkpt lat="39.03596" lon="-0.30452">
        <time>2019-03-23T13:41:27Z</time>
      </trkpt>
      <trkpt lat="39.03619" lon="-0.30453">
        <time>2019-03-23T13:41:28Z</time>
      </trkpt>
      <trkpt lat="39.03643" lon="-0.30456">
        <time>2019-03-23T13:41:29Z</time>
      </trkpt>
      <trkpt lat="39.03667" lon="-0.3046">
        <time>2019-03-23T13:41:30Z</time>
      </trkpt>
      <trkpt lat="39.03692" lon="-0.30463">
        <time>2019-03-23T13:41:31Z</time>
      </trkpt>
      <trkpt lat="39.03713" lon="-0.30466">
        <time>2019-03-23T13:41:32Z</time>
      </trkpt>
      <trkpt lat="39.03738" lon="-0.30468">
        <time>2019-03-23T13:41:33Z</time>
      </trkpt>
      <trkpt lat="39.03759" lon="-0.3047">
        <time>2019-03-23T13:41:34Z</time>
      </trkpt>
      <trkpt lat="39.0378" lon="-0.3047">
        <time>2019-03-23T13:41:35Z</time>
      </trkpt>
      <trkpt lat="39.03804" lon="-0.30474">
        <time>2019-03-23T13:41:36Z</time>
      </trkpt>
      <trkpt lat="39.03821" lon="-0.30476">
        <time>2019-03-23T13:41:37Z</time>
      </trkpt>
      <trkpt lat="39.03839" lon="-0.30477">
        <time>2019-03-23T13:41:38Z</time>
      </trkpt>
      <trkpt lat="39.03855" lon="-0.30479">
        <time>2019-03-23T13:41:39Z</time>
      </trkpt>
      <trkpt lat="39.0387" lon="-0.30482">
        <time>2019-03-23T13:41:40Z</time>
      </trkpt>
      <trkpt lat="39.03889" lon="-0.30488">
        <time>2019-03-23T13:41:41Z</time>
      </trkpt>
      <trkpt lat="39.03909" lon="-0.30499">
        <time>2019-03-23T13:41:42Z</time>
      </trkpt>
      <trkpt lat="39.03928" lon="-0.30507">
        <time>2019-03-23T13:41:43Z</time>
      </trkpt>
      <trkpt lat="39.03949" lon="-0.30518">
        <time>2019-03-23T13:41:44Z</time>
      </trkpt>
      <trkpt lat="39.03968" lon="-0.30529">
        <time>2019-03-23T13:41:45Z</time>
      </trkpt>
      <trkpt lat="39.03987" lon="-0.30539">
        <time>2019-03-23T13:41:46Z</time>
      </trkpt>
      <trkpt lat="39.04005" lon="-0.30551">
        <time>2019-03-23T13:41:47Z</time>
      </trkpt>
      <trkpt lat="39.0402" lon="-0.3056">
        <time>2019-03-23T13:41:48Z</time>
      </trkpt>
      <trkpt lat="39.04037" lon="-0.30569">
        <time>2019-03-23T13:41:49Z</time>
      </trkpt>
      <trkpt lat="39.04053" lon="-0.30579">
        <time>2019-03-23T13:41:50Z</time>
      </trkpt>
      <trkpt lat="39.04068" lon="-0.30588">
        <time>2019-03-23T13:41:51Z</time>
      </trkpt>
      <trkpt lat="39.04083" lon="-0.30597">
        <time>2019-03-23T13:41:52Z</time>
      </trkpt>
      <trkpt lat="39.04096" lon="-0.30604">
        <time>2019-03-23T13:41:53Z</time>
      </trkpt>
      <trkpt lat="39.04109" lon="-0.30613">
        <time>2019-03-23T13:41:54Z</time>
      </trkpt>
      <trkpt lat="39.04122" lon="-0.30621">
        <time>2019-03-23T13:41:55Z</time>
      </trkpt>
      <trkpt lat="39.04134" lon="-0.30627">
        <time>2019-03-23T13:41:56Z</time>
      </trkpt>
      <trkpt lat="39.04145" lon="-0.30634">
        <time>2019-03-23T13:41:57Z</time>
      </trkpt>
      <trkpt lat="39.04155" lon="-0.30639">
        <time>2019-03-23T13:41:58Z</time>
      </trkpt>
      <trkpt lat="39.04165" lon="-0.30645">
        <time>2019-03-23T13:41:59Z</time>
      </trkpt>
      <trkpt lat="39.04176" lon="-0.3065">
        <time>2019-03-23T13:42:00Z</time>
      </trkpt>
      <trkpt lat="39.04187" lon="-0.30657">
        <time>2019-03-23T13:42:01Z</time>
      </trkpt>
      <trkpt lat="39.04198" lon="-0.30663">
        <time>2019-03-23T13:42:02Z</time>
      </trkpt>
      <trkpt lat="39.04208" lon="-0.30669">
        <time>2019-03-23T13:42:03Z</time>
      </trkpt>
      <trkpt lat="39.04216" lon="-0.30674">
        <time>2019-03-23T13:42:04Z</time>
      </trkpt>
      <trkpt lat="39.04226" lon="-0.3068">
        <time>2019-03-23T13:42:05Z</time>
      </trkpt>
      <trkpt lat="39.04233" lon="-0.30685">
        <time>2019-03-23T13:42:06Z</time>
      </trkpt>
      <trkpt lat="39.04239" lon="-0.30689">
        <time>2019-03-23T13:42:07Z</time>
      </trkpt>
      <trkpt lat="39.04245" lon="-0.30693">
        <time>2019-03-23T13:42:08Z</time>
      </trkpt>
      <trkpt lat="39.0425" lon="-0.30697">
        <time>2019-03-23T13:42:09Z</time>
      </trkpt>
      <trkpt lat="39.04256" lon="-0.30701">
        <time>2019-03-23T13:42:10Z</time>
      </trkpt>
      <trkpt lat="39.04264" lon="-0.30706">
        <time>2019-03-23T13:42:11Z</time>
      </trkpt>
      <trkpt lat="39.04272" lon="-0.3071">
        <time>2019-03-23T13:42:12Z</time>
      </trkpt>
      <trkpt lat="39.04282" lon="-0.30717">
        <time>2019-03-23T13:42:13Z</time>
      </trkpt>
      <trkpt lat="39.04293" lon="-0.30722">
        <time>2019-03-23T13:42:14Z</time>
      </trkpt>
      <trkpt lat="39.04303" lon="-0.30728">
        <time>2019-03-23T13:42:15Z</time>
      </trkpt>
      <trkpt lat="39.04313" lon="-0.30734">
        <time>2019-03-23T13:42:16Z</time>
      </trkpt>
      <trkpt lat="39.04324" lon="-0.30739">
        <time>2019-03-23T13:42:17Z</time>
      </trkpt>
      <trkpt lat="39.04336" lon="-0.30745">
        <time>2019-03-23T13:42:18Z</time>
      </trkpt>
      <trkpt lat="39.04351" lon="-0.30749">
        <time>2019-03-23T13:42:19Z</time>
      </trkpt>
      <trkpt lat="39.04364" lon="-0.30751">
        <time>2019-03-23T13:42:20Z</time>
      </trkpt>
      <trkpt lat="39.0438" lon="-0.30753">
        <time>2019-03-23T13:42:21Z</time>
      </trkpt>
      <trkpt lat="39.04391" lon="-0.30755">
        <time>2019-03-23T13:42:22Z</time>
      </trkpt>
      <trkpt lat="39.04395" lon="-0.30758">
        <time>2019-03-23T13:42:23Z</time>
      </trkpt>
      <trkpt lat="39.04402" lon="-0.30767">
        <time>2019-03-23T13:42:24Z</time>
      </trkpt>
      <trkpt lat="39.04407" lon="-0.30779">
        <time>2019-03-23T13:42:25Z</time>
      </trkpt>
      <trkpt lat="39.04413" lon="-0.30794">
        <time>2019-03-23T13:42:26Z</time>
      </trkpt>
      <trkpt lat="39.04419" lon="-0.30808">
        <time>2019-03-23T13:42:27Z</time>
      </trkpt>
      <trkpt lat="39.04427" lon="-0.30824">
        <time>2019-03-23T13:42:28Z</time>
      </trkpt>
      <trkpt lat="39.04438" lon="-0.30844">
        <time>2019-03-23T13:42:29Z</time>
      </trkpt>
      <trkpt lat="39.04449" lon="-0.30865">
        <time>2019-03-23T13:42:30Z</time>
      </trkpt>
      <trkpt lat="39.04461" lon="-0.30887">
        <time>2019-03-23T13:42:31Z</time>
      </trkpt>
      <trkpt lat="39.04473" lon="-0.30911">
        <time>2019-03-23T13:42:32Z</time>
      </trkpt>
      <trkpt lat="39.04486" lon="-0.30934">
        <time>2019-03-23T13:42:33Z</time>
      </trkpt>
      <trkpt lat="39.045" lon="-0.30958">
        <time>2019-03-23T13:42:34Z</time>
      </trkpt>
      <trkpt lat="39.04514" lon="-0.30982">
        <time>2019-03-23T13:42:35Z</time>
      </trkpt>
      <trkpt lat="39.04527" lon="-0.31004">
        <time>2019-03-23T13:42:36Z</time>
      </trkpt>
      <trkpt lat="39.04541" lon="-0.31031">
        <time>2019-03-23T13:42:37Z</time>
      </trkpt>
      <trkpt lat="39.04553" lon="-0.31056">
        <time>2019-03-23T13:42:38Z</time>
      </trkpt>
      <trkpt lat="39.04566" lon="-0.3108">
        <time>2019-03-23T13:42:39Z</time>
      </trkpt>
      <trkpt lat="39.04581" lon="-0.31105">
        <time>2019-03-23T13:42:40Z</time>
      </trkpt>
      <trkpt lat="39.04594" lon="-0.31128">
        <time>2019-03-23T13:42:41Z</time>
      </trkpt>
      <trkpt lat="39.04609" lon="-0.31155">
        <time>2019-03-23T13:42:42Z</time>
      </trkpt>
      <trkpt lat="39.04623" lon="-0.31179">
        <time>2019-03-23T13:42:43Z</time>
      </trkpt>
      <trkpt lat="39.04636" lon="-0.31203">
        <time>2019-03-23T13:42:44Z</time>
      </trkpt>
      <trkpt lat="39.04652" lon="-0.31229">
        <time>2019-03-23T13:42:45Z</time>
      </trkpt>
      <trkpt lat="39.04667" lon="-0.31254">
        <time>2019-03-23T13:42:46Z</time>
      </trkpt>
      <trkpt lat="39.04678" lon="-0.31277">
        <time>2019-03-23T13:42:47Z</time>
      </trkpt>
      <trkpt lat="39.04692" lon="-0.31301">
        <time>2019-03-23T13:42:48Z</time>
      </trkpt>
      <trkpt lat="39.04705" lon="-0.31324">
        <time>2019-03-23T13:42:49Z</time>
      </trkpt>
      <trkpt lat="39.04718" lon="-0.31346">
        <time>2019-03-23T13:42:50Z</time>
      </trkpt>
      <trkpt lat="39.04733" lon="-0.31366">
        <time>2019-03-23T13:42:51Z</time>
      </trkpt>
      <trkpt lat="39.04748" lon="-0.31383">
        <time>2019-03-23T13:42:52Z</time>
      </trkpt>
      <trkpt lat="39.04767" lon="-0.31401">
        <time>2019-03-23T13:42:53Z</time>
      </trkpt>
      <trkpt lat="39.04784" lon="-0.31417">
        <time>2019-03-23T13:42:54Z</time>
      </trkpt>
      <trkpt lat="39.04799" lon="-0.3143">
        <time>2019-03-23T13:42:55Z</time>
      </trkpt>
      <trkpt lat="39.04814" lon="-0.31445">
        <time>2019-03-23T13:42:56Z</time>
      </trkpt>
      <trkpt lat="39.04826" lon="-0.31457">
        <time>2019-03-23T13:42:57Z</time>
      </trkpt>
      <trkpt lat="39.0484" lon="-0.31471">
        <time>2019-03-23T13:42:58Z</time>
      </trkpt>
      <trkpt lat="39.0486" lon="-0.31484">
        <time>2019-03-23T13:42:59Z</time>
      </trkpt>
      <trkpt lat="39.04873" lon="-0.31493">
        <time>2019-03-23T13:43:00Z</time>
      </trkpt>
      <trkpt lat="39.04889" lon="-0.31501">
        <time>2019-03-23T13:43:01Z</time>
      </trkpt>
      <trkpt lat="39.04905" lon="-0.31506">
        <time>2019-03-23T13:43:02Z</time>
      </trkpt>
      <trkpt lat="39.04923" lon="-0.3151">
        <time>2019-03-23T13:43:03Z</time>
      </trkpt>
      <trkpt lat="39.04942" lon="-0.31514">
        <time>2019-03-23T13:43:04Z</time>
      </trkpt>
      <trkpt lat="39.04963" lon="-0.31516">
        <time>2019-03-23T13:43:05Z</time>
      </trkpt>
      <trkpt lat="39.04982" lon="-0.31516">
        <time>2019-03-23T13:43:06Z</time>
      </trkpt>
      <trkpt lat="39.05004" lon="-0.31513">
        <time>2019-03-23T13:43:07Z</time>
      </trkpt>
      <trkpt lat="39.05025" lon="-0.31508">
        <time>2019-03-23T13:43:08Z</time>
      </trkpt>
      <trkpt lat="39.05049" lon="-0.31504">
        <time>2019-03-23T13:43:09Z</time>
      </trkpt>
      <trkpt lat="39.05073" lon="-0.31499">
        <time>2019-03-23T13:43:10Z</time>
      </trkpt>
      <trkpt lat="39.05096" lon="-0.31495">
        <time>2019-03-23T13:43:11Z</time>
      </trkpt>
      <trkpt lat="39.05119" lon="-0.31491">
        <time>2019-03-23T13:43:12Z</time>
      </trkpt>
      <trkpt lat="39.05141" lon="-0.31486">
        <time>2019-03-23T13:43:13Z</time>
      </trkpt>
      <trkpt lat="39.05167" lon="-0.31482">
        <time>2019-03-23T13:43:14Z</time>
      </trkpt>
      <trkpt lat="39.05197" lon="-0.31476">
        <time>2019-03-23T13:43:15Z</time>
      </trkpt>
      <trkpt lat="39.05223" lon="-0.31469">
        <time>2019-03-23T13:43:16Z</time>
      </trkpt>
      <trkpt lat="39.05256" lon="-0.31461">
        <time>2019-03-23T13:43:17Z</time>
      </trkpt>
      <trkpt lat="39.05288" lon="-0.31455">
        <time>2019-03-23T13:43:18Z</time>
      </trkpt>
      <trkpt lat="39.05318" lon="-0.3145">
        <time>2019-03-23T13:43:19Z</time>
      </trkpt>
      <trkpt lat="39.05347" lon="-0.31445">
        <time>2019-03-23T13:43:20Z</time>
      </trkpt>
      <trkpt lat="39.05374" lon="-0.31441">
        <time>2019-03-23T13:43:21Z</time>
      </trkpt>
      <trkpt lat="39.05397" lon="-0.31436">
        <time>2019-03-23T13:43:22Z</time>
      </trkpt>
      <trkpt lat="39.05424" lon="-0.31432">
        <time>2019-03-23T13:43:23Z</time>
      </trkpt>
      <trkpt lat="39.05454" lon="-0.31427">
        <time>2019-03-23T13:43:24Z</time>
      </trkpt>
      <trkpt lat="39.05483" lon="-0.31421">
        <time>2019-03-23T13:43:25Z</time>
      </trkpt>
      <trkpt lat="39.05513" lon="-0.31416">
        <time>2019-03-23T13:43:26Z</time>
      </trkpt>
      <trkpt lat="39.05542" lon="-0.3141">
        <time>2019-03-23T13:43:27Z</time>
      </trkpt>
      <trkpt lat="39.05571" lon="-0.31405">
        <time>2019-03-23T13:43:28Z</time>
      </trkpt>
      <trkpt lat="39.056" lon="-0.31399">
        <time>2019-03-23T13:43:29Z</time>
      </trkpt>
      <trkpt lat="39.05629" lon="-0.31394">
        <time>2019-03-23T13:43:30Z</time>
      </trkpt>
      <trkpt lat="39.05658" lon="-0.31389">
        <time>2019-03-23T13:43:31Z</time>
      </trkpt>
      <trkpt lat="39.05687" lon="-0.31384">
        <time>2019-03-23T13:43:32Z</time>
      </trkpt>
      <trkpt lat="39.05716" lon="-0.31378">
        <time>2019-03-23T13:43:33Z</time>
      </trkpt>
      <trkpt lat="39.05745" lon="-0.31373">
        <time>2019-03-23T13:43:34Z</time>
      </trkpt>
      <trkpt lat="39.05774" lon="-0.31368">
        <time>2019-03-23T13:43:35Z</time>
      </trkpt>
      <trkpt lat="39.05803" lon="-0.31363">
        <time>2019-03-23T13:43:36Z</time>
      </trkpt>
      <trkpt lat="39.05832" lon="-0.31358">
        <time>2019-03-23T13:43:37Z</time>
      </trkpt>
      <trkpt lat="39.05862" lon="-0.31353">
        <time>2019-03-23T13:43:38Z</time>
      </trkpt>
      <trkpt lat="39.05891" lon="-0.31346">
        <time>2019-03-23T13:43:39Z</time>
      </trkpt>
      <trkpt lat="39.05921" lon="-0.31341">
        <time>2019-03-23T13:43:40Z</time>
      </trkpt>
      <trkpt lat="39.05949" lon="-0.31335">
        <time>2019-03-23T13:43:41Z</time>
      </trkpt>
      <trkpt lat="39.05979" lon="-0.3133">
        <time>2019-03-23T13:43:42Z</time>
      </trkpt>
      <trkpt lat="39.06008" lon="-0.31325">
        <time>2019-03-23T13:43:43Z</time>
      </trkpt>
      <trkpt lat="39.06037" lon="-0.3132">
        <time>2019-03-23T13:43:44Z</time>
      </trkpt>
      <trkpt lat="39.06066" lon="-0.31315">
        <time>2019-03-23T13:43:45Z</time>
      </trkpt>
      <trkpt lat="39.06095" lon="-0.3131">
        <time>2019-03-23T13:43:46Z</time>
      </trkpt>
      <trkpt lat="39.06124" lon="-0.31305">
        <time>2019-03-23T13:43:47Z</time>
      </trkpt>
      <trkpt lat="39.06153" lon="-0.31299">
        <time>2019-03-23T13:43:48Z</time>
      </trkpt>
      <trkpt lat="39.06181" lon="-0.31294">
        <time>2019-03-23T13:43:49Z</time>
      </trkpt>
      <trkpt lat="39.06209" lon="-0.31288">
        <time>2019-03-23T13:43:50Z</time>
      </trkpt>
      <trkpt lat="39.06237" lon="-0.31283">
        <time>2019-03-23T13:43:51Z</time>
      </trkpt>
      <trkpt lat="39.06265" lon="-0.31278">
        <time>2019-03-23T13:43:52Z</time>
      </trkpt>
      <trkpt lat="39.06293" lon="-0.31273">
        <time>2019-03-23T13:43:53Z</time>
      </trkpt>
      <trkpt lat="39.06321" lon="-0.31268">
        <time>2019-03-23T13:43:54Z</time>
      </trkpt>
      <trkpt lat="39.06348" lon="-0.31263">
        <time>2019-03-23T13:43:55Z</time>
      </trkpt>
      <trkpt lat="39.06375" lon="-0.31258">
        <time>2019-03-23T13:43:56Z</time>
      </trkpt>
      <trkpt lat="39.064" lon="-0.31253">
        <time>2019-03-23T13:43:57Z</time>
      </trkpt>
      <trkpt lat="39.06425" lon="-0.31249">
        <time>2019-03-23T13:43:58Z</time>
      </trkpt>
      <trkpt lat="39.06449" lon="-0.31244">
        <time>2019-03-23T13:43:59Z</time>
      </trkpt>
      <trkpt lat="39.06472" lon="-0.3124">
        <time>2019-03-23T13:44:00Z</time>
      </trkpt>
      <trkpt lat="39.06488" lon="-0.31238">
        <time>2019-03-23T13:44:01Z</time>
      </trkpt>
      <trkpt lat="39.06513" lon="-0.31233">
        <time>2019-03-23T13:44:02Z</time>
      </trkpt>
      <trkpt lat="39.06532" lon="-0.3123">
        <time>2019-03-23T13:44:03Z</time>
      </trkpt>
      <trkpt lat="39.06549" lon="-0.31227">
        <time>2019-03-23T13:44:04Z</time>
      </trkpt>
      <trkpt lat="39.06565" lon="-0.3122">
        <time>2019-03-23T13:44:05Z</time>
      </trkpt>
      <trkpt lat="39.06577" lon="-0.3121">
        <time>2019-03-23T13:44:06Z</time>
      </trkpt>
      <trkpt lat="39.06587" lon="-0.31199">
        <time>2019-03-23T13:44:07Z</time>
      </trkpt>
      <trkpt lat="39.0659" lon="-0.31185">
        <time>2019-03-23T13:44:08Z</time>
      </trkpt>
      <trkpt lat="39.06599" lon="-0.31177">
        <time>2019-03-23T13:44:09Z</time>
      </trkpt>
      <trkpt lat="39.06599" lon="-0.31166">
        <time>2019-03-23T13:44:10Z</time>
      </trkpt>
      <trkpt lat="39.06597" lon="-0.31154">
        <time>2019-03-23T13:44:11Z</time>
      </trkpt>
      <trkpt lat="39.06594" lon="-0.31141">
        <time>2019-03-23T13:44:12Z</time>
      </trkpt>
      <trkpt lat="39.06594" lon="-0.31126">
        <time>2019-03-23T13:44:13Z</time>
      </trkpt>
      <trkpt lat="39.06597" lon="-0.31112">
        <time>2019-03-23T13:44:14Z</time>
      </trkpt>
      <trkpt lat="39.06604" lon="-0.31096">
        <time>2019-03-23T13:44:15Z</time>
      </trkpt>
      <trkpt lat="39.06614" lon="-0.31084">
        <time>2019-03-23T13:44:16Z</time>
      </trkpt>
      <trkpt lat="39.06623" lon="-0.31074">
        <time>2019-03-23T13:44:17Z</time>
      </trkpt>
      <trkpt lat="39.06623" lon="-0.31065">
        <time>2019-03-23T13:44:18Z</time>
      </trkpt>
      <trkpt lat="39.06625" lon="-0.31051">
        <time>2019-03-23T13:44:19Z</time>
      </trkpt>
      <trkpt lat="39.06623" lon="-0.31038">
        <time>2019-03-23T13:44:20Z</time>
      </trkpt>
      <trkpt lat="39.0662" lon="-0.31022">
        <time>2019-03-23T13:44:21Z</time>
      </trkpt>
      <trkpt lat="39.06616" lon="-0.31007">
        <time>2019-03-23T13:44:22Z</time>
      </trkpt>
      <trkpt lat="39.06613" lon="-0.30994">
        <time>2019-03-23T13:44:23Z</time>
      </trkpt>
      <trkpt lat="39.06609" lon="-0.30978">
        <time>2019-03-23T13:44:24Z</time>
      </trkpt>
      <trkpt lat="39.06605" lon="-0.30962">
        <time>2019-03-23T13:44:25Z</time>
      </trkpt>
      <trkpt lat="39.06601" lon="-0.30947">
        <time>2019-03-23T13:44:26Z</time>
      </trkpt>
      <trkpt lat="39.06598" lon="-0.30931">
        <time>2019-03-23T13:44:27Z</time>
      </trkpt>
      <trkpt lat="39.06595" lon="-0.30916">
        <time>2019-03-23T13:44:28Z</time>
      </trkpt>
      <trkpt lat="39.06594" lon="-0.30899">
        <time>2019-03-23T13:44:29Z</time>
      </trkpt>
      <trkpt lat="39.06595" lon="-0.30882">
        <time>2019-03-23T13:44:30Z</time>
      </trkpt>
      <trkpt lat="39.06595" lon="-0.30865">
        <time>2019-03-23T13:44:31Z</time>
      </trkpt>
      <trkpt lat="39.06596" lon="-0.30847">
        <time>2019-03-23T13:44:32Z</time>
      </trkpt>
      <trkpt lat="39.06597" lon="-0.3083">
        <time>2019-03-23T13:44:33Z</time>
      </trkpt>
      <trkpt lat="39.06599" lon="-0.30809">
        <time>2019-03-23T13:44:34Z</time>
      </trkpt>
      <trkpt lat="39.06601" lon="-0.3079">
        <time>2019-03-23T13:44:35Z</time>
      </trkpt>
      <trkpt lat="39.06602" lon="-0.30771">
        <time>2019-03-23T13:44:36Z</time>
      </trkpt>
      <trkpt lat="39.06604" lon="-0.30748">
        <time>2019-03-23T13:44:37Z</time>
      </trkpt>
      <trkpt lat="39.06606" lon="-0.30728">
        <time>2019-03-23T13:44:38Z</time>
      </trkpt>
      <trkpt lat="39.06607" lon="-0.30709">
        <time>2019-03-23T13:44:39Z</time>
      </trkpt>
      <trkpt lat="39.06609" lon="-0.30684">
        <time>2019-03-23T13:44:40Z</time>
      </trkpt>
      <trkpt lat="39.06611" lon="-0.3066">
        <time>2019-03-23T13:44:41Z</time>
      </trkpt>
      <trkpt lat="39.06614" lon="-0.30637">
        <time>2019-03-23T13:44:42Z</time>
      </trkpt>
      <trkpt lat="39.06615" lon="-0.30613">
        <time>2019-03-23T13:44:43Z</time>
      </trkpt>
      <trkpt lat="39.06617" lon="-0.3059">
        <time>2019-03-23T13:44:44Z</time>
      </trkpt>
      <trkpt lat="39.0662" lon="-0.30563">
        <time>2019-03-23T13:44:45Z</time>
      </trkpt>
      <trkpt lat="39.06622" lon="-0.30537">
        <time>2019-03-23T13:44:46Z</time>
      </trkpt>
      <trkpt lat="39.06624" lon="-0.30512">
        <time>2019-03-23T13:44:47Z</time>
      </trkpt>
      <trkpt lat="39.06627" lon="-0.30483">
        <time>2019-03-23T13:44:48Z</time>
      </trkpt>
      <trkpt lat="39.06629" lon="-0.30457">
        <time>2019-03-23T13:44:49Z</time>
      </trkpt>
      <trkpt lat="39.06631" lon="-0.30426">
        <time>2019-03-23T13:44:50Z</time>
      </trkpt>
      <trkpt lat="39.06632" lon="-0.30393">
        <time>2019-03-23T13:44:51Z</time>
      </trkpt>
      <trkpt lat="39.06631" lon="-0.30359">
        <time>2019-03-23T13:44:52Z</time>
      </trkpt>
      <trkpt lat="39.06628" lon="-0.3033">
        <time>2019-03-23T13:44:53Z</time>
      </trkpt>
      <trkpt lat="39.06624" lon="-0.30291">
        <time>2019-03-23T13:44:54Z</time>
      </trkpt>
      <trkpt lat="39.06619" lon="-0.30248">
        <time>2019-03-23T13:44:55Z</time>
      </trkpt>
      <trkpt lat="39.06613" lon="-0.30202">
        <time>2019-03-23T13:44:56Z</time>
      </trkpt>
      <trkpt lat="39.06607" lon="-0.30155">
        <time>2019-03-23T13:44:57Z</time>
      </trkpt>
      <trkpt lat="39.066" lon="-0.30109">
        <time>2019-03-23T13:44:58Z</time>
      </trkpt>
      <trkpt lat="39.06593" lon="-0.30065">
        <time>2019-03-23T13:44:59Z</time>
      </trkpt>
      <trkpt lat="39.06588" lon="-0.30022">
        <time>2019-03-23T13:45:00Z</time>
      </trkpt>
      <trkpt lat="39.06582" lon="-0.2998">
        <time>2019-03-23T13:45:01Z</time>
      </trkpt>
      <trkpt lat="39.06577" lon="-0.2994">
        <time>2019-03-23T13:45:02Z</time>
      </trkpt>
      <trkpt lat="39.06572" lon="-0.29902">
        <time>2019-03-23T13:45:03Z</time>
      </trkpt>
      <trkpt lat="39.06568" lon="-0.29865">
        <time>2019-03-23T13:45:04Z</time>
      </trkpt>
      <trkpt lat="39.06564" lon="-0.29829">
        <time>2019-03-23T13:45:05Z</time>
      </trkpt>
      <trkpt lat="39.0656" lon="-0.29795">
        <time>2019-03-23T13:45:06Z</time>
      </trkpt>
      <trkpt lat="39.06556" lon="-0.29761">
        <time>2019-03-23T13:45:07Z</time>
      </trkpt>
      <trkpt lat="39.06552" lon="-0.29727">
        <time>2019-03-23T13:45:08Z</time>
      </trkpt>
      <trkpt lat="39.06548" lon="-0.29694">
        <time>2019-03-23T13:45:09Z</time>
      </trkpt>
      <trkpt lat="39.06544" lon="-0.29661">
        <time>2019-03-23T13:45:10Z</time>
      </trkpt>
      <trkpt lat="39.0654" lon="-0.29628">
        <time>2019-03-23T13:45:11Z</time>
      </trkpt>
      <trkpt lat="39.06536" lon="-0.29595">
        <time>2019-03-23T13:45:12Z</time>
      </trkpt>
      <trkpt lat="39.06532" lon="-0.29563">
        <time>2019-03-23T13:45:13Z</time>
      </trkpt>
      <trkpt lat="39.06528" lon="-0.2953">
        <time>2019-03-23T13:45:14Z</time>
      </trkpt>
      <trkpt lat="39.06524" lon="-0.29498">
        <time>2019-03-23T13:45:15Z</time>
      </trkpt>
      <trkpt lat="39.0652" lon="-0.29465">
        <time>2019-03-23T13:45:16Z</time>
      </trkpt>
      <trkpt lat="39.06516" lon="-0.29432">
        <time>2019-03-23T13:45:17Z</time>
      </trkpt>
      <trkpt lat="39.06512" lon="-0.29399">
        <time>2019-03-23T13:45:18Z</time>
      </trkpt>
      <trkpt lat="39.06508" lon="-0.29366">
        <time>2019-03-23T13:45:19Z</time>
      </trkpt>
      <trkpt lat="39.06504" lon="-0.29333">
        <time>2019-03-23T13:45:20Z</time>
      </trkpt>
      <trkpt lat="39.06499" lon="-0.293">
        <time>2019-03-23T13:45:21Z</time>
      </trkpt>
      <trkpt lat="39.06495" lon="-0.29267">
        <time>2019-03-23T13:45:22Z</time>
      </trkpt>
      <trkpt lat="39.06491" lon="-0.29233">
        <time>2019-03-23T13:45:23Z</time>
      </trkpt>
      <trkpt lat="39.06487" lon="-0.292">
        <time>2019-03-23T13:45:24Z</time>
      </trkpt>
      <trkpt lat="39.06483" lon="-0.29167">
        <time>2019-03-23T13:45:25Z</time>
      </trkpt>
      <trkpt lat="39.06479" lon="-0.29133">
        <time>2019-03-23T13:45:26Z</time>
      </trkpt>
      <trkpt lat="39.06475" lon="-0.29099">
        <time>2019-03-23T13:45:27Z</time>
      </trkpt>
      <trkpt lat="39.06471" lon="-0.29066">
        <time>2019-03-23T13:45:28Z</time>
      </trkpt>
      <trkpt lat="39.06466" lon="-0.29032">
        <time>2019-03-23T13:45:29Z</time>
      </trkpt>
      <trkpt lat="39.06464" lon="-0.28998">
        <time>2019-03-23T13:45:30Z</time>
      </trkpt>
      <trkpt lat="39.06463" lon="-0.28964">
        <time>2019-03-23T13:45:31Z</time>
      </trkpt>
      <trkpt lat="39.06463" lon="-0.2893">
        <time>2019-03-23T13:45:32Z</time>
      </trkpt>
      <trkpt lat="39.06463" lon="-0.28896">
        <time>2019-03-23T13:45:33Z</time>
      </trkpt>
      <trkpt lat="39.06464" lon="-0.28863">
        <time>2019-03-23T13:45:34Z</time>
      </trkpt>
      <trkpt lat="39.06464" lon="-0.28829">
        <time>2019-03-23T13:45:35Z</time>
      </trkpt>
      <trkpt lat="39.06465" lon="-0.28796">
        <time>2019-03-23T13:45:36Z</time>
      </trkpt>
      <trkpt lat="39.06466" lon="-0.28763">
        <time>2019-03-23T13:45:37Z</time>
      </trkpt>
      <trkpt lat="39.06466" lon="-0.2873">
        <time>2019-03-23T13:45:38Z</time>
      </trkpt>
      <trkpt lat="39.06467" lon="-0.28697">
        <time>2019-03-23T13:45:39Z</time>
      </trkpt>
      <trkpt lat="39.06467" lon="-0.28663">
        <time>2019-03-23T13:45:40Z</time>
      </trkpt>
      <trkpt lat="39.06467" lon="-0.2863">
        <time>2019-03-23T13:45:41Z</time>
      </trkpt>
      <trkpt lat="39.06468" lon="-0.28596">
        <time>2019-03-23T13:45:42Z</time>
      </trkpt>
      <trkpt lat="39.06469" lon="-0.28563">
        <time>2019-03-23T13:45:43Z</time>
      </trkpt>
      <trkpt lat="39.0647" lon="-0.28529">
        <time>2019-03-23T13:45:44Z</time>
      </trkpt>
      <trkpt lat="39.0647" lon="-0.28496">
        <time>2019-03-23T13:45:45Z</time>
      </trkpt>
      <trkpt lat="39.06472" lon="-0.28462">
        <time>2019-03-23T13:45:46Z</time>
      </trkpt>
      <trkpt lat="39.06476" lon="-0.28428">
        <time>2019-03-23T13:45:47Z</time>
      </trkpt>
      <trkpt lat="39.0648" lon="-0.28395">
        <time>2019-03-23T13:45:48Z</time>
      </trkpt>
      <trkpt lat="39.06484" lon="-0.28362">
        <time>2019-03-23T13:45:49Z</time>
      </trkpt>
      <trkpt lat="39.06489" lon="-0.28329">
        <time>2019-03-23T13:45:50Z</time>
      </trkpt>
      <trkpt lat="39.06493" lon="-0.28296">
        <time>2019-03-23T13:45:51Z</time>
      </trkpt>
      <trkpt lat="39.06498" lon="-0.28263">
        <time>2019-03-23T13:45:52Z</time>
      </trkpt>
      <trkpt lat="39.06502" lon="-0.2823">
        <time>2019-03-23T13:45:53Z</time>
      </trkpt>
      <trkpt lat="39.06507" lon="-0.28196">
        <time>2019-03-23T13:45:54Z</time>
      </trkpt>
      <trkpt lat="39.06511" lon="-0.28162">
        <time>2019-03-23T13:45:55Z</time>
      </trkpt>
      <trkpt lat="39.06516" lon="-0.28128">
        <time>2019-03-23T13:45:56Z</time>
      </trkpt>
      <trkpt lat="39.0652" lon="-0.28095">
        <time>2019-03-23T13:45:57Z</time>
      </trkpt>
      <trkpt lat="39.06525" lon="-0.28061">
        <time>2019-03-23T13:45:58Z</time>
      </trkpt>
      <trkpt lat="39.06529" lon="-0.28028">
        <time>2019-03-23T13:45:59Z</time>
      </trkpt>
      <trkpt lat="39.06534" lon="-0.27995">
        <time>2019-03-23T13:46:00Z</time>
      </trkpt>
      <trkpt lat="39.06538" lon="-0.27963">
        <time>2019-03-23T13:46:01Z</time>
      </trkpt>
      <trkpt lat="39.06543" lon="-0.27932">
        <time>2019-03-23T13:46:02Z</time>
      </trkpt>
      <trkpt lat="39.06547" lon="-0.27902">
        <time>2019-03-23T13:46:03Z</time>
      </trkpt>
      <trkpt lat="39.06552" lon="-0.27871">
        <time>2019-03-23T13:46:04Z</time>
      </trkpt>
      <trkpt lat="39.06557" lon="-0.2784">
        <time>2019-03-23T13:46:05Z</time>
      </trkpt>
      <trkpt lat="39.06561" lon="-0.27809">
        <time>2019-03-23T13:46:06Z</time>
      </trkpt>
      <trkpt lat="39.06566" lon="-0.27778">
        <time>2019-03-23T13:46:07Z</time>
      </trkpt>
      <trkpt lat="39.0657" lon="-0.27749">
        <time>2019-03-23T13:46:08Z</time>
      </trkpt>
      <trkpt lat="39.06575" lon="-0.27721">
        <time>2019-03-23T13:46:09Z</time>
      </trkpt>
      <trkpt lat="39.06583" lon="-0.27694">
        <time>2019-03-23T13:46:10Z</time>
      </trkpt>
      <trkpt lat="39.06594" lon="-0.27668">
        <time>2019-03-23T13:46:11Z</time>
      </trkpt>
      <trkpt lat="39.0661" lon="-0.27646">
        <time>2019-03-23T13:46:12Z</time>
      </trkpt>
      <trkpt lat="39.06626" lon="-0.27626">
        <time>2019-03-23T13:46:13Z</time>
      </trkpt>
      <trkpt lat="39.06643" lon="-0.27606">
        <time>2019-03-23T13:46:14Z</time>
      </trkpt>
      <trkpt lat="39.06659" lon="-0.27588">
        <time>2019-03-23T13:46:15Z</time>
      </trkpt>
      <trkpt lat="39.06676" lon="-0.27571">
        <time>2019-03-23T13:46:16Z</time>
      </trkpt>
      <trkpt lat="39.06691" lon="-0.27553">
        <time>2019-03-23T13:46:17Z</time>
      </trkpt>
      <trkpt lat="39.06706" lon="-0.27537">
        <time>2019-03-23T13:46:18Z</time>
      </trkpt>
      <trkpt lat="39.0672" lon="-0.27522">
        <time>2019-03-23T13:46:19Z</time>
      </trkpt>
      <trkpt lat="39.06733" lon="-0.27507">
        <time>2019-03-23T13:46:20Z</time>
      </trkpt>
      <trkpt lat="39.06746" lon="-0.27493">
        <time>2019-03-23T13:46:21Z</time>
      </trkpt>
      <trkpt lat="39.06758" lon="-0.2748">
        <time>2019-03-23T13:46:22Z</time>
      </trkpt>
      <trkpt lat="39.06769" lon="-0.27468">
        <time>2019-03-23T13:46:23Z</time>
      </trkpt>
      <trkpt lat="39.0678" lon="-0.27456">
        <time>2019-03-23T13:46:24Z</time>
      </trkpt>
      <trkpt lat="39.0679" lon="-0.27444">
        <time>2019-03-23T13:46:25Z</time>
      </trkpt>
      <trkpt lat="39.068" lon="-0.27433">
        <time>2019-03-23T13:46:26Z</time>
      </trkpt>
      <trkpt lat="39.0681" lon="-0.27423">
        <time>2019-03-23T13:46:27Z</time>
      </trkpt>
      <trkpt lat="39.06819" lon="-0.27412">
        <time>2019-03-23T13:46:28Z</time>
      </trkpt>
      <trkpt lat="39.06827" lon="-0.27402">
        <time>2019-03-23T13:46:29Z</time>
      </trkpt>
      <trkpt lat="39.06836" lon="-0.27393">
        <time>2019-03-23T13:46:30Z</time>
      </trkpt>
      <trkpt lat="39.06844" lon="-0.27383">
        <time>2019-03-23T13:46:31Z</time>
      </trkpt>
      <trkpt lat="39.06852" lon="-0.27373">
        <time>2019-03-23T13:46:32Z</time>
      </trkpt>
      <trkpt lat="39.0686" lon="-0.27362">
        <time>2019-03-23T13:46:33Z</time>
      </trkpt>
      <trkpt lat="39.06868" lon="-0.2735">
        <time>2019-03-23T13:46:34Z</time>
      </trkpt>
      <trkpt lat="39.06876" lon="-0.27338">
        <time>2019-03-23T13:46:35Z</time>
      </trkpt>
      <trkpt lat="39.06882" lon="-0.27325">
        <time>2019-03-23T13:46:36Z</time>
      </trkpt>
      <trkpt lat="39.06888" lon="-0.27312">
        <time>2019-03-23T13:46:37Z</time>
      </trkpt>
      <trkpt lat="39.06893" lon="-0.27298">
        <time>2019-03-23T13:46:38Z</time>
      </trkpt>
      <trkpt lat="39.06899" lon="-0.27283">
        <time>2019-03-23T13:46:39Z</time>
      </trkpt>
      <trkpt lat="39.06904" lon="-0.27269">
        <time>2019-03-23T13:46:40Z</time>
      </trkpt>
      <trkpt lat="39.06908" lon="-0.27256">
        <time>2019-03-23T13:46:41Z</time>
      </trkpt>
      <trkpt lat="39.06912" lon="-0.27244">
        <time>2019-03-23T13:46:42Z</time>
      </trkpt>
      <trkpt lat="39.06915" lon="-0.27235">
        <time>2019-03-23T13:46:43Z</time>
      </trkpt>
      <trkpt lat="39.06917" lon="-0.27227">
        <time>2019-03-23T13:46:44Z</time>
      </trkpt>
      <trkpt lat="39.06918" lon="-0.27222">
        <time>2019-03-23T13:46:45Z</time>
      </trkpt>
      <trkpt lat="39.06919" lon="-0.27216">
        <time>2019-03-23T13:46:46Z</time>
      </trkpt>
      <trkpt lat="39.06921" lon="-0.2721">
        <time>2019-03-23T13:46:47Z</time>
      </trkpt>
      <trkpt lat="39.06923" lon="-0.27203">
        <time>2019-03-23T13:46:48Z</time>
      </trkpt>
      <trkpt lat="39.06926" lon="-0.27196">
        <time>2019-03-23T13:46:49Z</time>
      </trkpt>
      <trkpt lat="39.06929" lon="-0.27187">
        <time>2019-03-23T13:46:50Z</time>
      </trkpt>
      <trkpt lat="39.06931" lon="-0.27176">
        <time>2019-03-23T13:46:51Z</time>
      </trkpt>
      <trkpt lat="39.06933" lon="-0.27166">
        <time>2019-03-23T13:46:52Z</time>
      </trkpt>
      <trkpt lat="39.06934" lon="-0.27154">
        <time>2019-03-23T13:46:53Z</time>
      </trkpt>
      <trkpt lat="39.06934" lon="-0.2714">
        <time>2019-03-23T13:46:54Z</time>
      </trkpt>
      <trkpt lat="39.06934" lon="-0.27127">
        <time>2019-03-23T13:46:55Z</time>
      </trkpt>
      <trkpt lat="39.06933" lon="-0.27112">
        <time>2019-03-23T13:46:56Z</time>
      </trkpt>
      <trkpt lat="39.06933" lon="-0.27096">
        <time>2019-03-23T13:46:57Z</time>
      </trkpt>
      <trkpt lat="39.06932" lon="-0.2708">
        <time>2019-03-23T13:46:58Z</time>
      </trkpt>
      <trkpt lat="39.06932" lon="-0.27062">
        <time>2019-03-23T13:46:59Z</time>
      </trkpt>
      <trkpt lat="39.06932" lon="-0.27044">
        <time>2019-03-23T13:47:00Z</time>
      </trkpt>
      <trkpt lat="39.06931" lon="-0.27026">
        <time>2019-03-23T13:47:01Z</time>
      </trkpt>
      <trkpt lat="39.06931" lon="-0.2701">
        <time>2019-03-23T13:47:02Z</time>
      </trkpt>
      <trkpt lat="39.06931" lon="-0.26994">
        <time>2019-03-23T13:47:03Z</time>
      </trkpt>
      <trkpt lat="39.06931" lon="-0.26978">
        <time>2019-03-23T13:47:04Z</time>
      </trkpt>
      <trkpt lat="39.06931" lon="-0.26963">
        <time>2019-03-23T13:47:05Z</time>
      </trkpt>
      <trkpt lat="39.06931" lon="-0.26947">
        <time>2019-03-23T13:47:06Z</time>
      </trkpt>
      <trkpt lat="39.06931" lon="-0.26931">
        <time>2019-03-23T13:47:07Z</time>
      </trkpt>
      <trkpt lat="39.06931" lon="-0.26915">
        <time>2019-03-23T13:47:08Z</time>
      </trkpt>
      <trkpt lat="39.06931" lon="-0.26899">
        <time>2019-03-23T13:47:09Z</time>
      </trkpt>
      <trkpt lat="39.06932" lon="-0.26883">
        <time>2019-03-23T13:47:10Z</time>
      </trkpt>
      <trkpt lat="39.06932" lon="-0.26868">
        <time>2019-03-23T13:47:11Z</time>
      </trkpt>
      <trkpt lat="39.06931" lon="-0.26854">
        <time>2019-03-23T13:47:12Z</time>
      </trkpt>
      <trkpt lat="39.06932" lon="-0.26841">
        <time>2019-03-23T13:47:13Z</time>
      </trkpt>
      <trkpt lat="39.06934" lon="-0.2683">
        <time>2019-03-23T13:47:14Z</time>
      </trkpt>
      <trkpt lat="39.06938" lon="-0.26819">
        <time>2019-03-23T13:47:15Z</time>
      </trkpt>
      <trkpt lat="39.06944" lon="-0.26808">
        <time>2019-03-23T13:47:16Z</time>
      </trkpt>
      <trkpt lat="39.06949" lon="-0.26796">
        <time>2019-03-23T13:47:17Z</time>
      </trkpt>
      <trkpt lat="39.06955" lon="-0.26784">
        <time>2019-03-23T13:47:18Z</time>
      </trkpt>
      <trkpt lat="39.06962" lon="-0.26771">
        <time>2019-03-23T13:47:19Z</time>
      </trkpt>
      <trkpt lat="39.0697" lon="-0.26759">
        <time>2019-03-23T13:47:20Z</time>
      </trkpt>
      <trkpt lat="39.06977" lon="-0.26747">
        <time>2019-03-23T13:47:21Z</time>
      </trkpt>
      <trkpt lat="39.06985" lon="-0.26735">
        <time>2019-03-23T13:47:22Z</time>
      </trkpt>
      <trkpt lat="39.06993" lon="-0.26724">
        <time>2019-03-23T13:47:23Z</time>
      </trkpt>
      <trkpt lat="39.07001" lon="-0.26713">
        <time>2019-03-23T13:47:24Z</time>
      </trkpt>
      <trkpt lat="39.07009" lon="-0.26701">
        <time>2019-03-23T13:47:25Z</time>
      </trkpt>
      <trkpt lat="39.07017" lon="-0.26688">
        <time>2019-03-23T13:47:26Z</time>
      </trkpt>
      <trkpt lat="39.07026" lon="-0.26676">
        <time>2019-03-23T13:47:27Z</time>
      </trkpt>
      <trkpt lat="39.07034" lon="-0.26665">
        <time>2019-03-23T13:47:28Z</time>
      </trkpt>
      <trkpt lat="39.07041" lon="-0.26653">
        <time>2019-03-23T13:47:29Z</time>
      </trkpt>
      <trkpt lat="39.07049" lon="-0.26643">
        <time>2019-03-23T13:47:30Z</time>
      </trkpt>
      <trkpt lat="39.07056" lon="-0.26633">
        <time>2019-03-23T13:47:31Z</time>
      </trkpt>
      <trkpt lat="39.07064" lon="-0.26625">
        <time>2019-03-23T13:47:32Z</time>
      </trkpt>
      <trkpt lat="39.07071" lon="-0.26616">
        <time>2019-03-23T13:47:33Z</time>
      </trkpt>
      <trkpt lat="39.07077" lon="-0.26607">
        <time>2019-03-23T13:47:34Z</time>
      </trkpt>
      <trkpt lat="39.07084" lon="-0.26598">
        <time>2019-03-23T13:47:35Z</time>
      </trkpt>
      <trkpt lat="39.07091" lon="-0.26588">
        <time>2019-03-23T13:47:36Z</time>
      </trkpt>
      <trkpt lat="39.07099" lon="-0.26579">
        <time>2019-03-23T13:47:37Z</time>
      </trkpt>
      <trkpt lat="39.07106" lon="-0.2657">
        <time>2019-03-23T13:47:38Z</time>
      </trkpt>
      <trkpt lat="39.07114" lon="-0.2656">
        <time>2019-03-23T13:47:39Z</time>
      </trkpt>
      <trkpt lat="39.07121" lon="-0.2655">
        <time>2019-03-23T13:47:40Z</time>
      </trkpt>
      <trkpt lat="39.07128" lon="-0.26541">
        <time>2019-03-23T13:47:41Z</time>
      </trkpt>
      <trkpt lat="39.07135" lon="-0.2653">
        <time>2019-03-23T13:47:42Z</time>
      </trkpt>
      <trkpt lat="39.07143" lon="-0.2652">
        <time>2019-03-23T13:47:43Z</time>
      </trkpt>
      <trkpt lat="39.0715" lon="-0.2651">
        <time>2019-03-23T13:47:44Z</time>
      </trkpt>
      <trkpt lat="39.07157" lon="-0.26501">
        <time>2019-03-23T13:47:45Z</time>
      </trkpt>
      <trkpt lat="39.07164" lon="-0.26491">
        <time>2019-03-23T13:47:46Z</time>
      </trkpt>
      <trkpt lat="39.07171" lon="-0.26482">
        <time>2019-03-23T13:47:47Z</time>
      </trkpt>
      <trkpt lat="39.07178" lon="-0.26472">
        <time>2019-03-23T13:47:48Z</time>
      </trkpt>
      <trkpt lat="39.07185" lon="-0.26463">
        <time>2019-03-23T13:47:49Z</time>
      </trkpt>
      <trkpt lat="39.07192" lon="-0.26453">
        <time>2019-03-23T13:47:50Z</time>
      </trkpt>
      <trkpt lat="39.07199" lon="-0.26444">
        <time>2019-03-23T13:47:51Z</time>
      </trkpt>
      <trkpt lat="39.07206" lon="-0.26434">
        <time>2019-03-23T13:47:52Z</time>
      </trkpt>
      <trkpt lat="39.07214" lon="-0.26424">
        <time>2019-03-23T13:47:53Z</time>
      </trkpt>
      <trkpt lat="39.07222" lon="-0.26413">
        <time>2019-03-23T13:47:54Z</time>
      </trkpt>
      <trkpt lat="39.0723" lon="-0.26402">
        <time>2019-03-23T13:47:55Z</time>
      </trkpt>
      <trkpt lat="39.07237" lon="-0.26392">
        <time>2019-03-23T13:47:56Z</time>
      </trkpt>
      <trkpt lat="39.07244" lon="-0.26382">
        <time>2019-03-23T13:47:57Z</time>
      </trkpt>
      <trkpt lat="39.07251" lon="-0.26373">
        <time>2019-03-23T13:47:58Z</time>
      </trkpt>
      <trkpt lat="39.07257" lon="-0.26365">
        <time>2019-03-23T13:47:59Z</time>
      </trkpt>
      <trkpt lat="39.07263" lon="-0.26357">
        <time>2019-03-23T13:48:00Z</time>
      </trkpt>
      <trkpt lat="39.0727" lon="-0.26347">
        <time>2019-03-23T13:48:01Z</time>
      </trkpt>
      <trkpt lat="39.07278" lon="-0.26337">
        <time>2019-03-23T13:48:02Z</time>
      </trkpt>
      <trkpt lat="39.07284" lon="-0.26329">
        <time>2019-03-23T13:48:03Z</time>
      </trkpt>
      <trkpt lat="39.07289" lon="-0.26321">
        <time>2019-03-23T13:48:04Z</time>
      </trkpt>
      <trkpt lat="39.07295" lon="-0.26314">
        <time>2019-03-23T13:48:05Z</time>
      </trkpt>
      <trkpt lat="39.073" lon="-0.26306">
        <time>2019-03-23T13:48:06Z</time>
      </trkpt>
      <trkpt lat="39.07305" lon="-0.26298">
        <time>2019-03-23T13:48:07Z</time>
      </trkpt>
      <trkpt lat="39.07311" lon="-0.26289">
        <time>2019-03-23T13:48:08Z</time>
      </trkpt>
      <trkpt lat="39.07317" lon="-0.2628">
        <time>2019-03-23T13:48:09Z</time>
      </trkpt>
      <trkpt lat="39.07326" lon="-0.2627">
        <time>2019-03-23T13:48:10Z</time>
      </trkpt>
      <trkpt lat="39.07335" lon="-0.2626">
        <time>2019-03-23T13:48:11Z</time>
      </trkpt>
      <trkpt lat="39.07343" lon="-0.26248">
        <time>2019-03-23T13:48:12Z</time>
      </trkpt>
      <trkpt lat="39.07351" lon="-0.26236">
        <time>2019-03-23T13:48:13Z</time>
      </trkpt>
      <trkpt lat="39.0736" lon="-0.26224">
        <time>2019-03-23T13:48:14Z</time>
      </trkpt>
      <trkpt lat="39.07369" lon="-0.26213">
        <time>2019-03-23T13:48:15Z</time>
      </trkpt>
      <trkpt lat="39.07377" lon="-0.26204">
        <time>2019-03-23T13:48:16Z</time>
      </trkpt>
      <trkpt lat="39.07385" lon="-0.26193">
        <time>2019-03-23T13:48:17Z</time>
      </trkpt>
      <trkpt lat="39.07391" lon="-0.26183">
        <time>2019-03-23T13:48:18Z</time>
      </trkpt>
      <trkpt lat="39.07398" lon="-0.26175">
        <time>2019-03-23T13:48:19Z</time>
      </trkpt>
      <trkpt lat="39.07404" lon="-0.26167">
        <time>2019-03-23T13:48:20Z</time>
      </trkpt>
      <trkpt lat="39.0741" lon="-0.26159">
        <time>2019-03-23T13:48:21Z</time>
      </trkpt>
      <trkpt lat="39.07417" lon="-0.2615">
        <time>2019-03-23T13:48:22Z</time>
      </trkpt>
      <trkpt lat="39.07423" lon="-0.26142">
        <time>2019-03-23T13:48:23Z</time>
      </trkpt>
      <trkpt lat="39.07428" lon="-0.26134">
        <time>2019-03-23T13:48:24Z</time>
      </trkpt>
      <trkpt lat="39.07432" lon="-0.26125">
        <time>2019-03-23T13:48:25Z</time>
      </trkpt>
      <trkpt lat="39.07436" lon="-0.26116">
        <time>2019-03-23T13:48:26Z</time>
      </trkpt>
      <trkpt lat="39.0744" lon="-0.26105">
        <time>2019-03-23T13:48:27Z</time>
      </trkpt>
      <trkpt lat="39.07443" lon="-0.26094">
        <time>2019-03-23T13:48:28Z</time>
      </trkpt>
      <trkpt lat="39.07446" lon="-0.26084">
        <time>2019-03-23T13:48:29Z</time>
      </trkpt>
      <trkpt lat="39.07449" lon="-0.26075">
        <time>2019-03-23T13:48:30Z</time>
      </trkpt>
      <trkpt lat="39.07453" lon="-0.26066">
        <time>2019-03-23T13:48:31Z</time>
      </trkpt>
      <trkpt lat="39.07455" lon="-0.26059">
        <time>2019-03-23T13:48:32Z</time>
      </trkpt>
      <trkpt lat="39.07458" lon="-0.2605">
        <time>2019-03-23T13:48:33Z</time>
      </trkpt>
      <trkpt lat="39.07461" lon="-0.26042">
        <time>2019-03-23T13:48:34Z</time>
      </trkpt>
      <trkpt lat="39.07463" lon="-0.26034">
        <time>2019-03-23T13:48:35Z</time>
      </trkpt>
      <trkpt lat="39.07465" lon="-0.26026">
        <time>2019-03-23T13:48:36Z</time>
      </trkpt>
      <trkpt lat="39.07462" lon="-0.26018">
        <time>2019-03-23T13:48:37Z</time>
      </trkpt>
      <trkpt lat="39.0746" lon="-0.26009">
        <time>2019-03-23T13:48:38Z</time>
      </trkpt>
      <trkpt lat="39.07461" lon="-0.25998">
        <time>2019-03-23T13:48:39Z</time>
      </trkpt>
      <trkpt lat="39.07466" lon="-0.25987">
        <time>2019-03-23T13:48:40Z</time>
      </trkpt>
      <trkpt lat="39.07473" lon="-0.2598">
        <time>2019-03-23T13:48:41Z</time>
      </trkpt>
      <trkpt lat="39.07481" lon="-0.25971">
        <time>2019-03-23T13:48:42Z</time>
      </trkpt>
      <trkpt lat="39.07489" lon="-0.25957">
        <time>2019-03-23T13:48:43Z</time>
      </trkpt>
      <trkpt lat="39.07495" lon="-0.25941">
        <time>2019-03-23T13:48:44Z</time>
      </trkpt>
      <trkpt lat="39.07501" lon="-0.25923">
        <time>2019-03-23T13:48:45Z</time>
      </trkpt>
      <trkpt lat="39.07508" lon="-0.25904">
        <time>2019-03-23T13:48:46Z</time>
      </trkpt>
      <trkpt lat="39.07516" lon="-0.25884">
        <time>2019-03-23T13:48:47Z</time>
      </trkpt>
      <trkpt lat="39.07524" lon="-0.25864">
        <time>2019-03-23T13:48:48Z</time>
      </trkpt>
      <trkpt lat="39.07531" lon="-0.25843">
        <time>2019-03-23T13:48:49Z</time>
      </trkpt>
      <trkpt lat="39.07539" lon="-0.25822">
        <time>2019-03-23T13:48:50Z</time>
      </trkpt>
      <trkpt lat="39.07547" lon="-0.25801">
        <time>2019-03-23T13:48:51Z</time>
      </trkpt>
      <trkpt lat="39.07555" lon="-0.25779">
        <time>2019-03-23T13:48:52Z</time>
      </trkpt>
      <trkpt lat="39.07563" lon="-0.25757">
        <time>2019-03-23T13:48:53Z</time>
      </trkpt>
      <trkpt lat="39.07571" lon="-0.25736">
        <time>2019-03-23T13:48:54Z</time>
      </trkpt>
      <trkpt lat="39.07579" lon="-0.25714">
        <time>2019-03-23T13:48:55Z</time>
      </trkpt>
      <trkpt lat="39.07587" lon="-0.25693">
        <time>2019-03-23T13:48:56Z</time>
      </trkpt>
      <trkpt lat="39.07595" lon="-0.25671">
        <time>2019-03-23T13:48:57Z</time>
      </trkpt>
      <trkpt lat="39.07603" lon="-0.25649">
        <time>2019-03-23T13:48:58Z</time>
      </trkpt>
      <trkpt lat="39.07611" lon="-0.25627">
        <time>2019-03-23T13:48:59Z</time>
      </trkpt>
      <trkpt lat="39.07619" lon="-0.25605">
        <time>2019-03-23T13:49:00Z</time>
      </trkpt>
      <trkpt lat="39.07625" lon="-0.25584">
        <time>2019-03-23T13:49:01Z</time>
      </trkpt>
      <trkpt lat="39.07632" lon="-0.25562">
        <time>2019-03-23T13:49:02Z</time>
      </trkpt>
      <trkpt lat="39.07637" lon="-0.2554">
        <time>2019-03-23T13:49:03Z</time>
      </trkpt>
      <trkpt lat="39.07641" lon="-0.2552">
        <time>2019-03-23T13:49:04Z</time>
      </trkpt>
      <trkpt lat="39.07644" lon="-0.25501">
        <time>2019-03-23T13:49:05Z</time>
      </trkpt>
      <trkpt lat="39.07647" lon="-0.25481">
        <time>2019-03-23T13:49:06Z</time>
      </trkpt>
      <trkpt lat="39.0765" lon="-0.25461">
        <time>2019-03-23T13:49:07Z</time>
      </trkpt>
      <trkpt lat="39.07653" lon="-0.25443">
        <time>2019-03-23T13:49:08Z</time>
      </trkpt>
      <trkpt lat="39.07656" lon="-0.25425">
        <time>2019-03-23T13:49:09Z</time>
      </trkpt>
      <trkpt lat="39.07659" lon="-0.25408">
        <time>2019-03-23T13:49:10Z</time>
      </trkpt>
      <trkpt lat="39.07661" lon="-0.25392">
        <time>2019-03-23T13:49:11Z</time>
      </trkpt>
      <trkpt lat="39.07663" lon="-0.25375">
        <time>2019-03-23T13:49:12Z</time>
      </trkpt>
      <trkpt lat="39.07666" lon="-0.25358">
        <time>2019-03-23T13:49:13Z</time>
      </trkpt>
      <trkpt lat="39.07669" lon="-0.25339">
        <time>2019-03-23T13:49:14Z</time>
      </trkpt>
      <trkpt lat="39.07672" lon="-0.25323">
        <time>2019-03-23T13:49:15Z</time>
      </trkpt>
      <trkpt lat="39.07675" lon="-0.25306">
        <time>2019-03-23T13:49:16Z</time>
      </trkpt>
      <trkpt lat="39.07677" lon="-0.25291">
        <time>2019-03-23T13:49:17Z</time>
      </trkpt>
      <trkpt lat="39.07678" lon="-0.25276">
        <time>2019-03-23T13:49:18Z</time>
      </trkpt>
      <trkpt lat="39.07679" lon="-0.25261">
        <time>2019-03-23T13:49:19Z</time>
      </trkpt>
      <trkpt lat="39.0768" lon="-0.25246">
        <time>2019-03-23T13:49:20Z</time>
      </trkpt>
      <trkpt lat="39.0768" lon="-0.2523">
        <time>2019-03-23T13:49:21Z</time>
      </trkpt>
      <trkpt lat="39.07677" lon="-0.25215">
        <time>2019-03-23T13:49:22Z</time>
      </trkpt>
      <trkpt lat="39.07675" lon="-0.252">
        <time>2019-03-23T13:49:23Z</time>
      </trkpt>
      <trkpt lat="39.07676" lon="-0.25186">
        <time>2019-03-23T13:49:24Z</time>
      </trkpt>
      <trkpt lat="39.0768" lon="-0.25174">
        <time>2019-03-23T13:49:25Z</time>
      </trkpt>
      <trkpt lat="39.07687" lon="-0.25164">
        <time>2019-03-23T13:49:26Z</time>
      </trkpt>
      <trkpt lat="39.07695" lon="-0.25154">
        <time>2019-03-23T13:49:27Z</time>
      </trkpt>
      <trkpt lat="39.07701" lon="-0.25142">
        <time>2019-03-23T13:49:28Z</time>
      </trkpt>
      <trkpt lat="39.07704" lon="-0.25127">
        <time>2019-03-23T13:49:29Z</time>
      </trkpt>
      <trkpt lat="39.07707" lon="-0.25111">
        <time>2019-03-23T13:49:30Z</time>
      </trkpt>
      <trkpt lat="39.07711" lon="-0.25093">
        <time>2019-03-23T13:49:31Z</time>
      </trkpt>
      <trkpt lat="39.07713" lon="-0.25074">
        <time>2019-03-23T13:49:32Z</time>
      </trkpt>
      <trkpt lat="39.07716" lon="-0.25055">
        <time>2019-03-23T13:49:33Z</time>
      </trkpt>
      <trkpt lat="39.0772" lon="-0.25036">
        <time>2019-03-23T13:49:34Z</time>
      </trkpt>
      <trkpt lat="39.07723" lon="-0.25017">
        <time>2019-03-23T13:49:35Z</time>
      </trkpt>
      <trkpt lat="39.07726" lon="-0.24997">
        <time>2019-03-23T13:49:36Z</time>
      </trkpt>
      <trkpt lat="39.07729" lon="-0.24977">
        <time>2019-03-23T13:49:37Z</time>
      </trkpt>
      <trkpt lat="39.07732" lon="-0.24959">
        <time>2019-03-23T13:49:38Z</time>
      </trkpt>
      <trkpt lat="39.07735" lon="-0.24941">
        <time>2019-03-23T13:49:39Z</time>
      </trkpt>
      <trkpt lat="39.07738" lon="-0.24924">
        <time>2019-03-23T13:49:40Z</time>
      </trkpt>
      <trkpt lat="39.0774" lon="-0.24907">
        <time>2019-03-23T13:49:41Z</time>
      </trkpt>
      <trkpt lat="39.07743" lon="-0.2489">
        <time>2019-03-23T13:49:42Z</time>
      </trkpt>
      <trkpt lat="39.07746" lon="-0.24872">
        <time>2019-03-23T13:49:43Z</time>
      </trkpt>
      <trkpt lat="39.07749" lon="-0.24853">
        <time>2019-03-23T13:49:44Z</time>
      </trkpt>
      <trkpt lat="39.07752" lon="-0.24834">
        <time>2019-03-23T13:49:45Z</time>
      </trkpt>
      <trkpt lat="39.07755" lon="-0.24815">
        <time>2019-03-23T13:49:46Z</time>
      </trkpt>
      <trkpt lat="39.07758" lon="-0.24797">
        <time>2019-03-23T13:49:47Z</time>
      </trkpt>
      <trkpt lat="39.07761" lon="-0.24778">
        <time>2019-03-23T13:49:48Z</time>
      </trkpt>
      <trkpt lat="39.07765" lon="-0.24758">
        <time>2019-03-23T13:49:49Z</time>
      </trkpt>
      <trkpt lat="39.07768" lon="-0.2474">
        <time>2019-03-23T13:49:50Z</time>
      </trkpt>
      <trkpt lat="39.0777" lon="-0.24722">
        <time>2019-03-23T13:49:51Z</time>
      </trkpt>
      <trkpt lat="39.07773" lon="-0.24704">
        <time>2019-03-23T13:49:52Z</time>
      </trkpt>
      <trkpt lat="39.07776" lon="-0.24686">
        <time>2019-03-23T13:49:53Z</time>
      </trkpt>
      <trkpt lat="39.0778" lon="-0.24669">
        <time>2019-03-23T13:49:54Z</time>
      </trkpt>
      <trkpt lat="39.07782" lon="-0.24651">
        <time>2019-03-23T13:49:55Z</time>
      </trkpt>
      <trkpt lat="39.07785" lon="-0.24634">
        <time>2019-03-23T13:49:56Z</time>
      </trkpt>
      <trkpt lat="39.07788" lon="-0.24617">
        <time>2019-03-23T13:49:57Z</time>
      </trkpt>
      <trkpt lat="39.07791" lon="-0.246">
        <time>2019-03-23T13:49:58Z</time>
      </trkpt>
      <trkpt lat="39.07793" lon="-0.24583">
        <time>2019-03-23T13:49:59Z</time>
      </trkpt>
      <trkpt lat="39.07796" lon="-0.24567">
        <time>2019-03-23T13:50:00Z</time>
      </trkpt>
      <trkpt lat="39.07798" lon="-0.2455">
        <time>2019-03-23T13:50:01Z</time>
      </trkpt>
      <trkpt lat="39.078" lon="-0.24535">
        <time>2019-03-23T13:50:02Z</time>
      </trkpt>
      <trkpt lat="39.07801" lon="-0.2452">
        <time>2019-03-23T13:50:03Z</time>
      </trkpt>
      <trkpt lat="39.07801" lon="-0.24505">
        <time>2019-03-23T13:50:04Z</time>
      </trkpt>
      <trkpt lat="39.07798" lon="-0.24492">
        <time>2019-03-23T13:50:05Z</time>
      </trkpt>
      <trkpt lat="39.07795" lon="-0.24479">
        <time>2019-03-23T13:50:06Z</time>
      </trkpt>
      <trkpt lat="39.07794" lon="-0.24467">
        <time>2019-03-23T13:50:07Z</time>
      </trkpt>
      <trkpt lat="39.07798" lon="-0.24456">
        <time>2019-03-23T13:50:08Z</time>
      </trkpt>
      <trkpt lat="39.07805" lon="-0.24447">
        <time>2019-03-23T13:50:09Z</time>
      </trkpt>
      <trkpt lat="39.07812" lon="-0.24438">
        <time>2019-03-23T13:50:10Z</time>
      </trkpt>
      <trkpt lat="39.07818" lon="-0.24426">
        <time>2019-03-23T13:50:11Z</time>
      </trkpt>
      <trkpt lat="39.07821" lon="-0.24411">
        <time>2019-03-23T13:50:12Z</time>
      </trkpt>
      <trkpt lat="39.07825" lon="-0.24395">
        <time>2019-03-23T13:50:13Z</time>
      </trkpt>
      <trkpt lat="39.07828" lon="-0.24379">
        <time>2019-03-23T13:50:14Z</time>
      </trkpt>
      <trkpt lat="39.07832" lon="-0.24364">
        <time>2019-03-23T13:50:15Z</time>
      </trkpt>
      <trkpt lat="39.07839" lon="-0.24349">
        <time>2019-03-23T13:50:16Z</time>
      </trkpt>
      <trkpt lat="39.07848" lon="-0.24334">
        <time>2019-03-23T13:50:17Z</time>
      </trkpt>
      <trkpt lat="39.0786" lon="-0.24323">
        <time>2019-03-23T13:50:18Z</time>
      </trkpt>
      <trkpt lat="39.07872" lon="-0.24315">
        <time>2019-03-23T13:50:19Z</time>
      </trkpt>
      <trkpt lat="39.07885" lon="-0.24309">
        <time>2019-03-23T13:50:20Z</time>
      </trkpt>
      <trkpt lat="39.07898" lon="-0.24306">
        <time>2019-03-23T13:50:21Z</time>
      </trkpt>
      <trkpt lat="39.07911" lon="-0.24302">
        <time>2019-03-23T13:50:22Z</time>
      </trkpt>
      <trkpt lat="39.07926" lon="-0.24298">
        <time>2019-03-23T13:50:23Z</time>
      </trkpt>
      <trkpt lat="39.07942" lon="-0.24292">
        <time>2019-03-23T13:50:24Z</time>
      </trkpt>
      <trkpt lat="39.07958" lon="-0.24285">
        <time>2019-03-23T13:50:25Z</time>
      </trkpt>
      <trkpt lat="39.07975" lon="-0.24274">
        <time>2019-03-23T13:50:26Z</time>
      </trkpt>
      <trkpt lat="39.07991" lon="-0.24261">
        <time>2019-03-23T13:50:27Z</time>
      </trkpt>
      <trkpt lat="39.08006" lon="-0.24247">
        <time>2019-03-23T13:50:28Z</time>
      </trkpt>
      <trkpt lat="39.08023" lon="-0.24237">
        <time>2019-03-23T13:50:29Z</time>
      </trkpt>
      <trkpt lat="39.08042" lon="-0.24231">
        <time>2019-03-23T13:50:30Z</time>
      </trkpt>
      <trkpt lat="39.08063" lon="-0.2423">
        <time>2019-03-23T13:50:31Z</time>
      </trkpt>
      <trkpt lat="39.08083" lon="-0.24231">
        <time>2019-03-23T13:50:32Z</time>
      </trkpt>
      <trkpt lat="39.08104" lon="-0.24231">
        <time>2019-03-23T13:50:33Z</time>
      </trkpt>
      <trkpt lat="39.08123" lon="-0.24231">
        <time>2019-03-23T13:50:34Z</time>
      </trkpt>
      <trkpt lat="39.08141" lon="-0.24229">
        <time>2019-03-23T13:50:35Z</time>
      </trkpt>
      <trkpt lat="39.08157" lon="-0.24226">
        <time>2019-03-23T13:50:36Z</time>
      </trkpt>
      <trkpt lat="39.08172" lon="-0.24221">
        <time>2019-03-23T13:50:37Z</time>
      </trkpt>
      <trkpt lat="39.08185" lon="-0.24213">
        <time>2019-03-23T13:50:38Z</time>
      </trkpt>
      <trkpt lat="39.08196" lon="-0.24204">
        <time>2019-03-23T13:50:39Z</time>
      </trkpt>
      <trkpt lat="39.08209" lon="-0.24198">
        <time>2019-03-23T13:50:40Z</time>
      </trkpt>
      <trkpt lat="39.08223" lon="-0.24197">
        <time>2019-03-23T13:50:41Z</time>
      </trkpt>
      <trkpt lat="39.08236" lon="-0.242">
        <time>2019-03-23T13:50:42Z</time>
      </trkpt>
      <trkpt lat="39.08248" lon="-0.24199">
        <time>2019-03-23T13:50:43Z</time>
      </trkpt>
      <trkpt lat="39.08258" lon="-0.24193">
        <time>2019-03-23T13:50:44Z</time>
      </trkpt>
      <trkpt lat="39.08265" lon="-0.24182">
        <time>2019-03-23T13:50:45Z</time>
      </trkpt>
      <trkpt lat="39.08271" lon="-0.24168">
        <time>2019-03-23T13:50:46Z</time>
      </trkpt>
      <trkpt lat="39.08278" lon="-0.24156">
        <time>2019-03-23T13:50:47Z</time>
      </trkpt>
      <trkpt lat="39.08288" lon="-0.24148">
        <time>2019-03-23T13:50:48Z</time>
      </trkpt>
      <trkpt lat="39.08302" lon="-0.24145">
        <time>2019-03-23T13:50:49Z</time>
      </trkpt>
      <trkpt lat="39.08318" lon="-0.24146">
        <time>2019-03-23T13:50:50Z</time>
      </trkpt>
      <trkpt lat="39.08334" lon="-0.24152">
        <time>2019-03-23T13:50:51Z</time>
      </trkpt>
      <trkpt lat="39.08349" lon="-0.24163">
        <time>2019-03-23T13:50:52Z</time>
      </trkpt>
      <trkpt lat="39.08362" lon="-0.24179">
        <time>2019-03-23T13:50:53Z</time>
      </trkpt>
      <trkpt lat="39.08372" lon="-0.24199">
        <time>2019-03-23T13:50:54Z</time>
      </trkpt>
      <trkpt lat="39.08378" lon="-0.24224">
        <time>2019-03-23T13:50:55Z</time>
      </trkpt>
      <trkpt lat="39.08383" lon="-0.24253">
        <time>2019-03-23T13:50:56Z</time>
      </trkpt>
      <trkpt lat="39.08388" lon="-0.24283">
        <time>2019-03-23T13:50:57Z</time>
      </trkpt>
      <trkpt lat="39.08395" lon="-0.24312">
        <time>2019-03-23T13:50:58Z</time>
      </trkpt>
      <trkpt lat="39.08406" lon="-0.2434">
        <time>2019-03-23T13:50:59Z</time>
      </trkpt>
      <trkpt lat="39.08418" lon="-0.24365">
        <time>2019-03-23T13:51:00Z</time>
      </trkpt>
      <trkpt lat="39.08433" lon="-0.24385">
        <time>2019-03-23T13:51:01Z</time>
      </trkpt>
      <trkpt lat="39.08449" lon="-0.24401">
        <time>2019-03-23T13:51:02Z</time>
      </trkpt>
      <trkpt lat="39.08466" lon="-0.24414">
        <time>2019-03-23T13:51:03Z</time>
      </trkpt>
      <trkpt lat="39.08484" lon="-0.24425">
        <time>2019-03-23T13:51:04Z</time>
      </trkpt>
      <trkpt lat="39.08503" lon="-0.24435">
        <time>2019-03-23T13:51:05Z</time>
      </trkpt>
      <trkpt lat="39.08522" lon="-0.24447">
        <time>2019-03-23T13:51:06Z</time>
      </trkpt>
      <trkpt lat="39.08542" lon="-0.2446">
        <time>2019-03-23T13:51:07Z</time>
      </trkpt>
      <trkpt lat="39.08561" lon="-0.24478">
        <time>2019-03-23T13:51:08Z</time>
      </trkpt>
      <trkpt lat="39.08579" lon="-0.24502">
        <time>2019-03-23T13:51:09Z</time>
      </trkpt>
      <trkpt lat="39.08596" lon="-0.24529">
        <time>2019-03-23T13:51:10Z</time>
      </trkpt>
      <trkpt lat="39.08609" lon="-0.24558">
        <time>2019-03-23T13:51:11Z</time>
      </trkpt>
      <trkpt lat="39.08619" lon="-0.24587">
        <time>2019-03-23T13:51:12Z</time>
      </trkpt>
      <trkpt lat="39.08627" lon="-0.24615">
        <time>2019-03-23T13:51:13Z</time>
      </trkpt>
      <trkpt lat="39.08634" lon="-0.24641">
        <time>2019-03-23T13:51:14Z</time>
      </trkpt>
      <trkpt lat="39.0864" lon="-0.24665">
        <time>2019-03-23T13:51:15Z</time>
      </trkpt>
      <trkpt lat="39.08648" lon="-0.24687">
        <time>2019-03-23T13:51:16Z</time>
      </trkpt>
      <trkpt lat="39.08656" lon="-0.24709">
        <time>2019-03-23T13:51:17Z</time>
      </trkpt>
      <trkpt lat="39.08666" lon="-0.24729">
        <time>2019-03-23T13:51:18Z</time>
      </trkpt>
      <trkpt lat="39.08678" lon="-0.24747">
        <time>2019-03-23T13:51:19Z</time>
      </trkpt>
      <trkpt lat="39.08692" lon="-0.24764">
        <time>2019-03-23T13:51:20Z</time>
      </trkpt>
      <trkpt lat="39.08707" lon="-0.24779">
        <time>2019-03-23T13:51:21Z</time>
      </trkpt>
      <trkpt lat="39.08723" lon="-0.24793">
        <time>2019-03-23T13:51:22Z</time>
      </trkpt>
      <trkpt lat="39.0874" lon="-0.24804">
        <time>2019-03-23T13:51:23Z</time>
      </trkpt>
      <trkpt lat="39.08759" lon="-0.24812">
        <time>2019-03-23T13:51:24Z</time>
      </trkpt>
      <trkpt lat="39.08778" lon="-0.24819">
        <time>2019-03-23T13:51:25Z</time>
      </trkpt>
      <trkpt lat="39.08798" lon="-0.24825">
        <time>2019-03-23T13:51:26Z</time>
      </trkpt>
      <trkpt lat="39.08819" lon="-0.24832">
        <time>2019-03-23T13:51:27Z</time>
      </trkpt>
      <trkpt lat="39.08839" lon="-0.24839">
        <time>2019-03-23T13:51:28Z</time>
      </trkpt>
      <trkpt lat="39.08858" lon="-0.24845">
        <time>2019-03-23T13:51:29Z</time>
      </trkpt>
      <trkpt lat="39.08877" lon="-0.24851">
        <time>2019-03-23T13:51:30Z</time>
      </trkpt>
      <trkpt lat="39.08896" lon="-0.24857">
        <time>2019-03-23T13:51:31Z</time>
      </trkpt>
      <trkpt lat="39.08916" lon="-0.24863">
        <time>2019-03-23T13:51:32Z</time>
      </trkpt>
      <trkpt lat="39.08937" lon="-0.24869">
        <time>2019-03-23T13:51:33Z</time>
      </trkpt>
      <trkpt lat="39.08958" lon="-0.24874">
        <time>2019-03-23T13:51:34Z</time>
      </trkpt>
      <trkpt lat="39.0898" lon="-0.24878">
        <time>2019-03-23T13:51:35Z</time>
      </trkpt>
      <trkpt lat="39.09001" lon="-0.24881">
        <time>2019-03-23T13:51:36Z</time>
      </trkpt>
      <trkpt lat="39.09022" lon="-0.24884">
        <time>2019-03-23T13:51:37Z</time>
      </trkpt>
      <trkpt lat="39.09043" lon="-0.24887">
        <time>2019-03-23T13:51:38Z</time>
      </trkpt>
      <trkpt lat="39.09065" lon="-0.2489">
        <time>2019-03-23T13:51:39Z</time>
      </trkpt>
      <trkpt lat="39.09086" lon="-0.24894">
        <time>2019-03-23T13:51:40Z</time>
      </trkpt>
      <trkpt lat="39.09107" lon="-0.24897">
        <time>2019-03-23T13:51:41Z</time>
      </trkpt>
      <trkpt lat="39.09128" lon="-0.24901">
        <time>2019-03-23T13:51:42Z</time>
      </trkpt>
      <trkpt lat="39.09148" lon="-0.24906">
        <time>2019-03-23T13:51:43Z</time>
      </trkpt>
      <trkpt lat="39.09169" lon="-0.24913">
        <time>2019-03-23T13:51:44Z</time>
      </trkpt>
      <trkpt lat="39.09189" lon="-0.2492">
        <time>2019-03-23T13:51:45Z</time>
      </trkpt>
      <trkpt lat="39.09209" lon="-0.24928">
        <time>2019-03-23T13:51:46Z</time>
      </trkpt>
      <trkpt lat="39.09228" lon="-0.24938">
        <time>2019-03-23T13:51:47Z</time>
      </trkpt>
      <trkpt lat="39.09247" lon="-0.24948">
        <time>2019-03-23T13:51:48Z</time>
      </trkpt>
      <trkpt lat="39.09265" lon="-0.2496">
        <time>2019-03-23T13:51:49Z</time>
      </trkpt>
      <trkpt lat="39.09282" lon="-0.24973">
        <time>2019-03-23T13:51:50Z</time>
      </trkpt>
      <trkpt lat="39.09299" lon="-0.24988">
        <time>2019-03-23T13:51:51Z</time>
      </trkpt>
      <trkpt lat="39.09316" lon="-0.25004">
        <time>2019-03-23T13:51:52Z</time>
      </trkpt>
      <trkpt lat="39.09332" lon="-0.25023">
        <time>2019-03-23T13:51:53Z</time>
      </trkpt>
      <trkpt lat="39.0935" lon="-0.25045">
        <time>2019-03-23T13:51:54Z</time>
      </trkpt>
      <trkpt lat="39.09369" lon="-0.25067">
        <time>2019-03-23T13:51:55Z</time>
      </trkpt>
      <trkpt lat="39.09391" lon="-0.2509">
        <time>2019-03-23T13:51:56Z</time>
      </trkpt>
      <trkpt lat="39.09415" lon="-0.25114">
        <time>2019-03-23T13:51:57Z</time>
      </trkpt>
      <trkpt lat="39.09439" lon="-0.2514">
        <time>2019-03-23T13:51:58Z</time>
      </trkpt>
      <trkpt lat="39.09464" lon="-0.25167">
        <time>2019-03-23T13:51:59Z</time>
      </trkpt>
      <trkpt lat="39.09489" lon="-0.25194">
        <time>2019-03-23T13:52:00Z</time>
      </trkpt>
      <trkpt lat="39.09513" lon="-0.25222">
        <time>2019-03-23T13:52:01Z</time>
      </trkpt>
      <trkpt lat="39.09538" lon="-0.25251">
        <time>2019-03-23T13:52:02Z</time>
      </trkpt>
      <trkpt lat="39.09563" lon="-0.25279">
        <time>2019-03-23T13:52:03Z</time>
      </trkpt>
      <trkpt lat="39.09587" lon="-0.25307">
        <time>2019-03-23T13:52:04Z</time>
      </trkpt>
      <trkpt lat="39.09613" lon="-0.25336">
        <time>2019-03-23T13:52:05Z</time>
      </trkpt>
      <trkpt lat="39.09638" lon="-0.25364">
        <time>2019-03-23T13:52:06Z</time>
      </trkpt>
      <trkpt lat="39.09664" lon="-0.25393">
        <time>2019-03-23T13:52:07Z</time>
      </trkpt>
      <trkpt lat="39.09689" lon="-0.25422">
        <time>2019-03-23T13:52:08Z</time>
      </trkpt>
      <trkpt lat="39.09715" lon="-0.25451">
        <time>2019-03-23T13:52:09Z</time>
      </trkpt>
      <trkpt lat="39.09741" lon="-0.25481">
        <time>2019-03-23T13:52:10Z</time>
      </trkpt>
      <trkpt lat="39.09767" lon="-0.25509">
        <time>2019-03-23T13:52:11Z</time>
      </trkpt>
      <trkpt lat="39.09792" lon="-0.25538">
        <time>2019-03-23T13:52:12Z</time>
      </trkpt>
      <trkpt lat="39.09818" lon="-0.25567">
        <time>2019-03-23T13:52:13Z</time>
      </trkpt>
      <trkpt lat="39.09844" lon="-0.25595">
        <time>2019-03-23T13:52:14Z</time>
      </trkpt>
      <trkpt lat="39.09869" lon="-0.25624">
        <time>2019-03-23T13:52:15Z</time>
      </trkpt>
      <trkpt lat="39.09894" lon="-0.25653">
        <time>2019-03-23T13:52:16Z</time>
      </trkpt>
      <trkpt lat="39.0992" lon="-0.25683">
        <time>2019-03-23T13:52:17Z</time>
      </trkpt>
      <trkpt lat="39.09945" lon="-0.25712">
        <time>2019-03-23T13:52:18Z</time>
      </trkpt>
      <trkpt lat="39.0997" lon="-0.2574">
        <time>2019-03-23T13:52:19Z</time>
      </trkpt>
      <trkpt lat="39.09995" lon="-0.25768">
        <time>2019-03-23T13:52:20Z</time>
      </trkpt>
      <trkpt lat="39.1002" lon="-0.25797">
        <time>2019-03-23T13:52:21Z</time>
      </trkpt>
      <trkpt lat="39.10044" lon="-0.25825">
        <time>2019-03-23T13:52:22Z</time>
      </trkpt>
      <trkpt lat="39.10067" lon="-0.25851">
        <time>2019-03-23T13:52:23Z</time>
      </trkpt>
      <trkpt lat="39.10089" lon="-0.25876">
        <time>2019-03-23T13:52:24Z</time>
      </trkpt>
      <trkpt lat="39.10112" lon="-0.25901">
        <time>2019-03-23T13:52:25Z</time>
      </trkpt>
      <trkpt lat="39.10134" lon="-0.25925">
        <time>2019-03-23T13:52:26Z</time>
      </trkpt>
      <trkpt lat="39.10157" lon="-0.25951">
        <time>2019-03-23T13:52:27Z</time>
      </trkpt>
      <trkpt lat="39.10179" lon="-0.25977">
        <time>2019-03-23T13:52:28Z</time>
      </trkpt>
      <trkpt lat="39.10202" lon="-0.26003">
        <time>2019-03-23T13:52:29Z</time>
      </trkpt>
      <trkpt lat="39.10224" lon="-0.26029">
        <time>2019-03-23T13:52:30Z</time>
      </trkpt>
      <trkpt lat="39.10247" lon="-0.26055">
        <time>2019-03-23T13:52:31Z</time>
      </trkpt>
      <trkpt lat="39.1027" lon="-0.26081">
        <time>2019-03-23T13:52:32Z</time>
      </trkpt>
      <trkpt lat="39.10293" lon="-0.26107">
        <time>2019-03-23T13:52:33Z</time>
      </trkpt>
      <trkpt lat="39.10315" lon="-0.26132">
        <time>2019-03-23T13:52:34Z</time>
      </trkpt>
      <trkpt lat="39.10338" lon="-0.26157">
        <time>2019-03-23T13:52:35Z</time>
      </trkpt>
      <trkpt lat="39.10361" lon="-0.26183">
        <time>2019-03-23T13:52:36Z</time>
      </trkpt>
      <trkpt lat="39.10383" lon="-0.26211">
        <time>2019-03-23T13:52:37Z</time>
      </trkpt>
      <trkpt lat="39.10407" lon="-0.2624">
        <time>2019-03-23T13:52:38Z</time>
      </trkpt>
      <trkpt lat="39.10432" lon="-0.26268">
        <time>2019-03-23T13:52:39Z</time>
      </trkpt>
      <trkpt lat="39.10457" lon="-0.26296">
        <time>2019-03-23T13:52:40Z</time>
      </trkpt>
      <trkpt lat="39.10483" lon="-0.26324">
        <time>2019-03-23T13:52:41Z</time>
      </trkpt>
      <trkpt lat="39.10509" lon="-0.26356">
        <time>2019-03-23T13:52:42Z</time>
      </trkpt>
      <trkpt lat="39.10536" lon="-0.26386">
        <time>2019-03-23T13:52:43Z</time>
      </trkpt>
      <trkpt lat="39.10563" lon="-0.26415">
        <time>2019-03-23T13:52:44Z</time>
      </trkpt>
      <trkpt lat="39.10589" lon="-0.26442">
        <time>2019-03-23T13:52:45Z</time>
      </trkpt>
      <trkpt lat="39.10614" lon="-0.2647">
        <time>2019-03-23T13:52:46Z</time>
      </trkpt>
      <trkpt lat="39.10637" lon="-0.26499">
        <time>2019-03-23T13:52:47Z</time>
      </trkpt>
      <trkpt lat="39.1066" lon="-0.26529">
        <time>2019-03-23T13:52:48Z</time>
      </trkpt>
      <trkpt lat="39.10682" lon="-0.26559">
        <time>2019-03-23T13:52:49Z</time>
      </trkpt>
      <trkpt lat="39.10704" lon="-0.26589">
        <time>2019-03-23T13:52:50Z</time>
      </trkpt>
      <trkpt lat="39.10725" lon="-0.26618">
        <time>2019-03-23T13:52:51Z</time>
      </trkpt>
      <trkpt lat="39.10747" lon="-0.26646">
        <time>2019-03-23T13:52:52Z</time>
      </trkpt>
      <trkpt lat="39.10768" lon="-0.26674">
        <time>2019-03-23T13:52:53Z</time>
      </trkpt>
      <trkpt lat="39.10788" lon="-0.26701">
        <time>2019-03-23T13:52:54Z</time>
      </trkpt>
      <trkpt lat="39.10808" lon="-0.26728">
        <time>2019-03-23T13:52:55Z</time>
      </trkpt>
      <trkpt lat="39.10827" lon="-0.26754">
        <time>2019-03-23T13:52:56Z</time>
      </trkpt>
      <trkpt lat="39.10846" lon="-0.2678">
        <time>2019-03-23T13:52:57Z</time>
      </trkpt>
      <trkpt lat="39.10866" lon="-0.26806">
        <time>2019-03-23T13:52:58Z</time>
      </trkpt>
      <trkpt lat="39.10885" lon="-0.26833">
        <time>2019-03-23T13:52:59Z</time>
      </trkpt>
      <trkpt lat="39.10905" lon="-0.2686">
        <time>2019-03-23T13:53:00Z</time>
      </trkpt>
      <trkpt lat="39.10925" lon="-0.26887">
        <time>2019-03-23T13:53:01Z</time>
      </trkpt>
      <trkpt lat="39.10946" lon="-0.26914">
        <time>2019-03-23T13:53:02Z</time>
      </trkpt>
      <trkpt lat="39.10966" lon="-0.26942">
        <time>2019-03-23T13:53:03Z</time>
      </trkpt>
      <trkpt lat="39.10987" lon="-0.26969">
        <time>2019-03-23T13:53:04Z</time>
      </trkpt>
      <trkpt lat="39.11007" lon="-0.26997">
        <time>2019-03-23T13:53:05Z</time>
      </trkpt>
      <trkpt lat="39.11028" lon="-0.27025">
        <time>2019-03-23T13:53:06Z</time>
      </trkpt>
      <trkpt lat="39.11049" lon="-0.27053">
        <time>2019-03-23T13:53:07Z</time>
      </trkpt>
      <trkpt lat="39.1107" lon="-0.27081">
        <time>2019-03-23T13:53:08Z</time>
      </trkpt>
      <trkpt lat="39.11091" lon="-0.27109">
        <time>2019-03-23T13:53:09Z</time>
      </trkpt>
      <trkpt lat="39.11112" lon="-0.27137">
        <time>2019-03-23T13:53:10Z</time>
      </trkpt>
      <trkpt lat="39.11133" lon="-0.27165">
        <time>2019-03-23T13:53:11Z</time>
      </trkpt>
      <trkpt lat="39.11154" lon="-0.27194">
        <time>2019-03-23T13:53:12Z</time>
      </trkpt>
      <trkpt lat="39.11176" lon="-0.27223">
        <time>2019-03-23T13:53:13Z</time>
      </trkpt>
      <trkpt lat="39.11197" lon="-0.27251">
        <time>2019-03-23T13:53:14Z</time>
      </trkpt>
      <trkpt lat="39.11218" lon="-0.2728">
        <time>2019-03-23T13:53:15Z</time>
      </trkpt>
      <trkpt lat="39.11239" lon="-0.27309">
        <time>2019-03-23T13:53:16Z</time>
      </trkpt>
      <trkpt lat="39.11261" lon="-0.27337">
        <time>2019-03-23T13:53:17Z</time>
      </trkpt>
      <trkpt lat="39.11282" lon="-0.27365">
        <time>2019-03-23T13:53:18Z</time>
      </trkpt>
      <trkpt lat="39.11303" lon="-0.27394">
        <time>2019-03-23T13:53:19Z</time>
      </trkpt>
      <trkpt lat="39.11323" lon="-0.27421">
        <time>2019-03-23T13:53:20Z</time>
      </trkpt>
      <trkpt lat="39.11344" lon="-0.27449">
        <time>2019-03-23T13:53:21Z</time>
      </trkpt>
      <trkpt lat="39.11364" lon="-0.27476">
        <time>2019-03-23T13:53:22Z</time>
      </trkpt>
      <trkpt lat="39.11385" lon="-0.27504">
        <time>2019-03-23T13:53:23Z</time>
      </trkpt>
      <trkpt lat="39.11405" lon="-0.27532">
        <time>2019-03-23T13:53:24Z</time>
      </trkpt>
      <trkpt lat="39.11426" lon="-0.27559">
        <time>2019-03-23T13:53:25Z</time>
      </trkpt>
      <trkpt lat="39.11446" lon="-0.27586">
        <time>2019-03-23T13:53:26Z</time>
      </trkpt>
      <trkpt lat="39.11466" lon="-0.27614">
        <time>2019-03-23T13:53:27Z</time>
      </trkpt>
      <trkpt lat="39.11487" lon="-0.27642">
        <time>2019-03-23T13:53:28Z</time>
      </trkpt>
      <trkpt lat="39.11509" lon="-0.2767">
        <time>2019-03-23T13:53:29Z</time>
      </trkpt>
      <trkpt lat="39.1153" lon="-0.27698">
        <time>2019-03-23T13:53:30Z</time>
      </trkpt>
      <trkpt lat="39.11551" lon="-0.27728">
        <time>2019-03-23T13:53:31Z</time>
      </trkpt>
      <trkpt lat="39.11571" lon="-0.27759">
        <time>2019-03-23T13:53:32Z</time>
      </trkpt>
      <trkpt lat="39.11589" lon="-0.27791">
        <time>2019-03-23T13:53:33Z</time>
      </trkpt>
      <trkpt lat="39.11608" lon="-0.27823">
        <time>2019-03-23T13:53:34Z</time>
      </trkpt>
      <trkpt lat="39.11627" lon="-0.27855">
        <time>2019-03-23T13:53:35Z</time>
      </trkpt>
      <trkpt lat="39.11645" lon="-0.27888">
        <time>2019-03-23T13:53:36Z</time>
      </trkpt>
      <trkpt lat="39.11664" lon="-0.27918">
        <time>2019-03-23T13:53:37Z</time>
      </trkpt>
      <trkpt lat="39.11684" lon="-0.27949">
        <time>2019-03-23T13:53:38Z</time>
      </trkpt>
      <trkpt lat="39.11704" lon="-0.27978">
        <time>2019-03-23T13:53:39Z</time>
      </trkpt>
      <trkpt lat="39.11727" lon="-0.28004">
        <time>2019-03-23T13:53:40Z</time>
      </trkpt>
      <trkpt lat="39.11752" lon="-0.28027">
        <time>2019-03-23T13:53:41Z</time>
      </trkpt>
      <trkpt lat="39.11777" lon="-0.28051">
        <time>2019-03-23T13:53:42Z</time>
      </trkpt>
      <trkpt lat="39.11802" lon="-0.28075">
        <time>2019-03-23T13:53:43Z</time>
      </trkpt>
      <trkpt lat="39.11827" lon="-0.281">
        <time>2019-03-23T13:53:44Z</time>
      </trkpt>
      <trkpt lat="39.11851" lon="-0.28124">
        <time>2019-03-23T13:53:45Z</time>
      </trkpt>
      <trkpt lat="39.11876" lon="-0.28148">
        <time>2019-03-23T13:53:46Z</time>
      </trkpt>
      <trkpt lat="39.11898" lon="-0.28174">
        <time>2019-03-23T13:53:47Z</time>
      </trkpt>
      <trkpt lat="39.11919" lon="-0.28203">
        <time>2019-03-23T13:53:48Z</time>
      </trkpt>
      <trkpt lat="39.11939" lon="-0.28233">
        <time>2019-03-23T13:53:49Z</time>
      </trkpt>
      <trkpt lat="39.11959" lon="-0.28263">
        <time>2019-03-23T13:53:50Z</time>
      </trkpt>
      <trkpt lat="39.11979" lon="-0.28294">
        <time>2019-03-23T13:53:51Z</time>
      </trkpt>
      <trkpt lat="39.11999" lon="-0.28324">
        <time>2019-03-23T13:53:52Z</time>
      </trkpt>
      <trkpt lat="39.12018" lon="-0.28355">
        <time>2019-03-23T13:53:53Z</time>
      </trkpt>
      <trkpt lat="39.12038" lon="-0.28385">
        <time>2019-03-23T13:53:54Z</time>
      </trkpt>
      <trkpt lat="39.12058" lon="-0.28415">
        <time>2019-03-23T13:53:55Z</time>
      </trkpt>
      <trkpt lat="39.12078" lon="-0.28446">
        <time>2019-03-23T13:53:56Z</time>
      </trkpt>
      <trkpt lat="39.12098" lon="-0.28476">
        <time>2019-03-23T13:53:57Z</time>
      </trkpt>
      <trkpt lat="39.12117" lon="-0.28506">
        <time>2019-03-23T13:53:58Z</time>
      </trkpt>
      <trkpt lat="39.12137" lon="-0.28537">
        <time>2019-03-23T13:53:59Z</time>
      </trkpt>
      <trkpt lat="39.12156" lon="-0.28567">
        <time>2019-03-23T13:54:00Z</time>
      </trkpt>
      <trkpt lat="39.12175" lon="-0.28597">
        <time>2019-03-23T13:54:01Z</time>
      </trkpt>
      <trkpt lat="39.12194" lon="-0.28626">
        <time>2019-03-23T13:54:02Z</time>
      </trkpt>
      <trkpt lat="39.12214" lon="-0.28656">
        <time>2019-03-23T13:54:03Z</time>
      </trkpt>
      <trkpt lat="39.12233" lon="-0.28686">
        <time>2019-03-23T13:54:04Z</time>
      </trkpt>
      <trkpt lat="39.12251" lon="-0.28714">
        <time>2019-03-23T13:54:05Z</time>
      </trkpt>
      <trkpt lat="39.12269" lon="-0.28741">
        <time>2019-03-23T13:54:06Z</time>
      </trkpt>
      <trkpt lat="39.12285" lon="-0.28767">
        <time>2019-03-23T13:54:07Z</time>
      </trkpt>
      <trkpt lat="39.12301" lon="-0.28792">
        <time>2019-03-23T13:54:08Z</time>
      </trkpt>
      <trkpt lat="39.12316" lon="-0.28816">
        <time>2019-03-23T13:54:09Z</time>
      </trkpt>
      <trkpt lat="39.12331" lon="-0.28839">
        <time>2019-03-23T13:54:10Z</time>
      </trkpt>
      <trkpt lat="39.12344" lon="-0.2886">
        <time>2019-03-23T13:54:11Z</time>
      </trkpt>
      <trkpt lat="39.12358" lon="-0.2888">
        <time>2019-03-23T13:54:12Z</time>
      </trkpt>
      <trkpt lat="39.12373" lon="-0.28897">
        <time>2019-03-23T13:54:13Z</time>
      </trkpt>
      <trkpt lat="39.1239" lon="-0.28909">
        <time>2019-03-23T13:54:14Z</time>
      </trkpt>
      <trkpt lat="39.12407" lon="-0.28918">
        <time>2019-03-23T13:54:15Z</time>
      </trkpt>
      <trkpt lat="39.12423" lon="-0.28923">
        <time>2019-03-23T13:54:16Z</time>
      </trkpt>
      <trkpt lat="39.12439" lon="-0.28925">
        <time>2019-03-23T13:54:17Z</time>
      </trkpt>
      <trkpt lat="39.12453" lon="-0.28927">
        <time>2019-03-23T13:54:18Z</time>
      </trkpt>
      <trkpt lat="39.12465" lon="-0.28929">
        <time>2019-03-23T13:54:19Z</time>
      </trkpt>
      <trkpt lat="39.12478" lon="-0.28931">
        <time>2019-03-23T13:54:20Z</time>
      </trkpt>
      <trkpt lat="39.12489" lon="-0.28933">
        <time>2019-03-23T13:54:21Z</time>
      </trkpt>
      <trkpt lat="39.12499" lon="-0.28935">
        <time>2019-03-23T13:54:22Z</time>
      </trkpt>
      <trkpt lat="39.12509" lon="-0.28937">
        <time>2019-03-23T13:54:23Z</time>
      </trkpt>
      <trkpt lat="39.12519" lon="-0.28939">
        <time>2019-03-23T13:54:24Z</time>
      </trkpt>
      <trkpt lat="39.12528" lon="-0.2894">
        <time>2019-03-23T13:54:25Z</time>
      </trkpt>
      <trkpt lat="39.12538" lon="-0.28942">
        <time>2019-03-23T13:54:26Z</time>
      </trkpt>
      <trkpt lat="39.12546" lon="-0.28944">
        <time>2019-03-23T13:54:27Z</time>
      </trkpt>
      <trkpt lat="39.12554" lon="-0.28944">
        <time>2019-03-23T13:54:28Z</time>
      </trkpt>
      <trkpt lat="39.12562" lon="-0.28945">
        <time>2019-03-23T13:54:29Z</time>
      </trkpt>
      <trkpt lat="39.12569" lon="-0.28946">
        <time>2019-03-23T13:54:30Z</time>
      </trkpt>
      <trkpt lat="39.12577" lon="-0.28946">
        <time>2019-03-23T13:54:31Z</time>
      </trkpt>
      <trkpt lat="39.12583" lon="-0.28947">
        <time>2019-03-23T13:54:32Z</time>
      </trkpt>
      <trkpt lat="39.12588" lon="-0.28948">
        <time>2019-03-23T13:54:33Z</time>
      </trkpt>
      <trkpt lat="39.12592" lon="-0.28948">
        <time>2019-03-23T13:54:34Z</time>
      </trkpt>
      <trkpt lat="39.12595" lon="-0.28948">
        <time>2019-03-23T13:54:35Z</time>
      </trkpt>
      <trkpt lat="39.12598" lon="-0.28947">
        <time>2019-03-23T13:54:36Z</time>
      </trkpt>
      <trkpt lat="39.126" lon="-0.28946">
        <time>2019-03-23T13:54:37Z</time>
      </trkpt>
      <trkpt lat="39.126" lon="-0.28946">
        <time>2019-03-23T13:54:38Z</time>
      </trkpt>
      <trkpt lat="39.12601" lon="-0.28947">
        <time>2019-03-23T13:58:27Z</time>
      </trkpt>
      <trkpt lat="39.12604" lon="-0.28947">
        <time>2019-03-23T13:58:28Z</time>
      </trkpt>
      <trkpt lat="39.12607" lon="-0.28949">
        <time>2019-03-23T13:58:29Z</time>
      </trkpt>
      <trkpt lat="39.1261" lon="-0.2895">
        <time>2019-03-23T13:58:30Z</time>
      </trkpt>
      <trkpt lat="39.12612" lon="-0.28951">
        <time>2019-03-23T13:58:31Z</time>
      </trkpt>
      <trkpt lat="39.12614" lon="-0.2895">
        <time>2019-03-23T13:58:34Z</time>
      </trkpt>
      <trkpt lat="39.12618" lon="-0.28951">
        <time>2019-03-23T13:58:35Z</time>
      </trkpt>
      <trkpt lat="39.12622" lon="-0.28951">
        <time>2019-03-23T13:58:36Z</time>
      </trkpt>
      <trkpt lat="39.1263" lon="-0.28949">
        <time>2019-03-23T13:58:37Z</time>
      </trkpt>
      <trkpt lat="39.12635" lon="-0.2895">
        <time>2019-03-23T13:58:38Z</time>
      </trkpt>
      <trkpt lat="39.12641" lon="-0.28952">
        <time>2019-03-23T13:58:39Z</time>
      </trkpt>
      <trkpt lat="39.12645" lon="-0.28953">
        <time>2019-03-23T13:58:40Z</time>
      </trkpt>
      <trkpt lat="39.12649" lon="-0.28954">
        <time>2019-03-23T13:58:41Z</time>
      </trkpt>
      <trkpt lat="39.12651" lon="-0.28954">
        <time>2019-03-23T13:58:42Z</time>
      </trkpt>
      <trkpt lat="39.12654" lon="-0.28954">
        <time>2019-03-23T13:58:43Z</time>
      </trkpt>
      <trkpt lat="39.12656" lon="-0.28952">
        <time>2019-03-23T13:58:44Z</time>
      </trkpt>
      <trkpt lat="39.12658" lon="-0.28951">
        <time>2019-03-23T13:58:45Z</time>
      </trkpt>
      <trkpt lat="39.12663" lon="-0.28952">
        <time>2019-03-23T13:58:46Z</time>
      </trkpt>
      <trkpt lat="39.12667" lon="-0.28954">
        <time>2019-03-23T13:58:47Z</time>
      </trkpt>
      <trkpt lat="39.12673" lon="-0.28954">
        <time>2019-03-23T13:58:48Z</time>
      </trkpt>
      <trkpt lat="39.12676" lon="-0.28956">
        <time>2019-03-23T13:58:49Z</time>
      </trkpt>
      <trkpt lat="39.1268" lon="-0.28957">
        <time>2019-03-23T13:58:50Z</time>
      </trkpt>
      <trkpt lat="39.12683" lon="-0.28958">
        <time>2019-03-23T13:58:51Z</time>
      </trkpt>
      <trkpt lat="39.12689" lon="-0.28958">
        <time>2019-03-23T13:58:52Z</time>
      </trkpt>
      <trkpt lat="39.12696" lon="-0.28958">
        <time>2019-03-23T13:58:53Z</time>
      </trkpt>
      <trkpt lat="39.12704" lon="-0.28959">
        <time>2019-03-23T13:58:54Z</time>
      </trkpt>
      <trkpt lat="39.12716" lon="-0.28958">
        <time>2019-03-23T13:58:55Z</time>
      </trkpt>
      <trkpt lat="39.12729" lon="-0.28955">
        <time>2019-03-23T13:58:56Z</time>
      </trkpt>
      <trkpt lat="39.1274" lon="-0.28952">
        <time>2019-03-23T13:58:57Z</time>
      </trkpt>
      <trkpt lat="39.1275" lon="-0.28949">
        <time>2019-03-23T13:58:58Z</time>
      </trkpt>
      <trkpt lat="39.12758" lon="-0.28945">
        <time>2019-03-23T13:58:59Z</time>
      </trkpt>
      <trkpt lat="39.12767" lon="-0.28941">
        <time>2019-03-23T13:59:00Z</time>
      </trkpt>
      <trkpt lat="39.12776" lon="-0.28936">
        <time>2019-03-23T13:59:01Z</time>
      </trkpt>
      <trkpt lat="39.12785" lon="-0.2893">
        <time>2019-03-23T13:59:02Z</time>
      </trkpt>
      <trkpt lat="39.12793" lon="-0.28923">
        <time>2019-03-23T13:59:03Z</time>
      </trkpt>
      <trkpt lat="39.12803" lon="-0.28916">
        <time>2019-03-23T13:59:04Z</time>
      </trkpt>
      <trkpt lat="39.12815" lon="-0.28908">
        <time>2019-03-23T13:59:05Z</time>
      </trkpt>
      <trkpt lat="39.12826" lon="-0.289">
        <time>2019-03-23T13:59:06Z</time>
      </trkpt>
      <trkpt lat="39.12837" lon="-0.28891">
        <time>2019-03-23T13:59:07Z</time>
      </trkpt>
      <trkpt lat="39.12849" lon="-0.28881">
        <time>2019-03-23T13:59:08Z</time>
      </trkpt>
      <trkpt lat="39.12862" lon="-0.28872">
        <time>2019-03-23T13:59:09Z</time>
      </trkpt>
      <trkpt lat="39.12874" lon="-0.28863">
        <time>2019-03-23T13:59:10Z</time>
      </trkpt>
      <trkpt lat="39.12888" lon="-0.28853">
        <time>2019-03-23T13:59:11Z</time>
      </trkpt>
      <trkpt lat="39.12901" lon="-0.28844">
        <time>2019-03-23T13:59:12Z</time>
      </trkpt>
      <trkpt lat="39.12915" lon="-0.28833">
        <time>2019-03-23T13:59:13Z</time>
      </trkpt>
      <trkpt lat="39.12929" lon="-0.28823">
        <time>2019-03-23T13:59:14Z</time>
      </trkpt>
      <trkpt lat="39.12943" lon="-0.28813">
        <time>2019-03-23T13:59:15Z</time>
      </trkpt>
      <trkpt lat="39.12959" lon="-0.28802">
        <time>2019-03-23T13:59:16Z</time>
      </trkpt>
      <trkpt lat="39.12974" lon="-0.2879">
        <time>2019-03-23T13:59:17Z</time>
      </trkpt>
      <trkpt lat="39.12991" lon="-0.28777">
        <time>2019-03-23T13:59:18Z</time>
      </trkpt>
      <trkpt lat="39.13005" lon="-0.28766">
        <time>2019-03-23T13:59:19Z</time>
      </trkpt>
      <trkpt lat="39.13019" lon="-0.28756">
        <time>2019-03-23T13:59:20Z</time>
      </trkpt>
      <trkpt lat="39.13034" lon="-0.28743">
        <time>2019-03-23T13:59:21Z</time>
      </trkpt>
      <trkpt lat="39.13048" lon="-0.28732">
        <time>2019-03-23T13:59:22Z</time>
      </trkpt>
      <trkpt lat="39.13063" lon="-0.28719">
        <time>2019-03-23T13:59:23Z</time>
      </trkpt>
      <trkpt lat="39.13078" lon="-0.28707">
        <time>2019-03-23T13:59:24Z</time>
      </trkpt>
      <trkpt lat="39.13093" lon="-0.28694">
        <time>2019-03-23T13:59:25Z</time>
      </trkpt>
      <trkpt lat="39.13109" lon="-0.28681">
        <time>2019-03-23T13:59:26Z</time>
      </trkpt>
      <trkpt lat="39.13125" lon="-0.28669">
        <time>2019-03-23T13:59:27Z</time>
      </trkpt>
      <trkpt lat="39.13141" lon="-0.28657">
        <time>2019-03-23T13:59:28Z</time>
      </trkpt>
      <trkpt lat="39.13157" lon="-0.28645">
        <time>2019-03-23T13:59:29Z</time>
      </trkpt>
      <trkpt lat="39.13174" lon="-0.28632">
        <time>2019-03-23T13:59:30Z</time>
      </trkpt>
      <trkpt lat="39.13191" lon="-0.2862">
        <time>2019-03-23T13:59:31Z</time>
      </trkpt>
      <trkpt lat="39.13208" lon="-0.28607">
        <time>2019-03-23T13:59:32Z</time>
      </trkpt>
      <trkpt lat="39.13225" lon="-0.28595">
        <time>2019-03-23T13:59:33Z</time>
      </trkpt>
      <trkpt lat="39.13243" lon="-0.28581">
        <time>2019-03-23T13:59:34Z</time>
      </trkpt>
      <trkpt lat="39.13259" lon="-0.28569">
        <time>2019-03-23T13:59:35Z</time>
      </trkpt>
      <trkpt lat="39.13276" lon="-0.28555">
        <time>2019-03-23T13:59:36Z</time>
      </trkpt>
      <trkpt lat="39.13295" lon="-0.28542">
        <time>2019-03-23T13:59:37Z</time>
      </trkpt>
      <trkpt lat="39.13312" lon="-0.2853">
        <time>2019-03-23T13:59:38Z</time>
      </trkpt>
      <trkpt lat="39.13331" lon="-0.28517">
        <time>2019-03-23T13:59:39Z</time>
      </trkpt>
      <trkpt lat="39.1335" lon="-0.28502">
        <time>2019-03-23T13:59:40Z</time>
      </trkpt>
      <trkpt lat="39.13367" lon="-0.28489">
        <time>2019-03-23T13:59:41Z</time>
      </trkpt>
      <trkpt lat="39.13387" lon="-0.28474">
        <time>2019-03-23T13:59:42Z</time>
      </trkpt>
      <trkpt lat="39.13405" lon="-0.28461">
        <time>2019-03-23T13:59:43Z</time>
      </trkpt>
      <trkpt lat="39.13424" lon="-0.28448">
        <time>2019-03-23T13:59:44Z</time>
      </trkpt>
      <trkpt lat="39.13444" lon="-0.28436">
        <time>2019-03-23T13:59:45Z</time>
      </trkpt>
      <trkpt lat="39.13463" lon="-0.28422">
        <time>2019-03-23T13:59:46Z</time>
      </trkpt>
      <trkpt lat="39.13482" lon="-0.28409">
        <time>2019-03-23T13:59:47Z</time>
      </trkpt>
      <trkpt lat="39.135" lon="-0.28395">
        <time>2019-03-23T13:59:48Z</time>
      </trkpt>
      <trkpt lat="39.1352" lon="-0.2838">
        <time>2019-03-23T13:59:49Z</time>
      </trkpt>
      <trkpt lat="39.1354" lon="-0.28364">
        <time>2019-03-23T13:59:50Z</time>
      </trkpt>
      <trkpt lat="39.13558" lon="-0.2835">
        <time>2019-03-23T13:59:51Z</time>
      </trkpt>
      <trkpt lat="39.13578" lon="-0.28335">
        <time>2019-03-23T13:59:52Z</time>
      </trkpt>
      <trkpt lat="39.13597" lon="-0.2832">
        <time>2019-03-23T13:59:53Z</time>
      </trkpt>
      <trkpt lat="39.13615" lon="-0.28307">
        <time>2019-03-23T13:59:54Z</time>
      </trkpt>
      <trkpt lat="39.1363" lon="-0.28295">
        <time>2019-03-23T13:59:55Z</time>
      </trkpt>
      <trkpt lat="39.13645" lon="-0.28284">
        <time>2019-03-23T13:59:56Z</time>
      </trkpt>
      <trkpt lat="39.13659" lon="-0.28274">
        <time>2019-03-23T13:59:57Z</time>
      </trkpt>
      <trkpt lat="39.13672" lon="-0.28264">
        <time>2019-03-23T13:59:58Z</time>
      </trkpt>
      <trkpt lat="39.13686" lon="-0.28254">
        <time>2019-03-23T13:59:59Z</time>
      </trkpt>
      <trkpt lat="39.137" lon="-0.28244">
        <time>2019-03-23T14:00:00Z</time>
      </trkpt>
      <trkpt lat="39.13715" lon="-0.28233">
        <time>2019-03-23T14:00:01Z</time>
      </trkpt>
      <trkpt lat="39.1373" lon="-0.28222">
        <time>2019-03-23T14:00:02Z</time>
      </trkpt>
      <trkpt lat="39.13745" lon="-0.28209">
        <time>2019-03-23T14:00:03Z</time>
      </trkpt>
      <trkpt lat="39.13761" lon="-0.28197">
        <time>2019-03-23T14:00:04Z</time>
      </trkpt>
      <trkpt lat="39.13778" lon="-0.28184">
        <time>2019-03-23T14:00:05Z</time>
      </trkpt>
      <trkpt lat="39.13796" lon="-0.2817">
        <time>2019-03-23T14:00:06Z</time>
      </trkpt>
      <trkpt lat="39.13813" lon="-0.28158">
        <time>2019-03-23T14:00:07Z</time>
      </trkpt>
      <trkpt lat="39.1383" lon="-0.28145">
        <time>2019-03-23T14:00:08Z</time>
      </trkpt>
      <trkpt lat="39.1385" lon="-0.2813">
        <time>2019-03-23T14:00:09Z</time>
      </trkpt>
      <trkpt lat="39.13868" lon="-0.28117">
        <time>2019-03-23T14:00:10Z</time>
      </trkpt>
      <trkpt lat="39.13887" lon="-0.28102">
        <time>2019-03-23T14:00:11Z</time>
      </trkpt>
      <trkpt lat="39.13906" lon="-0.28088">
        <time>2019-03-23T14:00:12Z</time>
      </trkpt>
      <trkpt lat="39.13925" lon="-0.28073">
        <time>2019-03-23T14:00:13Z</time>
      </trkpt>
      <trkpt lat="39.13944" lon="-0.28058">
        <time>2019-03-23T14:00:14Z</time>
      </trkpt>
      <trkpt lat="39.13963" lon="-0.28043">
        <time>2019-03-23T14:00:15Z</time>
      </trkpt>
      <trkpt lat="39.13982" lon="-0.28029">
        <time>2019-03-23T14:00:16Z</time>
      </trkpt>
      <trkpt lat="39.14001" lon="-0.28015">
        <time>2019-03-23T14:00:17Z</time>
      </trkpt>
      <trkpt lat="39.1402" lon="-0.28">
        <time>2019-03-23T14:00:18Z</time>
      </trkpt>
      <trkpt lat="39.1404" lon="-0.27986">
        <time>2019-03-23T14:00:19Z</time>
      </trkpt>
      <trkpt lat="39.14059" lon="-0.27972">
        <time>2019-03-23T14:00:20Z</time>
      </trkpt>
      <trkpt lat="39.14078" lon="-0.27957">
        <time>2019-03-23T14:00:21Z</time>
      </trkpt>
      <trkpt lat="39.14098" lon="-0.27942">
        <time>2019-03-23T14:00:22Z</time>
      </trkpt>
      <trkpt lat="39.14115" lon="-0.27929">
        <time>2019-03-23T14:00:23Z</time>
      </trkpt>
      <trkpt lat="39.14133" lon="-0.27915">
        <time>2019-03-23T14:00:24Z</time>
      </trkpt>
      <trkpt lat="39.14153" lon="-0.279">
        <time>2019-03-23T14:00:25Z</time>
      </trkpt>
      <trkpt lat="39.14171" lon="-0.27887">
        <time>2019-03-23T14:00:26Z</time>
      </trkpt>
      <trkpt lat="39.1419" lon="-0.27872">
        <time>2019-03-23T14:00:27Z</time>
      </trkpt>
      <trkpt lat="39.1421" lon="-0.27858">
        <time>2019-03-23T14:00:28Z</time>
      </trkpt>
      <trkpt lat="39.14229" lon="-0.27843">
        <time>2019-03-23T14:00:29Z</time>
      </trkpt>
      <trkpt lat="39.1425" lon="-0.27826">
        <time>2019-03-23T14:00:30Z</time>
      </trkpt>
      <trkpt lat="39.14269" lon="-0.27814">
        <time>2019-03-23T14:00:31Z</time>
      </trkpt>
      <trkpt lat="39.14289" lon="-0.27799">
        <time>2019-03-23T14:00:32Z</time>
      </trkpt>
      <trkpt lat="39.14309" lon="-0.27783">
        <time>2019-03-23T14:00:33Z</time>
      </trkpt>
      <trkpt lat="39.14329" lon="-0.27768">
        <time>2019-03-23T14:00:34Z</time>
      </trkpt>
      <trkpt lat="39.1435" lon="-0.27752">
        <time>2019-03-23T14:00:35Z</time>
      </trkpt>
      <trkpt lat="39.1437" lon="-0.27737">
        <time>2019-03-23T14:00:36Z</time>
      </trkpt>
      <trkpt lat="39.14391" lon="-0.27722">
        <time>2019-03-23T14:00:37Z</time>
      </trkpt>
      <trkpt lat="39.14412" lon="-0.27707">
        <time>2019-03-23T14:00:38Z</time>
      </trkpt>
      <trkpt lat="39.14432" lon="-0.27692">
        <time>2019-03-23T14:00:39Z</time>
      </trkpt>
      <trkpt lat="39.14452" lon="-0.27677">
        <time>2019-03-23T14:00:40Z</time>
      </trkpt>
      <trkpt lat="39.14471" lon="-0.27663">
        <time>2019-03-23T14:00:41Z</time>
      </trkpt>
      <trkpt lat="39.1449" lon="-0.27648">
        <time>2019-03-23T14:00:42Z</time>
      </trkpt>
      <trkpt lat="39.14509" lon="-0.27634">
        <time>2019-03-23T14:00:43Z</time>
      </trkpt>
      <trkpt lat="39.14528" lon="-0.27619">
        <time>2019-03-23T14:00:44Z</time>
      </trkpt>
      <trkpt lat="39.14547" lon="-0.27604">
        <time>2019-03-23T14:00:45Z</time>
      </trkpt>
      <trkpt lat="39.14565" lon="-0.2759">
        <time>2019-03-23T14:00:46Z</time>
      </trkpt>
      <trkpt lat="39.14583" lon="-0.2758">
        <time>2019-03-23T14:00:47Z</time>
      </trkpt>
      <trkpt lat="39.14599" lon="-0.2756">
        <time>2019-03-23T14:00:48Z</time>
      </trkpt>
      <trkpt lat="39.14618" lon="-0.27545">
        <time>2019-03-23T14:00:49Z</time>
      </trkpt>
      <trkpt lat="39.14637" lon="-0.27531">
        <time>2019-03-23T14:00:50Z</time>
      </trkpt>
      <trkpt lat="39.14657" lon="-0.27517">
        <time>2019-03-23T14:00:51Z</time>
      </trkpt>
      <trkpt lat="39.14676" lon="-0.27503">
        <time>2019-03-23T14:00:52Z</time>
      </trkpt>
      <trkpt lat="39.14695" lon="-0.27488">
        <time>2019-03-23T14:00:53Z</time>
      </trkpt>
      <trkpt lat="39.14714" lon="-0.27474">
        <time>2019-03-23T14:00:54Z</time>
      </trkpt>
      <trkpt lat="39.14733" lon="-0.2746">
        <time>2019-03-23T14:00:55Z</time>
      </trkpt>
      <trkpt lat="39.14752" lon="-0.27446">
        <time>2019-03-23T14:00:56Z</time>
      </trkpt>
      <trkpt lat="39.14772" lon="-0.27431">
        <time>2019-03-23T14:00:57Z</time>
      </trkpt>
      <trkpt lat="39.1479" lon="-0.27418">
        <time>2019-03-23T14:00:58Z</time>
      </trkpt>
      <trkpt lat="39.14808" lon="-0.27404">
        <time>2019-03-23T14:00:59Z</time>
      </trkpt>
      <trkpt lat="39.14826" lon="-0.27391">
        <time>2019-03-23T14:01:00Z</time>
      </trkpt>
      <trkpt lat="39.14844" lon="-0.27377">
        <time>2019-03-23T14:01:01Z</time>
      </trkpt>
      <trkpt lat="39.14863" lon="-0.27363">
        <time>2019-03-23T14:01:02Z</time>
      </trkpt>
      <trkpt lat="39.1488" lon="-0.2735">
        <time>2019-03-23T14:01:03Z</time>
      </trkpt>
      <trkpt lat="39.14898" lon="-0.27336">
        <time>2019-03-23T14:01:04Z</time>
      </trkpt>
      <trkpt lat="39.14917" lon="-0.27322">
        <time>2019-03-23T14:01:05Z</time>
      </trkpt>
      <trkpt lat="39.14935" lon="-0.27307">
        <time>2019-03-23T14:01:06Z</time>
      </trkpt>
      <trkpt lat="39.14954" lon="-0.27293">
        <time>2019-03-23T14:01:07Z</time>
      </trkpt>
      <trkpt lat="39.14972" lon="-0.27278">
        <time>2019-03-23T14:01:08Z</time>
      </trkpt>
      <trkpt lat="39.14991" lon="-0.27263">
        <time>2019-03-23T14:01:09Z</time>
      </trkpt>
      <trkpt lat="39.1501" lon="-0.27247">
        <time>2019-03-23T14:01:10Z</time>
      </trkpt>
      <trkpt lat="39.15029" lon="-0.27232">
        <time>2019-03-23T14:01:11Z</time>
      </trkpt>
      <trkpt lat="39.15048" lon="-0.27217">
        <time>2019-03-23T14:01:12Z</time>
      </trkpt>
      <trkpt lat="39.15069" lon="-0.27201">
        <time>2019-03-23T14:01:13Z</time>
      </trkpt>
      <trkpt lat="39.15086" lon="-0.27187">
        <time>2019-03-23T14:01:14Z</time>
      </trkpt>
      <trkpt lat="39.15103" lon="-0.27172">
        <time>2019-03-23T14:01:15Z</time>
      </trkpt>
      <trkpt lat="39.15121" lon="-0.27156">
        <time>2019-03-23T14:01:16Z</time>
      </trkpt>
      <trkpt lat="39.15137" lon="-0.27138">
        <time>2019-03-23T14:01:17Z</time>
      </trkpt>
      <trkpt lat="39.15154" lon="-0.27119">
        <time>2019-03-23T14:01:18Z</time>
      </trkpt>
      <trkpt lat="39.15168" lon="-0.27101">
        <time>2019-03-23T14:01:19Z</time>
      </trkpt>
      <trkpt lat="39.15183" lon="-0.27082">
        <time>2019-03-23T14:01:20Z</time>
      </trkpt>
      <trkpt lat="39.15195" lon="-0.27062">
        <time>2019-03-23T14:01:21Z</time>
      </trkpt>
      <trkpt lat="39.15207" lon="-0.27042">
        <time>2019-03-23T14:01:22Z</time>
      </trkpt>
      <trkpt lat="39.15218" lon="-0.27021">
        <time>2019-03-23T14:01:23Z</time>
      </trkpt>
      <trkpt lat="39.15229" lon="-0.27">
        <time>2019-03-23T14:01:24Z</time>
      </trkpt>
      <trkpt lat="39.15239" lon="-0.26977">
        <time>2019-03-23T14:01:25Z</time>
      </trkpt>
      <trkpt lat="39.15248" lon="-0.26956">
        <time>2019-03-23T14:01:26Z</time>
      </trkpt>
      <trkpt lat="39.15257" lon="-0.26934">
        <time>2019-03-23T14:01:27Z</time>
      </trkpt>
      <trkpt lat="39.15266" lon="-0.26913">
        <time>2019-03-23T14:01:28Z</time>
      </trkpt>
      <trkpt lat="39.15275" lon="-0.2689">
        <time>2019-03-23T14:01:29Z</time>
      </trkpt>
      <trkpt lat="39.15283" lon="-0.26871">
        <time>2019-03-23T14:01:30Z</time>
      </trkpt>
      <trkpt lat="39.15293" lon="-0.2685">
        <time>2019-03-23T14:01:31Z</time>
      </trkpt>
      <trkpt lat="39.15304" lon="-0.26831">
        <time>2019-03-23T14:01:32Z</time>
      </trkpt>
      <trkpt lat="39.15315" lon="-0.26812">
        <time>2019-03-23T14:01:33Z</time>
      </trkpt>
      <trkpt lat="39.15328" lon="-0.26795">
        <time>2019-03-23T14:01:34Z</time>
      </trkpt>
      <trkpt lat="39.15341" lon="-0.26781">
        <time>2019-03-23T14:01:35Z</time>
      </trkpt>
      <trkpt lat="39.15355" lon="-0.26767">
        <time>2019-03-23T14:01:36Z</time>
      </trkpt>
      <trkpt lat="39.1537" lon="-0.26754">
        <time>2019-03-23T14:01:37Z</time>
      </trkpt>
      <trkpt lat="39.15386" lon="-0.26743">
        <time>2019-03-23T14:01:38Z</time>
      </trkpt>
      <trkpt lat="39.15402" lon="-0.26733">
        <time>2019-03-23T14:01:39Z</time>
      </trkpt>
      <trkpt lat="39.1542" lon="-0.26725">
        <time>2019-03-23T14:01:40Z</time>
      </trkpt>
      <trkpt lat="39.15437" lon="-0.26719">
        <time>2019-03-23T14:01:41Z</time>
      </trkpt>
      <trkpt lat="39.15457" lon="-0.26714">
        <time>2019-03-23T14:01:42Z</time>
      </trkpt>
      <trkpt lat="39.15475" lon="-0.26713">
        <time>2019-03-23T14:01:43Z</time>
      </trkpt>
      <trkpt lat="39.15494" lon="-0.26712">
        <time>2019-03-23T14:01:44Z</time>
      </trkpt>
      <trkpt lat="39.15514" lon="-0.26715">
        <time>2019-03-23T14:01:45Z</time>
      </trkpt>
      <trkpt lat="39.15531" lon="-0.26719">
        <time>2019-03-23T14:01:46Z</time>
      </trkpt>
      <trkpt lat="39.1555" lon="-0.26725">
        <time>2019-03-23T14:01:47Z</time>
      </trkpt>
      <trkpt lat="39.15568" lon="-0.26732">
        <time>2019-03-23T14:01:48Z</time>
      </trkpt>
      <trkpt lat="39.15585" lon="-0.2674">
        <time>2019-03-23T14:01:49Z</time>
      </trkpt>
      <trkpt lat="39.15604" lon="-0.26749">
        <time>2019-03-23T14:01:50Z</time>
      </trkpt>
      <trkpt lat="39.15621" lon="-0.26758">
        <time>2019-03-23T14:01:51Z</time>
      </trkpt>
      <trkpt lat="39.15639" lon="-0.26767">
        <time>2019-03-23T14:01:52Z</time>
      </trkpt>
      <trkpt lat="39.15656" lon="-0.26776">
        <time>2019-03-23T14:01:53Z</time>
      </trkpt>
      <trkpt lat="39.15674" lon="-0.26786">
        <time>2019-03-23T14:01:54Z</time>
      </trkpt>
      <trkpt lat="39.15692" lon="-0.26795">
        <time>2019-03-23T14:01:55Z</time>
      </trkpt>
      <trkpt lat="39.15708" lon="-0.26802">
        <time>2019-03-23T14:01:56Z</time>
      </trkpt>
      <trkpt lat="39.15723" lon="-0.26808">
        <time>2019-03-23T14:01:57Z</time>
      </trkpt>
      <trkpt lat="39.15741" lon="-0.26817">
        <time>2019-03-23T14:01:58Z</time>
      </trkpt>
      <trkpt lat="39.15756" lon="-0.26823">
        <time>2019-03-23T14:01:59Z</time>
      </trkpt>
      <trkpt lat="39.15773" lon="-0.26831">
        <time>2019-03-23T14:02:00Z</time>
      </trkpt>
      <trkpt lat="39.15792" lon="-0.26838">
        <time>2019-03-23T14:02:01Z</time>
      </trkpt>
      <trkpt lat="39.15808" lon="-0.26845">
        <time>2019-03-23T14:02:02Z</time>
      </trkpt>
      <trkpt lat="39.15826" lon="-0.26851">
        <time>2019-03-23T14:02:03Z</time>
      </trkpt>
      <trkpt lat="39.15844" lon="-0.26858">
        <time>2019-03-23T14:02:04Z</time>
      </trkpt>
      <trkpt lat="39.15863" lon="-0.26864">
        <time>2019-03-23T14:02:05Z</time>
      </trkpt>
      <trkpt lat="39.15881" lon="-0.26869">
        <time>2019-03-23T14:02:06Z</time>
      </trkpt>
      <trkpt lat="39.159" lon="-0.26874">
        <time>2019-03-23T14:02:07Z</time>
      </trkpt>
      <trkpt lat="39.1592" lon="-0.2688">
        <time>2019-03-23T14:02:08Z</time>
      </trkpt>
      <trkpt lat="39.15939" lon="-0.26885">
        <time>2019-03-23T14:02:09Z</time>
      </trkpt>
      <trkpt lat="39.15958" lon="-0.2689">
        <time>2019-03-23T14:02:10Z</time>
      </trkpt>
      <trkpt lat="39.15978" lon="-0.26894">
        <time>2019-03-23T14:02:11Z</time>
      </trkpt>
      <trkpt lat="39.15997" lon="-0.26898">
        <time>2019-03-23T14:02:12Z</time>
      </trkpt>
      <trkpt lat="39.16017" lon="-0.26902">
        <time>2019-03-23T14:02:13Z</time>
      </trkpt>
      <trkpt lat="39.16038" lon="-0.26905">
        <time>2019-03-23T14:02:14Z</time>
      </trkpt>
      <trkpt lat="39.16057" lon="-0.26907">
        <time>2019-03-23T14:02:15Z</time>
      </trkpt>
      <trkpt lat="39.16077" lon="-0.2691">
        <time>2019-03-23T14:02:16Z</time>
      </trkpt>
      <trkpt lat="39.16098" lon="-0.26912">
        <time>2019-03-23T14:02:17Z</time>
      </trkpt>
      <trkpt lat="39.16117" lon="-0.26913">
        <time>2019-03-23T14:02:18Z</time>
      </trkpt>
      <trkpt lat="39.16137" lon="-0.26915">
        <time>2019-03-23T14:02:19Z</time>
      </trkpt>
      <trkpt lat="39.16158" lon="-0.26915">
        <time>2019-03-23T14:02:20Z</time>
      </trkpt>
      <trkpt lat="39.16178" lon="-0.26916">
        <time>2019-03-23T14:02:21Z</time>
      </trkpt>
      <trkpt lat="39.16198" lon="-0.26916">
        <time>2019-03-23T14:02:22Z</time>
      </trkpt>
      <trkpt lat="39.16219" lon="-0.26916">
        <time>2019-03-23T14:02:23Z</time>
      </trkpt>
      <trkpt lat="39.16239" lon="-0.26916">
        <time>2019-03-23T14:02:24Z</time>
      </trkpt>
      <trkpt lat="39.16259" lon="-0.26915">
        <time>2019-03-23T14:02:25Z</time>
      </trkpt>
      <trkpt lat="39.1628" lon="-0.26913">
        <time>2019-03-23T14:02:26Z</time>
      </trkpt>
      <trkpt lat="39.16301" lon="-0.26911">
        <time>2019-03-23T14:02:27Z</time>
      </trkpt>
      <trkpt lat="39.16322" lon="-0.26909">
        <time>2019-03-23T14:02:28Z</time>
      </trkpt>
      <trkpt lat="39.16343" lon="-0.26906">
        <time>2019-03-23T14:02:29Z</time>
      </trkpt>
      <trkpt lat="39.16365" lon="-0.26903">
        <time>2019-03-23T14:02:30Z</time>
      </trkpt>
      <trkpt lat="39.16385" lon="-0.26899">
        <time>2019-03-23T14:02:31Z</time>
      </trkpt>
      <trkpt lat="39.16406" lon="-0.26895">
        <time>2019-03-23T14:02:32Z</time>
      </trkpt>
      <trkpt lat="39.16428" lon="-0.2689">
        <time>2019-03-23T14:02:33Z</time>
      </trkpt>
      <trkpt lat="39.16447" lon="-0.26886">
        <time>2019-03-23T14:02:34Z</time>
      </trkpt>
      <trkpt lat="39.16467" lon="-0.26881">
        <time>2019-03-23T14:02:35Z</time>
      </trkpt>
      <trkpt lat="39.16488" lon="-0.26876">
        <time>2019-03-23T14:02:36Z</time>
      </trkpt>
      <trkpt lat="39.16508" lon="-0.26869">
        <time>2019-03-23T14:02:37Z</time>
      </trkpt>
      <trkpt lat="39.16529" lon="-0.26863">
        <time>2019-03-23T14:02:38Z</time>
      </trkpt>
      <trkpt lat="39.1655" lon="-0.26856">
        <time>2019-03-23T14:02:39Z</time>
      </trkpt>
      <trkpt lat="39.16571" lon="-0.26848">
        <time>2019-03-23T14:02:40Z</time>
      </trkpt>
      <trkpt lat="39.16592" lon="-0.2684">
        <time>2019-03-23T14:02:41Z</time>
      </trkpt>
      <trkpt lat="39.16615" lon="-0.26832">
        <time>2019-03-23T14:02:42Z</time>
      </trkpt>
      <trkpt lat="39.16639" lon="-0.26823">
        <time>2019-03-23T14:02:43Z</time>
      </trkpt>
      <trkpt lat="39.16667" lon="-0.26812">
        <time>2019-03-23T14:02:44Z</time>
      </trkpt>
      <trkpt lat="39.16694" lon="-0.268">
        <time>2019-03-23T14:02:45Z</time>
      </trkpt>
      <trkpt lat="39.16722" lon="-0.26787">
        <time>2019-03-23T14:02:46Z</time>
      </trkpt>
      <trkpt lat="39.16749" lon="-0.26773">
        <time>2019-03-23T14:02:47Z</time>
      </trkpt>
      <trkpt lat="39.16777" lon="-0.26757">
        <time>2019-03-23T14:02:48Z</time>
      </trkpt>
      <trkpt lat="39.16804" lon="-0.26737">
        <time>2019-03-23T14:02:49Z</time>
      </trkpt>
      <trkpt lat="39.16825" lon="-0.26724">
        <time>2019-03-23T14:02:50Z</time>
      </trkpt>
      <trkpt lat="39.16848" lon="-0.26708">
        <time>2019-03-23T14:02:51Z</time>
      </trkpt>
      <trkpt lat="39.16869" lon="-0.26694">
        <time>2019-03-23T14:02:52Z</time>
      </trkpt>
      <trkpt lat="39.16888" lon="-0.2668">
        <time>2019-03-23T14:02:53Z</time>
      </trkpt>
      <trkpt lat="39.16909" lon="-0.26665">
        <time>2019-03-23T14:02:54Z</time>
      </trkpt>
      <trkpt lat="39.16929" lon="-0.2665">
        <time>2019-03-23T14:02:55Z</time>
      </trkpt>
      <trkpt lat="39.16953" lon="-0.26633">
        <time>2019-03-23T14:02:56Z</time>
      </trkpt>
      <trkpt lat="39.16977" lon="-0.26617">
        <time>2019-03-23T14:02:57Z</time>
      </trkpt>
      <trkpt lat="39.17006" lon="-0.266">
        <time>2019-03-23T14:02:58Z</time>
      </trkpt>
      <trkpt lat="39.17027" lon="-0.26585">
        <time>2019-03-23T14:02:59Z</time>
      </trkpt>
      <trkpt lat="39.17048" lon="-0.26571">
        <time>2019-03-23T14:03:00Z</time>
      </trkpt>
      <trkpt lat="39.1707" lon="-0.26557">
        <time>2019-03-23T14:03:01Z</time>
      </trkpt>
      <trkpt lat="39.17091" lon="-0.26542">
        <time>2019-03-23T14:03:02Z</time>
      </trkpt>
      <trkpt lat="39.17112" lon="-0.26528">
        <time>2019-03-23T14:03:03Z</time>
      </trkpt>
      <trkpt lat="39.17134" lon="-0.26514">
        <time>2019-03-23T14:03:04Z</time>
      </trkpt>
      <trkpt lat="39.17155" lon="-0.265">
        <time>2019-03-23T14:03:05Z</time>
      </trkpt>
      <trkpt lat="39.17175" lon="-0.26487">
        <time>2019-03-23T14:03:06Z</time>
      </trkpt>
      <trkpt lat="39.17194" lon="-0.26474">
        <time>2019-03-23T14:03:07Z</time>
      </trkpt>
      <trkpt lat="39.17214" lon="-0.2646">
        <time>2019-03-23T14:03:08Z</time>
      </trkpt>
      <trkpt lat="39.17234" lon="-0.26447">
        <time>2019-03-23T14:03:09Z</time>
      </trkpt>
      <trkpt lat="39.17254" lon="-0.26433">
        <time>2019-03-23T14:03:10Z</time>
      </trkpt>
      <trkpt lat="39.1727" lon="-0.26422">
        <time>2019-03-23T14:03:11Z</time>
      </trkpt>
      <trkpt lat="39.1729" lon="-0.2641">
        <time>2019-03-23T14:03:12Z</time>
      </trkpt>
      <trkpt lat="39.17311" lon="-0.26399">
        <time>2019-03-23T14:03:13Z</time>
      </trkpt>
      <trkpt lat="39.17328" lon="-0.26384">
        <time>2019-03-23T14:03:14Z</time>
      </trkpt>
      <trkpt lat="39.17347" lon="-0.26371">
        <time>2019-03-23T14:03:15Z</time>
      </trkpt>
      <trkpt lat="39.17377" lon="-0.26358">
        <time>2019-03-23T14:03:16Z</time>
      </trkpt>
      <trkpt lat="39.17398" lon="-0.26348">
        <time>2019-03-23T14:03:17Z</time>
      </trkpt>
      <trkpt lat="39.17421" lon="-0.2634">
        <time>2019-03-23T14:03:18Z</time>
      </trkpt>
      <trkpt lat="39.17443" lon="-0.26334">
        <time>2019-03-23T14:03:19Z</time>
      </trkpt>
      <trkpt lat="39.17465" lon="-0.2633">
        <time>2019-03-23T14:03:20Z</time>
      </trkpt>
      <trkpt lat="39.17487" lon="-0.26326">
        <time>2019-03-23T14:03:21Z</time>
      </trkpt>
      <trkpt lat="39.17509" lon="-0.26325">
        <time>2019-03-23T14:03:22Z</time>
      </trkpt>
      <trkpt lat="39.17531" lon="-0.26324">
        <time>2019-03-23T14:03:23Z</time>
      </trkpt>
      <trkpt lat="39.17553" lon="-0.26327">
        <time>2019-03-23T14:03:24Z</time>
      </trkpt>
      <trkpt lat="39.17576" lon="-0.2633">
        <time>2019-03-23T14:03:25Z</time>
      </trkpt>
      <trkpt lat="39.17598" lon="-0.26334">
        <time>2019-03-23T14:03:26Z</time>
      </trkpt>
      <trkpt lat="39.17621" lon="-0.2634">
        <time>2019-03-23T14:03:27Z</time>
      </trkpt>
      <trkpt lat="39.17643" lon="-0.26348">
        <time>2019-03-23T14:03:28Z</time>
      </trkpt>
      <trkpt lat="39.17665" lon="-0.26358">
        <time>2019-03-23T14:03:29Z</time>
      </trkpt>
      <trkpt lat="39.17686" lon="-0.26369">
        <time>2019-03-23T14:03:30Z</time>
      </trkpt>
      <trkpt lat="39.17707" lon="-0.26381">
        <time>2019-03-23T14:03:31Z</time>
      </trkpt>
      <trkpt lat="39.17727" lon="-0.26394">
        <time>2019-03-23T14:03:32Z</time>
      </trkpt>
      <trkpt lat="39.17747" lon="-0.26407">
        <time>2019-03-23T14:03:33Z</time>
      </trkpt>
      <trkpt lat="39.17767" lon="-0.26421">
        <time>2019-03-23T14:03:34Z</time>
      </trkpt>
      <trkpt lat="39.17786" lon="-0.26435">
        <time>2019-03-23T14:03:35Z</time>
      </trkpt>
      <trkpt lat="39.17806" lon="-0.26451">
        <time>2019-03-23T14:03:36Z</time>
      </trkpt>
      <trkpt lat="39.17824" lon="-0.26467">
        <time>2019-03-23T14:03:37Z</time>
      </trkpt>
      <trkpt lat="39.17843" lon="-0.26484">
        <time>2019-03-23T14:03:38Z</time>
      </trkpt>
      <trkpt lat="39.17861" lon="-0.26501">
        <time>2019-03-23T14:03:39Z</time>
      </trkpt>
      <trkpt lat="39.17879" lon="-0.26518">
        <time>2019-03-23T14:03:40Z</time>
      </trkpt>
      <trkpt lat="39.17897" lon="-0.26536">
        <time>2019-03-23T14:03:41Z</time>
      </trkpt>
      <trkpt lat="39.17913" lon="-0.26555">
        <time>2019-03-23T14:03:42Z</time>
      </trkpt>
      <trkpt lat="39.1793" lon="-0.26573">
        <time>2019-03-23T14:03:43Z</time>
      </trkpt>
      <trkpt lat="39.17947" lon="-0.26592">
        <time>2019-03-23T14:03:44Z</time>
      </trkpt>
      <trkpt lat="39.17963" lon="-0.26611">
        <time>2019-03-23T14:03:45Z</time>
      </trkpt>
      <trkpt lat="39.17979" lon="-0.2663">
        <time>2019-03-23T14:03:46Z</time>
      </trkpt>
      <trkpt lat="39.17995" lon="-0.2665">
        <time>2019-03-23T14:03:47Z</time>
      </trkpt>
      <trkpt lat="39.1801" lon="-0.2667">
        <time>2019-03-23T14:03:48Z</time>
      </trkpt>
      <trkpt lat="39.18026" lon="-0.2669">
        <time>2019-03-23T14:03:49Z</time>
      </trkpt>
      <trkpt lat="39.1804" lon="-0.2671">
        <time>2019-03-23T14:03:50Z</time>
      </trkpt>
      <trkpt lat="39.18054" lon="-0.2673">
        <time>2019-03-23T14:03:51Z</time>
      </trkpt>
      <trkpt lat="39.18068" lon="-0.2675">
        <time>2019-03-23T14:03:52Z</time>
      </trkpt>
      <trkpt lat="39.18081" lon="-0.26771">
        <time>2019-03-23T14:03:53Z</time>
      </trkpt>
      <trkpt lat="39.18094" lon="-0.26792">
        <time>2019-03-23T14:03:54Z</time>
      </trkpt>
      <trkpt lat="39.18108" lon="-0.26814">
        <time>2019-03-23T14:03:55Z</time>
      </trkpt>
      <trkpt lat="39.1812" lon="-0.26835">
        <time>2019-03-23T14:03:56Z</time>
      </trkpt>
      <trkpt lat="39.18133" lon="-0.26856">
        <time>2019-03-23T14:03:57Z</time>
      </trkpt>
      <trkpt lat="39.18145" lon="-0.26876">
        <time>2019-03-23T14:03:58Z</time>
      </trkpt>
      <trkpt lat="39.18156" lon="-0.26897">
        <time>2019-03-23T14:03:59Z</time>
      </trkpt>
      <trkpt lat="39.18167" lon="-0.26917">
        <time>2019-03-23T14:04:00Z</time>
      </trkpt>
      <trkpt lat="39.18177" lon="-0.26937">
        <time>2019-03-23T14:04:01Z</time>
      </trkpt>
      <trkpt lat="39.18187" lon="-0.26957">
        <time>2019-03-23T14:04:02Z</time>
      </trkpt>
      <trkpt lat="39.18196" lon="-0.26976">
        <time>2019-03-23T14:04:03Z</time>
      </trkpt>
      <trkpt lat="39.18206" lon="-0.26994">
        <time>2019-03-23T14:04:04Z</time>
      </trkpt>
      <trkpt lat="39.18215" lon="-0.2701">
        <time>2019-03-23T14:04:05Z</time>
      </trkpt>
      <trkpt lat="39.18225" lon="-0.27024">
        <time>2019-03-23T14:04:06Z</time>
      </trkpt>
      <trkpt lat="39.18236" lon="-0.27034">
        <time>2019-03-23T14:04:07Z</time>
      </trkpt>
      <trkpt lat="39.18248" lon="-0.2704">
        <time>2019-03-23T14:04:08Z</time>
      </trkpt>
      <trkpt lat="39.1826" lon="-0.27042">
        <time>2019-03-23T14:04:09Z</time>
      </trkpt>
      <trkpt lat="39.18272" lon="-0.27041">
        <time>2019-03-23T14:04:10Z</time>
      </trkpt>
      <trkpt lat="39.18283" lon="-0.27036">
        <time>2019-03-23T14:04:11Z</time>
      </trkpt>
      <trkpt lat="39.18292" lon="-0.27029">
        <time>2019-03-23T14:04:12Z</time>
      </trkpt>
      <trkpt lat="39.18301" lon="-0.2702">
        <time>2019-03-23T14:04:13Z</time>
      </trkpt>
      <trkpt lat="39.18307" lon="-0.2701">
        <time>2019-03-23T14:04:14Z</time>
      </trkpt>
      <trkpt lat="39.18312" lon="-0.26998">
        <time>2019-03-23T14:04:15Z</time>
      </trkpt>
      <trkpt lat="39.18315" lon="-0.26985">
        <time>2019-03-23T14:04:16Z</time>
      </trkpt>
      <trkpt lat="39.18317" lon="-0.26972">
        <time>2019-03-23T14:04:17Z</time>
      </trkpt>
      <trkpt lat="39.18317" lon="-0.26959">
        <time>2019-03-23T14:04:18Z</time>
      </trkpt>
      <trkpt lat="39.18314" lon="-0.26946">
        <time>2019-03-23T14:04:19Z</time>
      </trkpt>
      <trkpt lat="39.18308" lon="-0.26933">
        <time>2019-03-23T14:04:20Z</time>
      </trkpt>
      <trkpt lat="39.18302" lon="-0.26921">
        <time>2019-03-23T14:04:21Z</time>
      </trkpt>
      <trkpt lat="39.18298" lon="-0.2691">
        <time>2019-03-23T14:04:22Z</time>
      </trkpt>
      <trkpt lat="39.18298" lon="-0.26899">
        <time>2019-03-23T14:04:23Z</time>
      </trkpt>
      <trkpt lat="39.18301" lon="-0.26889">
        <time>2019-03-23T14:04:24Z</time>
      </trkpt>
      <trkpt lat="39.18307" lon="-0.2688">
        <time>2019-03-23T14:04:25Z</time>
      </trkpt>
      <trkpt lat="39.18314" lon="-0.26873">
        <time>2019-03-23T14:04:26Z</time>
      </trkpt>
      <trkpt lat="39.18323" lon="-0.2687">
        <time>2019-03-23T14:04:27Z</time>
      </trkpt>
      <trkpt lat="39.18332" lon="-0.26872">
        <time>2019-03-23T14:04:28Z</time>
      </trkpt>
      <trkpt lat="39.1834" lon="-0.26879">
        <time>2019-03-23T14:04:29Z</time>
      </trkpt>
      <trkpt lat="39.18348" lon="-0.26889">
        <time>2019-03-23T14:04:30Z</time>
      </trkpt>
      <trkpt lat="39.18357" lon="-0.26899">
        <time>2019-03-23T14:04:31Z</time>
      </trkpt>
      <trkpt lat="39.18366" lon="-0.26906">
        <time>2019-03-23T14:04:32Z</time>
      </trkpt>
      <trkpt lat="39.18376" lon="-0.26913">
        <time>2019-03-23T14:04:33Z</time>
      </trkpt>
      <trkpt lat="39.18385" lon="-0.26923">
        <time>2019-03-23T14:04:34Z</time>
      </trkpt>
      <trkpt lat="39.18392" lon="-0.26936">
        <time>2019-03-23T14:04:35Z</time>
      </trkpt>
      <trkpt lat="39.18397" lon="-0.26951">
        <time>2019-03-23T14:04:36Z</time>
      </trkpt>
      <trkpt lat="39.18399" lon="-0.26967">
        <time>2019-03-23T14:04:37Z</time>
      </trkpt>
      <trkpt lat="39.18397" lon="-0.26983">
        <time>2019-03-23T14:04:38Z</time>
      </trkpt>
      <trkpt lat="39.18393" lon="-0.27">
        <time>2019-03-23T14:04:39Z</time>
      </trkpt>
      <trkpt lat="39.18385" lon="-0.27015">
        <time>2019-03-23T14:04:40Z</time>
      </trkpt>
      <trkpt lat="39.18378" lon="-0.2703">
        <time>2019-03-23T14:04:41Z</time>
      </trkpt>
      <trkpt lat="39.18371" lon="-0.27046">
        <time>2019-03-23T14:04:42Z</time>
      </trkpt>
      <trkpt lat="39.18364" lon="-0.27062">
        <time>2019-03-23T14:04:43Z</time>
      </trkpt>
      <trkpt lat="39.18359" lon="-0.27079">
        <time>2019-03-23T14:04:44Z</time>
      </trkpt>
      <trkpt lat="39.18354" lon="-0.27097">
        <time>2019-03-23T14:04:45Z</time>
      </trkpt>
      <trkpt lat="39.1835" lon="-0.27116">
        <time>2019-03-23T14:04:46Z</time>
      </trkpt>
      <trkpt lat="39.18348" lon="-0.27135">
        <time>2019-03-23T14:04:47Z</time>
      </trkpt>
      <trkpt lat="39.18346" lon="-0.27155">
        <time>2019-03-23T14:04:48Z</time>
      </trkpt>
      <trkpt lat="39.18346" lon="-0.27176">
        <time>2019-03-23T14:04:49Z</time>
      </trkpt>
      <trkpt lat="39.18347" lon="-0.27196">
        <time>2019-03-23T14:04:50Z</time>
      </trkpt>
      <trkpt lat="39.1835" lon="-0.27215">
        <time>2019-03-23T14:04:51Z</time>
      </trkpt>
      <trkpt lat="39.18353" lon="-0.27236">
        <time>2019-03-23T14:04:52Z</time>
      </trkpt>
      <trkpt lat="39.18358" lon="-0.27257">
        <time>2019-03-23T14:04:53Z</time>
      </trkpt>
      <trkpt lat="39.18364" lon="-0.27278">
        <time>2019-03-23T14:04:54Z</time>
      </trkpt>
      <trkpt lat="39.1837" lon="-0.27299">
        <time>2019-03-23T14:04:55Z</time>
      </trkpt>
      <trkpt lat="39.18376" lon="-0.27319">
        <time>2019-03-23T14:04:56Z</time>
      </trkpt>
      <trkpt lat="39.18382" lon="-0.2734">
        <time>2019-03-23T14:04:57Z</time>
      </trkpt>
      <trkpt lat="39.18389" lon="-0.2736">
        <time>2019-03-23T14:04:58Z</time>
      </trkpt>
      <trkpt lat="39.18396" lon="-0.2738">
        <time>2019-03-23T14:04:59Z</time>
      </trkpt>
      <trkpt lat="39.18404" lon="-0.274">
        <time>2019-03-23T14:05:00Z</time>
      </trkpt>
      <trkpt lat="39.18412" lon="-0.27419">
        <time>2019-03-23T14:05:01Z</time>
      </trkpt>
      <trkpt lat="39.1842" lon="-0.27439">
        <time>2019-03-23T14:05:02Z</time>
      </trkpt>
      <trkpt lat="39.18429" lon="-0.27458">
        <time>2019-03-23T14:05:03Z</time>
      </trkpt>
      <trkpt lat="39.18438" lon="-0.27478">
        <time>2019-03-23T14:05:04Z</time>
      </trkpt>
      <trkpt lat="39.18447" lon="-0.27497">
        <time>2019-03-23T14:05:05Z</time>
      </trkpt>
      <trkpt lat="39.18456" lon="-0.27516">
        <time>2019-03-23T14:05:06Z</time>
      </trkpt>
      <trkpt lat="39.18465" lon="-0.27536">
        <time>2019-03-23T14:05:07Z</time>
      </trkpt>
      <trkpt lat="39.18475" lon="-0.27555">
        <time>2019-03-23T14:05:08Z</time>
      </trkpt>
      <trkpt lat="39.18484" lon="-0.27575">
        <time>2019-03-23T14:05:09Z</time>
      </trkpt>
      <trkpt lat="39.18493" lon="-0.27593">
        <time>2019-03-23T14:05:10Z</time>
      </trkpt>
      <trkpt lat="39.18503" lon="-0.27612">
        <time>2019-03-23T14:05:11Z</time>
      </trkpt>
      <trkpt lat="39.18512" lon="-0.27631">
        <time>2019-03-23T14:05:12Z</time>
      </trkpt>
      <trkpt lat="39.18522" lon="-0.27651">
        <time>2019-03-23T14:05:13Z</time>
      </trkpt>
      <trkpt lat="39.18531" lon="-0.27669">
        <time>2019-03-23T14:05:14Z</time>
      </trkpt>
      <trkpt lat="39.1854" lon="-0.27689">
        <time>2019-03-23T14:05:15Z</time>
      </trkpt>
      <trkpt lat="39.1855" lon="-0.27708">
        <time>2019-03-23T14:05:16Z</time>
      </trkpt>
      <trkpt lat="39.1856" lon="-0.27729">
        <time>2019-03-23T14:05:17Z</time>
      </trkpt>
      <trkpt lat="39.1857" lon="-0.2775">
        <time>2019-03-23T14:05:18Z</time>
      </trkpt>
      <trkpt lat="39.1858" lon="-0.27773">
        <time>2019-03-23T14:05:19Z</time>
      </trkpt>
      <trkpt lat="39.18591" lon="-0.27798">
        <time>2019-03-23T14:05:20Z</time>
      </trkpt>
      <trkpt lat="39.18603" lon="-0.27824">
        <time>2019-03-23T14:05:21Z</time>
      </trkpt>
      <trkpt lat="39.18617" lon="-0.27851">
        <time>2019-03-23T14:05:22Z</time>
      </trkpt>
      <trkpt lat="39.18632" lon="-0.27879">
        <time>2019-03-23T14:05:23Z</time>
      </trkpt>
      <trkpt lat="39.18647" lon="-0.27909">
        <time>2019-03-23T14:05:24Z</time>
      </trkpt>
      <trkpt lat="39.18662" lon="-0.27939">
        <time>2019-03-23T14:05:25Z</time>
      </trkpt>
      <trkpt lat="39.18677" lon="-0.2797">
        <time>2019-03-23T14:05:26Z</time>
      </trkpt>
      <trkpt lat="39.18692" lon="-0.28002">
        <time>2019-03-23T14:05:27Z</time>
      </trkpt>
      <trkpt lat="39.18708" lon="-0.28032">
        <time>2019-03-23T14:05:28Z</time>
      </trkpt>
      <trkpt lat="39.18723" lon="-0.28063">
        <time>2019-03-23T14:05:29Z</time>
      </trkpt>
      <trkpt lat="39.18738" lon="-0.28093">
        <time>2019-03-23T14:05:30Z</time>
      </trkpt>
      <trkpt lat="39.18753" lon="-0.28124">
        <time>2019-03-23T14:05:31Z</time>
      </trkpt>
      <trkpt lat="39.18768" lon="-0.28154">
        <time>2019-03-23T14:05:32Z</time>
      </trkpt>
      <trkpt lat="39.18783" lon="-0.28186">
        <time>2019-03-23T14:05:33Z</time>
      </trkpt>
      <trkpt lat="39.18798" lon="-0.28216">
        <time>2019-03-23T14:05:34Z</time>
      </trkpt>
      <trkpt lat="39.18813" lon="-0.28248">
        <time>2019-03-23T14:05:35Z</time>
      </trkpt>
      <trkpt lat="39.18828" lon="-0.28279">
        <time>2019-03-23T14:05:36Z</time>
      </trkpt>
      <trkpt lat="39.18844" lon="-0.2831">
        <time>2019-03-23T14:05:37Z</time>
      </trkpt>
      <trkpt lat="39.18859" lon="-0.28341">
        <time>2019-03-23T14:05:38Z</time>
      </trkpt>
      <trkpt lat="39.18875" lon="-0.28373">
        <time>2019-03-23T14:05:39Z</time>
      </trkpt>
      <trkpt lat="39.1889" lon="-0.28405">
        <time>2019-03-23T14:05:40Z</time>
      </trkpt>
      <trkpt lat="39.18905" lon="-0.28437">
        <time>2019-03-23T14:05:41Z</time>
      </trkpt>
      <trkpt lat="39.18921" lon="-0.2847">
        <time>2019-03-23T14:05:42Z</time>
      </trkpt>
      <trkpt lat="39.18936" lon="-0.28501">
        <time>2019-03-23T14:05:43Z</time>
      </trkpt>
      <trkpt lat="39.18952" lon="-0.28533">
        <time>2019-03-23T14:05:44Z</time>
      </trkpt>
      <trkpt lat="39.18968" lon="-0.28565">
        <time>2019-03-23T14:05:45Z</time>
      </trkpt>
      <trkpt lat="39.18984" lon="-0.28596">
        <time>2019-03-23T14:05:46Z</time>
      </trkpt>
      <trkpt lat="39.18999" lon="-0.28628">
        <time>2019-03-23T14:05:47Z</time>
      </trkpt>
      <trkpt lat="39.19015" lon="-0.2866">
        <time>2019-03-23T14:05:48Z</time>
      </trkpt>
      <trkpt lat="39.1903" lon="-0.28692">
        <time>2019-03-23T14:05:49Z</time>
      </trkpt>
      <trkpt lat="39.19046" lon="-0.28724">
        <time>2019-03-23T14:05:50Z</time>
      </trkpt>
      <trkpt lat="39.19061" lon="-0.28756">
        <time>2019-03-23T14:05:51Z</time>
      </trkpt>
      <trkpt lat="39.19076" lon="-0.28788">
        <time>2019-03-23T14:05:52Z</time>
      </trkpt>
      <trkpt lat="39.19092" lon="-0.2882">
        <time>2019-03-23T14:05:53Z</time>
      </trkpt>
      <trkpt lat="39.19107" lon="-0.28852">
        <time>2019-03-23T14:05:54Z</time>
      </trkpt>
      <trkpt lat="39.19123" lon="-0.28884">
        <time>2019-03-23T14:05:55Z</time>
      </trkpt>
      <trkpt lat="39.19139" lon="-0.28915">
        <time>2019-03-23T14:05:56Z</time>
      </trkpt>
      <trkpt lat="39.19153" lon="-0.28944">
        <time>2019-03-23T14:05:57Z</time>
      </trkpt>
      <trkpt lat="39.19167" lon="-0.28974">
        <time>2019-03-23T14:05:58Z</time>
      </trkpt>
      <trkpt lat="39.19182" lon="-0.29004">
        <time>2019-03-23T14:05:59Z</time>
      </trkpt>
      <trkpt lat="39.19196" lon="-0.29033">
        <time>2019-03-23T14:06:00Z</time>
      </trkpt>
      <trkpt lat="39.19209" lon="-0.2906">
        <time>2019-03-23T14:06:01Z</time>
      </trkpt>
      <trkpt lat="39.19222" lon="-0.29086">
        <time>2019-03-23T14:06:02Z</time>
      </trkpt>
      <trkpt lat="39.19233" lon="-0.29112">
        <time>2019-03-23T14:06:03Z</time>
      </trkpt>
      <trkpt lat="39.19244" lon="-0.29136">
        <time>2019-03-23T14:06:04Z</time>
      </trkpt>
      <trkpt lat="39.19255" lon="-0.29157">
        <time>2019-03-23T14:06:05Z</time>
      </trkpt>
      <trkpt lat="39.19269" lon="-0.29174">
        <time>2019-03-23T14:06:06Z</time>
      </trkpt>
      <trkpt lat="39.19283" lon="-0.29185">
        <time>2019-03-23T14:06:07Z</time>
      </trkpt>
      <trkpt lat="39.19296" lon="-0.29195">
        <time>2019-03-23T14:06:08Z</time>
      </trkpt>
      <trkpt lat="39.19305" lon="-0.29206">
        <time>2019-03-23T14:06:09Z</time>
      </trkpt>
      <trkpt lat="39.19309" lon="-0.29219">
        <time>2019-03-23T14:06:10Z</time>
      </trkpt>
      <trkpt lat="39.19311" lon="-0.29236">
        <time>2019-03-23T14:06:11Z</time>
      </trkpt>
      <trkpt lat="39.19311" lon="-0.29255">
        <time>2019-03-23T14:06:12Z</time>
      </trkpt>
      <trkpt lat="39.19315" lon="-0.29275">
        <time>2019-03-23T14:06:13Z</time>
      </trkpt>
      <trkpt lat="39.19324" lon="-0.29295">
        <time>2019-03-23T14:06:14Z</time>
      </trkpt>
      <trkpt lat="39.19333" lon="-0.29315">
        <time>2019-03-23T14:06:15Z</time>
      </trkpt>
      <trkpt lat="39.19344" lon="-0.29337">
        <time>2019-03-23T14:06:16Z</time>
      </trkpt>
      <trkpt lat="39.19354" lon="-0.29358">
        <time>2019-03-23T14:06:17Z</time>
      </trkpt>
      <trkpt lat="39.19365" lon="-0.29382">
        <time>2019-03-23T14:06:18Z</time>
      </trkpt>
      <trkpt lat="39.19376" lon="-0.29406">
        <time>2019-03-23T14:06:19Z</time>
      </trkpt>
      <trkpt lat="39.19388" lon="-0.2943">
        <time>2019-03-23T14:06:20Z</time>
      </trkpt>
      <trkpt lat="39.194" lon="-0.29452">
        <time>2019-03-23T14:06:21Z</time>
      </trkpt>
      <trkpt lat="39.19411" lon="-0.29475">
        <time>2019-03-23T14:06:22Z</time>
      </trkpt>
      <trkpt lat="39.19422" lon="-0.29498">
        <time>2019-03-23T14:06:23Z</time>
      </trkpt>
      <trkpt lat="39.19434" lon="-0.29521">
        <time>2019-03-23T14:06:24Z</time>
      </trkpt>
      <trkpt lat="39.19445" lon="-0.29544">
        <time>2019-03-23T14:06:25Z</time>
      </trkpt>
      <trkpt lat="39.19456" lon="-0.29567">
        <time>2019-03-23T14:06:26Z</time>
      </trkpt>
      <trkpt lat="39.19467" lon="-0.2959">
        <time>2019-03-23T14:06:27Z</time>
      </trkpt>
      <trkpt lat="39.19477" lon="-0.29611">
        <time>2019-03-23T14:06:28Z</time>
      </trkpt>
      <trkpt lat="39.19487" lon="-0.29631">
        <time>2019-03-23T14:06:29Z</time>
      </trkpt>
      <trkpt lat="39.19497" lon="-0.29651">
        <time>2019-03-23T14:06:30Z</time>
      </trkpt>
      <trkpt lat="39.19506" lon="-0.29671">
        <time>2019-03-23T14:06:31Z</time>
      </trkpt>
      <trkpt lat="39.19517" lon="-0.29692">
        <time>2019-03-23T14:06:32Z</time>
      </trkpt>
      <trkpt lat="39.19527" lon="-0.29713">
        <time>2019-03-23T14:06:33Z</time>
      </trkpt>
      <trkpt lat="39.19537" lon="-0.29735">
        <time>2019-03-23T14:06:34Z</time>
      </trkpt>
      <trkpt lat="39.19548" lon="-0.29757">
        <time>2019-03-23T14:06:35Z</time>
      </trkpt>
      <trkpt lat="39.19559" lon="-0.29779">
        <time>2019-03-23T14:06:36Z</time>
      </trkpt>
      <trkpt lat="39.19569" lon="-0.29801">
        <time>2019-03-23T14:06:37Z</time>
      </trkpt>
      <trkpt lat="39.19579" lon="-0.29822">
        <time>2019-03-23T14:06:38Z</time>
      </trkpt>
      <trkpt lat="39.1959" lon="-0.29844">
        <time>2019-03-23T14:06:39Z</time>
      </trkpt>
      <trkpt lat="39.196" lon="-0.29864">
        <time>2019-03-23T14:06:40Z</time>
      </trkpt>
      <trkpt lat="39.19609" lon="-0.29884">
        <time>2019-03-23T14:06:41Z</time>
      </trkpt>
      <trkpt lat="39.19618" lon="-0.29902">
        <time>2019-03-23T14:06:42Z</time>
      </trkpt>
      <trkpt lat="39.19626" lon="-0.2992">
        <time>2019-03-23T14:06:43Z</time>
      </trkpt>
      <trkpt lat="39.19635" lon="-0.29937">
        <time>2019-03-23T14:06:44Z</time>
      </trkpt>
      <trkpt lat="39.19644" lon="-0.29956">
        <time>2019-03-23T14:06:45Z</time>
      </trkpt>
      <trkpt lat="39.19653" lon="-0.29974">
        <time>2019-03-23T14:06:46Z</time>
      </trkpt>
      <trkpt lat="39.19663" lon="-0.29993">
        <time>2019-03-23T14:06:47Z</time>
      </trkpt>
      <trkpt lat="39.19672" lon="-0.30013">
        <time>2019-03-23T14:06:48Z</time>
      </trkpt>
      <trkpt lat="39.19682" lon="-0.30033">
        <time>2019-03-23T14:06:49Z</time>
      </trkpt>
      <trkpt lat="39.19692" lon="-0.30053">
        <time>2019-03-23T14:06:50Z</time>
      </trkpt>
      <trkpt lat="39.19702" lon="-0.30074">
        <time>2019-03-23T14:06:51Z</time>
      </trkpt>
      <trkpt lat="39.19713" lon="-0.30096">
        <time>2019-03-23T14:06:52Z</time>
      </trkpt>
      <trkpt lat="39.19723" lon="-0.30117">
        <time>2019-03-23T14:06:53Z</time>
      </trkpt>
      <trkpt lat="39.19734" lon="-0.30138">
        <time>2019-03-23T14:06:54Z</time>
      </trkpt>
      <trkpt lat="39.19744" lon="-0.3016">
        <time>2019-03-23T14:06:55Z</time>
      </trkpt>
      <trkpt lat="39.19753" lon="-0.3018">
        <time>2019-03-23T14:06:56Z</time>
      </trkpt>
      <trkpt lat="39.19763" lon="-0.30198">
        <time>2019-03-23T14:06:57Z</time>
      </trkpt>
      <trkpt lat="39.19772" lon="-0.30216">
        <time>2019-03-23T14:06:58Z</time>
      </trkpt>
      <trkpt lat="39.1978" lon="-0.30233">
        <time>2019-03-23T14:06:59Z</time>
      </trkpt>
      <trkpt lat="39.19789" lon="-0.30251">
        <time>2019-03-23T14:07:00Z</time>
      </trkpt>
      <trkpt lat="39.19798" lon="-0.30269">
        <time>2019-03-23T14:07:01Z</time>
      </trkpt>
      <trkpt lat="39.19807" lon="-0.30287">
        <time>2019-03-23T14:07:02Z</time>
      </trkpt>
      <trkpt lat="39.19816" lon="-0.30306">
        <time>2019-03-23T14:07:03Z</time>
      </trkpt>
      <trkpt lat="39.19824" lon="-0.30323">
        <time>2019-03-23T14:07:04Z</time>
      </trkpt>
      <trkpt lat="39.19832" lon="-0.30339">
        <time>2019-03-23T14:07:05Z</time>
      </trkpt>
      <trkpt lat="39.1984" lon="-0.30355">
        <time>2019-03-23T14:07:06Z</time>
      </trkpt>
      <trkpt lat="39.19847" lon="-0.30372">
        <time>2019-03-23T14:07:07Z</time>
      </trkpt>
      <trkpt lat="39.19855" lon="-0.30388">
        <time>2019-03-23T14:07:08Z</time>
      </trkpt>
      <trkpt lat="39.19863" lon="-0.30403">
        <time>2019-03-23T14:07:09Z</time>
      </trkpt>
      <trkpt lat="39.19871" lon="-0.30419">
        <time>2019-03-23T14:07:10Z</time>
      </trkpt>
      <trkpt lat="39.19877" lon="-0.30436">
        <time>2019-03-23T14:07:11Z</time>
      </trkpt>
      <trkpt lat="39.19881" lon="-0.30455">
        <time>2019-03-23T14:07:12Z</time>
      </trkpt>
      <trkpt lat="39.1988" lon="-0.30474">
        <time>2019-03-23T14:07:13Z</time>
      </trkpt>
      <trkpt lat="39.19876" lon="-0.30493">
        <time>2019-03-23T14:07:14Z</time>
      </trkpt>
      <trkpt lat="39.1987" lon="-0.30511">
        <time>2019-03-23T14:07:15Z</time>
      </trkpt>
      <trkpt lat="39.19864" lon="-0.30529">
        <time>2019-03-23T14:07:16Z</time>
      </trkpt>
      <trkpt lat="39.19857" lon="-0.30545">
        <time>2019-03-23T14:07:17Z</time>
      </trkpt>
      <trkpt lat="39.19852" lon="-0.30562">
        <time>2019-03-23T14:07:18Z</time>
      </trkpt>
      <trkpt lat="39.19847" lon="-0.30577">
        <time>2019-03-23T14:07:19Z</time>
      </trkpt>
      <trkpt lat="39.19842" lon="-0.30593">
        <time>2019-03-23T14:07:20Z</time>
      </trkpt>
      <trkpt lat="39.19836" lon="-0.3061">
        <time>2019-03-23T14:07:21Z</time>
      </trkpt>
      <trkpt lat="39.1983" lon="-0.30627">
        <time>2019-03-23T14:07:22Z</time>
      </trkpt>
      <trkpt lat="39.19824" lon="-0.30645">
        <time>2019-03-23T14:07:23Z</time>
      </trkpt>
      <trkpt lat="39.19818" lon="-0.30662">
        <time>2019-03-23T14:07:24Z</time>
      </trkpt>
      <trkpt lat="39.19812" lon="-0.30679">
        <time>2019-03-23T14:07:25Z</time>
      </trkpt>
      <trkpt lat="39.19806" lon="-0.30696">
        <time>2019-03-23T14:07:26Z</time>
      </trkpt>
      <trkpt lat="39.19801" lon="-0.30713">
        <time>2019-03-23T14:07:27Z</time>
      </trkpt>
      <trkpt lat="39.19795" lon="-0.3073">
        <time>2019-03-23T14:07:28Z</time>
      </trkpt>
      <trkpt lat="39.1979" lon="-0.30746">
        <time>2019-03-23T14:07:29Z</time>
      </trkpt>
      <trkpt lat="39.19784" lon="-0.30762">
        <time>2019-03-23T14:07:30Z</time>
      </trkpt>
      <trkpt lat="39.19778" lon="-0.30779">
        <time>2019-03-23T14:07:31Z</time>
      </trkpt>
      <trkpt lat="39.19772" lon="-0.30794">
        <time>2019-03-23T14:07:32Z</time>
      </trkpt>
      <trkpt lat="39.19767" lon="-0.3081">
        <time>2019-03-23T14:07:33Z</time>
      </trkpt>
      <trkpt lat="39.19764" lon="-0.30826">
        <time>2019-03-23T14:07:34Z</time>
      </trkpt>
      <trkpt lat="39.19762" lon="-0.30842">
        <time>2019-03-23T14:07:35Z</time>
      </trkpt>
      <trkpt lat="39.19763" lon="-0.30859">
        <time>2019-03-23T14:07:36Z</time>
      </trkpt>
      <trkpt lat="39.19766" lon="-0.30875">
        <time>2019-03-23T14:07:37Z</time>
      </trkpt>
      <trkpt lat="39.19768" lon="-0.30891">
        <time>2019-03-23T14:07:38Z</time>
      </trkpt>
      <trkpt lat="39.19771" lon="-0.30905">
        <time>2019-03-23T14:07:39Z</time>
      </trkpt>
      <trkpt lat="39.19774" lon="-0.3092">
        <time>2019-03-23T14:07:40Z</time>
      </trkpt>
      <trkpt lat="39.19778" lon="-0.30936">
        <time>2019-03-23T14:07:41Z</time>
      </trkpt>
      <trkpt lat="39.19783" lon="-0.30952">
        <time>2019-03-23T14:07:42Z</time>
      </trkpt>
      <trkpt lat="39.19786" lon="-0.30968">
        <time>2019-03-23T14:07:43Z</time>
      </trkpt>
      <trkpt lat="39.1979" lon="-0.30983">
        <time>2019-03-23T14:07:44Z</time>
      </trkpt>
      <trkpt lat="39.19795" lon="-0.30998">
        <time>2019-03-23T14:07:45Z</time>
      </trkpt>
      <trkpt lat="39.19799" lon="-0.31014">
        <time>2019-03-23T14:07:46Z</time>
      </trkpt>
      <trkpt lat="39.19803" lon="-0.31028">
        <time>2019-03-23T14:07:47Z</time>
      </trkpt>
      <trkpt lat="39.19807" lon="-0.31043">
        <time>2019-03-23T14:07:48Z</time>
      </trkpt>
      <trkpt lat="39.19811" lon="-0.31058">
        <time>2019-03-23T14:07:49Z</time>
      </trkpt>
      <trkpt lat="39.19815" lon="-0.31074">
        <time>2019-03-23T14:07:50Z</time>
      </trkpt>
      <trkpt lat="39.1982" lon="-0.31088">
        <time>2019-03-23T14:07:51Z</time>
      </trkpt>
      <trkpt lat="39.19825" lon="-0.31101">
        <time>2019-03-23T14:07:52Z</time>
      </trkpt>
      <trkpt lat="39.1983" lon="-0.31114">
        <time>2019-03-23T14:07:53Z</time>
      </trkpt>
      <trkpt lat="39.19837" lon="-0.31126">
        <time>2019-03-23T14:07:54Z</time>
      </trkpt>
      <trkpt lat="39.19844" lon="-0.31138">
        <time>2019-03-23T14:07:55Z</time>
      </trkpt>
      <trkpt lat="39.1985" lon="-0.31148">
        <time>2019-03-23T14:07:56Z</time>
      </trkpt>
      <trkpt lat="39.19857" lon="-0.31159">
        <time>2019-03-23T14:07:57Z</time>
      </trkpt>
      <trkpt lat="39.19862" lon="-0.31168">
        <time>2019-03-23T14:07:58Z</time>
      </trkpt>
      <trkpt lat="39.19868" lon="-0.31176">
        <time>2019-03-23T14:07:59Z</time>
      </trkpt>
      <trkpt lat="39.19873" lon="-0.31184">
        <time>2019-03-23T14:08:00Z</time>
      </trkpt>
      <trkpt lat="39.19878" lon="-0.31192">
        <time>2019-03-23T14:08:01Z</time>
      </trkpt>
      <trkpt lat="39.19882" lon="-0.31198">
        <time>2019-03-23T14:08:02Z</time>
      </trkpt>
      <trkpt lat="39.19885" lon="-0.31203">
        <time>2019-03-23T14:08:03Z</time>
      </trkpt>
      <trkpt lat="39.19888" lon="-0.31208">
        <time>2019-03-23T14:08:04Z</time>
      </trkpt>
      <trkpt lat="39.19891" lon="-0.31212">
        <time>2019-03-23T14:08:05Z</time>
      </trkpt>
      <trkpt lat="39.19894" lon="-0.31216">
        <time>2019-03-23T14:08:06Z</time>
      </trkpt>
      <trkpt lat="39.19896" lon="-0.3122">
        <time>2019-03-23T14:08:07Z</time>
      </trkpt>
      <trkpt lat="39.19898" lon="-0.31223">
        <time>2019-03-23T14:08:08Z</time>
      </trkpt>
      <trkpt lat="39.199" lon="-0.31226">
        <time>2019-03-23T14:08:09Z</time>
      </trkpt>
      <trkpt lat="39.19903" lon="-0.31229">
        <time>2019-03-23T14:08:10Z</time>
      </trkpt>
      <trkpt lat="39.19905" lon="-0.31232">
        <time>2019-03-23T14:08:11Z</time>
      </trkpt>
      <trkpt lat="39.19907" lon="-0.31234">
        <time>2019-03-23T14:08:12Z</time>
      </trkpt>
      <trkpt lat="39.19904" lon="-0.31236">
        <time>2019-03-23T14:08:50Z</time>
      </trkpt>
      <trkpt lat="39.19907" lon="-0.3124">
        <time>2019-03-23T14:08:51Z</time>
      </trkpt>
      <trkpt lat="39.19913" lon="-0.31247">
        <time>2019-03-23T14:08:52Z</time>
      </trkpt>
      <trkpt lat="39.19919" lon="-0.31255">
        <time>2019-03-23T14:08:53Z</time>
      </trkpt>
      <trkpt lat="39.19928" lon="-0.31264">
        <time>2019-03-23T14:08:54Z</time>
      </trkpt>
      <trkpt lat="39.19938" lon="-0.31274">
        <time>2019-03-23T14:08:55Z</time>
      </trkpt>
      <trkpt lat="39.19948" lon="-0.31285">
        <time>2019-03-23T14:08:56Z</time>
      </trkpt>
      <trkpt lat="39.19958" lon="-0.31299">
        <time>2019-03-23T14:08:57Z</time>
      </trkpt>
      <trkpt lat="39.19968" lon="-0.31314">
        <time>2019-03-23T14:08:58Z</time>
      </trkpt>
      <trkpt lat="39.19981" lon="-0.31329">
        <time>2019-03-23T14:08:59Z</time>
      </trkpt>
      <trkpt lat="39.19991" lon="-0.31343">
        <time>2019-03-23T14:09:00Z</time>
      </trkpt>
      <trkpt lat="39.20001" lon="-0.31358">
        <time>2019-03-23T14:09:01Z</time>
      </trkpt>
      <trkpt lat="39.2001" lon="-0.31372">
        <time>2019-03-23T14:09:02Z</time>
      </trkpt>
      <trkpt lat="39.20019" lon="-0.31385">
        <time>2019-03-23T14:09:03Z</time>
      </trkpt>
      <trkpt lat="39.20027" lon="-0.31398">
        <time>2019-03-23T14:09:04Z</time>
      </trkpt>
      <trkpt lat="39.20033" lon="-0.3141">
        <time>2019-03-23T14:09:05Z</time>
      </trkpt>
      <trkpt lat="39.20037" lon="-0.3142">
        <time>2019-03-23T14:09:06Z</time>
      </trkpt>
      <trkpt lat="39.20039" lon="-0.31428">
        <time>2019-03-23T14:09:07Z</time>
      </trkpt>
      <trkpt lat="39.20077" lon="-0.31419">
        <time>2019-03-23T14:09:11Z</time>
      </trkpt>
      <trkpt lat="39.20087" lon="-0.31415">
        <time>2019-03-23T14:09:12Z</time>
      </trkpt>
      <trkpt lat="39.20096" lon="-0.31411">
        <time>2019-03-23T14:09:13Z</time>
      </trkpt>
      <trkpt lat="39.20105" lon="-0.31407">
        <time>2019-03-23T14:09:14Z</time>
      </trkpt>
      <trkpt lat="39.20113" lon="-0.31404">
        <time>2019-03-23T14:09:15Z</time>
      </trkpt>
      <trkpt lat="39.20112" lon="-0.314">
        <time>2019-03-23T14:09:16Z</time>
      </trkpt>
      <trkpt lat="39.20116" lon="-0.31394">
        <time>2019-03-23T14:09:17Z</time>
      </trkpt>
      <trkpt lat="39.20124" lon="-0.31391">
        <time>2019-03-23T14:09:18Z</time>
      </trkpt>
      <trkpt lat="39.20132" lon="-0.31386">
        <time>2019-03-23T14:09:19Z</time>
      </trkpt>
      <trkpt lat="39.20139" lon="-0.31378">
        <time>2019-03-23T14:09:20Z</time>
      </trkpt>
      <trkpt lat="39.20145" lon="-0.31375">
        <time>2019-03-23T14:09:21Z</time>
      </trkpt>
      <trkpt lat="39.20149" lon="-0.31369">
        <time>2019-03-23T14:09:22Z</time>
      </trkpt>
      <trkpt lat="39.20156" lon="-0.31363">
        <time>2019-03-23T14:09:23Z</time>
      </trkpt>
      <trkpt lat="39.20166" lon="-0.31357">
        <time>2019-03-23T14:09:24Z</time>
      </trkpt>
      <trkpt lat="39.20178" lon="-0.3135">
        <time>2019-03-23T14:09:25Z</time>
      </trkpt>
      <trkpt lat="39.20188" lon="-0.31342">
        <time>2019-03-23T14:09:26Z</time>
      </trkpt>
      <trkpt lat="39.20198" lon="-0.31334">
        <time>2019-03-23T14:09:27Z</time>
      </trkpt>
      <trkpt lat="39.20209" lon="-0.31326">
        <time>2019-03-23T14:09:28Z</time>
      </trkpt>
      <trkpt lat="39.20218" lon="-0.31321">
        <time>2019-03-23T14:09:29Z</time>
      </trkpt>
      <trkpt lat="39.20225" lon="-0.31317">
        <time>2019-03-23T14:09:30Z</time>
      </trkpt>
      <trkpt lat="39.20228" lon="-0.31317">
        <time>2019-03-23T14:09:31Z</time>
      </trkpt>
      <trkpt lat="39.20232" lon="-0.31314">
        <time>2019-03-23T14:09:32Z</time>
      </trkpt>
      <trkpt lat="39.20233" lon="-0.31317">
        <time>2019-03-23T14:09:33Z</time>
      </trkpt>
      <trkpt lat="39.20235" lon="-0.31319">
        <time>2019-03-23T14:09:35Z</time>
      </trkpt>
      <trkpt lat="39.20238" lon="-0.31321">
        <time>2019-03-23T14:09:41Z</time>
      </trkpt>
      <trkpt lat="39.20247" lon="-0.31317">
        <time>2019-03-23T14:09:42Z</time>
      </trkpt>
      <trkpt lat="39.20256" lon="-0.31313">
        <time>2019-03-23T14:09:43Z</time>
      </trkpt>
      <trkpt lat="39.20262" lon="-0.31309">
        <time>2019-03-23T14:09:44Z</time>
      </trkpt>
      <trkpt lat="39.20284" lon="-0.31299">
        <time>2019-03-23T14:09:45Z</time>
      </trkpt>
      <trkpt lat="39.20293" lon="-0.31295">
        <time>2019-03-23T14:09:46Z</time>
      </trkpt>
      <trkpt lat="39.20301" lon="-0.31291">
        <time>2019-03-23T14:09:47Z</time>
      </trkpt>
      <trkpt lat="39.20307" lon="-0.31288">
        <time>2019-03-23T14:09:48Z</time>
      </trkpt>
      <trkpt lat="39.20312" lon="-0.31288">
        <time>2019-03-23T14:09:49Z</time>
      </trkpt>
      <trkpt lat="39.20312" lon="-0.31288">
        <time>2019-03-23T14:09:50Z</time>
      </trkpt>
      <trkpt lat="39.20313" lon="-0.31288">
        <time>2019-03-23T14:09:51Z</time>
      </trkpt>
      <trkpt lat="39.20315" lon="-0.31293">
        <time>2019-03-23T14:09:52Z</time>
      </trkpt>
      <trkpt lat="39.20317" lon="-0.31301">
        <time>2019-03-23T14:09:53Z</time>
      </trkpt>
      <trkpt lat="39.20322" lon="-0.31315">
        <time>2019-03-23T14:09:54Z</time>
      </trkpt>
      <trkpt lat="39.20326" lon="-0.3133">
        <time>2019-03-23T14:09:55Z</time>
      </trkpt>
      <trkpt lat="39.2033" lon="-0.31343">
        <time>2019-03-23T14:09:56Z</time>
      </trkpt>
      <trkpt lat="39.20335" lon="-0.31356">
        <time>2019-03-23T14:09:57Z</time>
      </trkpt>
      <trkpt lat="39.2034" lon="-0.31367">
        <time>2019-03-23T14:09:58Z</time>
      </trkpt>
      <trkpt lat="39.20346" lon="-0.31379">
        <time>2019-03-23T14:09:59Z</time>
      </trkpt>
      <trkpt lat="39.20354" lon="-0.31394">
        <time>2019-03-23T14:10:00Z</time>
      </trkpt>
      <trkpt lat="39.20359" lon="-0.31409">
        <time>2019-03-23T14:10:01Z</time>
      </trkpt>
      <trkpt lat="39.20366" lon="-0.31423">
        <time>2019-03-23T14:10:02Z</time>
      </trkpt>
      <trkpt lat="39.20373" lon="-0.31437">
        <time>2019-03-23T14:10:03Z</time>
      </trkpt>
      <trkpt lat="39.2038" lon="-0.31449">
        <time>2019-03-23T14:10:04Z</time>
      </trkpt>
      <trkpt lat="39.20385" lon="-0.3146">
        <time>2019-03-23T14:10:05Z</time>
      </trkpt>
      <trkpt lat="39.20389" lon="-0.31469">
        <time>2019-03-23T14:10:06Z</time>
      </trkpt>
      <trkpt lat="39.20394" lon="-0.31475">
        <time>2019-03-23T14:10:07Z</time>
      </trkpt>
      <trkpt lat="39.20397" lon="-0.3148">
        <time>2019-03-23T14:10:08Z</time>
      </trkpt>
      <trkpt lat="39.20399" lon="-0.31484">
        <time>2019-03-23T14:10:09Z</time>
      </trkpt>
      <trkpt lat="39.20403" lon="-0.31489">
        <time>2019-03-23T14:10:10Z</time>
      </trkpt>
      <trkpt lat="39.20405" lon="-0.31492">
        <time>2019-03-23T14:10:11Z</time>
      </trkpt>
      <trkpt lat="39.20407" lon="-0.31496">
        <time>2019-03-23T14:10:12Z</time>
      </trkpt>
      <trkpt lat="39.2041" lon="-0.31502">
        <time>2019-03-23T14:10:13Z</time>
      </trkpt>
      <trkpt lat="39.20414" lon="-0.31509">
        <time>2019-03-23T14:10:14Z</time>
      </trkpt>
      <trkpt lat="39.20419" lon="-0.31517">
        <time>2019-03-23T14:10:15Z</time>
      </trkpt>
      <trkpt lat="39.20423" lon="-0.31527">
        <time>2019-03-23T14:10:16Z</time>
      </trkpt>
      <trkpt lat="39.20426" lon="-0.31536">
        <time>2019-03-23T14:10:17Z</time>
      </trkpt>
      <trkpt lat="39.20429" lon="-0.31544">
        <time>2019-03-23T14:10:18Z</time>
      </trkpt>
      <trkpt lat="39.2043" lon="-0.31551">
        <time>2019-03-23T14:10:19Z</time>
      </trkpt>
      <trkpt lat="39.20428" lon="-0.31556">
        <time>2019-03-23T14:10:20Z</time>
      </trkpt>
      <trkpt lat="39.20425" lon="-0.31558">
        <time>2019-03-23T14:10:21Z</time>
      </trkpt>
      <trkpt lat="39.20422" lon="-0.31558">
        <time>2019-03-23T14:10:22Z</time>
      </trkpt>
      <trkpt lat="39.2042" lon="-0.31557">
        <time>2019-03-23T14:10:23Z</time>
      </trkpt>
      <trkpt lat="39.20418" lon="-0.31554">
        <time>2019-03-23T14:10:24Z</time>
      </trkpt>
      <trkpt lat="39.20417" lon="-0.31552">
        <time>2019-03-23T14:10:25Z</time>
      </trkpt>
      <trkpt lat="39.20417" lon="-0.3155">
        <time>2019-03-23T14:10:26Z</time>
      </trkpt>
      <trkpt lat="39.20417" lon="-0.31555">
        <time>2019-03-23T14:11:01Z</time>
      </trkpt>
      <trkpt lat="39.2041" lon="-0.31562">
        <time>2019-03-23T14:12:14Z</time>
      </trkpt>
      <trkpt lat="39.20406" lon="-0.3156">
        <time>2019-03-23T14:12:15Z</time>
      </trkpt>
      <trkpt lat="39.20405" lon="-0.31558">
        <time>2019-03-23T14:12:16Z</time>
      </trkpt>
      <trkpt lat="39.20404" lon="-0.31557">
        <time>2019-03-23T14:12:17Z</time>
      </trkpt>
      <trkpt lat="39.20403" lon="-0.31556">
        <time>2019-03-23T14:12:18Z</time>
      </trkpt>
      <trkpt lat="39.20402" lon="-0.31556">
        <time>2019-03-23T14:12:19Z</time>
      </trkpt>
      <trkpt lat="39.20401" lon="-0.31555">
        <time>2019-03-23T14:12:20Z</time>
      </trkpt>
      <trkpt lat="39.204" lon="-0.31555">
        <time>2019-03-23T14:12:21Z</time>
      </trkpt>
      <trkpt lat="39.20397" lon="-0.31555">
        <time>2019-03-23T14:12:22Z</time>
      </trkpt>
      <trkpt lat="39.20394" lon="-0.31556">
        <time>2019-03-23T14:12:23Z</time>
      </trkpt>
      <trkpt lat="39.20391" lon="-0.31556">
        <time>2019-03-23T14:12:24Z</time>
      </trkpt>
      <trkpt lat="39.20389" lon="-0.31556">
        <time>2019-03-23T14:12:25Z</time>
      </trkpt>
      <trkpt lat="39.20388" lon="-0.31551">
        <time>2019-03-23T14:12:26Z</time>
      </trkpt>
      <trkpt lat="39.20388" lon="-0.31548">
        <time>2019-03-23T14:12:27Z</time>
      </trkpt>
      <trkpt lat="39.20385" lon="-0.31548">
        <time>2019-03-23T14:12:28Z</time>
      </trkpt>
      <trkpt lat="39.20353" lon="-0.31553">
        <time>2019-03-23T14:13:48Z</time>
      </trkpt>
      <trkpt lat="39.20355" lon="-0.31553">
        <time>2019-03-23T14:13:49Z</time>
      </trkpt>
      <trkpt lat="39.20339" lon="-0.31547">
        <time>2019-03-23T14:13:55Z</time>
      </trkpt>
      <trkpt lat="39.20332" lon="-0.31547">
        <time>2019-03-23T14:13:56Z</time>
      </trkpt>
      <trkpt lat="39.20327" lon="-0.31547">
        <time>2019-03-23T14:13:57Z</time>
      </trkpt>
      <trkpt lat="39.20326" lon="-0.31547">
        <time>2019-03-23T14:13:58Z</time>
      </trkpt>
      <trkpt lat="39.20326" lon="-0.31544">
        <time>2019-03-23T14:14:01Z</time>
      </trkpt>
      <trkpt lat="39.20328" lon="-0.31544">
        <time>2019-03-23T14:14:02Z</time>
      </trkpt>
      <trkpt lat="39.2034" lon="-0.31544">
        <time>2019-03-23T14:14:08Z</time>
      </trkpt>
      <trkpt lat="39.20346" lon="-0.31543">
        <time>2019-03-23T14:14:10Z</time>
      </trkpt>
      <trkpt lat="39.20349" lon="-0.31542">
        <time>2019-03-23T14:14:12Z</time>
      </trkpt>
    </trkseg>
  </trk>
</gpx>
